<?xml version='1.0' encoding='UTF-8'?><gpx version="1.1" creator="JPX - https://github.com/jenetics/jpx" xmlns="http://www.topografix.com/GPX/1/1"><trk><trkseg><trkpt lat="45.024212558584445" lon="7.5232264486783444"><ele>286.0</ele><time>2026-04-19T08:01:49.999Z</time></trkpt><trkpt lat="45.02423857203799" lon="7.52313459775866"><ele>286.0</ele><time>2026-04-19T08:01:50.999Z</time></trkpt><trkpt lat="45.024267616174754" lon="7.522981413020282"><ele>286.0</ele><time>2026-04-19T08:01:52.999Z</time></trkpt><trkpt lat="45.02429417064287" lon="7.522892734741206"><ele>286.0</ele><time>2026-04-19T08:01:53.999Z</time></trkpt><trkpt lat="45.02430371089301" lon="7.52274570540572"><ele>286.0</ele><time>2026-04-19T08:01:55.999Z</time></trkpt><trkpt lat="45.02430807507207" lon="7.52265428740955"><ele>286.0</ele><time>2026-04-19T08:01:57Z</time></trkpt><trkpt lat="45.024301463804456" lon="7.522563353536946"><ele>286.0</ele><time>2026-04-19T08:01:58Z</time></trkpt><trkpt lat="45.02431332076532" lon="7.522462047941608"><ele>286.0</ele><time>2026-04-19T08:01:59Z</time></trkpt><trkpt lat="45.02433662933193" lon="7.5223490064855145"><ele>286.0</ele><time>2026-04-19T08:02:00Z</time></trkpt><trkpt lat="45.024335484020284" lon="7.522224781447816"><ele>286.0</ele><time>2026-04-19T08:02:01Z</time></trkpt><trkpt lat="45.02434369672269" lon="7.522093814118137"><ele>286.0</ele><time>2026-04-19T08:02:02Z</time></trkpt><trkpt lat="45.024355732140386" lon="7.5219582018044315"><ele>286.0</ele><time>2026-04-19T08:02:03Z</time></trkpt><trkpt lat="45.02436579947988" lon="7.521817687835134"><ele>286.0</ele><time>2026-04-19T08:02:04Z</time></trkpt><trkpt lat="45.024376754572806" lon="7.521675491650988"><ele>286.0</ele><time>2026-04-19T08:02:05Z</time></trkpt><trkpt lat="45.02439698119722" lon="7.5215299690553765"><ele>286.0</ele><time>2026-04-19T08:02:06Z</time></trkpt><trkpt lat="45.02442150379086" lon="7.52137956349014"><ele>286.0</ele><time>2026-04-19T08:02:07Z</time></trkpt><trkpt lat="45.02446119849835" lon="7.5211983935772615"><ele>286.0</ele><time>2026-04-19T08:02:08Z</time></trkpt><trkpt lat="45.0244961101088" lon="7.5210435123347565"><ele>286.25</ele><time>2026-04-19T08:02:09Z</time></trkpt><trkpt lat="45.02452775530886" lon="7.520881977050747"><ele>286.5</ele><time>2026-04-19T08:02:10Z</time></trkpt><trkpt lat="45.02455992398908" lon="7.520723123721921"><ele>286.75</ele><time>2026-04-19T08:02:11Z</time></trkpt><trkpt lat="45.024591875739816" lon="7.520568992255775"><ele>287.0</ele><time>2026-04-19T08:02:12Z</time></trkpt><trkpt lat="45.02462264168111" lon="7.520419914746403"><ele>287.2</ele><time>2026-04-19T08:02:13Z</time></trkpt><trkpt lat="45.02464640741871" lon="7.52027448329817"><ele>287.4</ele><time>2026-04-19T08:02:14Z</time></trkpt><trkpt lat="45.024672552231884" lon="7.520130015896406"><ele>287.6</ele><time>2026-04-19T08:02:15Z</time></trkpt><trkpt lat="45.02471899563821" lon="7.519991745368096"><ele>287.8</ele><time>2026-04-19T08:02:16Z</time></trkpt><trkpt lat="45.02473591515586" lon="7.5198356405519045"><ele>288.0</ele><time>2026-04-19T08:02:17Z</time></trkpt><trkpt lat="45.02478330243322" lon="7.519690255255188"><ele>287.75</ele><time>2026-04-19T08:02:18Z</time></trkpt><trkpt lat="45.02479751145597" lon="7.519531273159528"><ele>287.5</ele><time>2026-04-19T08:02:19Z</time></trkpt><trkpt lat="45.02484395567704" lon="7.519376970107296"><ele>287.25</ele><time>2026-04-19T08:02:20Z</time></trkpt><trkpt lat="45.02487254427387" lon="7.519213805909031"><ele>287.0</ele><time>2026-04-19T08:02:21Z</time></trkpt><trkpt lat="45.02488402207552" lon="7.519042742075764"><ele>287.0</ele><time>2026-04-19T08:02:22Z</time></trkpt><trkpt lat="45.02490512235086" lon="7.518873118786262"><ele>287.0</ele><time>2026-04-19T08:02:23Z</time></trkpt><trkpt lat="45.02492827270287" lon="7.51870140805349"><ele>287.0</ele><time>2026-04-19T08:02:24Z</time></trkpt><trkpt lat="45.0249587711569" lon="7.518527771771025"><ele>287.0</ele><time>2026-04-19T08:02:25Z</time></trkpt><trkpt lat="45.024973094905555" lon="7.518343331319438"><ele>286.75</ele><time>2026-04-19T08:02:26Z</time></trkpt><trkpt lat="45.02500388932497" lon="7.518168410053121"><ele>286.5</ele><time>2026-04-19T08:02:27Z</time></trkpt><trkpt lat="45.02502204770932" lon="7.517987619963608"><ele>286.25</ele><time>2026-04-19T08:02:28Z</time></trkpt><trkpt lat="45.02504053894189" lon="7.517805525195981"><ele>286.0</ele><time>2026-04-19T08:02:29Z</time></trkpt><trkpt lat="45.02505967259306" lon="7.517626275350525"><ele>286.5</ele><time>2026-04-19T08:02:30Z</time></trkpt><trkpt lat="45.02508035606735" lon="7.517444689371062"><ele>287.0</ele><time>2026-04-19T08:02:31Z</time></trkpt><trkpt lat="45.02510084264424" lon="7.517259213766238"><ele>287.5</ele><time>2026-04-19T08:02:32Z</time></trkpt><trkpt lat="45.02512624820173" lon="7.517073931047865"><ele>288.0</ele><time>2026-04-19T08:02:33Z</time></trkpt><trkpt lat="45.0251595632583" lon="7.516892904000107"><ele>288.25</ele><time>2026-04-19T08:02:34Z</time></trkpt><trkpt lat="45.025207246643475" lon="7.516727126140314"><ele>288.5</ele><time>2026-04-19T08:02:35Z</time></trkpt><trkpt lat="45.02529042116134" lon="7.516601124165631"><ele>288.75</ele><time>2026-04-19T08:02:36Z</time></trkpt><trkpt lat="45.02536829420404" lon="7.516470639737054"><ele>289.0</ele><time>2026-04-19T08:02:37Z</time></trkpt><trkpt lat="45.02544283496437" lon="7.516343264111366"><ele>289.5</ele><time>2026-04-19T08:02:38Z</time></trkpt><trkpt lat="45.025515175574355" lon="7.516219412824595"><ele>290.0</ele><time>2026-04-19T08:02:39Z</time></trkpt><trkpt lat="45.025594045194765" lon="7.516084883412114"><ele>290.5</ele><time>2026-04-19T08:02:40Z</time></trkpt><trkpt lat="45.025673251474494" lon="7.515948417428247"><ele>291.0</ele><time>2026-04-19T08:02:41Z</time></trkpt><trkpt lat="45.02573967723935" lon="7.515793176674971"><ele>291.0</ele><time>2026-04-19T08:02:42Z</time></trkpt><trkpt lat="45.02581118369735" lon="7.515659324123508"><ele>291.0</ele><time>2026-04-19T08:02:43Z</time></trkpt><trkpt lat="45.02586387285356" lon="7.515539252954791"><ele>291.0</ele><time>2026-04-19T08:02:44Z</time></trkpt><trkpt lat="45.025901746225394" lon="7.515430596340566"><ele>291.0</ele><time>2026-04-19T08:02:45Z</time></trkpt><trkpt lat="45.02592520392843" lon="7.515331335573273"><ele>291.0</ele><time>2026-04-19T08:02:46Z</time></trkpt><trkpt lat="45.025929809842665" lon="7.515231440977155"><ele>291.0</ele><time>2026-04-19T08:02:47Z</time></trkpt><trkpt lat="45.02592932970732" lon="7.515142016733513"><ele>291.0</ele><time>2026-04-19T08:02:48Z</time></trkpt><trkpt lat="45.02584529228617" lon="7.515072133678403"><ele>291.0</ele><time>2026-04-19T08:02:49Z</time></trkpt><trkpt lat="45.02578423204549" lon="7.515021928113416"><ele>291.0</ele><time>2026-04-19T08:02:50Z</time></trkpt><trkpt lat="45.02571490221048" lon="7.514967555078155"><ele>291.0</ele><time>2026-04-19T08:02:51Z</time></trkpt><trkpt lat="45.02564047739096" lon="7.514907066074087"><ele>291.0</ele><time>2026-04-19T08:02:52Z</time></trkpt><trkpt lat="45.025574402685834" lon="7.514843123989401"><ele>291.0</ele><time>2026-04-19T08:02:53Z</time></trkpt><trkpt lat="45.025506470799" lon="7.514781076300175"><ele>291.0</ele><time>2026-04-19T08:02:54Z</time></trkpt><trkpt lat="45.02543038030574" lon="7.514707586108133"><ele>291.0</ele><time>2026-04-19T08:02:55Z</time></trkpt><trkpt lat="45.02534127431449" lon="7.514631222636447"><ele>291.0</ele><time>2026-04-19T08:02:56Z</time></trkpt><trkpt lat="45.0252531740094" lon="7.514545949377685"><ele>291.0</ele><time>2026-04-19T08:02:57Z</time></trkpt><trkpt lat="45.02516080088051" lon="7.5144582152395545"><ele>291.0</ele><time>2026-04-19T08:02:58Z</time></trkpt><trkpt lat="45.025069363355215" lon="7.51436397696169"><ele>290.5</ele><time>2026-04-19T08:02:59Z</time></trkpt><trkpt lat="45.02496839612527" lon="7.5142703599193075"><ele>290.0</ele><time>2026-04-19T08:03:00Z</time></trkpt><trkpt lat="45.024866488207685" lon="7.514174248764539"><ele>289.5</ele><time>2026-04-19T08:03:01Z</time></trkpt><trkpt lat="45.02476382108307" lon="7.514074636865433"><ele>289.0</ele><time>2026-04-19T08:03:02Z</time></trkpt><trkpt lat="45.02466352812474" lon="7.513980088839897"><ele>289.0</ele><time>2026-04-19T08:03:03Z</time></trkpt><trkpt lat="45.02457311156189" lon="7.513893679588875"><ele>289.0</ele><time>2026-04-19T08:03:04Z</time></trkpt><trkpt lat="45.02449573059945" lon="7.513821040322119"><ele>289.0</ele><time>2026-04-19T08:03:05Z</time></trkpt><trkpt lat="45.024428442774735" lon="7.51375523766686"><ele>289.0</ele><time>2026-04-19T08:03:06Z</time></trkpt><trkpt lat="45.02437984919176" lon="7.513686325557408"><ele>289.0</ele><time>2026-04-19T08:03:07Z</time></trkpt><trkpt lat="45.024342652817126" lon="7.513603277304402"><ele>289.0</ele><time>2026-04-19T08:03:08Z</time></trkpt><trkpt lat="45.024287484879125" lon="7.513527526703066"><ele>289.5</ele><time>2026-04-19T08:03:10.002Z</time></trkpt><trkpt lat="45.02438341177507" lon="7.513312817590102"><ele>290.0</ele><time>2026-04-19T08:03:11.002Z</time></trkpt><trkpt lat="45.02438300978584" lon="7.513180545321993"><ele>290.5</ele><time>2026-04-19T08:03:12.002Z</time></trkpt><trkpt lat="45.02441164714449" lon="7.513048107149678"><ele>291.0</ele><time>2026-04-19T08:03:13.002Z</time></trkpt><trkpt lat="45.024420233055494" lon="7.512904024481768"><ele>291.40000000000003</ele><time>2026-04-19T08:03:14.002Z</time></trkpt><trkpt lat="45.02442095536842" lon="7.512767004313693"><ele>291.8</ele><time>2026-04-19T08:03:15.002Z</time></trkpt><trkpt lat="45.02441882698803" lon="7.5126352738975894"><ele>292.20000000000005</ele><time>2026-04-19T08:03:16.001Z</time></trkpt><trkpt lat="45.02441147371573" lon="7.512505514235973"><ele>292.6</ele><time>2026-04-19T08:03:17.001Z</time></trkpt><trkpt lat="45.02441656260535" lon="7.512383907192599"><ele>293.0</ele><time>2026-04-19T08:03:18.001Z</time></trkpt><trkpt lat="45.02440950740051" lon="7.512262564311734"><ele>292.99999999999994</ele><time>2026-04-19T08:03:19.001Z</time></trkpt><trkpt lat="45.02440127552516" lon="7.512170562357314"><ele>293.0</ele><time>2026-04-19T08:03:20.001Z</time></trkpt><trkpt lat="45.02439564620309" lon="7.512072880949328"><ele>293.0</ele><time>2026-04-19T08:03:21.001Z</time></trkpt><trkpt lat="45.02439603576155" lon="7.511970366920893"><ele>293.0</ele><time>2026-04-19T08:03:22.001Z</time></trkpt><trkpt lat="45.024392332832505" lon="7.511857989982377"><ele>293.0</ele><time>2026-04-19T08:03:23.001Z</time></trkpt><trkpt lat="45.024390431037375" lon="7.511749246045896"><ele>292.99999999999994</ele><time>2026-04-19T08:03:24.001Z</time></trkpt><trkpt lat="45.024388322552994" lon="7.511642247118453"><ele>293.0</ele><time>2026-04-19T08:03:25.001Z</time></trkpt><trkpt lat="45.024405386054184" lon="7.511544542287523"><ele>292.4</ele><time>2026-04-19T08:03:26.001Z</time></trkpt><trkpt lat="45.024406888360815" lon="7.511392324664"><ele>291.8</ele><time>2026-04-19T08:03:28.001Z</time></trkpt><trkpt lat="45.02440836630672" lon="7.51126506574433"><ele>291.2</ele><time>2026-04-19T08:03:30.001Z</time></trkpt><trkpt lat="45.02440982672312" lon="7.511139316591859"><ele>290.6</ele><time>2026-04-19T08:03:47Z</time></trkpt><trkpt lat="45.024412085934266" lon="7.510944789716897"><ele>290.0</ele><time>2026-04-19T08:03:49Z</time></trkpt><trkpt lat="45.02441325467666" lon="7.510844156450466"><ele>290.0</ele><time>2026-04-19T08:03:50Z</time></trkpt><trkpt lat="45.02430198959566" lon="7.510702406247411"><ele>290.0</ele><time>2026-04-19T08:03:51Z</time></trkpt><trkpt lat="45.0242812315108" lon="7.51056775371794"><ele>290.0</ele><time>2026-04-19T08:03:52Z</time></trkpt><trkpt lat="45.0242555613179" lon="7.51043566431498"><ele>290.0</ele><time>2026-04-19T08:03:53Z</time></trkpt><trkpt lat="45.024224459834834" lon="7.510302513100804"><ele>290.0</ele><time>2026-04-19T08:03:54Z</time></trkpt><trkpt lat="45.02419918586245" lon="7.510163502632842"><ele>290.0</ele><time>2026-04-19T08:03:55Z</time></trkpt><trkpt lat="45.02418317221312" lon="7.510036343032344"><ele>290.0</ele><time>2026-04-19T08:03:56Z</time></trkpt><trkpt lat="45.02418657854543" lon="7.5099372970615725"><ele>290.0</ele><time>2026-04-19T08:03:57Z</time></trkpt><trkpt lat="45.024222373252314" lon="7.509825775854715"><ele>290.0</ele><time>2026-04-19T08:03:59Z</time></trkpt><trkpt lat="45.024289378572796" lon="7.509708291345351"><ele>290.0</ele><time>2026-04-19T08:04:01Z</time></trkpt><trkpt lat="45.024293403606336" lon="7.509610619960108"><ele>290.0</ele><time>2026-04-19T08:04:01.999Z</time></trkpt><trkpt lat="45.02430605246588" lon="7.509491991762935"><ele>290.5</ele><time>2026-04-19T08:04:02.999Z</time></trkpt><trkpt lat="45.024336589982106" lon="7.509331659967824"><ele>291.0</ele><time>2026-04-19T08:04:03.999Z</time></trkpt><trkpt lat="45.02438069542987" lon="7.5091976568914465"><ele>291.5</ele><time>2026-04-19T08:04:04.999Z</time></trkpt><trkpt lat="45.024426905929644" lon="7.509062458726913"><ele>292.0</ele><time>2026-04-19T08:04:05.999Z</time></trkpt><trkpt lat="45.02449099694037" lon="7.508912604602163"><ele>292.0</ele><time>2026-04-19T08:04:06.999Z</time></trkpt><trkpt lat="45.02454897821515" lon="7.508803074939095"><ele>292.0</ele><time>2026-04-19T08:04:07.999Z</time></trkpt><trkpt lat="45.02459039615271" lon="7.508711001119944"><ele>292.0</ele><time>2026-04-19T08:04:08.999Z</time></trkpt><trkpt lat="45.02463438837558" lon="7.508590816188207"><ele>292.0</ele><time>2026-04-19T08:04:10.999Z</time></trkpt><trkpt lat="45.02458598827332" lon="7.508496910559441"><ele>292.0</ele><time>2026-04-19T08:04:12.999Z</time></trkpt><trkpt lat="45.02459057892336" lon="7.508360223362899"><ele>292.0</ele><time>2026-04-19T08:04:14.999Z</time></trkpt><trkpt lat="45.02465468451097" lon="7.508210918983899"><ele>292.16666666666663</ele><time>2026-04-19T08:04:16.999Z</time></trkpt><trkpt lat="45.024687833906846" lon="7.508131821964675"><ele>292.3333333333333</ele><time>2026-04-19T08:04:17.999Z</time></trkpt><trkpt lat="45.024724957692364" lon="7.5080372390786225"><ele>292.5</ele><time>2026-04-19T08:04:18.999Z</time></trkpt><trkpt lat="45.024762093699415" lon="7.507941263734533"><ele>292.6666666666667</ele><time>2026-04-19T08:04:19.999Z</time></trkpt><trkpt lat="45.02478553709783" lon="7.507776682832506"><ele>292.83333333333337</ele><time>2026-04-19T08:04:21.999Z</time></trkpt><trkpt lat="45.02485243360935" lon="7.507681225532333"><ele>293.0</ele><time>2026-04-19T08:04:23.999Z</time></trkpt><trkpt lat="45.02490032167058" lon="7.507576962557682"><ele>293.0</ele><time>2026-04-19T08:04:25.999Z</time></trkpt><trkpt lat="45.024861996103205" lon="7.507369970410352"><ele>293.0</ele><time>2026-04-19T08:04:27.999Z</time></trkpt><trkpt lat="45.024835333375286" lon="7.507231612264315"><ele>293.0</ele><time>2026-04-19T08:04:28.999Z</time></trkpt><trkpt lat="45.02481204806291" lon="7.507080424182111"><ele>293.0</ele><time>2026-04-19T08:04:29.999Z</time></trkpt><trkpt lat="45.02478341301961" lon="7.50694147752753"><ele>292.8</ele><time>2026-04-19T08:04:30.999Z</time></trkpt><trkpt lat="45.02475219156289" lon="7.506818013607664"><ele>292.6</ele><time>2026-04-19T08:04:31.999Z</time></trkpt><trkpt lat="45.02472453967494" lon="7.5067302421036235"><ele>292.4</ele><time>2026-04-19T08:04:32.999Z</time></trkpt><trkpt lat="45.02468090139735" lon="7.5065975061316905"><ele>292.2</ele><time>2026-04-19T08:04:34.999Z</time></trkpt><trkpt lat="45.02465714596356" lon="7.5064657361131"><ele>292.0</ele><time>2026-04-19T08:04:36.999Z</time></trkpt><trkpt lat="45.02460142393952" lon="7.506330677607514"><ele>292.3333333333333</ele><time>2026-04-19T08:04:38.999Z</time></trkpt><trkpt lat="45.02457411614223" lon="7.5062223605847365"><ele>292.66666666666663</ele><time>2026-04-19T08:04:39.999Z</time></trkpt><trkpt lat="45.02453549088613" lon="7.50611374456008"><ele>293.0</ele><time>2026-04-19T08:04:40.999Z</time></trkpt><trkpt lat="45.02449337962805" lon="7.506013732230031"><ele>293.3333333333333</ele><time>2026-04-19T08:04:41.999Z</time></trkpt><trkpt lat="45.02444075067624" lon="7.505908043415116"><ele>293.6666666666667</ele><time>2026-04-19T08:04:42.999Z</time></trkpt><trkpt lat="45.024395831786855" lon="7.505800599964762"><ele>294.0</ele><time>2026-04-19T08:04:43.999Z</time></trkpt><trkpt lat="45.02436117779046" lon="7.505682850960276"><ele>294.0</ele><time>2026-04-19T08:04:44.999Z</time></trkpt><trkpt lat="45.024312264770224" lon="7.5055730716340605"><ele>294.0</ele><time>2026-04-19T08:04:45.999Z</time></trkpt><trkpt lat="45.024262243017006" lon="7.505459039553221"><ele>294.0</ele><time>2026-04-19T08:04:46.999Z</time></trkpt><trkpt lat="45.02421100798818" lon="7.505347182550344"><ele>294.0</ele><time>2026-04-19T08:04:47.999Z</time></trkpt><trkpt lat="45.02416548553414" lon="7.505224825734141"><ele>294.0</ele><time>2026-04-19T08:04:48.999Z</time></trkpt><trkpt lat="45.02412830939587" lon="7.50510908764334"><ele>293.8333333333333</ele><time>2026-04-19T08:04:49.999Z</time></trkpt><trkpt lat="45.02408092432647" lon="7.504991934051974"><ele>293.6666666666667</ele><time>2026-04-19T08:04:50.999Z</time></trkpt><trkpt lat="45.024028393116375" lon="7.504880135120334"><ele>293.5</ele><time>2026-04-19T08:04:51.999Z</time></trkpt><trkpt lat="45.02398062591592" lon="7.504777918703198"><ele>293.33333333333337</ele><time>2026-04-19T08:04:52.998Z</time></trkpt><trkpt lat="45.023940854953096" lon="7.504676771971234"><ele>293.1666666666667</ele><time>2026-04-19T08:04:53.998Z</time></trkpt><trkpt lat="45.02391672207153" lon="7.5045759692706655"><ele>293.0</ele><time>2026-04-19T08:04:54.998Z</time></trkpt><trkpt lat="45.02391329162762" lon="7.50446373088299"><ele>293.0</ele><time>2026-04-19T08:04:55.998Z</time></trkpt><trkpt lat="45.02392586213809" lon="7.504339794233429"><ele>293.0</ele><time>2026-04-19T08:04:56.998Z</time></trkpt><trkpt lat="45.023918521654075" lon="7.504180159075761"><ele>293.0</ele><time>2026-04-19T08:04:57.998Z</time></trkpt><trkpt lat="45.02390482930008" lon="7.50402128167088"><ele>293.0</ele><time>2026-04-19T08:04:58.998Z</time></trkpt><trkpt lat="45.02387595478422" lon="7.503858962729082"><ele>293.0</ele><time>2026-04-19T08:04:59.998Z</time></trkpt><trkpt lat="45.023854667331854" lon="7.5036950022893265"><ele>293.0</ele><time>2026-04-19T08:05:00.998Z</time></trkpt><trkpt lat="45.02384640095401" lon="7.503520874477541"><ele>293.0</ele><time>2026-04-19T08:05:01.998Z</time></trkpt><trkpt lat="45.02384178467341" lon="7.503349982068215"><ele>293.0</ele><time>2026-04-19T08:05:02.998Z</time></trkpt><trkpt lat="45.023833141145595" lon="7.5032157385818055"><ele>293.0</ele><time>2026-04-19T08:05:03.998Z</time></trkpt><trkpt lat="45.02382219901717" lon="7.503109910624921"><ele>293.0</ele><time>2026-04-19T08:05:04.998Z</time></trkpt><trkpt lat="45.02389202006512" lon="7.502982107139381"><ele>293.33333333333337</ele><time>2026-04-19T08:05:07.998Z</time></trkpt><trkpt lat="45.0239353151651" lon="7.502888783742922"><ele>293.6666666666667</ele><time>2026-04-19T08:05:08.998Z</time></trkpt><trkpt lat="45.023988711206414" lon="7.502777021978663"><ele>294.0</ele><time>2026-04-19T08:05:09.998Z</time></trkpt><trkpt lat="45.024019396514916" lon="7.502671156127877"><ele>294.3333333333333</ele><time>2026-04-19T08:05:10.998Z</time></trkpt><trkpt lat="45.024064031965295" lon="7.502581845211676"><ele>294.66666666666663</ele><time>2026-04-19T08:05:11.998Z</time></trkpt><trkpt lat="45.02409474757723" lon="7.502486529126545"><ele>295.0</ele><time>2026-04-19T08:05:13.998Z</time></trkpt><trkpt lat="45.024165686087414" lon="7.502399109936787"><ele>295.42857142857144</ele><time>2026-04-19T08:05:16Z</time></trkpt><trkpt lat="45.024230343132196" lon="7.502350519303678"><ele>295.8571428571429</ele><time>2026-04-19T08:05:17Z</time></trkpt><trkpt lat="45.02428209278215" lon="7.502284539409223"><ele>296.2857142857143</ele><time>2026-04-19T08:05:18Z</time></trkpt><trkpt lat="45.02430710994941" lon="7.502196028223903"><ele>296.7142857142857</ele><time>2026-04-19T08:05:19Z</time></trkpt><trkpt lat="45.02431532649863" lon="7.502089265807405"><ele>297.1428571428571</ele><time>2026-04-19T08:05:20Z</time></trkpt><trkpt lat="45.024316933301705" lon="7.501993376611398"><ele>297.57142857142856</ele><time>2026-04-19T08:05:21Z</time></trkpt><trkpt lat="45.02431860951352" lon="7.501894568519314"><ele>298.0</ele><time>2026-04-19T08:05:22Z</time></trkpt><trkpt lat="45.02431120081352" lon="7.501723437889934"><ele>298.0</ele><time>2026-04-19T08:05:24Z</time></trkpt><trkpt lat="45.02434452409602" lon="7.501587490422847"><ele>298.0</ele><time>2026-04-19T08:05:26Z</time></trkpt><trkpt lat="45.02438107086647" lon="7.501468708742073"><ele>298.0</ele><time>2026-04-19T08:05:27Z</time></trkpt><trkpt lat="45.02444698267104" lon="7.501320116927986"><ele>298.0</ele><time>2026-04-19T08:05:28Z</time></trkpt><trkpt lat="45.02449608780459" lon="7.501158726942301"><ele>298.0</ele><time>2026-04-19T08:05:29Z</time></trkpt><trkpt lat="45.024545758462416" lon="7.501009946449104"><ele>297.66666666666663</ele><time>2026-04-19T08:05:30Z</time></trkpt><trkpt lat="45.02458085781801" lon="7.50088441610285"><ele>297.3333333333333</ele><time>2026-04-19T08:05:31Z</time></trkpt><trkpt lat="45.024595286780034" lon="7.500778112324511"><ele>297.0</ele><time>2026-04-19T08:05:32Z</time></trkpt><trkpt lat="45.02463264489399" lon="7.50066752313091"><ele>296.6666666666667</ele><time>2026-04-19T08:05:33Z</time></trkpt><trkpt lat="45.02466181637438" lon="7.500561274378211"><ele>296.33333333333337</ele><time>2026-04-19T08:05:34Z</time></trkpt><trkpt lat="45.024633679154036" lon="7.500426849273463"><ele>296.0</ele><time>2026-04-19T08:05:36Z</time></trkpt><trkpt lat="45.02457988691309" lon="7.5003738103650335"><ele>295.83333333333337</ele><time>2026-04-19T08:05:37Z</time></trkpt><trkpt lat="45.02453081828686" lon="7.500307645149289"><ele>295.6666666666667</ele><time>2026-04-19T08:05:39Z</time></trkpt><trkpt lat="45.024526366943974" lon="7.500200648002226"><ele>295.5</ele><time>2026-04-19T08:05:42Z</time></trkpt><trkpt lat="45.02450597387496" lon="7.500082863505497"><ele>295.3333333333333</ele><time>2026-04-19T08:05:45Z</time></trkpt><trkpt lat="45.02450144284449" lon="7.499932733923866"><ele>295.16666666666663</ele><time>2026-04-19T08:05:48Z</time></trkpt><trkpt lat="45.02453107247586" lon="7.49979569196483"><ele>295.0</ele><time>2026-04-19T08:05:50Z</time></trkpt><trkpt lat="45.0245527556131" lon="7.499694082409092"><ele>295.0</ele><time>2026-04-19T08:05:52Z</time></trkpt><trkpt lat="45.0245927591374" lon="7.499538223721417"><ele>295.0</ele><time>2026-04-19T08:05:54Z</time></trkpt><trkpt lat="45.024604531072654" lon="7.499448099813624"><ele>295.0</ele><time>2026-04-19T08:05:55Z</time></trkpt><trkpt lat="45.02462587237015" lon="7.499343522555376"><ele>295.0</ele><time>2026-04-19T08:05:56Z</time></trkpt><trkpt lat="45.02462688287461" lon="7.4992276104762885"><ele>295.0</ele><time>2026-04-19T08:05:56.999Z</time></trkpt><trkpt lat="45.02465876683669" lon="7.4991409285432455"><ele>295.0</ele><time>2026-04-19T08:05:57.999Z</time></trkpt><trkpt lat="45.02468742705584" lon="7.499027742271987"><ele>295.0</ele><time>2026-04-19T08:05:59.999Z</time></trkpt><trkpt lat="45.024810980283696" lon="7.4990177000353215"><ele>295.0</ele><time>2026-04-19T08:06:01.999Z</time></trkpt><trkpt lat="45.024890011372925" lon="7.499027235237389"><ele>295.0</ele><time>2026-04-19T08:06:03.999Z</time></trkpt><trkpt lat="45.02489737678595" lon="7.498839058130494"><ele>295.0</ele><time>2026-04-19T08:06:05.999Z</time></trkpt><trkpt lat="45.02499246082146" lon="7.498740623846582"><ele>295.6</ele><time>2026-04-19T08:06:06.999Z</time></trkpt><trkpt lat="45.02505651179487" lon="7.498600494840953"><ele>296.2</ele><time>2026-04-19T08:06:07.999Z</time></trkpt><trkpt lat="45.025093452253756" lon="7.498458900583194"><ele>296.8</ele><time>2026-04-19T08:06:08.999Z</time></trkpt><trkpt lat="45.02512172383773" lon="7.4983142705795185"><ele>297.4</ele><time>2026-04-19T08:06:09.999Z</time></trkpt><trkpt lat="45.025153351744535" lon="7.498153967710485"><ele>298.0</ele><time>2026-04-19T08:06:10.999Z</time></trkpt><trkpt lat="45.02518987457207" lon="7.497997905468267"><ele>298.5</ele><time>2026-04-19T08:06:11.999Z</time></trkpt><trkpt lat="45.02523110632678" lon="7.4978133473126976"><ele>299.0</ele><time>2026-04-19T08:06:12.999Z</time></trkpt><trkpt lat="45.02527948643592" lon="7.4976468830633545"><ele>299.5</ele><time>2026-04-19T08:06:13.999Z</time></trkpt><trkpt lat="45.02532336532984" lon="7.497483936740789"><ele>300.0</ele><time>2026-04-19T08:06:14.999Z</time></trkpt><trkpt lat="45.02535281877389" lon="7.4973381812760636"><ele>300.0</ele><time>2026-04-19T08:06:15.999Z</time></trkpt><trkpt lat="45.025381378167786" lon="7.497171365794379"><ele>300.0</ele><time>2026-04-19T08:06:16.999Z</time></trkpt><trkpt lat="45.02535317783956" lon="7.496963119800333"><ele>300.0</ele><time>2026-04-19T08:06:18.999Z</time></trkpt><trkpt lat="45.025381431783366" lon="7.496859475663652"><ele>300.0</ele><time>2026-04-19T08:06:19.999Z</time></trkpt><trkpt lat="45.025421024952834" lon="7.49675861809523"><ele>300.0</ele><time>2026-04-19T08:06:20.999Z</time></trkpt><trkpt lat="45.02543976704127" lon="7.496642523566927"><ele>300.3333333333333</ele><time>2026-04-19T08:06:21.999Z</time></trkpt><trkpt lat="45.02551454311125" lon="7.496583712852891"><ele>300.6666666666667</ele><time>2026-04-19T08:06:22.999Z</time></trkpt><trkpt lat="45.025577959073296" lon="7.496534027203887"><ele>301.0</ele><time>2026-04-19T08:06:23.999Z</time></trkpt><trkpt lat="45.02564803662499" lon="7.49646542756061"><ele>301.33333333333337</ele><time>2026-04-19T08:06:25.999Z</time></trkpt><trkpt lat="45.02572946833693" lon="7.496461896994717"><ele>301.6666666666667</ele><time>2026-04-19T08:06:27.999Z</time></trkpt><trkpt lat="45.02574138316805" lon="7.496341192781288"><ele>302.0</ele><time>2026-04-19T08:06:29.999Z</time></trkpt><trkpt lat="45.02575798681485" lon="7.496247402548906"><ele>302.0</ele><time>2026-04-19T08:06:30.999Z</time></trkpt><trkpt lat="45.025771380699155" lon="7.4961304320716104"><ele>302.0</ele><time>2026-04-19T08:06:31.999Z</time></trkpt><trkpt lat="45.02578649492244" lon="7.496029688746849"><ele>302.0</ele><time>2026-04-19T08:06:32.999Z</time></trkpt><trkpt lat="45.025792906628645" lon="7.4959312861308245"><ele>302.0</ele><time>2026-04-19T08:06:33.999Z</time></trkpt><trkpt lat="45.02582429474654" lon="7.495803173021522"><ele>302.0</ele><time>2026-04-19T08:06:34.999Z</time></trkpt><trkpt lat="45.02584701201728" lon="7.495673815007205"><ele>302.0</ele><time>2026-04-19T08:06:35.999Z</time></trkpt><trkpt lat="45.02586772256813" lon="7.49555588374585"><ele>302.33333333333337</ele><time>2026-04-19T08:06:36.999Z</time></trkpt><trkpt lat="45.0258955098659" lon="7.495405947447604"><ele>302.6666666666667</ele><time>2026-04-19T08:06:37.999Z</time></trkpt><trkpt lat="45.0259238331464" lon="7.4952881163642076"><ele>303.0</ele><time>2026-04-19T08:06:38.999Z</time></trkpt><trkpt lat="45.02594942580249" lon="7.495178676513781"><ele>303.3333333333333</ele><time>2026-04-19T08:06:39.999Z</time></trkpt><trkpt lat="45.026005493364956" lon="7.495114467766296"><ele>303.66666666666663</ele><time>2026-04-19T08:06:40.999Z</time></trkpt><trkpt lat="45.02608102400822" lon="7.495053077543802"><ele>304.0</ele><time>2026-04-19T08:06:41.999Z</time></trkpt><trkpt lat="45.02615503826042" lon="7.495007622432296"><ele>304.0</ele><time>2026-04-19T08:06:42.999Z</time></trkpt><trkpt lat="45.026256886368564" lon="7.494975354136443"><ele>304.0</ele><time>2026-04-19T08:06:43.999Z</time></trkpt><trkpt lat="45.02634607282301" lon="7.494924461879522"><ele>304.0</ele><time>2026-04-19T08:06:44.999Z</time></trkpt><trkpt lat="45.02644295761617" lon="7.4948584378200795"><ele>304.0</ele><time>2026-04-19T08:06:45.999Z</time></trkpt><trkpt lat="45.026545596556495" lon="7.494789505414357"><ele>304.0</ele><time>2026-04-19T08:06:46.999Z</time></trkpt><trkpt lat="45.02664606963892" lon="7.4947286366718355"><ele>303.59999999999997</ele><time>2026-04-19T08:06:47.999Z</time></trkpt><trkpt lat="45.02672380072371" lon="7.494680052799517"><ele>303.2</ele><time>2026-04-19T08:06:48.999Z</time></trkpt><trkpt lat="45.02678539129557" lon="7.4946556711166386"><ele>302.79999999999995</ele><time>2026-04-19T08:06:49.998Z</time></trkpt><trkpt lat="45.02685386205703" lon="7.494631351138787"><ele>302.4</ele><time>2026-04-19T08:06:51.998Z</time></trkpt><trkpt lat="45.026847464645215" lon="7.494381453329448"><ele>302.0</ele><time>2026-04-19T08:06:53.998Z</time></trkpt><trkpt lat="45.026821439299454" lon="7.494248176812733"><ele>302.0</ele><time>2026-04-19T08:06:54.998Z</time></trkpt><trkpt lat="45.026794151162896" lon="7.494105608929812"><ele>302.0</ele><time>2026-04-19T08:06:55.998Z</time></trkpt><trkpt lat="45.026760635458366" lon="7.493930685470307"><ele>302.0</ele><time>2026-04-19T08:06:56.998Z</time></trkpt><trkpt lat="45.02672235224138" lon="7.493739764573433"><ele>302.0</ele><time>2026-04-19T08:06:57.998Z</time></trkpt><trkpt lat="45.026696770218194" lon="7.493537554023886"><ele>302.25</ele><time>2026-04-19T08:06:58.998Z</time></trkpt><trkpt lat="45.02665296128403" lon="7.493329753762661"><ele>302.5</ele><time>2026-04-19T08:06:59.998Z</time></trkpt><trkpt lat="45.02659580300177" lon="7.493143064596945"><ele>302.75</ele><time>2026-04-19T08:07:00.998Z</time></trkpt><trkpt lat="45.02654867052682" lon="7.492938718667489"><ele>303.0</ele><time>2026-04-19T08:07:01.998Z</time></trkpt><trkpt lat="45.02650459757715" lon="7.492748936110983"><ele>303.4</ele><time>2026-04-19T08:07:02.998Z</time></trkpt><trkpt lat="45.026463181166925" lon="7.492568460391136"><ele>303.8</ele><time>2026-04-19T08:07:03.998Z</time></trkpt><trkpt lat="45.02641127886577" lon="7.4924077730470255"><ele>304.2</ele><time>2026-04-19T08:07:04.998Z</time></trkpt><trkpt lat="45.02640411563095" lon="7.492275186418098"><ele>304.6</ele><time>2026-04-19T08:07:05.998Z</time></trkpt><trkpt lat="45.02636761305399" lon="7.492181870578351"><ele>305.0</ele><time>2026-04-19T08:07:06.998Z</time></trkpt><trkpt lat="45.026318848988154" lon="7.492055348457022"><ele>305.0</ele><time>2026-04-19T08:07:07.998Z</time></trkpt><trkpt lat="45.02626414546614" lon="7.4919096640467"><ele>305.0</ele><time>2026-04-19T08:07:08.998Z</time></trkpt><trkpt lat="45.02621259705172" lon="7.491753417033353"><ele>305.0</ele><time>2026-04-19T08:07:09.998Z</time></trkpt><trkpt lat="45.02619463474998" lon="7.491597645887101"><ele>305.0</ele><time>2026-04-19T08:07:10.998Z</time></trkpt><trkpt lat="45.02616668565724" lon="7.491425817963643"><ele>305.0</ele><time>2026-04-19T08:07:11.998Z</time></trkpt><trkpt lat="45.0261532314831" lon="7.491238631714912"><ele>305.0</ele><time>2026-04-19T08:07:12.998Z</time></trkpt><trkpt lat="45.02614414386502" lon="7.491028255754776"><ele>305.0</ele><time>2026-04-19T08:07:13.998Z</time></trkpt><trkpt lat="45.02614042121764" lon="7.4908232151572"><ele>305.0</ele><time>2026-04-19T08:07:14.998Z</time></trkpt><trkpt lat="45.026130927475954" lon="7.490600185372836"><ele>305.5</ele><time>2026-04-19T08:07:15.998Z</time></trkpt><trkpt lat="45.0261317258436" lon="7.490407270768825"><ele>306.0</ele><time>2026-04-19T08:07:16.998Z</time></trkpt><trkpt lat="45.02614645208806" lon="7.490261324059924"><ele>306.5</ele><time>2026-04-19T08:07:17.998Z</time></trkpt><trkpt lat="45.026184549281055" lon="7.49012619650111"><ele>307.0</ele><time>2026-04-19T08:07:18.998Z</time></trkpt><trkpt lat="45.02623643216642" lon="7.489960592183085"><ele>307.0</ele><time>2026-04-19T08:07:19.998Z</time></trkpt><trkpt lat="45.02623569907865" lon="7.489802496353571"><ele>307.0</ele><time>2026-04-19T08:07:20.998Z</time></trkpt><trkpt lat="45.02620394306381" lon="7.489669547566829"><ele>307.0</ele><time>2026-04-19T08:07:22Z</time></trkpt><trkpt lat="45.026225563547875" lon="7.489578313602989"><ele>307.0</ele><time>2026-04-19T08:07:23Z</time></trkpt><trkpt lat="45.02621397019187" lon="7.489478282505741"><ele>307.0</ele><time>2026-04-19T08:07:24Z</time></trkpt><trkpt lat="45.02619918897543" lon="7.489316012754615"><ele>307.16666666666663</ele><time>2026-04-19T08:07:26Z</time></trkpt><trkpt lat="45.026206404112976" lon="7.489179534321052"><ele>307.3333333333333</ele><time>2026-04-19T08:07:28Z</time></trkpt><trkpt lat="45.02620032290197" lon="7.489033410043507"><ele>307.5</ele><time>2026-04-19T08:07:30Z</time></trkpt><trkpt lat="45.026196330040406" lon="7.488942814242432"><ele>307.6666666666667</ele><time>2026-04-19T08:07:31Z</time></trkpt><trkpt lat="45.026189449452644" lon="7.488835994274626"><ele>307.83333333333337</ele><time>2026-04-19T08:07:32Z</time></trkpt><trkpt lat="45.026184104324535" lon="7.4887293083121484"><ele>308.0</ele><time>2026-04-19T08:07:33Z</time></trkpt><trkpt lat="45.02617907209134" lon="7.48860975454682"><ele>308.0</ele><time>2026-04-19T08:07:34Z</time></trkpt><trkpt lat="45.02617354813912" lon="7.48848077754695"><ele>308.0</ele><time>2026-04-19T08:07:35Z</time></trkpt><trkpt lat="45.02616860051112" lon="7.488350415750953"><ele>308.0</ele><time>2026-04-19T08:07:36Z</time></trkpt><trkpt lat="45.02615839084779" lon="7.48821464068952"><ele>308.0</ele><time>2026-04-19T08:07:37Z</time></trkpt><trkpt lat="45.026154650782004" lon="7.488072175017772"><ele>308.0</ele><time>2026-04-19T08:07:38Z</time></trkpt><trkpt lat="45.02615119862634" lon="7.487927427975226"><ele>308.0</ele><time>2026-04-19T08:07:39Z</time></trkpt><trkpt lat="45.02615381710458" lon="7.487766394715328"><ele>308.0</ele><time>2026-04-19T08:07:40Z</time></trkpt><trkpt lat="45.026158271577806" lon="7.487607929261494"><ele>308.0</ele><time>2026-04-19T08:07:41Z</time></trkpt><trkpt lat="45.026168005983784" lon="7.487434899746651"><ele>308.0</ele><time>2026-04-19T08:07:42Z</time></trkpt><trkpt lat="45.02618921192519" lon="7.487274086277158"><ele>308.0</ele><time>2026-04-19T08:07:43Z</time></trkpt><trkpt lat="45.026213862025145" lon="7.48711153623959"><ele>308.0</ele><time>2026-04-19T08:07:44Z</time></trkpt><trkpt lat="45.02624480005895" lon="7.486943456784486"><ele>308.0</ele><time>2026-04-19T08:07:45Z</time></trkpt><trkpt lat="45.02627939182602" lon="7.486769220189469"><ele>308.0</ele><time>2026-04-19T08:07:46Z</time></trkpt><trkpt lat="45.026315882473774" lon="7.486597355528669"><ele>308.8</ele><time>2026-04-19T08:07:47Z</time></trkpt><trkpt lat="45.026358675153986" lon="7.486427710627378"><ele>309.6</ele><time>2026-04-19T08:07:48Z</time></trkpt><trkpt lat="45.02640408312291" lon="7.486272266347651"><ele>310.4</ele><time>2026-04-19T08:07:49Z</time></trkpt><trkpt lat="45.02643746419769" lon="7.486135733607471"><ele>311.2</ele><time>2026-04-19T08:07:50Z</time></trkpt><trkpt lat="45.026457269520876" lon="7.486007951049027"><ele>312.0</ele><time>2026-04-19T08:07:51Z</time></trkpt><trkpt lat="45.026455859322674" lon="7.485911128025367"><ele>313.4</ele><time>2026-04-19T08:07:52Z</time></trkpt><trkpt lat="45.02643454848833" lon="7.485795615692512"><ele>314.79999999999995</ele><time>2026-04-19T08:07:53Z</time></trkpt><trkpt lat="45.02640070655455" lon="7.485674177706079"><ele>316.2</ele><time>2026-04-19T08:07:54Z</time></trkpt><trkpt lat="45.02637183199865" lon="7.485523690120571"><ele>317.59999999999997</ele><time>2026-04-19T08:07:55Z</time></trkpt><trkpt lat="45.02634327687406" lon="7.485351966668424"><ele>319.0</ele><time>2026-04-19T08:07:56Z</time></trkpt><trkpt lat="45.02631417132956" lon="7.48519096540855"><ele>319.0</ele><time>2026-04-19T08:07:57Z</time></trkpt><trkpt lat="45.02628448744382" lon="7.485009771083977"><ele>319.0</ele><time>2026-04-19T08:07:58Z</time></trkpt><trkpt lat="45.02626680895587" lon="7.484852650746894"><ele>319.0</ele><time>2026-04-19T08:07:59Z</time></trkpt><trkpt lat="45.02624768572856" lon="7.484711108140718"><ele>319.0</ele><time>2026-04-19T08:07:59.999Z</time></trkpt><trkpt lat="45.026204105346096" lon="7.484557842307056"><ele>317.59999999999997</ele><time>2026-04-19T08:08:00.999Z</time></trkpt><trkpt lat="45.02616858943241" lon="7.484438299238721"><ele>316.2</ele><time>2026-04-19T08:08:01.999Z</time></trkpt><trkpt lat="45.02613968311482" lon="7.484298306595488"><ele>314.79999999999995</ele><time>2026-04-19T08:08:02.999Z</time></trkpt><trkpt lat="45.02612532696752" lon="7.484173364477634"><ele>313.4</ele><time>2026-04-19T08:08:03.999Z</time></trkpt><trkpt lat="45.02612125606698" lon="7.484034284935518"><ele>312.0</ele><time>2026-04-19T08:08:04.999Z</time></trkpt><trkpt lat="45.026108035473605" lon="7.483874985014247"><ele>311.8</ele><time>2026-04-19T08:08:05.999Z</time></trkpt><trkpt lat="45.02610056610366" lon="7.483732669018947"><ele>311.6</ele><time>2026-04-19T08:08:06.999Z</time></trkpt><trkpt lat="45.02609455539394" lon="7.48358919321807"><ele>311.40000000000003</ele><time>2026-04-19T08:08:07.999Z</time></trkpt><trkpt lat="45.026095904216334" lon="7.4834655314585135"><ele>311.2</ele><time>2026-04-19T08:08:08.999Z</time></trkpt><trkpt lat="45.02610329569888" lon="7.483371525581335"><ele>311.0</ele><time>2026-04-19T08:08:09.999Z</time></trkpt><trkpt lat="45.026172355651525" lon="7.483234971407386"><ele>311.0</ele><time>2026-04-19T08:08:11.999Z</time></trkpt><trkpt lat="45.026230026158025" lon="7.483166261342416"><ele>311.0</ele><time>2026-04-19T08:08:12.999Z</time></trkpt><trkpt lat="45.02629727968943" lon="7.4830544802662615"><ele>311.0</ele><time>2026-04-19T08:08:13.999Z</time></trkpt><trkpt lat="45.026365449083606" lon="7.482923908359931"><ele>311.0</ele><time>2026-04-19T08:08:14.999Z</time></trkpt><trkpt lat="45.026426271573136" lon="7.48278929813373"><ele>311.0</ele><time>2026-04-19T08:08:15.999Z</time></trkpt><trkpt lat="45.02649178543109" lon="7.4826564261532695"><ele>311.25</ele><time>2026-04-19T08:08:16.999Z</time></trkpt><trkpt lat="45.026564039406196" lon="7.482524292245206"><ele>311.5</ele><time>2026-04-19T08:08:17.999Z</time></trkpt><trkpt lat="45.02664574991358" lon="7.482384425548913"><ele>311.75</ele><time>2026-04-19T08:08:18.999Z</time></trkpt><trkpt lat="45.026702821066266" lon="7.482241204203241"><ele>312.0</ele><time>2026-04-19T08:08:19.999Z</time></trkpt><trkpt lat="45.02675093618915" lon="7.482078396296209"><ele>312.2</ele><time>2026-04-19T08:08:20.999Z</time></trkpt><trkpt lat="45.02680296273319" lon="7.4819267492581005"><ele>312.4</ele><time>2026-04-19T08:08:21.999Z</time></trkpt><trkpt lat="45.0268544869144" lon="7.481766521408807"><ele>312.6</ele><time>2026-04-19T08:08:22.999Z</time></trkpt><trkpt lat="45.02689586238554" lon="7.481631727571777"><ele>312.8</ele><time>2026-04-19T08:08:23.999Z</time></trkpt><trkpt lat="45.026937105479185" lon="7.481505498845139"><ele>313.0</ele><time>2026-04-19T08:08:24.999Z</time></trkpt><trkpt lat="45.026983973760224" lon="7.481412229833221"><ele>313.0</ele><time>2026-04-19T08:08:25.999Z</time></trkpt><trkpt lat="45.0270343604506" lon="7.481334431114865"><ele>313.0</ele><time>2026-04-19T08:08:26.999Z</time></trkpt><trkpt lat="45.0270990806118" lon="7.481272708535765"><ele>313.0</ele><time>2026-04-19T08:08:27.999Z</time></trkpt><trkpt lat="45.02716240849187" lon="7.481231037636671"><ele>313.0</ele><time>2026-04-19T08:08:28.999Z</time></trkpt><trkpt lat="45.027228500080696" lon="7.481215141316351"><ele>313.0</ele><time>2026-04-19T08:08:29.999Z</time></trkpt><trkpt lat="45.027302710322424" lon="7.481132587938933"><ele>313.0</ele><time>2026-04-19T08:08:31.999Z</time></trkpt><trkpt lat="45.02732058596257" lon="7.481025214783466"><ele>313.0</ele><time>2026-04-19T08:08:32.999Z</time></trkpt><trkpt lat="45.02731943691575" lon="7.480860018897488"><ele>313.0</ele><time>2026-04-19T08:08:33.999Z</time></trkpt><trkpt lat="45.02732991282827" lon="7.480678014238902"><ele>313.0</ele><time>2026-04-19T08:08:34.999Z</time></trkpt><trkpt lat="45.02734255674491" lon="7.480481762936035"><ele>313.0</ele><time>2026-04-19T08:08:35.999Z</time></trkpt><trkpt lat="45.02736455487646" lon="7.480284998846286"><ele>313.0</ele><time>2026-04-19T08:08:36.999Z</time></trkpt><trkpt lat="45.02739012058659" lon="7.480092164353871"><ele>313.0</ele><time>2026-04-19T08:08:37.999Z</time></trkpt><trkpt lat="45.027417452571115" lon="7.47989668329071"><ele>313.0</ele><time>2026-04-19T08:08:38.999Z</time></trkpt><trkpt lat="45.02745745823338" lon="7.479700867311613"><ele>313.0</ele><time>2026-04-19T08:08:39.999Z</time></trkpt><trkpt lat="45.027495501585236" lon="7.479498837060042"><ele>314.75</ele><time>2026-04-19T08:08:40.999Z</time></trkpt><trkpt lat="45.027532353267844" lon="7.479294534213372"><ele>316.5</ele><time>2026-04-19T08:08:41.999Z</time></trkpt><trkpt lat="45.02757037546096" lon="7.479088344113896"><ele>318.25</ele><time>2026-04-19T08:08:42.999Z</time></trkpt><trkpt lat="45.02761067229213" lon="7.478906735224514"><ele>320.0</ele><time>2026-04-19T08:08:43.999Z</time></trkpt><trkpt lat="45.02764107938996" lon="7.478717063558424"><ele>320.25</ele><time>2026-04-19T08:08:44.999Z</time></trkpt><trkpt lat="45.027677236206344" lon="7.478527921624246"><ele>320.5</ele><time>2026-04-19T08:08:45.999Z</time></trkpt><trkpt lat="45.02770507669495" lon="7.47832009359904"><ele>320.75</ele><time>2026-04-19T08:08:46.999Z</time></trkpt><trkpt lat="45.027729553028614" lon="7.478117343494307"><ele>321.0</ele><time>2026-04-19T08:08:47.999Z</time></trkpt><trkpt lat="45.02775235930129" lon="7.4779289306836745"><ele>321.0</ele><time>2026-04-19T08:08:48.999Z</time></trkpt><trkpt lat="45.02777198619998" lon="7.477749258248149"><ele>321.0</ele><time>2026-04-19T08:08:49.999Z</time></trkpt><trkpt lat="45.027788595374794" lon="7.477578042359755"><ele>321.0</ele><time>2026-04-19T08:08:50.999Z</time></trkpt><trkpt lat="45.02780624132969" lon="7.477363188030872"><ele>321.0</ele><time>2026-04-19T08:08:51.999Z</time></trkpt><trkpt lat="45.02782097156288" lon="7.477177896295881"><ele>321.0</ele><time>2026-04-19T08:08:52.999Z</time></trkpt><trkpt lat="45.027832879013125" lon="7.477026240230555"><ele>321.0</ele><time>2026-04-19T08:08:53.998Z</time></trkpt><trkpt lat="45.02784377155315" lon="7.476887510267288"><ele>321.0</ele><time>2026-04-19T08:08:54.998Z</time></trkpt><trkpt lat="45.027855850428885" lon="7.47673420700848"><ele>321.0</ele><time>2026-04-19T08:08:55.998Z</time></trkpt><trkpt lat="45.027850084927145" lon="7.476607167606715"><ele>321.0</ele><time>2026-04-19T08:08:56.998Z</time></trkpt><trkpt lat="45.027870172330104" lon="7.476473029738991"><ele>321.0</ele><time>2026-04-19T08:08:57.998Z</time></trkpt><trkpt lat="45.02788638035599" lon="7.476307916574355"><ele>321.0</ele><time>2026-04-19T08:08:58.998Z</time></trkpt><trkpt lat="45.02790681773087" lon="7.476120833247545"><ele>321.0</ele><time>2026-04-19T08:08:59.998Z</time></trkpt><trkpt lat="45.027929920628814" lon="7.475929753315606"><ele>321.0</ele><time>2026-04-19T08:09:00.998Z</time></trkpt><trkpt lat="45.02795940810553" lon="7.475737928588544"><ele>320.75</ele><time>2026-04-19T08:09:01.998Z</time></trkpt><trkpt lat="45.027981028755384" lon="7.475548939261652"><ele>320.5</ele><time>2026-04-19T08:09:02.998Z</time></trkpt><trkpt lat="45.027992172445686" lon="7.475344993776279"><ele>320.25</ele><time>2026-04-19T08:09:03.998Z</time></trkpt><trkpt lat="45.028025179563606" lon="7.475151649102122"><ele>320.0</ele><time>2026-04-19T08:09:04.998Z</time></trkpt><trkpt lat="45.02806260713807" lon="7.474964088584976"><ele>320.0</ele><time>2026-04-19T08:09:05.998Z</time></trkpt><trkpt lat="45.02811307306246" lon="7.474784175753373"><ele>320.0</ele><time>2026-04-19T08:09:06.998Z</time></trkpt><trkpt lat="45.028173003801726" lon="7.474597758102576"><ele>320.0</ele><time>2026-04-19T08:09:07.998Z</time></trkpt><trkpt lat="45.02823897302356" lon="7.474424117435329"><ele>320.0</ele><time>2026-04-19T08:09:08.998Z</time></trkpt><trkpt lat="45.02832617592988" lon="7.4742566541163695"><ele>320.5</ele><time>2026-04-19T08:09:09.998Z</time></trkpt><trkpt lat="45.02839579697598" lon="7.47407404254501"><ele>321.0</ele><time>2026-04-19T08:09:10.998Z</time></trkpt><trkpt lat="45.02848162947539" lon="7.47392119780172"><ele>321.5</ele><time>2026-04-19T08:09:11.998Z</time></trkpt><trkpt lat="45.0285546255729" lon="7.4737789675514925"><ele>322.0</ele><time>2026-04-19T08:09:12.998Z</time></trkpt><trkpt lat="45.028623088259344" lon="7.473633088597542"><ele>322.0</ele><time>2026-04-19T08:09:13.998Z</time></trkpt><trkpt lat="45.02868350300256" lon="7.473488074359348"><ele>322.0</ele><time>2026-04-19T08:09:14.998Z</time></trkpt><trkpt lat="45.02875008154782" lon="7.473339889848556"><ele>322.0</ele><time>2026-04-19T08:09:15.998Z</time></trkpt><trkpt lat="45.02881753869066" lon="7.473192527721005"><ele>322.0</ele><time>2026-04-19T08:09:16.998Z</time></trkpt><trkpt lat="45.028890732286946" lon="7.473045420140863"><ele>321.5</ele><time>2026-04-19T08:09:17.998Z</time></trkpt><trkpt lat="45.02895975764144" lon="7.472894885207581"><ele>321.0</ele><time>2026-04-19T08:09:18.998Z</time></trkpt><trkpt lat="45.029021924846404" lon="7.4727332882270305"><ele>320.5</ele><time>2026-04-19T08:09:19.998Z</time></trkpt><trkpt lat="45.029080089309424" lon="7.472566314821858"><ele>320.0</ele><time>2026-04-19T08:09:20.998Z</time></trkpt><trkpt lat="45.02914709607233" lon="7.4724071039913085"><ele>320.8</ele><time>2026-04-19T08:09:21.998Z</time></trkpt><trkpt lat="45.029202765049625" lon="7.472264969025977"><ele>321.6</ele><time>2026-04-19T08:09:22.998Z</time></trkpt><trkpt lat="45.02927004549718" lon="7.472147509084166"><ele>322.4</ele><time>2026-04-19T08:09:23.998Z</time></trkpt><trkpt lat="45.02932843024165" lon="7.47203710548462"><ele>323.2</ele><time>2026-04-19T08:09:24.998Z</time></trkpt><trkpt lat="45.029382981267176" lon="7.471940289581059"><ele>324.0</ele><time>2026-04-19T08:09:25.998Z</time></trkpt><trkpt lat="45.02943574534313" lon="7.471850563694634"><ele>324.0</ele><time>2026-04-19T08:09:26.998Z</time></trkpt><trkpt lat="45.02948760020318" lon="7.47176395440375"><ele>324.0</ele><time>2026-04-19T08:09:28Z</time></trkpt><trkpt lat="45.02954650640152" lon="7.471670768468135"><ele>324.0</ele><time>2026-04-19T08:09:29Z</time></trkpt><trkpt lat="45.02961454181491" lon="7.471563527591233"><ele>324.0</ele><time>2026-04-19T08:09:30Z</time></trkpt><trkpt lat="45.029677846887836" lon="7.4714659986279575"><ele>324.0</ele><time>2026-04-19T08:09:31Z</time></trkpt><trkpt lat="45.02974601453299" lon="7.471356843748668"><ele>322.75</ele><time>2026-04-19T08:09:32Z</time></trkpt><trkpt lat="45.0298209291527" lon="7.4712455733111085"><ele>321.5</ele><time>2026-04-19T08:09:33Z</time></trkpt><trkpt lat="45.02990108693972" lon="7.471131007030713"><ele>320.25</ele><time>2026-04-19T08:09:34Z</time></trkpt><trkpt lat="45.0299838413531" lon="7.471015098717418"><ele>319.0</ele><time>2026-04-19T08:09:35Z</time></trkpt><trkpt lat="45.030068248923335" lon="7.4708993575902305"><ele>319.5</ele><time>2026-04-19T08:09:36Z</time></trkpt><trkpt lat="45.030152097027106" lon="7.470775771253466"><ele>320.0</ele><time>2026-04-19T08:09:37Z</time></trkpt><trkpt lat="45.03024026234948" lon="7.470658903305243"><ele>320.5</ele><time>2026-04-19T08:09:38Z</time></trkpt><trkpt lat="45.03033655333992" lon="7.470545379021663"><ele>321.0</ele><time>2026-04-19T08:09:39Z</time></trkpt><trkpt lat="45.0304418591712" lon="7.4704358993979465"><ele>321.0</ele><time>2026-04-19T08:09:40Z</time></trkpt><trkpt lat="45.03054761556484" lon="7.470332001821612"><ele>321.0</ele><time>2026-04-19T08:09:41Z</time></trkpt><trkpt lat="45.03064890408193" lon="7.470211598878006"><ele>321.0</ele><time>2026-04-19T08:09:42Z</time></trkpt><trkpt lat="45.0307565777729" lon="7.470092649833389"><ele>321.0</ele><time>2026-04-19T08:09:43Z</time></trkpt><trkpt lat="45.03086405717342" lon="7.469975459105992"><ele>321.5</ele><time>2026-04-19T08:09:44Z</time></trkpt><trkpt lat="45.030976342301805" lon="7.469860389412381"><ele>322.0</ele><time>2026-04-19T08:09:45Z</time></trkpt><trkpt lat="45.03107449293572" lon="7.469718628703046"><ele>322.5</ele><time>2026-04-19T08:09:46Z</time></trkpt><trkpt lat="45.03117704382522" lon="7.46958596807268"><ele>323.0</ele><time>2026-04-19T08:09:47Z</time></trkpt><trkpt lat="45.0312620404866" lon="7.46945686908918"><ele>323.0</ele><time>2026-04-19T08:09:48Z</time></trkpt><trkpt lat="45.03133468543201" lon="7.469332248428403"><ele>323.0</ele><time>2026-04-19T08:09:49Z</time></trkpt><trkpt lat="45.03138779660257" lon="7.469214377309918"><ele>323.0</ele><time>2026-04-19T08:09:50Z</time></trkpt><trkpt lat="45.03144595121801" lon="7.469076189357659"><ele>323.0</ele><time>2026-04-19T08:09:51Z</time></trkpt><trkpt lat="45.03148422326961" lon="7.468894128371828"><ele>322.75</ele><time>2026-04-19T08:09:52Z</time></trkpt><trkpt lat="45.03152802435182" lon="7.4687220752610655"><ele>322.5</ele><time>2026-04-19T08:09:53Z</time></trkpt><trkpt lat="45.03157759767845" lon="7.468548525526751"><ele>322.25</ele><time>2026-04-19T08:09:54Z</time></trkpt><trkpt lat="45.031627882990016" lon="7.468371012331434"><ele>322.0</ele><time>2026-04-19T08:09:55Z</time></trkpt><trkpt lat="45.03167892996911" lon="7.468192258751716"><ele>323.25</ele><time>2026-04-19T08:09:56Z</time></trkpt><trkpt lat="45.03172768355492" lon="7.468008530578601"><ele>324.5</ele><time>2026-04-19T08:09:57Z</time></trkpt><trkpt lat="45.03178507028576" lon="7.467835476021266"><ele>325.75</ele><time>2026-04-19T08:09:57.999Z</time></trkpt><trkpt lat="45.03183369863615" lon="7.4676501087921245"><ele>327.0</ele><time>2026-04-19T08:09:58.999Z</time></trkpt><trkpt lat="45.03187573943611" lon="7.467466742549007"><ele>327.0</ele><time>2026-04-19T08:09:59.999Z</time></trkpt><trkpt lat="45.03193757414367" lon="7.467294311297169"><ele>327.0</ele><time>2026-04-19T08:10:00.999Z</time></trkpt><trkpt lat="45.03201123169311" lon="7.467126128297829"><ele>327.0</ele><time>2026-04-19T08:10:01.999Z</time></trkpt><trkpt lat="45.032087746864825" lon="7.466952552244732"><ele>327.0</ele><time>2026-04-19T08:10:02.999Z</time></trkpt><trkpt lat="45.03216703533748" lon="7.466781712001252"><ele>327.0</ele><time>2026-04-19T08:10:03.999Z</time></trkpt><trkpt lat="45.03223995011676" lon="7.466600058759174"><ele>327.0</ele><time>2026-04-19T08:10:04.999Z</time></trkpt><trkpt lat="45.03230822110154" lon="7.466424865169263"><ele>327.0</ele><time>2026-04-19T08:10:05.999Z</time></trkpt><trkpt lat="45.032379572385075" lon="7.466251924624896"><ele>327.0</ele><time>2026-04-19T08:10:06.999Z</time></trkpt><trkpt lat="45.032460412328085" lon="7.466081922794048"><ele>327.5</ele><time>2026-04-19T08:10:07.999Z</time></trkpt><trkpt lat="45.032524748508465" lon="7.465892400469393"><ele>328.0</ele><time>2026-04-19T08:10:08.999Z</time></trkpt><trkpt lat="45.03259826839692" lon="7.465714287264322"><ele>328.5</ele><time>2026-04-19T08:10:09.999Z</time></trkpt><trkpt lat="45.03267272910774" lon="7.465545268127097"><ele>329.0</ele><time>2026-04-19T08:10:10.999Z</time></trkpt><trkpt lat="45.03275090246288" lon="7.465379562252802"><ele>329.25</ele><time>2026-04-19T08:10:11.999Z</time></trkpt><trkpt lat="45.03282282985165" lon="7.465213319115874"><ele>329.5</ele><time>2026-04-19T08:10:12.999Z</time></trkpt><trkpt lat="45.03289286421838" lon="7.465049381295042"><ele>329.75</ele><time>2026-04-19T08:10:13.999Z</time></trkpt><trkpt lat="45.03296831617121" lon="7.464875714524602"><ele>330.0</ele><time>2026-04-19T08:10:14.999Z</time></trkpt><trkpt lat="45.03304321482555" lon="7.464702474372245"><ele>329.75</ele><time>2026-04-19T08:10:15.999Z</time></trkpt><trkpt lat="45.03312483042582" lon="7.464538389349633"><ele>329.5</ele><time>2026-04-19T08:10:16.999Z</time></trkpt><trkpt lat="45.0331989148104" lon="7.46435516139756"><ele>329.25</ele><time>2026-04-19T08:10:17.999Z</time></trkpt><trkpt lat="45.03328133293797" lon="7.464206011346004"><ele>329.0</ele><time>2026-04-19T08:10:18.999Z</time></trkpt><trkpt lat="45.033366723584635" lon="7.464009589047411"><ele>329.6666666666667</ele><time>2026-04-19T08:10:19.999Z</time></trkpt><trkpt lat="45.03342996452013" lon="7.463818450053907"><ele>330.3333333333333</ele><time>2026-04-19T08:10:20.999Z</time></trkpt><trkpt lat="45.03350855481588" lon="7.46363393874652"><ele>331.0</ele><time>2026-04-19T08:10:21.999Z</time></trkpt><trkpt lat="45.03358962246761" lon="7.46345271180574"><ele>331.0</ele><time>2026-04-19T08:10:22.999Z</time></trkpt><trkpt lat="45.03366274826801" lon="7.46327287700394"><ele>331.0</ele><time>2026-04-19T08:10:23.999Z</time></trkpt><trkpt lat="45.03374133764234" lon="7.4630943102237035"><ele>331.0</ele><time>2026-04-19T08:10:24.999Z</time></trkpt><trkpt lat="45.03383410132561" lon="7.4629246098363025"><ele>331.0</ele><time>2026-04-19T08:10:25.999Z</time></trkpt><trkpt lat="45.033913171567974" lon="7.462751624954542"><ele>331.0</ele><time>2026-04-19T08:10:26.999Z</time></trkpt><trkpt lat="45.03398083545699" lon="7.46255908921906"><ele>331.0</ele><time>2026-04-19T08:10:27.999Z</time></trkpt><trkpt lat="45.03407373290097" lon="7.462387670195148"><ele>331.0</ele><time>2026-04-19T08:10:28.999Z</time></trkpt><trkpt lat="45.03415795983482" lon="7.462186827703083"><ele>332.0</ele><time>2026-04-19T08:10:29.999Z</time></trkpt><trkpt lat="45.03422107516829" lon="7.461990161423646"><ele>333.0</ele><time>2026-04-19T08:10:30.999Z</time></trkpt><trkpt lat="45.034314316370406" lon="7.461809490888584"><ele>334.0</ele><time>2026-04-19T08:10:31.999Z</time></trkpt><trkpt lat="45.03438104994472" lon="7.461607107834907"><ele>334.0</ele><time>2026-04-19T08:10:32.999Z</time></trkpt><trkpt lat="45.034476934456116" lon="7.461435263365576"><ele>334.0</ele><time>2026-04-19T08:10:33.999Z</time></trkpt><trkpt lat="45.03455900626187" lon="7.461254803045595"><ele>334.0</ele><time>2026-04-19T08:10:34.999Z</time></trkpt><trkpt lat="45.034638238153256" lon="7.461075437561047"><ele>333.5</ele><time>2026-04-19T08:10:35.999Z</time></trkpt><trkpt lat="45.03470937129182" lon="7.460900356176476"><ele>333.0</ele><time>2026-04-19T08:10:36.999Z</time></trkpt><trkpt lat="45.034768183000494" lon="7.46071184136177"><ele>332.5</ele><time>2026-04-19T08:10:37.999Z</time></trkpt><trkpt lat="45.03483611445753" lon="7.460529790551804"><ele>332.0</ele><time>2026-04-19T08:10:38.999Z</time></trkpt><trkpt lat="45.034890821573484" lon="7.460327941176407"><ele>332.0</ele><time>2026-04-19T08:10:39.999Z</time></trkpt><trkpt lat="45.034940484323975" lon="7.460122822963473"><ele>332.0</ele><time>2026-04-19T08:10:40.999Z</time></trkpt><trkpt lat="45.034985336806834" lon="7.459910123107692"><ele>332.0</ele><time>2026-04-19T08:10:41.999Z</time></trkpt><trkpt lat="45.03504819946616" lon="7.4596902494217785"><ele>335.0</ele><time>2026-04-19T08:10:42.999Z</time></trkpt><trkpt lat="45.03508311874634" lon="7.459465157264788"><ele>338.0</ele><time>2026-04-19T08:10:43.999Z</time></trkpt><trkpt lat="45.03513023486789" lon="7.459231103347446"><ele>341.0</ele><time>2026-04-19T08:10:44.999Z</time></trkpt><trkpt lat="45.03517993165987" lon="7.458995085759913"><ele>340.33333333333337</ele><time>2026-04-19T08:10:45.999Z</time></trkpt><trkpt lat="45.03523664071891" lon="7.458765102418176"><ele>339.6666666666667</ele><time>2026-04-19T08:10:46.999Z</time></trkpt><trkpt lat="45.03528426845075" lon="7.458545416672136"><ele>339.0</ele><time>2026-04-19T08:10:47.999Z</time></trkpt><trkpt lat="45.03533485044261" lon="7.458338948273384"><ele>339.0</ele><time>2026-04-19T08:10:48.999Z</time></trkpt><trkpt lat="45.03538500284193" lon="7.4581390862701396"><ele>339.0</ele><time>2026-04-19T08:10:49.999Z</time></trkpt><trkpt lat="45.03545012782548" lon="7.4579428070377425"><ele>339.0</ele><time>2026-04-19T08:10:50.999Z</time></trkpt><trkpt lat="45.03552524985277" lon="7.4577685889942815"><ele>339.0</ele><time>2026-04-19T08:10:51.999Z</time></trkpt><trkpt lat="45.03561130987121" lon="7.457567017140672"><ele>338.3333333333333</ele><time>2026-04-19T08:10:52.999Z</time></trkpt><trkpt lat="45.035683122511905" lon="7.457375271130878"><ele>337.66666666666663</ele><time>2026-04-19T08:10:53.999Z</time></trkpt><trkpt lat="45.03576308290566" lon="7.457186524291997"><ele>337.0</ele><time>2026-04-19T08:10:54.999Z</time></trkpt><trkpt lat="45.035827435058444" lon="7.456988662000142"><ele>339.0</ele><time>2026-04-19T08:10:55.999Z</time></trkpt><trkpt lat="45.03589407572645" lon="7.456778786475836"><ele>341.0</ele><time>2026-04-19T08:10:56.999Z</time></trkpt><trkpt lat="45.03595093354254" lon="7.456582156817571"><ele>343.0</ele><time>2026-04-19T08:10:57.999Z</time></trkpt><trkpt lat="45.0360060102707" lon="7.4563943820774785"><ele>342.25</ele><time>2026-04-19T08:10:58.998Z</time></trkpt><trkpt lat="45.03605017290829" lon="7.456214840032368"><ele>341.5</ele><time>2026-04-19T08:10:59.998Z</time></trkpt><trkpt lat="45.036090723949435" lon="7.456052994205202"><ele>340.75</ele><time>2026-04-19T08:11:00.998Z</time></trkpt><trkpt lat="45.03612493109667" lon="7.455906082808379"><ele>340.0</ele><time>2026-04-19T08:11:01.998Z</time></trkpt><trkpt lat="45.03615385674799" lon="7.455774997135204"><ele>340.0</ele><time>2026-04-19T08:11:02.998Z</time></trkpt><trkpt lat="45.0361763585352" lon="7.45565923194231"><ele>340.0</ele><time>2026-04-19T08:11:03.998Z</time></trkpt><trkpt lat="45.03619733767056" lon="7.455567187820451"><ele>340.0</ele><time>2026-04-19T08:11:04.998Z</time></trkpt><trkpt lat="45.03623429609796" lon="7.455452153270604"><ele>340.0</ele><time>2026-04-19T08:11:06.998Z</time></trkpt><trkpt lat="45.036062831746754" lon="7.455344533121581"><ele>340.0</ele><time>2026-04-19T08:11:41Z</time></trkpt><trkpt lat="45.03598016736464" lon="7.455288887427924"><ele>340.5</ele><time>2026-04-19T08:11:41.999Z</time></trkpt><trkpt lat="45.03588302551363" lon="7.455254854734344"><ele>341.0</ele><time>2026-04-19T08:11:43Z</time></trkpt><trkpt lat="45.035787989293674" lon="7.455180193964559"><ele>341.5</ele><time>2026-04-19T08:11:44Z</time></trkpt><trkpt lat="45.03568474940844" lon="7.4550875419317775"><ele>342.0</ele><time>2026-04-19T08:11:45Z</time></trkpt><trkpt lat="45.035580792613715" lon="7.454996384974279"><ele>340.0</ele><time>2026-04-19T08:11:46Z</time></trkpt><trkpt lat="45.03547304172025" lon="7.454901959728624"><ele>338.0</ele><time>2026-04-19T08:11:47Z</time></trkpt><trkpt lat="45.03536652827972" lon="7.454801756077424"><ele>336.0</ele><time>2026-04-19T08:11:48Z</time></trkpt><trkpt lat="45.03525121067783" lon="7.454698538246518"><ele>334.0</ele><time>2026-04-19T08:11:49Z</time></trkpt><trkpt lat="45.03513220105528" lon="7.454596655853657"><ele>334.0</ele><time>2026-04-19T08:11:50Z</time></trkpt><trkpt lat="45.03501164849626" lon="7.454492561089459"><ele>334.0</ele><time>2026-04-19T08:11:51Z</time></trkpt><trkpt lat="45.034889505819066" lon="7.454383539774844"><ele>334.0</ele><time>2026-04-19T08:11:52Z</time></trkpt><trkpt lat="45.03476213908896" lon="7.454275523991808"><ele>334.0</ele><time>2026-04-19T08:11:53Z</time></trkpt><trkpt lat="45.03462955151805" lon="7.454168670184426"><ele>334.66666666666663</ele><time>2026-04-19T08:11:54Z</time></trkpt><trkpt lat="45.03448824669873" lon="7.454068516716848"><ele>335.3333333333333</ele><time>2026-04-19T08:11:55Z</time></trkpt><trkpt lat="45.03433907359486" lon="7.4539787609219585"><ele>336.0</ele><time>2026-04-19T08:11:56Z</time></trkpt><trkpt lat="45.03418913125245" lon="7.453896762731706"><ele>336.3333333333333</ele><time>2026-04-19T08:11:57Z</time></trkpt><trkpt lat="45.03404016100007" lon="7.45382216456635"><ele>336.66666666666663</ele><time>2026-04-19T08:11:58Z</time></trkpt><trkpt lat="45.033887583491" lon="7.45374576183041"><ele>337.0</ele><time>2026-04-19T08:11:59Z</time></trkpt><trkpt lat="45.03374008758765" lon="7.453673680211285"><ele>338.0</ele><time>2026-04-19T08:12:00Z</time></trkpt><trkpt lat="45.03359192361764" lon="7.453602566517992"><ele>339.0</ele><time>2026-04-19T08:12:01Z</time></trkpt><trkpt lat="45.033443955762046" lon="7.453530344264144"><ele>340.0</ele><time>2026-04-19T08:12:02Z</time></trkpt><trkpt lat="45.03329583004634" lon="7.453455701282394"><ele>340.0</ele><time>2026-04-19T08:12:03Z</time></trkpt><trkpt lat="45.03314851029726" lon="7.453383576391126"><ele>340.0</ele><time>2026-04-19T08:12:04Z</time></trkpt><trkpt lat="45.033002945683066" lon="7.4533172139866535"><ele>340.0</ele><time>2026-04-19T08:12:05Z</time></trkpt><trkpt lat="45.03285532834798" lon="7.453254469560274"><ele>340.0</ele><time>2026-04-19T08:12:06Z</time></trkpt><trkpt lat="45.03270944311465" lon="7.453204015704842"><ele>340.0</ele><time>2026-04-19T08:12:07Z</time></trkpt><trkpt lat="45.03257161916207" lon="7.45315447822069"><ele>340.0</ele><time>2026-04-19T08:12:08Z</time></trkpt><trkpt lat="45.03245756554671" lon="7.453112943932043"><ele>340.0</ele><time>2026-04-19T08:12:08.999Z</time></trkpt><trkpt lat="45.03235199067883" lon="7.453076559453649"><ele>340.0</ele><time>2026-04-19T08:12:09.999Z</time></trkpt><trkpt lat="45.03225615465498" lon="7.453043816433852"><ele>340.0</ele><time>2026-04-19T08:12:10.999Z</time></trkpt><trkpt lat="45.03216969774032" lon="7.4530179298478805"><ele>340.0</ele><time>2026-04-19T08:12:11.999Z</time></trkpt><trkpt lat="45.03208866345917" lon="7.452992168738566"><ele>340.0</ele><time>2026-04-19T08:12:12.999Z</time></trkpt><trkpt lat="45.03201274520547" lon="7.452969787754829"><ele>340.0</ele><time>2026-04-19T08:12:13.999Z</time></trkpt><trkpt lat="45.031933084900054" lon="7.452944045284334"><ele>340.0</ele><time>2026-04-19T08:12:14.999Z</time></trkpt><trkpt lat="45.031847743318615" lon="7.45291775086748"><ele>340.2</ele><time>2026-04-19T08:12:15.999Z</time></trkpt><trkpt lat="45.03176033101177" lon="7.452889651864122"><ele>340.4</ele><time>2026-04-19T08:12:16.999Z</time></trkpt><trkpt lat="45.03167422886582" lon="7.45286424552616"><ele>340.6</ele><time>2026-04-19T08:12:17.999Z</time></trkpt><trkpt lat="45.03158554454864" lon="7.45283955576757"><ele>340.8</ele><time>2026-04-19T08:12:18.999Z</time></trkpt><trkpt lat="45.0314939022551" lon="7.452816619695436"><ele>341.0</ele><time>2026-04-19T08:12:19.999Z</time></trkpt><trkpt lat="45.031394138052676" lon="7.45279474290956"><ele>340.5</ele><time>2026-04-19T08:12:20.999Z</time></trkpt><trkpt lat="45.03128690684349" lon="7.452777565299773"><ele>340.0</ele><time>2026-04-19T08:12:21.999Z</time></trkpt><trkpt lat="45.03117486455229" lon="7.452763485586516"><ele>339.5</ele><time>2026-04-19T08:12:22.999Z</time></trkpt><trkpt lat="45.03106058811986" lon="7.45274811235388"><ele>339.0</ele><time>2026-04-19T08:12:23.999Z</time></trkpt><trkpt lat="45.030944351668346" lon="7.4527256581535735"><ele>339.0</ele><time>2026-04-19T08:12:24.999Z</time></trkpt><trkpt lat="45.030837459060336" lon="7.452700621343597"><ele>339.0</ele><time>2026-04-19T08:12:25.999Z</time></trkpt><trkpt lat="45.030740958022974" lon="7.452666651682085"><ele>339.0</ele><time>2026-04-19T08:12:26.999Z</time></trkpt><trkpt lat="45.03065643780665" lon="7.45262447558669"><ele>339.0</ele><time>2026-04-19T08:12:27.999Z</time></trkpt><trkpt lat="45.03058600658355" lon="7.452564803821317"><ele>339.0</ele><time>2026-04-19T08:12:28.999Z</time></trkpt><trkpt lat="45.03052760218325" lon="7.452488332935492"><ele>339.1666666666667</ele><time>2026-04-19T08:12:29.999Z</time></trkpt><trkpt lat="45.03047048027292" lon="7.4523899886318326"><ele>339.3333333333333</ele><time>2026-04-19T08:12:30.999Z</time></trkpt><trkpt lat="45.03041911725808" lon="7.452286895844344"><ele>339.5</ele><time>2026-04-19T08:12:31.999Z</time></trkpt><trkpt lat="45.030362296258595" lon="7.45218905656003"><ele>339.66666666666663</ele><time>2026-04-19T08:12:32.999Z</time></trkpt><trkpt lat="45.03030104306103" lon="7.452113291502134"><ele>339.8333333333333</ele><time>2026-04-19T08:12:33.999Z</time></trkpt><trkpt lat="45.030228935301835" lon="7.452061441118019"><ele>340.0</ele><time>2026-04-19T08:12:34.999Z</time></trkpt><trkpt lat="45.03014631615084" lon="7.452040710843626"><ele>340.0</ele><time>2026-04-19T08:12:35.999Z</time></trkpt><trkpt lat="45.03005177766394" lon="7.452020307303217"><ele>340.0</ele><time>2026-04-19T08:12:36.999Z</time></trkpt><trkpt lat="45.02998372570964" lon="7.452010991146835"><ele>340.0</ele><time>2026-04-19T08:12:37.999Z</time></trkpt><trkpt lat="45.02999897307749" lon="7.45178282896395"><ele>340.0</ele><time>2026-04-19T08:12:41.999Z</time></trkpt><trkpt lat="45.030023949746706" lon="7.451652922211537"><ele>340.0</ele><time>2026-04-19T08:12:42.999Z</time></trkpt><trkpt lat="45.03002088253921" lon="7.4515095143115175"><ele>340.0</ele><time>2026-04-19T08:12:43.999Z</time></trkpt><trkpt lat="45.03000083436447" lon="7.45137050178957"><ele>340.0</ele><time>2026-04-19T08:12:44.999Z</time></trkpt><trkpt lat="45.03001092697271" lon="7.451192905368931"><ele>340.0</ele><time>2026-04-19T08:12:45.999Z</time></trkpt><trkpt lat="45.03002896369643" lon="7.451046309770947"><ele>340.0</ele><time>2026-04-19T08:12:46.999Z</time></trkpt><trkpt lat="45.0300468831617" lon="7.450890456542254"><ele>340.0</ele><time>2026-04-19T08:12:47.999Z</time></trkpt><trkpt lat="45.030074580658884" lon="7.450765325311973"><ele>340.2</ele><time>2026-04-19T08:12:48.999Z</time></trkpt><trkpt lat="45.030113495947845" lon="7.450641838315891"><ele>340.4</ele><time>2026-04-19T08:12:49.999Z</time></trkpt><trkpt lat="45.030143719324265" lon="7.450535051340357"><ele>340.6</ele><time>2026-04-19T08:12:50.999Z</time></trkpt><trkpt lat="45.03016479733161" lon="7.450373635657039"><ele>340.8</ele><time>2026-04-19T08:12:51.999Z</time></trkpt><trkpt lat="45.03019552510671" lon="7.450210878455327"><ele>341.0</ele><time>2026-04-19T08:12:52.999Z</time></trkpt><trkpt lat="45.0302204165584" lon="7.450038163016853"><ele>341.25</ele><time>2026-04-19T08:12:53.999Z</time></trkpt><trkpt lat="45.03024108228881" lon="7.449857362431758"><ele>341.5</ele><time>2026-04-19T08:12:54.999Z</time></trkpt><trkpt lat="45.030251257146126" lon="7.449682281011773"><ele>341.75</ele><time>2026-04-19T08:12:55.999Z</time></trkpt><trkpt lat="45.030255952286936" lon="7.449514140991626"><ele>342.0</ele><time>2026-04-19T08:12:56.999Z</time></trkpt><trkpt lat="45.03024633479868" lon="7.449364414233059"><ele>342.0</ele><time>2026-04-19T08:12:57.999Z</time></trkpt><trkpt lat="45.03022752029988" lon="7.449229984292351"><ele>342.0</ele><time>2026-04-19T08:12:58.999Z</time></trkpt><trkpt lat="45.03024275249144" lon="7.449103230344211"><ele>342.0</ele><time>2026-04-19T08:12:59.999Z</time></trkpt><trkpt lat="45.030247158042776" lon="7.4489546296873295"><ele>342.0</ele><time>2026-04-19T08:13:00.999Z</time></trkpt><trkpt lat="45.030171945973514" lon="7.4488076536380525"><ele>342.0</ele><time>2026-04-19T08:13:01.999Z</time></trkpt><trkpt lat="45.03019969627167" lon="7.448671824166908"><ele>342.25</ele><time>2026-04-19T08:13:02.999Z</time></trkpt><trkpt lat="45.03024988230745" lon="7.448542576370122"><ele>342.5</ele><time>2026-04-19T08:13:03.999Z</time></trkpt><trkpt lat="45.03031279763923" lon="7.44841477655728"><ele>342.75</ele><time>2026-04-19T08:13:04.999Z</time></trkpt><trkpt lat="45.03036268146613" lon="7.448264827391098"><ele>343.0</ele><time>2026-04-19T08:13:05.999Z</time></trkpt><trkpt lat="45.03040174643901" lon="7.448096961448568"><ele>343.5</ele><time>2026-04-19T08:13:06.999Z</time></trkpt><trkpt lat="45.030439041290535" lon="7.4479132848043985"><ele>344.0</ele><time>2026-04-19T08:13:07.999Z</time></trkpt><trkpt lat="45.03047069859246" lon="7.447720582592935"><ele>344.5</ele><time>2026-04-19T08:13:08.999Z</time></trkpt><trkpt lat="45.030494969924206" lon="7.447523137968133"><ele>345.0</ele><time>2026-04-19T08:13:09.999Z</time></trkpt><trkpt lat="45.030513714973324" lon="7.447321041803543"><ele>345.0</ele><time>2026-04-19T08:13:10.999Z</time></trkpt><trkpt lat="45.03054284344887" lon="7.447099501108296"><ele>345.0</ele><time>2026-04-19T08:13:11.999Z</time></trkpt><trkpt lat="45.03056963731897" lon="7.44690651870998"><ele>345.0</ele><time>2026-04-19T08:13:12.999Z</time></trkpt><trkpt lat="45.030623460938195" lon="7.446705487296676"><ele>345.0</ele><time>2026-04-19T08:13:13.999Z</time></trkpt><trkpt lat="45.030695267868275" lon="7.446504502625572"><ele>345.0</ele><time>2026-04-19T08:13:14.998Z</time></trkpt><trkpt lat="45.0307660029008" lon="7.446293189467366"><ele>345.0</ele><time>2026-04-19T08:13:15.998Z</time></trkpt><trkpt lat="45.030844399971805" lon="7.446080531986952"><ele>345.3333333333333</ele><time>2026-04-19T08:13:16.998Z</time></trkpt><trkpt lat="45.03092424339284" lon="7.445862497061006"><ele>345.66666666666663</ele><time>2026-04-19T08:13:17.998Z</time></trkpt><trkpt lat="45.030986476951874" lon="7.4456403745302255"><ele>346.0</ele><time>2026-04-19T08:13:18.998Z</time></trkpt><trkpt lat="45.031030746978374" lon="7.445421084466705"><ele>346.0</ele><time>2026-04-19T08:13:19.998Z</time></trkpt><trkpt lat="45.031060262864344" lon="7.445180249543266"><ele>346.0</ele><time>2026-04-19T08:13:20.998Z</time></trkpt><trkpt lat="45.031080940289996" lon="7.444931289217265"><ele>346.0</ele><time>2026-04-19T08:13:21.998Z</time></trkpt><trkpt lat="45.03110260257419" lon="7.444708426152918"><ele>346.5</ele><time>2026-04-19T08:13:22.998Z</time></trkpt><trkpt lat="45.03112054946776" lon="7.444506966736131"><ele>347.0</ele><time>2026-04-19T08:13:23.998Z</time></trkpt><trkpt lat="45.03114234695148" lon="7.444319775358425"><ele>347.5</ele><time>2026-04-19T08:13:24.998Z</time></trkpt><trkpt lat="45.03117217435327" lon="7.4441618502731846"><ele>348.0</ele><time>2026-04-19T08:13:25.998Z</time></trkpt><trkpt lat="45.03120112201985" lon="7.444000413315796"><ele>348.0</ele><time>2026-04-19T08:13:26.998Z</time></trkpt><trkpt lat="45.0312347070971" lon="7.443837982321886"><ele>348.0</ele><time>2026-04-19T08:13:27.998Z</time></trkpt><trkpt lat="45.03126688165436" lon="7.443662685625411"><ele>348.0</ele><time>2026-04-19T08:13:28.998Z</time></trkpt><trkpt lat="45.031303983894205" lon="7.443489692149553"><ele>348.0</ele><time>2026-04-19T08:13:29.998Z</time></trkpt><trkpt lat="45.03134316976152" lon="7.443321384038875"><ele>348.0</ele><time>2026-04-19T08:13:30.998Z</time></trkpt><trkpt lat="45.0314015245074" lon="7.443152288158872"><ele>348.0</ele><time>2026-04-19T08:13:31.998Z</time></trkpt><trkpt lat="45.03144762109018" lon="7.442971266503049"><ele>348.0</ele><time>2026-04-19T08:13:32.998Z</time></trkpt><trkpt lat="45.031493558266746" lon="7.442786254963559"><ele>348.0</ele><time>2026-04-19T08:13:33.998Z</time></trkpt><trkpt lat="45.031519288852444" lon="7.442593798660417"><ele>348.0</ele><time>2026-04-19T08:13:34.998Z</time></trkpt><trkpt lat="45.0315752649264" lon="7.44241592031132"><ele>348.0</ele><time>2026-04-19T08:13:35.998Z</time></trkpt><trkpt lat="45.03161877416277" lon="7.442258000631875"><ele>348.0</ele><time>2026-04-19T08:13:36.998Z</time></trkpt><trkpt lat="45.031665294086366" lon="7.4421253473202755"><ele>348.0</ele><time>2026-04-19T08:13:37.998Z</time></trkpt><trkpt lat="45.03171445464176" lon="7.442012976654419"><ele>348.8333333333333</ele><time>2026-04-19T08:13:38.998Z</time></trkpt><trkpt lat="45.03176823927902" lon="7.44191575570595"><ele>349.6666666666667</ele><time>2026-04-19T08:13:40Z</time></trkpt><trkpt lat="45.03181420549878" lon="7.4418045100180406"><ele>350.5</ele><time>2026-04-19T08:13:41Z</time></trkpt><trkpt lat="45.031854168102505" lon="7.441687247294369"><ele>351.33333333333337</ele><time>2026-04-19T08:13:42Z</time></trkpt><trkpt lat="45.03189040660762" lon="7.441588673819847"><ele>352.1666666666667</ele><time>2026-04-19T08:13:43Z</time></trkpt><trkpt lat="45.03193404221067" lon="7.4415041199201175"><ele>353.0</ele><time>2026-04-19T08:13:44Z</time></trkpt><trkpt lat="45.03199044516552" lon="7.44143748272342"><ele>353.0</ele><time>2026-04-19T08:13:45Z</time></trkpt><trkpt lat="45.032064068941224" lon="7.441389204431204"><ele>353.0</ele><time>2026-04-19T08:13:46Z</time></trkpt><trkpt lat="45.03214497383714" lon="7.4413563706686565"><ele>353.0</ele><time>2026-04-19T08:13:47Z</time></trkpt><trkpt lat="45.03221606303485" lon="7.441326835567645"><ele>353.0</ele><time>2026-04-19T08:13:48Z</time></trkpt><trkpt lat="45.03229994804827" lon="7.4412758075372905"><ele>353.0</ele><time>2026-04-19T08:13:49Z</time></trkpt><trkpt lat="45.032355621044964" lon="7.441199080832806"><ele>353.0</ele><time>2026-04-19T08:13:50Z</time></trkpt><trkpt lat="45.03239806421346" lon="7.441112458565225"><ele>352.79999999999995</ele><time>2026-04-19T08:13:51Z</time></trkpt><trkpt lat="45.03245268516583" lon="7.44098021886934"><ele>352.6</ele><time>2026-04-19T08:13:53Z</time></trkpt><trkpt lat="45.03250909421216" lon="7.440841704420729"><ele>352.4</ele><time>2026-04-19T08:13:55Z</time></trkpt><trkpt lat="45.03253771844655" lon="7.44075015378375"><ele>352.20000000000005</ele><time>2026-04-19T08:13:56Z</time></trkpt><trkpt lat="45.03258532503985" lon="7.440662396134557"><ele>352.0</ele><time>2026-04-19T08:13:57Z</time></trkpt><trkpt lat="45.03264386278289" lon="7.440560565184162"><ele>352.0</ele><time>2026-04-19T08:13:58Z</time></trkpt><trkpt lat="45.032697601669064" lon="7.440462387823868"><ele>352.0</ele><time>2026-04-19T08:13:59Z</time></trkpt><trkpt lat="45.032747183463265" lon="7.440344696829436"><ele>352.0</ele><time>2026-04-19T08:14:00Z</time></trkpt><trkpt lat="45.03278879740461" lon="7.4402252674327425"><ele>352.0</ele><time>2026-04-19T08:14:01Z</time></trkpt><trkpt lat="45.0328303643338" lon="7.440087946325997"><ele>352.0</ele><time>2026-04-19T08:14:02Z</time></trkpt><trkpt lat="45.03286598902141" lon="7.439947894089806"><ele>352.0</ele><time>2026-04-19T08:14:03Z</time></trkpt><trkpt lat="45.03288922903797" lon="7.439807660921237"><ele>352.0</ele><time>2026-04-19T08:14:04Z</time></trkpt><trkpt lat="45.032897539481006" lon="7.439654544470156"><ele>352.0</ele><time>2026-04-19T08:14:05Z</time></trkpt><trkpt lat="45.03290610944999" lon="7.439487261405011"><ele>352.0</ele><time>2026-04-19T08:14:06Z</time></trkpt><trkpt lat="45.03292031476616" lon="7.439310396795858"><ele>352.5</ele><time>2026-04-19T08:14:07Z</time></trkpt><trkpt lat="45.03293655997923" lon="7.4391275523861"><ele>353.0</ele><time>2026-04-19T08:14:08Z</time></trkpt><trkpt lat="45.03295093430756" lon="7.438946118233074"><ele>353.5</ele><time>2026-04-19T08:14:09Z</time></trkpt><trkpt lat="45.03296767019893" lon="7.438764682701253"><ele>354.0</ele><time>2026-04-19T08:14:10Z</time></trkpt><trkpt lat="45.03298236354319" lon="7.438574319961475"><ele>354.25</ele><time>2026-04-19T08:14:11Z</time></trkpt><trkpt lat="45.033000947884254" lon="7.4383854123566175"><ele>354.5</ele><time>2026-04-19T08:14:12Z</time></trkpt><trkpt lat="45.03301826438616" lon="7.438205020789853"><ele>354.75</ele><time>2026-04-19T08:14:13Z</time></trkpt><trkpt lat="45.03304129755172" lon="7.438043001850902"><ele>355.0</ele><time>2026-04-19T08:14:14Z</time></trkpt><trkpt lat="45.03307088145197" lon="7.43789127067525"><ele>355.2</ele><time>2026-04-19T08:14:14.999Z</time></trkpt><trkpt lat="45.033098607731596" lon="7.437759179989377"><ele>355.4</ele><time>2026-04-19T08:14:15.999Z</time></trkpt><trkpt lat="45.03311922163035" lon="7.437638771817459"><ele>355.6</ele><time>2026-04-19T08:14:16.999Z</time></trkpt><trkpt lat="45.033140818688864" lon="7.437527028114666"><ele>355.8</ele><time>2026-04-19T08:14:17.999Z</time></trkpt><trkpt lat="45.0331738723759" lon="7.437392663211211"><ele>356.0</ele><time>2026-04-19T08:14:18.999Z</time></trkpt><trkpt lat="45.033204408433804" lon="7.437259273225111"><ele>356.0</ele><time>2026-04-19T08:14:19.999Z</time></trkpt><trkpt lat="45.033220057324414" lon="7.4371560169680455"><ele>356.0</ele><time>2026-04-19T08:14:20.999Z</time></trkpt><trkpt lat="45.033183046710924" lon="7.4369682636808685"><ele>356.0</ele><time>2026-04-19T08:14:22.999Z</time></trkpt><trkpt lat="45.03308614003571" lon="7.436931314100686"><ele>356.0</ele><time>2026-04-19T08:14:23.999Z</time></trkpt><trkpt lat="45.03299996278735" lon="7.436891008252855"><ele>356.0</ele><time>2026-04-19T08:14:24.999Z</time></trkpt><trkpt lat="45.032909803913576" lon="7.436852942511598"><ele>356.1666666666667</ele><time>2026-04-19T08:14:25.999Z</time></trkpt><trkpt lat="45.03281845046648" lon="7.436800232937571"><ele>356.33333333333337</ele><time>2026-04-19T08:14:26.999Z</time></trkpt><trkpt lat="45.03273025700156" lon="7.436737578418418"><ele>356.5</ele><time>2026-04-19T08:14:27.999Z</time></trkpt><trkpt lat="45.03265188504945" lon="7.436683516683766"><ele>356.6666666666667</ele><time>2026-04-19T08:14:28.999Z</time></trkpt><trkpt lat="45.03258855687074" lon="7.436633913754519"><ele>356.8333333333333</ele><time>2026-04-19T08:14:29.999Z</time></trkpt><trkpt lat="45.03252499785182" lon="7.436585491763308"><ele>357.0</ele><time>2026-04-19T08:14:31.999Z</time></trkpt><trkpt lat="45.03245662393317" lon="7.43652515796616"><ele>357.0</ele><time>2026-04-19T08:15:38.998Z</time></trkpt><trkpt lat="45.03251287255426" lon="7.436346244215131"><ele>357.0</ele><time>2026-04-19T08:15:39.998Z</time></trkpt><trkpt lat="45.03255271288305" lon="7.436254399787383"><ele>357.0</ele><time>2026-04-19T08:15:40.998Z</time></trkpt><trkpt lat="45.0325862042946" lon="7.436166696626421"><ele>357.0</ele><time>2026-04-19T08:15:41.998Z</time></trkpt><trkpt lat="45.032628666646545" lon="7.436051642489402"><ele>357.0</ele><time>2026-04-19T08:15:43.998Z</time></trkpt><trkpt lat="45.03266491239069" lon="7.435953512493809"><ele>357.20000000000005</ele><time>2026-04-19T08:15:52Z</time></trkpt><trkpt lat="45.032698800541276" lon="7.435872696044212"><ele>357.4</ele><time>2026-04-19T08:16:06Z</time></trkpt><trkpt lat="45.03261863564958" lon="7.435727674884639"><ele>357.6</ele><time>2026-04-19T08:16:14Z</time></trkpt><trkpt lat="45.03253690464953" lon="7.435685201956136"><ele>357.79999999999995</ele><time>2026-04-19T08:16:15Z</time></trkpt><trkpt lat="45.03244709353387" lon="7.435631533536093"><ele>358.0</ele><time>2026-04-19T08:16:16Z</time></trkpt><trkpt lat="45.032347567547156" lon="7.435566215489969"><ele>358.0</ele><time>2026-04-19T08:16:17Z</time></trkpt><trkpt lat="45.03223685460244" lon="7.435487792093848"><ele>358.0</ele><time>2026-04-19T08:16:18Z</time></trkpt><trkpt lat="45.03212105002674" lon="7.435409158873153"><ele>358.0</ele><time>2026-04-19T08:16:19Z</time></trkpt><trkpt lat="45.031994884002" lon="7.435325841638503"><ele>358.0</ele><time>2026-04-19T08:16:20Z</time></trkpt><trkpt lat="45.031871265974466" lon="7.435247133765971"><ele>357.79999999999995</ele><time>2026-04-19T08:16:21Z</time></trkpt><trkpt lat="45.03176781541379" lon="7.435185538777077"><ele>357.6</ele><time>2026-04-19T08:16:22Z</time></trkpt><trkpt lat="45.0316942875427" lon="7.435126203022926"><ele>357.4</ele><time>2026-04-19T08:16:23Z</time></trkpt><trkpt lat="45.03163959628306" lon="7.435070547970297"><ele>357.20000000000005</ele><time>2026-04-19T08:16:24Z</time></trkpt><trkpt lat="45.03155752267188" lon="7.435023906970717"><ele>357.0</ele><time>2026-04-19T08:16:26Z</time></trkpt><trkpt lat="45.03166331614287" lon="7.434708298183459"><ele>357.75</ele><time>2026-04-19T08:16:27.999Z</time></trkpt><trkpt lat="45.031695546431806" lon="7.434568766941792"><ele>358.5</ele><time>2026-04-19T08:16:28.999Z</time></trkpt><trkpt lat="45.03175031691069" lon="7.434429877582993"><ele>359.25</ele><time>2026-04-19T08:16:29.999Z</time></trkpt><trkpt lat="45.03181409464412" lon="7.434271131557203"><ele>360.0</ele><time>2026-04-19T08:16:30.999Z</time></trkpt><trkpt lat="45.0318736326187" lon="7.434103226495539"><ele>360.0</ele><time>2026-04-19T08:16:31.999Z</time></trkpt><trkpt lat="45.03194096523596" lon="7.433926674235141"><ele>360.0</ele><time>2026-04-19T08:16:32.999Z</time></trkpt><trkpt lat="45.03199456562786" lon="7.433749475875303"><ele>360.0</ele><time>2026-04-19T08:16:33.999Z</time></trkpt><trkpt lat="45.03203976344197" lon="7.4335671228089515"><ele>360.0</ele><time>2026-04-19T08:16:34.999Z</time></trkpt><trkpt lat="45.03207984419565" lon="7.433408578916904"><ele>360.0</ele><time>2026-04-19T08:16:35.999Z</time></trkpt><trkpt lat="45.03212716747056" lon="7.433272631918981"><ele>360.0</ele><time>2026-04-19T08:16:36.999Z</time></trkpt><trkpt lat="45.032185689106846" lon="7.433149692192097"><ele>360.0</ele><time>2026-04-19T08:16:37.999Z</time></trkpt><trkpt lat="45.03225447654547" lon="7.433047890926985"><ele>360.0</ele><time>2026-04-19T08:16:38.999Z</time></trkpt><trkpt lat="45.032333847721226" lon="7.432960590377772"><ele>360.0</ele><time>2026-04-19T08:16:39.999Z</time></trkpt><trkpt lat="45.03240833862743" lon="7.432837027749642"><ele>360.25</ele><time>2026-04-19T08:16:40.999Z</time></trkpt><trkpt lat="45.032496673945616" lon="7.432700246466671"><ele>360.5</ele><time>2026-04-19T08:16:41.999Z</time></trkpt><trkpt lat="45.03257689504755" lon="7.432541275716309"><ele>360.75</ele><time>2026-04-19T08:16:42.999Z</time></trkpt><trkpt lat="45.032654301912125" lon="7.432370494069112"><ele>361.0</ele><time>2026-04-19T08:16:43.999Z</time></trkpt><trkpt lat="45.03271210683033" lon="7.432178483539638"><ele>361.5</ele><time>2026-04-19T08:16:44.999Z</time></trkpt><trkpt lat="45.032766355924046" lon="7.431986362072153"><ele>362.0</ele><time>2026-04-19T08:16:45.999Z</time></trkpt><trkpt lat="45.032818024950885" lon="7.431792488243854"><ele>362.5</ele><time>2026-04-19T08:16:46.999Z</time></trkpt><trkpt lat="45.03286578866008" lon="7.431600364044396"><ele>363.0</ele><time>2026-04-19T08:16:47.999Z</time></trkpt><trkpt lat="45.032909281001565" lon="7.431413544895096"><ele>363.5</ele><time>2026-04-19T08:16:48.999Z</time></trkpt><trkpt lat="45.03295097794032" lon="7.431225719497574"><ele>364.0</ele><time>2026-04-19T08:16:49.999Z</time></trkpt><trkpt lat="45.032988097647326" lon="7.4310445125809474"><ele>364.5</ele><time>2026-04-19T08:16:50.999Z</time></trkpt><trkpt lat="45.03302397965012" lon="7.43085989291963"><ele>365.0</ele><time>2026-04-19T08:16:51.999Z</time></trkpt><trkpt lat="45.03305678050551" lon="7.4306773627755005"><ele>365.0</ele><time>2026-04-19T08:16:52.999Z</time></trkpt><trkpt lat="45.033085372971264" lon="7.430508753648173"><ele>365.0</ele><time>2026-04-19T08:16:53.999Z</time></trkpt><trkpt lat="45.0331101177407" lon="7.43034434642681"><ele>365.0</ele><time>2026-04-19T08:16:54.999Z</time></trkpt><trkpt lat="45.03314726612373" lon="7.430179566284972"><ele>365.0</ele><time>2026-04-19T08:16:55.999Z</time></trkpt><trkpt lat="45.033194362951185" lon="7.430000938750891"><ele>365.5</ele><time>2026-04-19T08:16:56.999Z</time></trkpt><trkpt lat="45.033238581854626" lon="7.429815158932054"><ele>366.0</ele><time>2026-04-19T08:16:57.999Z</time></trkpt><trkpt lat="45.033278025600765" lon="7.429623577103564"><ele>366.5</ele><time>2026-04-19T08:16:58.999Z</time></trkpt><trkpt lat="45.03331104741579" lon="7.429427435430173"><ele>367.0</ele><time>2026-04-19T08:16:59.999Z</time></trkpt><trkpt lat="45.033343982577605" lon="7.429226629149844"><ele>367.25</ele><time>2026-04-19T08:17:00.999Z</time></trkpt><trkpt lat="45.03338093326838" lon="7.429028048713783"><ele>367.5</ele><time>2026-04-19T08:17:01.999Z</time></trkpt><trkpt lat="45.03342182205537" lon="7.428834780489822"><ele>367.75</ele><time>2026-04-19T08:17:02.999Z</time></trkpt><trkpt lat="45.03346676718362" lon="7.4286338753632455"><ele>368.0</ele><time>2026-04-19T08:17:03.999Z</time></trkpt><trkpt lat="45.03351635403799" lon="7.428439491757728"><ele>368.25</ele><time>2026-04-19T08:17:04.999Z</time></trkpt><trkpt lat="45.03357262473841" lon="7.428244209288888"><ele>368.5</ele><time>2026-04-19T08:17:05.999Z</time></trkpt><trkpt lat="45.03362856347536" lon="7.428055576238323"><ele>368.75</ele><time>2026-04-19T08:17:06.999Z</time></trkpt><trkpt lat="45.03367890040749" lon="7.427876933874664"><ele>369.0</ele><time>2026-04-19T08:17:07.999Z</time></trkpt><trkpt lat="45.033728465620825" lon="7.427708186663374"><ele>370.4</ele><time>2026-04-19T08:17:08.999Z</time></trkpt><trkpt lat="45.033768450027004" lon="7.427571682297559"><ele>371.79999999999995</ele><time>2026-04-19T08:17:09.999Z</time></trkpt><trkpt lat="45.03378353135304" lon="7.427454459345324"><ele>373.20000000000005</ele><time>2026-04-19T08:17:10.999Z</time></trkpt><trkpt lat="45.03383754571828" lon="7.427360963286432"><ele>374.6</ele><time>2026-04-19T08:17:12.999Z</time></trkpt><trkpt lat="45.0339653213688" lon="7.42741262882134"><ele>376.0</ele><time>2026-04-19T08:17:14.999Z</time></trkpt><trkpt lat="45.03404679275299" lon="7.427445557091389"><ele>376.0</ele><time>2026-04-19T08:17:15.999Z</time></trkpt><trkpt lat="45.03413445220432" lon="7.427461150443555"><ele>376.0</ele><time>2026-04-19T08:17:16.999Z</time></trkpt><trkpt lat="45.0342308720383" lon="7.427469303110899"><ele>376.0</ele><time>2026-04-19T08:17:18.999Z</time></trkpt><trkpt lat="45.03430502237613" lon="7.4274669999348255"><ele>376.0</ele><time>2026-04-19T08:17:33.998Z</time></trkpt><trkpt lat="45.03433726559378" lon="7.427302962267837"><ele>376.0</ele><time>2026-04-19T08:17:34.998Z</time></trkpt><trkpt lat="45.034338123916754" lon="7.427164886895084"><ele>374.75</ele><time>2026-04-19T08:17:35.998Z</time></trkpt><trkpt lat="45.034340840555664" lon="7.426996210575016"><ele>373.5</ele><time>2026-04-19T08:17:36.998Z</time></trkpt><trkpt lat="45.034351978208534" lon="7.426815769146981"><ele>372.25</ele><time>2026-04-19T08:17:37.998Z</time></trkpt><trkpt lat="45.03435970319923" lon="7.426624108328739"><ele>371.0</ele><time>2026-04-19T08:17:38.998Z</time></trkpt><trkpt lat="45.03436875242785" lon="7.426420426039989"><ele>372.6666666666667</ele><time>2026-04-19T08:17:39.998Z</time></trkpt><trkpt lat="45.034375223549695" lon="7.426207139799933"><ele>374.3333333333333</ele><time>2026-04-19T08:17:40.998Z</time></trkpt><trkpt lat="45.03438185088045" lon="7.425990066664262"><ele>376.0</ele><time>2026-04-19T08:17:41.998Z</time></trkpt><trkpt lat="45.034392547772406" lon="7.425761910823381"><ele>376.0</ele><time>2026-04-19T08:17:42.998Z</time></trkpt><trkpt lat="45.034402805417905" lon="7.425533270226745"><ele>376.0</ele><time>2026-04-19T08:17:43.998Z</time></trkpt><trkpt lat="45.03440955415388" lon="7.425299299911012"><ele>376.0</ele><time>2026-04-19T08:17:44.998Z</time></trkpt><trkpt lat="45.03441662240861" lon="7.425066199235992"><ele>375.66666666666663</ele><time>2026-04-19T08:17:45.998Z</time></trkpt><trkpt lat="45.03442696282884" lon="7.424827308278817"><ele>375.3333333333333</ele><time>2026-04-19T08:17:46.998Z</time></trkpt><trkpt lat="45.03443783524527" lon="7.424592625855109"><ele>375.0</ele><time>2026-04-19T08:17:47.998Z</time></trkpt><trkpt lat="45.034447745159994" lon="7.4243595368333555"><ele>375.0</ele><time>2026-04-19T08:17:48.998Z</time></trkpt><trkpt lat="45.034455162428756" lon="7.424131399609699"><ele>375.0</ele><time>2026-04-19T08:17:49.998Z</time></trkpt><trkpt lat="45.03446523126705" lon="7.423911040001749"><ele>375.0</ele><time>2026-04-19T08:17:50.998Z</time></trkpt><trkpt lat="45.0344740272273" lon="7.423688929807382"><ele>374.5</ele><time>2026-04-19T08:17:52Z</time></trkpt><trkpt lat="45.034484338109" lon="7.423476819018098"><ele>374.0</ele><time>2026-04-19T08:17:53Z</time></trkpt><trkpt lat="45.034492361708004" lon="7.423269199312079"><ele>373.5</ele><time>2026-04-19T08:17:54Z</time></trkpt><trkpt lat="45.034498995132154" lon="7.423063264928101"><ele>373.0</ele><time>2026-04-19T08:17:55Z</time></trkpt><trkpt lat="45.03450596264612" lon="7.422859843724215"><ele>373.0</ele><time>2026-04-19T08:17:56Z</time></trkpt><trkpt lat="45.03451372293573" lon="7.422657259182612"><ele>373.0</ele><time>2026-04-19T08:17:57Z</time></trkpt><trkpt lat="45.03452003902558" lon="7.422455135153574"><ele>373.0</ele><time>2026-04-19T08:17:58Z</time></trkpt><trkpt lat="45.03452494356336" lon="7.422251775396314"><ele>373.0</ele><time>2026-04-19T08:17:59Z</time></trkpt><trkpt lat="45.0345353451707" lon="7.422054128799933"><ele>374.75</ele><time>2026-04-19T08:18:00Z</time></trkpt><trkpt lat="45.034541758663195" lon="7.421852882097026"><ele>376.5</ele><time>2026-04-19T08:18:01Z</time></trkpt><trkpt lat="45.034540279344405" lon="7.421651955222243"><ele>378.25</ele><time>2026-04-19T08:18:02Z</time></trkpt><trkpt lat="45.03453345027607" lon="7.421455127370044"><ele>380.0</ele><time>2026-04-19T08:18:03Z</time></trkpt><trkpt lat="45.03453033082813" lon="7.421256575365562"><ele>380.0</ele><time>2026-04-19T08:18:04Z</time></trkpt><trkpt lat="45.034535661410075" lon="7.421055084827777"><ele>380.0</ele><time>2026-04-19T08:18:05Z</time></trkpt><trkpt lat="45.034551194428225" lon="7.420850655643367"><ele>380.0</ele><time>2026-04-19T08:18:06Z</time></trkpt><trkpt lat="45.03458374292574" lon="7.420655314394704"><ele>380.0</ele><time>2026-04-19T08:18:07Z</time></trkpt><trkpt lat="45.03462564826924" lon="7.420476775038677"><ele>379.75</ele><time>2026-04-19T08:18:08Z</time></trkpt><trkpt lat="45.034676811534254" lon="7.4203148509288255"><ele>379.5</ele><time>2026-04-19T08:18:09Z</time></trkpt><trkpt lat="45.0347479651465" lon="7.420182174515455"><ele>379.25</ele><time>2026-04-19T08:18:10Z</time></trkpt><trkpt lat="45.03483718733499" lon="7.420086095550912"><ele>379.0</ele><time>2026-04-19T08:18:11Z</time></trkpt><trkpt lat="45.0349451438102" lon="7.420024470645509"><ele>377.4</ele><time>2026-04-19T08:18:12Z</time></trkpt><trkpt lat="45.03505500719158" lon="7.419991656788194"><ele>375.79999999999995</ele><time>2026-04-19T08:18:13Z</time></trkpt><trkpt lat="45.035163592739885" lon="7.419969970680213"><ele>374.20000000000005</ele><time>2026-04-19T08:18:14Z</time></trkpt><trkpt lat="45.03526060360854" lon="7.419951063878675"><ele>372.6</ele><time>2026-04-19T08:18:15Z</time></trkpt><trkpt lat="45.03535324171792" lon="7.419930681191468"><ele>371.0</ele><time>2026-04-19T08:18:16Z</time></trkpt><trkpt lat="45.03544864401366" lon="7.419905818802165"><ele>371.0</ele><time>2026-04-19T08:18:17Z</time></trkpt><trkpt lat="45.035541810853516" lon="7.419879858865838"><ele>371.0</ele><time>2026-04-19T08:18:18Z</time></trkpt><trkpt lat="45.035639871326126" lon="7.419854955553598"><ele>371.0</ele><time>2026-04-19T08:18:19Z</time></trkpt><trkpt lat="45.03574675305993" lon="7.419820871272621"><ele>371.0</ele><time>2026-04-19T08:18:20Z</time></trkpt><trkpt lat="45.03587086193986" lon="7.419785383571412"><ele>371.0</ele><time>2026-04-19T08:18:21Z</time></trkpt><trkpt lat="45.036013606714896" lon="7.419741861712761"><ele>371.33333333333337</ele><time>2026-04-19T08:18:22Z</time></trkpt><trkpt lat="45.036179526089846" lon="7.4196934668071615"><ele>371.6666666666667</ele><time>2026-04-19T08:18:23Z</time></trkpt><trkpt lat="45.03636446062075" lon="7.419640997080654"><ele>372.0</ele><time>2026-04-19T08:18:24Z</time></trkpt><trkpt lat="45.036544621211846" lon="7.419595870142196"><ele>372.6666666666667</ele><time>2026-04-19T08:18:25Z</time></trkpt><trkpt lat="45.036722163156504" lon="7.419563604460156"><ele>373.33333333333337</ele><time>2026-04-19T08:18:26Z</time></trkpt><trkpt lat="45.03689007336426" lon="7.419528735286335"><ele>374.0</ele><time>2026-04-19T08:18:27Z</time></trkpt><trkpt lat="45.03704621234535" lon="7.419482640070628"><ele>374.0</ele><time>2026-04-19T08:18:28Z</time></trkpt><trkpt lat="45.0372013606273" lon="7.419437677637553"><ele>374.0</ele><time>2026-04-19T08:18:29Z</time></trkpt><trkpt lat="45.037347468008946" lon="7.419397001123962"><ele>374.0</ele><time>2026-04-19T08:18:30Z</time></trkpt><trkpt lat="45.03749790009106" lon="7.419363851794457"><ele>374.5</ele><time>2026-04-19T08:18:31Z</time></trkpt><trkpt lat="45.03764619670666" lon="7.419320378659896"><ele>375.0</ele><time>2026-04-19T08:18:32Z</time></trkpt><trkpt lat="45.03779770251767" lon="7.419293151227652"><ele>375.5</ele><time>2026-04-19T08:18:33Z</time></trkpt><trkpt lat="45.03793036278661" lon="7.419256495658123"><ele>376.0</ele><time>2026-04-19T08:18:34Z</time></trkpt><trkpt lat="45.038054919300556" lon="7.419221600305083"><ele>376.0</ele><time>2026-04-19T08:18:35Z</time></trkpt><trkpt lat="45.03818516178385" lon="7.419174873346063"><ele>376.0</ele><time>2026-04-19T08:18:36Z</time></trkpt><trkpt lat="45.0383095578124" lon="7.419104052985379"><ele>376.0</ele><time>2026-04-19T08:18:37Z</time></trkpt><trkpt lat="45.038428031277746" lon="7.41902338856687"><ele>376.0</ele><time>2026-04-19T08:18:37.999Z</time></trkpt><trkpt lat="45.03854421706033" lon="7.418932469139658"><ele>376.25</ele><time>2026-04-19T08:18:38.999Z</time></trkpt><trkpt lat="45.03865569775961" lon="7.418829213875274"><ele>376.5</ele><time>2026-04-19T08:18:39.999Z</time></trkpt><trkpt lat="45.03876043193967" lon="7.418705727076909"><ele>376.75</ele><time>2026-04-19T08:18:40.999Z</time></trkpt><trkpt lat="45.03887093825254" lon="7.4185903813615335"><ele>377.0</ele><time>2026-04-19T08:18:41.999Z</time></trkpt><trkpt lat="45.038966561202216" lon="7.418468767872703"><ele>377.25</ele><time>2026-04-19T08:18:42.999Z</time></trkpt><trkpt lat="45.03906596774442" lon="7.418346957636024"><ele>377.5</ele><time>2026-04-19T08:18:43.999Z</time></trkpt><trkpt lat="45.0391640319622" lon="7.418220301301538"><ele>377.75</ele><time>2026-04-19T08:18:44.999Z</time></trkpt><trkpt lat="45.039263554105766" lon="7.418095665375087"><ele>378.0</ele><time>2026-04-19T08:18:45.999Z</time></trkpt><trkpt lat="45.03936305105602" lon="7.417977373819004"><ele>379.25</ele><time>2026-04-19T08:18:46.999Z</time></trkpt><trkpt lat="45.03946043527364" lon="7.417859103177403"><ele>380.5</ele><time>2026-04-19T08:18:47.999Z</time></trkpt><trkpt lat="45.03955861916372" lon="7.417737807869948"><ele>381.75</ele><time>2026-04-19T08:18:48.999Z</time></trkpt><trkpt lat="45.0396562019807" lon="7.41762070353933"><ele>383.0</ele><time>2026-04-19T08:18:49.999Z</time></trkpt><trkpt lat="45.039753877486774" lon="7.417503274313521"><ele>383.0</ele><time>2026-04-19T08:18:50.999Z</time></trkpt><trkpt lat="45.03985211060604" lon="7.417386321235504"><ele>383.0</ele><time>2026-04-19T08:18:51.999Z</time></trkpt><trkpt lat="45.03994922226073" lon="7.4172669961157816"><ele>383.0</ele><time>2026-04-19T08:18:52.999Z</time></trkpt><trkpt lat="45.04004592520748" lon="7.417147662758537"><ele>383.0</ele><time>2026-04-19T08:18:53.999Z</time></trkpt><trkpt lat="45.0401418662651" lon="7.417031436642242"><ele>384.2</ele><time>2026-04-19T08:18:54.999Z</time></trkpt><trkpt lat="45.04023610632241" lon="7.416920707380931"><ele>385.4</ele><time>2026-04-19T08:18:55.999Z</time></trkpt><trkpt lat="45.04032265752896" lon="7.416813615954274"><ele>386.59999999999997</ele><time>2026-04-19T08:18:56.999Z</time></trkpt><trkpt lat="45.040397462532226" lon="7.41671693302186"><ele>387.79999999999995</ele><time>2026-04-19T08:18:57.999Z</time></trkpt><trkpt lat="45.0404693544717" lon="7.416628847629597"><ele>389.0</ele><time>2026-04-19T08:18:58.999Z</time></trkpt><trkpt lat="45.04054303267031" lon="7.416533777187247"><ele>389.0</ele><time>2026-04-19T08:18:59.999Z</time></trkpt><trkpt lat="45.040623678769" lon="7.41643268007015"><ele>389.0</ele><time>2026-04-19T08:19:00.999Z</time></trkpt><trkpt lat="45.040708735245126" lon="7.416331720608697"><ele>389.0</ele><time>2026-04-19T08:19:01.999Z</time></trkpt><trkpt lat="45.04079848123867" lon="7.416227663113665"><ele>389.0</ele><time>2026-04-19T08:19:02.999Z</time></trkpt><trkpt lat="45.04089901684407" lon="7.416141819432088"><ele>391.0</ele><time>2026-04-19T08:19:03.999Z</time></trkpt><trkpt lat="45.040983107007825" lon="7.416039405289585"><ele>393.0</ele><time>2026-04-19T08:19:04.999Z</time></trkpt><trkpt lat="45.04105631486734" lon="7.415950275021088"><ele>395.0</ele><time>2026-04-19T08:19:05.999Z</time></trkpt><trkpt lat="45.041123023586515" lon="7.415863889093047"><ele>397.0</ele><time>2026-04-19T08:19:06.999Z</time></trkpt><trkpt lat="45.04118335296513" lon="7.415777249041392"><ele>399.0</ele><time>2026-04-19T08:19:07.999Z</time></trkpt><trkpt lat="45.04123014312288" lon="7.415700253392049"><ele>399.0</ele><time>2026-04-19T08:19:08.999Z</time></trkpt><trkpt lat="45.04126680063187" lon="7.415617715982139"><ele>399.0</ele><time>2026-04-19T08:19:09.999Z</time></trkpt><trkpt lat="45.041311433848456" lon="7.415507462269"><ele>399.0</ele><time>2026-04-19T08:19:11.999Z</time></trkpt><trkpt lat="45.04135500175637" lon="7.415330784881175"><ele>399.0</ele><time>2026-04-19T08:19:13.999Z</time></trkpt><trkpt lat="45.04137300068101" lon="7.415218783237962"><ele>399.0</ele><time>2026-04-19T08:19:14.999Z</time></trkpt><trkpt lat="45.04138219824069" lon="7.4150996996868175"><ele>400.5</ele><time>2026-04-19T08:19:15.999Z</time></trkpt><trkpt lat="45.041386845747965" lon="7.414954744352831"><ele>402.0</ele><time>2026-04-19T08:19:16.999Z</time></trkpt><trkpt lat="45.041290512558255" lon="7.414806675675134"><ele>403.5</ele><time>2026-04-19T08:19:17.999Z</time></trkpt><trkpt lat="45.04128104034366" lon="7.414649219837467"><ele>405.0</ele><time>2026-04-19T08:19:18.999Z</time></trkpt><trkpt lat="45.04127673891656" lon="7.414487659447607"><ele>406.25</ele><time>2026-04-19T08:19:19.999Z</time></trkpt><trkpt lat="45.04127782581531" lon="7.4143235212788285"><ele>407.5</ele><time>2026-04-19T08:19:20.999Z</time></trkpt><trkpt lat="45.04128537447633" lon="7.414133483411003"><ele>408.75</ele><time>2026-04-19T08:19:21.999Z</time></trkpt><trkpt lat="45.041298430886684" lon="7.4139221947477845"><ele>410.0</ele><time>2026-04-19T08:19:22.999Z</time></trkpt><trkpt lat="45.04131261001443" lon="7.413681515623212"><ele>411.0</ele><time>2026-04-19T08:19:23.999Z</time></trkpt><trkpt lat="45.041331385965286" lon="7.413422177956297"><ele>412.0</ele><time>2026-04-19T08:19:24.999Z</time></trkpt><trkpt lat="45.04134870853919" lon="7.413176552901936"><ele>413.0</ele><time>2026-04-19T08:19:25.999Z</time></trkpt><trkpt lat="45.04136281788455" lon="7.412954416741366"><ele>409.3333333333333</ele><time>2026-04-19T08:19:26.999Z</time></trkpt><trkpt lat="45.04136749902421" lon="7.412719017185955"><ele>405.66666666666663</ele><time>2026-04-19T08:19:27.999Z</time></trkpt><trkpt lat="45.04133536375335" lon="7.412481289724508"><ele>402.0</ele><time>2026-04-19T08:19:28.999Z</time></trkpt><trkpt lat="45.041261464820884" lon="7.412263614406088"><ele>398.66666666666663</ele><time>2026-04-19T08:19:29.999Z</time></trkpt><trkpt lat="45.041151755538216" lon="7.4120922861149285"><ele>395.3333333333333</ele><time>2026-04-19T08:19:30.999Z</time></trkpt><trkpt lat="45.04101414901895" lon="7.411972461500341"><ele>392.0</ele><time>2026-04-19T08:19:31.999Z</time></trkpt><trkpt lat="45.040859303644" lon="7.411894889735824"><ele>395.0</ele><time>2026-04-19T08:19:32.999Z</time></trkpt><trkpt lat="45.04069393839476" lon="7.411824185163435"><ele>398.0</ele><time>2026-04-19T08:19:33.999Z</time></trkpt><trkpt lat="45.04052676194332" lon="7.41174268153886"><ele>401.0</ele><time>2026-04-19T08:19:34.999Z</time></trkpt><trkpt lat="45.040359344539844" lon="7.411651533065615"><ele>401.0</ele><time>2026-04-19T08:19:35.999Z</time></trkpt><trkpt lat="45.04018707893691" lon="7.411561279721919"><ele>401.0</ele><time>2026-04-19T08:19:36.999Z</time></trkpt><trkpt lat="45.04002441378371" lon="7.411472131764983"><ele>401.0</ele><time>2026-04-19T08:19:37.999Z</time></trkpt><trkpt lat="45.039872665025875" lon="7.4113870400163515"><ele>398.3333333333333</ele><time>2026-04-19T08:19:38.999Z</time></trkpt><trkpt lat="45.039727565475566" lon="7.411304557526151"><ele>395.66666666666663</ele><time>2026-04-19T08:19:39.999Z</time></trkpt><trkpt lat="45.039582984878535" lon="7.411236500891693"><ele>393.0</ele><time>2026-04-19T08:19:40.999Z</time></trkpt><trkpt lat="45.03944427058395" lon="7.411170032176637"><ele>393.0</ele><time>2026-04-19T08:19:41.999Z</time></trkpt><trkpt lat="45.03931693000038" lon="7.411094167412365"><ele>393.0</ele><time>2026-04-19T08:19:42.999Z</time></trkpt><trkpt lat="45.039183516636896" lon="7.4110446822823235"><ele>393.0</ele><time>2026-04-19T08:19:43.999Z</time></trkpt><trkpt lat="45.039048712440916" lon="7.4110039074238925"><ele>393.0</ele><time>2026-04-19T08:19:44.999Z</time></trkpt><trkpt lat="45.03890306195613" lon="7.4109611879809565"><ele>395.0</ele><time>2026-04-19T08:19:45.999Z</time></trkpt><trkpt lat="45.03874436630489" lon="7.410916812927036"><ele>397.0</ele><time>2026-04-19T08:19:46.999Z</time></trkpt><trkpt lat="45.03857478430751" lon="7.410870061356527"><ele>399.0</ele><time>2026-04-19T08:19:47.999Z</time></trkpt><trkpt lat="45.03840485098361" lon="7.410822957588624"><ele>399.66666666666663</ele><time>2026-04-19T08:19:48.999Z</time></trkpt><trkpt lat="45.03823428624921" lon="7.410774463037485"><ele>400.3333333333333</ele><time>2026-04-19T08:19:49.999Z</time></trkpt><trkpt lat="45.03806797084883" lon="7.410731980492288"><ele>401.0</ele><time>2026-04-19T08:19:50.998Z</time></trkpt><trkpt lat="45.03791180915452" lon="7.4106972893154675"><ele>401.0</ele><time>2026-04-19T08:19:51.998Z</time></trkpt><trkpt lat="45.037742904788196" lon="7.410678841161412"><ele>401.0</ele><time>2026-04-19T08:19:52.998Z</time></trkpt><trkpt lat="45.03757446582073" lon="7.410676995889449"><ele>401.0</ele><time>2026-04-19T08:19:53.998Z</time></trkpt><trkpt lat="45.03740676327151" lon="7.41067578380747"><ele>402.66666666666663</ele><time>2026-04-19T08:19:54.998Z</time></trkpt><trkpt lat="45.03723852330904" lon="7.410663471178127"><ele>404.33333333333337</ele><time>2026-04-19T08:19:55.998Z</time></trkpt><trkpt lat="45.03707011359364" lon="7.410632725764793"><ele>406.0</ele><time>2026-04-19T08:19:56.998Z</time></trkpt><trkpt lat="45.03689725875755" lon="7.410578915775036"><ele>406.0</ele><time>2026-04-19T08:19:57.999Z</time></trkpt><trkpt lat="45.03673206468923" lon="7.410511434363386"><ele>406.0</ele><time>2026-04-19T08:19:58.999Z</time></trkpt><trkpt lat="45.03657253293842" lon="7.410422072648862"><ele>406.0</ele><time>2026-04-19T08:19:59.999Z</time></trkpt><trkpt lat="45.03642689631069" lon="7.410324728295601"><ele>404.0</ele><time>2026-04-19T08:20:00.999Z</time></trkpt><trkpt lat="45.03629945754973" lon="7.410227557121367"><ele>402.0</ele><time>2026-04-19T08:20:01.999Z</time></trkpt><trkpt lat="45.036177280706546" lon="7.41014368613359"><ele>400.0</ele><time>2026-04-19T08:20:02.999Z</time></trkpt><trkpt lat="45.03607020321145" lon="7.4100401354186625"><ele>398.0</ele><time>2026-04-19T08:20:03.999Z</time></trkpt><trkpt lat="45.03596518068067" lon="7.409927391740668"><ele>398.0</ele><time>2026-04-19T08:20:04.999Z</time></trkpt><trkpt lat="45.035864109845825" lon="7.409800283252789"><ele>398.0</ele><time>2026-04-19T08:20:05.999Z</time></trkpt><trkpt lat="45.03577584341261" lon="7.40965612743044"><ele>398.0</ele><time>2026-04-19T08:20:06.999Z</time></trkpt><trkpt lat="45.035684514924675" lon="7.4095167485630125"><ele>398.0</ele><time>2026-04-19T08:20:07.999Z</time></trkpt><trkpt lat="45.03559638419995" lon="7.40936200809579"><ele>402.0</ele><time>2026-04-19T08:20:08.999Z</time></trkpt><trkpt lat="45.0355139360928" lon="7.4091937101636995"><ele>406.0</ele><time>2026-04-19T08:20:09.999Z</time></trkpt><trkpt lat="45.03543199103674" lon="7.409002055690876"><ele>410.0</ele><time>2026-04-19T08:20:10.999Z</time></trkpt><trkpt lat="45.03535604270293" lon="7.408775768914584"><ele>410.0</ele><time>2026-04-19T08:20:11.999Z</time></trkpt><trkpt lat="45.035290921336454" lon="7.4085452477474965"><ele>410.0</ele><time>2026-04-19T08:20:12.999Z</time></trkpt><trkpt lat="45.03523001154697" lon="7.408299321007935"><ele>410.0</ele><time>2026-04-19T08:20:13.999Z</time></trkpt><trkpt lat="45.03515922584753" lon="7.408051820020238"><ele>412.66666666666663</ele><time>2026-04-19T08:20:14.999Z</time></trkpt><trkpt lat="45.03505685811308" lon="7.407817149204893"><ele>415.33333333333337</ele><time>2026-04-19T08:20:15.999Z</time></trkpt><trkpt lat="45.03493332554567" lon="7.407598256227522"><ele>418.0</ele><time>2026-04-19T08:20:16.999Z</time></trkpt><trkpt lat="45.03480302389105" lon="7.407383706726915"><ele>418.0</ele><time>2026-04-19T08:20:17.999Z</time></trkpt><trkpt lat="45.034677236683706" lon="7.407169380075385"><ele>418.0</ele><time>2026-04-19T08:20:18.999Z</time></trkpt><trkpt lat="45.034554096570666" lon="7.406954683147982"><ele>418.0</ele><time>2026-04-19T08:20:19.999Z</time></trkpt><trkpt lat="45.03443662819762" lon="7.406753259377135"><ele>414.0</ele><time>2026-04-19T08:20:20.999Z</time></trkpt><trkpt lat="45.03432135089002" lon="7.406568832391149"><ele>410.0</ele><time>2026-04-19T08:20:21.999Z</time></trkpt><trkpt lat="45.03421465272186" lon="7.406383038672764"><ele>406.0</ele><time>2026-04-19T08:20:22.999Z</time></trkpt><trkpt lat="45.03411932765203" lon="7.406199343113852"><ele>401.6666666666667</ele><time>2026-04-19T08:20:23.999Z</time></trkpt><trkpt lat="45.034042593135645" lon="7.40600370692488"><ele>397.33333333333337</ele><time>2026-04-19T08:20:24.999Z</time></trkpt><trkpt lat="45.03399261382346" lon="7.405794289415617"><ele>393.0</ele><time>2026-04-19T08:20:25.999Z</time></trkpt><trkpt lat="45.03396721052029" lon="7.405578830160549"><ele>391.66666666666663</ele><time>2026-04-19T08:20:26.999Z</time></trkpt><trkpt lat="45.03396534749804" lon="7.405349110444154"><ele>390.3333333333333</ele><time>2026-04-19T08:20:27.999Z</time></trkpt><trkpt lat="45.03399638823778" lon="7.405128216628617"><ele>389.0</ele><time>2026-04-19T08:20:28.999Z</time></trkpt><trkpt lat="45.03405835386164" lon="7.404906376984637"><ele>390.66666666666663</ele><time>2026-04-19T08:20:29.999Z</time></trkpt><trkpt lat="45.03414028496823" lon="7.404685674770183"><ele>392.33333333333337</ele><time>2026-04-19T08:20:30.999Z</time></trkpt><trkpt lat="45.03423846971754" lon="7.404480181108241"><ele>394.0</ele><time>2026-04-19T08:20:31.999Z</time></trkpt><trkpt lat="45.03434858085631" lon="7.4042885150337"><ele>395.0</ele><time>2026-04-19T08:20:32.999Z</time></trkpt><trkpt lat="45.03449167969472" lon="7.40414906223341"><ele>396.0</ele><time>2026-04-19T08:20:33.999Z</time></trkpt><trkpt lat="45.03462830562028" lon="7.404001170358356"><ele>397.0</ele><time>2026-04-19T08:20:34.999Z</time></trkpt><trkpt lat="45.034758329434084" lon="7.403843366984567"><ele>396.33333333333337</ele><time>2026-04-19T08:20:35.999Z</time></trkpt><trkpt lat="45.03489061084327" lon="7.403677060619585"><ele>395.66666666666663</ele><time>2026-04-19T08:20:36.999Z</time></trkpt><trkpt lat="45.03499792720976" lon="7.403489005038441"><ele>395.0</ele><time>2026-04-19T08:20:37.999Z</time></trkpt><trkpt lat="45.03507963407942" lon="7.403277277554098"><ele>396.0</ele><time>2026-04-19T08:20:38.999Z</time></trkpt><trkpt lat="45.03515174438256" lon="7.403050176252369"><ele>397.0</ele><time>2026-04-19T08:20:39.999Z</time></trkpt><trkpt lat="45.03520584765929" lon="7.402812517716622"><ele>398.0</ele><time>2026-04-19T08:20:40.999Z</time></trkpt><trkpt lat="45.035252297219444" lon="7.402569381254992"><ele>398.0</ele><time>2026-04-19T08:20:41.999Z</time></trkpt><trkpt lat="45.035299840242" lon="7.402328864975785"><ele>398.0</ele><time>2026-04-19T08:20:42.999Z</time></trkpt><trkpt lat="45.035349003019334" lon="7.402089651726501"><ele>398.0</ele><time>2026-04-19T08:20:43.999Z</time></trkpt><trkpt lat="45.03539645811473" lon="7.401854432621879"><ele>398.3333333333333</ele><time>2026-04-19T08:20:44.999Z</time></trkpt><trkpt lat="45.03544751432016" lon="7.401622832592662"><ele>398.66666666666663</ele><time>2026-04-19T08:20:45.999Z</time></trkpt><trkpt lat="45.035500966636576" lon="7.401378959573713"><ele>399.0</ele><time>2026-04-19T08:20:46.999Z</time></trkpt><trkpt lat="45.035560118867764" lon="7.401140793041147"><ele>399.0</ele><time>2026-04-19T08:20:47.999Z</time></trkpt><trkpt lat="45.03562261994918" lon="7.400896063409869"><ele>399.0</ele><time>2026-04-19T08:20:48.999Z</time></trkpt><trkpt lat="45.035683661746276" lon="7.400651774609628"><ele>399.0</ele><time>2026-04-19T08:20:49.999Z</time></trkpt><trkpt lat="45.035742878168776" lon="7.4004044704225995"><ele>399.0</ele><time>2026-04-19T08:20:50.999Z</time></trkpt><trkpt lat="45.03580026785235" lon="7.400158712406151"><ele>399.0</ele><time>2026-04-19T08:20:51.999Z</time></trkpt><trkpt lat="45.035856409767966" lon="7.399917097283294"><ele>399.0</ele><time>2026-04-19T08:20:52.999Z</time></trkpt><trkpt lat="45.03591413409612" lon="7.3996715792151075"><ele>401.66666666666663</ele><time>2026-04-19T08:20:53.999Z</time></trkpt><trkpt lat="45.03597475003115" lon="7.3994320933315505"><ele>404.3333333333333</ele><time>2026-04-19T08:20:54.999Z</time></trkpt><trkpt lat="45.03603570979568" lon="7.399186226462113"><ele>407.0</ele><time>2026-04-19T08:20:55.999Z</time></trkpt><trkpt lat="45.03609581333384" lon="7.398949586686307"><ele>406.66666666666663</ele><time>2026-04-19T08:20:56.999Z</time></trkpt><trkpt lat="45.03616327286943" lon="7.398712306335945"><ele>406.33333333333337</ele><time>2026-04-19T08:20:57.999Z</time></trkpt><trkpt lat="45.03622703532551" lon="7.398473040450119"><ele>406.0</ele><time>2026-04-19T08:20:58.999Z</time></trkpt><trkpt lat="45.036308189801936" lon="7.398246518203473"><ele>406.0</ele><time>2026-04-19T08:20:59.999Z</time></trkpt><trkpt lat="45.03639276076447" lon="7.398023379444912"><ele>406.0</ele><time>2026-04-19T08:21:00.999Z</time></trkpt><trkpt lat="45.03648270876559" lon="7.397808872973657"><ele>406.0</ele><time>2026-04-19T08:21:01.999Z</time></trkpt><trkpt lat="45.03657347507081" lon="7.397592672508544"><ele>407.6666666666667</ele><time>2026-04-19T08:21:02.999Z</time></trkpt><trkpt lat="45.036653961259596" lon="7.397389991330422"><ele>409.33333333333337</ele><time>2026-04-19T08:21:03.999Z</time></trkpt><trkpt lat="45.036727919185125" lon="7.397197812213051"><ele>411.0</ele><time>2026-04-19T08:21:04.999Z</time></trkpt><trkpt lat="45.036807069870285" lon="7.396994760306696"><ele>411.0</ele><time>2026-04-19T08:21:05.999Z</time></trkpt><trkpt lat="45.0368811965958" lon="7.396805893815117"><ele>411.0</ele><time>2026-04-19T08:21:06.999Z</time></trkpt><trkpt lat="45.03695681910968" lon="7.396609281936025"><ele>411.0</ele><time>2026-04-19T08:21:07.999Z</time></trkpt><trkpt lat="45.03703630704098" lon="7.396407225385681"><ele>411.0</ele><time>2026-04-19T08:21:08.999Z</time></trkpt><trkpt lat="45.03711761752753" lon="7.39620117726117"><ele>411.0</ele><time>2026-04-19T08:21:09.999Z</time></trkpt><trkpt lat="45.03719798823595" lon="7.395994279096228"><ele>411.0</ele><time>2026-04-19T08:21:10.999Z</time></trkpt><trkpt lat="45.03726135063343" lon="7.395773061608848"><ele>411.0</ele><time>2026-04-19T08:21:11.999Z</time></trkpt><trkpt lat="45.0373064549715" lon="7.395545582004938"><ele>411.0</ele><time>2026-04-19T08:21:12.999Z</time></trkpt><trkpt lat="45.03732097789167" lon="7.3953198881088245"><ele>411.0</ele><time>2026-04-19T08:21:13.999Z</time></trkpt><trkpt lat="45.03731281149555" lon="7.3950871935722855"><ele>411.0</ele><time>2026-04-19T08:21:14.999Z</time></trkpt><trkpt lat="45.03728824204872" lon="7.3948696731998504"><ele>411.0</ele><time>2026-04-19T08:21:15.999Z</time></trkpt><trkpt lat="45.03724834727947" lon="7.394646098853996"><ele>411.0</ele><time>2026-04-19T08:21:16.999Z</time></trkpt><trkpt lat="45.03718727781774" lon="7.394438092514513"><ele>411.66666666666663</ele><time>2026-04-19T08:21:17.999Z</time></trkpt><trkpt lat="45.037112697042595" lon="7.394236531462714"><ele>412.3333333333333</ele><time>2026-04-19T08:21:18.999Z</time></trkpt><trkpt lat="45.03702343529276" lon="7.394054845129531"><ele>413.0</ele><time>2026-04-19T08:21:19.999Z</time></trkpt><trkpt lat="45.036937691275746" lon="7.393906766060881"><ele>413.5</ele><time>2026-04-19T08:21:20.999Z</time></trkpt><trkpt lat="45.03684746464817" lon="7.393771589928174"><ele>414.0</ele><time>2026-04-19T08:21:21.999Z</time></trkpt><trkpt lat="45.036750819793006" lon="7.393637375614977"><ele>414.5</ele><time>2026-04-19T08:21:22.999Z</time></trkpt><trkpt lat="45.0366507199841" lon="7.3935021381048"><ele>415.0</ele><time>2026-04-19T08:21:23.999Z</time></trkpt><trkpt lat="45.036551294473135" lon="7.393357496242289"><ele>415.0</ele><time>2026-04-19T08:21:24.999Z</time></trkpt><trkpt lat="45.0364495771345" lon="7.393211178444965"><ele>415.0</ele><time>2026-04-19T08:21:25.999Z</time></trkpt><trkpt lat="45.036345060989234" lon="7.393065793193815"><ele>415.0</ele><time>2026-04-19T08:21:26.999Z</time></trkpt><trkpt lat="45.03624975740456" lon="7.392908304890225"><ele>415.0</ele><time>2026-04-19T08:21:27.999Z</time></trkpt><trkpt lat="45.036160360468166" lon="7.392744136469996"><ele>416.33333333333337</ele><time>2026-04-19T08:21:28.999Z</time></trkpt><trkpt lat="45.03608099988958" lon="7.392562855873193"><ele>417.66666666666663</ele><time>2026-04-19T08:21:29.999Z</time></trkpt><trkpt lat="45.036017227246546" lon="7.392363949464527"><ele>419.0</ele><time>2026-04-19T08:21:30.999Z</time></trkpt><trkpt lat="45.035970965052236" lon="7.392152063490878"><ele>419.66666666666663</ele><time>2026-04-19T08:21:31.999Z</time></trkpt><trkpt lat="45.03595076089931" lon="7.391905135454276"><ele>420.33333333333337</ele><time>2026-04-19T08:21:32.999Z</time></trkpt><trkpt lat="45.03592586852628" lon="7.391674287379602"><ele>421.0</ele><time>2026-04-19T08:21:33.999Z</time></trkpt><trkpt lat="45.035898121885936" lon="7.391426471525063"><ele>423.33333333333337</ele><time>2026-04-19T08:21:34.999Z</time></trkpt><trkpt lat="45.03587386370652" lon="7.391180015676551"><ele>425.66666666666663</ele><time>2026-04-19T08:21:35.999Z</time></trkpt><trkpt lat="45.035850918187975" lon="7.390932363077721"><ele>428.0</ele><time>2026-04-19T08:21:36.999Z</time></trkpt><trkpt lat="45.03582649690411" lon="7.390681651633079"><ele>425.3333333333333</ele><time>2026-04-19T08:21:37.999Z</time></trkpt><trkpt lat="45.03579981825095" lon="7.390437877433617"><ele>422.66666666666663</ele><time>2026-04-19T08:21:38.999Z</time></trkpt><trkpt lat="45.035778106767616" lon="7.390187470009738"><ele>420.0</ele><time>2026-04-19T08:21:39.999Z</time></trkpt><trkpt lat="45.035758358533855" lon="7.38994047631856"><ele>420.0</ele><time>2026-04-19T08:21:40.999Z</time></trkpt><trkpt lat="45.03574584538059" lon="7.3896998906660905"><ele>420.0</ele><time>2026-04-19T08:21:41.999Z</time></trkpt><trkpt lat="45.03574678818573" lon="7.389451843686126"><ele>420.0</ele><time>2026-04-19T08:21:42.999Z</time></trkpt><trkpt lat="45.03576992770845" lon="7.389213464612301"><ele>423.0</ele><time>2026-04-19T08:21:43.999Z</time></trkpt><trkpt lat="45.035810276043584" lon="7.388977111970113"><ele>426.0</ele><time>2026-04-19T08:21:44.999Z</time></trkpt><trkpt lat="45.03586819738117" lon="7.388748192787517"><ele>429.0</ele><time>2026-04-19T08:21:45.998Z</time></trkpt><trkpt lat="45.03594392323909" lon="7.388534785882202"><ele>429.33333333333337</ele><time>2026-04-19T08:21:46.998Z</time></trkpt><trkpt lat="45.03602769693033" lon="7.388322822858196"><ele>429.6666666666667</ele><time>2026-04-19T08:21:47.998Z</time></trkpt><trkpt lat="45.03612743252708" lon="7.388119962418077"><ele>430.0</ele><time>2026-04-19T08:21:48.998Z</time></trkpt><trkpt lat="45.036236984677046" lon="7.387932725430025"><ele>431.0</ele><time>2026-04-19T08:21:49.998Z</time></trkpt><trkpt lat="45.03636831779926" lon="7.38775920090642"><ele>432.0</ele><time>2026-04-19T08:21:50.998Z</time></trkpt><trkpt lat="45.03650702378773" lon="7.387604778496584"><ele>433.0</ele><time>2026-04-19T08:21:51.998Z</time></trkpt><trkpt lat="45.03665548326056" lon="7.38746329433958"><ele>433.0</ele><time>2026-04-19T08:21:52.998Z</time></trkpt><trkpt lat="45.03680881938661" lon="7.3873283906124625"><ele>433.0</ele><time>2026-04-19T08:21:53.998Z</time></trkpt><trkpt lat="45.036957581787746" lon="7.387196809425423"><ele>433.0</ele><time>2026-04-19T08:21:54.998Z</time></trkpt><trkpt lat="45.03709314034939" lon="7.387076885886695"><ele>434.6666666666667</ele><time>2026-04-19T08:21:55.998Z</time></trkpt><trkpt lat="45.037231460804186" lon="7.386950699890383"><ele>436.33333333333337</ele><time>2026-04-19T08:21:56.998Z</time></trkpt><trkpt lat="45.037369242508476" lon="7.386820061839681"><ele>438.0</ele><time>2026-04-19T08:21:57.998Z</time></trkpt><trkpt lat="45.03750976490749" lon="7.386690408738127"><ele>438.0</ele><time>2026-04-19T08:21:58.998Z</time></trkpt><trkpt lat="45.03765823244703" lon="7.386565097891911"><ele>438.0</ele><time>2026-04-19T08:21:59.998Z</time></trkpt><trkpt lat="45.037804494838795" lon="7.386443409714453"><ele>438.0</ele><time>2026-04-19T08:22:00.998Z</time></trkpt><trkpt lat="45.037952116325634" lon="7.386312969004992"><ele>438.66666666666663</ele><time>2026-04-19T08:22:01.998Z</time></trkpt><trkpt lat="45.038093261427534" lon="7.386182822699969"><ele>439.3333333333333</ele><time>2026-04-19T08:22:02.998Z</time></trkpt><trkpt lat="45.03824034509024" lon="7.3860555811006785"><ele>440.0</ele><time>2026-04-19T08:22:04Z</time></trkpt><trkpt lat="45.03838794695733" lon="7.3859223135669"><ele>440.0</ele><time>2026-04-19T08:22:05Z</time></trkpt><trkpt lat="45.03852380636326" lon="7.385786958103119"><ele>440.0</ele><time>2026-04-19T08:22:06Z</time></trkpt><trkpt lat="45.03865424883274" lon="7.3856281908508015"><ele>440.0</ele><time>2026-04-19T08:22:07Z</time></trkpt><trkpt lat="45.03877774135447" lon="7.3854429847850005"><ele>440.66666666666663</ele><time>2026-04-19T08:22:08Z</time></trkpt><trkpt lat="45.03888854543449" lon="7.385245123056727"><ele>441.33333333333337</ele><time>2026-04-19T08:22:09Z</time></trkpt><trkpt lat="45.03898650502399" lon="7.385023696824855"><ele>442.0</ele><time>2026-04-19T08:22:10Z</time></trkpt><trkpt lat="45.0390737035097" lon="7.384799105507275"><ele>443.0</ele><time>2026-04-19T08:22:11Z</time></trkpt><trkpt lat="45.03914942604873" lon="7.384558468180283"><ele>444.0</ele><time>2026-04-19T08:22:12Z</time></trkpt><trkpt lat="45.03922260935229" lon="7.384319992564985"><ele>445.0</ele><time>2026-04-19T08:22:13Z</time></trkpt><trkpt lat="45.03930267876798" lon="7.384082236040622"><ele>445.0</ele><time>2026-04-19T08:22:14Z</time></trkpt><trkpt lat="45.03938633525456" lon="7.383854917420719"><ele>445.0</ele><time>2026-04-19T08:22:15Z</time></trkpt><trkpt lat="45.03946873497403" lon="7.383620474703047"><ele>445.0</ele><time>2026-04-19T08:22:16Z</time></trkpt><trkpt lat="45.03954814717525" lon="7.383397684472154"><ele>445.6666666666667</ele><time>2026-04-19T08:22:17Z</time></trkpt><trkpt lat="45.03963099683101" lon="7.3831691031734135"><ele>446.33333333333337</ele><time>2026-04-19T08:22:18Z</time></trkpt><trkpt lat="45.039713072813505" lon="7.382942757866841"><ele>447.0</ele><time>2026-04-19T08:22:19Z</time></trkpt><trkpt lat="45.039793057244424" lon="7.3827089053049795"><ele>448.33333333333337</ele><time>2026-04-19T08:22:20Z</time></trkpt><trkpt lat="45.03987258495951" lon="7.382479396544072"><ele>449.6666666666667</ele><time>2026-04-19T08:22:21Z</time></trkpt><trkpt lat="45.03994954670837" lon="7.382253608825553"><ele>451.0</ele><time>2026-04-19T08:22:22Z</time></trkpt><trkpt lat="45.04003377334096" lon="7.382020896249332"><ele>451.0</ele><time>2026-04-19T08:22:23Z</time></trkpt><trkpt lat="45.040112907726126" lon="7.381791903959144"><ele>451.0</ele><time>2026-04-19T08:22:24Z</time></trkpt><trkpt lat="45.040192686918104" lon="7.381555553721935"><ele>451.0</ele><time>2026-04-19T08:22:25Z</time></trkpt><trkpt lat="45.040274715562674" lon="7.381328090941235"><ele>451.0</ele><time>2026-04-19T08:22:26Z</time></trkpt><trkpt lat="45.04035330066774" lon="7.381094787377341"><ele>451.0</ele><time>2026-04-19T08:22:27Z</time></trkpt><trkpt lat="45.040426153486834" lon="7.380858517057321"><ele>451.0</ele><time>2026-04-19T08:22:28Z</time></trkpt><trkpt lat="45.04049614860626" lon="7.38062484323037"><ele>451.6666666666667</ele><time>2026-04-19T08:22:29Z</time></trkpt><trkpt lat="45.04056019625822" lon="7.380381214121254"><ele>452.33333333333337</ele><time>2026-04-19T08:22:30Z</time></trkpt><trkpt lat="45.040617357934444" lon="7.380140871611931"><ele>453.0</ele><time>2026-04-19T08:22:31Z</time></trkpt><trkpt lat="45.04066532236973" lon="7.379886169386547"><ele>453.66666666666663</ele><time>2026-04-19T08:22:32Z</time></trkpt><trkpt lat="45.04070414237674" lon="7.379637005834707"><ele>454.3333333333333</ele><time>2026-04-19T08:22:33Z</time></trkpt><trkpt lat="45.04074376396917" lon="7.379378166930902"><ele>455.0</ele><time>2026-04-19T08:22:34Z</time></trkpt><trkpt lat="45.040784094743124" lon="7.3791304929831085"><ele>456.3333333333333</ele><time>2026-04-19T08:22:35Z</time></trkpt><trkpt lat="45.040825701235924" lon="7.378879930455109"><ele>457.66666666666663</ele><time>2026-04-19T08:22:36Z</time></trkpt><trkpt lat="45.04086693281797" lon="7.378637401864522"><ele>459.0</ele><time>2026-04-19T08:22:37Z</time></trkpt><trkpt lat="45.04090993779168" lon="7.378386847145117"><ele>459.33333333333337</ele><time>2026-04-19T08:22:38Z</time></trkpt><trkpt lat="45.04095055918335" lon="7.378140342798179"><ele>459.6666666666667</ele><time>2026-04-19T08:22:39Z</time></trkpt><trkpt lat="45.0409886552018" lon="7.377897599509445"><ele>460.0</ele><time>2026-04-19T08:22:40Z</time></trkpt><trkpt lat="45.04102796261831" lon="7.37764769744338"><ele>460.6666666666667</ele><time>2026-04-19T08:22:41Z</time></trkpt><trkpt lat="45.041057803079575" lon="7.377402993919529"><ele>461.33333333333337</ele><time>2026-04-19T08:22:42Z</time></trkpt><trkpt lat="45.041077125173736" lon="7.377163832441136"><ele>462.0</ele><time>2026-04-19T08:22:43Z</time></trkpt><trkpt lat="45.0410782157698" lon="7.376936704796397"><ele>462.0</ele><time>2026-04-19T08:22:44Z</time></trkpt><trkpt lat="45.04106126627042" lon="7.3767243749459945"><ele>462.0</ele><time>2026-04-19T08:22:45Z</time></trkpt><trkpt lat="45.04103642949485" lon="7.376519398728745"><ele>462.0</ele><time>2026-04-19T08:22:46Z</time></trkpt><trkpt lat="45.04099804460541" lon="7.376315858911395"><ele>462.0</ele><time>2026-04-19T08:22:46.999Z</time></trkpt><trkpt lat="45.040953356036574" lon="7.376127500366123"><ele>462.0</ele><time>2026-04-19T08:22:47.999Z</time></trkpt><trkpt lat="45.040920464316656" lon="7.375927741224546"><ele>462.0</ele><time>2026-04-19T08:22:48.999Z</time></trkpt><trkpt lat="45.040865520348234" lon="7.375754716197534"><ele>462.0</ele><time>2026-04-19T08:22:49.999Z</time></trkpt><trkpt lat="45.04082657877438" lon="7.375578052816211"><ele>462.0</ele><time>2026-04-19T08:22:50.999Z</time></trkpt><trkpt lat="45.040795866165716" lon="7.375401085160693"><ele>464.0</ele><time>2026-04-19T08:22:51.999Z</time></trkpt><trkpt lat="45.04077008130033" lon="7.375224568391245"><ele>466.0</ele><time>2026-04-19T08:22:52.999Z</time></trkpt><trkpt lat="45.04076038991821" lon="7.375047850084658"><ele>468.0</ele><time>2026-04-19T08:22:53.999Z</time></trkpt><trkpt lat="45.04075438467061" lon="7.374870889387135"><ele>470.0</ele><time>2026-04-19T08:22:54.999Z</time></trkpt><trkpt lat="45.04077182264578" lon="7.374712787827916"><ele>469.8</ele><time>2026-04-19T08:22:55.999Z</time></trkpt><trkpt lat="45.04079775968911" lon="7.374571017366366"><ele>469.6</ele><time>2026-04-19T08:22:56.999Z</time></trkpt><trkpt lat="45.04083329524557" lon="7.374439402548945"><ele>469.4</ele><time>2026-04-19T08:22:57.999Z</time></trkpt><trkpt lat="45.04087456335853" lon="7.3743136490651695"><ele>469.2</ele><time>2026-04-19T08:22:58.999Z</time></trkpt><trkpt lat="45.040923897167865" lon="7.374172932697746"><ele>469.0</ele><time>2026-04-19T08:22:59.999Z</time></trkpt><trkpt lat="45.04097672316044" lon="7.374020770883046"><ele>470.0</ele><time>2026-04-19T08:23:00.999Z</time></trkpt><trkpt lat="45.041028961711355" lon="7.373853032683051"><ele>471.0</ele><time>2026-04-19T08:23:01.999Z</time></trkpt><trkpt lat="45.041087832873195" lon="7.373676066144562"><ele>472.0</ele><time>2026-04-19T08:23:02.999Z</time></trkpt><trkpt lat="45.041147035059595" lon="7.373497810189716"><ele>473.0</ele><time>2026-04-19T08:23:03.999Z</time></trkpt><trkpt lat="45.041201272803775" lon="7.373321409895312"><ele>473.0</ele><time>2026-04-19T08:23:04.999Z</time></trkpt><trkpt lat="45.041254807910654" lon="7.373153997635197"><ele>473.0</ele><time>2026-04-19T08:23:05.999Z</time></trkpt><trkpt lat="45.04131130451415" lon="7.3729804188953745"><ele>473.0</ele><time>2026-04-19T08:23:06.999Z</time></trkpt><trkpt lat="45.04136783743498" lon="7.372806418188341"><ele>473.0</ele><time>2026-04-19T08:23:07.999Z</time></trkpt><trkpt lat="45.041430736149266" lon="7.37262604372662"><ele>474.0</ele><time>2026-04-19T08:23:08.999Z</time></trkpt><trkpt lat="45.041494407513134" lon="7.3724365400765945"><ele>475.0</ele><time>2026-04-19T08:23:09.999Z</time></trkpt><trkpt lat="45.04156062092261" lon="7.372244596521699"><ele>476.0</ele><time>2026-04-19T08:23:10.999Z</time></trkpt><trkpt lat="45.041628719251705" lon="7.372048505924057"><ele>475.0</ele><time>2026-04-19T08:23:11.999Z</time></trkpt><trkpt lat="45.041695323071" lon="7.3718494577270475"><ele>474.0</ele><time>2026-04-19T08:23:12.999Z</time></trkpt><trkpt lat="45.041764237106456" lon="7.37164198630671"><ele>473.0</ele><time>2026-04-19T08:23:13.999Z</time></trkpt><trkpt lat="45.04183970213138" lon="7.371426309565983"><ele>474.66666666666663</ele><time>2026-04-19T08:23:14.999Z</time></trkpt><trkpt lat="45.04191260546273" lon="7.371211016840769"><ele>476.33333333333337</ele><time>2026-04-19T08:23:15.999Z</time></trkpt><trkpt lat="45.041987565754525" lon="7.370986703099226"><ele>478.0</ele><time>2026-04-19T08:23:16.999Z</time></trkpt><trkpt lat="45.04205587031849" lon="7.37077458000399"><ele>478.0</ele><time>2026-04-19T08:23:17.999Z</time></trkpt><trkpt lat="45.042119765123495" lon="7.370574620970726"><ele>478.0</ele><time>2026-04-19T08:23:18.999Z</time></trkpt><trkpt lat="45.042180438658896" lon="7.370377906279005"><ele>478.0</ele><time>2026-04-19T08:23:19.999Z</time></trkpt><trkpt lat="45.04223467300846" lon="7.37017289834886"><ele>479.33333333333337</ele><time>2026-04-19T08:23:20.999Z</time></trkpt><trkpt lat="45.04228535834455" lon="7.369962008047239"><ele>480.66666666666663</ele><time>2026-04-19T08:23:21.999Z</time></trkpt><trkpt lat="45.04232286273864" lon="7.369757749331684"><ele>482.0</ele><time>2026-04-19T08:23:22.999Z</time></trkpt><trkpt lat="45.0423409828609" lon="7.369543090091529"><ele>483.0</ele><time>2026-04-19T08:23:23.999Z</time></trkpt><trkpt lat="45.042346443876184" lon="7.369329853641978"><ele>484.0</ele><time>2026-04-19T08:23:24.999Z</time></trkpt><trkpt lat="45.04233694137434" lon="7.369129487538492"><ele>485.0</ele><time>2026-04-19T08:23:25.999Z</time></trkpt><trkpt lat="45.04232395878353" lon="7.368940685725322"><ele>486.0</ele><time>2026-04-19T08:23:26.999Z</time></trkpt><trkpt lat="45.04230355051404" lon="7.36877091266051"><ele>486.0</ele><time>2026-04-19T08:23:27.999Z</time></trkpt><trkpt lat="45.042281869844295" lon="7.368626257521305"><ele>486.0</ele><time>2026-04-19T08:23:28.999Z</time></trkpt><trkpt lat="45.042274210797586" lon="7.368502783538671"><ele>486.0</ele><time>2026-04-19T08:23:29.999Z</time></trkpt><trkpt lat="45.04228604244453" lon="7.36838722894221"><ele>486.0</ele><time>2026-04-19T08:23:30.999Z</time></trkpt><trkpt lat="45.04232036625953" lon="7.368259629345124"><ele>486.0</ele><time>2026-04-19T08:23:31.999Z</time></trkpt><trkpt lat="45.04234433947924" lon="7.368124608942638"><ele>486.0</ele><time>2026-04-19T08:23:32.999Z</time></trkpt><trkpt lat="45.04233969014491" lon="7.367998979586178"><ele>486.0</ele><time>2026-04-19T08:23:33.999Z</time></trkpt><trkpt lat="45.04230215481047" lon="7.367875934648535"><ele>486.0</ele><time>2026-04-19T08:23:34.999Z</time></trkpt><trkpt lat="45.04224025276606" lon="7.367766317515013"><ele>486.0</ele><time>2026-04-19T08:23:35.999Z</time></trkpt><trkpt lat="45.04217699027709" lon="7.367634290602664"><ele>486.0</ele><time>2026-04-19T08:23:36.999Z</time></trkpt><trkpt lat="45.042131893183395" lon="7.367457642964842"><ele>486.0</ele><time>2026-04-19T08:23:37.999Z</time></trkpt><trkpt lat="45.04210137794607" lon="7.367258512299672"><ele>486.0</ele><time>2026-04-19T08:23:38.999Z</time></trkpt><trkpt lat="45.0420766099631" lon="7.367043923613821"><ele>486.0</ele><time>2026-04-19T08:23:39.999Z</time></trkpt><trkpt lat="45.0420493453061" lon="7.3668198790035655"><ele>486.0</ele><time>2026-04-19T08:23:40.999Z</time></trkpt><trkpt lat="45.04202128584751" lon="7.36659441327428"><ele>486.0</ele><time>2026-04-19T08:23:41.999Z</time></trkpt><trkpt lat="45.04199418957281" lon="7.366367258363522"><ele>486.0</ele><time>2026-04-19T08:23:42.999Z</time></trkpt><trkpt lat="45.04196269683465" lon="7.366148912664288"><ele>486.33333333333337</ele><time>2026-04-19T08:23:43.999Z</time></trkpt><trkpt lat="45.04193164411698" lon="7.365926380481109"><ele>486.6666666666667</ele><time>2026-04-19T08:23:44.999Z</time></trkpt><trkpt lat="45.041907122230356" lon="7.365709424825184"><ele>487.0</ele><time>2026-04-19T08:23:45.999Z</time></trkpt><trkpt lat="45.0418837151656" lon="7.365496556640261"><ele>487.25</ele><time>2026-04-19T08:23:46.999Z</time></trkpt><trkpt lat="45.04185931961336" lon="7.365286325991913"><ele>487.5</ele><time>2026-04-19T08:23:47.999Z</time></trkpt><trkpt lat="45.04183455676378" lon="7.365082970593632"><ele>487.75</ele><time>2026-04-19T08:23:48.999Z</time></trkpt><trkpt lat="45.0418088147807" lon="7.364878138920531"><ele>488.0</ele><time>2026-04-19T08:23:49.999Z</time></trkpt><trkpt lat="45.04178394849655" lon="7.36467669739569"><ele>488.75</ele><time>2026-04-19T08:23:50.999Z</time></trkpt><trkpt lat="45.041760550990666" lon="7.3644849111206945"><ele>489.5</ele><time>2026-04-19T08:23:51.999Z</time></trkpt><trkpt lat="45.041744633326886" lon="7.364310361987868"><ele>490.25</ele><time>2026-04-19T08:23:52.999Z</time></trkpt><trkpt lat="45.04173809708999" lon="7.364155771101922"><ele>491.0</ele><time>2026-04-19T08:23:53.999Z</time></trkpt><trkpt lat="45.04174930392976" lon="7.364018266118095"><ele>490.99999999999994</ele><time>2026-04-19T08:23:54.999Z</time></trkpt><trkpt lat="45.041760724207336" lon="7.36390247775084"><ele>491.0</ele><time>2026-04-19T08:23:55.999Z</time></trkpt><trkpt lat="45.04173111166483" lon="7.363797028782559"><ele>491.0</ele><time>2026-04-19T08:23:56.999Z</time></trkpt><trkpt lat="45.04172025398388" lon="7.363694997119916"><ele>491.0</ele><time>2026-04-19T08:23:57.999Z</time></trkpt><trkpt lat="45.04167857549767" lon="7.363593466954412"><ele>490.99999999999994</ele><time>2026-04-19T08:23:58.999Z</time></trkpt><trkpt lat="45.041643655913234" lon="7.363470499287091"><ele>491.0</ele><time>2026-04-19T08:23:59.999Z</time></trkpt><trkpt lat="45.04161349712003" lon="7.363332992194485"><ele>491.3333333333333</ele><time>2026-04-19T08:24:00.999Z</time></trkpt><trkpt lat="45.04158724488932" lon="7.363189805284135"><ele>491.66666666666663</ele><time>2026-04-19T08:24:01.999Z</time></trkpt><trkpt lat="45.04157703168804" lon="7.36305575597349"><ele>492.0</ele><time>2026-04-19T08:24:02.999Z</time></trkpt><trkpt lat="45.04156251528179" lon="7.362944047208784"><ele>492.33333333333337</ele><time>2026-04-19T08:24:03.999Z</time></trkpt><trkpt lat="45.041551208770954" lon="7.362853779150051"><ele>492.6666666666667</ele><time>2026-04-19T08:24:04.999Z</time></trkpt><trkpt lat="45.04153966033061" lon="7.36276260907503"><ele>493.0</ele><time>2026-04-19T08:24:05.999Z</time></trkpt><trkpt lat="45.04143728720349" lon="7.362711377407563"><ele>493.1666666666667</ele><time>2026-04-19T08:24:06.999Z</time></trkpt><trkpt lat="45.04146519517416" lon="7.362624738886514"><ele>493.33333333333337</ele><time>2026-04-19T08:27:27Z</time></trkpt><trkpt lat="45.0414586213879" lon="7.362525818493043"><ele>493.5</ele><time>2026-04-19T08:27:29Z</time></trkpt><trkpt lat="45.04144726508843" lon="7.362411427983039"><ele>493.66666666666663</ele><time>2026-04-19T08:27:30.999Z</time></trkpt><trkpt lat="45.04144908916218" lon="7.362296627301485"><ele>493.8333333333333</ele><time>2026-04-19T08:27:33.999Z</time></trkpt><trkpt lat="45.04144938454837" lon="7.362205882015017"><ele>494.0</ele><time>2026-04-19T08:27:35.999Z</time></trkpt><trkpt lat="45.04146605236456" lon="7.3620267887752275"><ele>494.16666666666663</ele><time>2026-04-19T08:27:37.999Z</time></trkpt><trkpt lat="45.04145336045705" lon="7.3619173821374515"><ele>494.3333333333333</ele><time>2026-04-19T08:27:38.999Z</time></trkpt><trkpt lat="45.041437330761994" lon="7.3618008161376025"><ele>494.5</ele><time>2026-04-19T08:27:39.999Z</time></trkpt><trkpt lat="45.04142396286539" lon="7.361669861875262"><ele>494.66666666666663</ele><time>2026-04-19T08:27:40.999Z</time></trkpt><trkpt lat="45.041424179115815" lon="7.361529275838387"><ele>494.8333333333333</ele><time>2026-04-19T08:27:41.999Z</time></trkpt><trkpt lat="45.041428212230855" lon="7.361399838957786"><ele>495.0</ele><time>2026-04-19T08:27:42.999Z</time></trkpt><trkpt lat="45.04148443461264" lon="7.361262869152314"><ele>495.5</ele><time>2026-04-19T08:27:43.999Z</time></trkpt><trkpt lat="45.04149464772419" lon="7.361146069219685"><ele>496.0</ele><time>2026-04-19T08:27:44.999Z</time></trkpt><trkpt lat="45.04147868131009" lon="7.361046208798795"><ele>496.5</ele><time>2026-04-19T08:27:45.999Z</time></trkpt><trkpt lat="45.04143513331651" lon="7.3609672702819555"><ele>497.0</ele><time>2026-04-19T08:27:46.999Z</time></trkpt><trkpt lat="45.04136924315584" lon="7.360902434803041"><ele>497.5</ele><time>2026-04-19T08:27:47.999Z</time></trkpt><trkpt lat="45.041302021204075" lon="7.360815294213282"><ele>498.0</ele><time>2026-04-19T08:27:48.999Z</time></trkpt><trkpt lat="45.0412401696869" lon="7.36074266869038"><ele>498.0</ele><time>2026-04-19T08:27:49.999Z</time></trkpt><trkpt lat="45.041257894967494" lon="7.36053040280063"><ele>498.0</ele><time>2026-04-19T08:27:50.999Z</time></trkpt><trkpt lat="45.041241478492246" lon="7.360362192751811"><ele>498.0</ele><time>2026-04-19T08:27:51.999Z</time></trkpt><trkpt lat="45.04120614559079" lon="7.360184730063638"><ele>498.0</ele><time>2026-04-19T08:27:52.999Z</time></trkpt><trkpt lat="45.04116182293684" lon="7.360000533389701"><ele>498.0</ele><time>2026-04-19T08:27:53.999Z</time></trkpt><trkpt lat="45.04110943316471" lon="7.3598110283093385"><ele>498.0</ele><time>2026-04-19T08:27:54.999Z</time></trkpt><trkpt lat="45.04105902544345" lon="7.3596170652187745"><ele>498.0</ele><time>2026-04-19T08:27:55.999Z</time></trkpt><trkpt lat="45.04100560338288" lon="7.35942654555201"><ele>498.0</ele><time>2026-04-19T08:27:56.999Z</time></trkpt><trkpt lat="45.04095069073121" lon="7.359236226894474"><ele>498.0</ele><time>2026-04-19T08:27:57.999Z</time></trkpt><trkpt lat="45.04089870513239" lon="7.359047582659782"><ele>498.0</ele><time>2026-04-19T08:27:58.999Z</time></trkpt><trkpt lat="45.04084952394032" lon="7.358862257924845"><ele>498.0</ele><time>2026-04-19T08:27:59.999Z</time></trkpt><trkpt lat="45.04080055261089" lon="7.358679173926877"><ele>498.0</ele><time>2026-04-19T08:28:00.999Z</time></trkpt><trkpt lat="45.04074981790732" lon="7.358497605929074"><ele>497.0</ele><time>2026-04-19T08:28:01.999Z</time></trkpt><trkpt lat="45.04070165973759" lon="7.358320753914309"><ele>496.0</ele><time>2026-04-19T08:28:02.999Z</time></trkpt><trkpt lat="45.040655929593676" lon="7.358144861218211"><ele>495.0</ele><time>2026-04-19T08:28:03.999Z</time></trkpt><trkpt lat="45.04060905973359" lon="7.3579768901452445"><ele>494.0</ele><time>2026-04-19T08:28:04.999Z</time></trkpt><trkpt lat="45.04056390767086" lon="7.357811053248367"><ele>494.0</ele><time>2026-04-19T08:28:05.999Z</time></trkpt><trkpt lat="45.040520972637125" lon="7.357643454606602"><ele>494.0</ele><time>2026-04-19T08:28:06.999Z</time></trkpt><trkpt lat="45.04048339820378" lon="7.357477985868523"><ele>494.0</ele><time>2026-04-19T08:28:07.999Z</time></trkpt><trkpt lat="45.04045312358039" lon="7.357310883310775"><ele>494.0</ele><time>2026-04-19T08:28:08.999Z</time></trkpt><trkpt lat="45.04043154544472" lon="7.357144594816791"><ele>494.75</ele><time>2026-04-19T08:28:09.999Z</time></trkpt><trkpt lat="45.04041594193643" lon="7.3569784042815245"><ele>495.5</ele><time>2026-04-19T08:28:10.999Z</time></trkpt><trkpt lat="45.04040509482676" lon="7.3568120866463635"><ele>496.25</ele><time>2026-04-19T08:28:11.999Z</time></trkpt><trkpt lat="45.04040066580648" lon="7.356648103055736"><ele>497.0</ele><time>2026-04-19T08:28:12.999Z</time></trkpt><trkpt lat="45.040399734326066" lon="7.3564840612685085"><ele>497.40000000000003</ele><time>2026-04-19T08:28:13.999Z</time></trkpt><trkpt lat="45.04040293042032" lon="7.356328249149437"><ele>497.80000000000007</ele><time>2026-04-19T08:28:14.999Z</time></trkpt><trkpt lat="45.04040368364781" lon="7.356176536257685"><ele>498.2</ele><time>2026-04-19T08:28:15.999Z</time></trkpt><trkpt lat="45.04040281939136" lon="7.356032543954603"><ele>498.6</ele><time>2026-04-19T08:28:16.999Z</time></trkpt><trkpt lat="45.0404005442215" lon="7.355902340393246"><ele>499.0</ele><time>2026-04-19T08:28:17.999Z</time></trkpt><trkpt lat="45.04040061517868" lon="7.355779905871878"><ele>499.0</ele><time>2026-04-19T08:28:18.999Z</time></trkpt><trkpt lat="45.04040322247184" lon="7.355664789078251"><ele>499.0</ele><time>2026-04-19T08:28:19.999Z</time></trkpt><trkpt lat="45.04040726789716" lon="7.355557132744879"><ele>499.0</ele><time>2026-04-19T08:28:20.999Z</time></trkpt><trkpt lat="45.04040778057442" lon="7.35539286934021"><ele>499.0</ele><time>2026-04-19T08:28:23.001Z</time></trkpt><trkpt lat="45.040308648748514" lon="7.355307648414166"><ele>499.0</ele><time>2026-04-19T08:29:29Z</time></trkpt><trkpt lat="45.040258299966965" lon="7.355376305901874"><ele>499.0</ele><time>2026-04-19T08:29:38.999Z</time></trkpt><trkpt lat="45.04019641210506" lon="7.355495108741962"><ele>499.0</ele><time>2026-04-19T08:29:39.999Z</time></trkpt><trkpt lat="45.040260428873516" lon="7.355384604904191"><ele>499.0</ele><time>2026-04-19T08:29:48.999Z</time></trkpt><trkpt lat="45.040195097826846" lon="7.355396303677487"><ele>499.0</ele><time>2026-04-19T08:29:54.999Z</time></trkpt><trkpt lat="45.04016190532381" lon="7.3555411525228545"><ele>499.0</ele><time>2026-04-19T08:30:01.999Z</time></trkpt><trkpt lat="45.040215518455554" lon="7.35535760107237"><ele>499.79999999999995</ele><time>2026-04-19T08:30:07.999Z</time></trkpt><trkpt lat="45.04022023122495" lon="7.355477810356199"><ele>500.59999999999997</ele><time>2026-04-19T08:30:08.999Z</time></trkpt><trkpt lat="45.04023052957744" lon="7.355369891852374"><ele>501.4</ele><time>2026-04-19T08:30:12.999Z</time></trkpt><trkpt lat="45.040292630593775" lon="7.355343850187321"><ele>502.2</ele><time>2026-04-19T08:30:20.999Z</time></trkpt><trkpt lat="45.040283578113495" lon="7.355503127391649"><ele>503.0</ele><time>2026-04-19T08:30:35Z</time></trkpt><trkpt lat="45.04016844651234" lon="7.355396451239969"><ele>503.0</ele><time>2026-04-19T08:30:46Z</time></trkpt><trkpt lat="45.040221380614604" lon="7.355453094367896"><ele>503.0</ele><time>2026-04-19T08:31:14Z</time></trkpt><trkpt lat="45.04020752855114" lon="7.355130007497365"><ele>503.0</ele><time>2026-04-19T08:31:35Z</time></trkpt><trkpt lat="45.04019970273266" lon="7.355013199663112"><ele>503.0</ele><time>2026-04-19T08:31:36.999Z</time></trkpt><trkpt lat="45.04020570769794" lon="7.355445574127939"><ele>502.99999999999994</ele><time>2026-04-19T08:31:37.999Z</time></trkpt><trkpt lat="45.040294698349754" lon="7.355434486187239"><ele>503.0</ele><time>2026-04-19T08:31:44.999Z</time></trkpt><trkpt lat="45.04021116212303" lon="7.355295154468517"><ele>503.0</ele><time>2026-04-19T08:32:42Z</time></trkpt><trkpt lat="45.040270436899725" lon="7.355351090255911"><ele>503.0</ele><time>2026-04-19T08:32:45Z</time></trkpt><trkpt lat="45.04028563825198" lon="7.355460098510409"><ele>502.99999999999994</ele><time>2026-04-19T08:32:48Z</time></trkpt><trkpt lat="45.04030564501258" lon="7.355545832405216"><ele>503.0</ele><time>2026-04-19T08:32:52Z</time></trkpt><trkpt lat="45.04028814154554" lon="7.355437654136895"><ele>503.0</ele><time>2026-04-19T08:32:54Z</time></trkpt><trkpt lat="45.04041418688649" lon="7.355289708640833"><ele>502.99999999999994</ele><time>2026-04-19T08:33:16.501Z</time></trkpt><trkpt lat="45.040345329183566" lon="7.355298648184721"><ele>502.99999999999994</ele><time>2026-04-19T08:34:04.999Z</time></trkpt><trkpt lat="45.04024700731534" lon="7.3553817160496076"><ele>503.0</ele><time>2026-04-19T08:34:10.999Z</time></trkpt><trkpt lat="45.0403198714189" lon="7.355319994979531"><ele>503.0</ele><time>2026-04-19T08:34:13.999Z</time></trkpt><trkpt lat="45.040378147674765" lon="7.355279478358166"><ele>502.99999999999994</ele><time>2026-04-19T08:34:17.999Z</time></trkpt><trkpt lat="45.04039675504905" lon="7.355189555871361"><ele>503.0</ele><time>2026-04-19T08:39:14Z</time></trkpt><trkpt lat="45.04041238028242" lon="7.3550769669118035"><ele>503.0</ele><time>2026-04-19T08:39:16Z</time></trkpt><trkpt lat="45.04047811970317" lon="7.354978763824025"><ele>503.0</ele><time>2026-04-19T08:39:22Z</time></trkpt><trkpt lat="45.040453881101556" lon="7.354811651363041"><ele>502.99999999999994</ele><time>2026-04-19T08:39:24Z</time></trkpt><trkpt lat="45.040396437167395" lon="7.354750313657295"><ele>503.0</ele><time>2026-04-19T08:39:25Z</time></trkpt><trkpt lat="45.04032662054299" lon="7.354726927415831"><ele>502.99999999999994</ele><time>2026-04-19T08:39:26Z</time></trkpt><trkpt lat="45.04024904093895" lon="7.3547090741876335"><ele>503.0</ele><time>2026-04-19T08:39:27Z</time></trkpt><trkpt lat="45.040178789514016" lon="7.354683094627705"><ele>503.0</ele><time>2026-04-19T08:39:28Z</time></trkpt><trkpt lat="45.04009574080535" lon="7.354639352800881"><ele>503.0</ele><time>2026-04-19T08:39:29Z</time></trkpt><trkpt lat="45.04001108060572" lon="7.354594630975034"><ele>502.99999999999994</ele><time>2026-04-19T08:39:30Z</time></trkpt><trkpt lat="45.0399153839875" lon="7.354555185742328"><ele>503.0</ele><time>2026-04-19T08:39:31Z</time></trkpt><trkpt lat="45.03982673599618" lon="7.354519956245635"><ele>503.4</ele><time>2026-04-19T08:39:32Z</time></trkpt><trkpt lat="45.039732549539494" lon="7.354477597085031"><ele>503.79999999999995</ele><time>2026-04-19T08:39:33Z</time></trkpt><trkpt lat="45.03963469885755" lon="7.354433290169008"><ele>504.2</ele><time>2026-04-19T08:39:34Z</time></trkpt><trkpt lat="45.03953057611669" lon="7.354389265136088"><ele>504.6</ele><time>2026-04-19T08:39:35Z</time></trkpt><trkpt lat="45.03942424363062" lon="7.35435183378878"><ele>505.0</ele><time>2026-04-19T08:39:36Z</time></trkpt><trkpt lat="45.03932151426474" lon="7.354318472199943"><ele>505.0</ele><time>2026-04-19T08:39:37Z</time></trkpt><trkpt lat="45.03922307435688" lon="7.354287782180776"><ele>505.0</ele><time>2026-04-19T08:39:38Z</time></trkpt><trkpt lat="45.03911881550119" lon="7.354263218559541"><ele>505.0</ele><time>2026-04-19T08:39:39Z</time></trkpt><trkpt lat="45.03901129864038" lon="7.354226578081091"><ele>505.0</ele><time>2026-04-19T08:39:40Z</time></trkpt><trkpt lat="45.03891089362454" lon="7.35420683531823"><ele>505.0</ele><time>2026-04-19T08:39:41Z</time></trkpt><trkpt lat="45.03881333153816" lon="7.354180544379894"><ele>504.6666666666667</ele><time>2026-04-19T08:39:42Z</time></trkpt><trkpt lat="45.038730781193756" lon="7.354162573480002"><ele>504.33333333333337</ele><time>2026-04-19T08:39:43Z</time></trkpt><trkpt lat="45.03865460605479" lon="7.354158065663074"><ele>504.0</ele><time>2026-04-19T08:39:44Z</time></trkpt><trkpt lat="45.03856511488508" lon="7.354144964478432"><ele>503.66666666666663</ele><time>2026-04-19T08:39:45Z</time></trkpt><trkpt lat="45.03848394557512" lon="7.354106466905684"><ele>503.3333333333333</ele><time>2026-04-19T08:39:46Z</time></trkpt><trkpt lat="45.03838444358129" lon="7.35409455941423"><ele>503.0</ele><time>2026-04-19T08:39:46.999Z</time></trkpt><trkpt lat="45.038284715037314" lon="7.35405893315072"><ele>502.79999999999995</ele><time>2026-04-19T08:39:47.999Z</time></trkpt><trkpt lat="45.03818934011568" lon="7.354028913083445"><ele>502.59999999999997</ele><time>2026-04-19T08:39:48.999Z</time></trkpt><trkpt lat="45.03810222710861" lon="7.353996006210675"><ele>502.40000000000003</ele><time>2026-04-19T08:39:49.999Z</time></trkpt><trkpt lat="45.038038680250374" lon="7.353978161821343"><ele>502.20000000000005</ele><time>2026-04-19T08:39:50.999Z</time></trkpt><trkpt lat="45.03796715357" lon="7.353947846708591"><ele>502.0</ele><time>2026-04-19T08:39:52.999Z</time></trkpt><trkpt lat="45.03799115983635" lon="7.3537201999724555"><ele>502.40000000000003</ele><time>2026-04-19T08:39:56.999Z</time></trkpt><trkpt lat="45.03798521733437" lon="7.353591909336087"><ele>502.80000000000007</ele><time>2026-04-19T08:39:57.999Z</time></trkpt><trkpt lat="45.03798801485805" lon="7.353451766996378"><ele>503.2</ele><time>2026-04-19T08:39:58.999Z</time></trkpt><trkpt lat="45.03799823085225" lon="7.353310919023397"><ele>503.6</ele><time>2026-04-19T08:39:59.999Z</time></trkpt><trkpt lat="45.038003692300705" lon="7.353173376892686"><ele>504.0</ele><time>2026-04-19T08:40:00.999Z</time></trkpt><trkpt lat="45.03801613951464" lon="7.3530413926516465"><ele>505.0</ele><time>2026-04-19T08:40:01.999Z</time></trkpt><trkpt lat="45.038010511878" lon="7.3529437874643415"><ele>506.0</ele><time>2026-04-19T08:40:02.999Z</time></trkpt><trkpt lat="45.038007378589654" lon="7.3528172428538285"><ele>507.0</ele><time>2026-04-19T08:40:04.999Z</time></trkpt><trkpt lat="45.03801293758788" lon="7.352726119009355"><ele>508.0</ele><time>2026-04-19T08:40:08.999Z</time></trkpt><trkpt lat="45.037872892959626" lon="7.35274914248072"><ele>509.0</ele><time>2026-04-19T08:40:09.999Z</time></trkpt><trkpt lat="45.03779051376919" lon="7.3527928461783185"><ele>509.0</ele><time>2026-04-19T08:40:10.999Z</time></trkpt><trkpt lat="45.03770072627924" lon="7.3527994148798825"><ele>509.0</ele><time>2026-04-19T08:40:11.999Z</time></trkpt><trkpt lat="45.03760371133278" lon="7.352800864735551"><ele>509.0</ele><time>2026-04-19T08:40:12.999Z</time></trkpt><trkpt lat="45.03750496154001" lon="7.352791215103082"><ele>509.0</ele><time>2026-04-19T08:40:13.999Z</time></trkpt><trkpt lat="45.03739315286683" lon="7.3527906759743935"><ele>509.0</ele><time>2026-04-19T08:40:14.999Z</time></trkpt><trkpt lat="45.03727833900557" lon="7.352771848262027"><ele>508.25</ele><time>2026-04-19T08:40:15.999Z</time></trkpt><trkpt lat="45.03715702858015" lon="7.352751595375928"><ele>507.5</ele><time>2026-04-19T08:40:16.999Z</time></trkpt><trkpt lat="45.037037283679204" lon="7.352736932676012"><ele>506.75</ele><time>2026-04-19T08:40:17.999Z</time></trkpt><trkpt lat="45.036922952087096" lon="7.352731821399152"><ele>506.0</ele><time>2026-04-19T08:40:18.999Z</time></trkpt><trkpt lat="45.03681376310016" lon="7.352726771659735"><ele>505.99999999999994</ele><time>2026-04-19T08:40:19.999Z</time></trkpt><trkpt lat="45.03671364331828" lon="7.352716518220588"><ele>506.0</ele><time>2026-04-19T08:40:20.999Z</time></trkpt><trkpt lat="45.03662491456672" lon="7.352710774425645"><ele>506.0</ele><time>2026-04-19T08:40:21.999Z</time></trkpt><trkpt lat="45.03654586863049" lon="7.352707562589064"><ele>506.0</ele><time>2026-04-19T08:40:22.999Z</time></trkpt><trkpt lat="45.03647632258022" lon="7.35270720895202"><ele>505.99999999999994</ele><time>2026-04-19T08:40:23.999Z</time></trkpt><trkpt lat="45.03641317799756" lon="7.352714198983309"><ele>506.0</ele><time>2026-04-19T08:40:24.999Z</time></trkpt><trkpt lat="45.03634133279888" lon="7.352713545153513"><ele>505.16666666666663</ele><time>2026-04-19T08:40:25.999Z</time></trkpt><trkpt lat="45.036275361182994" lon="7.352711591727364"><ele>504.3333333333333</ele><time>2026-04-19T08:40:26.999Z</time></trkpt><trkpt lat="45.03621015656844" lon="7.352700647441611"><ele>503.5</ele><time>2026-04-19T08:40:27.999Z</time></trkpt><trkpt lat="45.036135195419554" lon="7.352663989264434"><ele>502.66666666666663</ele><time>2026-04-19T08:40:28.999Z</time></trkpt><trkpt lat="45.03604376785334" lon="7.352647178299289"><ele>501.8333333333333</ele><time>2026-04-19T08:40:29.999Z</time></trkpt><trkpt lat="45.03595755195854" lon="7.3526542058289355"><ele>501.0</ele><time>2026-04-19T08:40:30.999Z</time></trkpt><trkpt lat="45.035892184922375" lon="7.35262433713718"><ele>499.8</ele><time>2026-04-19T08:40:31.999Z</time></trkpt><trkpt lat="45.03579387703029" lon="7.352535378476536"><ele>498.6</ele><time>2026-04-19T08:40:33.999Z</time></trkpt><trkpt lat="45.03578783404573" lon="7.3524020306694675"><ele>497.4</ele><time>2026-04-19T08:40:34.999Z</time></trkpt><trkpt lat="45.03577493478621" lon="7.3522778746597"><ele>496.2</ele><time>2026-04-19T08:40:35.999Z</time></trkpt><trkpt lat="45.03575945531166" lon="7.352138110833049"><ele>495.0</ele><time>2026-04-19T08:40:36.999Z</time></trkpt><trkpt lat="45.03574622006384" lon="7.351985651236481"><ele>495.0</ele><time>2026-04-19T08:40:37.999Z</time></trkpt><trkpt lat="45.03573353549046" lon="7.3518221833585775"><ele>495.0</ele><time>2026-04-19T08:40:38.999Z</time></trkpt><trkpt lat="45.035726613388015" lon="7.351672014225627"><ele>495.0</ele><time>2026-04-19T08:40:39.999Z</time></trkpt><trkpt lat="45.03571415021336" lon="7.351538136319335"><ele>495.0</ele><time>2026-04-19T08:40:40.998Z</time></trkpt><trkpt lat="45.03570766186693" lon="7.351419955510695"><ele>495.0</ele><time>2026-04-19T08:40:41.998Z</time></trkpt><trkpt lat="45.03570446327935" lon="7.351316773063615"><ele>495.1666666666667</ele><time>2026-04-19T08:40:42.998Z</time></trkpt><trkpt lat="45.03570499741933" lon="7.351226264713522"><ele>495.33333333333337</ele><time>2026-04-19T08:40:43.998Z</time></trkpt><trkpt lat="45.03571264541394" lon="7.351067667529689"><ele>495.5</ele><time>2026-04-19T08:40:45.998Z</time></trkpt><trkpt lat="45.03571681663165" lon="7.3509433431984545"><ele>495.6666666666667</ele><time>2026-04-19T08:40:47.998Z</time></trkpt><trkpt lat="45.03572244979917" lon="7.350829019982387"><ele>495.83333333333337</ele><time>2026-04-19T08:40:49.998Z</time></trkpt><trkpt lat="45.035729085490985" lon="7.350702771645196"><ele>496.0</ele><time>2026-04-19T08:40:51.998Z</time></trkpt><trkpt lat="45.03572587635988" lon="7.350542939531774"><ele>496.20000000000005</ele><time>2026-04-19T08:40:53.998Z</time></trkpt><trkpt lat="45.035752659785224" lon="7.350423003279935"><ele>496.40000000000003</ele><time>2026-04-19T08:40:54.998Z</time></trkpt><trkpt lat="45.03574688615485" lon="7.350291118733369"><ele>496.6</ele><time>2026-04-19T08:40:55.998Z</time></trkpt><trkpt lat="45.03574090794497" lon="7.350148574861106"><ele>496.8</ele><time>2026-04-19T08:40:56.998Z</time></trkpt><trkpt lat="45.03573487309" lon="7.349995585860176"><ele>497.0</ele><time>2026-04-19T08:40:57.998Z</time></trkpt><trkpt lat="45.03574069922887" lon="7.349835849825343"><ele>497.5</ele><time>2026-04-19T08:40:58.998Z</time></trkpt><trkpt lat="45.03575343985177" lon="7.349671175048139"><ele>498.0</ele><time>2026-04-19T08:40:59.998Z</time></trkpt><trkpt lat="45.035769340566276" lon="7.3495020317383455"><ele>498.5</ele><time>2026-04-19T08:41:00.998Z</time></trkpt><trkpt lat="45.03578646198263" lon="7.3493257197614525"><ele>499.0</ele><time>2026-04-19T08:41:01.998Z</time></trkpt><trkpt lat="45.03579883632265" lon="7.349141556424737"><ele>500.5</ele><time>2026-04-19T08:41:02.998Z</time></trkpt><trkpt lat="45.03580521161558" lon="7.348956234231753"><ele>502.0</ele><time>2026-04-19T08:41:03.998Z</time></trkpt><trkpt lat="45.03580816864974" lon="7.3487675471998415"><ele>503.5</ele><time>2026-04-19T08:41:05Z</time></trkpt><trkpt lat="45.03581415860513" lon="7.348577375894275"><ele>505.0</ele><time>2026-04-19T08:41:06Z</time></trkpt><trkpt lat="45.03581926782218" lon="7.348383315857674"><ele>505.0</ele><time>2026-04-19T08:41:07Z</time></trkpt><trkpt lat="45.03582230464447" lon="7.348189532780374"><ele>505.0</ele><time>2026-04-19T08:41:08Z</time></trkpt><trkpt lat="45.03582642425889" lon="7.347991303422155"><ele>505.0</ele><time>2026-04-19T08:41:09Z</time></trkpt><trkpt lat="45.03583178616587" lon="7.347797524834791"><ele>505.0</ele><time>2026-04-19T08:41:10Z</time></trkpt><trkpt lat="45.03583455316214" lon="7.347599517679732"><ele>505.0</ele><time>2026-04-19T08:41:11Z</time></trkpt><trkpt lat="45.035837584660044" lon="7.347405231875"><ele>505.0</ele><time>2026-04-19T08:41:12Z</time></trkpt><trkpt lat="45.0358414938384" lon="7.347216645870695"><ele>505.0</ele><time>2026-04-19T08:41:13Z</time></trkpt><trkpt lat="45.03584717922443" lon="7.347030427716714"><ele>505.0</ele><time>2026-04-19T08:41:14Z</time></trkpt><trkpt lat="45.03584746813296" lon="7.3468609922724815"><ele>505.25</ele><time>2026-04-19T08:41:15Z</time></trkpt><trkpt lat="45.035834712360334" lon="7.346708730108058"><ele>505.5</ele><time>2026-04-19T08:41:16Z</time></trkpt><trkpt lat="45.03579904158435" lon="7.346564322586719"><ele>505.75</ele><time>2026-04-19T08:41:17Z</time></trkpt><trkpt lat="45.03573752420207" lon="7.3464231448717285"><ele>506.0</ele><time>2026-04-19T08:41:18Z</time></trkpt><trkpt lat="45.03567004506741" lon="7.346286674659468"><ele>505.5</ele><time>2026-04-19T08:41:19Z</time></trkpt><trkpt lat="45.03560791746376" lon="7.346143234882854"><ele>505.0</ele><time>2026-04-19T08:41:20Z</time></trkpt><trkpt lat="45.0355444099733" lon="7.345990939794203"><ele>504.5</ele><time>2026-04-19T08:41:21Z</time></trkpt><trkpt lat="45.035477617575154" lon="7.34583585100209"><ele>504.0</ele><time>2026-04-19T08:41:22Z</time></trkpt><trkpt lat="45.03540922154761" lon="7.345680503453426"><ele>504.5</ele><time>2026-04-19T08:41:23Z</time></trkpt><trkpt lat="45.03534223457286" lon="7.345524699395087"><ele>505.0</ele><time>2026-04-19T08:41:24Z</time></trkpt><trkpt lat="45.03527590330945" lon="7.34537059904766"><ele>505.5</ele><time>2026-04-19T08:41:25Z</time></trkpt><trkpt lat="45.03521100577906" lon="7.345223804321889"><ele>506.0</ele><time>2026-04-19T08:41:26Z</time></trkpt><trkpt lat="45.035146680666124" lon="7.345086106360011"><ele>506.0</ele><time>2026-04-19T08:41:27Z</time></trkpt><trkpt lat="45.03509345187373" lon="7.344960978900917"><ele>506.0</ele><time>2026-04-19T08:41:28Z</time></trkpt><trkpt lat="45.035043139173865" lon="7.344856016191419"><ele>506.0</ele><time>2026-04-19T08:41:28.999Z</time></trkpt><trkpt lat="45.035003795213804" lon="7.344759191007408"><ele>506.0</ele><time>2026-04-19T08:41:29.999Z</time></trkpt><trkpt lat="45.03496860163944" lon="7.344617294633193"><ele>506.0</ele><time>2026-04-19T08:41:31.999Z</time></trkpt><trkpt lat="45.03502016443162" lon="7.344484172904405"><ele>506.3333333333333</ele><time>2026-04-19T08:41:33.999Z</time></trkpt><trkpt lat="45.035028314781975" lon="7.344389019058196"><ele>506.66666666666663</ele><time>2026-04-19T08:41:34.999Z</time></trkpt><trkpt lat="45.035044164501656" lon="7.34428966801081"><ele>507.0</ele><time>2026-04-19T08:41:35.999Z</time></trkpt><trkpt lat="45.03505655497613" lon="7.344181344772267"><ele>507.33333333333337</ele><time>2026-04-19T08:41:36.999Z</time></trkpt><trkpt lat="45.03507496985564" lon="7.344064358219679"><ele>507.6666666666667</ele><time>2026-04-19T08:41:37.999Z</time></trkpt><trkpt lat="45.03509358966091" lon="7.343938585349627"><ele>508.0</ele><time>2026-04-19T08:41:38.999Z</time></trkpt><trkpt lat="45.03511694167795" lon="7.343801419839522"><ele>508.59999999999997</ele><time>2026-04-19T08:41:39.999Z</time></trkpt><trkpt lat="45.03513837868383" lon="7.3436711763431495"><ele>509.19999999999993</ele><time>2026-04-19T08:41:40.999Z</time></trkpt><trkpt lat="45.03516026354327" lon="7.343548307427898"><ele>509.8</ele><time>2026-04-19T08:41:41.999Z</time></trkpt><trkpt lat="45.035179837636655" lon="7.343445031094705"><ele>510.4</ele><time>2026-04-19T08:41:42.999Z</time></trkpt><trkpt lat="45.03521133233162" lon="7.343332278549487"><ele>511.0</ele><time>2026-04-19T08:41:44.999Z</time></trkpt><trkpt lat="45.035113379518265" lon="7.343162555740121"><ele>511.00000000000006</ele><time>2026-04-19T08:41:50.999Z</time></trkpt><trkpt lat="45.03504440743279" lon="7.343103282461237"><ele>511.0</ele><time>2026-04-19T08:41:51.999Z</time></trkpt><trkpt lat="45.03496891188868" lon="7.343039456228838"><ele>511.0</ele><time>2026-04-19T08:41:52.999Z</time></trkpt><trkpt lat="45.03489320419482" lon="7.342990508457379"><ele>511.0</ele><time>2026-04-19T08:41:53.999Z</time></trkpt><trkpt lat="45.03481926754995" lon="7.342948931927137"><ele>511.00000000000006</ele><time>2026-04-19T08:41:54.999Z</time></trkpt><trkpt lat="45.034743775689556" lon="7.342916935823255"><ele>511.0</ele><time>2026-04-19T08:41:55.999Z</time></trkpt><trkpt lat="45.03466377591984" lon="7.342883651270026"><ele>511.00000000000006</ele><time>2026-04-19T08:41:56.999Z</time></trkpt><trkpt lat="45.034598814503184" lon="7.342829891273439"><ele>511.0</ele><time>2026-04-19T08:41:57.999Z</time></trkpt><trkpt lat="45.0345218981465" lon="7.342804040586824"><ele>511.0</ele><time>2026-04-19T08:41:58.999Z</time></trkpt><trkpt lat="45.034444367183134" lon="7.342746164530245"><ele>511.0</ele><time>2026-04-19T08:41:59.999Z</time></trkpt><trkpt lat="45.03437151147866" lon="7.342671135829051"><ele>511.00000000000006</ele><time>2026-04-19T08:42:00.999Z</time></trkpt><trkpt lat="45.034338280909104" lon="7.3425537296927414"><ele>511.0</ele><time>2026-04-19T08:42:01.999Z</time></trkpt><trkpt lat="45.034296027698936" lon="7.3424284332864"><ele>511.0</ele><time>2026-04-19T08:42:02.999Z</time></trkpt><trkpt lat="45.03424773142026" lon="7.342284173526907"><ele>511.0</ele><time>2026-04-19T08:42:03.999Z</time></trkpt><trkpt lat="45.03420136531673" lon="7.3421309401009385"><ele>511.0</ele><time>2026-04-19T08:42:04.999Z</time></trkpt><trkpt lat="45.034152805988526" lon="7.34197341800132"><ele>511.0</ele><time>2026-04-19T08:42:05.999Z</time></trkpt><trkpt lat="45.034099010668186" lon="7.341822407467561"><ele>510.5</ele><time>2026-04-19T08:42:06.999Z</time></trkpt><trkpt lat="45.03403231214992" lon="7.341680087274006"><ele>510.0</ele><time>2026-04-19T08:42:07.999Z</time></trkpt><trkpt lat="45.0339466891091" lon="7.341554829680032"><ele>509.5</ele><time>2026-04-19T08:42:08.999Z</time></trkpt><trkpt lat="45.0338745182288" lon="7.341414754233317"><ele>509.0</ele><time>2026-04-19T08:42:09.999Z</time></trkpt><trkpt lat="45.03380064954526" lon="7.34127643301404"><ele>509.0</ele><time>2026-04-19T08:42:10.999Z</time></trkpt><trkpt lat="45.03372539636694" lon="7.341142639307475"><ele>509.0</ele><time>2026-04-19T08:42:11.999Z</time></trkpt><trkpt lat="45.03366341937708" lon="7.340997975308442"><ele>509.0</ele><time>2026-04-19T08:42:12.999Z</time></trkpt><trkpt lat="45.03359503667928" lon="7.340844788962276"><ele>509.0</ele><time>2026-04-19T08:42:13.999Z</time></trkpt><trkpt lat="45.03353355448701" lon="7.340689942091358"><ele>508.25</ele><time>2026-04-19T08:42:14.999Z</time></trkpt><trkpt lat="45.03348372078864" lon="7.3405224875672275"><ele>507.5</ele><time>2026-04-19T08:42:15.999Z</time></trkpt><trkpt lat="45.033449849965315" lon="7.340344915894427"><ele>506.75</ele><time>2026-04-19T08:42:16.999Z</time></trkpt><trkpt lat="45.033419758343776" lon="7.340162331604242"><ele>506.0</ele><time>2026-04-19T08:42:17.999Z</time></trkpt><trkpt lat="45.03338419739508" lon="7.3399708310481095"><ele>506.0</ele><time>2026-04-19T08:42:18.999Z</time></trkpt><trkpt lat="45.03334676362995" lon="7.339773947151775"><ele>506.0</ele><time>2026-04-19T08:42:19.999Z</time></trkpt><trkpt lat="45.0332929368945" lon="7.339574552474716"><ele>506.0</ele><time>2026-04-19T08:42:20.999Z</time></trkpt><trkpt lat="45.033264664510135" lon="7.339361153268549"><ele>506.0</ele><time>2026-04-19T08:42:21.999Z</time></trkpt><trkpt lat="45.03321896163988" lon="7.339148271924559"><ele>506.0</ele><time>2026-04-19T08:42:22.999Z</time></trkpt><trkpt lat="45.033184249482545" lon="7.33893232400794"><ele>506.0</ele><time>2026-04-19T08:42:23.999Z</time></trkpt><trkpt lat="45.03315019590667" lon="7.338722980140998"><ele>506.0</ele><time>2026-04-19T08:42:24.999Z</time></trkpt><trkpt lat="45.03313810264448" lon="7.338521891161099"><ele>506.0</ele><time>2026-04-19T08:42:25.999Z</time></trkpt><trkpt lat="45.03310358349109" lon="7.338340238818231"><ele>506.0</ele><time>2026-04-19T08:42:26.999Z</time></trkpt><trkpt lat="45.03306175945739" lon="7.338174425184664"><ele>506.0</ele><time>2026-04-19T08:42:27.999Z</time></trkpt><trkpt lat="45.03298680509589" lon="7.338027472291419"><ele>506.0</ele><time>2026-04-19T08:42:28.999Z</time></trkpt><trkpt lat="45.03290860895417" lon="7.337884748461077"><ele>506.0</ele><time>2026-04-19T08:42:29.999Z</time></trkpt><trkpt lat="45.03281085298796" lon="7.337737243052086"><ele>506.0</ele><time>2026-04-19T08:42:30.998Z</time></trkpt><trkpt lat="45.03270248228982" lon="7.337600536301405"><ele>506.0</ele><time>2026-04-19T08:42:31.998Z</time></trkpt><trkpt lat="45.032579484221536" lon="7.337474963386474"><ele>506.0</ele><time>2026-04-19T08:42:32.998Z</time></trkpt><trkpt lat="45.03243830043373" lon="7.337376091535565"><ele>506.0</ele><time>2026-04-19T08:42:33.998Z</time></trkpt><trkpt lat="45.03228840898411" lon="7.337299743501621"><ele>506.0</ele><time>2026-04-19T08:42:34.998Z</time></trkpt><trkpt lat="45.03213011310801" lon="7.337236850945129"><ele>506.0</ele><time>2026-04-19T08:42:35.998Z</time></trkpt><trkpt lat="45.031975157752406" lon="7.337192794793465"><ele>507.0</ele><time>2026-04-19T08:42:36.998Z</time></trkpt><trkpt lat="45.031820159756464" lon="7.33717786407785"><ele>508.0</ele><time>2026-04-19T08:42:37.998Z</time></trkpt><trkpt lat="45.03166822607576" lon="7.337183272292863"><ele>509.0</ele><time>2026-04-19T08:42:38.998Z</time></trkpt><trkpt lat="45.03151505032319" lon="7.337220470826921"><ele>509.0</ele><time>2026-04-19T08:42:39.998Z</time></trkpt><trkpt lat="45.03136598255398" lon="7.337268355818622"><ele>509.0</ele><time>2026-04-19T08:42:40.998Z</time></trkpt><trkpt lat="45.03120776144614" lon="7.337300884792985"><ele>509.0</ele><time>2026-04-19T08:42:41.998Z</time></trkpt><trkpt lat="45.031056564313474" lon="7.3373166392729985"><ele>509.0</ele><time>2026-04-19T08:42:42.998Z</time></trkpt><trkpt lat="45.03091377466217" lon="7.337335274931039"><ele>509.0</ele><time>2026-04-19T08:42:43.998Z</time></trkpt><trkpt lat="45.030787959850365" lon="7.337371963732353"><ele>509.0</ele><time>2026-04-19T08:42:44.998Z</time></trkpt><trkpt lat="45.030676732835786" lon="7.337427415857484"><ele>509.0</ele><time>2026-04-19T08:42:45.998Z</time></trkpt><trkpt lat="45.030565706782944" lon="7.337502886913464"><ele>509.5</ele><time>2026-04-19T08:42:46.998Z</time></trkpt><trkpt lat="45.0304518298937" lon="7.337610577039141"><ele>510.0</ele><time>2026-04-19T08:42:47.998Z</time></trkpt><trkpt lat="45.03033944739745" lon="7.337740191306917"><ele>510.5</ele><time>2026-04-19T08:42:48.998Z</time></trkpt><trkpt lat="45.03022609060569" lon="7.337873352176794"><ele>511.0</ele><time>2026-04-19T08:42:49.998Z</time></trkpt><trkpt lat="45.03011132744901" lon="7.337999301256047"><ele>508.0</ele><time>2026-04-19T08:42:50.998Z</time></trkpt><trkpt lat="45.02998730737766" lon="7.338115123120092"><ele>505.0</ele><time>2026-04-19T08:42:51.998Z</time></trkpt><trkpt lat="45.02985492623171" lon="7.338223192572939"><ele>502.0</ele><time>2026-04-19T08:42:52.998Z</time></trkpt><trkpt lat="45.02972858236338" lon="7.338336890347969"><ele>502.0</ele><time>2026-04-19T08:42:53.998Z</time></trkpt><trkpt lat="45.02960772119044" lon="7.338447900924533"><ele>502.0</ele><time>2026-04-19T08:42:54.998Z</time></trkpt><trkpt lat="45.02948947127844" lon="7.338549257984135"><ele>502.0</ele><time>2026-04-19T08:42:55.998Z</time></trkpt><trkpt lat="45.0293762679977" lon="7.338626137591176"><ele>502.0</ele><time>2026-04-19T08:42:56.998Z</time></trkpt><trkpt lat="45.029257968801964" lon="7.338665501302629"><ele>502.5</ele><time>2026-04-19T08:42:57.998Z</time></trkpt><trkpt lat="45.02912967779611" lon="7.338677233867581"><ele>503.0</ele><time>2026-04-19T08:42:58.998Z</time></trkpt><trkpt lat="45.02898448775165" lon="7.338677294390823"><ele>503.5</ele><time>2026-04-19T08:42:59.998Z</time></trkpt><trkpt lat="45.02883467658831" lon="7.338694277368621"><ele>504.0</ele><time>2026-04-19T08:43:00.998Z</time></trkpt><trkpt lat="45.028679659998794" lon="7.338714209412902"><ele>504.0</ele><time>2026-04-19T08:43:01.998Z</time></trkpt><trkpt lat="45.02853184178923" lon="7.338729077588227"><ele>504.0</ele><time>2026-04-19T08:43:02.998Z</time></trkpt><trkpt lat="45.02839190925082" lon="7.338751317461888"><ele>504.0</ele><time>2026-04-19T08:43:03.998Z</time></trkpt><trkpt lat="45.028282107047595" lon="7.338825659299755"><ele>504.0</ele><time>2026-04-19T08:43:04.998Z</time></trkpt><trkpt lat="45.028203072059654" lon="7.338930456655676"><ele>509.75</ele><time>2026-04-19T08:43:05.998Z</time></trkpt><trkpt lat="45.028129970745525" lon="7.3390414710122975"><ele>515.5</ele><time>2026-04-19T08:43:06.998Z</time></trkpt><trkpt lat="45.02807191988077" lon="7.339183104734159"><ele>521.25</ele><time>2026-04-19T08:43:07.998Z</time></trkpt><trkpt lat="45.02806390850382" lon="7.339368913326525"><ele>527.0</ele><time>2026-04-19T08:43:08.998Z</time></trkpt><trkpt lat="45.028057699623815" lon="7.339559696055995"><ele>528.75</ele><time>2026-04-19T08:43:09.998Z</time></trkpt><trkpt lat="45.0280080298926" lon="7.339736389509804"><ele>530.5</ele><time>2026-04-19T08:43:10.999Z</time></trkpt><trkpt lat="45.02797301339597" lon="7.339925526691568"><ele>532.25</ele><time>2026-04-19T08:43:11.999Z</time></trkpt><trkpt lat="45.027936473036725" lon="7.340117771008683"><ele>534.0</ele><time>2026-04-19T08:43:12.999Z</time></trkpt><trkpt lat="45.027912108904125" lon="7.340304134656313"><ele>534.0</ele><time>2026-04-19T08:43:13.999Z</time></trkpt><trkpt lat="45.02785949445308" lon="7.340484063095902"><ele>534.0</ele><time>2026-04-19T08:43:14.999Z</time></trkpt><trkpt lat="45.027810505915944" lon="7.340660778546759"><ele>534.0</ele><time>2026-04-19T08:43:15.999Z</time></trkpt><trkpt lat="45.02777880962493" lon="7.34082734504303"><ele>534.0</ele><time>2026-04-19T08:43:16.999Z</time></trkpt><trkpt lat="45.02777464164943" lon="7.340994335208801"><ele>535.0</ele><time>2026-04-19T08:43:17.999Z</time></trkpt><trkpt lat="45.02781760168693" lon="7.341168143732755"><ele>536.0</ele><time>2026-04-19T08:43:18.999Z</time></trkpt><trkpt lat="45.02786835015764" lon="7.34134607599277"><ele>537.0</ele><time>2026-04-19T08:43:19.999Z</time></trkpt><trkpt lat="45.027909809399716" lon="7.3415162841194"><ele>538.0</ele><time>2026-04-19T08:43:20.999Z</time></trkpt><trkpt lat="45.02793661615095" lon="7.341691231506385"><ele>538.75</ele><time>2026-04-19T08:43:21.999Z</time></trkpt><trkpt lat="45.02795866753869" lon="7.3418637063531875"><ele>539.5</ele><time>2026-04-19T08:43:22.999Z</time></trkpt><trkpt lat="45.02793790747033" lon="7.342031471464225"><ele>540.25</ele><time>2026-04-19T08:43:23.999Z</time></trkpt><trkpt lat="45.02789944879471" lon="7.342170014934828"><ele>541.0</ele><time>2026-04-19T08:43:24.999Z</time></trkpt><trkpt lat="45.02780509239072" lon="7.342261521688434"><ele>539.25</ele><time>2026-04-19T08:43:25.999Z</time></trkpt><trkpt lat="45.027710401364864" lon="7.3423289557943585"><ele>537.5</ele><time>2026-04-19T08:43:26.999Z</time></trkpt><trkpt lat="45.02759777978268" lon="7.3423526934825905"><ele>535.75</ele><time>2026-04-19T08:43:27.999Z</time></trkpt><trkpt lat="45.02748429103923" lon="7.342309338580181"><ele>534.0</ele><time>2026-04-19T08:43:28.999Z</time></trkpt><trkpt lat="45.02736882765828" lon="7.342296036355637"><ele>534.0</ele><time>2026-04-19T08:43:29.999Z</time></trkpt><trkpt lat="45.02725705847362" lon="7.342221835336697"><ele>534.0</ele><time>2026-04-19T08:43:30.999Z</time></trkpt><trkpt lat="45.02713473608389" lon="7.342227088820591"><ele>534.0</ele><time>2026-04-19T08:43:31.999Z</time></trkpt><trkpt lat="45.02701299756116" lon="7.342263217709519"><ele>534.0</ele><time>2026-04-19T08:43:32.999Z</time></trkpt><trkpt lat="45.026891984947234" lon="7.342278873329992"><ele>534.0</ele><time>2026-04-19T08:43:33.999Z</time></trkpt><trkpt lat="45.02679143959143" lon="7.342262408383152"><ele>534.0</ele><time>2026-04-19T08:43:34.999Z</time></trkpt><trkpt lat="45.026706101680865" lon="7.3422031867323865"><ele>534.0</ele><time>2026-04-19T08:43:35.999Z</time></trkpt><trkpt lat="45.026640448211204" lon="7.342097035746103"><ele>534.0</ele><time>2026-04-19T08:43:36.999Z</time></trkpt><trkpt lat="45.02658992140559" lon="7.341972995656555"><ele>534.0</ele><time>2026-04-19T08:43:37.999Z</time></trkpt><trkpt lat="45.02657072119518" lon="7.341836418864238"><ele>536.5</ele><time>2026-04-19T08:43:38.999Z</time></trkpt><trkpt lat="45.02655053009684" lon="7.3416770779622285"><ele>539.0</ele><time>2026-04-19T08:43:39.999Z</time></trkpt><trkpt lat="45.02653030420052" lon="7.341487188782733"><ele>541.5</ele><time>2026-04-19T08:43:40.999Z</time></trkpt><trkpt lat="45.026509644037525" lon="7.3412919921861395"><ele>544.0</ele><time>2026-04-19T08:43:41.999Z</time></trkpt><trkpt lat="45.02648820133812" lon="7.341089402375973"><ele>547.0</ele><time>2026-04-19T08:43:42.999Z</time></trkpt><trkpt lat="45.026465257232864" lon="7.34088345416214"><ele>550.0</ele><time>2026-04-19T08:43:43.999Z</time></trkpt><trkpt lat="45.02644155058545" lon="7.340673581933777"><ele>553.0</ele><time>2026-04-19T08:43:44.999Z</time></trkpt><trkpt lat="45.02641272229624" lon="7.340458754826975"><ele>553.0</ele><time>2026-04-19T08:43:45.999Z</time></trkpt><trkpt lat="45.02636518093026" lon="7.340256625246207"><ele>553.0</ele><time>2026-04-19T08:43:46.999Z</time></trkpt><trkpt lat="45.026289048520745" lon="7.340067843400345"><ele>553.0</ele><time>2026-04-19T08:43:47.999Z</time></trkpt><trkpt lat="45.02622148728103" lon="7.339881573119311"><ele>552.6666666666667</ele><time>2026-04-19T08:43:48.999Z</time></trkpt><trkpt lat="45.02615334184353" lon="7.339687990378445"><ele>552.3333333333334</ele><time>2026-04-19T08:43:49.999Z</time></trkpt><trkpt lat="45.026061281929564" lon="7.339502679553096"><ele>552.0</ele><time>2026-04-19T08:43:50.999Z</time></trkpt><trkpt lat="45.02596595628595" lon="7.339308986097287"><ele>552.0</ele><time>2026-04-19T08:43:51.999Z</time></trkpt><trkpt lat="45.02586924889816" lon="7.339109530627001"><ele>552.0</ele><time>2026-04-19T08:43:52.999Z</time></trkpt><trkpt lat="45.02577056518002" lon="7.338907823505829"><ele>552.0</ele><time>2026-04-19T08:43:53.999Z</time></trkpt><trkpt lat="45.02567241692903" lon="7.338708258644197"><ele>552.3333333333334</ele><time>2026-04-19T08:43:54.999Z</time></trkpt><trkpt lat="45.025575049832604" lon="7.338510477081102"><ele>552.6666666666667</ele><time>2026-04-19T08:43:55.999Z</time></trkpt><trkpt lat="45.02546019738128" lon="7.3383216894612175"><ele>553.0</ele><time>2026-04-19T08:43:56.999Z</time></trkpt><trkpt lat="45.02536313708512" lon="7.33812206558383"><ele>553.6666666666667</ele><time>2026-04-19T08:43:57.999Z</time></trkpt><trkpt lat="45.02526832284607" lon="7.337924075918718"><ele>554.3333333333334</ele><time>2026-04-19T08:43:58.999Z</time></trkpt><trkpt lat="45.02517640334872" lon="7.337726308183449"><ele>555.0</ele><time>2026-04-19T08:43:59.999Z</time></trkpt><trkpt lat="45.02509387716026" lon="7.33754043996744"><ele>555.0</ele><time>2026-04-19T08:44:00.999Z</time></trkpt><trkpt lat="45.025016952652045" lon="7.337386217969012"><ele>555.0</ele><time>2026-04-19T08:44:01.999Z</time></trkpt><trkpt lat="45.02493998759942" lon="7.337254083239564"><ele>555.0</ele><time>2026-04-19T08:44:02.999Z</time></trkpt><trkpt lat="45.02485774226957" lon="7.337158004912177"><ele>555.0</ele><time>2026-04-19T08:44:03.999Z</time></trkpt><trkpt lat="45.02475899853775" lon="7.337089538473677"><ele>558.25</ele><time>2026-04-19T08:44:04.999Z</time></trkpt><trkpt lat="45.02465213241244" lon="7.337016568504144"><ele>561.5</ele><time>2026-04-19T08:44:05.999Z</time></trkpt><trkpt lat="45.024542024193444" lon="7.336940890394109"><ele>564.75</ele><time>2026-04-19T08:44:06.999Z</time></trkpt><trkpt lat="45.02443354262848" lon="7.336872037021624"><ele>568.0</ele><time>2026-04-19T08:44:07.999Z</time></trkpt><trkpt lat="45.02432187641376" lon="7.336807479508577"><ele>568.0</ele><time>2026-04-19T08:44:08.999Z</time></trkpt><trkpt lat="45.02421302952721" lon="7.336746920435509"><ele>568.0</ele><time>2026-04-19T08:44:09.999Z</time></trkpt><trkpt lat="45.02410409197869" lon="7.336685543515147"><ele>568.0</ele><time>2026-04-19T08:44:10.999Z</time></trkpt><trkpt lat="45.023990329163404" lon="7.336625236231649"><ele>568.0</ele><time>2026-04-19T08:44:11.999Z</time></trkpt><trkpt lat="45.023876987136184" lon="7.336561340214385"><ele>570.5</ele><time>2026-04-19T08:44:12.999Z</time></trkpt><trkpt lat="45.023764648258165" lon="7.336501068244493"><ele>573.0</ele><time>2026-04-19T08:44:13.999Z</time></trkpt><trkpt lat="45.02365444700247" lon="7.336441967129331"><ele>575.5</ele><time>2026-04-19T08:44:14.999Z</time></trkpt><trkpt lat="45.02354583868269" lon="7.336387651959072"><ele>578.0</ele><time>2026-04-19T08:44:15.999Z</time></trkpt><trkpt lat="45.023442635719064" lon="7.336332301058991"><ele>578.0</ele><time>2026-04-19T08:44:16.999Z</time></trkpt><trkpt lat="45.02335079546539" lon="7.336281610350829"><ele>578.0</ele><time>2026-04-19T08:44:17.999Z</time></trkpt><trkpt lat="45.02327599986179" lon="7.336248846838938"><ele>578.0</ele><time>2026-04-19T08:44:18.999Z</time></trkpt><trkpt lat="45.0231839771871" lon="7.336194248124856"><ele>578.0</ele><time>2026-04-19T08:44:20.999Z</time></trkpt><trkpt lat="45.023106237509936" lon="7.3361016116121025"><ele>578.0</ele><time>2026-04-19T08:44:48.998Z</time></trkpt><trkpt lat="45.02298751931933" lon="7.33624538719315"><ele>576.1999999999999</ele><time>2026-04-19T08:44:49.998Z</time></trkpt><trkpt lat="45.02292576860909" lon="7.3362685734932835"><ele>574.4</ele><time>2026-04-19T08:44:50.998Z</time></trkpt><trkpt lat="45.02286438597926" lon="7.336333816511002"><ele>572.5999999999999</ele><time>2026-04-19T08:44:53.998Z</time></trkpt><trkpt lat="45.022761291885786" lon="7.336351813593306"><ele>570.8</ele><time>2026-04-19T08:44:56.998Z</time></trkpt><trkpt lat="45.022627881914595" lon="7.336351349375436"><ele>569.0</ele><time>2026-04-19T08:44:58.998Z</time></trkpt><trkpt lat="45.02255025593896" lon="7.336383322046302"><ele>570.0</ele><time>2026-04-19T08:44:59.998Z</time></trkpt><trkpt lat="45.02248361339173" lon="7.3364165305053985"><ele>571.0</ele><time>2026-04-19T08:45:00.998Z</time></trkpt><trkpt lat="45.02242310876848" lon="7.336474725873215"><ele>572.0</ele><time>2026-04-19T08:45:01.998Z</time></trkpt><trkpt lat="45.022371648838906" lon="7.336560713488931"><ele>573.0</ele><time>2026-04-19T08:45:02.998Z</time></trkpt><trkpt lat="45.022326060386845" lon="7.33665009009506"><ele>574.0</ele><time>2026-04-19T08:45:03.998Z</time></trkpt><trkpt lat="45.02227329628437" lon="7.3367657397403"><ele>575.0</ele><time>2026-04-19T08:45:04.998Z</time></trkpt><trkpt lat="45.02225846154313" lon="7.336876894987583"><ele>571.1666666666666</ele><time>2026-04-19T08:45:05.998Z</time></trkpt><trkpt lat="45.02226226202921" lon="7.3369822698338645"><ele>567.3333333333333</ele><time>2026-04-19T08:45:06.998Z</time></trkpt><trkpt lat="45.02227244781621" lon="7.337091980987532"><ele>563.5</ele><time>2026-04-19T08:45:07.998Z</time></trkpt><trkpt lat="45.022268289714646" lon="7.337263354357487"><ele>559.6666666666666</ele><time>2026-04-19T08:45:09.998Z</time></trkpt><trkpt lat="45.02218398447709" lon="7.337307761375877"><ele>555.8333333333334</ele><time>2026-04-19T08:45:11.998Z</time></trkpt><trkpt lat="45.022115280492805" lon="7.3372613156727375"><ele>552.0</ele><time>2026-04-19T08:45:12.998Z</time></trkpt><trkpt lat="45.022036891913125" lon="7.337212448896026"><ele>552.0</ele><time>2026-04-19T08:45:13.998Z</time></trkpt><trkpt lat="45.02194448304503" lon="7.337151285010415"><ele>552.0</ele><time>2026-04-19T08:45:14.998Z</time></trkpt><trkpt lat="45.02186682186557" lon="7.337054347892977"><ele>552.0</ele><time>2026-04-19T08:45:15.998Z</time></trkpt><trkpt lat="45.0217889647957" lon="7.336984599157628"><ele>552.0</ele><time>2026-04-19T08:45:16.999Z</time></trkpt><trkpt lat="45.021736511910866" lon="7.336913131802482"><ele>552.0</ele><time>2026-04-19T08:45:17.999Z</time></trkpt><trkpt lat="45.02174723213748" lon="7.336741232134964"><ele>552.0</ele><time>2026-04-19T08:45:19.999Z</time></trkpt><trkpt lat="45.02175296360263" lon="7.33660924807369"><ele>552.0</ele><time>2026-04-19T08:45:20.999Z</time></trkpt><trkpt lat="45.02176103257738" lon="7.336465627758512"><ele>552.0</ele><time>2026-04-19T08:45:21.999Z</time></trkpt><trkpt lat="45.02177312079308" lon="7.3363321232441"><ele>552.0</ele><time>2026-04-19T08:45:22.999Z</time></trkpt><trkpt lat="45.02177944073301" lon="7.336214817636619"><ele>552.0</ele><time>2026-04-19T08:45:24Z</time></trkpt><trkpt lat="45.021756147468935" lon="7.336116705972709"><ele>552.0</ele><time>2026-04-19T08:45:25Z</time></trkpt><trkpt lat="45.021655465159334" lon="7.3360424445123735"><ele>550.0</ele><time>2026-04-19T08:45:27Z</time></trkpt><trkpt lat="45.02158695596613" lon="7.336110888176545"><ele>548.0</ele><time>2026-04-19T08:45:28Z</time></trkpt><trkpt lat="45.02156724656207" lon="7.3362406978219745"><ele>546.0</ele><time>2026-04-19T08:45:29Z</time></trkpt><trkpt lat="45.021557260789834" lon="7.336370046489903"><ele>544.0</ele><time>2026-04-19T08:45:30Z</time></trkpt><trkpt lat="45.02154032780525" lon="7.336508315150117"><ele>542.0</ele><time>2026-04-19T08:45:31Z</time></trkpt><trkpt lat="45.02151309548127" lon="7.336664167526123"><ele>541.25</ele><time>2026-04-19T08:45:32Z</time></trkpt><trkpt lat="45.02148435746908" lon="7.336840847730774"><ele>540.5</ele><time>2026-04-19T08:45:33Z</time></trkpt><trkpt lat="45.02146228307576" lon="7.337011411224174"><ele>539.75</ele><time>2026-04-19T08:45:34Z</time></trkpt><trkpt lat="45.0214409451384" lon="7.337172478424478"><ele>539.0</ele><time>2026-04-19T08:45:35Z</time></trkpt><trkpt lat="45.021413985406404" lon="7.337313026646466"><ele>538.6666666666666</ele><time>2026-04-19T08:45:36Z</time></trkpt><trkpt lat="45.02140903997853" lon="7.337426161221358"><ele>538.3333333333333</ele><time>2026-04-19T08:45:37Z</time></trkpt><trkpt lat="45.021379232897374" lon="7.3375255460126745"><ele>538.0</ele><time>2026-04-19T08:45:38Z</time></trkpt><trkpt lat="45.021321734662784" lon="7.337580764942852"><ele>537.6666666666666</ele><time>2026-04-19T08:45:39Z</time></trkpt><trkpt lat="45.021226498054595" lon="7.337531891355964"><ele>537.3333333333334</ele><time>2026-04-19T08:45:40Z</time></trkpt><trkpt lat="45.02114496348176" lon="7.337472644594559"><ele>537.0</ele><time>2026-04-19T08:45:41Z</time></trkpt><trkpt lat="45.0210493249487" lon="7.337428644096516"><ele>537.0</ele><time>2026-04-19T08:45:42Z</time></trkpt><trkpt lat="45.020950665829425" lon="7.337424145486502"><ele>537.0</ele><time>2026-04-19T08:45:43Z</time></trkpt><trkpt lat="45.020844510318554" lon="7.3374606839413365"><ele>537.0</ele><time>2026-04-19T08:45:44Z</time></trkpt><trkpt lat="45.02073701748011" lon="7.337522951672498"><ele>537.0</ele><time>2026-04-19T08:45:44.999Z</time></trkpt><trkpt lat="45.02063992249883" lon="7.337592035859335"><ele>537.0</ele><time>2026-04-19T08:45:45.999Z</time></trkpt><trkpt lat="45.02054006416001" lon="7.337631643784229"><ele>541.2</ele><time>2026-04-19T08:45:46.999Z</time></trkpt><trkpt lat="45.02044174315907" lon="7.337707120341234"><ele>545.4000000000001</ele><time>2026-04-19T08:45:47.999Z</time></trkpt><trkpt lat="45.02035202698917" lon="7.337764201678762"><ele>549.5999999999999</ele><time>2026-04-19T08:45:48.999Z</time></trkpt><trkpt lat="45.020267474423875" lon="7.337815724286995"><ele>553.8</ele><time>2026-04-19T08:45:50.999Z</time></trkpt><trkpt lat="45.020217690410846" lon="7.337875048375002"><ele>558.0</ele><time>2026-04-19T08:45:52.999Z</time></trkpt><trkpt lat="45.0201094749297" lon="7.337993792822746"><ele>556.4</ele><time>2026-04-19T08:45:54.999Z</time></trkpt><trkpt lat="45.02006525600302" lon="7.33812369178799"><ele>554.8</ele><time>2026-04-19T08:45:55.999Z</time></trkpt><trkpt lat="45.0200489603089" lon="7.338257648963347"><ele>553.2</ele><time>2026-04-19T08:45:56.999Z</time></trkpt><trkpt lat="45.02003405506171" lon="7.3384125790740224"><ele>551.6</ele><time>2026-04-19T08:45:58.999Z</time></trkpt><trkpt lat="45.020084018712915" lon="7.3385422487801435"><ele>550.0</ele><time>2026-04-19T08:45:59.999Z</time></trkpt><trkpt lat="45.02016213103394" lon="7.338603842044767"><ele>550.0</ele><time>2026-04-19T08:46:00.999Z</time></trkpt><trkpt lat="45.02026488782081" lon="7.338617302188718"><ele>550.0</ele><time>2026-04-19T08:46:01.999Z</time></trkpt><trkpt lat="45.020355524516745" lon="7.338634296485577"><ele>550.0</ele><time>2026-04-19T08:46:02.999Z</time></trkpt><trkpt lat="45.020436429618925" lon="7.338656899268979"><ele>550.0</ele><time>2026-04-19T08:46:03.999Z</time></trkpt><trkpt lat="45.02053502823319" lon="7.338687348809094"><ele>550.0</ele><time>2026-04-19T08:46:04.999Z</time></trkpt><trkpt lat="45.02061311507295" lon="7.338719836058374"><ele>550.0</ele><time>2026-04-19T08:46:05.999Z</time></trkpt><trkpt lat="45.020694230535206" lon="7.338769544044227"><ele>550.0</ele><time>2026-04-19T08:46:06.999Z</time></trkpt><trkpt lat="45.02074510071744" lon="7.338848557636914"><ele>550.0</ele><time>2026-04-19T08:46:07.999Z</time></trkpt><trkpt lat="45.020804646742164" lon="7.338955307696611"><ele>550.0</ele><time>2026-04-19T08:46:08.999Z</time></trkpt><trkpt lat="45.020851616593475" lon="7.339043270405392"><ele>550.0</ele><time>2026-04-19T08:46:09.999Z</time></trkpt><trkpt lat="45.02089797276192" lon="7.33917818394297"><ele>550.0</ele><time>2026-04-19T08:46:11.999Z</time></trkpt><trkpt lat="45.02090348621513" lon="7.33926718094912"><ele>550.0</ele><time>2026-04-19T08:46:13.999Z</time></trkpt><trkpt lat="45.02083605525546" lon="7.339218953834876"><ele>550.0</ele><time>2026-04-19T08:46:16.999Z</time></trkpt><trkpt lat="45.020810669081804" lon="7.339107512957506"><ele>550.0</ele><time>2026-04-19T08:46:17.999Z</time></trkpt><trkpt lat="45.02073499741876" lon="7.339043366881178"><ele>550.0</ele><time>2026-04-19T08:46:18.999Z</time></trkpt><trkpt lat="45.02066483457149" lon="7.33898025175451"><ele>550.0</ele><time>2026-04-19T08:46:19.999Z</time></trkpt><trkpt lat="45.020599905554306" lon="7.338950120085255"><ele>550.0</ele><time>2026-04-19T08:46:20.999Z</time></trkpt><trkpt lat="45.02053460644612" lon="7.338930699336562"><ele>553.2</ele><time>2026-04-19T08:46:21.999Z</time></trkpt><trkpt lat="45.020428422242716" lon="7.338920508122875"><ele>556.4</ele><time>2026-04-19T08:46:22.999Z</time></trkpt><trkpt lat="45.0203303714881" lon="7.338967558587102"><ele>559.6</ele><time>2026-04-19T08:46:23.999Z</time></trkpt><trkpt lat="45.020236671453546" lon="7.338985104519687"><ele>562.8</ele><time>2026-04-19T08:46:24.999Z</time></trkpt><trkpt lat="45.0201572174718" lon="7.3390418297107995"><ele>566.0</ele><time>2026-04-19T08:46:25.999Z</time></trkpt><trkpt lat="45.020080687645034" lon="7.339095894811137"><ele>566.6</ele><time>2026-04-19T08:46:26.999Z</time></trkpt><trkpt lat="45.01997755043927" lon="7.339164984760675"><ele>567.2</ele><time>2026-04-19T08:46:27.999Z</time></trkpt><trkpt lat="45.01988704015117" lon="7.339227235636251"><ele>567.8</ele><time>2026-04-19T08:46:28.999Z</time></trkpt><trkpt lat="45.01979501123278" lon="7.339291783398125"><ele>568.4</ele><time>2026-04-19T08:46:29.999Z</time></trkpt><trkpt lat="45.01971840619134" lon="7.339324591087173"><ele>569.0</ele><time>2026-04-19T08:46:30.999Z</time></trkpt><trkpt lat="45.019650248116406" lon="7.339385740191123"><ele>569.0</ele><time>2026-04-19T08:46:31.999Z</time></trkpt><trkpt lat="45.01959137949983" lon="7.339429733019997"><ele>569.0</ele><time>2026-04-19T08:46:32.999Z</time></trkpt><trkpt lat="45.019519984895105" lon="7.339475058399402"><ele>569.0</ele><time>2026-04-19T08:46:33.999Z</time></trkpt><trkpt lat="45.019437040133226" lon="7.339532499045675"><ele>569.0</ele><time>2026-04-19T08:46:34.999Z</time></trkpt><trkpt lat="45.01933766116255" lon="7.339613441231601"><ele>569.0</ele><time>2026-04-19T08:46:35.999Z</time></trkpt><trkpt lat="45.019245608941425" lon="7.339697692570727"><ele>571.4</ele><time>2026-04-19T08:46:36.999Z</time></trkpt><trkpt lat="45.01915528775863" lon="7.339781580400398"><ele>573.8</ele><time>2026-04-19T08:46:37.999Z</time></trkpt><trkpt lat="45.01908340538833" lon="7.339874573279632"><ele>576.2</ele><time>2026-04-19T08:46:38.999Z</time></trkpt><trkpt lat="45.01899997259609" lon="7.339978970319003"><ele>578.6</ele><time>2026-04-19T08:46:39.999Z</time></trkpt><trkpt lat="45.018927945662035" lon="7.340056451388843"><ele>581.0</ele><time>2026-04-19T08:46:40.999Z</time></trkpt><trkpt lat="45.01883683388259" lon="7.34012939931626"><ele>581.8</ele><time>2026-04-19T08:46:41.999Z</time></trkpt><trkpt lat="45.018726859181236" lon="7.340186465094741"><ele>582.6</ele><time>2026-04-19T08:46:42.999Z</time></trkpt><trkpt lat="45.01861673317131" lon="7.340190187781789"><ele>583.4</ele><time>2026-04-19T08:46:43.999Z</time></trkpt><trkpt lat="45.018519475763384" lon="7.340204510973177"><ele>584.2</ele><time>2026-04-19T08:46:44.999Z</time></trkpt><trkpt lat="45.01840678532824" lon="7.340202512946899"><ele>585.0</ele><time>2026-04-19T08:46:45.999Z</time></trkpt><trkpt lat="45.01833968613235" lon="7.3402108686856415"><ele>588.6</ele><time>2026-04-19T08:46:46.999Z</time></trkpt><trkpt lat="45.01824146934367" lon="7.340220158386665"><ele>592.2</ele><time>2026-04-19T08:46:47.999Z</time></trkpt><trkpt lat="45.0182220230675" lon="7.34032785463123"><ele>595.8</ele><time>2026-04-19T08:46:48.999Z</time></trkpt><trkpt lat="45.01825595667908" lon="7.340456248479916"><ele>599.4</ele><time>2026-04-19T08:46:50.999Z</time></trkpt><trkpt lat="45.018320493081276" lon="7.340561261538707"><ele>603.0</ele><time>2026-04-19T08:46:51.999Z</time></trkpt><trkpt lat="45.01840385372531" lon="7.34062630090898"><ele>603.0</ele><time>2026-04-19T08:46:52.999Z</time></trkpt><trkpt lat="45.01850477840021" lon="7.340685033072224"><ele>603.0</ele><time>2026-04-19T08:46:53.999Z</time></trkpt><trkpt lat="45.0186135055058" lon="7.340732360753257"><ele>603.0</ele><time>2026-04-19T08:46:54.999Z</time></trkpt><trkpt lat="45.01870242760355" lon="7.340745294126815"><ele>603.0</ele><time>2026-04-19T08:46:55.999Z</time></trkpt><trkpt lat="45.01882349308521" lon="7.340739121980648"><ele>603.0</ele><time>2026-04-19T08:46:56.999Z</time></trkpt><trkpt lat="45.01893375368964" lon="7.340727719089554"><ele>603.0</ele><time>2026-04-19T08:46:57.999Z</time></trkpt><trkpt lat="45.0190504966572" lon="7.340655359227036"><ele>603.0</ele><time>2026-04-19T08:46:58.999Z</time></trkpt><trkpt lat="45.019112825266184" lon="7.340619550071769"><ele>603.0</ele><time>2026-04-19T08:46:59.999Z</time></trkpt><trkpt lat="45.01906192872192" lon="7.340725844155753"><ele>603.0</ele><time>2026-04-19T08:47:03.999Z</time></trkpt><trkpt lat="45.01895340524563" lon="7.340800700956901"><ele>603.0</ele><time>2026-04-19T08:47:04.999Z</time></trkpt><trkpt lat="45.0188525865017" lon="7.340866804923828"><ele>603.0</ele><time>2026-04-19T08:47:05.998Z</time></trkpt><trkpt lat="45.018750251136545" lon="7.340930158452283"><ele>603.0</ele><time>2026-04-19T08:47:06.998Z</time></trkpt><trkpt lat="45.01866225838716" lon="7.341017591663539"><ele>603.0</ele><time>2026-04-19T08:47:07.998Z</time></trkpt><trkpt lat="45.018580370059276" lon="7.341015933904915"><ele>603.0</ele><time>2026-04-19T08:47:08.998Z</time></trkpt><trkpt lat="45.018478062024094" lon="7.3410244915602965"><ele>603.0</ele><time>2026-04-19T08:47:09.998Z</time></trkpt><trkpt lat="45.01837777606003" lon="7.341019570038167"><ele>604.8</ele><time>2026-04-19T08:47:10.998Z</time></trkpt><trkpt lat="45.01826972029359" lon="7.340982059684502"><ele>606.5999999999999</ele><time>2026-04-19T08:47:11.998Z</time></trkpt><trkpt lat="45.01816469025308" lon="7.340978984730809"><ele>608.4000000000001</ele><time>2026-04-19T08:47:12.998Z</time></trkpt><trkpt lat="45.018050763248134" lon="7.34099500176454"><ele>610.2</ele><time>2026-04-19T08:47:13.998Z</time></trkpt><trkpt lat="45.01796586018702" lon="7.341023684953803"><ele>612.0</ele><time>2026-04-19T08:47:14.998Z</time></trkpt><trkpt lat="45.01790754048154" lon="7.341078854925638"><ele>612.0</ele><time>2026-04-19T08:47:16.998Z</time></trkpt><trkpt lat="45.0178029093048" lon="7.341117058991789"><ele>612.0</ele><time>2026-04-19T08:47:29Z</time></trkpt><trkpt lat="45.017736428832876" lon="7.3411606555189834"><ele>612.0</ele><time>2026-04-19T08:47:30Z</time></trkpt><trkpt lat="45.017664725988105" lon="7.341210850183975"><ele>612.0</ele><time>2026-04-19T08:47:31Z</time></trkpt><trkpt lat="45.017599188945795" lon="7.341257485433259"><ele>612.0</ele><time>2026-04-19T08:47:32Z</time></trkpt><trkpt lat="45.017524825696434" lon="7.341322217358232"><ele>612.0</ele><time>2026-04-19T08:47:33Z</time></trkpt><trkpt lat="45.017440433506174" lon="7.341353352259614"><ele>615.5</ele><time>2026-04-19T08:47:34Z</time></trkpt><trkpt lat="45.01736456876429" lon="7.341390913190624"><ele>619.0</ele><time>2026-04-19T08:47:35Z</time></trkpt><trkpt lat="45.01727260352316" lon="7.341408642933231"><ele>622.5</ele><time>2026-04-19T08:47:37Z</time></trkpt><trkpt lat="45.01721195219612" lon="7.341366251253379"><ele>626.0</ele><time>2026-04-19T08:47:39Z</time></trkpt><trkpt lat="45.017265038349464" lon="7.34129985562555"><ele>629.5</ele><time>2026-04-19T08:47:41Z</time></trkpt><trkpt lat="45.01726842872355" lon="7.341147669901085"><ele>633.0</ele><time>2026-04-19T08:47:43Z</time></trkpt><trkpt lat="45.017290144952554" lon="7.341008854867971"><ele>633.0</ele><time>2026-04-19T08:47:44Z</time></trkpt><trkpt lat="45.01731382383883" lon="7.340891288972627"><ele>633.0</ele><time>2026-04-19T08:47:45Z</time></trkpt><trkpt lat="45.01728080601846" lon="7.340776601142526"><ele>633.0</ele><time>2026-04-19T08:47:46Z</time></trkpt><trkpt lat="45.01725444610672" lon="7.3406909330907455"><ele>633.0</ele><time>2026-04-19T08:47:47Z</time></trkpt><trkpt lat="45.01720077563128" lon="7.340554000391043"><ele>633.0</ele><time>2026-04-19T08:47:49Z</time></trkpt><trkpt lat="45.017152479013596" lon="7.340466632744355"><ele>633.0</ele><time>2026-04-19T08:47:50Z</time></trkpt><trkpt lat="45.01709609457133" lon="7.340379054348555"><ele>632.1666666666666</ele><time>2026-04-19T08:47:51Z</time></trkpt><trkpt lat="45.017040698303845" lon="7.340305578216296"><ele>631.3333333333334</ele><time>2026-04-19T08:47:52Z</time></trkpt><trkpt lat="45.01698537695994" lon="7.34023258278418"><ele>630.5</ele><time>2026-04-19T08:47:53Z</time></trkpt><trkpt lat="45.016925478421896" lon="7.340150798209276"><ele>629.6666666666667</ele><time>2026-04-19T08:47:54Z</time></trkpt><trkpt lat="45.016878417977296" lon="7.340075500508697"><ele>628.8333333333334</ele><time>2026-04-19T08:47:55Z</time></trkpt><trkpt lat="45.01680203041337" lon="7.340031054077466"><ele>628.0</ele><time>2026-04-19T08:47:56Z</time></trkpt><trkpt lat="45.016727034972334" lon="7.340064973892843"><ele>628.0</ele><time>2026-04-19T08:47:57Z</time></trkpt><trkpt lat="45.01670073611419" lon="7.340267980261543"><ele>628.0</ele><time>2026-04-19T08:47:58Z</time></trkpt><trkpt lat="45.01674510571516" lon="7.340389709902372"><ele>628.0</ele><time>2026-04-19T08:47:59Z</time></trkpt><trkpt lat="45.016752178335885" lon="7.340525598391889"><ele>628.0</ele><time>2026-04-19T08:48:00Z</time></trkpt><trkpt lat="45.01675779921758" lon="7.340660734925435"><ele>628.0</ele><time>2026-04-19T08:48:01Z</time></trkpt><trkpt lat="45.01676131577112" lon="7.34079321360536"><ele>629.0</ele><time>2026-04-19T08:48:02Z</time></trkpt><trkpt lat="45.01677006840711" lon="7.340908331084405"><ele>630.0</ele><time>2026-04-19T08:48:03Z</time></trkpt><trkpt lat="45.01673947519082" lon="7.341051824999789"><ele>631.0</ele><time>2026-04-19T08:48:05Z</time></trkpt><trkpt lat="45.016698577943174" lon="7.3411476272235525"><ele>632.0</ele><time>2026-04-19T08:48:06Z</time></trkpt><trkpt lat="45.01664972729099" lon="7.3412547442363625"><ele>633.0</ele><time>2026-04-19T08:48:07Z</time></trkpt><trkpt lat="45.01658655548789" lon="7.341373578336666"><ele>636.5999999999999</ele><time>2026-04-19T08:48:08Z</time></trkpt><trkpt lat="45.01652111220092" lon="7.341481872585322"><ele>640.1999999999999</ele><time>2026-04-19T08:48:09Z</time></trkpt><trkpt lat="45.01647217742461" lon="7.341550512954439"><ele>643.8</ele><time>2026-04-19T08:48:10Z</time></trkpt><trkpt lat="45.01636989390884" lon="7.341670669457053"><ele>647.4</ele><time>2026-04-19T08:48:11.999Z</time></trkpt><trkpt lat="45.016298537378475" lon="7.341723097628348"><ele>651.0</ele><time>2026-04-19T08:48:13.999Z</time></trkpt><trkpt lat="45.016227239808934" lon="7.3417721189387875"><ele>651.0</ele><time>2026-04-19T08:48:14.999Z</time></trkpt><trkpt lat="45.0161147425241" lon="7.341795058548928"><ele>651.0</ele><time>2026-04-19T08:48:15.999Z</time></trkpt><trkpt lat="45.01600353267063" lon="7.341835348731653"><ele>651.0</ele><time>2026-04-19T08:48:16.999Z</time></trkpt><trkpt lat="45.01588923014402" lon="7.341845783565966"><ele>651.0</ele><time>2026-04-19T08:48:17.999Z</time></trkpt><trkpt lat="45.015790846739044" lon="7.341866107919084"><ele>651.0</ele><time>2026-04-19T08:48:18.999Z</time></trkpt><trkpt lat="45.015655569349356" lon="7.341859333545095"><ele>651.4</ele><time>2026-04-19T08:48:20.999Z</time></trkpt><trkpt lat="45.01558655948736" lon="7.341837623736255"><ele>651.8</ele><time>2026-04-19T08:48:21.999Z</time></trkpt><trkpt lat="45.01552207877075" lon="7.341805983623835"><ele>652.1999999999999</ele><time>2026-04-19T08:48:22.999Z</time></trkpt><trkpt lat="45.015416860173005" lon="7.341719260052174"><ele>652.5999999999999</ele><time>2026-04-19T08:48:24.999Z</time></trkpt><trkpt lat="45.01535117719376" lon="7.341667663688625"><ele>653.0</ele><time>2026-04-19T08:48:25.999Z</time></trkpt><trkpt lat="45.01524655808448" lon="7.341589664701583"><ele>653.0</ele><time>2026-04-19T08:48:26.999Z</time></trkpt><trkpt lat="45.01515794561151" lon="7.341523599386882"><ele>653.0</ele><time>2026-04-19T08:48:27.999Z</time></trkpt><trkpt lat="45.015077345316094" lon="7.341463508465345"><ele>653.0</ele><time>2026-04-19T08:48:28.999Z</time></trkpt><trkpt lat="45.01498051042558" lon="7.341426111134922"><ele>653.0</ele><time>2026-04-19T08:48:29.999Z</time></trkpt><trkpt lat="45.01489118257101" lon="7.341385417514442"><ele>653.0</ele><time>2026-04-19T08:48:30.999Z</time></trkpt><trkpt lat="45.01477934653176" lon="7.341368031858889"><ele>653.8333333333333</ele><time>2026-04-19T08:48:31.999Z</time></trkpt><trkpt lat="45.014667683657215" lon="7.341391941978429"><ele>654.6666666666666</ele><time>2026-04-19T08:48:32.999Z</time></trkpt><trkpt lat="45.01460674934392" lon="7.341435631904386"><ele>655.5</ele><time>2026-04-19T08:48:33.999Z</time></trkpt><trkpt lat="45.014551231667454" lon="7.341483125680699"><ele>656.3333333333334</ele><time>2026-04-19T08:48:34.999Z</time></trkpt><trkpt lat="45.01453018834411" lon="7.341605755763893"><ele>657.1666666666667</ele><time>2026-04-19T08:48:35.999Z</time></trkpt><trkpt lat="45.0145791562783" lon="7.341714224557382"><ele>658.0</ele><time>2026-04-19T08:48:36.999Z</time></trkpt><trkpt lat="45.014627375461686" lon="7.341771829810884"><ele>658.0</ele><time>2026-04-19T08:48:37.999Z</time></trkpt><trkpt lat="45.01468522274825" lon="7.34184986887144"><ele>658.0</ele><time>2026-04-19T08:48:38.999Z</time></trkpt><trkpt lat="45.0147354168169" lon="7.341999598750278"><ele>658.0</ele><time>2026-04-19T08:48:40.999Z</time></trkpt><trkpt lat="45.01478461979932" lon="7.3420895480575945"><ele>658.0</ele><time>2026-04-19T08:48:41.999Z</time></trkpt><trkpt lat="45.01481755422819" lon="7.342241990557187"><ele>658.0</ele><time>2026-04-19T08:48:42.999Z</time></trkpt><trkpt lat="45.01485903662635" lon="7.342365068868097"><ele>660.6666666666667</ele><time>2026-04-19T08:48:43.999Z</time></trkpt><trkpt lat="45.01488735885685" lon="7.342449336587026"><ele>663.3333333333334</ele><time>2026-04-19T08:48:44.999Z</time></trkpt><trkpt lat="45.01491977281591" lon="7.342537484378565"><ele>666.0</ele><time>2026-04-19T08:48:46.999Z</time></trkpt><trkpt lat="45.01485189325951" lon="7.3424658324110625"><ele>668.6666666666666</ele><time>2026-04-19T08:48:50.999Z</time></trkpt><trkpt lat="45.01479980860342" lon="7.34238206770842"><ele>671.3333333333333</ele><time>2026-04-19T08:48:51.999Z</time></trkpt><trkpt lat="45.01473412347107" lon="7.342302287064505"><ele>674.0</ele><time>2026-04-19T08:48:53.999Z</time></trkpt><trkpt lat="45.014712373991415" lon="7.342422696352213"><ele>674.0</ele><time>2026-04-19T08:48:56.999Z</time></trkpt><trkpt lat="45.01488851362528" lon="7.342503464407227"><ele>674.0</ele><time>2026-04-19T08:48:58.999Z</time></trkpt><trkpt lat="45.014929753680875" lon="7.3426111747006075"><ele>674.0</ele><time>2026-04-19T08:48:59.999Z</time></trkpt><trkpt lat="45.014974644180505" lon="7.342716378444807"><ele>674.0</ele><time>2026-04-19T08:49:00.999Z</time></trkpt><trkpt lat="45.01502284355504" lon="7.342812345736162"><ele>674.0</ele><time>2026-04-19T08:49:01.999Z</time></trkpt><trkpt lat="45.01506237537098" lon="7.342885624365036"><ele>674.6666666666666</ele><time>2026-04-19T08:49:02.999Z</time></trkpt><trkpt lat="45.0151180965809" lon="7.342962156400709"><ele>675.3333333333333</ele><time>2026-04-19T08:49:03.999Z</time></trkpt><trkpt lat="45.01516899210247" lon="7.343021442656455"><ele>676.0</ele><time>2026-04-19T08:49:04.999Z</time></trkpt><trkpt lat="45.015234561649834" lon="7.343086109708833"><ele>676.6666666666666</ele><time>2026-04-19T08:49:05.999Z</time></trkpt><trkpt lat="45.01530122055418" lon="7.34314298081281"><ele>677.3333333333334</ele><time>2026-04-19T08:49:06.999Z</time></trkpt><trkpt lat="45.01538605390058" lon="7.343208107545388"><ele>678.0</ele><time>2026-04-19T08:49:07.999Z</time></trkpt><trkpt lat="45.01546602285937" lon="7.343261254147119"><ele>678.0</ele><time>2026-04-19T08:49:08.999Z</time></trkpt><trkpt lat="45.01552882140921" lon="7.343301420730548"><ele>678.0</ele><time>2026-04-19T08:49:09.999Z</time></trkpt><trkpt lat="45.01564564766119" lon="7.343346823720421"><ele>678.0</ele><time>2026-04-19T08:49:11.999Z</time></trkpt><trkpt lat="45.01573660284815" lon="7.343400565480882"><ele>678.0</ele><time>2026-04-19T08:49:12.999Z</time></trkpt><trkpt lat="45.0158394212241" lon="7.34343563382244"><ele>678.0</ele><time>2026-04-19T08:49:13.999Z</time></trkpt><trkpt lat="45.01590943200293" lon="7.343543539268437"><ele>675.6666666666666</ele><time>2026-04-19T08:49:14.999Z</time></trkpt><trkpt lat="45.01599518438849" lon="7.343587319396698"><ele>673.3333333333334</ele><time>2026-04-19T08:49:15.999Z</time></trkpt><trkpt lat="45.01606384139514" lon="7.3436239915034385"><ele>671.0</ele><time>2026-04-19T08:49:16.999Z</time></trkpt><trkpt lat="45.01614407157651" lon="7.343629141475894"><ele>668.6666666666667</ele><time>2026-04-19T08:49:17.999Z</time></trkpt><trkpt lat="45.016222521058864" lon="7.343642686017135"><ele>666.3333333333334</ele><time>2026-04-19T08:49:18.999Z</time></trkpt><trkpt lat="45.01632696470287" lon="7.343710204214546"><ele>664.0</ele><time>2026-04-19T08:49:19.999Z</time></trkpt><trkpt lat="45.01643638066548" lon="7.343777656444451"><ele>664.0</ele><time>2026-04-19T08:49:21.999Z</time></trkpt><trkpt lat="45.01652397821069" lon="7.3438220096476226"><ele>664.0</ele><time>2026-04-19T08:49:23.999Z</time></trkpt><trkpt lat="45.01637277954407" lon="7.343893727127757"><ele>664.0</ele><time>2026-04-19T08:49:27.998Z</time></trkpt><trkpt lat="45.01629679381885" lon="7.343891320869364"><ele>664.0</ele><time>2026-04-19T08:49:29Z</time></trkpt><trkpt lat="45.01622080780445" lon="7.343920132609252"><ele>664.0</ele><time>2026-04-19T08:49:30Z</time></trkpt><trkpt lat="45.01614901191504" lon="7.343976417033758"><ele>666.2</ele><time>2026-04-19T08:49:31Z</time></trkpt><trkpt lat="45.01605734454384" lon="7.3440665204886715"><ele>668.4000000000001</ele><time>2026-04-19T08:49:32Z</time></trkpt><trkpt lat="45.01595942899094" lon="7.344119089259309"><ele>670.6</ele><time>2026-04-19T08:49:33Z</time></trkpt><trkpt lat="45.01586080703569" lon="7.344125124551647"><ele>672.8</ele><time>2026-04-19T08:49:34Z</time></trkpt><trkpt lat="45.01577317866774" lon="7.344132084006594"><ele>675.0</ele><time>2026-04-19T08:49:35Z</time></trkpt><trkpt lat="45.015707385344065" lon="7.344139129245813"><ele>677.5</ele><time>2026-04-19T08:49:36Z</time></trkpt><trkpt lat="45.01561670983756" lon="7.344087790415681"><ele>680.0</ele><time>2026-04-19T08:49:38Z</time></trkpt><trkpt lat="45.015546437731686" lon="7.3440380896214235"><ele>682.5</ele><time>2026-04-19T08:49:39Z</time></trkpt><trkpt lat="45.01545227424016" lon="7.34401601757008"><ele>685.0</ele><time>2026-04-19T08:49:41Z</time></trkpt><trkpt lat="45.01537549591887" lon="7.344051636375455"><ele>687.5</ele><time>2026-04-19T08:50:23Z</time></trkpt><trkpt lat="45.015316481058065" lon="7.34408583891119"><ele>690.0</ele><time>2026-04-19T08:50:25Z</time></trkpt><trkpt lat="45.01524013400508" lon="7.3441311202176704"><ele>690.0</ele><time>2026-04-19T08:50:27Z</time></trkpt><trkpt lat="45.01516704406474" lon="7.344241542214535"><ele>690.0</ele><time>2026-04-19T08:50:29Z</time></trkpt><trkpt lat="45.01512235220761" lon="7.3443174199942405"><ele>690.0</ele><time>2026-04-19T08:50:29.999Z</time></trkpt><trkpt lat="45.01503824791798" lon="7.344412801669651"><ele>690.0</ele><time>2026-04-19T08:50:31.999Z</time></trkpt><trkpt lat="45.01497401277029" lon="7.344425592619478"><ele>690.0</ele><time>2026-04-19T08:50:32.999Z</time></trkpt><trkpt lat="45.01490088106358" lon="7.3444308217418515"><ele>690.0</ele><time>2026-04-19T08:50:33.999Z</time></trkpt><trkpt lat="45.0148127572079" lon="7.344435467268252"><ele>692.6</ele><time>2026-04-19T08:50:34.999Z</time></trkpt><trkpt lat="45.014744121772544" lon="7.344501873445601"><ele>695.2</ele><time>2026-04-19T08:50:35.999Z</time></trkpt><trkpt lat="45.014695603388674" lon="7.344600926086332"><ele>697.8</ele><time>2026-04-19T08:50:36.999Z</time></trkpt><trkpt lat="45.01467118242098" lon="7.344715080733938"><ele>700.4</ele><time>2026-04-19T08:50:37.999Z</time></trkpt><trkpt lat="45.01461682221168" lon="7.3448466521310944"><ele>703.0</ele><time>2026-04-19T08:50:39.999Z</time></trkpt><trkpt lat="45.01449329351064" lon="7.344843907878689"><ele>703.0</ele><time>2026-04-19T08:50:41.999Z</time></trkpt><trkpt lat="45.01440065458315" lon="7.344870839215415"><ele>703.0</ele><time>2026-04-19T08:50:42.999Z</time></trkpt><trkpt lat="45.01434885793094" lon="7.345036354179763"><ele>703.0</ele><time>2026-04-19T08:50:44.999Z</time></trkpt><trkpt lat="45.01427592222922" lon="7.345117126827016"><ele>703.0</ele><time>2026-04-19T08:50:45.999Z</time></trkpt><trkpt lat="45.01423011179874" lon="7.345219799683117"><ele>703.0</ele><time>2026-04-19T08:50:46.999Z</time></trkpt><trkpt lat="45.01421325152107" lon="7.345318079444771"><ele>703.0</ele><time>2026-04-19T08:50:47.999Z</time></trkpt><trkpt lat="45.01419173770765" lon="7.34541943887595"><ele>703.0</ele><time>2026-04-19T08:50:48.999Z</time></trkpt><trkpt lat="45.01415533954664" lon="7.345493277451123"><ele>703.0</ele><time>2026-04-19T08:50:49.999Z</time></trkpt><trkpt lat="45.01412549930891" lon="7.345642480760167"><ele>703.0</ele><time>2026-04-19T08:50:51.999Z</time></trkpt><trkpt lat="45.01411310542736" lon="7.345753042126846"><ele>703.0</ele><time>2026-04-19T08:50:52.999Z</time></trkpt><trkpt lat="45.014043699886656" lon="7.345915834645926"><ele>705.6666666666667</ele><time>2026-04-19T08:50:54.999Z</time></trkpt><trkpt lat="45.0139763796111" lon="7.345969981852565"><ele>708.3333333333334</ele><time>2026-04-19T08:50:55.999Z</time></trkpt><trkpt lat="45.01388747366015" lon="7.34601934285746"><ele>711.0</ele><time>2026-04-19T08:50:56.999Z</time></trkpt><trkpt lat="45.013823853531726" lon="7.346088238076111"><ele>713.6666666666666</ele><time>2026-04-19T08:50:57.999Z</time></trkpt><trkpt lat="45.01377723308752" lon="7.346184304794026"><ele>716.3333333333333</ele><time>2026-04-19T08:50:58.999Z</time></trkpt><trkpt lat="45.01373594630825" lon="7.346276240178188"><ele>719.0</ele><time>2026-04-19T08:50:59.999Z</time></trkpt><trkpt lat="45.01366400189066" lon="7.346333449371063"><ele>718.3333333333333</ele><time>2026-04-19T08:51:00.999Z</time></trkpt><trkpt lat="45.01360173887639" lon="7.346409793335553"><ele>717.6666666666666</ele><time>2026-04-19T08:51:01.999Z</time></trkpt><trkpt lat="45.01353817486093" lon="7.346455025293046"><ele>717.0</ele><time>2026-04-19T08:51:02.999Z</time></trkpt><trkpt lat="45.01341837299977" lon="7.346479673030397"><ele>716.3333333333334</ele><time>2026-04-19T08:51:04.999Z</time></trkpt><trkpt lat="45.01333448005169" lon="7.346507531653596"><ele>715.6666666666667</ele><time>2026-04-19T08:51:06.999Z</time></trkpt><trkpt lat="45.0133038338536" lon="7.346595760741845"><ele>715.0</ele><time>2026-04-19T08:51:09.999Z</time></trkpt><trkpt lat="45.013218061361485" lon="7.346716713955482"><ele>715.0</ele><time>2026-04-19T08:51:12.999Z</time></trkpt><trkpt lat="45.01316451937044" lon="7.34683562875421"><ele>715.0</ele><time>2026-04-19T08:51:14.999Z</time></trkpt><trkpt lat="45.013067439106926" lon="7.346936508861534"><ele>715.0</ele><time>2026-04-19T08:51:16.999Z</time></trkpt><trkpt lat="45.01298770739625" lon="7.346968859171547"><ele>715.0</ele><time>2026-04-19T08:51:18.999Z</time></trkpt><trkpt lat="45.01288348671794" lon="7.346957557044746"><ele>715.0</ele><time>2026-04-19T08:51:20.999Z</time></trkpt><trkpt lat="45.01281435403412" lon="7.346969009239029"><ele>715.0</ele><time>2026-04-19T08:51:21.999Z</time></trkpt><trkpt lat="45.01270995260656" lon="7.3470811881832105"><ele>715.0</ele><time>2026-04-19T08:51:23.999Z</time></trkpt><trkpt lat="45.012609462641834" lon="7.347091690068262"><ele>715.0</ele><time>2026-04-19T08:51:25.999Z</time></trkpt><trkpt lat="45.012530005547084" lon="7.347078367220274"><ele>715.0</ele><time>2026-04-19T08:51:26.999Z</time></trkpt><trkpt lat="45.01244334543889" lon="7.347097222522656"><ele>715.0</ele><time>2026-04-19T08:51:27.999Z</time></trkpt><trkpt lat="45.01238967110796" lon="7.3471478725257"><ele>715.0</ele><time>2026-04-19T08:51:28.999Z</time></trkpt><trkpt lat="45.01231081050095" lon="7.347199345539785"><ele>715.0</ele><time>2026-04-19T08:51:30.999Z</time></trkpt><trkpt lat="45.0122695668244" lon="7.347274582880194"><ele>715.0</ele><time>2026-04-19T08:51:31.999Z</time></trkpt><trkpt lat="45.012156378613234" lon="7.347274095587491"><ele>715.0</ele><time>2026-04-19T08:51:33.999Z</time></trkpt><trkpt lat="45.01213613868975" lon="7.347395032653396"><ele>715.0</ele><time>2026-04-19T08:51:45Z</time></trkpt><trkpt lat="45.012125925684934" lon="7.34749369466817"><ele>715.0</ele><time>2026-04-19T08:51:49Z</time></trkpt><trkpt lat="45.012046885215256" lon="7.347566242924571"><ele>715.0</ele><time>2026-04-19T08:51:52Z</time></trkpt><trkpt lat="45.011983480782355" lon="7.347603548941128"><ele>715.0</ele><time>2026-04-19T08:51:53Z</time></trkpt><trkpt lat="45.011925566491904" lon="7.347722828044014"><ele>715.0</ele><time>2026-04-19T08:51:55Z</time></trkpt><trkpt lat="45.01190188587325" lon="7.34781423448302"><ele>715.0</ele><time>2026-04-19T08:51:57Z</time></trkpt><trkpt lat="45.011825571717424" lon="7.347927192853972"><ele>715.0</ele><time>2026-04-19T08:51:59Z</time></trkpt><trkpt lat="45.0118324641153" lon="7.348025755338998"><ele>715.0</ele><time>2026-04-19T08:52:01Z</time></trkpt><trkpt lat="45.0117228340788" lon="7.3480976713204225"><ele>714.3333333333334</ele><time>2026-04-19T08:52:03Z</time></trkpt><trkpt lat="45.011669237050924" lon="7.348183778916434"><ele>713.6666666666667</ele><time>2026-04-19T08:52:06Z</time></trkpt><trkpt lat="45.01158663456686" lon="7.348230355160138"><ele>713.0</ele><time>2026-04-19T08:52:08Z</time></trkpt><trkpt lat="45.01146718934511" lon="7.348315558922497"><ele>712.3333333333334</ele><time>2026-04-19T08:52:10Z</time></trkpt><trkpt lat="45.011404738861444" lon="7.348334621212627"><ele>711.6666666666666</ele><time>2026-04-19T08:52:12Z</time></trkpt><trkpt lat="45.01136506932688" lon="7.34843053553405"><ele>711.0</ele><time>2026-04-19T08:52:25Z</time></trkpt><trkpt lat="45.011343626315764" lon="7.348531320773133"><ele>716.4</ele><time>2026-04-19T08:52:33Z</time></trkpt><trkpt lat="45.01139866060185" lon="7.348643747533811"><ele>721.8</ele><time>2026-04-19T08:52:37.999Z</time></trkpt><trkpt lat="45.01140151319228" lon="7.348739553421861"><ele>727.1999999999999</ele><time>2026-04-19T08:52:39.999Z</time></trkpt><trkpt lat="45.01137169750362" lon="7.348835456389326"><ele>732.5999999999999</ele><time>2026-04-19T08:52:43.999Z</time></trkpt><trkpt lat="45.011452473316034" lon="7.3489309292408125"><ele>738.0</ele><time>2026-04-19T08:52:45.999Z</time></trkpt><trkpt lat="45.01152713607634" lon="7.349039830560984"><ele>738.0</ele><time>2026-04-19T08:52:47.999Z</time></trkpt><trkpt lat="45.011602126090274" lon="7.349183851678144"><ele>738.0</ele><time>2026-04-19T08:52:49.999Z</time></trkpt><trkpt lat="45.011651197165406" lon="7.349251142004876"><ele>738.0</ele><time>2026-04-19T08:52:50.999Z</time></trkpt><trkpt lat="45.011727837538565" lon="7.349363816351481"><ele>738.0</ele><time>2026-04-19T08:52:52.999Z</time></trkpt><trkpt lat="45.01175114370626" lon="7.349474950983755"><ele>738.0</ele><time>2026-04-19T08:52:53.999Z</time></trkpt><trkpt lat="45.011833821927695" lon="7.349570863254901"><ele>736.5</ele><time>2026-04-19T08:52:55.999Z</time></trkpt><trkpt lat="45.01185781875536" lon="7.349700494423271"><ele>735.0</ele><time>2026-04-19T08:52:57.999Z</time></trkpt><trkpt lat="45.011837672668186" lon="7.3498155141453285"><ele>733.5</ele><time>2026-04-19T08:52:59.999Z</time></trkpt><trkpt lat="45.01176115362929" lon="7.349880189408857"><ele>732.0</ele><time>2026-04-19T08:53:01.999Z</time></trkpt><trkpt lat="45.01169380440503" lon="7.3499174476480595"><ele>730.5</ele><time>2026-04-19T08:53:03.999Z</time></trkpt><trkpt lat="45.01162165586977" lon="7.349947618004988"><ele>729.0</ele><time>2026-04-19T08:53:05.999Z</time></trkpt><trkpt lat="45.01153231707269" lon="7.349999753586706"><ele>732.3333333333334</ele><time>2026-04-19T08:53:08.999Z</time></trkpt><trkpt lat="45.01144164795532" lon="7.349999176860204"><ele>735.6666666666666</ele><time>2026-04-19T08:53:10.999Z</time></trkpt><trkpt lat="45.011376306841655" lon="7.349952471657827"><ele>739.0</ele><time>2026-04-19T08:53:11.999Z</time></trkpt><trkpt lat="45.0113055302832" lon="7.349945872011543"><ele>742.3333333333333</ele><time>2026-04-19T08:53:13.999Z</time></trkpt><trkpt lat="45.011193096071146" lon="7.349955216397152"><ele>745.6666666666666</ele><time>2026-04-19T08:53:15.999Z</time></trkpt><trkpt lat="45.01111937739543" lon="7.349988746712258"><ele>749.0</ele><time>2026-04-19T08:53:17.999Z</time></trkpt><trkpt lat="45.01105417099602" lon="7.349969251349138"><ele>749.0</ele><time>2026-04-19T08:53:19.999Z</time></trkpt><trkpt lat="45.01093672137023" lon="7.34993272581683"><ele>749.0</ele><time>2026-04-19T08:53:21.999Z</time></trkpt><trkpt lat="45.010844584334116" lon="7.3499095855159435"><ele>749.0</ele><time>2026-04-19T08:53:23.999Z</time></trkpt><trkpt lat="45.01077900550989" lon="7.349907635545154"><ele>749.0</ele><time>2026-04-19T08:53:32.999Z</time></trkpt><trkpt lat="45.010687858447774" lon="7.349872391050702"><ele>749.0</ele><time>2026-04-19T08:53:35.999Z</time></trkpt><trkpt lat="45.01062437053622" lon="7.349874588092242"><ele>749.0</ele><time>2026-04-19T08:53:37.999Z</time></trkpt><trkpt lat="45.01053252817835" lon="7.349867485617691"><ele>750.8333333333333</ele><time>2026-04-19T08:53:41Z</time></trkpt><trkpt lat="45.010459924560465" lon="7.349862519383891"><ele>752.6666666666666</ele><time>2026-04-19T08:53:43Z</time></trkpt><trkpt lat="45.0104085225885" lon="7.349808802599644"><ele>754.5</ele><time>2026-04-19T08:53:45Z</time></trkpt><trkpt lat="45.01034257590372" lon="7.349768766192416"><ele>756.3333333333334</ele><time>2026-04-19T08:54:07Z</time></trkpt><trkpt lat="45.01027654995356" lon="7.349659573434056"><ele>758.1666666666667</ele><time>2026-04-19T08:54:11Z</time></trkpt><trkpt lat="45.01024745708862" lon="7.349554340254131"><ele>760.0</ele><time>2026-04-19T08:54:13Z</time></trkpt><trkpt lat="45.010195817499785" lon="7.349472816289726"><ele>760.0</ele><time>2026-04-19T08:54:16Z</time></trkpt><trkpt lat="45.010151439692216" lon="7.349370698714912"><ele>760.0</ele><time>2026-04-19T08:54:20Z</time></trkpt><trkpt lat="45.010071277082" lon="7.3493706563594925"><ele>760.0</ele><time>2026-04-19T08:54:23Z</time></trkpt><trkpt lat="45.009979548829115" lon="7.349300047665283"><ele>760.0</ele><time>2026-04-19T08:54:26Z</time></trkpt><trkpt lat="45.009876831235644" lon="7.349249348005939"><ele>760.0</ele><time>2026-04-19T08:54:28Z</time></trkpt><trkpt lat="45.009814441225735" lon="7.349155306498471"><ele>758.6666666666667</ele><time>2026-04-19T08:54:30Z</time></trkpt><trkpt lat="45.009780159751124" lon="7.349052605088379"><ele>757.3333333333334</ele><time>2026-04-19T08:54:32Z</time></trkpt><trkpt lat="45.009721324436406" lon="7.348979521178915"><ele>756.0</ele><time>2026-04-19T08:54:34Z</time></trkpt><trkpt lat="45.00972574600957" lon="7.348851361094176"><ele>754.6666666666666</ele><time>2026-04-19T08:54:41.999Z</time></trkpt><trkpt lat="45.00975363846191" lon="7.348737823416418"><ele>753.3333333333333</ele><time>2026-04-19T08:54:43.999Z</time></trkpt><trkpt lat="45.00974561477612" lon="7.348619185305357"><ele>752.0</ele><time>2026-04-19T08:54:45.999Z</time></trkpt><trkpt lat="45.009744065030304" lon="7.348518994715719"><ele>752.0</ele><time>2026-04-19T08:54:47.999Z</time></trkpt><trkpt lat="45.00970236060028" lon="7.348427096188138"><ele>752.0</ele><time>2026-04-19T08:54:48.999Z</time></trkpt><trkpt lat="45.00969260237621" lon="7.34828908747548"><ele>752.0</ele><time>2026-04-19T08:54:50.999Z</time></trkpt><trkpt lat="45.009675768642715" lon="7.348178983131093"><ele>752.0</ele><time>2026-04-19T08:54:52.999Z</time></trkpt><trkpt lat="45.00955467684627" lon="7.348141662916437"><ele>752.0</ele><time>2026-04-19T08:54:54.999Z</time></trkpt><trkpt lat="45.00951647443928" lon="7.348067232103833"><ele>752.0</ele><time>2026-04-19T08:54:56.999Z</time></trkpt><trkpt lat="45.00949708750627" lon="7.347950223809325"><ele>754.2</ele><time>2026-04-19T08:55:06.999Z</time></trkpt><trkpt lat="45.00946490400091" lon="7.347873326344353"><ele>756.4000000000001</ele><time>2026-04-19T08:55:08.999Z</time></trkpt><trkpt lat="45.00933772954962" lon="7.347800312398299"><ele>758.5999999999999</ele><time>2026-04-19T08:55:10.999Z</time></trkpt><trkpt lat="45.009233524979045" lon="7.347783263766353"><ele>760.8</ele><time>2026-04-19T08:55:11.999Z</time></trkpt><trkpt lat="45.0091503170724" lon="7.347701030998534"><ele>763.0</ele><time>2026-04-19T08:55:12.999Z</time></trkpt><trkpt lat="45.00913937860493" lon="7.347577441678867"><ele>760.1666666666667</ele><time>2026-04-19T08:55:13.999Z</time></trkpt><trkpt lat="45.00909049382848" lon="7.347509582773965"><ele>757.3333333333334</ele><time>2026-04-19T08:55:14.999Z</time></trkpt><trkpt lat="45.00907678473475" lon="7.347385807680206"><ele>754.5</ele><time>2026-04-19T08:55:15.999Z</time></trkpt><trkpt lat="45.00905328756862" lon="7.347268028452444"><ele>751.6666666666666</ele><time>2026-04-19T08:55:16.999Z</time></trkpt><trkpt lat="45.009001897506174" lon="7.347147284418274"><ele>748.8333333333333</ele><time>2026-04-19T08:55:17.999Z</time></trkpt><trkpt lat="45.00893199369957" lon="7.3470503678646075"><ele>746.0</ele><time>2026-04-19T08:55:18.999Z</time></trkpt><trkpt lat="45.0088840722416" lon="7.346940141273103"><ele>746.0</ele><time>2026-04-19T08:55:19.999Z</time></trkpt><trkpt lat="45.00883785557702" lon="7.346842879143382"><ele>746.0</ele><time>2026-04-19T08:55:20.999Z</time></trkpt><trkpt lat="45.00877505605665" lon="7.346736484475715"><ele>746.0</ele><time>2026-04-19T08:55:22.999Z</time></trkpt><trkpt lat="45.008705400750486" lon="7.346681481262146"><ele>746.0</ele><time>2026-04-19T08:55:23.999Z</time></trkpt><trkpt lat="45.00863097776062" lon="7.346599580996886"><ele>746.0</ele><time>2026-04-19T08:55:24.999Z</time></trkpt><trkpt lat="45.00855010739362" lon="7.346545778690545"><ele>746.0</ele><time>2026-04-19T08:55:25.999Z</time></trkpt><trkpt lat="45.008408281501005" lon="7.346364851908488"><ele>746.5999999999999</ele><time>2026-04-19T08:55:27.999Z</time></trkpt><trkpt lat="45.00833297663536" lon="7.34635650354674"><ele>747.2</ele><time>2026-04-19T08:55:28.999Z</time></trkpt><trkpt lat="45.00827650422435" lon="7.3462690096810075"><ele>747.8</ele><time>2026-04-19T08:55:29.999Z</time></trkpt><trkpt lat="45.0083063552778" lon="7.3461374252781395"><ele>748.4000000000001</ele><time>2026-04-19T08:55:31.999Z</time></trkpt><trkpt lat="45.00825778740034" lon="7.345978076445307"><ele>749.0</ele><time>2026-04-19T08:55:33.999Z</time></trkpt><trkpt lat="45.0082026357003" lon="7.345882249458457"><ele>749.0</ele><time>2026-04-19T08:55:34.999Z</time></trkpt><trkpt lat="45.00813175389014" lon="7.345776103370046"><ele>749.0</ele><time>2026-04-19T08:55:35.998Z</time></trkpt><trkpt lat="45.008055880042676" lon="7.345645740768603"><ele>749.0</ele><time>2026-04-19T08:55:37.998Z</time></trkpt><trkpt lat="45.007926611938814" lon="7.345619387304877"><ele>749.0</ele><time>2026-04-19T08:55:39.998Z</time></trkpt><trkpt lat="45.007861277829" lon="7.345645561042615"><ele>749.0</ele><time>2026-04-19T08:55:40.998Z</time></trkpt><trkpt lat="45.00779638016945" lon="7.345694403745844"><ele>749.0</ele><time>2026-04-19T08:55:41.998Z</time></trkpt><trkpt lat="45.00769441150179" lon="7.345784417500051"><ele>749.0</ele><time>2026-04-19T08:55:43.998Z</time></trkpt><trkpt lat="45.00762505795169" lon="7.345878077427913"><ele>749.0</ele><time>2026-04-19T08:55:45.998Z</time></trkpt><trkpt lat="45.00756265319523" lon="7.345949503700201"><ele>749.0</ele><time>2026-04-19T08:55:48Z</time></trkpt><trkpt lat="45.00747169333847" lon="7.345959828803439"><ele>749.0</ele><time>2026-04-19T08:55:49Z</time></trkpt><trkpt lat="45.00736978243714" lon="7.345984816059697"><ele>748.4000000000001</ele><time>2026-04-19T08:55:51Z</time></trkpt><trkpt lat="45.007256331661914" lon="7.345991290802838"><ele>747.8</ele><time>2026-04-19T08:55:53Z</time></trkpt><trkpt lat="45.00716347267264" lon="7.346001465572556"><ele>747.2</ele><time>2026-04-19T08:55:55Z</time></trkpt><trkpt lat="45.007067216644835" lon="7.34595666937779"><ele>746.5999999999999</ele><time>2026-04-19T08:55:57Z</time></trkpt><trkpt lat="45.00695550964034" lon="7.345925877318952"><ele>746.0</ele><time>2026-04-19T08:55:59Z</time></trkpt><trkpt lat="45.00687027841454" lon="7.345908091926758"><ele>746.0</ele><time>2026-04-19T08:56:01Z</time></trkpt><trkpt lat="45.00680017577797" lon="7.34596748470901"><ele>746.0</ele><time>2026-04-19T08:56:02Z</time></trkpt><trkpt lat="45.00667994326623" lon="7.34600521453034"><ele>746.0</ele><time>2026-04-19T08:56:03Z</time></trkpt><trkpt lat="45.00659651784159" lon="7.346089872134822"><ele>746.0</ele><time>2026-04-19T08:56:04Z</time></trkpt><trkpt lat="45.00652051231726" lon="7.346209355818866"><ele>746.0</ele><time>2026-04-19T08:56:05Z</time></trkpt><trkpt lat="45.00646187838816" lon="7.346320684305559"><ele>747.5999999999999</ele><time>2026-04-19T08:56:06Z</time></trkpt><trkpt lat="45.00644280904115" lon="7.346473454687324"><ele>749.2</ele><time>2026-04-19T08:56:08Z</time></trkpt><trkpt lat="45.0064799708589" lon="7.3465805854592245"><ele>750.8</ele><time>2026-04-19T08:56:10Z</time></trkpt><trkpt lat="45.00648121073446" lon="7.3466812164442015"><ele>752.4000000000001</ele><time>2026-04-19T08:56:11Z</time></trkpt><trkpt lat="45.006506794428695" lon="7.346796527107919"><ele>754.0</ele><time>2026-04-19T08:56:12Z</time></trkpt><trkpt lat="45.00653579807908" lon="7.346933985357839"><ele>754.0</ele><time>2026-04-19T08:56:13Z</time></trkpt><trkpt lat="45.00656679155428" lon="7.347039473685844"><ele>754.0</ele><time>2026-04-19T08:56:14Z</time></trkpt><trkpt lat="45.006586761853704" lon="7.347148745309601"><ele>754.0</ele><time>2026-04-19T08:56:15Z</time></trkpt><trkpt lat="45.00660665993318" lon="7.347276529595075"><ele>754.0</ele><time>2026-04-19T08:56:16Z</time></trkpt><trkpt lat="45.006629942241304" lon="7.347387741322703"><ele>754.0</ele><time>2026-04-19T08:56:17Z</time></trkpt><trkpt lat="45.00664003095054" lon="7.347487104537765"><ele>754.0</ele><time>2026-04-19T08:56:18Z</time></trkpt><trkpt lat="45.006627491050985" lon="7.347579168273449"><ele>751.0</ele><time>2026-04-19T08:56:19Z</time></trkpt><trkpt lat="45.00661839354473" lon="7.3477235992043"><ele>748.0</ele><time>2026-04-19T08:56:21Z</time></trkpt><trkpt lat="45.00663263260329" lon="7.347864754316752"><ele>745.0</ele><time>2026-04-19T08:56:23Z</time></trkpt><trkpt lat="45.00661359881829" lon="7.348020933329881"><ele>742.0</ele><time>2026-04-19T08:56:25Z</time></trkpt><trkpt lat="45.006590253641356" lon="7.3481157265937265"><ele>739.0</ele><time>2026-04-19T08:56:26Z</time></trkpt><trkpt lat="45.006594233396065" lon="7.348209157951012"><ele>736.1666666666667</ele><time>2026-04-19T08:56:27Z</time></trkpt><trkpt lat="45.00663350082416" lon="7.348296936721189"><ele>733.3333333333334</ele><time>2026-04-19T08:56:28Z</time></trkpt><trkpt lat="45.0067002232306" lon="7.348358836718481"><ele>730.5</ele><time>2026-04-19T08:56:29Z</time></trkpt><trkpt lat="45.006690058478185" lon="7.348503924491992"><ele>727.6666666666666</ele><time>2026-04-19T08:56:31Z</time></trkpt><trkpt lat="45.006627168996914" lon="7.348564841056386"><ele>724.8333333333333</ele><time>2026-04-19T08:56:32Z</time></trkpt><trkpt lat="45.00656896188552" lon="7.348605552266548"><ele>722.0</ele><time>2026-04-19T08:56:33Z</time></trkpt><trkpt lat="45.006496110408676" lon="7.348767275282674"><ele>722.0</ele><time>2026-04-19T08:56:35Z</time></trkpt><trkpt lat="45.00644344528838" lon="7.348839169755551"><ele>722.0</ele><time>2026-04-19T08:56:36Z</time></trkpt><trkpt lat="45.006384715691574" lon="7.3488735957223055"><ele>722.0</ele><time>2026-04-19T08:56:37Z</time></trkpt><trkpt lat="45.00631737370173" lon="7.3488974109404985"><ele>722.0</ele><time>2026-04-19T08:56:39.999Z</time></trkpt><trkpt lat="45.00626990582251" lon="7.348969761223322"><ele>722.0</ele><time>2026-04-19T08:56:42.999Z</time></trkpt><trkpt lat="45.00622250996977" lon="7.349059967015571"><ele>722.0</ele><time>2026-04-19T08:56:44.999Z</time></trkpt><trkpt lat="45.00616322560036" lon="7.349135102969552"><ele>722.0</ele><time>2026-04-19T08:56:46.999Z</time></trkpt><trkpt lat="45.00610123903537" lon="7.349284051674727"><ele>718.0</ele><time>2026-04-19T08:56:52.999Z</time></trkpt><trkpt lat="45.00604733244776" lon="7.3494278170982295"><ele>714.0</ele><time>2026-04-19T08:56:54.999Z</time></trkpt><trkpt lat="45.0060293236158" lon="7.349524165623888"><ele>710.0</ele><time>2026-04-19T08:56:55.999Z</time></trkpt><trkpt lat="45.00596261957406" lon="7.3496525386082805"><ele>706.0</ele><time>2026-04-19T08:56:57.999Z</time></trkpt><trkpt lat="45.005930767400905" lon="7.349731973565332"><ele>702.0</ele><time>2026-04-19T08:56:58.999Z</time></trkpt><trkpt lat="45.00587925121042" lon="7.349847349009929"><ele>697.2</ele><time>2026-04-19T08:57:00.999Z</time></trkpt><trkpt lat="45.005812966173124" lon="7.34997500523919"><ele>692.4000000000001</ele><time>2026-04-19T08:57:02.999Z</time></trkpt><trkpt lat="45.00579412578482" lon="7.350122111002664"><ele>687.5999999999999</ele><time>2026-04-19T08:57:04.999Z</time></trkpt><trkpt lat="45.00578590588382" lon="7.350219977500555"><ele>682.8</ele><time>2026-04-19T08:57:05.999Z</time></trkpt><trkpt lat="45.00571866573765" lon="7.350335356207773"><ele>678.0</ele><time>2026-04-19T08:57:07.999Z</time></trkpt><trkpt lat="45.00561653131913" lon="7.350390552289237"><ele>678.0</ele><time>2026-04-19T08:57:09.999Z</time></trkpt><trkpt lat="45.005554117358614" lon="7.350476014155848"><ele>678.0</ele><time>2026-04-19T08:57:11.999Z</time></trkpt><trkpt lat="45.00553610361158" lon="7.3505855753041365"><ele>678.0</ele><time>2026-04-19T08:57:13.999Z</time></trkpt><trkpt lat="45.00555211163877" lon="7.350741494657257"><ele>678.0</ele><time>2026-04-19T08:57:15.999Z</time></trkpt><trkpt lat="45.005484001906865" lon="7.35076897246327"><ele>678.0</ele><time>2026-04-19T08:57:26.999Z</time></trkpt><trkpt lat="45.005431601310875" lon="7.3506503436942685"><ele>678.0</ele><time>2026-04-19T08:57:28.999Z</time></trkpt><trkpt lat="45.00537277964854" lon="7.350513667145129"><ele>678.0</ele><time>2026-04-19T08:57:30.999Z</time></trkpt><trkpt lat="45.00531880581141" lon="7.350439325126215"><ele>678.0</ele><time>2026-04-19T08:57:31.999Z</time></trkpt><trkpt lat="45.00526167550229" lon="7.350363149810685"><ele>678.0</ele><time>2026-04-19T08:57:32.999Z</time></trkpt><trkpt lat="45.005208936574114" lon="7.350274175283783"><ele>678.0</ele><time>2026-04-19T08:57:33.999Z</time></trkpt><trkpt lat="45.00519406406012" lon="7.350170051447026"><ele>678.0</ele><time>2026-04-19T08:57:34.999Z</time></trkpt><trkpt lat="45.00522491495602" lon="7.350076659637053"><ele>678.0</ele><time>2026-04-19T08:57:35.999Z</time></trkpt><trkpt lat="45.00527975757844" lon="7.34999004622601"><ele>678.0</ele><time>2026-04-19T08:57:36.999Z</time></trkpt><trkpt lat="45.00535442422219" lon="7.3499011854813405"><ele>678.0</ele><time>2026-04-19T08:57:37.999Z</time></trkpt><trkpt lat="45.00538747156564" lon="7.3497623026413"><ele>678.0</ele><time>2026-04-19T08:57:38.999Z</time></trkpt><trkpt lat="45.00539604670905" lon="7.349595412494576"><ele>678.0</ele><time>2026-04-19T08:57:39.998Z</time></trkpt><trkpt lat="45.00535950492263" lon="7.34943931081308"><ele>678.0</ele><time>2026-04-19T08:57:40.998Z</time></trkpt><trkpt lat="45.00534455060793" lon="7.349266741389135"><ele>680.4</ele><time>2026-04-19T08:57:41.998Z</time></trkpt><trkpt lat="45.00530978528731" lon="7.349105714384173"><ele>682.8</ele><time>2026-04-19T08:57:42.998Z</time></trkpt><trkpt lat="45.005270493777566" lon="7.348960499591244"><ele>685.2</ele><time>2026-04-19T08:57:43.998Z</time></trkpt><trkpt lat="45.00521740541425" lon="7.348826161232958"><ele>687.6</ele><time>2026-04-19T08:57:44.998Z</time></trkpt><trkpt lat="45.00518245712435" lon="7.348697156707978"><ele>690.0</ele><time>2026-04-19T08:57:45.998Z</time></trkpt><trkpt lat="45.00516835163325" lon="7.348565657608816"><ele>692.0</ele><time>2026-04-19T08:57:46.998Z</time></trkpt><trkpt lat="45.0051770785226" lon="7.348442292046047"><ele>694.0</ele><time>2026-04-19T08:57:47.998Z</time></trkpt><trkpt lat="45.00518333898597" lon="7.348314076672088"><ele>696.0</ele><time>2026-04-19T08:57:48.998Z</time></trkpt><trkpt lat="45.00519545655225" lon="7.348194917911569"><ele>698.0</ele><time>2026-04-19T08:57:49.998Z</time></trkpt><trkpt lat="45.00520565504366" lon="7.348063691637655"><ele>700.0</ele><time>2026-04-19T08:57:50.998Z</time></trkpt><trkpt lat="45.005196855458365" lon="7.347921447909179"><ele>702.4</ele><time>2026-04-19T08:57:51.998Z</time></trkpt><trkpt lat="45.0051473930665" lon="7.347788553916065"><ele>704.8</ele><time>2026-04-19T08:57:53Z</time></trkpt><trkpt lat="45.00509889291615" lon="7.347636129429363"><ele>707.2</ele><time>2026-04-19T08:57:54Z</time></trkpt><trkpt lat="45.005076818498466" lon="7.347485322016385"><ele>709.6</ele><time>2026-04-19T08:57:55Z</time></trkpt><trkpt lat="45.0050498495861" lon="7.347332967246787"><ele>712.0</ele><time>2026-04-19T08:57:56Z</time></trkpt><trkpt lat="45.00503599411366" lon="7.347179940894239"><ele>717.0</ele><time>2026-04-19T08:57:57Z</time></trkpt><trkpt lat="45.00502407410414" lon="7.347020435376047"><ele>722.0</ele><time>2026-04-19T08:57:58Z</time></trkpt><trkpt lat="45.00497782892709" lon="7.34686544534921"><ele>727.0</ele><time>2026-04-19T08:57:59Z</time></trkpt><trkpt lat="45.00489707812817" lon="7.346734197667331"><ele>732.0</ele><time>2026-04-19T08:58:00Z</time></trkpt><trkpt lat="45.00479448748299" lon="7.346631443906856"><ele>726.0</ele><time>2026-04-19T08:58:01Z</time></trkpt><trkpt lat="45.00473254268285" lon="7.346488201676616"><ele>720.0</ele><time>2026-04-19T08:58:02Z</time></trkpt><trkpt lat="45.00467502380895" lon="7.346341700407828"><ele>714.0</ele><time>2026-04-19T08:58:03Z</time></trkpt><trkpt lat="45.00463154596673" lon="7.346180175261232"><ele>708.0</ele><time>2026-04-19T08:58:04Z</time></trkpt><trkpt lat="45.004600321694056" lon="7.346024285140078"><ele>708.0</ele><time>2026-04-19T08:58:05Z</time></trkpt><trkpt lat="45.00457183989558" lon="7.345863319479472"><ele>708.0</ele><time>2026-04-19T08:58:06Z</time></trkpt><trkpt lat="45.00454512985251" lon="7.345700388129652"><ele>708.0</ele><time>2026-04-19T08:58:07Z</time></trkpt><trkpt lat="45.00451269625697" lon="7.34553561696823"><ele>708.0</ele><time>2026-04-19T08:58:08Z</time></trkpt><trkpt lat="45.004500501984175" lon="7.345385474847425"><ele>713.25</ele><time>2026-04-19T08:58:09Z</time></trkpt><trkpt lat="45.00448505831569" lon="7.34524278203741"><ele>718.5</ele><time>2026-04-19T08:58:10Z</time></trkpt><trkpt lat="45.004472434866784" lon="7.345069762906294"><ele>723.75</ele><time>2026-04-19T08:58:11Z</time></trkpt><trkpt lat="45.00446024465419" lon="7.3449029155856165"><ele>729.0</ele><time>2026-04-19T08:58:12Z</time></trkpt><trkpt lat="45.004439070096204" lon="7.344728488557934"><ele>734.5</ele><time>2026-04-19T08:58:13Z</time></trkpt><trkpt lat="45.004443298103716" lon="7.344584367209136"><ele>740.0</ele><time>2026-04-19T08:58:14Z</time></trkpt><trkpt lat="45.00442407523852" lon="7.3444496135559865"><ele>745.5</ele><time>2026-04-19T08:58:15Z</time></trkpt><trkpt lat="45.004315561135456" lon="7.34429492212208"><ele>751.0</ele><time>2026-04-19T08:58:17Z</time></trkpt><trkpt lat="45.004241137477464" lon="7.344192770883461"><ele>751.0</ele><time>2026-04-19T08:58:18Z</time></trkpt><trkpt lat="45.00417565981981" lon="7.344087869946832"><ele>751.0</ele><time>2026-04-19T08:58:19Z</time></trkpt><trkpt lat="45.00410617700318" lon="7.343976574770554"><ele>751.0</ele><time>2026-04-19T08:58:20Z</time></trkpt><trkpt lat="45.00402480592206" lon="7.343865493345232"><ele>751.0</ele><time>2026-04-19T08:58:21Z</time></trkpt><trkpt lat="45.00393779215942" lon="7.34377592513496"><ele>751.0</ele><time>2026-04-19T08:58:22Z</time></trkpt><trkpt lat="45.003828040706516" lon="7.343700245598537"><ele>750.5999999999999</ele><time>2026-04-19T08:58:23Z</time></trkpt><trkpt lat="45.003700594827045" lon="7.343669166741977"><ele>750.2</ele><time>2026-04-19T08:58:24Z</time></trkpt><trkpt lat="45.003588713256576" lon="7.343706273384602"><ele>749.8</ele><time>2026-04-19T08:58:25Z</time></trkpt><trkpt lat="45.003503444406576" lon="7.343742948173431"><ele>749.4000000000001</ele><time>2026-04-19T08:58:26Z</time></trkpt><trkpt lat="45.00342148226272" lon="7.3438004035509605"><ele>749.0</ele><time>2026-04-19T08:58:27Z</time></trkpt><trkpt lat="45.00337211149596" lon="7.343934156960407"><ele>753.8000000000001</ele><time>2026-04-19T08:58:28Z</time></trkpt><trkpt lat="45.00330204317505" lon="7.344052453540457"><ele>758.6</ele><time>2026-04-19T08:58:29Z</time></trkpt><trkpt lat="45.003239028951526" lon="7.344170930446742"><ele>763.4</ele><time>2026-04-19T08:58:30Z</time></trkpt><trkpt lat="45.00316939036428" lon="7.344298873376643"><ele>768.2</ele><time>2026-04-19T08:58:31Z</time></trkpt><trkpt lat="45.0031053331" lon="7.3443909480317116"><ele>773.0</ele><time>2026-04-19T08:58:32Z</time></trkpt><trkpt lat="45.00299027123031" lon="7.344438407602185"><ele>773.0</ele><time>2026-04-19T08:58:34Z</time></trkpt><trkpt lat="45.002920394307104" lon="7.344426714650066"><ele>773.0</ele><time>2026-04-19T08:58:35Z</time></trkpt><trkpt lat="45.00284019344699" lon="7.344396843505586"><ele>773.0</ele><time>2026-04-19T08:58:36Z</time></trkpt><trkpt lat="45.00272615944676" lon="7.344372555191695"><ele>773.0</ele><time>2026-04-19T08:58:36.999Z</time></trkpt><trkpt lat="45.002628941096" lon="7.344351535748069"><ele>773.0</ele><time>2026-04-19T08:58:37.999Z</time></trkpt><trkpt lat="45.00252940404091" lon="7.344370461545363"><ele>770.75</ele><time>2026-04-19T08:58:38.999Z</time></trkpt><trkpt lat="45.002454377511064" lon="7.344450347737238"><ele>768.5</ele><time>2026-04-19T08:58:39.999Z</time></trkpt><trkpt lat="45.002348347784526" lon="7.34463564886134"><ele>766.25</ele><time>2026-04-19T08:58:40.999Z</time></trkpt><trkpt lat="45.002258771151766" lon="7.344771548773053"><ele>764.0</ele><time>2026-04-19T08:58:41.999Z</time></trkpt><trkpt lat="45.002177815741994" lon="7.3449221138842145"><ele>763.4000000000001</ele><time>2026-04-19T08:58:42.999Z</time></trkpt><trkpt lat="45.002091562950895" lon="7.345050737477242"><ele>762.8</ele><time>2026-04-19T08:58:43.999Z</time></trkpt><trkpt lat="45.0020172699974" lon="7.345165247463069"><ele>762.2</ele><time>2026-04-19T08:58:44.999Z</time></trkpt><trkpt lat="45.00195064261604" lon="7.345228156449205"><ele>761.5999999999999</ele><time>2026-04-19T08:58:45.999Z</time></trkpt><trkpt lat="45.00188805714722" lon="7.345244231408066"><ele>761.0</ele><time>2026-04-19T08:58:46.999Z</time></trkpt><trkpt lat="45.00179839047159" lon="7.345144536923904"><ele>761.0</ele><time>2026-04-19T08:58:48.999Z</time></trkpt><trkpt lat="45.00184470355396" lon="7.345010840639523"><ele>761.0</ele><time>2026-04-19T08:58:49.999Z</time></trkpt><trkpt lat="45.00187282868172" lon="7.344900143550181"><ele>761.0</ele><time>2026-04-19T08:58:50.999Z</time></trkpt><trkpt lat="45.00191892893605" lon="7.344778494997949"><ele>761.0</ele><time>2026-04-19T08:58:51.999Z</time></trkpt><trkpt lat="45.001971454321996" lon="7.344619466327066"><ele>761.0</ele><time>2026-04-19T08:58:52.999Z</time></trkpt><trkpt lat="45.002014251009626" lon="7.344457161740476"><ele>761.75</ele><time>2026-04-19T08:58:53.999Z</time></trkpt><trkpt lat="45.002051129574696" lon="7.344290885311729"><ele>762.5</ele><time>2026-04-19T08:58:54.999Z</time></trkpt><trkpt lat="45.0020779695484" lon="7.34412276159951"><ele>763.25</ele><time>2026-04-19T08:58:55.999Z</time></trkpt><trkpt lat="45.002095188614845" lon="7.34395242568105"><ele>764.0</ele><time>2026-04-19T08:58:56.999Z</time></trkpt><trkpt lat="45.002100666320665" lon="7.34377737746258"><ele>764.75</ele><time>2026-04-19T08:58:57.999Z</time></trkpt><trkpt lat="45.00208857248004" lon="7.343607155582594"><ele>765.5</ele><time>2026-04-19T08:58:58.999Z</time></trkpt><trkpt lat="45.00209056566164" lon="7.343440866563195"><ele>766.25</ele><time>2026-04-19T08:58:59.999Z</time></trkpt><trkpt lat="45.00205618330803" lon="7.343293321130606"><ele>767.0</ele><time>2026-04-19T08:59:00.999Z</time></trkpt><trkpt lat="45.00205514139889" lon="7.343148473053079"><ele>765.2</ele><time>2026-04-19T08:59:01.999Z</time></trkpt><trkpt lat="45.002094201241825" lon="7.343030967558319"><ele>763.4000000000001</ele><time>2026-04-19T08:59:02.999Z</time></trkpt><trkpt lat="45.00217157174224" lon="7.342928402086498"><ele>761.5999999999999</ele><time>2026-04-19T08:59:03.999Z</time></trkpt><trkpt lat="45.00222641053185" lon="7.342781122381629"><ele>759.8</ele><time>2026-04-19T08:59:04.999Z</time></trkpt><trkpt lat="45.00228490245097" lon="7.3426253319918064"><ele>758.0</ele><time>2026-04-19T08:59:05.999Z</time></trkpt><trkpt lat="45.00234384731135" lon="7.3424724532767724"><ele>758.0</ele><time>2026-04-19T08:59:06.999Z</time></trkpt><trkpt lat="45.002402639928704" lon="7.342328785200961"><ele>758.0</ele><time>2026-04-19T08:59:07.999Z</time></trkpt><trkpt lat="45.00245874241721" lon="7.342215959573211"><ele>758.0</ele><time>2026-04-19T08:59:08.999Z</time></trkpt><trkpt lat="45.0025261046155" lon="7.3421463684248724"><ele>758.0</ele><time>2026-04-19T08:59:09.999Z</time></trkpt><trkpt lat="45.002615304772206" lon="7.342075107151673"><ele>758.0</ele><time>2026-04-19T08:59:10.999Z</time></trkpt><trkpt lat="45.00272214724735" lon="7.34199083781022"><ele>764.5</ele><time>2026-04-19T08:59:11.999Z</time></trkpt><trkpt lat="45.00281828960432" lon="7.3419094840770365"><ele>771.0</ele><time>2026-04-19T08:59:12.999Z</time></trkpt><trkpt lat="45.00291202504679" lon="7.341812114561645"><ele>777.5</ele><time>2026-04-19T08:59:13.999Z</time></trkpt><trkpt lat="45.003008683225325" lon="7.3416813994933285"><ele>784.0</ele><time>2026-04-19T08:59:14.999Z</time></trkpt><trkpt lat="45.00308755598456" lon="7.341541474882188"><ele>784.0</ele><time>2026-04-19T08:59:15.999Z</time></trkpt><trkpt lat="45.00316325107708" lon="7.341392396559714"><ele>784.0</ele><time>2026-04-19T08:59:16.999Z</time></trkpt><trkpt lat="45.00324305206665" lon="7.341241706371226"><ele>784.0</ele><time>2026-04-19T08:59:17.999Z</time></trkpt><trkpt lat="45.00332330168409" lon="7.3410888858066485"><ele>784.0</ele><time>2026-04-19T08:59:18.999Z</time></trkpt><trkpt lat="45.00339741643933" lon="7.3409352965261485"><ele>789.8000000000001</ele><time>2026-04-19T08:59:19.999Z</time></trkpt><trkpt lat="45.00345678809181" lon="7.340769511039664"><ele>795.6</ele><time>2026-04-19T08:59:20.999Z</time></trkpt><trkpt lat="45.00352436830828" lon="7.340632607496572"><ele>801.4</ele><time>2026-04-19T08:59:21.999Z</time></trkpt><trkpt lat="45.003549950585885" lon="7.3404947792033495"><ele>807.2</ele><time>2026-04-19T08:59:22.999Z</time></trkpt><trkpt lat="45.00355941222782" lon="7.340361615492765"><ele>813.0</ele><time>2026-04-19T08:59:23.999Z</time></trkpt><trkpt lat="45.00353278467499" lon="7.340206268346796"><ele>812.5</ele><time>2026-04-19T08:59:24.999Z</time></trkpt><trkpt lat="45.003488767178986" lon="7.340053732702308"><ele>812.0</ele><time>2026-04-19T08:59:25.999Z</time></trkpt><trkpt lat="45.00342938462251" lon="7.339900550650926"><ele>811.5</ele><time>2026-04-19T08:59:26.999Z</time></trkpt><trkpt lat="45.00337407264586" lon="7.339754945908455"><ele>811.0</ele><time>2026-04-19T08:59:27.999Z</time></trkpt><trkpt lat="45.00331929415584" lon="7.339601625674589"><ele>811.0</ele><time>2026-04-19T08:59:28.999Z</time></trkpt><trkpt lat="45.00327421805869" lon="7.339463754783489"><ele>811.0</ele><time>2026-04-19T08:59:29.999Z</time></trkpt><trkpt lat="45.00324839672046" lon="7.3393378099221325"><ele>811.0</ele><time>2026-04-19T08:59:30.999Z</time></trkpt><trkpt lat="45.00328119319913" lon="7.339234764057005"><ele>811.0</ele><time>2026-04-19T08:59:31.999Z</time></trkpt><trkpt lat="45.00329070189692" lon="7.33911415347656"><ele>811.0</ele><time>2026-04-19T08:59:32.999Z</time></trkpt><trkpt lat="45.0032819687233" lon="7.338965358011323"><ele>817.5</ele><time>2026-04-19T08:59:33.999Z</time></trkpt><trkpt lat="45.003239508575355" lon="7.338810455838655"><ele>824.0</ele><time>2026-04-19T08:59:34.998Z</time></trkpt><trkpt lat="45.003157517384984" lon="7.338679777483876"><ele>830.5</ele><time>2026-04-19T08:59:35.998Z</time></trkpt><trkpt lat="45.003064558342096" lon="7.338544867898518"><ele>837.0</ele><time>2026-04-19T08:59:36.998Z</time></trkpt><trkpt lat="45.00296092193299" lon="7.338435256652743"><ele>837.0</ele><time>2026-04-19T08:59:37.998Z</time></trkpt><trkpt lat="45.002856137937194" lon="7.338310811142255"><ele>837.0</ele><time>2026-04-19T08:59:38.998Z</time></trkpt><trkpt lat="45.00275354943508" lon="7.338190091972304"><ele>837.0</ele><time>2026-04-19T08:59:39.998Z</time></trkpt><trkpt lat="45.002635534699564" lon="7.338092117533379"><ele>837.0</ele><time>2026-04-19T08:59:40.998Z</time></trkpt><trkpt lat="45.00252143214014" lon="7.338033334730204"><ele>834.4000000000001</ele><time>2026-04-19T08:59:41.998Z</time></trkpt><trkpt lat="45.002438116395375" lon="7.337945788674323"><ele>831.8000000000001</ele><time>2026-04-19T08:59:42.998Z</time></trkpt><trkpt lat="45.00236400213328" lon="7.337876448884708"><ele>829.2</ele><time>2026-04-19T08:59:43.998Z</time></trkpt><trkpt lat="45.0023155004858" lon="7.3377953118576915"><ele>826.6</ele><time>2026-04-19T08:59:44.998Z</time></trkpt><trkpt lat="45.00226406686377" lon="7.337704825026642"><ele>824.0</ele><time>2026-04-19T08:59:45.998Z</time></trkpt><trkpt lat="45.002244031063356" lon="7.337559777520738"><ele>824.0</ele><time>2026-04-19T08:59:46.998Z</time></trkpt><trkpt lat="45.00223438221425" lon="7.3374046923326315"><ele>824.0</ele><time>2026-04-19T08:59:47.998Z</time></trkpt><trkpt lat="45.00221967179833" lon="7.337242422782538"><ele>824.0</ele><time>2026-04-19T08:59:48.998Z</time></trkpt><trkpt lat="45.002191172842416" lon="7.337080241653287"><ele>824.0</ele><time>2026-04-19T08:59:49.998Z</time></trkpt><trkpt lat="45.00216514258914" lon="7.336951243627094"><ele>824.0</ele><time>2026-04-19T08:59:50.998Z</time></trkpt><trkpt lat="45.0021110298939" lon="7.336864703189901"><ele>828.6</ele><time>2026-04-19T08:59:51.998Z</time></trkpt><trkpt lat="45.002023004936405" lon="7.336802200001135"><ele>833.2</ele><time>2026-04-19T08:59:52.998Z</time></trkpt><trkpt lat="45.00193726223576" lon="7.33673356356041"><ele>837.8000000000001</ele><time>2026-04-19T08:59:53.998Z</time></trkpt><trkpt lat="45.00185275436346" lon="7.336667416239303"><ele>842.4000000000001</ele><time>2026-04-19T08:59:54.998Z</time></trkpt><trkpt lat="45.00178093084775" lon="7.3365641779932425"><ele>847.0</ele><time>2026-04-19T08:59:55.998Z</time></trkpt><trkpt lat="45.0017211189779" lon="7.336427011138298"><ele>847.5</ele><time>2026-04-19T08:59:56.998Z</time></trkpt><trkpt lat="45.00164772003377" lon="7.336283031554123"><ele>848.0</ele><time>2026-04-19T08:59:57.998Z</time></trkpt><trkpt lat="45.00154659814964" lon="7.336159415422136"><ele>848.5</ele><time>2026-04-19T08:59:59Z</time></trkpt><trkpt lat="45.001445663975325" lon="7.336055960981006"><ele>849.0</ele><time>2026-04-19T09:00:00Z</time></trkpt><trkpt lat="45.00134364716196" lon="7.3359436206156055"><ele>849.0</ele><time>2026-04-19T09:00:01Z</time></trkpt><trkpt lat="45.0012266536554" lon="7.335886538326518"><ele>849.0</ele><time>2026-04-19T09:00:02Z</time></trkpt><trkpt lat="45.00113262853619" lon="7.335807690368454"><ele>849.0</ele><time>2026-04-19T09:00:03Z</time></trkpt><trkpt lat="45.00104374466502" lon="7.335745101867165"><ele>849.0</ele><time>2026-04-19T09:00:04Z</time></trkpt><trkpt lat="45.000967088517875" lon="7.335676866061812"><ele>849.0</ele><time>2026-04-19T09:00:05Z</time></trkpt><trkpt lat="45.000897806586146" lon="7.335599300179406"><ele>851.4000000000001</ele><time>2026-04-19T09:00:06Z</time></trkpt><trkpt lat="45.00084932023141" lon="7.335516231526312"><ele>853.8</ele><time>2026-04-19T09:00:07Z</time></trkpt><trkpt lat="45.00082738999347" lon="7.335417044975927"><ele>856.1999999999999</ele><time>2026-04-19T09:00:08Z</time></trkpt><trkpt lat="45.00081471988604" lon="7.335280073380539"><ele>858.5999999999999</ele><time>2026-04-19T09:00:09Z</time></trkpt><trkpt lat="45.00081224465459" lon="7.335134894084774"><ele>861.0</ele><time>2026-04-19T09:00:10Z</time></trkpt><trkpt lat="45.000822434784155" lon="7.334978093373994"><ele>861.0</ele><time>2026-04-19T09:00:11Z</time></trkpt><trkpt lat="45.000844521494415" lon="7.334826447964954"><ele>860.9999999999999</ele><time>2026-04-19T09:00:12Z</time></trkpt><trkpt lat="45.000871894922184" lon="7.334679590163939"><ele>860.9999999999999</ele><time>2026-04-19T09:00:13Z</time></trkpt><trkpt lat="45.000917295881976" lon="7.334532727586301"><ele>861.0</ele><time>2026-04-19T09:00:14Z</time></trkpt><trkpt lat="45.00096178231919" lon="7.33437761208312"><ele>861.0</ele><time>2026-04-19T09:00:15Z</time></trkpt><trkpt lat="45.000994896826626" lon="7.33423605238482"><ele>861.1999999999999</ele><time>2026-04-19T09:00:16Z</time></trkpt><trkpt lat="45.00101875466601" lon="7.334096209016311"><ele>861.3999999999999</ele><time>2026-04-19T09:00:17Z</time></trkpt><trkpt lat="45.00101327603082" lon="7.333966523626325"><ele>861.6</ele><time>2026-04-19T09:00:18Z</time></trkpt><trkpt lat="45.00096505364172" lon="7.333855421408855"><ele>861.8</ele><time>2026-04-19T09:00:19Z</time></trkpt><trkpt lat="45.00091369376362" lon="7.333756583335651"><ele>862.0</ele><time>2026-04-19T09:00:20Z</time></trkpt><trkpt lat="45.00083009676213" lon="7.333665426486956"><ele>862.0</ele><time>2026-04-19T09:00:21Z</time></trkpt><trkpt lat="45.00072816197176" lon="7.33359993498414"><ele>862.0</ele><time>2026-04-19T09:00:22Z</time></trkpt><trkpt lat="45.000614907137546" lon="7.333558918615425"><ele>862.0</ele><time>2026-04-19T09:00:23Z</time></trkpt><trkpt lat="45.000510176604315" lon="7.333535493959199"><ele>862.0</ele><time>2026-04-19T09:00:24Z</time></trkpt><trkpt lat="45.00041793264057" lon="7.333513150857707"><ele>862.0</ele><time>2026-04-19T09:00:25Z</time></trkpt><trkpt lat="45.00034061820402" lon="7.3334691675859665"><ele>861.9999999999999</ele><time>2026-04-19T09:00:26Z</time></trkpt><trkpt lat="45.0002871944478" lon="7.3333966533099195"><ele>862.0</ele><time>2026-04-19T09:00:27Z</time></trkpt><trkpt lat="45.00025136057044" lon="7.333321106872253"><ele>862.0</ele><time>2026-04-19T09:00:28Z</time></trkpt><trkpt lat="45.000222268530166" lon="7.3332334898795"><ele>862.0</ele><time>2026-04-19T09:00:29Z</time></trkpt><trkpt lat="45.00019605357772" lon="7.333107718526746"><ele>861.9999999999999</ele><time>2026-04-19T09:00:30Z</time></trkpt><trkpt lat="45.000181423125525" lon="7.332970102038786"><ele>862.0</ele><time>2026-04-19T09:00:31Z</time></trkpt><trkpt lat="45.0001926928624" lon="7.332822532861628"><ele>861.2</ele><time>2026-04-19T09:00:32Z</time></trkpt><trkpt lat="45.00022546694787" lon="7.332672913680758"><ele>860.4000000000001</ele><time>2026-04-19T09:00:33Z</time></trkpt><trkpt lat="45.00027351748566" lon="7.332552781442633"><ele>859.5999999999999</ele><time>2026-04-19T09:00:33.999Z</time></trkpt><trkpt lat="45.00035450910735" lon="7.332470003719506"><ele>858.8</ele><time>2026-04-19T09:00:34.999Z</time></trkpt><trkpt lat="45.000434106228234" lon="7.3324292497366885"><ele>858.0</ele><time>2026-04-19T09:00:35.999Z</time></trkpt><trkpt lat="45.0005198579579" lon="7.332392309129776"><ele>858.0</ele><time>2026-04-19T09:00:36.999Z</time></trkpt><trkpt lat="45.00060439768902" lon="7.3323547669609015"><ele>858.0</ele><time>2026-04-19T09:00:37.999Z</time></trkpt><trkpt lat="45.00069706964918" lon="7.332310369929938"><ele>858.0</ele><time>2026-04-19T09:00:38.999Z</time></trkpt><trkpt lat="45.000773648952176" lon="7.332253928283046"><ele>858.0</ele><time>2026-04-19T09:00:39.999Z</time></trkpt><trkpt lat="45.00085841173359" lon="7.332227080494338"><ele>858.0</ele><time>2026-04-19T09:00:40.999Z</time></trkpt><trkpt lat="45.00089027330808" lon="7.332058740269702"><ele>861.5999999999999</ele><time>2026-04-19T09:00:41.999Z</time></trkpt><trkpt lat="45.000927126670355" lon="7.331935193041538"><ele>865.1999999999999</ele><time>2026-04-19T09:00:42.999Z</time></trkpt><trkpt lat="45.00096386223789" lon="7.331822061149094"><ele>868.8</ele><time>2026-04-19T09:00:43.999Z</time></trkpt><trkpt lat="45.00100705175467" lon="7.3316942907775875"><ele>872.4</ele><time>2026-04-19T09:00:44.999Z</time></trkpt><trkpt lat="45.00106474219183" lon="7.331556200146439"><ele>876.0</ele><time>2026-04-19T09:00:45.999Z</time></trkpt><trkpt lat="45.00113096610874" lon="7.331409587672498"><ele>875.25</ele><time>2026-04-19T09:00:46.999Z</time></trkpt><trkpt lat="45.001193114319385" lon="7.331251252630432"><ele>874.5</ele><time>2026-04-19T09:00:47.999Z</time></trkpt><trkpt lat="45.001234280651694" lon="7.331101217324377"><ele>873.75</ele><time>2026-04-19T09:00:48.999Z</time></trkpt><trkpt lat="45.00126836235405" lon="7.330955886242259"><ele>873.0</ele><time>2026-04-19T09:00:49.999Z</time></trkpt><trkpt lat="45.00126504620003" lon="7.330771506448849"><ele>873.0</ele><time>2026-04-19T09:00:50.999Z</time></trkpt><trkpt lat="45.0012571551271" lon="7.330598768944629"><ele>873.0</ele><time>2026-04-19T09:00:51.999Z</time></trkpt><trkpt lat="45.00126846431421" lon="7.330445517561116"><ele>873.0</ele><time>2026-04-19T09:00:52.999Z</time></trkpt><trkpt lat="45.00127071706581" lon="7.33028414097176"><ele>873.0</ele><time>2026-04-19T09:00:53.999Z</time></trkpt><trkpt lat="45.00127314067331" lon="7.330110524863404"><ele>876.25</ele><time>2026-04-19T09:00:54.999Z</time></trkpt><trkpt lat="45.00127528450451" lon="7.329956950661268"><ele>879.5</ele><time>2026-04-19T09:00:55.999Z</time></trkpt><trkpt lat="45.00127725519314" lon="7.329797650769435"><ele>882.75</ele><time>2026-04-19T09:00:56.999Z</time></trkpt><trkpt lat="45.00127623649426" lon="7.329629993339447"><ele>886.0</ele><time>2026-04-19T09:00:57.999Z</time></trkpt><trkpt lat="45.00126822315246" lon="7.329459127854706"><ele>889.75</ele><time>2026-04-19T09:00:58.999Z</time></trkpt><trkpt lat="45.001247960849255" lon="7.32929804126318"><ele>893.5</ele><time>2026-04-19T09:00:59.999Z</time></trkpt><trkpt lat="45.00121730424992" lon="7.329146884278417"><ele>897.25</ele><time>2026-04-19T09:01:00.999Z</time></trkpt><trkpt lat="45.00117523664704" lon="7.328995203727233"><ele>901.0</ele><time>2026-04-19T09:01:01.999Z</time></trkpt><trkpt lat="45.0011013172951" lon="7.328855422377233"><ele>901.0</ele><time>2026-04-19T09:01:02.999Z</time></trkpt><trkpt lat="45.00103944150133" lon="7.328739210902256"><ele>900.9999999999999</ele><time>2026-04-19T09:01:03.999Z</time></trkpt><trkpt lat="45.00096985505105" lon="7.328676956905128"><ele>900.9999999999999</ele><time>2026-04-19T09:01:04.999Z</time></trkpt><trkpt lat="45.00089881488686" lon="7.328592294369124"><ele>901.0</ele><time>2026-04-19T09:01:05.999Z</time></trkpt><trkpt lat="45.000824966079115" lon="7.328505668114925"><ele>901.0</ele><time>2026-04-19T09:01:06.999Z</time></trkpt><trkpt lat="45.00073334649902" lon="7.328405962290407"><ele>899.0</ele><time>2026-04-19T09:01:07.999Z</time></trkpt><trkpt lat="45.00067126917914" lon="7.328271360529503"><ele>897.0</ele><time>2026-04-19T09:01:08.999Z</time></trkpt><trkpt lat="45.00058550035428" lon="7.3281597484632846"><ele>895.0</ele><time>2026-04-19T09:01:09.999Z</time></trkpt><trkpt lat="45.00051379267341" lon="7.328018120050831"><ele>893.0</ele><time>2026-04-19T09:01:10.999Z</time></trkpt><trkpt lat="45.000439064364436" lon="7.327881135619639"><ele>892.25</ele><time>2026-04-19T09:01:11.999Z</time></trkpt><trkpt lat="45.000368002547845" lon="7.327733107433273"><ele>891.5</ele><time>2026-04-19T09:01:12.999Z</time></trkpt><trkpt lat="45.00030950538542" lon="7.32757526067269"><ele>890.75</ele><time>2026-04-19T09:01:13.999Z</time></trkpt><trkpt lat="45.00024107494087" lon="7.327413745510125"><ele>890.0</ele><time>2026-04-19T09:01:14.999Z</time></trkpt><trkpt lat="45.00017894341539" lon="7.327254591737638"><ele>892.0</ele><time>2026-04-19T09:01:15.999Z</time></trkpt><trkpt lat="45.0001134521899" lon="7.327119293992621"><ele>894.0</ele><time>2026-04-19T09:01:16.999Z</time></trkpt><trkpt lat="45.00007124317894" lon="7.326994178633912"><ele>896.0</ele><time>2026-04-19T09:01:17.999Z</time></trkpt><trkpt lat="44.99999955974216" lon="7.326898184803291"><ele>898.0</ele><time>2026-04-19T09:01:18.999Z</time></trkpt><trkpt lat="44.99992094749577" lon="7.32679035705895"><ele>900.0</ele><time>2026-04-19T09:01:19.999Z</time></trkpt><trkpt lat="44.99983824190562" lon="7.326670112694994"><ele>900.0</ele><time>2026-04-19T09:01:20.999Z</time></trkpt><trkpt lat="44.99977384258082" lon="7.326545946761984"><ele>900.0</ele><time>2026-04-19T09:01:21.999Z</time></trkpt><trkpt lat="44.99969689770995" lon="7.3264253440497065"><ele>900.0</ele><time>2026-04-19T09:01:22.999Z</time></trkpt><trkpt lat="44.99962763634188" lon="7.326303606241629"><ele>900.0</ele><time>2026-04-19T09:01:23.999Z</time></trkpt><trkpt lat="44.99957513476914" lon="7.3261846806783835"><ele>900.0</ele><time>2026-04-19T09:01:24.999Z</time></trkpt><trkpt lat="44.999547688125865" lon="7.326059612860045"><ele>901.5</ele><time>2026-04-19T09:01:25.999Z</time></trkpt><trkpt lat="44.99952801582985" lon="7.325914291938372"><ele>903.0</ele><time>2026-04-19T09:01:26.999Z</time></trkpt><trkpt lat="44.999504249768016" lon="7.325747914024598"><ele>904.5</ele><time>2026-04-19T09:01:27.999Z</time></trkpt><trkpt lat="44.99945494656065" lon="7.3255942453905"><ele>906.0</ele><time>2026-04-19T09:01:28.999Z</time></trkpt><trkpt lat="44.99941858715523" lon="7.325421932907732"><ele>908.75</ele><time>2026-04-19T09:01:29.999Z</time></trkpt><trkpt lat="44.999368466763954" lon="7.325262292996326"><ele>911.5</ele><time>2026-04-19T09:01:30.999Z</time></trkpt><trkpt lat="44.9993200885334" lon="7.325112872311749"><ele>914.25</ele><time>2026-04-19T09:01:31.999Z</time></trkpt><trkpt lat="44.9992721032914" lon="7.32496994005917"><ele>917.0</ele><time>2026-04-19T09:01:32.999Z</time></trkpt><trkpt lat="44.99921340970643" lon="7.3248527484734804"><ele>918.4000000000001</ele><time>2026-04-19T09:01:33.999Z</time></trkpt><trkpt lat="44.99914861291194" lon="7.324743765388286"><ele>919.8000000000001</ele><time>2026-04-19T09:01:34.998Z</time></trkpt><trkpt lat="44.99906989245305" lon="7.324651268226102"><ele>921.2</ele><time>2026-04-19T09:01:35.998Z</time></trkpt><trkpt lat="44.99896717439796" lon="7.324608193130565"><ele>922.6</ele><time>2026-04-19T09:01:36.998Z</time></trkpt><trkpt lat="44.998851623582716" lon="7.324599756201042"><ele>924.0</ele><time>2026-04-19T09:01:37.998Z</time></trkpt><trkpt lat="44.99876312247878" lon="7.324536503675927"><ele>924.0</ele><time>2026-04-19T09:01:38.998Z</time></trkpt><trkpt lat="44.99868194897463" lon="7.324483279832915"><ele>924.0000000000001</ele><time>2026-04-19T09:01:39.998Z</time></trkpt><trkpt lat="44.998600881595195" lon="7.324426230377815"><ele>924.0000000000001</ele><time>2026-04-19T09:01:40.998Z</time></trkpt><trkpt lat="44.99854576694107" lon="7.3243696869957375"><ele>924.0</ele><time>2026-04-19T09:01:41.998Z</time></trkpt><trkpt lat="44.99850074054681" lon="7.324226593145355"><ele>924.0</ele><time>2026-04-19T09:01:43.998Z</time></trkpt><trkpt lat="44.99847741427541" lon="7.3240096182073104"><ele>923.0</ele><time>2026-04-19T09:01:45.998Z</time></trkpt><trkpt lat="44.998457321732246" lon="7.323851225385212"><ele>922.0</ele><time>2026-04-19T09:01:46.998Z</time></trkpt><trkpt lat="44.99843069635115" lon="7.323701673894354"><ele>921.0</ele><time>2026-04-19T09:01:47.998Z</time></trkpt><trkpt lat="44.99840530334691" lon="7.323532092509532"><ele>920.0</ele><time>2026-04-19T09:01:48.998Z</time></trkpt><trkpt lat="44.99838503935813" lon="7.323362333155773"><ele>920.0</ele><time>2026-04-19T09:01:49.998Z</time></trkpt><trkpt lat="44.99836707093539" lon="7.323206283089441"><ele>920.0</ele><time>2026-04-19T09:01:50.998Z</time></trkpt><trkpt lat="44.99834137990083" lon="7.323061351858326"><ele>920.0</ele><time>2026-04-19T09:01:51.998Z</time></trkpt><trkpt lat="44.99830072639316" lon="7.322929005863105"><ele>920.0</ele><time>2026-04-19T09:01:52.998Z</time></trkpt><trkpt lat="44.99822492596" lon="7.3228094347208135"><ele>920.0</ele><time>2026-04-19T09:01:53.998Z</time></trkpt><trkpt lat="44.99813429366738" lon="7.322689980553872"><ele>915.25</ele><time>2026-04-19T09:01:54.998Z</time></trkpt><trkpt lat="44.99804660122815" lon="7.322569767490955"><ele>910.5</ele><time>2026-04-19T09:01:55.998Z</time></trkpt><trkpt lat="44.997963561314506" lon="7.322445086472182"><ele>905.75</ele><time>2026-04-19T09:01:56.998Z</time></trkpt><trkpt lat="44.997885139978585" lon="7.322319089091358"><ele>901.0</ele><time>2026-04-19T09:01:57.998Z</time></trkpt><trkpt lat="44.99780838062142" lon="7.322201756179872"><ele>899.5999999999999</ele><time>2026-04-19T09:01:58.998Z</time></trkpt><trkpt lat="44.99774077455794" lon="7.322090318214662"><ele>898.1999999999999</ele><time>2026-04-19T09:01:59.998Z</time></trkpt><trkpt lat="44.997673668344845" lon="7.321980634822698"><ele>896.8000000000001</ele><time>2026-04-19T09:02:00.998Z</time></trkpt><trkpt lat="44.99761020380824" lon="7.321869124544197"><ele>895.4000000000001</ele><time>2026-04-19T09:02:01.998Z</time></trkpt><trkpt lat="44.997552338947436" lon="7.321718915567332"><ele>894.0</ele><time>2026-04-19T09:02:02.998Z</time></trkpt><trkpt lat="44.99750477040809" lon="7.321574630932996"><ele>894.5</ele><time>2026-04-19T09:02:03.998Z</time></trkpt><trkpt lat="44.99742354972658" lon="7.321464988915308"><ele>895.0</ele><time>2026-04-19T09:02:05Z</time></trkpt><trkpt lat="44.997347971397446" lon="7.3213676862492125"><ele>895.5</ele><time>2026-04-19T09:02:06Z</time></trkpt><trkpt lat="44.99724572997202" lon="7.321265202496421"><ele>896.0</ele><time>2026-04-19T09:02:07Z</time></trkpt><trkpt lat="44.99714080033438" lon="7.321165399889923"><ele>896.0</ele><time>2026-04-19T09:02:08Z</time></trkpt><trkpt lat="44.997026096257265" lon="7.321094687898362"><ele>896.0</ele><time>2026-04-19T09:02:09Z</time></trkpt><trkpt lat="44.996904969217915" lon="7.320997457274036"><ele>896.0</ele><time>2026-04-19T09:02:10Z</time></trkpt><trkpt lat="44.996781196208396" lon="7.320891784935271"><ele>896.0</ele><time>2026-04-19T09:02:11Z</time></trkpt><trkpt lat="44.99665832006551" lon="7.320791444882625"><ele>892.75</ele><time>2026-04-19T09:02:12Z</time></trkpt><trkpt lat="44.99655356512611" lon="7.320675337321254"><ele>889.5</ele><time>2026-04-19T09:02:13Z</time></trkpt><trkpt lat="44.99644342387365" lon="7.320574782623334"><ele>886.25</ele><time>2026-04-19T09:02:14Z</time></trkpt><trkpt lat="44.996342197333114" lon="7.320470776677828"><ele>883.0</ele><time>2026-04-19T09:02:15Z</time></trkpt><trkpt lat="44.996235931768595" lon="7.3203658590396135"><ele>881.25</ele><time>2026-04-19T09:02:16Z</time></trkpt><trkpt lat="44.99613362483323" lon="7.320227429259118"><ele>879.5</ele><time>2026-04-19T09:02:17Z</time></trkpt><trkpt lat="44.996025218653756" lon="7.3201320712185955"><ele>877.75</ele><time>2026-04-19T09:02:18Z</time></trkpt><trkpt lat="44.995914935790054" lon="7.320034693539755"><ele>876.0</ele><time>2026-04-19T09:02:19Z</time></trkpt><trkpt lat="44.99579679945406" lon="7.319940272429564"><ele>875.4</ele><time>2026-04-19T09:02:20Z</time></trkpt><trkpt lat="44.9956753363452" lon="7.319854009836527"><ele>874.8</ele><time>2026-04-19T09:02:21Z</time></trkpt><trkpt lat="44.99557530160089" lon="7.319795988618098"><ele>874.1999999999999</ele><time>2026-04-19T09:02:22Z</time></trkpt><trkpt lat="44.99550430142819" lon="7.319760551867226"><ele>873.5999999999999</ele><time>2026-04-19T09:02:23Z</time></trkpt><trkpt lat="44.995409713000704" lon="7.319702216152681"><ele>873.0</ele><time>2026-04-19T09:02:25Z</time></trkpt><trkpt lat="44.99534119268911" lon="7.319642190133873"><ele>868.75</ele><time>2026-04-19T09:02:26Z</time></trkpt><trkpt lat="44.99526037004376" lon="7.319553193500022"><ele>864.5</ele><time>2026-04-19T09:02:27Z</time></trkpt><trkpt lat="44.995184995452114" lon="7.319437364785793"><ele>860.25</ele><time>2026-04-19T09:02:28Z</time></trkpt><trkpt lat="44.99511155410811" lon="7.319305859110441"><ele>856.0</ele><time>2026-04-19T09:02:29Z</time></trkpt><trkpt lat="44.99503676529232" lon="7.319169045522905"><ele>855.1999999999999</ele><time>2026-04-19T09:02:30Z</time></trkpt><trkpt lat="44.994969255980386" lon="7.319064474666317"><ele>854.3999999999999</ele><time>2026-04-19T09:02:31Z</time></trkpt><trkpt lat="44.99487952331771" lon="7.318976136599516"><ele>853.6</ele><time>2026-04-19T09:02:32Z</time></trkpt><trkpt lat="44.99478011493341" lon="7.318931978366168"><ele>852.8</ele><time>2026-04-19T09:02:33Z</time></trkpt><trkpt lat="44.99466252354104" lon="7.318906037726298"><ele>852.0</ele><time>2026-04-19T09:02:34Z</time></trkpt><trkpt lat="44.99453712864082" lon="7.318896176661537"><ele>852.0</ele><time>2026-04-19T09:02:35Z</time></trkpt><trkpt lat="44.99442013095087" lon="7.3188872023651745"><ele>852.0</ele><time>2026-04-19T09:02:36Z</time></trkpt><trkpt lat="44.994314719484535" lon="7.318858728273833"><ele>852.0</ele><time>2026-04-19T09:02:37Z</time></trkpt><trkpt lat="44.9942196935343" lon="7.318819201356026"><ele>852.0</ele><time>2026-04-19T09:02:37.999Z</time></trkpt><trkpt lat="44.99413721906558" lon="7.318811985525019"><ele>852.0</ele><time>2026-04-19T09:02:38.999Z</time></trkpt><trkpt lat="44.994072695505736" lon="7.3187832222829625"><ele>852.0</ele><time>2026-04-19T09:02:39.999Z</time></trkpt><trkpt lat="44.99398980701959" lon="7.318670205224796"><ele>852.0</ele><time>2026-04-19T09:02:41.999Z</time></trkpt><trkpt lat="44.9940551063745" lon="7.31851171640651"><ele>852.0</ele><time>2026-04-19T09:02:43.999Z</time></trkpt><trkpt lat="44.9941365852496" lon="7.318487839636693"><ele>852.0</ele><time>2026-04-19T09:02:44.999Z</time></trkpt><trkpt lat="44.99420881519951" lon="7.318593256690344"><ele>852.0</ele><time>2026-04-19T09:02:45.999Z</time></trkpt><trkpt lat="44.994284903914235" lon="7.3186489238137495"><ele>852.0</ele><time>2026-04-19T09:02:46.999Z</time></trkpt><trkpt lat="44.994363666059115" lon="7.3187023386176575"><ele>852.0</ele><time>2026-04-19T09:02:47.999Z</time></trkpt><trkpt lat="44.994435656933334" lon="7.318697923757185"><ele>852.0</ele><time>2026-04-19T09:02:48.999Z</time></trkpt><trkpt lat="44.99449296182894" lon="7.318655901149285"><ele>852.0</ele><time>2026-04-19T09:02:49.999Z</time></trkpt><trkpt lat="44.99452415434994" lon="7.318561104376495"><ele>852.0</ele><time>2026-04-19T09:02:50.999Z</time></trkpt><trkpt lat="44.99451464372371" lon="7.318462209776364"><ele>852.0</ele><time>2026-04-19T09:02:51.999Z</time></trkpt><trkpt lat="44.99442180561951" lon="7.318305828560679"><ele>852.0</ele><time>2026-04-19T09:02:53.999Z</time></trkpt><trkpt lat="44.99435179217757" lon="7.318181043310639"><ele>852.0</ele><time>2026-04-19T09:02:54.999Z</time></trkpt><trkpt lat="44.99429374115467" lon="7.318053049664097"><ele>852.0</ele><time>2026-04-19T09:02:55.999Z</time></trkpt><trkpt lat="44.99423708841169" lon="7.317937528543151"><ele>852.0</ele><time>2026-04-19T09:02:56.999Z</time></trkpt><trkpt lat="44.99416467264674" lon="7.31784757007982"><ele>852.0</ele><time>2026-04-19T09:02:57.999Z</time></trkpt><trkpt lat="44.99408127741962" lon="7.317782292374447"><ele>847.4000000000001</ele><time>2026-04-19T09:02:58.999Z</time></trkpt><trkpt lat="44.99398637550932" lon="7.317747685728691"><ele>842.8000000000001</ele><time>2026-04-19T09:02:59.999Z</time></trkpt><trkpt lat="44.993898750146414" lon="7.317749857223791"><ele>838.2</ele><time>2026-04-19T09:03:00.999Z</time></trkpt><trkpt lat="44.993798536158884" lon="7.317784454662826"><ele>833.6</ele><time>2026-04-19T09:03:01.999Z</time></trkpt><trkpt lat="44.99367790386941" lon="7.317833577012305"><ele>829.0</ele><time>2026-04-19T09:03:02.999Z</time></trkpt><trkpt lat="44.993566179959856" lon="7.317856151415566"><ele>829.0</ele><time>2026-04-19T09:03:03.999Z</time></trkpt><trkpt lat="44.993463490971756" lon="7.317903608352581"><ele>829.0</ele><time>2026-04-19T09:03:04.999Z</time></trkpt><trkpt lat="44.993367535887415" lon="7.3179377461369"><ele>829.0</ele><time>2026-04-19T09:03:05.999Z</time></trkpt><trkpt lat="44.99327353801638" lon="7.317990463680715"><ele>829.0</ele><time>2026-04-19T09:03:06.999Z</time></trkpt><trkpt lat="44.9931843608357" lon="7.318058448748795"><ele>829.0</ele><time>2026-04-19T09:03:07.999Z</time></trkpt><trkpt lat="44.99311285049022" lon="7.318121245748518"><ele>828.4999999999999</ele><time>2026-04-19T09:03:08.999Z</time></trkpt><trkpt lat="44.99305739672815" lon="7.318173158199645"><ele>828.0</ele><time>2026-04-19T09:03:09.999Z</time></trkpt><trkpt lat="44.99299551854316" lon="7.31821323678873"><ele>827.5</ele><time>2026-04-19T09:03:11.999Z</time></trkpt><trkpt lat="44.99290571428275" lon="7.318025526686818"><ele>827.0</ele><time>2026-04-19T09:03:14.999Z</time></trkpt><trkpt lat="44.99287532127647" lon="7.317930529148092"><ele>826.4999999999999</ele><time>2026-04-19T09:03:15.999Z</time></trkpt><trkpt lat="44.99283629158374" lon="7.3178424405507005"><ele>826.0</ele><time>2026-04-19T09:03:16.999Z</time></trkpt><trkpt lat="44.99279096317938" lon="7.317729099133589"><ele>826.0</ele><time>2026-04-19T09:03:17.999Z</time></trkpt><trkpt lat="44.992743733098884" lon="7.317621056116543"><ele>826.0</ele><time>2026-04-19T09:03:18.999Z</time></trkpt><trkpt lat="44.992669987260236" lon="7.3175141779766575"><ele>826.0</ele><time>2026-04-19T09:03:19.999Z</time></trkpt><trkpt lat="44.99258299427679" lon="7.317447805321112"><ele>826.0</ele><time>2026-04-19T09:03:20.999Z</time></trkpt><trkpt lat="44.99248366677375" lon="7.317396083955464"><ele>826.0</ele><time>2026-04-19T09:03:21.999Z</time></trkpt><trkpt lat="44.99237983679992" lon="7.317390318891212"><ele>826.1999999999999</ele><time>2026-04-19T09:03:22.999Z</time></trkpt><trkpt lat="44.99228399032203" lon="7.317376453549888"><ele>826.4</ele><time>2026-04-19T09:03:23.999Z</time></trkpt><trkpt lat="44.99220772980301" lon="7.317322276044371"><ele>826.6</ele><time>2026-04-19T09:03:24.999Z</time></trkpt><trkpt lat="44.99211427615788" lon="7.317231575530055"><ele>826.8</ele><time>2026-04-19T09:03:25.999Z</time></trkpt><trkpt lat="44.99202111468276" lon="7.31717670597608"><ele>827.0</ele><time>2026-04-19T09:03:26.999Z</time></trkpt><trkpt lat="44.99191937890556" lon="7.317120850857477"><ele>827.0</ele><time>2026-04-19T09:03:27.999Z</time></trkpt><trkpt lat="44.99183452352076" lon="7.317024578792467"><ele>827.0</ele><time>2026-04-19T09:03:28.999Z</time></trkpt><trkpt lat="44.991748821967285" lon="7.316926344080046"><ele>827.0</ele><time>2026-04-19T09:03:29.999Z</time></trkpt><trkpt lat="44.99166218986068" lon="7.316829902235559"><ele>827.0</ele><time>2026-04-19T09:03:30.999Z</time></trkpt><trkpt lat="44.99158341475881" lon="7.316753769773614"><ele>827.0</ele><time>2026-04-19T09:03:31.999Z</time></trkpt><trkpt lat="44.99150319190914" lon="7.316662853186498"><ele>831.1666666666667</ele><time>2026-04-19T09:03:32.999Z</time></trkpt><trkpt lat="44.991430313952314" lon="7.316586088014106"><ele>835.3333333333334</ele><time>2026-04-19T09:03:33.999Z</time></trkpt><trkpt lat="44.99136951037293" lon="7.316503387096055"><ele>839.5</ele><time>2026-04-19T09:03:34.999Z</time></trkpt><trkpt lat="44.99129338897683" lon="7.316457270091006"><ele>843.6666666666667</ele><time>2026-04-19T09:03:35.999Z</time></trkpt><trkpt lat="44.991203714480655" lon="7.316437157724983"><ele>847.8333333333334</ele><time>2026-04-19T09:03:36.999Z</time></trkpt><trkpt lat="44.99112984400085" lon="7.316424446441806"><ele>852.0</ele><time>2026-04-19T09:03:37.999Z</time></trkpt><trkpt lat="44.99102872423713" lon="7.316452675189704"><ele>852.0</ele><time>2026-04-19T09:03:38.999Z</time></trkpt><trkpt lat="44.99092956326181" lon="7.316500859644813"><ele>852.0</ele><time>2026-04-19T09:03:39.999Z</time></trkpt><trkpt lat="44.99083616686463" lon="7.316562714126324"><ele>852.0</ele><time>2026-04-19T09:03:40.999Z</time></trkpt><trkpt lat="44.99074014122521" lon="7.316651053136227"><ele>852.0</ele><time>2026-04-19T09:03:41.999Z</time></trkpt><trkpt lat="44.99065317223759" lon="7.316737670886465"><ele>852.0</ele><time>2026-04-19T09:03:42.999Z</time></trkpt><trkpt lat="44.99055375342938" lon="7.31680632657564"><ele>854.5</ele><time>2026-04-19T09:03:43.998Z</time></trkpt><trkpt lat="44.99048326550111" lon="7.31680993108495"><ele>857.0</ele><time>2026-04-19T09:03:44.998Z</time></trkpt><trkpt lat="44.990397719147005" lon="7.3168162853114955"><ele>859.5</ele><time>2026-04-19T09:03:45.998Z</time></trkpt><trkpt lat="44.99031092019591" lon="7.316773947923427"><ele>862.0</ele><time>2026-04-19T09:03:46.998Z</time></trkpt><trkpt lat="44.99023404840176" lon="7.316703265254055"><ele>864.5</ele><time>2026-04-19T09:03:47.998Z</time></trkpt><trkpt lat="44.99013323838053" lon="7.316724879160613"><ele>867.0</ele><time>2026-04-19T09:03:49.998Z</time></trkpt><trkpt lat="44.99018908570995" lon="7.316837639637612"><ele>867.0</ele><time>2026-04-19T09:04:20Z</time></trkpt><trkpt lat="44.990161583679324" lon="7.317021849375836"><ele>867.0</ele><time>2026-04-19T09:04:22Z</time></trkpt><trkpt lat="44.99011807078534" lon="7.3171631221581634"><ele>867.0</ele><time>2026-04-19T09:04:23Z</time></trkpt><trkpt lat="44.990089623177404" lon="7.317298926337466"><ele>867.0</ele><time>2026-04-19T09:04:24Z</time></trkpt><trkpt lat="44.99005772320592" lon="7.3174122675772795"><ele>867.0</ele><time>2026-04-19T09:04:25Z</time></trkpt><trkpt lat="44.990022650556035" lon="7.31750104458306"><ele>867.7142857142857</ele><time>2026-04-19T09:04:26Z</time></trkpt><trkpt lat="44.98998996388439" lon="7.317589258614312"><ele>868.4285714285714</ele><time>2026-04-19T09:04:27Z</time></trkpt><trkpt lat="44.98996413965946" lon="7.317686492377671"><ele>869.1428571428571</ele><time>2026-04-19T09:04:28Z</time></trkpt><trkpt lat="44.98992783646266" lon="7.3177817946860655"><ele>869.8571428571429</ele><time>2026-04-19T09:04:29Z</time></trkpt><trkpt lat="44.98988211930002" lon="7.317844332615375"><ele>870.5714285714287</ele><time>2026-04-19T09:04:30Z</time></trkpt><trkpt lat="44.98983450039141" lon="7.317912822112119"><ele>871.2857142857143</ele><time>2026-04-19T09:04:31Z</time></trkpt><trkpt lat="44.98977907469293" lon="7.3179767077867215"><ele>872.0</ele><time>2026-04-19T09:04:32Z</time></trkpt><trkpt lat="44.989671434292966" lon="7.3180491072940415"><ele>872.0000000000001</ele><time>2026-04-19T09:04:34Z</time></trkpt><trkpt lat="44.98962018106837" lon="7.31799329150123"><ele>872.0</ele><time>2026-04-19T09:04:37Z</time></trkpt><trkpt lat="44.98949138648327" lon="7.317933434624267"><ele>872.0</ele><time>2026-04-19T09:04:39Z</time></trkpt><trkpt lat="44.989402941453" lon="7.3179168179715255"><ele>872.0</ele><time>2026-04-19T09:04:40Z</time></trkpt><trkpt lat="44.98933373676255" lon="7.317949744735664"><ele>872.0000000000001</ele><time>2026-04-19T09:04:41Z</time></trkpt><trkpt lat="44.989258762861475" lon="7.318001704019862"><ele>872.0</ele><time>2026-04-19T09:04:42Z</time></trkpt><trkpt lat="44.989190791454334" lon="7.318047145284368"><ele>870.8333333333334</ele><time>2026-04-19T09:04:43Z</time></trkpt><trkpt lat="44.989119906430446" lon="7.318062606020763"><ele>869.6666666666667</ele><time>2026-04-19T09:04:44Z</time></trkpt><trkpt lat="44.98903896760151" lon="7.318116353967204"><ele>868.5</ele><time>2026-04-19T09:04:47Z</time></trkpt><trkpt lat="44.98904729575642" lon="7.318263091971928"><ele>867.3333333333333</ele><time>2026-04-19T09:04:49Z</time></trkpt><trkpt lat="44.9890985533122" lon="7.318385168648839"><ele>866.1666666666666</ele><time>2026-04-19T09:04:50Z</time></trkpt><trkpt lat="44.98912448434764" lon="7.318487241869484"><ele>865.0</ele><time>2026-04-19T09:04:51Z</time></trkpt><trkpt lat="44.98911423299351" lon="7.318598885067661"><ele>865.0</ele><time>2026-04-19T09:04:52Z</time></trkpt><trkpt lat="44.98909458829063" lon="7.318759912988784"><ele>865.0</ele><time>2026-04-19T09:04:53Z</time></trkpt><trkpt lat="44.98906516423656" lon="7.318896928164751"><ele>865.0</ele><time>2026-04-19T09:04:54Z</time></trkpt><trkpt lat="44.9890396305344" lon="7.319019246507675"><ele>865.0</ele><time>2026-04-19T09:04:55Z</time></trkpt><trkpt lat="44.98901083602793" lon="7.3191285136533875"><ele>865.0</ele><time>2026-04-19T09:04:55.999Z</time></trkpt><trkpt lat="44.98897345444517" lon="7.319211159114443"><ele>861.3333333333333</ele><time>2026-04-19T09:04:56.999Z</time></trkpt><trkpt lat="44.98891427325886" lon="7.319301607917728"><ele>857.6666666666666</ele><time>2026-04-19T09:04:57.999Z</time></trkpt><trkpt lat="44.988845046636136" lon="7.3193866678841495"><ele>854.0</ele><time>2026-04-19T09:04:58.999Z</time></trkpt><trkpt lat="44.98878389703732" lon="7.319482594555122"><ele>850.3333333333333</ele><time>2026-04-19T09:04:59.999Z</time></trkpt><trkpt lat="44.98874329340195" lon="7.319565262561659"><ele>846.6666666666666</ele><time>2026-04-19T09:05:00.999Z</time></trkpt><trkpt lat="44.98874218590918" lon="7.319656015978767"><ele>843.0</ele><time>2026-04-19T09:05:01.999Z</time></trkpt><trkpt lat="44.9887645690355" lon="7.319751190740987"><ele>841.4</ele><time>2026-04-19T09:05:02.999Z</time></trkpt><trkpt lat="44.9888201594855" lon="7.319861733731072"><ele>839.8</ele><time>2026-04-19T09:05:03.999Z</time></trkpt><trkpt lat="44.988906498915675" lon="7.31997528734444"><ele>838.2</ele><time>2026-04-19T09:05:04.999Z</time></trkpt><trkpt lat="44.9889478729402" lon="7.320103930031396"><ele>836.6</ele><time>2026-04-19T09:05:05.999Z</time></trkpt><trkpt lat="44.988959361206824" lon="7.320217032892343"><ele>835.0</ele><time>2026-04-19T09:05:06.999Z</time></trkpt><trkpt lat="44.988989170879684" lon="7.3203344058000415"><ele>835.0</ele><time>2026-04-19T09:05:07.999Z</time></trkpt><trkpt lat="44.98900880493601" lon="7.320462627519571"><ele>835.0</ele><time>2026-04-19T09:05:08.999Z</time></trkpt><trkpt lat="44.98900939294181" lon="7.320633367376308"><ele>835.0</ele><time>2026-04-19T09:05:09.999Z</time></trkpt><trkpt lat="44.98901830775193" lon="7.320772715619137"><ele>835.0</ele><time>2026-04-19T09:05:10.999Z</time></trkpt><trkpt lat="44.98902707921526" lon="7.320989773209135"><ele>834.2</ele><time>2026-04-19T09:05:12.999Z</time></trkpt><trkpt lat="44.98900874137873" lon="7.321117968666827"><ele>833.4</ele><time>2026-04-19T09:05:13.999Z</time></trkpt><trkpt lat="44.9889747385099" lon="7.321230141326073"><ele>832.5999999999999</ele><time>2026-04-19T09:05:14.999Z</time></trkpt><trkpt lat="44.98898167344931" lon="7.321357140773789"><ele>831.8</ele><time>2026-04-19T09:05:15.999Z</time></trkpt><trkpt lat="44.98898588289352" lon="7.321509114977339"><ele>831.0</ele><time>2026-04-19T09:05:16.999Z</time></trkpt><trkpt lat="44.98897278024386" lon="7.321665592078708"><ele>829.4</ele><time>2026-04-19T09:05:17.999Z</time></trkpt><trkpt lat="44.988963298361725" lon="7.321855125507569"><ele>827.8</ele><time>2026-04-19T09:05:18.999Z</time></trkpt><trkpt lat="44.98896849567407" lon="7.3220124110196725"><ele>826.1999999999999</ele><time>2026-04-19T09:05:19.999Z</time></trkpt><trkpt lat="44.98895929368061" lon="7.322124226124326"><ele>824.5999999999999</ele><time>2026-04-19T09:05:20.999Z</time></trkpt><trkpt lat="44.988972076255855" lon="7.322222912060869"><ele>823.0</ele><time>2026-04-19T09:05:21.999Z</time></trkpt><trkpt lat="44.98900506833046" lon="7.3223608945912275"><ele>822.4999999999999</ele><time>2026-04-19T09:05:22.999Z</time></trkpt><trkpt lat="44.98903719274542" lon="7.322491722525928"><ele>822.0</ele><time>2026-04-19T09:05:23.999Z</time></trkpt><trkpt lat="44.989032605472076" lon="7.3225843657420535"><ele>821.5</ele><time>2026-04-19T09:05:24.999Z</time></trkpt><trkpt lat="44.988971151836395" lon="7.322556824606066"><ele>821.0</ele><time>2026-04-19T09:05:39.999Z</time></trkpt><trkpt lat="44.98896490512625" lon="7.322467693134035"><ele>820.4999999999999</ele><time>2026-04-19T09:05:40.999Z</time></trkpt><trkpt lat="44.988914222718584" lon="7.322370270606685"><ele>820.0</ele><time>2026-04-19T09:05:41.999Z</time></trkpt><trkpt lat="44.988876144192695" lon="7.322243993829228"><ele>820.6</ele><time>2026-04-19T09:05:42.999Z</time></trkpt><trkpt lat="44.988851440578244" lon="7.322101003771115"><ele>821.2</ele><time>2026-04-19T09:05:43.999Z</time></trkpt><trkpt lat="44.98884028948952" lon="7.321947674854193"><ele>821.8</ele><time>2026-04-19T09:05:44.999Z</time></trkpt><trkpt lat="44.98883976699201" lon="7.321785395603486"><ele>822.4</ele><time>2026-04-19T09:05:45.999Z</time></trkpt><trkpt lat="44.98882379609449" lon="7.321657183916589"><ele>823.0</ele><time>2026-04-19T09:05:46.999Z</time></trkpt><trkpt lat="44.98880259931718" lon="7.321499468816504"><ele>824.5999999999999</ele><time>2026-04-19T09:05:47.999Z</time></trkpt><trkpt lat="44.988798907832134" lon="7.321337816444648"><ele>826.1999999999999</ele><time>2026-04-19T09:05:48.999Z</time></trkpt><trkpt lat="44.98878789713743" lon="7.321190235286223"><ele>827.8</ele><time>2026-04-19T09:05:49.999Z</time></trkpt><trkpt lat="44.988782373944346" lon="7.321055564974348"><ele>829.4</ele><time>2026-04-19T09:05:50.999Z</time></trkpt><trkpt lat="44.98874229093881" lon="7.320924547342721"><ele>831.0</ele><time>2026-04-19T09:05:51.999Z</time></trkpt><trkpt lat="44.98870333853274" lon="7.32078587423599"><ele>831.0</ele><time>2026-04-19T09:05:52.999Z</time></trkpt><trkpt lat="44.988667134799734" lon="7.320635984632129"><ele>831.0</ele><time>2026-04-19T09:05:53.999Z</time></trkpt><trkpt lat="44.98862261656737" lon="7.320456178962777"><ele>831.0</ele><time>2026-04-19T09:05:54.999Z</time></trkpt><trkpt lat="44.98857611055961" lon="7.320323291634391"><ele>831.0</ele><time>2026-04-19T09:05:55.999Z</time></trkpt><trkpt lat="44.98852184244489" lon="7.320186457150555"><ele>831.8</ele><time>2026-04-19T09:05:56.999Z</time></trkpt><trkpt lat="44.98845497414263" lon="7.320059719134931"><ele>832.5999999999999</ele><time>2026-04-19T09:05:57.999Z</time></trkpt><trkpt lat="44.988407917046175" lon="7.31992120887472"><ele>833.4</ele><time>2026-04-19T09:05:58.999Z</time></trkpt><trkpt lat="44.98836853612125" lon="7.319801466530406"><ele>834.2</ele><time>2026-04-19T09:05:59.999Z</time></trkpt><trkpt lat="44.9883337451415" lon="7.319671137158106"><ele>835.0</ele><time>2026-04-19T09:06:00.999Z</time></trkpt><trkpt lat="44.98831297308184" lon="7.319547595728662"><ele>844.6</ele><time>2026-04-19T09:06:01.999Z</time></trkpt><trkpt lat="44.98827797038355" lon="7.319456290626131"><ele>854.2</ele><time>2026-04-19T09:06:02.999Z</time></trkpt><trkpt lat="44.98818100950525" lon="7.319417390477304"><ele>863.8</ele><time>2026-04-19T09:06:05.998Z</time></trkpt><trkpt lat="44.988190454216934" lon="7.319286519266453"><ele>873.4</ele><time>2026-04-19T09:06:08.998Z</time></trkpt><trkpt lat="44.98810762337927" lon="7.319291700700795"><ele>883.0</ele><time>2026-04-19T09:06:10.998Z</time></trkpt><trkpt lat="44.98806086811303" lon="7.319437401244751"><ele>883.0</ele><time>2026-04-19T09:06:12.998Z</time></trkpt><trkpt lat="44.98807461546886" lon="7.319564369360258"><ele>883.0</ele><time>2026-04-19T09:06:13.998Z</time></trkpt><trkpt lat="44.9881061775681" lon="7.319705884449201"><ele>883.0</ele><time>2026-04-19T09:06:14.998Z</time></trkpt><trkpt lat="44.98812256557882" lon="7.319833463411347"><ele>883.0</ele><time>2026-04-19T09:06:15.998Z</time></trkpt><trkpt lat="44.98811693282888" lon="7.319937973435946"><ele>883.0</ele><time>2026-04-19T09:06:17Z</time></trkpt><trkpt lat="44.98800670290572" lon="7.320046115286521"><ele>881.9999999999999</ele><time>2026-04-19T09:06:19Z</time></trkpt><trkpt lat="44.98795796019043" lon="7.3201873716325965"><ele>881.0</ele><time>2026-04-19T09:06:21Z</time></trkpt><trkpt lat="44.98790040864577" lon="7.320241165850267"><ele>880.0</ele><time>2026-04-19T09:06:23Z</time></trkpt><trkpt lat="44.98785230866469" lon="7.320173908066131"><ele>879.0</ele><time>2026-04-19T09:06:24Z</time></trkpt><trkpt lat="44.987823174353935" lon="7.320087582963707"><ele>877.9999999999999</ele><time>2026-04-19T09:06:25Z</time></trkpt><trkpt lat="44.98780619433451" lon="7.319982819511706"><ele>877.0</ele><time>2026-04-19T09:06:26Z</time></trkpt><trkpt lat="44.98778901104983" lon="7.3198961066437835"><ele>876.9999999999999</ele><time>2026-04-19T09:06:27Z</time></trkpt><trkpt lat="44.98777102849949" lon="7.319757281618144"><ele>877.0</ele><time>2026-04-19T09:06:28Z</time></trkpt><trkpt lat="44.98774677499279" lon="7.319635926573631"><ele>877.0</ele><time>2026-04-19T09:06:29Z</time></trkpt><trkpt lat="44.98771623354819" lon="7.319510477593952"><ele>877.0</ele><time>2026-04-19T09:06:30Z</time></trkpt><trkpt lat="44.98769657137636" lon="7.319402798056668"><ele>876.9999999999999</ele><time>2026-04-19T09:06:31Z</time></trkpt><trkpt lat="44.98769749108173" lon="7.319297401290781"><ele>877.0</ele><time>2026-04-19T09:06:32Z</time></trkpt><trkpt lat="44.98771265392292" lon="7.319150482233564"><ele>878.2</ele><time>2026-04-19T09:06:33Z</time></trkpt><trkpt lat="44.98773513480471" lon="7.318961047762032"><ele>879.4000000000001</ele><time>2026-04-19T09:06:34Z</time></trkpt><trkpt lat="44.98777245302586" lon="7.318834324955789"><ele>880.5999999999999</ele><time>2026-04-19T09:06:35Z</time></trkpt><trkpt lat="44.9878059509091" lon="7.318695868158964"><ele>881.8</ele><time>2026-04-19T09:06:36Z</time></trkpt><trkpt lat="44.98786557822136" lon="7.318568035746354"><ele>883.0</ele><time>2026-04-19T09:06:37Z</time></trkpt><trkpt lat="44.987940395800095" lon="7.318425106599289"><ele>887.4</ele><time>2026-04-19T09:06:38Z</time></trkpt><trkpt lat="44.98801896563121" lon="7.3182978602418505"><ele>891.8</ele><time>2026-04-19T09:06:39Z</time></trkpt><trkpt lat="44.98808858763627" lon="7.318186331349044"><ele>896.2</ele><time>2026-04-19T09:06:40Z</time></trkpt><trkpt lat="44.9881331685804" lon="7.3180459591978"><ele>900.6</ele><time>2026-04-19T09:06:41Z</time></trkpt><trkpt lat="44.9881729246492" lon="7.317903328284824"><ele>905.0</ele><time>2026-04-19T09:06:42Z</time></trkpt><trkpt lat="44.988183773502044" lon="7.31775087602445"><ele>908.2</ele><time>2026-04-19T09:06:43Z</time></trkpt><trkpt lat="44.988207310370846" lon="7.317591999597602"><ele>911.4</ele><time>2026-04-19T09:06:44Z</time></trkpt><trkpt lat="44.98820726481726" lon="7.317437368577"><ele>914.5999999999999</ele><time>2026-04-19T09:06:45Z</time></trkpt><trkpt lat="44.98821919140813" lon="7.317309244727861"><ele>917.8</ele><time>2026-04-19T09:06:46Z</time></trkpt><trkpt lat="44.988252284961014" lon="7.31714760219565"><ele>921.0</ele><time>2026-04-19T09:06:47Z</time></trkpt><trkpt lat="44.988274597544546" lon="7.316982172125713"><ele>918.1999999999999</ele><time>2026-04-19T09:06:48Z</time></trkpt><trkpt lat="44.98831071899185" lon="7.316852942217163"><ele>915.3999999999999</ele><time>2026-04-19T09:06:49Z</time></trkpt><trkpt lat="44.988331641468584" lon="7.316679326863149"><ele>912.6</ele><time>2026-04-19T09:06:50Z</time></trkpt><trkpt lat="44.98835237584139" lon="7.316586091090048"><ele>909.8</ele><time>2026-04-19T09:06:51Z</time></trkpt><trkpt lat="44.9884620709382" lon="7.316484348346119"><ele>907.0</ele><time>2026-04-19T09:06:53Z</time></trkpt><trkpt lat="44.988533273041305" lon="7.316469289160532"><ele>907.4000000000001</ele><time>2026-04-19T09:06:54Z</time></trkpt><trkpt lat="44.98858970353847" lon="7.316397747150015"><ele>907.8000000000001</ele><time>2026-04-19T09:06:56Z</time></trkpt><trkpt lat="44.98860427273618" lon="7.316236456960824"><ele>908.2</ele><time>2026-04-19T09:06:58Z</time></trkpt><trkpt lat="44.98857236520374" lon="7.316061019636153"><ele>908.6</ele><time>2026-04-19T09:07:00Z</time></trkpt><trkpt lat="44.988554465538684" lon="7.315948308226444"><ele>909.0</ele><time>2026-04-19T09:07:01Z</time></trkpt><trkpt lat="44.988513213666565" lon="7.315831401680516"><ele>909.0</ele><time>2026-04-19T09:07:02Z</time></trkpt><trkpt lat="44.98845137007874" lon="7.315755591304551"><ele>909.0</ele><time>2026-04-19T09:07:02.999Z</time></trkpt><trkpt lat="44.988387006858495" lon="7.315705386355807"><ele>909.0</ele><time>2026-04-19T09:07:03.999Z</time></trkpt><trkpt lat="44.98830928706174" lon="7.3156826394078545"><ele>909.0</ele><time>2026-04-19T09:07:04.999Z</time></trkpt><trkpt lat="44.98819964565101" lon="7.315726248667538"><ele>909.0</ele><time>2026-04-19T09:07:06.999Z</time></trkpt><trkpt lat="44.988114960308025" lon="7.315731841613922"><ele>909.0</ele><time>2026-04-19T09:07:07.999Z</time></trkpt><trkpt lat="44.98802960733419" lon="7.3156864369879875"><ele>911.3333333333334</ele><time>2026-04-19T09:07:08.999Z</time></trkpt><trkpt lat="44.98795331328918" lon="7.3156186060504425"><ele>913.6666666666667</ele><time>2026-04-19T09:07:09.999Z</time></trkpt><trkpt lat="44.98788824739625" lon="7.315562908804266"><ele>916.0</ele><time>2026-04-19T09:07:10.999Z</time></trkpt><trkpt lat="44.987824928433376" lon="7.315529527938527"><ele>918.3333333333334</ele><time>2026-04-19T09:07:11.999Z</time></trkpt><trkpt lat="44.987742915592285" lon="7.315503068338718"><ele>920.6666666666667</ele><time>2026-04-19T09:07:12.999Z</time></trkpt><trkpt lat="44.98765857477554" lon="7.315483570573927"><ele>923.0</ele><time>2026-04-19T09:07:13.999Z</time></trkpt><trkpt lat="44.98759294417481" lon="7.3154608017934715"><ele>923.0</ele><time>2026-04-19T09:07:14.999Z</time></trkpt><trkpt lat="44.987514084389694" lon="7.315359760311494"><ele>923.0</ele><time>2026-04-19T09:07:16.999Z</time></trkpt><trkpt lat="44.98746251265823" lon="7.315263129109356"><ele>923.0</ele><time>2026-04-19T09:07:17.999Z</time></trkpt><trkpt lat="44.98739568531628" lon="7.315138162490016"><ele>923.0</ele><time>2026-04-19T09:07:18.999Z</time></trkpt><trkpt lat="44.98729773865315" lon="7.314997800648476"><ele>923.0</ele><time>2026-04-19T09:07:19.999Z</time></trkpt><trkpt lat="44.987205085375926" lon="7.314849297929124"><ele>926.5</ele><time>2026-04-19T09:07:20.999Z</time></trkpt><trkpt lat="44.98712868706356" lon="7.31471278592004"><ele>930.0</ele><time>2026-04-19T09:07:21.999Z</time></trkpt><trkpt lat="44.98706352612001" lon="7.314586312171072"><ele>933.5</ele><time>2026-04-19T09:07:22.999Z</time></trkpt><trkpt lat="44.987022204582985" lon="7.314431728097252"><ele>937.0</ele><time>2026-04-19T09:07:23.999Z</time></trkpt><trkpt lat="44.98695338629274" lon="7.314292563111719"><ele>936.9999999999999</ele><time>2026-04-19T09:07:24.999Z</time></trkpt><trkpt lat="44.986881320192694" lon="7.3141772935913805"><ele>937.0</ele><time>2026-04-19T09:07:25.999Z</time></trkpt><trkpt lat="44.98685936133693" lon="7.314022671912675"><ele>937.0</ele><time>2026-04-19T09:07:27.999Z</time></trkpt><trkpt lat="44.98683703471017" lon="7.313905457580611"><ele>937.0</ele><time>2026-04-19T09:07:28.999Z</time></trkpt><trkpt lat="44.98680369615771" lon="7.313815785976741"><ele>936.9999999999999</ele><time>2026-04-19T09:07:29.999Z</time></trkpt><trkpt lat="44.986763776155705" lon="7.313744412895633"><ele>937.0</ele><time>2026-04-19T09:07:30.999Z</time></trkpt><trkpt lat="44.986701693369206" lon="7.313618751514767"><ele>937.8</ele><time>2026-04-19T09:07:32.999Z</time></trkpt><trkpt lat="44.98677732753733" lon="7.313465833601946"><ele>938.6</ele><time>2026-04-19T09:07:34.999Z</time></trkpt><trkpt lat="44.98679204967856" lon="7.313338889261642"><ele>939.3999999999999</ele><time>2026-04-19T09:07:36.999Z</time></trkpt><trkpt lat="44.98677115733408" lon="7.313253095162312"><ele>940.1999999999999</ele><time>2026-04-19T09:07:37.999Z</time></trkpt><trkpt lat="44.986762073928" lon="7.31315234988128"><ele>941.0</ele><time>2026-04-19T09:07:38.999Z</time></trkpt><trkpt lat="44.98673827076464" lon="7.313017619951865"><ele>948.8</ele><time>2026-04-19T09:07:39.999Z</time></trkpt><trkpt lat="44.98665660213371" lon="7.312914874620676"><ele>956.5999999999999</ele><time>2026-04-19T09:07:41.999Z</time></trkpt><trkpt lat="44.986546847071985" lon="7.312877375196074"><ele>964.4</ele><time>2026-04-19T09:07:43.999Z</time></trkpt><trkpt lat="44.98645114745308" lon="7.312868983947083"><ele>972.2</ele><time>2026-04-19T09:07:44.999Z</time></trkpt><trkpt lat="44.98635009127449" lon="7.312815565385652"><ele>980.0</ele><time>2026-04-19T09:07:45.999Z</time></trkpt><trkpt lat="44.98627723007612" lon="7.312734645134357"><ele>980.0000000000001</ele><time>2026-04-19T09:07:46.999Z</time></trkpt><trkpt lat="44.98623595919914" lon="7.312608013952518"><ele>980.0</ele><time>2026-04-19T09:07:47.999Z</time></trkpt><trkpt lat="44.98619296525873" lon="7.312521837072815"><ele>980.0</ele><time>2026-04-19T09:07:48.999Z</time></trkpt><trkpt lat="44.98613939978859" lon="7.3124706002776705"><ele>980.0</ele><time>2026-04-19T09:07:49.999Z</time></trkpt><trkpt lat="44.98608244858275" lon="7.31238498591221"><ele>980.0000000000001</ele><time>2026-04-19T09:07:50.999Z</time></trkpt><trkpt lat="44.986020834284346" lon="7.312326816517076"><ele>980.0</ele><time>2026-04-19T09:07:51.999Z</time></trkpt><trkpt lat="44.98592188135192" lon="7.312293245521119"><ele>981.8</ele><time>2026-04-19T09:07:52.999Z</time></trkpt><trkpt lat="44.98579476717737" lon="7.312244501110538"><ele>983.6</ele><time>2026-04-19T09:07:53.999Z</time></trkpt><trkpt lat="44.98567434827919" lon="7.312185638296694"><ele>985.4000000000001</ele><time>2026-04-19T09:07:54.999Z</time></trkpt><trkpt lat="44.9856031140534" lon="7.312142770777119"><ele>987.2</ele><time>2026-04-19T09:07:55.999Z</time></trkpt><trkpt lat="44.98551015202252" lon="7.312065677078709"><ele>989.0</ele><time>2026-04-19T09:07:56.999Z</time></trkpt><trkpt lat="44.98545353158297" lon="7.31201984557115"><ele>989.0</ele><time>2026-04-19T09:07:57.999Z</time></trkpt><trkpt lat="44.985378301013824" lon="7.311960502429307"><ele>989.0000000000001</ele><time>2026-04-19T09:07:58.999Z</time></trkpt><trkpt lat="44.98529706195019" lon="7.311913385290784"><ele>989.0000000000001</ele><time>2026-04-19T09:07:59.999Z</time></trkpt><trkpt lat="44.98518918768842" lon="7.3118605058540895"><ele>989.0</ele><time>2026-04-19T09:08:00.999Z</time></trkpt><trkpt lat="44.985090246404894" lon="7.311836456097636"><ele>989.0</ele><time>2026-04-19T09:08:01.999Z</time></trkpt><trkpt lat="44.98499009557283" lon="7.311820425667528"><ele>996.25</ele><time>2026-04-19T09:08:02.999Z</time></trkpt><trkpt lat="44.98487760541761" lon="7.311779908211387"><ele>1003.5</ele><time>2026-04-19T09:08:03.999Z</time></trkpt><trkpt lat="44.98476413312616" lon="7.311700906735556"><ele>1010.75</ele><time>2026-04-19T09:08:04.999Z</time></trkpt><trkpt lat="44.98463078957684" lon="7.311660496570598"><ele>1018.0</ele><time>2026-04-19T09:08:06.999Z</time></trkpt><trkpt lat="44.98450107382489" lon="7.3116395638667235"><ele>1017.9999999999999</ele><time>2026-04-19T09:08:07.999Z</time></trkpt><trkpt lat="44.98444804365463" lon="7.311583138508053"><ele>1018.0</ele><time>2026-04-19T09:08:08.999Z</time></trkpt><trkpt lat="44.984396172074234" lon="7.311524210436713"><ele>1018.0</ele><time>2026-04-19T09:08:09.998Z</time></trkpt><trkpt lat="44.98435987729057" lon="7.311425833136724"><ele>1018.0</ele><time>2026-04-19T09:08:10.998Z</time></trkpt><trkpt lat="44.98425601572805" lon="7.311388590977226"><ele>1017.9999999999999</ele><time>2026-04-19T09:08:11.998Z</time></trkpt><trkpt lat="44.98415425252172" lon="7.31131528371849"><ele>1018.0</ele><time>2026-04-19T09:08:12.998Z</time></trkpt><trkpt lat="44.98409307689511" lon="7.311270162725838"><ele>1020.8333333333333</ele><time>2026-04-19T09:08:13.998Z</time></trkpt><trkpt lat="44.984029213367016" lon="7.311207403445597"><ele>1023.6666666666666</ele><time>2026-04-19T09:08:14.998Z</time></trkpt><trkpt lat="44.98397316824367" lon="7.311149686602789"><ele>1026.5</ele><time>2026-04-19T09:08:15.998Z</time></trkpt><trkpt lat="44.983903494337255" lon="7.3111217489428775"><ele>1029.3333333333333</ele><time>2026-04-19T09:08:16.998Z</time></trkpt><trkpt lat="44.98382611152291" lon="7.311101965152704"><ele>1032.1666666666667</ele><time>2026-04-19T09:08:17.998Z</time></trkpt><trkpt lat="44.983754006413214" lon="7.311068957620346"><ele>1035.0</ele><time>2026-04-19T09:08:18.998Z</time></trkpt><trkpt lat="44.983703272479865" lon="7.3109349423118175"><ele>1035.0</ele><time>2026-04-19T09:08:20.998Z</time></trkpt><trkpt lat="44.9836266958712" lon="7.310879328174529"><ele>1035.0</ele><time>2026-04-19T09:08:23Z</time></trkpt><trkpt lat="44.983705223845874" lon="7.310981939584794"><ele>1035.0</ele><time>2026-04-19T09:09:09Z</time></trkpt><trkpt lat="44.983792189532465" lon="7.311058077513584"><ele>1035.0</ele><time>2026-04-19T09:09:11Z</time></trkpt><trkpt lat="44.983840999882176" lon="7.311120943556398"><ele>1035.0</ele><time>2026-04-19T09:09:12Z</time></trkpt><trkpt lat="44.98393930942126" lon="7.311130857919464"><ele>1035.0</ele><time>2026-04-19T09:09:14Z</time></trkpt><trkpt lat="44.98405274571415" lon="7.311207768399792"><ele>1035.0</ele><time>2026-04-19T09:09:16Z</time></trkpt><trkpt lat="44.98413297802488" lon="7.311279990813048"><ele>1035.0</ele><time>2026-04-19T09:09:18Z</time></trkpt><trkpt lat="44.984229954316085" lon="7.311357636913906"><ele>1035.0</ele><time>2026-04-19T09:09:19.999Z</time></trkpt><trkpt lat="44.98429824484451" lon="7.311411166637573"><ele>1035.0</ele><time>2026-04-19T09:09:20.999Z</time></trkpt><trkpt lat="44.984366385792086" lon="7.311469653408978"><ele>1031.6</ele><time>2026-04-19T09:09:21.999Z</time></trkpt><trkpt lat="44.984455593550756" lon="7.311564986141747"><ele>1028.2</ele><time>2026-04-19T09:09:23.999Z</time></trkpt><trkpt lat="44.98451952408248" lon="7.311595557958098"><ele>1024.8</ele><time>2026-04-19T09:09:24.999Z</time></trkpt><trkpt lat="44.9846476945691" lon="7.311646139401183"><ele>1021.4</ele><time>2026-04-19T09:09:26.999Z</time></trkpt><trkpt lat="44.98471214320001" lon="7.311653072089356"><ele>1018.0</ele><time>2026-04-19T09:09:27.999Z</time></trkpt><trkpt lat="44.98482795652507" lon="7.311728228350326"><ele>1018.0</ele><time>2026-04-19T09:09:29.999Z</time></trkpt><trkpt lat="44.98494043734718" lon="7.311790690085825"><ele>1018.0</ele><time>2026-04-19T09:09:31.999Z</time></trkpt><trkpt lat="44.985038436750415" lon="7.31181873368728"><ele>1018.0</ele><time>2026-04-19T09:09:32.999Z</time></trkpt><trkpt lat="44.9851171111169" lon="7.311827064839697"><ele>1018.0</ele><time>2026-04-19T09:09:33.999Z</time></trkpt><trkpt lat="44.985201550095326" lon="7.311823602982094"><ele>1018.0</ele><time>2026-04-19T09:09:34.999Z</time></trkpt><trkpt lat="44.985291799612575" lon="7.311864578950452"><ele>1012.2</ele><time>2026-04-19T09:09:35.999Z</time></trkpt><trkpt lat="44.98541195546848" lon="7.311960770215576"><ele>1006.4</ele><time>2026-04-19T09:09:37.999Z</time></trkpt><trkpt lat="44.9854723153472" lon="7.31202549315101"><ele>1000.6000000000001</ele><time>2026-04-19T09:09:38.999Z</time></trkpt><trkpt lat="44.98555678303603" lon="7.3120698482641275"><ele>994.8000000000001</ele><time>2026-04-19T09:09:39.999Z</time></trkpt><trkpt lat="44.98562894279769" lon="7.312127984407257"><ele>989.0</ele><time>2026-04-19T09:09:40.999Z</time></trkpt><trkpt lat="44.98570695799942" lon="7.312178695783698"><ele>989.0000000000001</ele><time>2026-04-19T09:09:41.999Z</time></trkpt><trkpt lat="44.98578258324206" lon="7.312217482058746"><ele>989.0</ele><time>2026-04-19T09:09:42.999Z</time></trkpt><trkpt lat="44.985842990318886" lon="7.312251506932746"><ele>989.0</ele><time>2026-04-19T09:09:43.999Z</time></trkpt><trkpt lat="44.98596450982473" lon="7.312295920496962"><ele>989.0</ele><time>2026-04-19T09:09:45.999Z</time></trkpt><trkpt lat="44.98602826697033" lon="7.312334323681157"><ele>989.0000000000001</ele><time>2026-04-19T09:09:46.999Z</time></trkpt><trkpt lat="44.98608633880204" lon="7.312377487165764"><ele>989.0</ele><time>2026-04-19T09:09:47.999Z</time></trkpt><trkpt lat="44.986140672554555" lon="7.3124318567970565"><ele>987.2</ele><time>2026-04-19T09:09:48.999Z</time></trkpt><trkpt lat="44.98619637327349" lon="7.312514218641083"><ele>985.4000000000001</ele><time>2026-04-19T09:09:49.999Z</time></trkpt><trkpt lat="44.986256659008504" lon="7.312613691695752"><ele>983.6</ele><time>2026-04-19T09:09:51.999Z</time></trkpt><trkpt lat="44.986324009127806" lon="7.312747803233909"><ele>981.8</ele><time>2026-04-19T09:09:53.999Z</time></trkpt><trkpt lat="44.98638672043689" lon="7.312817226353679"><ele>980.0</ele><time>2026-04-19T09:09:54.999Z</time></trkpt><trkpt lat="44.98650400662317" lon="7.312855552443041"><ele>980.0</ele><time>2026-04-19T09:09:56.999Z</time></trkpt><trkpt lat="44.98657503388978" lon="7.312875103008345"><ele>980.0</ele><time>2026-04-19T09:09:57.999Z</time></trkpt><trkpt lat="44.9866557013108" lon="7.312912682263777"><ele>980.0</ele><time>2026-04-19T09:09:59.999Z</time></trkpt><trkpt lat="44.986707428847694" lon="7.312980842887453"><ele>980.0</ele><time>2026-04-19T09:10:01.999Z</time></trkpt><trkpt lat="44.98676008326197" lon="7.3130949769636935"><ele>980.0</ele><time>2026-04-19T09:10:03.999Z</time></trkpt><trkpt lat="44.98677387302671" lon="7.313277139509086"><ele>972.2</ele><time>2026-04-19T09:10:05.999Z</time></trkpt><trkpt lat="44.986758484173926" lon="7.313419054553771"><ele>964.4</ele><time>2026-04-19T09:10:07.999Z</time></trkpt><trkpt lat="44.98673523040106" lon="7.313564590265641"><ele>956.5999999999999</ele><time>2026-04-19T09:10:09.999Z</time></trkpt><trkpt lat="44.98670996976312" lon="7.313704393133954"><ele>948.8</ele><time>2026-04-19T09:10:11.999Z</time></trkpt><trkpt lat="44.986750961627976" lon="7.313784813812331"><ele>941.0</ele><time>2026-04-19T09:10:12.999Z</time></trkpt><trkpt lat="44.986841219012085" lon="7.313720795784675"><ele>941.0000000000001</ele><time>2026-04-19T09:10:14.999Z</time></trkpt><trkpt lat="44.98688820449919" lon="7.3136095954075415"><ele>941.0</ele><time>2026-04-19T09:10:16.999Z</time></trkpt><trkpt lat="44.98692114148726" lon="7.313490915066186"><ele>941.0</ele><time>2026-04-19T09:10:17.999Z</time></trkpt><trkpt lat="44.98694931770662" lon="7.313376930668316"><ele>941.0</ele><time>2026-04-19T09:10:18.999Z</time></trkpt><trkpt lat="44.98696237864759" lon="7.313265425714383"><ele>941.0000000000001</ele><time>2026-04-19T09:10:19.999Z</time></trkpt><trkpt lat="44.98697123072744" lon="7.313134230825313"><ele>941.0</ele><time>2026-04-19T09:10:20.998Z</time></trkpt><trkpt lat="44.986989404777596" lon="7.313030891123297"><ele>941.1999999999999</ele><time>2026-04-19T09:10:21.998Z</time></trkpt><trkpt lat="44.98696794689402" lon="7.312930246911277"><ele>941.3999999999999</ele><time>2026-04-19T09:10:22.998Z</time></trkpt><trkpt lat="44.98692701886269" lon="7.3128550846035845"><ele>941.6</ele><time>2026-04-19T09:10:23.998Z</time></trkpt><trkpt lat="44.9868629028319" lon="7.312717161335088"><ele>941.8</ele><time>2026-04-19T09:10:24.998Z</time></trkpt><trkpt lat="44.986759998460386" lon="7.312608943541533"><ele>942.0</ele><time>2026-04-19T09:10:25.998Z</time></trkpt><trkpt lat="44.98668907384508" lon="7.312468283568159"><ele>945.8</ele><time>2026-04-19T09:10:26.998Z</time></trkpt><trkpt lat="44.98659930261296" lon="7.312318646052902"><ele>949.6</ele><time>2026-04-19T09:10:27.998Z</time></trkpt><trkpt lat="44.98650792353359" lon="7.312167558787264"><ele>953.3999999999999</ele><time>2026-04-19T09:10:29.001Z</time></trkpt><trkpt lat="44.98643921438993" lon="7.31209528257776"><ele>957.1999999999999</ele><time>2026-04-19T09:10:30.001Z</time></trkpt><trkpt lat="44.98638734742455" lon="7.312020800904614"><ele>961.0</ele><time>2026-04-19T09:10:31.001Z</time></trkpt><trkpt lat="44.986263910028136" lon="7.311920398137147"><ele>961.0</ele><time>2026-04-19T09:10:33.001Z</time></trkpt><trkpt lat="44.9861357618475" lon="7.311863104425993"><ele>961.0</ele><time>2026-04-19T09:10:34.001Z</time></trkpt><trkpt lat="44.98600473770419" lon="7.31180635407445"><ele>961.0</ele><time>2026-04-19T09:10:35.001Z</time></trkpt><trkpt lat="44.985851328978534" lon="7.31172477690571"><ele>961.0</ele><time>2026-04-19T09:10:36.001Z</time></trkpt><trkpt lat="44.98571881447462" lon="7.311680712237753"><ele>959.75</ele><time>2026-04-19T09:10:37Z</time></trkpt><trkpt lat="44.98558139924272" lon="7.311583383413684"><ele>958.5</ele><time>2026-04-19T09:10:38Z</time></trkpt><trkpt lat="44.985455750332015" lon="7.311468493328677"><ele>957.25</ele><time>2026-04-19T09:10:39Z</time></trkpt><trkpt lat="44.985350597378456" lon="7.311402827406021"><ele>956.0</ele><time>2026-04-19T09:10:40Z</time></trkpt><trkpt lat="44.98524634146887" lon="7.3113300115912105"><ele>956.0</ele><time>2026-04-19T09:10:41Z</time></trkpt><trkpt lat="44.98515629712349" lon="7.3112170325701555"><ele>955.9999999999999</ele><time>2026-04-19T09:10:42Z</time></trkpt><trkpt lat="44.985093920314384" lon="7.311109090171619"><ele>955.9999999999999</ele><time>2026-04-19T09:10:43Z</time></trkpt><trkpt lat="44.98502754717061" lon="7.310999489924062"><ele>956.0</ele><time>2026-04-19T09:10:44Z</time></trkpt><trkpt lat="44.98497324728364" lon="7.310942838109981"><ele>956.0</ele><time>2026-04-19T09:10:45Z</time></trkpt><trkpt lat="44.98488072072172" lon="7.310878774006585"><ele>959.0</ele><time>2026-04-19T09:10:46Z</time></trkpt><trkpt lat="44.98477276927809" lon="7.310810218299748"><ele>962.0</ele><time>2026-04-19T09:10:47Z</time></trkpt><trkpt lat="44.984649399978785" lon="7.31069534062609"><ele>965.0</ele><time>2026-04-19T09:10:48Z</time></trkpt><trkpt lat="44.984540264361065" lon="7.310565676130114"><ele>968.0</ele><time>2026-04-19T09:10:49Z</time></trkpt><trkpt lat="44.98442739571278" lon="7.310434125216417"><ele>968.0</ele><time>2026-04-19T09:10:50Z</time></trkpt><trkpt lat="44.98436581384355" lon="7.310327952276276"><ele>968.0</ele><time>2026-04-19T09:10:51Z</time></trkpt><trkpt lat="44.98432582566608" lon="7.31019292946915"><ele>968.0</ele><time>2026-04-19T09:10:52Z</time></trkpt><trkpt lat="44.984272873976366" lon="7.3100197342471676"><ele>968.0</ele><time>2026-04-19T09:10:53Z</time></trkpt><trkpt lat="44.98422003791559" lon="7.30984749523867"><ele>975.4</ele><time>2026-04-19T09:10:54Z</time></trkpt><trkpt lat="44.984158538000635" lon="7.309713543851662"><ele>982.8</ele><time>2026-04-19T09:10:55Z</time></trkpt><trkpt lat="44.98412039134236" lon="7.309576682342428"><ele>990.2</ele><time>2026-04-19T09:10:56Z</time></trkpt><trkpt lat="44.984046738785196" lon="7.3094904134855145"><ele>997.6</ele><time>2026-04-19T09:10:58Z</time></trkpt><trkpt lat="44.98405450538511" lon="7.309364466510187"><ele>1005.0</ele><time>2026-04-19T09:10:59Z</time></trkpt><trkpt lat="44.98407474416369" lon="7.3092013331011945"><ele>1005.0</ele><time>2026-04-19T09:11:00Z</time></trkpt><trkpt lat="44.98406367222394" lon="7.309073029537647"><ele>1005.0</ele><time>2026-04-19T09:11:01Z</time></trkpt><trkpt lat="44.984032050662904" lon="7.308987187223132"><ele>1005.0</ele><time>2026-04-19T09:11:02Z</time></trkpt><trkpt lat="44.983998882064526" lon="7.308902358798256"><ele>1005.0</ele><time>2026-04-19T09:11:03Z</time></trkpt><trkpt lat="44.98395774010072" lon="7.308805801110521"><ele>1005.0</ele><time>2026-04-19T09:11:04Z</time></trkpt><trkpt lat="44.983903382662646" lon="7.308712282831251"><ele>1005.0</ele><time>2026-04-19T09:11:05Z</time></trkpt><trkpt lat="44.98388106293156" lon="7.308616192085155"><ele>1006.0000000000001</ele><time>2026-04-19T09:11:06Z</time></trkpt><trkpt lat="44.983899493278344" lon="7.308515812757817"><ele>1007.0</ele><time>2026-04-19T09:11:08Z</time></trkpt><trkpt lat="44.98395438048797" lon="7.308423125438121"><ele>1008.0000000000001</ele><time>2026-04-19T09:11:10Z</time></trkpt><trkpt lat="44.98400627294905" lon="7.308366904948826"><ele>1009.0000000000001</ele><time>2026-04-19T09:11:11Z</time></trkpt><trkpt lat="44.98405186366205" lon="7.308301477084064"><ele>1010.0</ele><time>2026-04-19T09:11:12Z</time></trkpt><trkpt lat="44.9840950779337" lon="7.308225286746001"><ele>1011.0000000000001</ele><time>2026-04-19T09:11:13Z</time></trkpt><trkpt lat="44.98412673694717" lon="7.308139559513678"><ele>1012.0000000000001</ele><time>2026-04-19T09:11:14Z</time></trkpt><trkpt lat="44.98414675465467" lon="7.307940482455061"><ele>1008.8</ele><time>2026-04-19T09:11:16Z</time></trkpt><trkpt lat="44.984173635718584" lon="7.307824009205147"><ele>1005.6</ele><time>2026-04-19T09:11:17Z</time></trkpt><trkpt lat="44.984223222414215" lon="7.307713177757815"><ele>1002.3999999999999</ele><time>2026-04-19T09:11:18Z</time></trkpt><trkpt lat="44.984255288859885" lon="7.307617157962777"><ele>999.1999999999999</ele><time>2026-04-19T09:11:19Z</time></trkpt><trkpt lat="44.984361519883166" lon="7.307548381529169"><ele>996.0</ele><time>2026-04-19T09:11:21Z</time></trkpt><trkpt lat="44.98448442852778" lon="7.307445097656258"><ele>996.0</ele><time>2026-04-19T09:11:23Z</time></trkpt><trkpt lat="44.984533306506094" lon="7.307371505517807"><ele>996.0</ele><time>2026-04-19T09:11:24Z</time></trkpt><trkpt lat="44.98456984539845" lon="7.307205720005909"><ele>996.0</ele><time>2026-04-19T09:11:26Z</time></trkpt><trkpt lat="44.984576483264675" lon="7.307090560569163"><ele>996.0</ele><time>2026-04-19T09:11:26.999Z</time></trkpt><trkpt lat="44.98459445628976" lon="7.306995148746802"><ele>996.0</ele><time>2026-04-19T09:11:27.999Z</time></trkpt><trkpt lat="44.98458604602161" lon="7.306904924600713"><ele>996.0</ele><time>2026-04-19T09:11:28.999Z</time></trkpt><trkpt lat="44.984556041327664" lon="7.306821920103756"><ele>997.0</ele><time>2026-04-19T09:11:29.999Z</time></trkpt><trkpt lat="44.98450212337112" lon="7.306727980102069"><ele>998.0</ele><time>2026-04-19T09:11:30.999Z</time></trkpt><trkpt lat="44.98442934376382" lon="7.306652954253073"><ele>999.0</ele><time>2026-04-19T09:11:31.999Z</time></trkpt><trkpt lat="44.9843609691522" lon="7.30658589362875"><ele>1000.0</ele><time>2026-04-19T09:11:32.999Z</time></trkpt><trkpt lat="44.984323392448175" lon="7.306473213961035"><ele>1001.0</ele><time>2026-04-19T09:11:33.999Z</time></trkpt><trkpt lat="44.98426721129001" lon="7.30635798864926"><ele>1002.0</ele><time>2026-04-19T09:11:34.999Z</time></trkpt><trkpt lat="44.984189054531925" lon="7.306233119311386"><ele>1003.75</ele><time>2026-04-19T09:11:35.999Z</time></trkpt><trkpt lat="44.98410661426944" lon="7.306098943186238"><ele>1005.5</ele><time>2026-04-19T09:11:36.999Z</time></trkpt><trkpt lat="44.98401741827988" lon="7.305955641355003"><ele>1007.25</ele><time>2026-04-19T09:11:37.999Z</time></trkpt><trkpt lat="44.98394261728454" lon="7.305808023436749"><ele>1009.0</ele><time>2026-04-19T09:11:38.999Z</time></trkpt><trkpt lat="44.983873681945425" lon="7.3056522649252065"><ele>1004.5</ele><time>2026-04-19T09:11:39.999Z</time></trkpt><trkpt lat="44.98381318849115" lon="7.305482168621268"><ele>1000.0</ele><time>2026-04-19T09:11:40.999Z</time></trkpt><trkpt lat="44.98375585819956" lon="7.3053244938512005"><ele>995.5</ele><time>2026-04-19T09:11:41.999Z</time></trkpt><trkpt lat="44.98369756432659" lon="7.305179035577109"><ele>991.0</ele><time>2026-04-19T09:11:42.999Z</time></trkpt><trkpt lat="44.983650421877" lon="7.3050637743134095"><ele>991.0</ele><time>2026-04-19T09:11:43.999Z</time></trkpt><trkpt lat="44.983605982148454" lon="7.304954924154509"><ele>990.9999999999999</ele><time>2026-04-19T09:11:44.999Z</time></trkpt><trkpt lat="44.98354768951509" lon="7.304862689084094"><ele>990.9999999999999</ele><time>2026-04-19T09:11:45.999Z</time></trkpt><trkpt lat="44.98347793554233" lon="7.304780295811493"><ele>991.0</ele><time>2026-04-19T09:11:46.999Z</time></trkpt><trkpt lat="44.983401256761255" lon="7.304701093201767"><ele>991.0</ele><time>2026-04-19T09:11:47.999Z</time></trkpt><trkpt lat="44.98332454850653" lon="7.304621670260046"><ele>997.1999999999999</ele><time>2026-04-19T09:11:48.999Z</time></trkpt><trkpt lat="44.983243235691496" lon="7.304543420695594"><ele>1003.3999999999999</ele><time>2026-04-19T09:11:49.999Z</time></trkpt><trkpt lat="44.983166451770714" lon="7.304473226375711"><ele>1009.6</ele><time>2026-04-19T09:11:50.999Z</time></trkpt><trkpt lat="44.98309699689329" lon="7.304433786360573"><ele>1015.8</ele><time>2026-04-19T09:11:51.999Z</time></trkpt><trkpt lat="44.98305041679775" lon="7.3043092917991945"><ele>1022.0</ele><time>2026-04-19T09:11:53.999Z</time></trkpt><trkpt lat="44.98311159499717" lon="7.304146963224912"><ele>1022.0000000000001</ele><time>2026-04-19T09:11:55.999Z</time></trkpt><trkpt lat="44.983152836875604" lon="7.304070428465356"><ele>1022.0</ele><time>2026-04-19T09:11:56.999Z</time></trkpt><trkpt lat="44.98319646733691" lon="7.30396976774912"><ele>1022.0</ele><time>2026-04-19T09:11:57.999Z</time></trkpt><trkpt lat="44.98322789811004" lon="7.303839080464424"><ele>1022.0</ele><time>2026-04-19T09:11:58.999Z</time></trkpt><trkpt lat="44.98324923307389" lon="7.303707475697997"><ele>1022.0000000000001</ele><time>2026-04-19T09:11:59.999Z</time></trkpt><trkpt lat="44.983274963332896" lon="7.303604456577733"><ele>1022.0</ele><time>2026-04-19T09:12:00.999Z</time></trkpt><trkpt lat="44.983308407813176" lon="7.303513296651353"><ele>1022.0</ele><time>2026-04-19T09:12:01.999Z</time></trkpt><trkpt lat="44.98330542867944" lon="7.303375703389459"><ele>1022.0</ele><time>2026-04-19T09:12:03.999Z</time></trkpt><trkpt lat="44.98325931588617" lon="7.3032925972139315"><ele>1022.0</ele><time>2026-04-19T09:12:04.999Z</time></trkpt><trkpt lat="44.983196114217996" lon="7.303185688670995"><ele>1022.0</ele><time>2026-04-19T09:12:05.999Z</time></trkpt><trkpt lat="44.98312383618822" lon="7.303068304063199"><ele>1022.0</ele><time>2026-04-19T09:12:06.999Z</time></trkpt><trkpt lat="44.98305373965274" lon="7.302926924789406"><ele>1020.5000000000001</ele><time>2026-04-19T09:12:07.999Z</time></trkpt><trkpt lat="44.98297962152336" lon="7.302783388658746"><ele>1019.0</ele><time>2026-04-19T09:12:08.999Z</time></trkpt><trkpt lat="44.98291976837857" lon="7.302726315956792"><ele>1017.5</ele><time>2026-04-19T09:12:09.999Z</time></trkpt><trkpt lat="44.98286469843689" lon="7.302638760343468"><ele>1016.0</ele><time>2026-04-19T09:12:10.999Z</time></trkpt><trkpt lat="44.982794909736064" lon="7.3026438158063804"><ele>1014.5000000000001</ele><time>2026-04-19T09:12:12.999Z</time></trkpt><trkpt lat="44.98271816209247" lon="7.302681939937645"><ele>1013.0</ele><time>2026-04-19T09:12:30.998Z</time></trkpt><trkpt lat="44.982581545794766" lon="7.302748845013451"><ele>1015.0</ele><time>2026-04-19T09:12:32.998Z</time></trkpt><trkpt lat="44.98244806078954" lon="7.302756365333431"><ele>1017.0</ele><time>2026-04-19T09:12:33.998Z</time></trkpt><trkpt lat="44.98229752565572" lon="7.302752647882624"><ele>1019.0</ele><time>2026-04-19T09:12:35Z</time></trkpt><trkpt lat="44.98218014011469" lon="7.302748476733278"><ele>1021.0</ele><time>2026-04-19T09:12:36Z</time></trkpt><trkpt lat="44.98210524092748" lon="7.302790970717068"><ele>1020.9999999999999</ele><time>2026-04-19T09:12:37Z</time></trkpt><trkpt lat="44.98203740641959" lon="7.302820936327752"><ele>1021.0</ele><time>2026-04-19T09:12:38Z</time></trkpt><trkpt lat="44.98196559006527" lon="7.302842797203424"><ele>1021.0</ele><time>2026-04-19T09:12:39Z</time></trkpt><trkpt lat="44.98188104183966" lon="7.302824235900673"><ele>1021.0</ele><time>2026-04-19T09:12:41Z</time></trkpt><trkpt lat="44.981824188950675" lon="7.302764410482583"><ele>1020.9999999999999</ele><time>2026-04-19T09:12:44Z</time></trkpt><trkpt lat="44.981719175486255" lon="7.3026745194633955"><ele>1021.0</ele><time>2026-04-19T09:12:47Z</time></trkpt><trkpt lat="44.981671826458715" lon="7.302614479362926"><ele>1024.2</ele><time>2026-04-19T09:12:48Z</time></trkpt><trkpt lat="44.98159341214668" lon="7.302610998887113"><ele>1027.3999999999999</ele><time>2026-04-19T09:12:50Z</time></trkpt><trkpt lat="44.9814901421553" lon="7.302636533166835"><ele>1030.6</ele><time>2026-04-19T09:12:52Z</time></trkpt><trkpt lat="44.98141895425004" lon="7.302657181833983"><ele>1033.8</ele><time>2026-04-19T09:12:53Z</time></trkpt><trkpt lat="44.98131145236626" lon="7.302712370583871"><ele>1037.0</ele><time>2026-04-19T09:12:55Z</time></trkpt><trkpt lat="44.98119729696388" lon="7.30271042610887"><ele>1037.0</ele><time>2026-04-19T09:12:57Z</time></trkpt><trkpt lat="44.98110786424216" lon="7.302749503590806"><ele>1037.0</ele><time>2026-04-19T09:12:58Z</time></trkpt><trkpt lat="44.981042669605635" lon="7.302769227687836"><ele>1037.0</ele><time>2026-04-19T09:12:59Z</time></trkpt><trkpt lat="44.98095002172767" lon="7.302803073712814"><ele>1037.0</ele><time>2026-04-19T09:13:01Z</time></trkpt><trkpt lat="44.98084476654944" lon="7.302897254087155"><ele>1037.0</ele><time>2026-04-19T09:13:03Z</time></trkpt><trkpt lat="44.9807611068742" lon="7.302911696868009"><ele>1040.0</ele><time>2026-04-19T09:13:04Z</time></trkpt><trkpt lat="44.980700014855394" lon="7.302872769785185"><ele>1043.0</ele><time>2026-04-19T09:13:06Z</time></trkpt><trkpt lat="44.98067629078678" lon="7.302722875079831"><ele>1046.0</ele><time>2026-04-19T09:13:09Z</time></trkpt><trkpt lat="44.98067287000061" lon="7.302630500500576"><ele>1049.0</ele><time>2026-04-19T09:13:10Z</time></trkpt><trkpt lat="44.980643705294376" lon="7.302540866145981"><ele>1052.0</ele><time>2026-04-19T09:13:11Z</time></trkpt><trkpt lat="44.98056690348175" lon="7.302432843607929"><ele>1055.0</ele><time>2026-04-19T09:13:13Z</time></trkpt><trkpt lat="44.98050095582438" lon="7.30232304513241"><ele>1055.0</ele><time>2026-04-19T09:13:15Z</time></trkpt><trkpt lat="44.98043857121522" lon="7.30228463468581"><ele>1055.0</ele><time>2026-04-19T09:13:16Z</time></trkpt><trkpt lat="44.9803719366063" lon="7.302266633064777"><ele>1055.0</ele><time>2026-04-19T09:13:17Z</time></trkpt><trkpt lat="44.98027582577639" lon="7.302241017291167"><ele>1055.0</ele><time>2026-04-19T09:13:19Z</time></trkpt><trkpt lat="44.98020161983314" lon="7.302219467564124"><ele>1055.0</ele><time>2026-04-19T09:13:21Z</time></trkpt><trkpt lat="44.98012810007107" lon="7.302220107122969"><ele>1055.0</ele><time>2026-04-19T09:13:23Z</time></trkpt><trkpt lat="44.98005346610699" lon="7.30225170882252"><ele>1056.8333333333335</ele><time>2026-04-19T09:13:25Z</time></trkpt><trkpt lat="44.97997999179473" lon="7.302235201860654"><ele>1058.6666666666667</ele><time>2026-04-19T09:13:26.999Z</time></trkpt><trkpt lat="44.979918270153775" lon="7.302217028934577"><ele>1060.5</ele><time>2026-04-19T09:13:27.999Z</time></trkpt><trkpt lat="44.9798639690889" lon="7.302167682930857"><ele>1062.3333333333333</ele><time>2026-04-19T09:13:28.999Z</time></trkpt><trkpt lat="44.97970194321414" lon="7.302138719939053"><ele>1064.1666666666665</ele><time>2026-04-19T09:13:30.999Z</time></trkpt><trkpt lat="44.9796355718905" lon="7.302067665171082"><ele>1066.0</ele><time>2026-04-19T09:13:32.999Z</time></trkpt><trkpt lat="44.979563170039135" lon="7.302055979932318"><ele>1066.0</ele><time>2026-04-19T09:13:34.999Z</time></trkpt><trkpt lat="44.979480220994134" lon="7.3019894111717925"><ele>1066.0</ele><time>2026-04-19T09:13:36.999Z</time></trkpt><trkpt lat="44.979413353172454" lon="7.301966090617345"><ele>1066.0</ele><time>2026-04-19T09:13:37.999Z</time></trkpt><trkpt lat="44.9793244130922" lon="7.301954056756321"><ele>1066.0</ele><time>2026-04-19T09:13:39.999Z</time></trkpt><trkpt lat="44.979224114872494" lon="7.301911383049033"><ele>1066.0</ele><time>2026-04-19T09:13:41.999Z</time></trkpt><trkpt lat="44.979160207968434" lon="7.30186307605415"><ele>1066.0</ele><time>2026-04-19T09:13:42.999Z</time></trkpt><trkpt lat="44.979073223010374" lon="7.301787390232927"><ele>1073.0</ele><time>2026-04-19T09:13:44.999Z</time></trkpt><trkpt lat="44.978985408202746" lon="7.3017678182240795"><ele>1080.0</ele><time>2026-04-19T09:13:46.999Z</time></trkpt><trkpt lat="44.97892378463829" lon="7.301798601849667"><ele>1087.0</ele><time>2026-04-19T09:13:50.999Z</time></trkpt><trkpt lat="44.97883814189982" lon="7.301878347827953"><ele>1094.0</ele><time>2026-04-19T09:16:17.999Z</time></trkpt><trkpt lat="44.97870833273747" lon="7.301889096908137"><ele>1101.0</ele><time>2026-04-19T09:16:19.998Z</time></trkpt><trkpt lat="44.978598618432585" lon="7.3019235530952145"><ele>1101.0</ele><time>2026-04-19T09:16:21.998Z</time></trkpt><trkpt lat="44.97850905222081" lon="7.30196228555336"><ele>1101.0</ele><time>2026-04-19T09:16:23.998Z</time></trkpt><trkpt lat="44.978438347017" lon="7.3019465118665"><ele>1101.0</ele><time>2026-04-19T09:16:25.998Z</time></trkpt><trkpt lat="44.978364465793476" lon="7.301900047378558"><ele>1101.0</ele><time>2026-04-19T09:16:28.998Z</time></trkpt><trkpt lat="44.97832780567667" lon="7.301823671582072"><ele>1101.0</ele><time>2026-04-19T09:16:30.998Z</time></trkpt><trkpt lat="44.978340515783586" lon="7.301713581220936"><ele>1101.0</ele><time>2026-04-19T09:16:32.998Z</time></trkpt><trkpt lat="44.978386154727644" lon="7.301557902515905"><ele>1101.0</ele><time>2026-04-19T09:16:34.998Z</time></trkpt><trkpt lat="44.97841065848395" lon="7.301471914283505"><ele>1101.0</ele><time>2026-04-19T09:16:35.998Z</time></trkpt><trkpt lat="44.978396691817416" lon="7.30132106380509"><ele>1101.0</ele><time>2026-04-19T09:16:37.998Z</time></trkpt><trkpt lat="44.97837292790157" lon="7.301117502322268"><ele>1101.0</ele><time>2026-04-19T09:16:39.998Z</time></trkpt><trkpt lat="44.978367912160856" lon="7.301006517967737"><ele>1101.0</ele><time>2026-04-19T09:16:40.998Z</time></trkpt><trkpt lat="44.978338199191576" lon="7.3009262597465865"><ele>1105.0</ele><time>2026-04-19T09:16:41.998Z</time></trkpt><trkpt lat="44.978311430239195" lon="7.300837065028992"><ele>1109.0</ele><time>2026-04-19T09:16:42.998Z</time></trkpt><trkpt lat="44.97829754594233" lon="7.300739376174135"><ele>1113.0</ele><time>2026-04-19T09:16:43.998Z</time></trkpt><trkpt lat="44.978317724073435" lon="7.3005834660588445"><ele>1117.0</ele><time>2026-04-19T09:16:46Z</time></trkpt><trkpt lat="44.97833415439829" lon="7.300491668344099"><ele>1121.0</ele><time>2026-04-19T09:16:47Z</time></trkpt><trkpt lat="44.978359410918586" lon="7.300395709665922"><ele>1125.0</ele><time>2026-04-19T09:16:48Z</time></trkpt><trkpt lat="44.97837805647833" lon="7.30029989395467"><ele>1125.0</ele><time>2026-04-19T09:16:49Z</time></trkpt><trkpt lat="44.978390361202116" lon="7.300156438137737"><ele>1125.0</ele><time>2026-04-19T09:16:51Z</time></trkpt><trkpt lat="44.97846587745127" lon="7.300053103241338"><ele>1125.0</ele><time>2026-04-19T09:16:54Z</time></trkpt><trkpt lat="44.97853623684821" lon="7.300029245939795"><ele>1125.0</ele><time>2026-04-19T09:16:55Z</time></trkpt><trkpt lat="44.97860972326856" lon="7.300006180662521"><ele>1125.0</ele><time>2026-04-19T09:16:56Z</time></trkpt><trkpt lat="44.97867690338025" lon="7.299994850490568"><ele>1125.0</ele><time>2026-04-19T09:16:57Z</time></trkpt><trkpt lat="44.97882349399894" lon="7.2999360787158665"><ele>1125.0</ele><time>2026-04-19T09:16:59Z</time></trkpt><trkpt lat="44.97888538955344" lon="7.299873075475108"><ele>1125.0</ele><time>2026-04-19T09:17:00Z</time></trkpt><trkpt lat="44.97894709981007" lon="7.299806877680958"><ele>1125.0</ele><time>2026-04-19T09:17:01Z</time></trkpt><trkpt lat="44.97899471397194" lon="7.299746060223461"><ele>1125.0</ele><time>2026-04-19T09:17:02Z</time></trkpt><trkpt lat="44.97904995238029" lon="7.299691419195075"><ele>1125.0</ele><time>2026-04-19T09:17:03Z</time></trkpt><trkpt lat="44.9791033284431" lon="7.299636707240011"><ele>1125.0</ele><time>2026-04-19T09:17:04Z</time></trkpt><trkpt lat="44.9792269571466" lon="7.2995265368477025"><ele>1124.3333333333333</ele><time>2026-04-19T09:17:06Z</time></trkpt><trkpt lat="44.97930496992151" lon="7.299427982678302"><ele>1123.6666666666667</ele><time>2026-04-19T09:17:08Z</time></trkpt><trkpt lat="44.979363944002024" lon="7.299379104866807"><ele>1123.0</ele><time>2026-04-19T09:17:09Z</time></trkpt><trkpt lat="44.97942695470139" lon="7.2993235838218276"><ele>1122.3333333333335</ele><time>2026-04-19T09:17:10Z</time></trkpt><trkpt lat="44.97951775121172" lon="7.299220223688624"><ele>1121.6666666666667</ele><time>2026-04-19T09:17:12Z</time></trkpt><trkpt lat="44.979563686100185" lon="7.299126498978362"><ele>1121.0</ele><time>2026-04-19T09:17:14Z</time></trkpt><trkpt lat="44.97949902536933" lon="7.299024303443219"><ele>1121.0</ele><time>2026-04-19T09:17:16Z</time></trkpt><trkpt lat="44.97940469351667" lon="7.2989377809456"><ele>1121.0</ele><time>2026-04-19T09:17:18Z</time></trkpt><trkpt lat="44.979342347305" lon="7.298913116589621"><ele>1121.0</ele><time>2026-04-19T09:17:18.999Z</time></trkpt><trkpt lat="44.979272648878485" lon="7.298851422533744"><ele>1121.0</ele><time>2026-04-19T09:17:20.999Z</time></trkpt><trkpt lat="44.97921684613213" lon="7.29872264428559"><ele>1121.0</ele><time>2026-04-19T09:17:22.999Z</time></trkpt><trkpt lat="44.979137829375176" lon="7.298566346312766"><ele>1127.2</ele><time>2026-04-19T09:17:24.999Z</time></trkpt><trkpt lat="44.979071939541996" lon="7.298417154261015"><ele>1133.3999999999999</ele><time>2026-04-19T09:17:26.999Z</time></trkpt><trkpt lat="44.97903975065762" lon="7.298319419806613"><ele>1139.6</ele><time>2026-04-19T09:17:27.999Z</time></trkpt><trkpt lat="44.97896844616528" lon="7.298182469028627"><ele>1145.8</ele><time>2026-04-19T09:17:29.999Z</time></trkpt><trkpt lat="44.978892260102086" lon="7.298136345024434"><ele>1152.0</ele><time>2026-04-19T09:17:31.999Z</time></trkpt><trkpt lat="44.97883288117147" lon="7.298065522264453"><ele>1152.0000000000002</ele><time>2026-04-19T09:17:32.999Z</time></trkpt><trkpt lat="44.97883694163827" lon="7.297962098276483"><ele>1152.0</ele><time>2026-04-19T09:17:33.999Z</time></trkpt><trkpt lat="44.978807339989544" lon="7.29787084635192"><ele>1152.0</ele><time>2026-04-19T09:17:34.999Z</time></trkpt><trkpt lat="44.97876737948652" lon="7.297798089665383"><ele>1152.0</ele><time>2026-04-19T09:17:35.999Z</time></trkpt><trkpt lat="44.97872397545394" lon="7.297726920301638"><ele>1152.0</ele><time>2026-04-19T09:17:36.999Z</time></trkpt><trkpt lat="44.97868397006082" lon="7.297647967578777"><ele>1152.0000000000002</ele><time>2026-04-19T09:17:37.999Z</time></trkpt><trkpt lat="44.9786721474636" lon="7.297535507152334"><ele>1152.0</ele><time>2026-04-19T09:17:39.999Z</time></trkpt><trkpt lat="44.97873992787663" lon="7.297463568106925"><ele>1152.0</ele><time>2026-04-19T09:17:41.999Z</time></trkpt><trkpt lat="44.978757403863284" lon="7.297336401008012"><ele>1152.0</ele><time>2026-04-19T09:17:44.999Z</time></trkpt><trkpt lat="44.97874791559113" lon="7.297206898067221"><ele>1152.0</ele><time>2026-04-19T09:17:46.999Z</time></trkpt><trkpt lat="44.978768613104485" lon="7.297066245022697"><ele>1152.0</ele><time>2026-04-19T09:17:48.999Z</time></trkpt><trkpt lat="44.97878489615009" lon="7.296907439713237"><ele>1152.0</ele><time>2026-04-19T09:17:50.999Z</time></trkpt><trkpt lat="44.97884857834409" lon="7.296737952560844"><ele>1155.1666666666667</ele><time>2026-04-19T09:17:52.999Z</time></trkpt><trkpt lat="44.97889272766552" lon="7.296606980612293"><ele>1158.3333333333333</ele><time>2026-04-19T09:17:54.999Z</time></trkpt><trkpt lat="44.978929030272504" lon="7.296530875311063"><ele>1161.5</ele><time>2026-04-19T09:17:55.999Z</time></trkpt><trkpt lat="44.978988975570225" lon="7.296467327372566"><ele>1164.6666666666665</ele><time>2026-04-19T09:17:56.999Z</time></trkpt><trkpt lat="44.97905834074061" lon="7.296402859086815"><ele>1167.8333333333333</ele><time>2026-04-19T09:17:57.999Z</time></trkpt><trkpt lat="44.97910839439596" lon="7.29631543504345"><ele>1171.0</ele><time>2026-04-19T09:17:58.999Z</time></trkpt><trkpt lat="44.979196116367504" lon="7.296221332005304"><ele>1171.0</ele><time>2026-04-19T09:18:00.999Z</time></trkpt><trkpt lat="44.979279279989306" lon="7.296143493817013"><ele>1171.0</ele><time>2026-04-19T09:18:02.999Z</time></trkpt><trkpt lat="44.97939159962083" lon="7.296055704325541"><ele>1171.0</ele><time>2026-04-19T09:18:04.999Z</time></trkpt><trkpt lat="44.97949479604245" lon="7.296000874154246"><ele>1171.0</ele><time>2026-04-19T09:18:06.999Z</time></trkpt><trkpt lat="44.97957049945997" lon="7.295995691542384"><ele>1171.0</ele><time>2026-04-19T09:18:07.999Z</time></trkpt><trkpt lat="44.97967135856876" lon="7.295980300745136"><ele>1171.0</ele><time>2026-04-19T09:18:08.999Z</time></trkpt><trkpt lat="44.97974638575181" lon="7.295963005264255"><ele>1171.0</ele><time>2026-04-19T09:18:09.999Z</time></trkpt><trkpt lat="44.979817295137615" lon="7.295829328042696"><ele>1171.0</ele><time>2026-04-19T09:18:11.999Z</time></trkpt><trkpt lat="44.97984694836023" lon="7.295710850641296"><ele>1171.0</ele><time>2026-04-19T09:18:12.999Z</time></trkpt><trkpt lat="44.979873865714936" lon="7.295597161914236"><ele>1171.0</ele><time>2026-04-19T09:18:13.999Z</time></trkpt><trkpt lat="44.97989049440138" lon="7.295500948600958"><ele>1171.0</ele><time>2026-04-19T09:18:14.998Z</time></trkpt><trkpt lat="44.979898494228486" lon="7.295400814593027"><ele>1170.8</ele><time>2026-04-19T09:18:15.998Z</time></trkpt><trkpt lat="44.97990133886578" lon="7.295197843441408"><ele>1170.6</ele><time>2026-04-19T09:18:17.998Z</time></trkpt><trkpt lat="44.97988636830618" lon="7.295066188256567"><ele>1170.4</ele><time>2026-04-19T09:18:19.998Z</time></trkpt><trkpt lat="44.9798643411887" lon="7.29497176502463"><ele>1170.2</ele><time>2026-04-19T09:18:20.998Z</time></trkpt><trkpt lat="44.97982745239453" lon="7.294820359298546"><ele>1170.0</ele><time>2026-04-19T09:18:21.998Z</time></trkpt><trkpt lat="44.97980166169966" lon="7.294682296089018"><ele>1170.0</ele><time>2026-04-19T09:18:22.998Z</time></trkpt><trkpt lat="44.97978347490078" lon="7.294532196527558"><ele>1170.0</ele><time>2026-04-19T09:18:23.998Z</time></trkpt><trkpt lat="44.97974646514167" lon="7.294393581471514"><ele>1170.0</ele><time>2026-04-19T09:18:24.998Z</time></trkpt><trkpt lat="44.979715590442495" lon="7.294260882833087"><ele>1170.0</ele><time>2026-04-19T09:18:25.998Z</time></trkpt><trkpt lat="44.979671376516954" lon="7.29412629019124"><ele>1170.0</ele><time>2026-04-19T09:18:26.998Z</time></trkpt><trkpt lat="44.97963761280502" lon="7.29400185678426"><ele>1171.0</ele><time>2026-04-19T09:18:27.998Z</time></trkpt><trkpt lat="44.97960208516269" lon="7.293877528061848"><ele>1172.0</ele><time>2026-04-19T09:18:28.998Z</time></trkpt><trkpt lat="44.97956831672401" lon="7.293757995990678"><ele>1173.0</ele><time>2026-04-19T09:18:29.998Z</time></trkpt><trkpt lat="44.979538329036664" lon="7.2936468511649"><ele>1174.0</ele><time>2026-04-19T09:18:30.998Z</time></trkpt><trkpt lat="44.97949653794717" lon="7.293522307062935"><ele>1175.0</ele><time>2026-04-19T09:18:31.998Z</time></trkpt><trkpt lat="44.97946133541061" lon="7.293378896435057"><ele>1175.0</ele><time>2026-04-19T09:18:32.998Z</time></trkpt><trkpt lat="44.97939880451887" lon="7.2932540262017875"><ele>1175.0</ele><time>2026-04-19T09:18:34.998Z</time></trkpt><trkpt lat="44.97932588101667" lon="7.29331037537239"><ele>1175.0</ele><time>2026-04-19T09:18:37.998Z</time></trkpt><trkpt lat="44.97938233510662" lon="7.293506219863606"><ele>1175.0</ele><time>2026-04-19T09:18:39.998Z</time></trkpt><trkpt lat="44.97940529844379" lon="7.2936345503473134"><ele>1175.0</ele><time>2026-04-19T09:18:40.998Z</time></trkpt><trkpt lat="44.97940483207118" lon="7.2937515641137685"><ele>1175.0</ele><time>2026-04-19T09:18:41.998Z</time></trkpt><trkpt lat="44.97942394480409" lon="7.293887557930552"><ele>1175.0</ele><time>2026-04-19T09:18:42.998Z</time></trkpt><trkpt lat="44.97946329748173" lon="7.293990341040019"><ele>1175.0</ele><time>2026-04-19T09:18:43.998Z</time></trkpt><trkpt lat="44.97947612333109" lon="7.294088302846111"><ele>1175.0</ele><time>2026-04-19T09:18:44.998Z</time></trkpt><trkpt lat="44.97947281317279" lon="7.294195691115769"><ele>1175.0</ele><time>2026-04-19T09:18:45.998Z</time></trkpt><trkpt lat="44.979463587670686" lon="7.29433634025442"><ele>1175.0</ele><time>2026-04-19T09:18:46.998Z</time></trkpt><trkpt lat="44.97943735220511" lon="7.294456592672993"><ele>1175.4</ele><time>2026-04-19T09:18:47.998Z</time></trkpt><trkpt lat="44.97942709204224" lon="7.2945607690550265"><ele>1175.8</ele><time>2026-04-19T09:18:48.998Z</time></trkpt><trkpt lat="44.97941494579097" lon="7.294698099416108"><ele>1176.2</ele><time>2026-04-19T09:18:49.998Z</time></trkpt><trkpt lat="44.97937816773693" lon="7.2948566255429625"><ele>1176.6</ele><time>2026-04-19T09:18:52Z</time></trkpt><trkpt lat="44.97933952092833" lon="7.294970011650558"><ele>1177.0</ele><time>2026-04-19T09:18:53Z</time></trkpt><trkpt lat="44.97929711971422" lon="7.295065830019261"><ele>1177.0</ele><time>2026-04-19T09:18:54Z</time></trkpt><trkpt lat="44.979239896997676" lon="7.295146804831231"><ele>1177.0</ele><time>2026-04-19T09:18:55Z</time></trkpt><trkpt lat="44.9791781378705" lon="7.29523997582198"><ele>1177.0</ele><time>2026-04-19T09:18:56Z</time></trkpt><trkpt lat="44.979122050434384" lon="7.295327412523622"><ele>1177.0</ele><time>2026-04-19T09:18:57Z</time></trkpt><trkpt lat="44.97905415807085" lon="7.295365536768296"><ele>1177.0</ele><time>2026-04-19T09:18:58Z</time></trkpt><trkpt lat="44.97898489783992" lon="7.29538349549825"><ele>1177.0</ele><time>2026-04-19T09:18:59Z</time></trkpt><trkpt lat="44.97889756055894" lon="7.295424272796273"><ele>1180.6666666666665</ele><time>2026-04-19T09:19:00Z</time></trkpt><trkpt lat="44.9788358715092" lon="7.295486974539975"><ele>1184.3333333333333</ele><time>2026-04-19T09:19:01Z</time></trkpt><trkpt lat="44.978766030390716" lon="7.29556414888765"><ele>1188.0</ele><time>2026-04-19T09:19:02Z</time></trkpt><trkpt lat="44.978699230223334" lon="7.295617765991874"><ele>1191.6666666666667</ele><time>2026-04-19T09:19:03Z</time></trkpt><trkpt lat="44.978609465814166" lon="7.295700829047227"><ele>1195.3333333333335</ele><time>2026-04-19T09:19:04Z</time></trkpt><trkpt lat="44.978539098635416" lon="7.295782565140378"><ele>1199.0</ele><time>2026-04-19T09:19:05Z</time></trkpt><trkpt lat="44.97847670954814" lon="7.295863673455065"><ele>1199.0</ele><time>2026-04-19T09:19:06Z</time></trkpt><trkpt lat="44.97843095078694" lon="7.29594616814821"><ele>1199.0</ele><time>2026-04-19T09:19:07Z</time></trkpt><trkpt lat="44.978371474254985" lon="7.2960115486333805"><ele>1199.0</ele><time>2026-04-19T09:19:08Z</time></trkpt><trkpt lat="44.978302505267344" lon="7.296082882872339"><ele>1199.0</ele><time>2026-04-19T09:19:09Z</time></trkpt><trkpt lat="44.97825094515064" lon="7.296162071815406"><ele>1199.0</ele><time>2026-04-19T09:19:10Z</time></trkpt><trkpt lat="44.97820230216291" lon="7.296272057986434"><ele>1199.0</ele><time>2026-04-19T09:19:11Z</time></trkpt><trkpt lat="44.978110231665084" lon="7.296404013971014"><ele>1201.6666666666667</ele><time>2026-04-19T09:19:13Z</time></trkpt><trkpt lat="44.97804485884042" lon="7.296466991327839"><ele>1204.3333333333335</ele><time>2026-04-19T09:19:14Z</time></trkpt><trkpt lat="44.9780029434161" lon="7.296548432670184"><ele>1207.0</ele><time>2026-04-19T09:19:15Z</time></trkpt><trkpt lat="44.97794417890516" lon="7.29664009324795"><ele>1209.6666666666667</ele><time>2026-04-19T09:19:17Z</time></trkpt><trkpt lat="44.97786438182199" lon="7.296768698633004"><ele>1212.3333333333333</ele><time>2026-04-19T09:19:19Z</time></trkpt><trkpt lat="44.97782037846551" lon="7.296844190510124"><ele>1215.0</ele><time>2026-04-19T09:19:20Z</time></trkpt><trkpt lat="44.97772736380657" lon="7.2969566449994065"><ele>1215.0</ele><time>2026-04-19T09:19:22Z</time></trkpt><trkpt lat="44.9776566358235" lon="7.297091026954948"><ele>1215.0</ele><time>2026-04-19T09:19:24Z</time></trkpt><trkpt lat="44.977606327657796" lon="7.2971588645247865"><ele>1215.0</ele><time>2026-04-19T09:19:25Z</time></trkpt><trkpt lat="44.97755478560412" lon="7.297232503734377"><ele>1215.0</ele><time>2026-04-19T09:19:26Z</time></trkpt><trkpt lat="44.97752860108388" lon="7.2973267058693025"><ele>1215.0</ele><time>2026-04-19T09:19:27Z</time></trkpt><trkpt lat="44.97745025142502" lon="7.297464063910421"><ele>1220.0</ele><time>2026-04-19T09:19:28.999Z</time></trkpt><trkpt lat="44.97737873138818" lon="7.297499286500138"><ele>1225.0</ele><time>2026-04-19T09:19:30.999Z</time></trkpt><trkpt lat="44.97733052748185" lon="7.297417371210713"><ele>1230.0</ele><time>2026-04-19T09:19:33.999Z</time></trkpt><trkpt lat="44.977378371949165" lon="7.297305319531009"><ele>1235.0</ele><time>2026-04-19T09:19:43.999Z</time></trkpt><trkpt lat="44.97738563349161" lon="7.297158974748698"><ele>1240.0</ele><time>2026-04-19T09:19:45.999Z</time></trkpt><trkpt lat="44.977403279833254" lon="7.297008734570171"><ele>1239.4</ele><time>2026-04-19T09:19:47.999Z</time></trkpt><trkpt lat="44.97744797866286" lon="7.2968656579383016"><ele>1238.8</ele><time>2026-04-19T09:19:49.999Z</time></trkpt><trkpt lat="44.977504922054926" lon="7.296747371495559"><ele>1238.2</ele><time>2026-04-19T09:19:51.999Z</time></trkpt><trkpt lat="44.97753450827779" lon="7.296649038286889"><ele>1237.6</ele><time>2026-04-19T09:19:52.999Z</time></trkpt><trkpt lat="44.977568931293334" lon="7.296512309461266"><ele>1237.0</ele><time>2026-04-19T09:19:54.999Z</time></trkpt><trkpt lat="44.97761134133078" lon="7.296324219596813"><ele>1237.0</ele><time>2026-04-19T09:19:56.999Z</time></trkpt><trkpt lat="44.97763782652174" lon="7.296213791311815"><ele>1237.0</ele><time>2026-04-19T09:19:57.999Z</time></trkpt><trkpt lat="44.977649826168175" lon="7.296118907150624"><ele>1237.0</ele><time>2026-04-19T09:19:58.999Z</time></trkpt><trkpt lat="44.977673258009894" lon="7.296035628354567"><ele>1237.0</ele><time>2026-04-19T09:19:59.999Z</time></trkpt><trkpt lat="44.97767721089201" lon="7.2959378054496"><ele>1237.0</ele><time>2026-04-19T09:20:00.999Z</time></trkpt><trkpt lat="44.97769064983504" lon="7.2958303877071495"><ele>1237.0</ele><time>2026-04-19T09:20:01.999Z</time></trkpt><trkpt lat="44.97770757267143" lon="7.295730418497437"><ele>1237.0</ele><time>2026-04-19T09:20:02.999Z</time></trkpt><trkpt lat="44.977730413411365" lon="7.29564206298777"><ele>1239.8333333333333</ele><time>2026-04-19T09:20:03.999Z</time></trkpt><trkpt lat="44.977763195087334" lon="7.295551007462643"><ele>1242.6666666666665</ele><time>2026-04-19T09:20:04.999Z</time></trkpt><trkpt lat="44.97780904370572" lon="7.295470635248566"><ele>1245.5</ele><time>2026-04-19T09:20:05.999Z</time></trkpt><trkpt lat="44.977857174148276" lon="7.295396661812872"><ele>1248.3333333333333</ele><time>2026-04-19T09:20:06.999Z</time></trkpt><trkpt lat="44.97790967289345" lon="7.295333754023994"><ele>1251.1666666666667</ele><time>2026-04-19T09:20:07.999Z</time></trkpt><trkpt lat="44.977917543707676" lon="7.295186696461796"><ele>1254.0</ele><time>2026-04-19T09:20:09.999Z</time></trkpt><trkpt lat="44.97793653902276" lon="7.295099884847542"><ele>1254.0</ele><time>2026-04-19T09:20:10.999Z</time></trkpt><trkpt lat="44.9779627815977" lon="7.29500223716411"><ele>1254.0</ele><time>2026-04-19T09:20:11.999Z</time></trkpt><trkpt lat="44.977936583013374" lon="7.294867051097801"><ele>1254.0</ele><time>2026-04-19T09:20:13.999Z</time></trkpt><trkpt lat="44.97792738164987" lon="7.294686216533446"><ele>1254.0</ele><time>2026-04-19T09:20:16.999Z</time></trkpt><trkpt lat="44.97790890903465" lon="7.294536667425358"><ele>1254.0</ele><time>2026-04-19T09:20:18.999Z</time></trkpt><trkpt lat="44.9779182094687" lon="7.294448097121313"><ele>1254.1666666666667</ele><time>2026-04-19T09:20:19.999Z</time></trkpt><trkpt lat="44.97790690673013" lon="7.294349050789122"><ele>1254.3333333333333</ele><time>2026-04-19T09:20:20.999Z</time></trkpt><trkpt lat="44.977875159680195" lon="7.294246345935818"><ele>1254.5</ele><time>2026-04-19T09:20:21.999Z</time></trkpt><trkpt lat="44.977817490189956" lon="7.294144949721461"><ele>1254.6666666666665</ele><time>2026-04-19T09:20:22.999Z</time></trkpt><trkpt lat="44.97776460456057" lon="7.294071137943132"><ele>1254.8333333333333</ele><time>2026-04-19T09:20:23.999Z</time></trkpt><trkpt lat="44.97771562796746" lon="7.293983812138592"><ele>1255.0</ele><time>2026-04-19T09:20:24.998Z</time></trkpt><trkpt lat="44.977682706348794" lon="7.293906398020657"><ele>1255.0</ele><time>2026-04-19T09:20:25.998Z</time></trkpt><trkpt lat="44.97764037726384" lon="7.293839097206135"><ele>1255.0</ele><time>2026-04-19T09:20:26.998Z</time></trkpt><trkpt lat="44.97759819605937" lon="7.293767421925904"><ele>1255.0</ele><time>2026-04-19T09:20:27.998Z</time></trkpt><trkpt lat="44.97750644994949" lon="7.293636751911372"><ele>1255.0</ele><time>2026-04-19T09:20:29.998Z</time></trkpt><trkpt lat="44.97745202992452" lon="7.293532676264317"><ele>1255.0</ele><time>2026-04-19T09:20:30.998Z</time></trkpt><trkpt lat="44.97739624034843" lon="7.293419091256828"><ele>1255.0</ele><time>2026-04-19T09:20:31.998Z</time></trkpt><trkpt lat="44.97736551601415" lon="7.293308933166653"><ele>1260.5</ele><time>2026-04-19T09:20:32.998Z</time></trkpt><trkpt lat="44.97732627165387" lon="7.293210891410444"><ele>1266.0</ele><time>2026-04-19T09:20:33.998Z</time></trkpt><trkpt lat="44.97725831273134" lon="7.293089207410719"><ele>1271.5</ele><time>2026-04-19T09:20:34.998Z</time></trkpt><trkpt lat="44.977232201276514" lon="7.292974370307092"><ele>1277.0</ele><time>2026-04-19T09:20:35.998Z</time></trkpt><trkpt lat="44.977229962108886" lon="7.292863634981911"><ele>1282.5</ele><time>2026-04-19T09:20:36.998Z</time></trkpt><trkpt lat="44.97720587348398" lon="7.292764969314867"><ele>1288.0</ele><time>2026-04-19T09:20:37.998Z</time></trkpt><trkpt lat="44.977240992931705" lon="7.292633608934301"><ele>1288.8000000000002</ele><time>2026-04-19T09:20:38.998Z</time></trkpt><trkpt lat="44.977172033328195" lon="7.292525688027761"><ele>1289.6</ele><time>2026-04-19T09:20:40.998Z</time></trkpt><trkpt lat="44.977075886675024" lon="7.29242200206608"><ele>1290.4</ele><time>2026-04-19T09:20:42.998Z</time></trkpt><trkpt lat="44.97700541263704" lon="7.292404178478431"><ele>1291.1999999999998</ele><time>2026-04-19T09:20:43.998Z</time></trkpt><trkpt lat="44.97691054949512" lon="7.292342195565434"><ele>1292.0</ele><time>2026-04-19T09:20:45.998Z</time></trkpt><trkpt lat="44.976841745098774" lon="7.292356143247534"><ele>1292.0</ele><time>2026-04-19T09:20:47.998Z</time></trkpt><trkpt lat="44.97679558382314" lon="7.292288821305605"><ele>1292.0</ele><time>2026-04-19T09:22:25.999Z</time></trkpt><trkpt lat="44.97670397552782" lon="7.292245207609872"><ele>1292.0</ele><time>2026-04-19T09:24:51.998Z</time></trkpt><trkpt lat="44.976669533967254" lon="7.292137174817049"><ele>1292.0</ele><time>2026-04-19T09:24:52.998Z</time></trkpt><trkpt lat="44.97661765014542" lon="7.292041159576271"><ele>1292.0</ele><time>2026-04-19T09:24:53.998Z</time></trkpt><trkpt lat="44.97655695217316" lon="7.291976814544014"><ele>1292.0</ele><time>2026-04-19T09:24:54.998Z</time></trkpt><trkpt lat="44.976494574279116" lon="7.291909737421324"><ele>1293.5</ele><time>2026-04-19T09:24:55.998Z</time></trkpt><trkpt lat="44.97643310150566" lon="7.291823589117498"><ele>1295.0</ele><time>2026-04-19T09:24:56.998Z</time></trkpt><trkpt lat="44.976380369802506" lon="7.291740877481683"><ele>1296.5</ele><time>2026-04-19T09:24:57.998Z</time></trkpt><trkpt lat="44.97629877222047" lon="7.291693649872863"><ele>1298.0</ele><time>2026-04-19T09:24:58.998Z</time></trkpt><trkpt lat="44.97621927613554" lon="7.291670097123425"><ele>1299.5</ele><time>2026-04-19T09:24:59.998Z</time></trkpt><trkpt lat="44.97611455243326" lon="7.291650980483849"><ele>1301.0</ele><time>2026-04-19T09:25:00.998Z</time></trkpt><trkpt lat="44.97601004604761" lon="7.291644960905784"><ele>1301.0</ele><time>2026-04-19T09:25:01.998Z</time></trkpt><trkpt lat="44.9759006578766" lon="7.2916398787627505"><ele>1301.0</ele><time>2026-04-19T09:25:02.998Z</time></trkpt><trkpt lat="44.97580494564704" lon="7.291618846146298"><ele>1301.0</ele><time>2026-04-19T09:25:03.998Z</time></trkpt><trkpt lat="44.975709500687294" lon="7.291561867396696"><ele>1301.0</ele><time>2026-04-19T09:25:04.998Z</time></trkpt><trkpt lat="44.97562656147737" lon="7.2915055824912685"><ele>1301.0</ele><time>2026-04-19T09:25:05.998Z</time></trkpt><trkpt lat="44.975534881914015" lon="7.291460911802038"><ele>1301.4</ele><time>2026-04-19T09:25:06.998Z</time></trkpt><trkpt lat="44.975426829835115" lon="7.291452472915462"><ele>1301.8</ele><time>2026-04-19T09:25:07.998Z</time></trkpt><trkpt lat="44.97531313760873" lon="7.291459479642401"><ele>1302.2</ele><time>2026-04-19T09:25:08.998Z</time></trkpt><trkpt lat="44.97520943914615" lon="7.291483639545576"><ele>1302.6000000000001</ele><time>2026-04-19T09:25:09.999Z</time></trkpt><trkpt lat="44.975110400608045" lon="7.291472879403257"><ele>1303.0</ele><time>2026-04-19T09:25:10.999Z</time></trkpt><trkpt lat="44.97503607520634" lon="7.291452867241575"><ele>1305.0</ele><time>2026-04-19T09:25:11.999Z</time></trkpt><trkpt lat="44.974911478282664" lon="7.291531936933006"><ele>1307.0</ele><time>2026-04-19T09:25:13.999Z</time></trkpt><trkpt lat="44.97484674776746" lon="7.29152256006083"><ele>1309.0</ele><time>2026-04-19T09:25:14.999Z</time></trkpt><trkpt lat="44.97472565387973" lon="7.29147117406746"><ele>1311.0</ele><time>2026-04-19T09:25:16.999Z</time></trkpt><trkpt lat="44.974650486881174" lon="7.291441794931641"><ele>1313.0</ele><time>2026-04-19T09:25:17.999Z</time></trkpt><trkpt lat="44.97456357381778" lon="7.291406891526992"><ele>1313.0</ele><time>2026-04-19T09:25:18.999Z</time></trkpt><trkpt lat="44.97447347272058" lon="7.29135727045691"><ele>1313.0</ele><time>2026-04-19T09:25:19.999Z</time></trkpt><trkpt lat="44.974368265456846" lon="7.291338549565915"><ele>1313.0</ele><time>2026-04-19T09:25:20.999Z</time></trkpt><trkpt lat="44.974265650060886" lon="7.291308820190374"><ele>1313.0</ele><time>2026-04-19T09:25:21.999Z</time></trkpt><trkpt lat="44.97417128925092" lon="7.291256750604838"><ele>1313.0</ele><time>2026-04-19T09:25:22.999Z</time></trkpt><trkpt lat="44.974118094249874" lon="7.291186815285334"><ele>1316.25</ele><time>2026-04-19T09:25:23.999Z</time></trkpt><trkpt lat="44.97401157130535" lon="7.291020667933057"><ele>1319.5</ele><time>2026-04-19T09:25:25.999Z</time></trkpt><trkpt lat="44.97394257411068" lon="7.290904281629651"><ele>1322.75</ele><time>2026-04-19T09:25:26.999Z</time></trkpt><trkpt lat="44.973871318987" lon="7.290798320454985"><ele>1326.0</ele><time>2026-04-19T09:25:27.999Z</time></trkpt><trkpt lat="44.97379329318204" lon="7.29067983691772"><ele>1326.6</ele><time>2026-04-19T09:25:28.999Z</time></trkpt><trkpt lat="44.97372052722533" lon="7.290575793254802"><ele>1327.1999999999998</ele><time>2026-04-19T09:25:29.999Z</time></trkpt><trkpt lat="44.97364235941577" lon="7.290458630714972"><ele>1327.8000000000002</ele><time>2026-04-19T09:25:30.999Z</time></trkpt><trkpt lat="44.97358432207269" lon="7.290327846020987"><ele>1328.4</ele><time>2026-04-19T09:25:31.999Z</time></trkpt><trkpt lat="44.97355348222906" lon="7.290226779261303"><ele>1329.0</ele><time>2026-04-19T09:25:32.999Z</time></trkpt><trkpt lat="44.973486432476385" lon="7.290104583265868"><ele>1329.0</ele><time>2026-04-19T09:25:34.999Z</time></trkpt><trkpt lat="44.97342616771644" lon="7.290038020315267"><ele>1329.0</ele><time>2026-04-19T09:25:35.999Z</time></trkpt><trkpt lat="44.9733463113436" lon="7.289986832259855"><ele>1329.0</ele><time>2026-04-19T09:25:36.999Z</time></trkpt><trkpt lat="44.97328963696913" lon="7.289943639336405"><ele>1329.0</ele><time>2026-04-19T09:25:37.999Z</time></trkpt><trkpt lat="44.973246756603196" lon="7.289852120108806"><ele>1329.0</ele><time>2026-04-19T09:25:39.999Z</time></trkpt><trkpt lat="44.973303643615345" lon="7.28980473561471"><ele>1329.0</ele><time>2026-04-19T09:25:41.999Z</time></trkpt><trkpt lat="44.973403059215556" lon="7.289721873878831"><ele>1330.2</ele><time>2026-04-19T09:25:48.999Z</time></trkpt><trkpt lat="44.9734848335408" lon="7.289675197308125"><ele>1331.4</ele><time>2026-04-19T09:25:49.999Z</time></trkpt><trkpt lat="44.97360274492426" lon="7.289607512904644"><ele>1332.6</ele><time>2026-04-19T09:25:50.999Z</time></trkpt><trkpt lat="44.97370916649502" lon="7.289584071588237"><ele>1333.8</ele><time>2026-04-19T09:25:51.999Z</time></trkpt><trkpt lat="44.973776803614136" lon="7.289562655922174"><ele>1335.0</ele><time>2026-04-19T09:25:52.999Z</time></trkpt><trkpt lat="44.97384665097572" lon="7.289500279234538"><ele>1335.0</ele><time>2026-04-19T09:25:53.999Z</time></trkpt><trkpt lat="44.97392610435236" lon="7.289391553106577"><ele>1335.0</ele><time>2026-04-19T09:25:54.999Z</time></trkpt><trkpt lat="44.97400511773303" lon="7.289299443459391"><ele>1335.0</ele><time>2026-04-19T09:25:55.999Z</time></trkpt><trkpt lat="44.97408611404103" lon="7.289218499403307"><ele>1335.0</ele><time>2026-04-19T09:25:56.999Z</time></trkpt><trkpt lat="44.97415323990622" lon="7.289204186268133"><ele>1335.0</ele><time>2026-04-19T09:25:57.999Z</time></trkpt><trkpt lat="44.974256659379115" lon="7.289085461944753"><ele>1333.4</ele><time>2026-04-19T09:25:59.999Z</time></trkpt><trkpt lat="44.9743117410121" lon="7.288964265362206"><ele>1331.8</ele><time>2026-04-19T09:26:00.999Z</time></trkpt><trkpt lat="44.97433697642176" lon="7.288816742255072"><ele>1330.1999999999998</ele><time>2026-04-19T09:26:01.999Z</time></trkpt><trkpt lat="44.97437027133709" lon="7.288675390313293"><ele>1328.6</ele><time>2026-04-19T09:26:02.999Z</time></trkpt><trkpt lat="44.97441133551338" lon="7.288536172081939"><ele>1327.0</ele><time>2026-04-19T09:26:03.999Z</time></trkpt><trkpt lat="44.974451175985095" lon="7.288380834812393"><ele>1326.3333333333333</ele><time>2026-04-19T09:26:04.999Z</time></trkpt><trkpt lat="44.974468030776734" lon="7.288237644002488"><ele>1325.6666666666665</ele><time>2026-04-19T09:26:05.999Z</time></trkpt><trkpt lat="44.974495448779834" lon="7.288125485604709"><ele>1325.0</ele><time>2026-04-19T09:26:06.999Z</time></trkpt><trkpt lat="44.974493442107836" lon="7.288014660084736"><ele>1324.3333333333333</ele><time>2026-04-19T09:26:07.999Z</time></trkpt><trkpt lat="44.97447234416746" lon="7.287901001290638"><ele>1323.6666666666667</ele><time>2026-04-19T09:26:08.999Z</time></trkpt><trkpt lat="44.974424800697506" lon="7.287774877309068"><ele>1323.0</ele><time>2026-04-19T09:26:09.999Z</time></trkpt><trkpt lat="44.974338763944665" lon="7.287634742623896"><ele>1323.75</ele><time>2026-04-19T09:26:10.999Z</time></trkpt><trkpt lat="44.97425965777933" lon="7.2874836703579415"><ele>1324.5</ele><time>2026-04-19T09:26:11.999Z</time></trkpt><trkpt lat="44.97417602434658" lon="7.287333155894011"><ele>1325.25</ele><time>2026-04-19T09:26:12.999Z</time></trkpt><trkpt lat="44.97409912437551" lon="7.287170042638653"><ele>1326.0</ele><time>2026-04-19T09:26:13.999Z</time></trkpt><trkpt lat="44.974037434570434" lon="7.287019890315585"><ele>1323.1999999999998</ele><time>2026-04-19T09:26:14.999Z</time></trkpt><trkpt lat="44.97398297271326" lon="7.286880734695773"><ele>1320.3999999999999</ele><time>2026-04-19T09:26:15.999Z</time></trkpt><trkpt lat="44.97393904431504" lon="7.286746703010724"><ele>1317.6</ele><time>2026-04-19T09:26:16.999Z</time></trkpt><trkpt lat="44.97388732396233" lon="7.286638252605323"><ele>1314.8</ele><time>2026-04-19T09:26:17.999Z</time></trkpt><trkpt lat="44.97383445611191" lon="7.2865048754787445"><ele>1312.0</ele><time>2026-04-19T09:26:18.999Z</time></trkpt><trkpt lat="44.973781024670664" lon="7.286356142638591"><ele>1306.75</ele><time>2026-04-19T09:26:19.999Z</time></trkpt><trkpt lat="44.973726622471126" lon="7.286223579545014"><ele>1301.5</ele><time>2026-04-19T09:26:20.999Z</time></trkpt><trkpt lat="44.97366107993448" lon="7.2861147399480615"><ele>1296.25</ele><time>2026-04-19T09:26:21.999Z</time></trkpt><trkpt lat="44.97359806527103" lon="7.285980077358603"><ele>1291.0</ele><time>2026-04-19T09:26:22.999Z</time></trkpt><trkpt lat="44.97354494712256" lon="7.285815729300103"><ele>1291.0</ele><time>2026-04-19T09:26:23.999Z</time></trkpt><trkpt lat="44.97349427049712" lon="7.285650808069666"><ele>1291.0</ele><time>2026-04-19T09:26:24.999Z</time></trkpt><trkpt lat="44.973444607011345" lon="7.28548602490715"><ele>1291.0</ele><time>2026-04-19T09:26:25.999Z</time></trkpt><trkpt lat="44.97340137159489" lon="7.285321358639491"><ele>1291.0</ele><time>2026-04-19T09:26:26.999Z</time></trkpt><trkpt lat="44.97340235423556" lon="7.2851935936349035"><ele>1287.6</ele><time>2026-04-19T09:26:27.999Z</time></trkpt><trkpt lat="44.973395790008546" lon="7.285087210302137"><ele>1284.1999999999998</ele><time>2026-04-19T09:26:28.999Z</time></trkpt><trkpt lat="44.97337673761666" lon="7.284968750096755"><ele>1280.8000000000002</ele><time>2026-04-19T09:26:30.999Z</time></trkpt><trkpt lat="44.97345115309212" lon="7.284930269646022"><ele>1277.4</ele><time>2026-04-19T09:26:32.999Z</time></trkpt><trkpt lat="44.97353613485155" lon="7.285047267047483"><ele>1274.0</ele><time>2026-04-19T09:26:34.999Z</time></trkpt><trkpt lat="44.97359370668821" lon="7.285168417480987"><ele>1274.0</ele><time>2026-04-19T09:26:35.999Z</time></trkpt><trkpt lat="44.97367787567301" lon="7.2852805023958265"><ele>1274.0</ele><time>2026-04-19T09:26:36.999Z</time></trkpt><trkpt lat="44.97377626652665" lon="7.285393056531675"><ele>1274.0</ele><time>2026-04-19T09:26:37.999Z</time></trkpt><trkpt lat="44.9738774676547" lon="7.285467787106585"><ele>1274.0</ele><time>2026-04-19T09:26:38.999Z</time></trkpt><trkpt lat="44.97399626552025" lon="7.285532280253914"><ele>1275.8000000000002</ele><time>2026-04-19T09:26:39.999Z</time></trkpt><trkpt lat="44.9740979609164" lon="7.2856048485585"><ele>1277.6000000000001</ele><time>2026-04-19T09:26:40.999Z</time></trkpt><trkpt lat="44.97420510728571" lon="7.285670246163866"><ele>1279.4</ele><time>2026-04-19T09:26:41.999Z</time></trkpt><trkpt lat="44.97429893569213" lon="7.285719721964595"><ele>1281.2</ele><time>2026-04-19T09:26:42.999Z</time></trkpt><trkpt lat="44.97438526770942" lon="7.285750964163764"><ele>1283.0</ele><time>2026-04-19T09:26:43.999Z</time></trkpt><trkpt lat="44.97446562171146" lon="7.28573915462967"><ele>1283.0</ele><time>2026-04-19T09:26:44.999Z</time></trkpt><trkpt lat="44.974543165181075" lon="7.285702239462813"><ele>1283.0</ele><time>2026-04-19T09:26:45.999Z</time></trkpt><trkpt lat="44.974623633559276" lon="7.285626405544117"><ele>1283.0</ele><time>2026-04-19T09:26:46.999Z</time></trkpt><trkpt lat="44.974696868132796" lon="7.285550925260901"><ele>1283.0</ele><time>2026-04-19T09:26:47.999Z</time></trkpt><trkpt lat="44.974796762390426" lon="7.285490788045083"><ele>1283.0</ele><time>2026-04-19T09:26:48.999Z</time></trkpt><trkpt lat="44.974877728959484" lon="7.285430876754361"><ele>1278.5</ele><time>2026-04-19T09:26:49.998Z</time></trkpt><trkpt lat="44.97495814114822" lon="7.285403986066649"><ele>1274.0</ele><time>2026-04-19T09:26:50.998Z</time></trkpt><trkpt lat="44.975042092713316" lon="7.2853842429138345"><ele>1269.5</ele><time>2026-04-19T09:26:51.998Z</time></trkpt><trkpt lat="44.97512715823856" lon="7.285377987601542"><ele>1265.0</ele><time>2026-04-19T09:26:52.998Z</time></trkpt><trkpt lat="44.97521452493646" lon="7.285390717734987"><ele>1260.5</ele><time>2026-04-19T09:26:53.998Z</time></trkpt><trkpt lat="44.97531536809416" lon="7.285423822860154"><ele>1256.0</ele><time>2026-04-19T09:26:54.998Z</time></trkpt><trkpt lat="44.97543191031423" lon="7.285463147647244"><ele>1253.75</ele><time>2026-04-19T09:26:55.998Z</time></trkpt><trkpt lat="44.975569000669225" lon="7.285525084036784"><ele>1251.5</ele><time>2026-04-19T09:26:56.998Z</time></trkpt><trkpt lat="44.975688880890154" lon="7.28557359982224"><ele>1249.25</ele><time>2026-04-19T09:26:57.998Z</time></trkpt><trkpt lat="44.9758039781198" lon="7.285635605197115"><ele>1247.0</ele><time>2026-04-19T09:26:58.998Z</time></trkpt><trkpt lat="44.9759286273482" lon="7.285701795128967"><ele>1247.0</ele><time>2026-04-19T09:26:59.998Z</time></trkpt><trkpt lat="44.97603320460933" lon="7.285755840262333"><ele>1247.0</ele><time>2026-04-19T09:27:00.998Z</time></trkpt><trkpt lat="44.976136985814335" lon="7.2858020326649156"><ele>1247.0</ele><time>2026-04-19T09:27:01.998Z</time></trkpt><trkpt lat="44.97624120900104" lon="7.285841060386084"><ele>1247.0</ele><time>2026-04-19T09:27:02.998Z</time></trkpt><trkpt lat="44.97635130147841" lon="7.285888207274353"><ele>1247.0</ele><time>2026-04-19T09:27:03.998Z</time></trkpt><trkpt lat="44.9764374876828" lon="7.285950087426674"><ele>1247.0</ele><time>2026-04-19T09:27:04.998Z</time></trkpt><trkpt lat="44.97649644998054" lon="7.286013228383817"><ele>1247.0</ele><time>2026-04-19T09:27:05.998Z</time></trkpt><trkpt lat="44.97658907723251" lon="7.286104040596137"><ele>1247.0</ele><time>2026-04-19T09:27:07.998Z</time></trkpt><trkpt lat="44.97664829337704" lon="7.286137254975136"><ele>1247.0</ele><time>2026-04-19T09:27:08.998Z</time></trkpt><trkpt lat="44.976725633358825" lon="7.286263570590037"><ele>1247.0</ele><time>2026-04-19T09:27:10.998Z</time></trkpt><trkpt lat="44.976779666256796" lon="7.286329501778998"><ele>1247.0</ele><time>2026-04-19T09:27:11.998Z</time></trkpt><trkpt lat="44.97684066996853" lon="7.286386172664076"><ele>1246.8</ele><time>2026-04-19T09:27:12.998Z</time></trkpt><trkpt lat="44.9769263675367" lon="7.286391161932448"><ele>1246.6</ele><time>2026-04-19T09:27:13.998Z</time></trkpt><trkpt lat="44.9770157942947" lon="7.2863436363066025"><ele>1246.3999999999999</ele><time>2026-04-19T09:27:14.998Z</time></trkpt><trkpt lat="44.977050387774504" lon="7.286219071324176"><ele>1246.2</ele><time>2026-04-19T09:27:17Z</time></trkpt><trkpt lat="44.97703397035459" lon="7.2860197043790755"><ele>1246.0</ele><time>2026-04-19T09:27:19Z</time></trkpt><trkpt lat="44.976989835007586" lon="7.285894754349349"><ele>1246.0</ele><time>2026-04-19T09:27:20Z</time></trkpt><trkpt lat="44.97694323512855" lon="7.28578349836464"><ele>1246.0</ele><time>2026-04-19T09:27:21Z</time></trkpt><trkpt lat="44.97687967897686" lon="7.285675805577471"><ele>1246.0</ele><time>2026-04-19T09:27:22Z</time></trkpt><trkpt lat="44.97681670828311" lon="7.285585118671991"><ele>1246.0</ele><time>2026-04-19T09:27:23Z</time></trkpt><trkpt lat="44.976723712210095" lon="7.285519638571131"><ele>1246.0</ele><time>2026-04-19T09:27:24Z</time></trkpt><trkpt lat="44.97660747301976" lon="7.28545468333537"><ele>1243.25</ele><time>2026-04-19T09:27:25Z</time></trkpt><trkpt lat="44.97648593820433" lon="7.285392342378488"><ele>1240.5</ele><time>2026-04-19T09:27:26Z</time></trkpt><trkpt lat="44.97640125588774" lon="7.285299179998903"><ele>1237.75</ele><time>2026-04-19T09:27:27Z</time></trkpt><trkpt lat="44.976305224065726" lon="7.285206977291231"><ele>1235.0</ele><time>2026-04-19T09:27:28Z</time></trkpt><trkpt lat="44.97619976139115" lon="7.285089771555087"><ele>1235.0</ele><time>2026-04-19T09:27:29Z</time></trkpt><trkpt lat="44.97611763597127" lon="7.284981749900874"><ele>1235.0</ele><time>2026-04-19T09:27:30Z</time></trkpt><trkpt lat="44.97600810815015" lon="7.284879204869298"><ele>1235.0</ele><time>2026-04-19T09:27:31Z</time></trkpt><trkpt lat="44.97590998918816" lon="7.28475792216266"><ele>1235.0</ele><time>2026-04-19T09:27:32Z</time></trkpt><trkpt lat="44.97579423585946" lon="7.284637479086262"><ele>1231.5</ele><time>2026-04-19T09:27:33Z</time></trkpt><trkpt lat="44.975680883690615" lon="7.284495011308154"><ele>1228.0</ele><time>2026-04-19T09:27:34Z</time></trkpt><trkpt lat="44.97559361056376" lon="7.284402543488429"><ele>1224.5</ele><time>2026-04-19T09:27:35Z</time></trkpt><trkpt lat="44.97550421995296" lon="7.2843214844617705"><ele>1221.0</ele><time>2026-04-19T09:27:36Z</time></trkpt><trkpt lat="44.97541349880048" lon="7.284237818873525"><ele>1221.0</ele><time>2026-04-19T09:27:37Z</time></trkpt><trkpt lat="44.97531634421293" lon="7.284176258105232"><ele>1221.0</ele><time>2026-04-19T09:27:38Z</time></trkpt><trkpt lat="44.97522607790857" lon="7.2841464248526275"><ele>1221.0</ele><time>2026-04-19T09:27:39Z</time></trkpt><trkpt lat="44.97514885766935" lon="7.284115672859777"><ele>1221.0</ele><time>2026-04-19T09:27:40Z</time></trkpt><trkpt lat="44.97507634793064" lon="7.284020721341568"><ele>1221.0</ele><time>2026-04-19T09:27:42Z</time></trkpt><trkpt lat="44.97506792190133" lon="7.283888456422328"><ele>1218.8</ele><time>2026-04-19T09:27:44Z</time></trkpt><trkpt lat="44.97508419252563" lon="7.283787930877785"><ele>1216.6</ele><time>2026-04-19T09:27:45Z</time></trkpt><trkpt lat="44.97510757319483" lon="7.283676351860749"><ele>1214.4</ele><time>2026-04-19T09:27:46Z</time></trkpt><trkpt lat="44.97510827726776" lon="7.283534843022915"><ele>1212.2</ele><time>2026-04-19T09:27:47Z</time></trkpt><trkpt lat="44.97509371775884" lon="7.283369991994994"><ele>1210.0</ele><time>2026-04-19T09:27:48Z</time></trkpt><trkpt lat="44.975088805523626" lon="7.283192017624407"><ele>1208.75</ele><time>2026-04-19T09:27:49Z</time></trkpt><trkpt lat="44.97509311242777" lon="7.283016938622884"><ele>1207.5</ele><time>2026-04-19T09:27:50Z</time></trkpt><trkpt lat="44.975090937914395" lon="7.282868672963453"><ele>1206.25</ele><time>2026-04-19T09:27:51Z</time></trkpt><trkpt lat="44.9750641653168" lon="7.282710268495809"><ele>1205.0</ele><time>2026-04-19T09:27:52Z</time></trkpt><trkpt lat="44.97502456428389" lon="7.282535378324364"><ele>1206.5</ele><time>2026-04-19T09:27:53Z</time></trkpt><trkpt lat="44.9749729646146" lon="7.282361725645068"><ele>1208.0</ele><time>2026-04-19T09:27:54Z</time></trkpt><trkpt lat="44.97492707426113" lon="7.282171058780671"><ele>1209.5</ele><time>2026-04-19T09:27:54.999Z</time></trkpt><trkpt lat="44.974894790510845" lon="7.281964763566976"><ele>1211.0</ele><time>2026-04-19T09:27:55.999Z</time></trkpt><trkpt lat="44.974827107823174" lon="7.281757503317096"><ele>1211.0</ele><time>2026-04-19T09:27:56.999Z</time></trkpt><trkpt lat="44.9747557569096" lon="7.281554083492819"><ele>1211.0</ele><time>2026-04-19T09:27:57.999Z</time></trkpt><trkpt lat="44.974662020423445" lon="7.281354470347834"><ele>1211.0</ele><time>2026-04-19T09:27:58.999Z</time></trkpt><trkpt lat="44.97457269567016" lon="7.281156914353616"><ele>1207.0</ele><time>2026-04-19T09:27:59.999Z</time></trkpt><trkpt lat="44.97448766423154" lon="7.280959608929375"><ele>1203.0</ele><time>2026-04-19T09:28:00.999Z</time></trkpt><trkpt lat="44.97440398045833" lon="7.280745809552538"><ele>1199.0</ele><time>2026-04-19T09:28:01.999Z</time></trkpt><trkpt lat="44.974314427991565" lon="7.280536859454951"><ele>1195.3333333333335</ele><time>2026-04-19T09:28:02.999Z</time></trkpt><trkpt lat="44.97422015011102" lon="7.280336897421722"><ele>1191.6666666666667</ele><time>2026-04-19T09:28:03.999Z</time></trkpt><trkpt lat="44.97410852239545" lon="7.280168868083239"><ele>1188.0</ele><time>2026-04-19T09:28:04.999Z</time></trkpt><trkpt lat="44.9740232372877" lon="7.2799752659697825"><ele>1194.0</ele><time>2026-04-19T09:28:05.999Z</time></trkpt><trkpt lat="44.97395283346016" lon="7.279753255003525"><ele>1200.0</ele><time>2026-04-19T09:28:06.999Z</time></trkpt><trkpt lat="44.97389775785398" lon="7.279545739966467"><ele>1206.0</ele><time>2026-04-19T09:28:07.999Z</time></trkpt><trkpt lat="44.97381394791447" lon="7.2793264835539615"><ele>1206.0</ele><time>2026-04-19T09:28:08.999Z</time></trkpt><trkpt lat="44.97372070653996" lon="7.279121661980596"><ele>1206.0</ele><time>2026-04-19T09:28:09.999Z</time></trkpt><trkpt lat="44.97361598757212" lon="7.278933882861052"><ele>1206.0</ele><time>2026-04-19T09:28:10.999Z</time></trkpt><trkpt lat="44.973492565549535" lon="7.278793304796835"><ele>1203.25</ele><time>2026-04-19T09:28:11.999Z</time></trkpt><trkpt lat="44.97342071671665" lon="7.278629718936527"><ele>1200.5</ele><time>2026-04-19T09:28:12.999Z</time></trkpt><trkpt lat="44.973350572746874" lon="7.278477064232271"><ele>1197.75</ele><time>2026-04-19T09:28:13.999Z</time></trkpt><trkpt lat="44.973250581925846" lon="7.278330185285314"><ele>1195.0</ele><time>2026-04-19T09:28:14.999Z</time></trkpt><trkpt lat="44.97317481352994" lon="7.278165529350556"><ele>1197.5</ele><time>2026-04-19T09:28:15.999Z</time></trkpt><trkpt lat="44.97308760017011" lon="7.278021919749021"><ele>1200.0</ele><time>2026-04-19T09:28:16.999Z</time></trkpt><trkpt lat="44.97300215502271" lon="7.27790910883068"><ele>1202.5</ele><time>2026-04-19T09:28:17.999Z</time></trkpt><trkpt lat="44.972902410399186" lon="7.277798321486487"><ele>1205.0</ele><time>2026-04-19T09:28:18.999Z</time></trkpt><trkpt lat="44.97278942040111" lon="7.277692060341049"><ele>1205.0</ele><time>2026-04-19T09:28:19.999Z</time></trkpt><trkpt lat="44.972659909366385" lon="7.277603696430955"><ele>1205.0</ele><time>2026-04-19T09:28:20.999Z</time></trkpt><trkpt lat="44.97252240054079" lon="7.277516744818264"><ele>1205.0</ele><time>2026-04-19T09:28:21.999Z</time></trkpt><trkpt lat="44.972381876956646" lon="7.277405549842388"><ele>1204.5</ele><time>2026-04-19T09:28:22.999Z</time></trkpt><trkpt lat="44.972278883702906" lon="7.2773332543332545"><ele>1204.0</ele><time>2026-04-19T09:28:23.999Z</time></trkpt><trkpt lat="44.9722116949828" lon="7.277224853570735"><ele>1203.5</ele><time>2026-04-19T09:28:24.999Z</time></trkpt><trkpt lat="44.9721352127276" lon="7.27715717289473"><ele>1203.0</ele><time>2026-04-19T09:28:25.999Z</time></trkpt><trkpt lat="44.97207104378905" lon="7.277140589802256"><ele>1202.5</ele><time>2026-04-19T09:28:26.999Z</time></trkpt><trkpt lat="44.97200908183198" lon="7.277110446355223"><ele>1202.0</ele><time>2026-04-19T09:28:27.999Z</time></trkpt><trkpt lat="44.971966100676916" lon="7.277034121352204"><ele>1202.0</ele><time>2026-04-19T09:28:28.999Z</time></trkpt><trkpt lat="44.971930237439295" lon="7.2769126421567005"><ele>1202.0</ele><time>2026-04-19T09:28:29.999Z</time></trkpt><trkpt lat="44.97188726407952" lon="7.27674538214952"><ele>1202.0</ele><time>2026-04-19T09:28:30.999Z</time></trkpt><trkpt lat="44.97183624137025" lon="7.276576975865009"><ele>1202.0</ele><time>2026-04-19T09:28:31.999Z</time></trkpt><trkpt lat="44.97179802912438" lon="7.276444727243517"><ele>1205.0</ele><time>2026-04-19T09:28:32.999Z</time></trkpt><trkpt lat="44.97175601722697" lon="7.276350487110796"><ele>1208.0</ele><time>2026-04-19T09:28:33.999Z</time></trkpt><trkpt lat="44.971702049377626" lon="7.276252984965175"><ele>1211.0</ele><time>2026-04-19T09:28:34.999Z</time></trkpt><trkpt lat="44.97163011054619" lon="7.276168477049181"><ele>1214.0</ele><time>2026-04-19T09:28:35.999Z</time></trkpt><trkpt lat="44.97154917519043" lon="7.276104359158341"><ele>1217.0</ele><time>2026-04-19T09:28:36.999Z</time></trkpt><trkpt lat="44.971479393431956" lon="7.276074333421245"><ele>1220.0</ele><time>2026-04-19T09:28:37.999Z</time></trkpt><trkpt lat="44.97139766524996" lon="7.276056149813413"><ele>1220.0</ele><time>2026-04-19T09:28:38.999Z</time></trkpt><trkpt lat="44.971311788662774" lon="7.276066553709478"><ele>1220.0</ele><time>2026-04-19T09:28:39.999Z</time></trkpt><trkpt lat="44.97119920665264" lon="7.276125429488195"><ele>1220.0</ele><time>2026-04-19T09:28:40.999Z</time></trkpt><trkpt lat="44.971070727999745" lon="7.2761776909501075"><ele>1220.0</ele><time>2026-04-19T09:28:41.999Z</time></trkpt><trkpt lat="44.97094507614107" lon="7.27622657425411"><ele>1221.0</ele><time>2026-04-19T09:28:42.999Z</time></trkpt><trkpt lat="44.97084699119972" lon="7.276290761119174"><ele>1222.0</ele><time>2026-04-19T09:28:43.999Z</time></trkpt><trkpt lat="44.97077871042745" lon="7.276343799581862"><ele>1223.0</ele><time>2026-04-19T09:28:44.999Z</time></trkpt><trkpt lat="44.9707219745118" lon="7.276396615728108"><ele>1224.0</ele><time>2026-04-19T09:28:45.999Z</time></trkpt><trkpt lat="44.97069494767738" lon="7.2765579003837315"><ele>1225.0</ele><time>2026-04-19T09:28:47.999Z</time></trkpt><trkpt lat="44.97068336633914" lon="7.276682820491795"><ele>1225.0</ele><time>2026-04-19T09:28:48.999Z</time></trkpt><trkpt lat="44.97067752622026" lon="7.27682658902787"><ele>1225.0</ele><time>2026-04-19T09:28:49.999Z</time></trkpt><trkpt lat="44.970634690074554" lon="7.276985195520688"><ele>1225.0</ele><time>2026-04-19T09:28:50.999Z</time></trkpt><trkpt lat="44.97057620094555" lon="7.277108683885057"><ele>1225.0</ele><time>2026-04-19T09:28:51.999Z</time></trkpt><trkpt lat="44.970499533696064" lon="7.277206870565137"><ele>1225.0</ele><time>2026-04-19T09:28:52.999Z</time></trkpt><trkpt lat="44.97041056962397" lon="7.277314838348135"><ele>1229.3333333333333</ele><time>2026-04-19T09:28:53.999Z</time></trkpt><trkpt lat="44.97031105453048" lon="7.277394684541474"><ele>1233.6666666666665</ele><time>2026-04-19T09:28:54.999Z</time></trkpt><trkpt lat="44.97023137881404" lon="7.27745834685738"><ele>1238.0</ele><time>2026-04-19T09:28:55.999Z</time></trkpt><trkpt lat="44.970166486708976" lon="7.277523084851791"><ele>1242.3333333333333</ele><time>2026-04-19T09:28:56.999Z</time></trkpt><trkpt lat="44.97011459807702" lon="7.277587217415886"><ele>1246.6666666666667</ele><time>2026-04-19T09:28:57.999Z</time></trkpt><trkpt lat="44.970075488799885" lon="7.277678611474682"><ele>1251.0</ele><time>2026-04-19T09:28:58.999Z</time></trkpt><trkpt lat="44.97003517091915" lon="7.277793329340893"><ele>1248.2</ele><time>2026-04-19T09:28:59.999Z</time></trkpt><trkpt lat="44.96997337953609" lon="7.2778956670086075"><ele>1245.3999999999999</ele><time>2026-04-19T09:29:00.999Z</time></trkpt><trkpt lat="44.96990101043735" lon="7.278001301606777"><ele>1242.6</ele><time>2026-04-19T09:29:01.999Z</time></trkpt><trkpt lat="44.96983114409987" lon="7.278121402820503"><ele>1239.8</ele><time>2026-04-19T09:29:02.999Z</time></trkpt><trkpt lat="44.96975659365855" lon="7.278134128365439"><ele>1237.0</ele><time>2026-04-19T09:29:03.999Z</time></trkpt><trkpt lat="44.96966424806668" lon="7.278119015046421"><ele>1237.0</ele><time>2026-04-19T09:29:04.999Z</time></trkpt><trkpt lat="44.96958367523902" lon="7.278109510200028"><ele>1237.0</ele><time>2026-04-19T09:29:05.999Z</time></trkpt><trkpt lat="44.96951240370646" lon="7.278106715977942"><ele>1237.0</ele><time>2026-04-19T09:29:06.999Z</time></trkpt><trkpt lat="44.96945837887788" lon="7.2782292146086265"><ele>1237.0</ele><time>2026-04-19T09:29:08.998Z</time></trkpt><trkpt lat="44.96948747642922" lon="7.27839779046814"><ele>1237.0</ele><time>2026-04-19T09:29:10.998Z</time></trkpt><trkpt lat="44.9694933779345" lon="7.278499868797529"><ele>1237.0</ele><time>2026-04-19T09:29:11.998Z</time></trkpt><trkpt lat="44.9694766773906" lon="7.278593132260409"><ele>1237.0</ele><time>2026-04-19T09:29:12.998Z</time></trkpt><trkpt lat="44.96938360078751" lon="7.27868845800426"><ele>1237.0</ele><time>2026-04-19T09:29:14.998Z</time></trkpt><trkpt lat="44.969274036970376" lon="7.2786923003809365"><ele>1237.0</ele><time>2026-04-19T09:29:15.998Z</time></trkpt><trkpt lat="44.96918243228726" lon="7.278714476534663"><ele>1237.0</ele><time>2026-04-19T09:29:16.998Z</time></trkpt><trkpt lat="44.96909687534525" lon="7.278767077049372"><ele>1237.0</ele><time>2026-04-19T09:29:17.998Z</time></trkpt><trkpt lat="44.96901710913038" lon="7.278862736685455"><ele>1235.6666666666665</ele><time>2026-04-19T09:29:19.998Z</time></trkpt><trkpt lat="44.96897973140534" lon="7.2789659898818915"><ele>1234.3333333333333</ele><time>2026-04-19T09:29:22Z</time></trkpt><trkpt lat="44.968941611909756" lon="7.279042009657591"><ele>1233.0</ele><time>2026-04-19T09:29:24Z</time></trkpt><trkpt lat="44.968872825732134" lon="7.279114290773238"><ele>1231.6666666666667</ele><time>2026-04-19T09:29:26Z</time></trkpt><trkpt lat="44.968773445071385" lon="7.279219599951085"><ele>1230.3333333333335</ele><time>2026-04-19T09:29:28Z</time></trkpt><trkpt lat="44.96868986848957" lon="7.279271975164111"><ele>1229.0</ele><time>2026-04-19T09:29:29Z</time></trkpt><trkpt lat="44.968638319894744" lon="7.279346680829115"><ele>1229.0</ele><time>2026-04-19T09:29:30Z</time></trkpt><trkpt lat="44.96861843588664" lon="7.2794346056611134"><ele>1229.0</ele><time>2026-04-19T09:29:31Z</time></trkpt><trkpt lat="44.96860827217726" lon="7.279533456198443"><ele>1229.0</ele><time>2026-04-19T09:29:32Z</time></trkpt><trkpt lat="44.96858991250602" lon="7.279634892678368"><ele>1229.0</ele><time>2026-04-19T09:29:33Z</time></trkpt><trkpt lat="44.96854648764364" lon="7.279724125299003"><ele>1229.0</ele><time>2026-04-19T09:29:35Z</time></trkpt><trkpt lat="44.96844868320751" lon="7.27967916792387"><ele>1229.0</ele><time>2026-04-19T09:29:37Z</time></trkpt><trkpt lat="44.968396229736214" lon="7.2796032760215015"><ele>1222.6000000000001</ele><time>2026-04-19T09:29:38Z</time></trkpt><trkpt lat="44.9683266334116" lon="7.279472652842393"><ele>1216.2</ele><time>2026-04-19T09:29:39Z</time></trkpt><trkpt lat="44.96826152777628" lon="7.279390198226895"><ele>1209.8000000000002</ele><time>2026-04-19T09:29:40Z</time></trkpt><trkpt lat="44.968200400955475" lon="7.279331644801037"><ele>1203.4</ele><time>2026-04-19T09:29:41Z</time></trkpt><trkpt lat="44.968126821307855" lon="7.279263140745166"><ele>1197.0</ele><time>2026-04-19T09:29:42Z</time></trkpt><trkpt lat="44.96803245370764" lon="7.279205552192115"><ele>1197.0</ele><time>2026-04-19T09:29:43Z</time></trkpt><trkpt lat="44.967961973992146" lon="7.279170395827007"><ele>1197.0</ele><time>2026-04-19T09:29:44Z</time></trkpt><trkpt lat="44.96788560834764" lon="7.279172119347145"><ele>1197.0</ele><time>2026-04-19T09:29:45Z</time></trkpt><trkpt lat="44.967793395378564" lon="7.279173718101873"><ele>1197.0</ele><time>2026-04-19T09:29:46Z</time></trkpt><trkpt lat="44.96772105068155" lon="7.279142431681525"><ele>1197.0</ele><time>2026-04-19T09:29:47Z</time></trkpt><trkpt lat="44.9676600443978" lon="7.279085396296996"><ele>1197.0</ele><time>2026-04-19T09:29:48Z</time></trkpt><trkpt lat="44.96760663248032" lon="7.279008870673264"><ele>1192.6</ele><time>2026-04-19T09:29:49Z</time></trkpt><trkpt lat="44.96755442772723" lon="7.278907516194192"><ele>1188.2</ele><time>2026-04-19T09:29:50Z</time></trkpt><trkpt lat="44.96750461122079" lon="7.2787982048740485"><ele>1183.8</ele><time>2026-04-19T09:29:51Z</time></trkpt><trkpt lat="44.96744816830785" lon="7.278693151304823"><ele>1179.4</ele><time>2026-04-19T09:29:52Z</time></trkpt><trkpt lat="44.96737526450859" lon="7.278611451171794"><ele>1175.0</ele><time>2026-04-19T09:29:53Z</time></trkpt><trkpt lat="44.967289374549445" lon="7.278551867600078"><ele>1175.0</ele><time>2026-04-19T09:29:54Z</time></trkpt><trkpt lat="44.96720177869559" lon="7.27850480614004"><ele>1175.0</ele><time>2026-04-19T09:29:55Z</time></trkpt><trkpt lat="44.96712920036862" lon="7.278435107179268"><ele>1175.0</ele><time>2026-04-19T09:29:56Z</time></trkpt><trkpt lat="44.967077288980605" lon="7.27834839627137"><ele>1175.0</ele><time>2026-04-19T09:29:57Z</time></trkpt><trkpt lat="44.967021029918776" lon="7.278220887463793"><ele>1175.0</ele><time>2026-04-19T09:29:58Z</time></trkpt><trkpt lat="44.96696422072059" lon="7.278101288775415"><ele>1174.6</ele><time>2026-04-19T09:29:59Z</time></trkpt><trkpt lat="44.966884823880214" lon="7.277996488212665"><ele>1174.2</ele><time>2026-04-19T09:30:00Z</time></trkpt><trkpt lat="44.96683444687527" lon="7.277901528913787"><ele>1173.8</ele><time>2026-04-19T09:30:01Z</time></trkpt><trkpt lat="44.96678659574929" lon="7.277777592003928"><ele>1173.4</ele><time>2026-04-19T09:30:02Z</time></trkpt><trkpt lat="44.966742361282456" lon="7.277655044839224"><ele>1173.0</ele><time>2026-04-19T09:30:03Z</time></trkpt><trkpt lat="44.96668213916098" lon="7.277544285946469"><ele>1173.0</ele><time>2026-04-19T09:30:04Z</time></trkpt><trkpt lat="44.96660347487396" lon="7.277445799879194"><ele>1173.0</ele><time>2026-04-19T09:30:05Z</time></trkpt><trkpt lat="44.96651905726979" lon="7.277333425045484"><ele>1173.0</ele><time>2026-04-19T09:30:06Z</time></trkpt><trkpt lat="44.966439547309555" lon="7.277227959501375"><ele>1173.0</ele><time>2026-04-19T09:30:07Z</time></trkpt><trkpt lat="44.96633980050468" lon="7.277129603691985"><ele>1170.5</ele><time>2026-04-19T09:30:08Z</time></trkpt><trkpt lat="44.96622379576258" lon="7.277046778822437"><ele>1168.0</ele><time>2026-04-19T09:30:09Z</time></trkpt><trkpt lat="44.9660947523606" lon="7.276965901084741"><ele>1165.5</ele><time>2026-04-19T09:30:10Z</time></trkpt><trkpt lat="44.965970342274055" lon="7.276888913590323"><ele>1163.0</ele><time>2026-04-19T09:30:11Z</time></trkpt><trkpt lat="44.96584698642587" lon="7.276829507597747"><ele>1163.0</ele><time>2026-04-19T09:30:12Z</time></trkpt><trkpt lat="44.965728585936795" lon="7.276761561259117"><ele>1163.0</ele><time>2026-04-19T09:30:13Z</time></trkpt><trkpt lat="44.965627131953504" lon="7.276689502831995"><ele>1163.0</ele><time>2026-04-19T09:30:14Z</time></trkpt><trkpt lat="44.96552470402623" lon="7.276630996320715"><ele>1163.0</ele><time>2026-04-19T09:30:15Z</time></trkpt><trkpt lat="44.9654359456297" lon="7.276588269827399"><ele>1163.0</ele><time>2026-04-19T09:30:16Z</time></trkpt><trkpt lat="44.965321744152874" lon="7.2765608077803305"><ele>1163.0</ele><time>2026-04-19T09:30:17Z</time></trkpt><trkpt lat="44.96520734936392" lon="7.276548436026769"><ele>1163.0</ele><time>2026-04-19T09:30:17.999Z</time></trkpt><trkpt lat="44.96510160940932" lon="7.2765266945722935"><ele>1163.0</ele><time>2026-04-19T09:30:18.999Z</time></trkpt><trkpt lat="44.96501919865133" lon="7.276513372631769"><ele>1163.0</ele><time>2026-04-19T09:30:19.999Z</time></trkpt><trkpt lat="44.96494114657874" lon="7.276509158909852"><ele>1163.0</ele><time>2026-04-19T09:30:20.999Z</time></trkpt><trkpt lat="44.96487864608262" lon="7.276543716886451"><ele>1164.0</ele><time>2026-04-19T09:30:21.999Z</time></trkpt><trkpt lat="44.96480373900111" lon="7.276627897407264"><ele>1165.0</ele><time>2026-04-19T09:30:22.999Z</time></trkpt><trkpt lat="44.96471924349093" lon="7.276724295747444"><ele>1166.0</ele><time>2026-04-19T09:30:23.999Z</time></trkpt><trkpt lat="44.96462226723792" lon="7.2767865772937705"><ele>1167.0</ele><time>2026-04-19T09:30:24.999Z</time></trkpt><trkpt lat="44.96450804781593" lon="7.276821829555135"><ele>1168.0</ele><time>2026-04-19T09:30:25.999Z</time></trkpt><trkpt lat="44.96440683494897" lon="7.276863664145857"><ele>1168.0</ele><time>2026-04-19T09:30:26.999Z</time></trkpt><trkpt lat="44.96430657839063" lon="7.276932807333183"><ele>1168.0</ele><time>2026-04-19T09:30:27.999Z</time></trkpt><trkpt lat="44.9642036436555" lon="7.277012938794359"><ele>1168.0</ele><time>2026-04-19T09:30:28.999Z</time></trkpt><trkpt lat="44.96412204667133" lon="7.277056012189007"><ele>1168.0</ele><time>2026-04-19T09:30:29.999Z</time></trkpt><trkpt lat="44.964030491197974" lon="7.277122573379448"><ele>1168.0</ele><time>2026-04-19T09:30:30.999Z</time></trkpt><trkpt lat="44.96395492364682" lon="7.2772193686272155"><ele>1169.0</ele><time>2026-04-19T09:30:31.999Z</time></trkpt><trkpt lat="44.96389887705808" lon="7.277332086444872"><ele>1170.0</ele><time>2026-04-19T09:30:32.999Z</time></trkpt><trkpt lat="44.96382092718881" lon="7.2774785974953256"><ele>1171.0</ele><time>2026-04-19T09:30:33.999Z</time></trkpt><trkpt lat="44.96374274731203" lon="7.277581501007519"><ele>1172.0</ele><time>2026-04-19T09:30:34.999Z</time></trkpt><trkpt lat="44.963636540923375" lon="7.277675700318814"><ele>1172.0</ele><time>2026-04-19T09:30:35.999Z</time></trkpt><trkpt lat="44.96354217685498" lon="7.277758986625294"><ele>1172.0</ele><time>2026-04-19T09:30:36.999Z</time></trkpt><trkpt lat="44.96346195649589" lon="7.277817309729591"><ele>1172.0</ele><time>2026-04-19T09:30:37.999Z</time></trkpt><trkpt lat="44.96339750320983" lon="7.277954723104339"><ele>1172.0</ele><time>2026-04-19T09:30:39.999Z</time></trkpt><trkpt lat="44.963360928387615" lon="7.278075194554398"><ele>1172.0</ele><time>2026-04-19T09:30:40.999Z</time></trkpt><trkpt lat="44.96330607221842" lon="7.278237600932719"><ele>1168.5</ele><time>2026-04-19T09:30:41.999Z</time></trkpt><trkpt lat="44.96325728028868" lon="7.278419287148957"><ele>1165.0</ele><time>2026-04-19T09:30:42.999Z</time></trkpt><trkpt lat="44.96319032233758" lon="7.278595749006736"><ele>1161.5</ele><time>2026-04-19T09:30:43.999Z</time></trkpt><trkpt lat="44.963139302890255" lon="7.27877246859116"><ele>1158.0</ele><time>2026-04-19T09:30:44.999Z</time></trkpt><trkpt lat="44.963066731651196" lon="7.278917631736507"><ele>1158.0</ele><time>2026-04-19T09:30:45.999Z</time></trkpt><trkpt lat="44.96299631202465" lon="7.279037670275903"><ele>1158.0</ele><time>2026-04-19T09:30:46.999Z</time></trkpt><trkpt lat="44.96292278885712" lon="7.279122293236567"><ele>1158.0</ele><time>2026-04-19T09:30:47.999Z</time></trkpt><trkpt lat="44.962851008215175" lon="7.279162287777478"><ele>1158.0</ele><time>2026-04-19T09:30:48.999Z</time></trkpt><trkpt lat="44.96274517489353" lon="7.279090549122215"><ele>1158.0</ele><time>2026-04-19T09:30:50.999Z</time></trkpt><trkpt lat="44.962752520447246" lon="7.278880672504165"><ele>1158.0</ele><time>2026-04-19T09:30:51.999Z</time></trkpt><trkpt lat="44.96268292645316" lon="7.278818174523316"><ele>1158.0</ele><time>2026-04-19T09:30:52.999Z</time></trkpt><trkpt lat="44.96262070862707" lon="7.278733371697017"><ele>1158.0</ele><time>2026-04-19T09:30:53.999Z</time></trkpt><trkpt lat="44.962573865388485" lon="7.278665538596776"><ele>1158.0</ele><time>2026-04-19T09:30:54.999Z</time></trkpt><trkpt lat="44.9625236518448" lon="7.278597184766293"><ele>1158.0</ele><time>2026-04-19T09:30:55.999Z</time></trkpt><trkpt lat="44.9624656046847" lon="7.278506786755594"><ele>1158.0</ele><time>2026-04-19T09:30:56.999Z</time></trkpt><trkpt lat="44.96240416265005" lon="7.278404041410941"><ele>1156.4</ele><time>2026-04-19T09:30:57.999Z</time></trkpt><trkpt lat="44.96231125211531" lon="7.278326777705804"><ele>1154.8</ele><time>2026-04-19T09:30:58.999Z</time></trkpt><trkpt lat="44.962232640009056" lon="7.278243983668439"><ele>1153.2</ele><time>2026-04-19T09:30:59.999Z</time></trkpt><trkpt lat="44.96215166176534" lon="7.278202020297722"><ele>1151.6</ele><time>2026-04-19T09:31:00.999Z</time></trkpt><trkpt lat="44.96206573596534" lon="7.278153370131181"><ele>1150.0</ele><time>2026-04-19T09:31:01.999Z</time></trkpt><trkpt lat="44.9619691197785" lon="7.278128121897315"><ele>1150.0</ele><time>2026-04-19T09:31:02.999Z</time></trkpt><trkpt lat="44.96188853964435" lon="7.278129605273884"><ele>1150.0</ele><time>2026-04-19T09:31:03.999Z</time></trkpt><trkpt lat="44.961809456530695" lon="7.278157038560158"><ele>1150.0</ele><time>2026-04-19T09:31:04.999Z</time></trkpt><trkpt lat="44.96174515355986" lon="7.278197367208789"><ele>1150.0</ele><time>2026-04-19T09:31:05.999Z</time></trkpt><trkpt lat="44.961682796465" lon="7.278226162670204"><ele>1150.0</ele><time>2026-04-19T09:31:06.999Z</time></trkpt><trkpt lat="44.961592579584014" lon="7.278268888090265"><ele>1150.0</ele><time>2026-04-19T09:31:08.999Z</time></trkpt><trkpt lat="44.9615254314496" lon="7.278271847456034"><ele>1150.4</ele><time>2026-04-19T09:31:12.999Z</time></trkpt><trkpt lat="44.96143267922857" lon="7.278249038716341"><ele>1150.8</ele><time>2026-04-19T09:31:22.999Z</time></trkpt><trkpt lat="44.96142030596501" lon="7.2780826557637495"><ele>1151.2</ele><time>2026-04-19T09:31:23.999Z</time></trkpt><trkpt lat="44.961389378259135" lon="7.277976282260039"><ele>1151.6</ele><time>2026-04-19T09:31:24.999Z</time></trkpt><trkpt lat="44.961343331523" lon="7.277849812133809"><ele>1152.0</ele><time>2026-04-19T09:31:26.998Z</time></trkpt><trkpt lat="44.96128788263567" lon="7.277728520515213"><ele>1152.0</ele><time>2026-04-19T09:31:29Z</time></trkpt><trkpt lat="44.96125225333475" lon="7.277636464839412"><ele>1152.0</ele><time>2026-04-19T09:31:30Z</time></trkpt><trkpt lat="44.96118072293313" lon="7.277587849305835"><ele>1152.0</ele><time>2026-04-19T09:31:31Z</time></trkpt><trkpt lat="44.96111567839322" lon="7.27754197272095"><ele>1152.0</ele><time>2026-04-19T09:31:32Z</time></trkpt><trkpt lat="44.96103985834463" lon="7.277512976634754"><ele>1152.0</ele><time>2026-04-19T09:31:33Z</time></trkpt><trkpt lat="44.96095679111315" lon="7.277490064593751"><ele>1152.0</ele><time>2026-04-19T09:31:34Z</time></trkpt><trkpt lat="44.960874461869494" lon="7.277459518518158"><ele>1154.6</ele><time>2026-04-19T09:31:35Z</time></trkpt><trkpt lat="44.96079430516503" lon="7.27741406292978"><ele>1157.2</ele><time>2026-04-19T09:31:36Z</time></trkpt><trkpt lat="44.96069484921693" lon="7.277355944581803"><ele>1159.8</ele><time>2026-04-19T09:31:37Z</time></trkpt><trkpt lat="44.9605895473289" lon="7.27731311832693"><ele>1162.4</ele><time>2026-04-19T09:31:38Z</time></trkpt><trkpt lat="44.96047875570985" lon="7.277290539632732"><ele>1165.0</ele><time>2026-04-19T09:31:39Z</time></trkpt><trkpt lat="44.9603553794576" lon="7.27728757969846"><ele>1165.0</ele><time>2026-04-19T09:31:40Z</time></trkpt><trkpt lat="44.96023849068836" lon="7.277285185912216"><ele>1165.0</ele><time>2026-04-19T09:31:41Z</time></trkpt><trkpt lat="44.960138147465386" lon="7.277285944680556"><ele>1165.0</ele><time>2026-04-19T09:31:42Z</time></trkpt><trkpt lat="44.96004327936731" lon="7.277283714688118"><ele>1165.0</ele><time>2026-04-19T09:31:43Z</time></trkpt><trkpt lat="44.95994973682734" lon="7.277265812592568"><ele>1165.0</ele><time>2026-04-19T09:31:44Z</time></trkpt><trkpt lat="44.959852838086825" lon="7.277227666388112"><ele>1165.6</ele><time>2026-04-19T09:31:45Z</time></trkpt><trkpt lat="44.95975348387382" lon="7.277143727723405"><ele>1166.2</ele><time>2026-04-19T09:31:46Z</time></trkpt><trkpt lat="44.95964709361811" lon="7.277102262198711"><ele>1166.8</ele><time>2026-04-19T09:31:47Z</time></trkpt><trkpt lat="44.95956258005256" lon="7.277051320191363"><ele>1167.4</ele><time>2026-04-19T09:31:48Z</time></trkpt><trkpt lat="44.959474361225" lon="7.277000077055728"><ele>1168.0</ele><time>2026-04-19T09:31:49Z</time></trkpt><trkpt lat="44.95939012245793" lon="7.276948151877157"><ele>1168.0</ele><time>2026-04-19T09:31:50Z</time></trkpt><trkpt lat="44.959300877636814" lon="7.276883300232282"><ele>1168.0</ele><time>2026-04-19T09:31:51Z</time></trkpt><trkpt lat="44.95921552490529" lon="7.276795053578758"><ele>1168.0</ele><time>2026-04-19T09:31:52Z</time></trkpt><trkpt lat="44.95912442537971" lon="7.276701001616105"><ele>1168.0</ele><time>2026-04-19T09:31:53Z</time></trkpt><trkpt lat="44.95903440366426" lon="7.276633624694405"><ele>1168.0</ele><time>2026-04-19T09:31:54Z</time></trkpt><trkpt lat="44.95894072754971" lon="7.2765968167435595"><ele>1167.0</ele><time>2026-04-19T09:31:55Z</time></trkpt><trkpt lat="44.958841816797154" lon="7.2765918249020665"><ele>1166.0</ele><time>2026-04-19T09:31:56Z</time></trkpt><trkpt lat="44.958750985364084" lon="7.276611712116099"><ele>1165.0</ele><time>2026-04-19T09:31:57Z</time></trkpt><trkpt lat="44.958651668320904" lon="7.276633963840403"><ele>1164.0</ele><time>2026-04-19T09:31:58Z</time></trkpt><trkpt lat="44.95855010376338" lon="7.2766651764712265"><ele>1163.0</ele><time>2026-04-19T09:31:59Z</time></trkpt><trkpt lat="44.95844894265349" lon="7.276696265248892"><ele>1163.0</ele><time>2026-04-19T09:32:00Z</time></trkpt><trkpt lat="44.95838061983663" lon="7.276920508691646"><ele>1163.0</ele><time>2026-04-19T09:32:01Z</time></trkpt><trkpt lat="44.95829200717691" lon="7.276976824492422"><ele>1163.0</ele><time>2026-04-19T09:32:02Z</time></trkpt><trkpt lat="44.958201396809976" lon="7.277018361933826"><ele>1163.0</ele><time>2026-04-19T09:32:03Z</time></trkpt><trkpt lat="44.9581066105887" lon="7.277046036632419"><ele>1160.8</ele><time>2026-04-19T09:32:04Z</time></trkpt><trkpt lat="44.95799964089884" lon="7.277057542067257"><ele>1158.6</ele><time>2026-04-19T09:32:05Z</time></trkpt><trkpt lat="44.95790788559484" lon="7.276986949175814"><ele>1156.4</ele><time>2026-04-19T09:32:06Z</time></trkpt><trkpt lat="44.95781380417231" lon="7.276955103563777"><ele>1154.2</ele><time>2026-04-19T09:32:07Z</time></trkpt><trkpt lat="44.95775306381653" lon="7.276864793258606"><ele>1152.0</ele><time>2026-04-19T09:32:08Z</time></trkpt><trkpt lat="44.95769405799498" lon="7.276763979431044"><ele>1152.0</ele><time>2026-04-19T09:32:09Z</time></trkpt><trkpt lat="44.95761975139459" lon="7.276610527625663"><ele>1152.0</ele><time>2026-04-19T09:32:10Z</time></trkpt><trkpt lat="44.95758938254426" lon="7.27652794190134"><ele>1152.0</ele><time>2026-04-19T09:32:11Z</time></trkpt><trkpt lat="44.957537605830915" lon="7.276443282646921"><ele>1152.0</ele><time>2026-04-19T09:32:12Z</time></trkpt><trkpt lat="44.95747621030812" lon="7.276376830958913"><ele>1152.0</ele><time>2026-04-19T09:32:13Z</time></trkpt><trkpt lat="44.95742297145845" lon="7.276314223597002"><ele>1152.0</ele><time>2026-04-19T09:32:14Z</time></trkpt><trkpt lat="44.95732798319632" lon="7.276205264372374"><ele>1152.6666666666667</ele><time>2026-04-19T09:32:16Z</time></trkpt><trkpt lat="44.95725596007926" lon="7.27618528492022"><ele>1153.3333333333333</ele><time>2026-04-19T09:32:17Z</time></trkpt><trkpt lat="44.9571881724679" lon="7.2760962022970235"><ele>1154.0</ele><time>2026-04-19T09:32:19Z</time></trkpt><trkpt lat="44.957132734730486" lon="7.276047284170753"><ele>1154.6666666666665</ele><time>2026-04-19T09:32:31.999Z</time></trkpt><trkpt lat="44.95705826901551" lon="7.276029413120894"><ele>1155.3333333333333</ele><time>2026-04-19T09:32:43.999Z</time></trkpt><trkpt lat="44.95712624012224" lon="7.276070904403126"><ele>1156.0</ele><time>2026-04-19T09:33:11.999Z</time></trkpt><trkpt lat="44.957258057767476" lon="7.276161935861386"><ele>1156.0</ele><time>2026-04-19T09:33:13.999Z</time></trkpt><trkpt lat="44.957325480061705" lon="7.2762638765527035"><ele>1156.0</ele><time>2026-04-19T09:33:14.999Z</time></trkpt><trkpt lat="44.957400510551636" lon="7.276337236650979"><ele>1156.0</ele><time>2026-04-19T09:33:15.999Z</time></trkpt><trkpt lat="44.95748260016161" lon="7.276423822937031"><ele>1156.0</ele><time>2026-04-19T09:33:16.999Z</time></trkpt><trkpt lat="44.95756384178837" lon="7.276531020497532"><ele>1156.0</ele><time>2026-04-19T09:33:17.999Z</time></trkpt><trkpt lat="44.95761130665691" lon="7.276695906820594"><ele>1155.0</ele><time>2026-04-19T09:33:18.999Z</time></trkpt><trkpt lat="44.957689955720724" lon="7.276810073600501"><ele>1154.0</ele><time>2026-04-19T09:33:19.999Z</time></trkpt><trkpt lat="44.95774391448668" lon="7.276913540465679"><ele>1153.0</ele><time>2026-04-19T09:33:20.999Z</time></trkpt><trkpt lat="44.95779398718621" lon="7.276986821509381"><ele>1152.0</ele><time>2026-04-19T09:33:21.999Z</time></trkpt><trkpt lat="44.957988666968966" lon="7.277051762389747"><ele>1152.0</ele><time>2026-04-19T09:33:24.999Z</time></trkpt><trkpt lat="44.95805333886092" lon="7.277076415480035"><ele>1152.0</ele><time>2026-04-19T09:33:25.999Z</time></trkpt><trkpt lat="44.95807464157561" lon="7.27734773449306"><ele>1152.0</ele><time>2026-04-19T09:33:31.998Z</time></trkpt><trkpt lat="44.95808309034938" lon="7.277443435873724"><ele>1152.0</ele><time>2026-04-19T09:33:32.998Z</time></trkpt><trkpt lat="44.95802510395532" lon="7.277526657890712"><ele>1152.0</ele><time>2026-04-19T09:33:34.001Z</time></trkpt><trkpt lat="44.9579852393954" lon="7.277680319887577"><ele>1151.8333333333333</ele><time>2026-04-19T09:33:36.001Z</time></trkpt><trkpt lat="44.95794568355991" lon="7.27775472524295"><ele>1151.6666666666667</ele><time>2026-04-19T09:33:37.001Z</time></trkpt><trkpt lat="44.95788633612473" lon="7.277817619013848"><ele>1151.5</ele><time>2026-04-19T09:33:38.001Z</time></trkpt><trkpt lat="44.957778819903695" lon="7.277911827014151"><ele>1151.3333333333335</ele><time>2026-04-19T09:33:40.001Z</time></trkpt><trkpt lat="44.95771264543677" lon="7.277937415434393"><ele>1151.1666666666667</ele><time>2026-04-19T09:33:41.001Z</time></trkpt><trkpt lat="44.95764178720773" lon="7.2779726316108375"><ele>1151.0</ele><time>2026-04-19T09:33:42.001Z</time></trkpt><trkpt lat="44.95757084686329" lon="7.27802543984887"><ele>1150.8333333333335</ele><time>2026-04-19T09:33:43.001Z</time></trkpt><trkpt lat="44.957497955087916" lon="7.2780524457827624"><ele>1150.6666666666667</ele><time>2026-04-19T09:33:44.001Z</time></trkpt><trkpt lat="44.95742783316417" lon="7.278090569474035"><ele>1150.5</ele><time>2026-04-19T09:33:45Z</time></trkpt><trkpt lat="44.95733891378062" lon="7.278130534580882"><ele>1150.3333333333333</ele><time>2026-04-19T09:33:46Z</time></trkpt><trkpt lat="44.95725107855984" lon="7.278139708459254"><ele>1150.1666666666665</ele><time>2026-04-19T09:33:47Z</time></trkpt><trkpt lat="44.95717500325016" lon="7.278171014019543"><ele>1150.0</ele><time>2026-04-19T09:33:48Z</time></trkpt><trkpt lat="44.95711072612504" lon="7.278215855982664"><ele>1150.0</ele><time>2026-04-19T09:33:49Z</time></trkpt><trkpt lat="44.95702974727011" lon="7.2783014539204265"><ele>1150.0</ele><time>2026-04-19T09:33:51Z</time></trkpt><trkpt lat="44.9569722529382" lon="7.2783715723075995"><ele>1150.0</ele><time>2026-04-19T09:33:52Z</time></trkpt><trkpt lat="44.95691821063478" lon="7.278438736807588"><ele>1150.0</ele><time>2026-04-19T09:33:53Z</time></trkpt><trkpt lat="44.95686048239957" lon="7.278502087003649"><ele>1150.0</ele><time>2026-04-19T09:33:54Z</time></trkpt><trkpt lat="44.95680536199229" lon="7.278551332402272"><ele>1150.0</ele><time>2026-04-19T09:33:55Z</time></trkpt><trkpt lat="44.956742776472254" lon="7.278607918832445"><ele>1150.0</ele><time>2026-04-19T09:33:56Z</time></trkpt><trkpt lat="44.95668229773883" lon="7.27865827166947"><ele>1150.0</ele><time>2026-04-19T09:33:57Z</time></trkpt><trkpt lat="44.95657488562574" lon="7.278721598201925"><ele>1150.0</ele><time>2026-04-19T09:33:59Z</time></trkpt><trkpt lat="44.956499013639785" lon="7.278758219206234"><ele>1150.0</ele><time>2026-04-19T09:34:01Z</time></trkpt><trkpt lat="44.95656750922265" lon="7.2787251583060595"><ele>1150.0</ele><time>2026-04-19T09:34:21Z</time></trkpt><trkpt lat="44.95665833715546" lon="7.278678405264445"><ele>1150.0</ele><time>2026-04-19T09:34:23Z</time></trkpt><trkpt lat="44.95677335319739" lon="7.278581415460144"><ele>1150.0</ele><time>2026-04-19T09:34:25Z</time></trkpt><trkpt lat="44.9568519441248" lon="7.278579687194756"><ele>1150.0</ele><time>2026-04-19T09:34:26Z</time></trkpt><trkpt lat="44.95693919887929" lon="7.2784854527393135"><ele>1150.0</ele><time>2026-04-19T09:34:28Z</time></trkpt><trkpt lat="44.95698503487463" lon="7.2784196425003245"><ele>1150.0</ele><time>2026-04-19T09:34:28.999Z</time></trkpt><trkpt lat="44.95705899869214" lon="7.2783111651920045"><ele>1150.0</ele><time>2026-04-19T09:34:30.999Z</time></trkpt><trkpt lat="44.95710161994369" lon="7.278226159914049"><ele>1150.0</ele><time>2026-04-19T09:34:41.999Z</time></trkpt><trkpt lat="44.95721492005873" lon="7.278145299199235"><ele>1150.0</ele><time>2026-04-19T09:34:43.999Z</time></trkpt><trkpt lat="44.95732592794716" lon="7.278118392586285"><ele>1150.0</ele><time>2026-04-19T09:34:44.999Z</time></trkpt><trkpt lat="44.95741687965891" lon="7.278127620626058"><ele>1150.0</ele><time>2026-04-19T09:34:45.999Z</time></trkpt><trkpt lat="44.95750819690349" lon="7.27808677539949"><ele>1150.0</ele><time>2026-04-19T09:34:46.999Z</time></trkpt><trkpt lat="44.95759716732858" lon="7.278033570843676"><ele>1150.0</ele><time>2026-04-19T09:34:47.999Z</time></trkpt><trkpt lat="44.957671760480736" lon="7.277990038698855"><ele>1150.1666666666665</ele><time>2026-04-19T09:34:48.999Z</time></trkpt><trkpt lat="44.95773471217218" lon="7.277968305607857"><ele>1150.3333333333333</ele><time>2026-04-19T09:34:49.999Z</time></trkpt><trkpt lat="44.95782954861238" lon="7.277923745988956"><ele>1150.5</ele><time>2026-04-19T09:34:50.999Z</time></trkpt><trkpt lat="44.95790554935661" lon="7.277855256256297"><ele>1150.6666666666667</ele><time>2026-04-19T09:34:51.999Z</time></trkpt><trkpt lat="44.957965842381206" lon="7.27778983570791"><ele>1150.8333333333335</ele><time>2026-04-19T09:34:52.999Z</time></trkpt><trkpt lat="44.95798867253045" lon="7.277652506229852"><ele>1151.0</ele><time>2026-04-19T09:34:53.999Z</time></trkpt><trkpt lat="44.958025280528226" lon="7.277535005553246"><ele>1151.0</ele><time>2026-04-19T09:34:54.999Z</time></trkpt><trkpt lat="44.958037253605134" lon="7.277425504234825"><ele>1151.0</ele><time>2026-04-19T09:34:55.999Z</time></trkpt><trkpt lat="44.95804186900815" lon="7.277304343752721"><ele>1151.0</ele><time>2026-04-19T09:34:56.999Z</time></trkpt><trkpt lat="44.958050452911394" lon="7.277184479559058"><ele>1151.0</ele><time>2026-04-19T09:34:57.999Z</time></trkpt><trkpt lat="44.95800912189495" lon="7.277073965377656"><ele>1151.0</ele><time>2026-04-19T09:34:59.999Z</time></trkpt><trkpt lat="44.95795365943578" lon="7.277020881105656"><ele>1151.0</ele><time>2026-04-19T09:35:01.999Z</time></trkpt><trkpt lat="44.95780296534021" lon="7.2769281221774005"><ele>1151.2</ele><time>2026-04-19T09:35:03.999Z</time></trkpt><trkpt lat="44.957732170559176" lon="7.27684353310282"><ele>1151.3999999999999</ele><time>2026-04-19T09:35:04.999Z</time></trkpt><trkpt lat="44.95767726667867" lon="7.276735174521257"><ele>1151.6</ele><time>2026-04-19T09:35:05.999Z</time></trkpt><trkpt lat="44.95761554955243" lon="7.276588216845077"><ele>1151.8</ele><time>2026-04-19T09:35:06.999Z</time></trkpt><trkpt lat="44.95753620700495" lon="7.276449260229201"><ele>1152.0</ele><time>2026-04-19T09:35:07.999Z</time></trkpt><trkpt lat="44.957446567257676" lon="7.27633625764124"><ele>1153.0</ele><time>2026-04-19T09:35:08.999Z</time></trkpt><trkpt lat="44.95735370406152" lon="7.276240824920135"><ele>1154.0</ele><time>2026-04-19T09:35:09.999Z</time></trkpt><trkpt lat="44.95723212181939" lon="7.276144853445006"><ele>1155.0</ele><time>2026-04-19T09:35:10.999Z</time></trkpt><trkpt lat="44.9571109771994" lon="7.27602105986587"><ele>1156.0</ele><time>2026-04-19T09:35:11.999Z</time></trkpt><trkpt lat="44.9569750039805" lon="7.275933258955264"><ele>1156.0</ele><time>2026-04-19T09:35:12.999Z</time></trkpt><trkpt lat="44.95685120483165" lon="7.27584379996217"><ele>1156.0</ele><time>2026-04-19T09:35:13.999Z</time></trkpt><trkpt lat="44.95673459365279" lon="7.275747691379163"><ele>1156.0</ele><time>2026-04-19T09:35:14.999Z</time></trkpt><trkpt lat="44.95668377712265" lon="7.275600647431517"><ele>1156.0</ele><time>2026-04-19T09:35:15.999Z</time></trkpt><trkpt lat="44.95664357326652" lon="7.275452309492953"><ele>1158.75</ele><time>2026-04-19T09:35:16.999Z</time></trkpt><trkpt lat="44.95660007264666" lon="7.275290535536867"><ele>1161.5</ele><time>2026-04-19T09:35:17.999Z</time></trkpt><trkpt lat="44.95655263975059" lon="7.275114476222414"><ele>1164.25</ele><time>2026-04-19T09:35:18.999Z</time></trkpt><trkpt lat="44.95651421809689" lon="7.274889862823865"><ele>1167.0</ele><time>2026-04-19T09:35:19.999Z</time></trkpt><trkpt lat="44.95646153281145" lon="7.2746412137595"><ele>1167.0</ele><time>2026-04-19T09:35:20.999Z</time></trkpt><trkpt lat="44.95641274266232" lon="7.274415628934719"><ele>1167.0</ele><time>2026-04-19T09:35:21.999Z</time></trkpt><trkpt lat="44.956357802734715" lon="7.274176211347498"><ele>1167.0</ele><time>2026-04-19T09:35:22.999Z</time></trkpt><trkpt lat="44.95630547561073" lon="7.274000100353452"><ele>1167.4</ele><time>2026-04-19T09:35:23.999Z</time></trkpt><trkpt lat="44.956265929304124" lon="7.273865307265268"><ele>1167.8000000000002</ele><time>2026-04-19T09:35:24.998Z</time></trkpt><trkpt lat="44.95622642272743" lon="7.273737522040188"><ele>1168.2</ele><time>2026-04-19T09:35:25.998Z</time></trkpt><trkpt lat="44.956135480513105" lon="7.273649075179083"><ele>1168.6000000000001</ele><time>2026-04-19T09:35:26.998Z</time></trkpt><trkpt lat="44.95604180032837" lon="7.273614097647084"><ele>1169.0</ele><time>2026-04-19T09:35:27.998Z</time></trkpt><trkpt lat="44.955962535096084" lon="7.273589590564681"><ele>1172.75</ele><time>2026-04-19T09:35:28.998Z</time></trkpt><trkpt lat="44.955855833870416" lon="7.273594700892235"><ele>1176.5</ele><time>2026-04-19T09:35:29.998Z</time></trkpt><trkpt lat="44.9557302961141" lon="7.273591885151256"><ele>1180.25</ele><time>2026-04-19T09:35:30.998Z</time></trkpt><trkpt lat="44.955643947412206" lon="7.273474403390971"><ele>1184.0</ele><time>2026-04-19T09:35:31.998Z</time></trkpt><trkpt lat="44.95554554228441" lon="7.27341494769854"><ele>1184.0</ele><time>2026-04-19T09:35:32.998Z</time></trkpt><trkpt lat="44.95548107522743" lon="7.273274499787028"><ele>1184.0</ele><time>2026-04-19T09:35:33.998Z</time></trkpt><trkpt lat="44.955398185775785" lon="7.273151828586694"><ele>1184.0</ele><time>2026-04-19T09:35:34.998Z</time></trkpt><trkpt lat="44.95529409882164" lon="7.273074131336546"><ele>1184.0</ele><time>2026-04-19T09:35:35.998Z</time></trkpt><trkpt lat="44.95520516078735" lon="7.273007047443827"><ele>1183.4</ele><time>2026-04-19T09:35:36.998Z</time></trkpt><trkpt lat="44.95509914989981" lon="7.272960510543831"><ele>1182.8000000000002</ele><time>2026-04-19T09:35:37.998Z</time></trkpt><trkpt lat="44.9549952536727" lon="7.2729226569207075"><ele>1182.1999999999998</ele><time>2026-04-19T09:35:38.998Z</time></trkpt><trkpt lat="44.9549196197276" lon="7.27286415396925"><ele>1181.6</ele><time>2026-04-19T09:35:40Z</time></trkpt><trkpt lat="44.954833830764116" lon="7.2728006128985925"><ele>1181.0</ele><time>2026-04-19T09:35:41Z</time></trkpt><trkpt lat="44.954737536918884" lon="7.272743563893585"><ele>1178.8</ele><time>2026-04-19T09:35:42Z</time></trkpt><trkpt lat="44.95463872565775" lon="7.272695209073435"><ele>1176.6</ele><time>2026-04-19T09:35:43Z</time></trkpt><trkpt lat="44.95454027104864" lon="7.272631670859886"><ele>1174.4</ele><time>2026-04-19T09:35:44Z</time></trkpt><trkpt lat="44.954439911657325" lon="7.272614690165182"><ele>1172.2</ele><time>2026-04-19T09:35:45Z</time></trkpt><trkpt lat="44.954332259205614" lon="7.272617731682801"><ele>1170.0</ele><time>2026-04-19T09:35:46Z</time></trkpt><trkpt lat="44.95422396353025" lon="7.27264580460974"><ele>1169.0</ele><time>2026-04-19T09:35:47Z</time></trkpt><trkpt lat="44.95411254391104" lon="7.272641348175902"><ele>1168.0</ele><time>2026-04-19T09:35:48Z</time></trkpt><trkpt lat="44.95400562419809" lon="7.272661976837042"><ele>1167.0</ele><time>2026-04-19T09:35:49Z</time></trkpt><trkpt lat="44.95389239550822" lon="7.272705843133422"><ele>1166.0</ele><time>2026-04-19T09:35:50Z</time></trkpt><trkpt lat="44.95381924288201" lon="7.272698626168204"><ele>1165.0</ele><time>2026-04-19T09:35:51Z</time></trkpt><trkpt lat="44.953719287673835" lon="7.272725118507968"><ele>1165.0</ele><time>2026-04-19T09:35:52Z</time></trkpt><trkpt lat="44.95362905435149" lon="7.272766737916802"><ele>1165.0</ele><time>2026-04-19T09:35:53Z</time></trkpt><trkpt lat="44.95353345762749" lon="7.272842155128426"><ele>1165.0</ele><time>2026-04-19T09:35:54Z</time></trkpt><trkpt lat="44.95346686508135" lon="7.2729361496473555"><ele>1165.0</ele><time>2026-04-19T09:35:55Z</time></trkpt><trkpt lat="44.95337395768876" lon="7.273040840232761"><ele>1165.0</ele><time>2026-04-19T09:35:56Z</time></trkpt><trkpt lat="44.95330759785538" lon="7.273180691941756"><ele>1164.0</ele><time>2026-04-19T09:35:57Z</time></trkpt><trkpt lat="44.95323391951017" lon="7.273324586106603"><ele>1163.0</ele><time>2026-04-19T09:35:58Z</time></trkpt><trkpt lat="44.9531610525334" lon="7.273452671217942"><ele>1162.0</ele><time>2026-04-19T09:35:59Z</time></trkpt><trkpt lat="44.95309402600554" lon="7.2735659021687225"><ele>1161.0</ele><time>2026-04-19T09:36:00Z</time></trkpt><trkpt lat="44.95302358654781" lon="7.273619286398953"><ele>1160.0</ele><time>2026-04-19T09:36:01Z</time></trkpt><trkpt lat="44.95294755727335" lon="7.273625826491802"><ele>1160.0</ele><time>2026-04-19T09:36:02Z</time></trkpt><trkpt lat="44.95288216766233" lon="7.2735531433463265"><ele>1160.0</ele><time>2026-04-19T09:36:03Z</time></trkpt><trkpt lat="44.952838257938126" lon="7.273459328211986"><ele>1160.0</ele><time>2026-04-19T09:36:04Z</time></trkpt><trkpt lat="44.95276196726626" lon="7.27335698415383"><ele>1160.0</ele><time>2026-04-19T09:36:05Z</time></trkpt><trkpt lat="44.95267828002643" lon="7.273242254056919"><ele>1160.0</ele><time>2026-04-19T09:36:06Z</time></trkpt><trkpt lat="44.95259922663566" lon="7.273143956046571"><ele>1157.0</ele><time>2026-04-19T09:36:07Z</time></trkpt><trkpt lat="44.95251572402287" lon="7.273063487512504"><ele>1154.0</ele><time>2026-04-19T09:36:08Z</time></trkpt><trkpt lat="44.95242837991283" lon="7.273007129893696"><ele>1151.0</ele><time>2026-04-19T09:36:09Z</time></trkpt><trkpt lat="44.95235176418628" lon="7.272930232882584"><ele>1148.0</ele><time>2026-04-19T09:36:10Z</time></trkpt><trkpt lat="44.952261884131055" lon="7.272880087506826"><ele>1145.0</ele><time>2026-04-19T09:36:11Z</time></trkpt><trkpt lat="44.95217290537414" lon="7.272843114674029"><ele>1145.0</ele><time>2026-04-19T09:36:12Z</time></trkpt><trkpt lat="44.95207676949832" lon="7.272849622317329"><ele>1145.0</ele><time>2026-04-19T09:36:13Z</time></trkpt><trkpt lat="44.951999345606566" lon="7.272869390516516"><ele>1145.0</ele><time>2026-04-19T09:36:14Z</time></trkpt><trkpt lat="44.95194288940854" lon="7.2729511206201405"><ele>1145.0</ele><time>2026-04-19T09:36:15Z</time></trkpt><trkpt lat="44.951894941125694" lon="7.2730300268891135"><ele>1145.0</ele><time>2026-04-19T09:36:16Z</time></trkpt><trkpt lat="44.95182164595137" lon="7.273114466334899"><ele>1145.0</ele><time>2026-04-19T09:36:17Z</time></trkpt><trkpt lat="44.951768836748194" lon="7.273226347201466"><ele>1145.3333333333335</ele><time>2026-04-19T09:36:18Z</time></trkpt><trkpt lat="44.951719330677676" lon="7.273325329369985"><ele>1145.6666666666667</ele><time>2026-04-19T09:36:19Z</time></trkpt><trkpt lat="44.95167864555897" lon="7.2734236836682395"><ele>1146.0</ele><time>2026-04-19T09:36:20Z</time></trkpt><trkpt lat="44.951642420864445" lon="7.273498703859474"><ele>1146.3333333333333</ele><time>2026-04-19T09:36:21Z</time></trkpt><trkpt lat="44.95155312037275" lon="7.273500203087709"><ele>1146.6666666666665</ele><time>2026-04-19T09:36:23Z</time></trkpt><trkpt lat="44.951484946811284" lon="7.273379955430897"><ele>1147.0</ele><time>2026-04-19T09:36:25Z</time></trkpt><trkpt lat="44.951426248286026" lon="7.273308715422971"><ele>1144.1666666666665</ele><time>2026-04-19T09:36:25.999Z</time></trkpt><trkpt lat="44.951360029107136" lon="7.273228111859512"><ele>1141.3333333333333</ele><time>2026-04-19T09:36:26.999Z</time></trkpt><trkpt lat="44.95129792613177" lon="7.273169402974134"><ele>1138.5</ele><time>2026-04-19T09:36:27.999Z</time></trkpt><trkpt lat="44.9512193385298" lon="7.273051868716538"><ele>1135.6666666666667</ele><time>2026-04-19T09:36:29.999Z</time></trkpt><trkpt lat="44.95116043582062" lon="7.272995627333596"><ele>1132.8333333333335</ele><time>2026-04-19T09:36:30.999Z</time></trkpt><trkpt lat="44.95110153795193" lon="7.272932224277328"><ele>1130.0</ele><time>2026-04-19T09:36:31.999Z</time></trkpt><trkpt lat="44.95103561816048" lon="7.272872685816443"><ele>1129.3333333333335</ele><time>2026-04-19T09:36:32.999Z</time></trkpt><trkpt lat="44.95096000906531" lon="7.272804860487038"><ele>1128.6666666666667</ele><time>2026-04-19T09:36:33.999Z</time></trkpt><trkpt lat="44.95088489710937" lon="7.272755265379824"><ele>1128.0</ele><time>2026-04-19T09:36:34.999Z</time></trkpt><trkpt lat="44.950825771605274" lon="7.272696868709358"><ele>1127.3333333333333</ele><time>2026-04-19T09:36:35.999Z</time></trkpt><trkpt lat="44.950743901724934" lon="7.272618655267414"><ele>1126.6666666666665</ele><time>2026-04-19T09:36:37.999Z</time></trkpt><trkpt lat="44.95079952111651" lon="7.272681964199508"><ele>1126.0</ele><time>2026-04-19T09:36:52.999Z</time></trkpt><trkpt lat="44.95089856737991" lon="7.272733397548798"><ele>1126.0</ele><time>2026-04-19T09:36:53.999Z</time></trkpt><trkpt lat="44.95100477943456" lon="7.272846015911284"><ele>1126.0</ele><time>2026-04-19T09:36:54.999Z</time></trkpt><trkpt lat="44.9510883787123" lon="7.272922859298027"><ele>1126.0</ele><time>2026-04-19T09:36:55.999Z</time></trkpt><trkpt lat="44.951148028332064" lon="7.272973577982518"><ele>1126.0</ele><time>2026-04-19T09:36:56.999Z</time></trkpt><trkpt lat="44.9512132434978" lon="7.273052476384529"><ele>1126.0</ele><time>2026-04-19T09:36:58.999Z</time></trkpt><trkpt lat="44.95124747693947" lon="7.27324194552846"><ele>1126.8</ele><time>2026-04-19T09:37:01.999Z</time></trkpt><trkpt lat="44.95124451221238" lon="7.273425125094239"><ele>1127.6</ele><time>2026-04-19T09:37:03.999Z</time></trkpt><trkpt lat="44.951234011960445" lon="7.27356698722249"><ele>1128.4</ele><time>2026-04-19T09:37:05.999Z</time></trkpt><trkpt lat="44.95120154580017" lon="7.273678709797016"><ele>1129.2</ele><time>2026-04-19T09:37:08.999Z</time></trkpt><trkpt lat="44.95110848980418" lon="7.273797459313501"><ele>1130.0</ele><time>2026-04-19T09:37:10.999Z</time></trkpt><trkpt lat="44.951017485897125" lon="7.2738212463144825"><ele>1130.0</ele><time>2026-04-19T09:37:11.999Z</time></trkpt><trkpt lat="44.95092282599499" lon="7.273829049577506"><ele>1130.0</ele><time>2026-04-19T09:37:12.999Z</time></trkpt><trkpt lat="44.95085001727118" lon="7.273841314623657"><ele>1130.0</ele><time>2026-04-19T09:37:13.999Z</time></trkpt><trkpt lat="44.950779470580116" lon="7.27385066352243"><ele>1130.0</ele><time>2026-04-19T09:37:14.999Z</time></trkpt><trkpt lat="44.95071816104605" lon="7.273877967604002"><ele>1130.0</ele><time>2026-04-19T09:37:15.999Z</time></trkpt><trkpt lat="44.95057700836512" lon="7.273881188767482"><ele>1130.0</ele><time>2026-04-19T09:37:17.999Z</time></trkpt><trkpt lat="44.9504915050822" lon="7.273887126684475"><ele>1129.2</ele><time>2026-04-19T09:37:18.999Z</time></trkpt><trkpt lat="44.95041420161907" lon="7.273899935598449"><ele>1128.4</ele><time>2026-04-19T09:37:19.999Z</time></trkpt><trkpt lat="44.950335934645004" lon="7.273903557547462"><ele>1127.6</ele><time>2026-04-19T09:37:20.998Z</time></trkpt><trkpt lat="44.95022383590151" lon="7.273939259790697"><ele>1126.8</ele><time>2026-04-19T09:37:22.998Z</time></trkpt><trkpt lat="44.950168989962535" lon="7.274048620048343"><ele>1126.0</ele><time>2026-04-19T09:37:23.998Z</time></trkpt><trkpt lat="44.950111381973514" lon="7.27416222542919"><ele>1125.0</ele><time>2026-04-19T09:37:25.998Z</time></trkpt><trkpt lat="44.94986774755442" lon="7.273924994933738"><ele>1124.0</ele><time>2026-04-19T09:37:43.998Z</time></trkpt><trkpt lat="44.949790089551826" lon="7.273889124717785"><ele>1123.0</ele><time>2026-04-19T09:37:44.998Z</time></trkpt><trkpt lat="44.949714125501934" lon="7.273887520402522"><ele>1123.0</ele><time>2026-04-19T09:37:46Z</time></trkpt><trkpt lat="44.949646729253345" lon="7.273920619768771"><ele>1123.0</ele><time>2026-04-19T09:37:47Z</time></trkpt><trkpt lat="44.94958350148623" lon="7.273954520673016"><ele>1123.0</ele><time>2026-04-19T09:37:49Z</time></trkpt><trkpt lat="44.94950504856604" lon="7.273966042693911"><ele>1123.0</ele><time>2026-04-19T09:37:53Z</time></trkpt><trkpt lat="44.94941449879498" lon="7.273960985846653"><ele>1123.0</ele><time>2026-04-19T09:37:55Z</time></trkpt><trkpt lat="44.949331001893654" lon="7.273986181094091"><ele>1123.0</ele><time>2026-04-19T09:37:57Z</time></trkpt><trkpt lat="44.94934390118431" lon="7.2740788983803135"><ele>1120.0</ele><time>2026-04-19T09:38:00Z</time></trkpt><trkpt lat="44.94936692159545" lon="7.27416357145676"><ele>1117.0</ele><time>2026-04-19T09:38:02Z</time></trkpt><trkpt lat="44.94940953946717" lon="7.274278818252331"><ele>1114.0</ele><time>2026-04-19T09:38:04Z</time></trkpt><trkpt lat="44.94943115940049" lon="7.274385584801389"><ele>1111.0</ele><time>2026-04-19T09:38:06Z</time></trkpt><trkpt lat="44.949474774702544" lon="7.274482576010387"><ele>1108.0</ele><time>2026-04-19T09:38:09Z</time></trkpt><trkpt lat="44.94951130915583" lon="7.274561428841398"><ele>1105.0</ele><time>2026-04-19T09:38:11Z</time></trkpt><trkpt lat="44.94955843033457" lon="7.274641596031866"><ele>1105.0</ele><time>2026-04-19T09:38:14Z</time></trkpt><trkpt lat="44.949593999053874" lon="7.274752237997577"><ele>1105.0</ele><time>2026-04-19T09:38:22Z</time></trkpt><trkpt lat="44.94960561322452" lon="7.274852575474281"><ele>1105.0</ele><time>2026-04-19T09:38:24Z</time></trkpt><trkpt lat="44.9496203529476" lon="7.274958012035072"><ele>1105.0</ele><time>2026-04-19T09:38:27Z</time></trkpt><trkpt lat="44.94960263467327" lon="7.275055140458488"><ele>1105.0</ele><time>2026-04-19T09:38:46.999Z</time></trkpt><trkpt lat="44.949609111159695" lon="7.275168163292884"><ele>1105.0</ele><time>2026-04-19T09:38:48.999Z</time></trkpt><trkpt lat="44.94958875537819" lon="7.275257203709633"><ele>1104.1666666666665</ele><time>2026-04-19T09:38:50.999Z</time></trkpt><trkpt lat="44.94955465026042" lon="7.275349603738174"><ele>1103.3333333333333</ele><time>2026-04-19T09:38:52.999Z</time></trkpt><trkpt lat="44.94951796476412" lon="7.27545711687388"><ele>1102.5</ele><time>2026-04-19T09:38:55.999Z</time></trkpt><trkpt lat="44.94946088859444" lon="7.2755179030752855"><ele>1101.6666666666667</ele><time>2026-04-19T09:38:59.999Z</time></trkpt><trkpt lat="44.9494500552587" lon="7.275625530009008"><ele>1100.8333333333335</ele><time>2026-04-19T09:39:04.999Z</time></trkpt><trkpt lat="44.949462180461886" lon="7.275722695939987"><ele>1100.0</ele><time>2026-04-19T09:39:13.999Z</time></trkpt><trkpt lat="44.94946004119518" lon="7.275862700930777"><ele>1099.857142857143</ele><time>2026-04-19T09:39:32.998Z</time></trkpt><trkpt lat="44.94941891501491" lon="7.275930439002158"><ele>1099.7142857142858</ele><time>2026-04-19T09:39:37.998Z</time></trkpt><trkpt lat="44.94936256657167" lon="7.275981820057154"><ele>1099.5714285714284</ele><time>2026-04-19T09:39:45.998Z</time></trkpt><trkpt lat="44.94928297609967" lon="7.276017153830649"><ele>1099.4285714285716</ele><time>2026-04-19T09:39:52Z</time></trkpt><trkpt lat="44.94923973767996" lon="7.276098379086732"><ele>1099.2857142857142</ele><time>2026-04-19T09:39:57Z</time></trkpt><trkpt lat="44.949246417611576" lon="7.276211186000405"><ele>1099.142857142857</ele><time>2026-04-19T09:40:02Z</time></trkpt><trkpt lat="44.949230365758254" lon="7.27631453940874"><ele>1099.0</ele><time>2026-04-19T09:40:13Z</time></trkpt><trkpt lat="44.949177135963645" lon="7.276389891924809"><ele>1095.142857142857</ele><time>2026-04-19T09:40:19Z</time></trkpt><trkpt lat="44.94913996407408" lon="7.276467730134821"><ele>1091.2857142857142</ele><time>2026-04-19T09:40:27Z</time></trkpt><trkpt lat="44.94911626489452" lon="7.276572303166027"><ele>1087.4285714285716</ele><time>2026-04-19T09:40:30Z</time></trkpt><trkpt lat="44.94908062802255" lon="7.276663655850952"><ele>1083.5714285714284</ele><time>2026-04-19T09:40:56.999Z</time></trkpt><trkpt lat="44.94903726285223" lon="7.276738298750709"><ele>1079.7142857142858</ele><time>2026-04-19T09:41:13.999Z</time></trkpt><trkpt lat="44.948973763704494" lon="7.2768026920996265"><ele>1075.857142857143</ele><time>2026-04-19T09:41:16.999Z</time></trkpt><trkpt lat="44.94897061767825" lon="7.2768948737263335"><ele>1072.0</ele><time>2026-04-19T09:41:18.999Z</time></trkpt><trkpt lat="44.948907496556025" lon="7.276941567161308"><ele>1072.0</ele><time>2026-04-19T09:41:21.999Z</time></trkpt><trkpt lat="44.94886011871387" lon="7.277071170537948"><ele>1072.0</ele><time>2026-04-19T09:41:23.999Z</time></trkpt><trkpt lat="44.94887407029529" lon="7.277221683296379"><ele>1072.0</ele><time>2026-04-19T09:41:25.999Z</time></trkpt><trkpt lat="44.94891522799238" lon="7.277389924468868"><ele>1072.0</ele><time>2026-04-19T09:41:27.999Z</time></trkpt><trkpt lat="44.94894591795303" lon="7.277474722493467"><ele>1072.0</ele><time>2026-04-19T09:41:28.998Z</time></trkpt><trkpt lat="44.948930133307314" lon="7.277613918348157"><ele>1069.3333333333333</ele><time>2026-04-19T09:41:30.998Z</time></trkpt><trkpt lat="44.948890171687935" lon="7.277710021418759"><ele>1066.6666666666665</ele><time>2026-04-19T09:41:32.998Z</time></trkpt><trkpt lat="44.948881445913145" lon="7.277799917512399"><ele>1064.0</ele><time>2026-04-19T09:41:46.998Z</time></trkpt><trkpt lat="44.94891542152404" lon="7.277921554970542"><ele>1061.3333333333333</ele><time>2026-04-19T09:41:50.998Z</time></trkpt><trkpt lat="44.948885276366035" lon="7.278007149796525"><ele>1058.6666666666667</ele><time>2026-04-19T09:41:52.998Z</time></trkpt><trkpt lat="44.94885122120688" lon="7.278087611331806"><ele>1056.0</ele><time>2026-04-19T09:41:54.998Z</time></trkpt><trkpt lat="44.948876656431516" lon="7.278201235698852"><ele>1056.0</ele><time>2026-04-19T09:41:59Z</time></trkpt><trkpt lat="44.94886063013991" lon="7.278312745166292"><ele>1056.0</ele><time>2026-04-19T09:42:03Z</time></trkpt><trkpt lat="44.94878835213361" lon="7.278281424008513"><ele>1056.0</ele><time>2026-04-19T09:42:15Z</time></trkpt><trkpt lat="44.94871774319569" lon="7.278193447632455"><ele>1056.0</ele><time>2026-04-19T09:42:17Z</time></trkpt><trkpt lat="44.94866148861084" lon="7.278028398728963"><ele>1056.0</ele><time>2026-04-19T09:42:19Z</time></trkpt><trkpt lat="44.948648473877306" lon="7.277921463112147"><ele>1056.0</ele><time>2026-04-19T09:42:20Z</time></trkpt><trkpt lat="44.9485984064195" lon="7.277833709425527"><ele>1056.0</ele><time>2026-04-19T09:42:21Z</time></trkpt><trkpt lat="44.94857094272172" lon="7.277740454340689"><ele>1056.0</ele><time>2026-04-19T09:42:22Z</time></trkpt><trkpt lat="44.94854836362072" lon="7.277651493473886"><ele>1056.0</ele><time>2026-04-19T09:42:23Z</time></trkpt><trkpt lat="44.948506719125845" lon="7.277576803835949"><ele>1056.0</ele><time>2026-04-19T09:42:24Z</time></trkpt><trkpt lat="44.94840773216678" lon="7.277499913128019"><ele>1056.0</ele><time>2026-04-19T09:42:26Z</time></trkpt><trkpt lat="44.94833194598427" lon="7.27744985332978"><ele>1054.1666666666667</ele><time>2026-04-19T09:42:28Z</time></trkpt><trkpt lat="44.948250770666746" lon="7.2773342957487"><ele>1052.3333333333333</ele><time>2026-04-19T09:42:29.999Z</time></trkpt><trkpt lat="44.94818252104078" lon="7.277280873594437"><ele>1050.5</ele><time>2026-04-19T09:42:31.999Z</time></trkpt><trkpt lat="44.94815266188952" lon="7.2771916106277885"><ele>1048.6666666666665</ele><time>2026-04-19T09:42:33.999Z</time></trkpt><trkpt lat="44.94812247085014" lon="7.277094490476874"><ele>1046.8333333333333</ele><time>2026-04-19T09:42:35.999Z</time></trkpt><trkpt lat="44.94807655043124" lon="7.276997511675812"><ele>1045.0</ele><time>2026-04-19T09:42:37.999Z</time></trkpt><trkpt lat="44.948007005175405" lon="7.276866380485056"><ele>1045.0</ele><time>2026-04-19T09:42:39.999Z</time></trkpt><trkpt lat="44.94793328352558" lon="7.2767202941550595"><ele>1045.0</ele><time>2026-04-19T09:42:41.999Z</time></trkpt><trkpt lat="44.9478070792995" lon="7.276687527341498"><ele>1045.0</ele><time>2026-04-19T09:42:43.999Z</time></trkpt><trkpt lat="44.94775536403509" lon="7.276757745354968"><ele>1045.0</ele><time>2026-04-19T09:42:45.999Z</time></trkpt><trkpt lat="44.94767831818161" lon="7.276890119347917"><ele>1045.0</ele><time>2026-04-19T09:42:47.999Z</time></trkpt><trkpt lat="44.94755411040256" lon="7.276972281776348"><ele>1043.4285714285713</ele><time>2026-04-19T09:42:49.999Z</time></trkpt><trkpt lat="44.94749509503384" lon="7.277004000621583"><ele>1041.8571428571427</ele><time>2026-04-19T09:42:50.999Z</time></trkpt><trkpt lat="44.9474372534173" lon="7.277054388346139"><ele>1040.2857142857142</ele><time>2026-04-19T09:42:51.999Z</time></trkpt><trkpt lat="44.9474045691625" lon="7.277130535171529"><ele>1038.7142857142858</ele><time>2026-04-19T09:42:54.999Z</time></trkpt><trkpt lat="44.9473536874549" lon="7.277238168532291"><ele>1037.1428571428573</ele><time>2026-04-19T09:42:57.999Z</time></trkpt><trkpt lat="44.94734221174332" lon="7.277352040230854"><ele>1035.5714285714287</ele><time>2026-04-19T09:43:00.999Z</time></trkpt><trkpt lat="44.94735745265783" lon="7.277449029226786"><ele>1034.0</ele><time>2026-04-19T09:43:03.999Z</time></trkpt><trkpt lat="44.94738154394733" lon="7.2775321161718685"><ele>1030.8333333333335</ele><time>2026-04-19T09:43:06.999Z</time></trkpt><trkpt lat="44.947378744019346" lon="7.277634130801064"><ele>1027.6666666666667</ele><time>2026-04-19T09:43:09.999Z</time></trkpt><trkpt lat="44.947329119029" lon="7.277733039668354"><ele>1024.5</ele><time>2026-04-19T09:43:11.999Z</time></trkpt><trkpt lat="44.94730259178466" lon="7.277850746995107"><ele>1021.3333333333333</ele><time>2026-04-19T09:43:13.999Z</time></trkpt><trkpt lat="44.94727792201719" lon="7.277989619421995"><ele>1018.1666666666666</ele><time>2026-04-19T09:43:16.999Z</time></trkpt><trkpt lat="44.94724671509382" lon="7.278074889330916"><ele>1015.0</ele><time>2026-04-19T09:43:18.999Z</time></trkpt><trkpt lat="44.947216006766936" lon="7.278177772868609"><ele>1012.6666666666666</ele><time>2026-04-19T09:43:20.999Z</time></trkpt><trkpt lat="44.9471987831115" lon="7.278272596922229"><ele>1010.3333333333333</ele><time>2026-04-19T09:43:21.999Z</time></trkpt><trkpt lat="44.94721317273824" lon="7.278359284660266"><ele>1008.0</ele><time>2026-04-19T09:43:22.999Z</time></trkpt><trkpt lat="44.9471842514174" lon="7.278466973479317"><ele>1005.6666666666667</ele><time>2026-04-19T09:43:23.999Z</time></trkpt><trkpt lat="44.94716399144325" lon="7.278555496974743"><ele>1003.3333333333334</ele><time>2026-04-19T09:43:24.999Z</time></trkpt><trkpt lat="44.947123046829624" lon="7.278660471150664"><ele>1001.0</ele><time>2026-04-19T09:43:25.999Z</time></trkpt><trkpt lat="44.94709276934092" lon="7.278791834016065"><ele>1001.0000000000001</ele><time>2026-04-19T09:43:26.999Z</time></trkpt><trkpt lat="44.947069139014395" lon="7.278921801012981"><ele>1001.0</ele><time>2026-04-19T09:43:27.999Z</time></trkpt><trkpt lat="44.94704297359746" lon="7.2790348709609"><ele>1001.0</ele><time>2026-04-19T09:43:28.999Z</time></trkpt><trkpt lat="44.94702841939041" lon="7.27913182347876"><ele>1001.0</ele><time>2026-04-19T09:43:29.999Z</time></trkpt><trkpt lat="44.947037464864735" lon="7.2792966039042994"><ele>1001.0000000000001</ele><time>2026-04-19T09:43:31.998Z</time></trkpt><trkpt lat="44.94705219566972" lon="7.279402901580932"><ele>1001.0</ele><time>2026-04-19T09:43:32.998Z</time></trkpt><trkpt lat="44.94704131620181" lon="7.279494558071163"><ele>998.0</ele><time>2026-04-19T09:43:33.998Z</time></trkpt><trkpt lat="44.947047106848416" lon="7.279635747850442"><ele>994.9999999999999</ele><time>2026-04-19T09:43:35.998Z</time></trkpt><trkpt lat="44.947053177280665" lon="7.27972628329464"><ele>991.9999999999999</ele><time>2026-04-19T09:43:36.998Z</time></trkpt><trkpt lat="44.94703868132321" lon="7.279912238772312"><ele>989.0</ele><time>2026-04-19T09:43:38.998Z</time></trkpt><trkpt lat="44.94698777460697" lon="7.280018393427757"><ele>986.0</ele><time>2026-04-19T09:43:39.998Z</time></trkpt><trkpt lat="44.94694401529706" lon="7.280118756907059"><ele>984.3333333333334</ele><time>2026-04-19T09:43:40.998Z</time></trkpt><trkpt lat="44.946911149171235" lon="7.280233725102356"><ele>982.6666666666667</ele><time>2026-04-19T09:43:41.998Z</time></trkpt><trkpt lat="44.94690911156956" lon="7.280347373814892"><ele>981.0</ele><time>2026-04-19T09:43:42.998Z</time></trkpt><trkpt lat="44.94692831808183" lon="7.280473176510234"><ele>979.3333333333333</ele><time>2026-04-19T09:43:43.998Z</time></trkpt><trkpt lat="44.946941765568184" lon="7.280570889343992"><ele>977.6666666666666</ele><time>2026-04-19T09:43:44.998Z</time></trkpt><trkpt lat="44.94696440094533" lon="7.280659877505528"><ele>976.0</ele><time>2026-04-19T09:43:45.998Z</time></trkpt><trkpt lat="44.94698577397624" lon="7.280755660484451"><ele>975.9999999999999</ele><time>2026-04-19T09:43:47.998Z</time></trkpt><trkpt lat="44.94694591698154" lon="7.280886806998243"><ele>976.0</ele><time>2026-04-19T09:43:49.998Z</time></trkpt><trkpt lat="44.946872500894564" lon="7.280926691475018"><ele>976.0</ele><time>2026-04-19T09:44:24Z</time></trkpt><trkpt lat="44.94678647139881" lon="7.280918524769085"><ele>976.0</ele><time>2026-04-19T09:44:27Z</time></trkpt><trkpt lat="44.94675958804872" lon="7.280826041843179"><ele>975.9999999999999</ele><time>2026-04-19T09:44:29Z</time></trkpt><trkpt lat="44.9467356463501" lon="7.280721737935372"><ele>976.0</ele><time>2026-04-19T09:44:31Z</time></trkpt><trkpt lat="44.946752393004445" lon="7.280632146049681"><ele>975.8333333333333</ele><time>2026-04-19T09:44:33Z</time></trkpt><trkpt lat="44.9467169774169" lon="7.2805232730839"><ele>975.6666666666666</ele><time>2026-04-19T09:44:34.999Z</time></trkpt><trkpt lat="44.94667621602432" lon="7.280406897075228"><ele>975.5</ele><time>2026-04-19T09:44:36.999Z</time></trkpt><trkpt lat="44.946658857898576" lon="7.2802906920461545"><ele>975.3333333333333</ele><time>2026-04-19T09:44:38.999Z</time></trkpt><trkpt lat="44.94655935585807" lon="7.280211063042482"><ele>975.1666666666666</ele><time>2026-04-19T09:44:40.999Z</time></trkpt><trkpt lat="44.9465228668087" lon="7.280133088791678"><ele>975.0</ele><time>2026-04-19T09:44:41.999Z</time></trkpt><trkpt lat="44.94647619605944" lon="7.280066086185413"><ele>983.5</ele><time>2026-04-19T09:44:42.999Z</time></trkpt><trkpt lat="44.94638548983251" lon="7.279972879382397"><ele>992.0</ele><time>2026-04-19T09:44:44.999Z</time></trkpt><trkpt lat="44.946303902108674" lon="7.279845297148564"><ele>1000.5</ele><time>2026-04-19T09:44:46.999Z</time></trkpt><trkpt lat="44.946171725910055" lon="7.279875093581144"><ele>1009.0</ele><time>2026-04-19T09:44:48.999Z</time></trkpt><trkpt lat="44.946070185384876" lon="7.279908469666471"><ele>1009.0</ele><time>2026-04-19T09:44:49.999Z</time></trkpt><trkpt lat="44.94597407372107" lon="7.279893827192331"><ele>1009.0000000000001</ele><time>2026-04-19T09:44:50.999Z</time></trkpt><trkpt lat="44.945899769994334" lon="7.27987754413211"><ele>1009.0000000000001</ele><time>2026-04-19T09:44:51.999Z</time></trkpt><trkpt lat="44.94581735574071" lon="7.2798139562427835"><ele>1009.0</ele><time>2026-04-19T09:44:53.999Z</time></trkpt><trkpt lat="44.94571753133576" lon="7.279658692791131"><ele>1009.0</ele><time>2026-04-19T09:44:55.999Z</time></trkpt><trkpt lat="44.94566928253815" lon="7.2796000390071764"><ele>1014.3333333333333</ele><time>2026-04-19T09:44:56.999Z</time></trkpt><trkpt lat="44.94560665193603" lon="7.2795442632522205"><ele>1019.6666666666666</ele><time>2026-04-19T09:44:57.999Z</time></trkpt><trkpt lat="44.945516263741595" lon="7.279444285118622"><ele>1025.0</ele><time>2026-04-19T09:44:59.999Z</time></trkpt><trkpt lat="44.94541849232051" lon="7.279409693368645"><ele>1030.3333333333333</ele><time>2026-04-19T09:45:01.999Z</time></trkpt><trkpt lat="44.945353197711796" lon="7.27944231971334"><ele>1035.6666666666667</ele><time>2026-04-19T09:45:02.999Z</time></trkpt><trkpt lat="44.94528762582285" lon="7.279369850566312"><ele>1041.0</ele><time>2026-04-19T09:45:04.999Z</time></trkpt><trkpt lat="44.94534480370229" lon="7.279266565422433"><ele>1041.0</ele><time>2026-04-19T09:45:06.999Z</time></trkpt><trkpt lat="44.94548647653774" lon="7.279261547450844"><ele>1041.0</ele><time>2026-04-19T09:45:08.999Z</time></trkpt><trkpt lat="44.945469518162064" lon="7.279125783096114"><ele>1041.0</ele><time>2026-04-19T09:45:11.999Z</time></trkpt><trkpt lat="44.945395961905874" lon="7.279104303115232"><ele>1041.0</ele><time>2026-04-19T09:45:12.999Z</time></trkpt><trkpt lat="44.94533023326729" lon="7.279066151997994"><ele>1041.0</ele><time>2026-04-19T09:45:13.999Z</time></trkpt><trkpt lat="44.9452028136518" lon="7.279002646242613"><ele>1041.0</ele><time>2026-04-19T09:45:15.999Z</time></trkpt><trkpt lat="44.94511738686819" lon="7.278955136229446"><ele>1041.0</ele><time>2026-04-19T09:45:16.999Z</time></trkpt><trkpt lat="44.944995601490966" lon="7.278863230184458"><ele>1041.0</ele><time>2026-04-19T09:45:18.999Z</time></trkpt><trkpt lat="44.94492817867733" lon="7.278849090451174"><ele>1041.0</ele><time>2026-04-19T09:45:19.999Z</time></trkpt><trkpt lat="44.944851050149786" lon="7.27884718875079"><ele>1041.0</ele><time>2026-04-19T09:45:20.999Z</time></trkpt><trkpt lat="44.944777290387535" lon="7.278818517022687"><ele>1044.6666666666667</ele><time>2026-04-19T09:45:21.999Z</time></trkpt><trkpt lat="44.94469162690746" lon="7.2788150146364465"><ele>1048.3333333333333</ele><time>2026-04-19T09:45:22.999Z</time></trkpt><trkpt lat="44.944630111726966" lon="7.278793282906643"><ele>1052.0</ele><time>2026-04-19T09:45:23.999Z</time></trkpt><trkpt lat="44.94452366448468" lon="7.278740424688795"><ele>1055.6666666666665</ele><time>2026-04-19T09:45:25.999Z</time></trkpt><trkpt lat="44.944454163396976" lon="7.278705402758967"><ele>1059.3333333333333</ele><time>2026-04-19T09:45:26.999Z</time></trkpt><trkpt lat="44.9443711561609" lon="7.278661507787671"><ele>1063.0</ele><time>2026-04-19T09:45:27.999Z</time></trkpt><trkpt lat="44.94424495391472" lon="7.278692018422705"><ele>1059.8</ele><time>2026-04-19T09:45:28.999Z</time></trkpt><trkpt lat="44.94416968715187" lon="7.27874898930666"><ele>1056.6</ele><time>2026-04-19T09:45:29.999Z</time></trkpt><trkpt lat="44.94407237236966" lon="7.278771420450974"><ele>1053.4</ele><time>2026-04-19T09:45:31.999Z</time></trkpt><trkpt lat="44.94397722214745" lon="7.278689692567289"><ele>1050.2</ele><time>2026-04-19T09:45:33.999Z</time></trkpt><trkpt lat="44.943884365665916" lon="7.278543081455147"><ele>1047.0</ele><time>2026-04-19T09:45:35.999Z</time></trkpt><trkpt lat="44.94383127166426" lon="7.278471103811442"><ele>1047.0</ele><time>2026-04-19T09:45:36.999Z</time></trkpt><trkpt lat="44.94377311463578" lon="7.278323571524083"><ele>1047.0</ele><time>2026-04-19T09:45:38.999Z</time></trkpt><trkpt lat="44.94379561372771" lon="7.278189155237465"><ele>1047.0</ele><time>2026-04-19T09:45:40.998Z</time></trkpt><trkpt lat="44.94383993014941" lon="7.278075645678155"><ele>1047.0</ele><time>2026-04-19T09:45:41.998Z</time></trkpt><trkpt lat="44.94389405685524" lon="7.277953193986912"><ele>1047.0</ele><time>2026-04-19T09:45:42.998Z</time></trkpt><trkpt lat="44.94390848939605" lon="7.277815278126505"><ele>1047.6666666666667</ele><time>2026-04-19T09:45:43.998Z</time></trkpt><trkpt lat="44.94391313523903" lon="7.277692805921905"><ele>1048.3333333333333</ele><time>2026-04-19T09:45:44.998Z</time></trkpt><trkpt lat="44.94393818585564" lon="7.277540811281372"><ele>1049.0</ele><time>2026-04-19T09:45:46.998Z</time></trkpt><trkpt lat="44.94391592491191" lon="7.277425203281266"><ele>1049.6666666666665</ele><time>2026-04-19T09:45:47.998Z</time></trkpt><trkpt lat="44.943886165122954" lon="7.277344938156877"><ele>1050.3333333333333</ele><time>2026-04-19T09:45:48.998Z</time></trkpt><trkpt lat="44.943863668035384" lon="7.277234376956187"><ele>1051.0</ele><time>2026-04-19T09:45:52.998Z</time></trkpt><trkpt lat="44.943894562230355" lon="7.277133388388132"><ele>1052.1666666666665</ele><time>2026-04-19T09:45:55.998Z</time></trkpt><trkpt lat="44.94384472221231" lon="7.277011554143721"><ele>1053.3333333333333</ele><time>2026-04-19T09:45:57.998Z</time></trkpt><trkpt lat="44.94379061866271" lon="7.276927737921116"><ele>1054.5</ele><time>2026-04-19T09:45:59.998Z</time></trkpt><trkpt lat="44.943739724075236" lon="7.276816267421269"><ele>1055.6666666666667</ele><time>2026-04-19T09:46:02.998Z</time></trkpt><trkpt lat="44.94368260335318" lon="7.276734820219933"><ele>1056.8333333333335</ele><time>2026-04-19T09:46:05.998Z</time></trkpt><trkpt lat="44.94364507638226" lon="7.276641647154959"><ele>1058.0</ele><time>2026-04-19T09:46:07.998Z</time></trkpt><trkpt lat="44.94356844184662" lon="7.276612091558236"><ele>1058.0</ele><time>2026-04-19T09:46:10Z</time></trkpt><trkpt lat="44.943523118468185" lon="7.276457933358195"><ele>1058.0</ele><time>2026-04-19T09:46:12Z</time></trkpt><trkpt lat="44.943511106750165" lon="7.276354003157887"><ele>1058.0</ele><time>2026-04-19T09:46:13Z</time></trkpt><trkpt lat="44.94344393385836" lon="7.276319487814462"><ele>1058.0</ele><time>2026-04-19T09:46:16Z</time></trkpt><trkpt lat="44.94336740866116" lon="7.276228141642836"><ele>1058.0</ele><time>2026-04-19T09:46:20Z</time></trkpt><trkpt lat="44.94334823214286" lon="7.27612367841203"><ele>1058.0</ele><time>2026-04-19T09:46:22Z</time></trkpt><trkpt lat="44.94329439600456" lon="7.276060399535512"><ele>1054.0</ele><time>2026-04-19T09:46:26Z</time></trkpt><trkpt lat="44.9432411797533" lon="7.2760125753377505"><ele>1050.0</ele><time>2026-04-19T09:46:29Z</time></trkpt><trkpt lat="44.94317075832706" lon="7.27591350051121"><ele>1046.0</ele><time>2026-04-19T09:46:33Z</time></trkpt><trkpt lat="44.94308389962907" lon="7.275906956263752"><ele>1042.0</ele><time>2026-04-19T09:46:35Z</time></trkpt><trkpt lat="44.94303395108895" lon="7.276021912952519"><ele>1038.0</ele><time>2026-04-19T09:46:37Z</time></trkpt><trkpt lat="44.94296853445378" lon="7.276077986746172"><ele>1034.0</ele><time>2026-04-19T09:46:39Z</time></trkpt><trkpt lat="44.94293622318865" lon="7.2761874210929705"><ele>1034.0</ele><time>2026-04-19T09:46:41Z</time></trkpt><trkpt lat="44.94290199422425" lon="7.276268412886522"><ele>1034.0</ele><time>2026-04-19T09:46:43Z</time></trkpt><trkpt lat="44.9428386046534" lon="7.276371117089597"><ele>1034.0</ele><time>2026-04-19T09:46:45Z</time></trkpt><trkpt lat="44.942779690943205" lon="7.276464756045117"><ele>1034.0</ele><time>2026-04-19T09:46:47Z</time></trkpt><trkpt lat="44.94273221754758" lon="7.27656427843434"><ele>1034.0</ele><time>2026-04-19T09:46:49Z</time></trkpt><trkpt lat="44.94263560695949" lon="7.276642199115428"><ele>1034.0</ele><time>2026-04-19T09:46:52Z</time></trkpt><trkpt lat="44.942560975065106" lon="7.276676987557307"><ele>1028.4</ele><time>2026-04-19T09:46:53Z</time></trkpt><trkpt lat="44.9424531023327" lon="7.276758578289042"><ele>1022.8000000000001</ele><time>2026-04-19T09:46:54.999Z</time></trkpt><trkpt lat="44.94237202270339" lon="7.276776490833615"><ele>1017.1999999999999</ele><time>2026-04-19T09:46:55.999Z</time></trkpt><trkpt lat="44.942308327619145" lon="7.276846600818212"><ele>1011.5999999999999</ele><time>2026-04-19T09:46:56.999Z</time></trkpt><trkpt lat="44.94221068806009" lon="7.276881047032733"><ele>1006.0</ele><time>2026-04-19T09:46:58.999Z</time></trkpt><trkpt lat="44.94210771410597" lon="7.276953413392035"><ele>1005.9999999999999</ele><time>2026-04-19T09:47:00.999Z</time></trkpt><trkpt lat="44.94204397248081" lon="7.276965354837669"><ele>1006.0</ele><time>2026-04-19T09:47:01.999Z</time></trkpt><trkpt lat="44.9419716133319" lon="7.276951848641513"><ele>1006.0</ele><time>2026-04-19T09:47:02.999Z</time></trkpt><trkpt lat="44.94192749798001" lon="7.276870249323545"><ele>1006.0</ele><time>2026-04-19T09:47:04.999Z</time></trkpt><trkpt lat="44.941826042850856" lon="7.276943970860062"><ele>1005.9999999999999</ele><time>2026-04-19T09:47:05.999Z</time></trkpt><trkpt lat="44.94171872205304" lon="7.276985216116649"><ele>1006.0</ele><time>2026-04-19T09:47:06.999Z</time></trkpt><trkpt lat="44.94162424692658" lon="7.277017075519277"><ele>1007.1999999999999</ele><time>2026-04-19T09:47:07.999Z</time></trkpt><trkpt lat="44.94154975933173" lon="7.277069180511875"><ele>1008.3999999999999</ele><time>2026-04-19T09:47:08.999Z</time></trkpt><trkpt lat="44.941493185672066" lon="7.277136215759994"><ele>1009.6</ele><time>2026-04-19T09:47:09.999Z</time></trkpt><trkpt lat="44.94136886029622" lon="7.277192912264173"><ele>1010.8</ele><time>2026-04-19T09:47:11.999Z</time></trkpt><trkpt lat="44.941249476571315" lon="7.277247979630724"><ele>1012.0</ele><time>2026-04-19T09:47:13.999Z</time></trkpt><trkpt lat="44.941217624816545" lon="7.27733252643962"><ele>1011.9999999999999</ele><time>2026-04-19T09:47:14.999Z</time></trkpt><trkpt lat="44.94113858357138" lon="7.277377280364843"><ele>1012.0</ele><time>2026-04-19T09:47:16.999Z</time></trkpt><trkpt lat="44.94107399969751" lon="7.277356451416502"><ele>1012.0</ele><time>2026-04-19T09:47:17.999Z</time></trkpt><trkpt lat="44.94101199729521" lon="7.277324982472911"><ele>1012.0</ele><time>2026-04-19T09:47:18.999Z</time></trkpt><trkpt lat="44.94095170852173" lon="7.277292878967833"><ele>1011.9999999999999</ele><time>2026-04-19T09:47:19.999Z</time></trkpt><trkpt lat="44.94090106772409" lon="7.277206531025758"><ele>1012.0</ele><time>2026-04-19T09:47:20.999Z</time></trkpt><trkpt lat="44.94076076273581" lon="7.277130509635205"><ele>1013.0</ele><time>2026-04-19T09:47:22.999Z</time></trkpt><trkpt lat="44.94065143492307" lon="7.2770740948381025"><ele>1014.0</ele><time>2026-04-19T09:47:24.999Z</time></trkpt><trkpt lat="44.940585531126395" lon="7.2771089952742765"><ele>1015.0</ele><time>2026-04-19T09:47:25.999Z</time></trkpt><trkpt lat="44.94050843448394" lon="7.277193390707771"><ele>1016.0</ele><time>2026-04-19T09:47:28.999Z</time></trkpt><trkpt lat="44.940461026858465" lon="7.277351016113574"><ele>1017.0</ele><time>2026-04-19T09:47:30.999Z</time></trkpt><trkpt lat="44.94042722145796" lon="7.277432673376701"><ele>1010.8</ele><time>2026-04-19T09:47:31.999Z</time></trkpt><trkpt lat="44.94039068728266" lon="7.27750663205697"><ele>1004.6</ele><time>2026-04-19T09:47:32.999Z</time></trkpt><trkpt lat="44.94035991728511" lon="7.27760305363673"><ele>998.3999999999999</ele><time>2026-04-19T09:47:33.999Z</time></trkpt><trkpt lat="44.94032649761197" lon="7.277700717702729"><ele>992.1999999999999</ele><time>2026-04-19T09:47:34.999Z</time></trkpt><trkpt lat="44.940235739178206" lon="7.277796917519229"><ele>986.0</ele><time>2026-04-19T09:47:36.999Z</time></trkpt><trkpt lat="44.94011258263652" lon="7.277784359864275"><ele>988.1999999999999</ele><time>2026-04-19T09:47:38.999Z</time></trkpt><trkpt lat="44.94002620484368" lon="7.277778448153015"><ele>990.3999999999999</ele><time>2026-04-19T09:47:39.999Z</time></trkpt><trkpt lat="44.93991815040179" lon="7.277785331661644"><ele>992.6</ele><time>2026-04-19T09:47:40.999Z</time></trkpt><trkpt lat="44.93982350351464" lon="7.277780971819738"><ele>994.8</ele><time>2026-04-19T09:47:41.999Z</time></trkpt><trkpt lat="44.93973266152941" lon="7.277754968615833"><ele>997.0</ele><time>2026-04-19T09:47:42.999Z</time></trkpt><trkpt lat="44.939654093091036" lon="7.2777317779652"><ele>997.0</ele><time>2026-04-19T09:47:43.999Z</time></trkpt><trkpt lat="44.93955109626987" lon="7.277672544114636"><ele>997.0</ele><time>2026-04-19T09:47:45.999Z</time></trkpt><trkpt lat="44.939474369221216" lon="7.277648198485028"><ele>997.0</ele><time>2026-04-19T09:47:47.999Z</time></trkpt><trkpt lat="44.93936932458856" lon="7.277634232420628"><ele>997.0</ele><time>2026-04-19T09:47:49.999Z</time></trkpt><trkpt lat="44.939297086725105" lon="7.277667356074188"><ele>997.0</ele><time>2026-04-19T09:47:50.999Z</time></trkpt><trkpt lat="44.93921725186298" lon="7.277710142187173"><ele>997.3333333333333</ele><time>2026-04-19T09:47:51.999Z</time></trkpt><trkpt lat="44.93916525267916" lon="7.277762562958049"><ele>997.6666666666666</ele><time>2026-04-19T09:47:52.999Z</time></trkpt><trkpt lat="44.93907372956007" lon="7.2778479019219615"><ele>998.0</ele><time>2026-04-19T09:47:54.999Z</time></trkpt><trkpt lat="44.93905919588713" lon="7.277936297951507"><ele>998.3333333333333</ele><time>2026-04-19T09:47:56.999Z</time></trkpt><trkpt lat="44.93899909081895" lon="7.27799910168792"><ele>998.6666666666666</ele><time>2026-04-19T09:48:01.998Z</time></trkpt><trkpt lat="44.93894008250397" lon="7.278052387839207"><ele>999.0</ele><time>2026-04-19T09:48:04.998Z</time></trkpt><trkpt lat="44.938899883039404" lon="7.278171163202477"><ele>992.8000000000001</ele><time>2026-04-19T09:48:07.998Z</time></trkpt><trkpt lat="44.93887629179476" lon="7.278263799289815"><ele>986.6000000000001</ele><time>2026-04-19T09:48:08.998Z</time></trkpt><trkpt lat="44.93883679148599" lon="7.278381290944843"><ele>980.4</ele><time>2026-04-19T09:48:10.998Z</time></trkpt><trkpt lat="44.93875552007422" lon="7.278471204389768"><ele>974.2</ele><time>2026-04-19T09:48:12.998Z</time></trkpt><trkpt lat="44.93867063396952" lon="7.278573711488807"><ele>968.0</ele><time>2026-04-19T09:48:13.998Z</time></trkpt><trkpt lat="44.938620484583986" lon="7.27866445404361"><ele>968.0</ele><time>2026-04-19T09:48:14.998Z</time></trkpt><trkpt lat="44.9386165525694" lon="7.278801894799757"><ele>968.0</ele><time>2026-04-19T09:48:17Z</time></trkpt><trkpt lat="44.93860682932334" lon="7.278902767159345"><ele>968.0</ele><time>2026-04-19T09:48:19Z</time></trkpt><trkpt lat="44.9385599573631" lon="7.279044306796391"><ele>968.0</ele><time>2026-04-19T09:48:21Z</time></trkpt><trkpt lat="44.93845829654821" lon="7.279116155308922"><ele>968.0</ele><time>2026-04-19T09:48:22Z</time></trkpt><trkpt lat="44.93839724636679" lon="7.279170307490105"><ele>972.0</ele><time>2026-04-19T09:48:23Z</time></trkpt><trkpt lat="44.938332011021075" lon="7.2792593878297245"><ele>976.0</ele><time>2026-04-19T09:48:24Z</time></trkpt><trkpt lat="44.938217143299404" lon="7.279343457130081"><ele>980.0</ele><time>2026-04-19T09:48:26Z</time></trkpt><trkpt lat="44.9381323107755" lon="7.279361603754669"><ele>984.0</ele><time>2026-04-19T09:48:27Z</time></trkpt><trkpt lat="44.938022609984905" lon="7.279295801434522"><ele>988.0</ele><time>2026-04-19T09:48:29Z</time></trkpt><trkpt lat="44.93795424038676" lon="7.279279463410259"><ele>987.9999999999999</ele><time>2026-04-19T09:48:30Z</time></trkpt><trkpt lat="44.937827352388155" lon="7.279293941179231"><ele>988.0</ele><time>2026-04-19T09:48:32Z</time></trkpt><trkpt lat="44.93775761243328" lon="7.279326453374622"><ele>988.0</ele><time>2026-04-19T09:48:33Z</time></trkpt><trkpt lat="44.93767996317442" lon="7.279373684994503"><ele>988.0</ele><time>2026-04-19T09:48:34Z</time></trkpt><trkpt lat="44.93758978136043" lon="7.279348801860723"><ele>987.9999999999999</ele><time>2026-04-19T09:48:36Z</time></trkpt><trkpt lat="44.93757585479662" lon="7.279259454487912"><ele>988.0</ele><time>2026-04-19T09:48:37Z</time></trkpt><trkpt lat="44.93759207227245" lon="7.27916690013571"><ele>987.9999999999999</ele><time>2026-04-19T09:48:38Z</time></trkpt><trkpt lat="44.937622828597206" lon="7.279072734208751"><ele>988.0</ele><time>2026-04-19T09:48:39Z</time></trkpt><trkpt lat="44.93765700798312" lon="7.278931096541501"><ele>988.0</ele><time>2026-04-19T09:48:41Z</time></trkpt><trkpt lat="44.937644709634476" lon="7.278808353768688"><ele>988.0</ele><time>2026-04-19T09:48:42Z</time></trkpt><trkpt lat="44.93760146114519" lon="7.2787237498894"><ele>987.9999999999999</ele><time>2026-04-19T09:48:43Z</time></trkpt><trkpt lat="44.937559614463545" lon="7.2786372345004775"><ele>988.0</ele><time>2026-04-19T09:48:44Z</time></trkpt><trkpt lat="44.93752652013819" lon="7.278548909723302"><ele>989.8333333333333</ele><time>2026-04-19T09:48:45Z</time></trkpt><trkpt lat="44.93749459588761" lon="7.278379961820637"><ele>991.6666666666666</ele><time>2026-04-19T09:48:47Z</time></trkpt><trkpt lat="44.93747812194275" lon="7.278262657067592"><ele>993.5</ele><time>2026-04-19T09:48:48Z</time></trkpt><trkpt lat="44.93746803248837" lon="7.27817011023044"><ele>995.3333333333333</ele><time>2026-04-19T09:48:50Z</time></trkpt><trkpt lat="44.937456210612964" lon="7.27807925804012"><ele>997.1666666666666</ele><time>2026-04-19T09:48:52Z</time></trkpt><trkpt lat="44.937451079326486" lon="7.277953399690221"><ele>999.0</ele><time>2026-04-19T09:48:54Z</time></trkpt><trkpt lat="44.937372672084244" lon="7.277846737186149"><ele>1001.1666666666666</ele><time>2026-04-19T09:48:56Z</time></trkpt><trkpt lat="44.937323459600606" lon="7.277717048532734"><ele>1003.3333333333333</ele><time>2026-04-19T09:48:58Z</time></trkpt><trkpt lat="44.937289384111224" lon="7.27762499224497"><ele>1005.5</ele><time>2026-04-19T09:48:59Z</time></trkpt><trkpt lat="44.93725053978376" lon="7.277514173440911"><ele>1007.6666666666666</ele><time>2026-04-19T09:49:00Z</time></trkpt><trkpt lat="44.93720063954673" lon="7.277410557232014"><ele>1009.8333333333333</ele><time>2026-04-19T09:49:01Z</time></trkpt><trkpt lat="44.93714703113471" lon="7.2773015123483065"><ele>1012.0</ele><time>2026-04-19T09:49:02Z</time></trkpt><trkpt lat="44.93708539773693" lon="7.277219947765616"><ele>1011.4000000000001</ele><time>2026-04-19T09:49:03Z</time></trkpt><trkpt lat="44.93703524262091" lon="7.277114176060782"><ele>1010.8000000000001</ele><time>2026-04-19T09:49:04Z</time></trkpt><trkpt lat="44.93694940347405" lon="7.2771101087516445"><ele>1010.2</ele><time>2026-04-19T09:49:04.999Z</time></trkpt><trkpt lat="44.93686764314431" lon="7.2770674720460695"><ele>1009.6</ele><time>2026-04-19T09:49:05.999Z</time></trkpt><trkpt lat="44.936797190973" lon="7.277017427410957"><ele>1009.0</ele><time>2026-04-19T09:49:07.999Z</time></trkpt><trkpt lat="44.936695780341175" lon="7.276898552007829"><ele>1008.9999999999999</ele><time>2026-04-19T09:49:09.999Z</time></trkpt><trkpt lat="44.936650737526996" lon="7.276820939287301"><ele>1009.0</ele><time>2026-04-19T09:49:10.999Z</time></trkpt><trkpt lat="44.93655257332855" lon="7.2766968498296825"><ele>1009.0</ele><time>2026-04-19T09:49:12.999Z</time></trkpt><trkpt lat="44.93647693792444" lon="7.27662558685097"><ele>1009.0</ele><time>2026-04-19T09:49:13.999Z</time></trkpt><trkpt lat="44.9364194414495" lon="7.276552449144911"><ele>1008.9999999999999</ele><time>2026-04-19T09:49:14.999Z</time></trkpt><trkpt lat="44.936373181812264" lon="7.276472148350401"><ele>1009.0</ele><time>2026-04-19T09:49:15.999Z</time></trkpt><trkpt lat="44.93634165424069" lon="7.276358780966748"><ele>1012.2</ele><time>2026-04-19T09:49:16.999Z</time></trkpt><trkpt lat="44.93631585222692" lon="7.276244555405055"><ele>1015.4000000000001</ele><time>2026-04-19T09:49:17.999Z</time></trkpt><trkpt lat="44.93631408375" lon="7.276107234800131"><ele>1018.6</ele><time>2026-04-19T09:49:18.999Z</time></trkpt><trkpt lat="44.93627876631505" lon="7.275966493277095"><ele>1021.8</ele><time>2026-04-19T09:49:19.999Z</time></trkpt><trkpt lat="44.93622591179672" lon="7.275866775873086"><ele>1025.0</ele><time>2026-04-19T09:49:20.999Z</time></trkpt><trkpt lat="44.936233753831644" lon="7.275737685991454"><ele>1025.0</ele><time>2026-04-19T09:49:21.999Z</time></trkpt><trkpt lat="44.936252133769734" lon="7.275631506874838"><ele>1025.0</ele><time>2026-04-19T09:49:22.999Z</time></trkpt><trkpt lat="44.93624487694997" lon="7.275539604539915"><ele>1025.0</ele><time>2026-04-19T09:49:23.999Z</time></trkpt><trkpt lat="44.93623485732062" lon="7.275398957328695"><ele>1025.0</ele><time>2026-04-19T09:49:24.999Z</time></trkpt><trkpt lat="44.936223516680634" lon="7.275306564424032"><ele>1025.0</ele><time>2026-04-19T09:49:25.999Z</time></trkpt><trkpt lat="44.93621405644503" lon="7.275195295383724"><ele>1025.0</ele><time>2026-04-19T09:49:27.999Z</time></trkpt><trkpt lat="44.93629573439682" lon="7.275251876248071"><ele>1025.0</ele><time>2026-04-19T09:49:29.999Z</time></trkpt><trkpt lat="44.936334893813935" lon="7.275345563278226"><ele>1025.0</ele><time>2026-04-19T09:49:30.999Z</time></trkpt><trkpt lat="44.936373269502916" lon="7.275443502730868"><ele>1025.0</ele><time>2026-04-19T09:49:31.999Z</time></trkpt><trkpt lat="44.9364045004563" lon="7.275550402736107"><ele>1025.0</ele><time>2026-04-19T09:49:32.999Z</time></trkpt><trkpt lat="44.936449954544265" lon="7.275654323924246"><ele>1025.0</ele><time>2026-04-19T09:49:33.999Z</time></trkpt><trkpt lat="44.93652780968025" lon="7.27561337663547"><ele>1025.0</ele><time>2026-04-19T09:49:35.999Z</time></trkpt><trkpt lat="44.93649976593195" lon="7.275446421730614"><ele>1027.6666666666667</ele><time>2026-04-19T09:49:37.999Z</time></trkpt><trkpt lat="44.93646334578636" lon="7.275344836801646"><ele>1030.3333333333335</ele><time>2026-04-19T09:49:38.999Z</time></trkpt><trkpt lat="44.9364561082683" lon="7.27522284144991"><ele>1033.0</ele><time>2026-04-19T09:49:39.999Z</time></trkpt><trkpt lat="44.93648234591865" lon="7.27511646233494"><ele>1035.6666666666667</ele><time>2026-04-19T09:49:40.999Z</time></trkpt><trkpt lat="44.93649266621573" lon="7.275017958348026"><ele>1038.3333333333333</ele><time>2026-04-19T09:49:41.999Z</time></trkpt><trkpt lat="44.93650374025842" lon="7.274901181055952"><ele>1041.0</ele><time>2026-04-19T09:49:42.999Z</time></trkpt><trkpt lat="44.93649460421319" lon="7.274807043243793"><ele>1045.3999999999999</ele><time>2026-04-19T09:49:43.999Z</time></trkpt><trkpt lat="44.936471635493035" lon="7.274703056622566"><ele>1049.8</ele><time>2026-04-19T09:49:44.999Z</time></trkpt><trkpt lat="44.93644181349646" lon="7.274559315655472"><ele>1054.1999999999998</ele><time>2026-04-19T09:49:45.999Z</time></trkpt><trkpt lat="44.93641559569299" lon="7.274454666741938"><ele>1058.6</ele><time>2026-04-19T09:49:46.999Z</time></trkpt><trkpt lat="44.936397565769205" lon="7.274351833433229"><ele>1063.0</ele><time>2026-04-19T09:49:47.999Z</time></trkpt><trkpt lat="44.936289218880376" lon="7.274294171891959"><ele>1063.0</ele><time>2026-04-19T09:49:49.999Z</time></trkpt><trkpt lat="44.93621235060447" lon="7.274344654411516"><ele>1063.0</ele><time>2026-04-19T09:49:50.999Z</time></trkpt><trkpt lat="44.936117427387266" lon="7.274381400024496"><ele>1063.0</ele><time>2026-04-19T09:49:51.999Z</time></trkpt><trkpt lat="44.936051884316605" lon="7.274396871035812"><ele>1063.0</ele><time>2026-04-19T09:49:52.999Z</time></trkpt><trkpt lat="44.93593368909805" lon="7.274283650145652"><ele>1063.0</ele><time>2026-04-19T09:49:54.999Z</time></trkpt><trkpt lat="44.93582738554146" lon="7.274286606750147"><ele>1060.6</ele><time>2026-04-19T09:49:55.999Z</time></trkpt><trkpt lat="44.9357274832916" lon="7.2742283054533425"><ele>1058.1999999999998</ele><time>2026-04-19T09:49:56.999Z</time></trkpt><trkpt lat="44.93562553476683" lon="7.274212764504532"><ele>1055.8</ele><time>2026-04-19T09:49:57.999Z</time></trkpt><trkpt lat="44.93550624828174" lon="7.274203607211586"><ele>1053.3999999999999</ele><time>2026-04-19T09:49:58.999Z</time></trkpt><trkpt lat="44.93539107284866" lon="7.274182096347337"><ele>1051.0</ele><time>2026-04-19T09:49:59.999Z</time></trkpt><trkpt lat="44.93527435138168" lon="7.274164617640671"><ele>1051.0</ele><time>2026-04-19T09:50:00.999Z</time></trkpt><trkpt lat="44.935167787577164" lon="7.274067478702821"><ele>1051.0</ele><time>2026-04-19T09:50:01.999Z</time></trkpt><trkpt lat="44.935066900044205" lon="7.274039504779312"><ele>1051.0</ele><time>2026-04-19T09:50:02.999Z</time></trkpt><trkpt lat="44.93495912913219" lon="7.273982900848831"><ele>1051.0</ele><time>2026-04-19T09:50:03.999Z</time></trkpt><trkpt lat="44.934862617215884" lon="7.273972895005734"><ele>1051.0</ele><time>2026-04-19T09:50:04.999Z</time></trkpt><trkpt lat="44.93476926639173" lon="7.273959383780365"><ele>1050.6</ele><time>2026-04-19T09:50:05.998Z</time></trkpt><trkpt lat="44.93465367326228" lon="7.273954963807191"><ele>1050.1999999999998</ele><time>2026-04-19T09:50:06.998Z</time></trkpt><trkpt lat="44.934547692392215" lon="7.273966149726521"><ele>1049.8000000000002</ele><time>2026-04-19T09:50:07.998Z</time></trkpt><trkpt lat="44.934447671847515" lon="7.274012914723869"><ele>1049.4</ele><time>2026-04-19T09:50:08.998Z</time></trkpt><trkpt lat="44.93433985919006" lon="7.273938904352412"><ele>1049.0</ele><time>2026-04-19T09:50:09.998Z</time></trkpt><trkpt lat="44.93423166337505" lon="7.274030681040172"><ele>1050.1666666666667</ele><time>2026-04-19T09:50:10.998Z</time></trkpt><trkpt lat="44.9341104125434" lon="7.274040633085479"><ele>1051.3333333333335</ele><time>2026-04-19T09:50:11.998Z</time></trkpt><trkpt lat="44.93403900671778" lon="7.2740278813136605"><ele>1052.5</ele><time>2026-04-19T09:50:12.998Z</time></trkpt><trkpt lat="44.93393028896954" lon="7.274013881702729"><ele>1053.6666666666667</ele><time>2026-04-19T09:50:15.998Z</time></trkpt><trkpt lat="44.93386760192216" lon="7.2740350897225765"><ele>1054.8333333333333</ele><time>2026-04-19T09:50:16.998Z</time></trkpt><trkpt lat="44.9338007538755" lon="7.2740926163481365"><ele>1056.0</ele><time>2026-04-19T09:50:17.998Z</time></trkpt><trkpt lat="44.93373476318033" lon="7.274162162072201"><ele>1056.0</ele><time>2026-04-19T09:50:18.998Z</time></trkpt><trkpt lat="44.933658128327465" lon="7.2742374153016005"><ele>1056.0</ele><time>2026-04-19T09:50:19.998Z</time></trkpt><trkpt lat="44.93357932747666" lon="7.274288819172558"><ele>1056.0</ele><time>2026-04-19T09:50:20.998Z</time></trkpt><trkpt lat="44.93349310221185" lon="7.27432997747202"><ele>1056.0</ele><time>2026-04-19T09:50:22Z</time></trkpt><trkpt lat="44.93339360571007" lon="7.274384062647112"><ele>1056.0</ele><time>2026-04-19T09:50:23Z</time></trkpt><trkpt lat="44.93330414167513" lon="7.274446615515708"><ele>1057.2</ele><time>2026-04-19T09:50:24Z</time></trkpt><trkpt lat="44.93322315183442" lon="7.274483369035625"><ele>1058.3999999999999</ele><time>2026-04-19T09:50:25Z</time></trkpt><trkpt lat="44.93307978095291" lon="7.274516942889158"><ele>1059.6</ele><time>2026-04-19T09:50:27Z</time></trkpt><trkpt lat="44.93299548388451" lon="7.274513388505546"><ele>1060.8</ele><time>2026-04-19T09:50:28Z</time></trkpt><trkpt lat="44.93289463961885" lon="7.274520495358523"><ele>1062.0</ele><time>2026-04-19T09:50:29Z</time></trkpt><trkpt lat="44.93283442312391" lon="7.274481075873919"><ele>1062.0</ele><time>2026-04-19T09:50:30Z</time></trkpt><trkpt lat="44.93276976019194" lon="7.274435402072626"><ele>1062.0</ele><time>2026-04-19T09:50:31Z</time></trkpt><trkpt lat="44.93269925023678" lon="7.2743486474353"><ele>1062.0</ele><time>2026-04-19T09:50:32Z</time></trkpt><trkpt lat="44.93263351713441" lon="7.274228296603854"><ele>1062.0</ele><time>2026-04-19T09:50:33Z</time></trkpt><trkpt lat="44.932589251838955" lon="7.274111745775544"><ele>1062.0</ele><time>2026-04-19T09:50:34Z</time></trkpt><trkpt lat="44.932530990071626" lon="7.274006199427636"><ele>1060.6</ele><time>2026-04-19T09:50:35Z</time></trkpt><trkpt lat="44.93249022039124" lon="7.273882808416912"><ele>1059.2</ele><time>2026-04-19T09:50:36Z</time></trkpt><trkpt lat="44.93246161987729" lon="7.273793881808135"><ele>1057.8</ele><time>2026-04-19T09:50:37Z</time></trkpt><trkpt lat="44.93240953162526" lon="7.273677024165726"><ele>1056.4</ele><time>2026-04-19T09:50:38Z</time></trkpt><trkpt lat="44.93237158350496" lon="7.273567644333891"><ele>1055.0</ele><time>2026-04-19T09:50:39Z</time></trkpt><trkpt lat="44.93226103763365" lon="7.273588025915143"><ele>1055.0</ele><time>2026-04-19T09:50:41Z</time></trkpt><trkpt lat="44.93214984938301" lon="7.273799182375145"><ele>1055.0</ele><time>2026-04-19T09:50:43Z</time></trkpt><trkpt lat="44.93209816723513" lon="7.273912002074476"><ele>1055.0</ele><time>2026-04-19T09:50:44Z</time></trkpt><trkpt lat="44.93202253353799" lon="7.273990069506524"><ele>1055.0</ele><time>2026-04-19T09:50:45Z</time></trkpt><trkpt lat="44.93196723414301" lon="7.274058055398571"><ele>1055.0</ele><time>2026-04-19T09:50:46Z</time></trkpt><trkpt lat="44.931881455014135" lon="7.274080759177212"><ele>1054.1666666666667</ele><time>2026-04-19T09:50:47Z</time></trkpt><trkpt lat="44.93177894861546" lon="7.274124822222102"><ele>1053.3333333333335</ele><time>2026-04-19T09:50:48Z</time></trkpt><trkpt lat="44.931715687557684" lon="7.274196525620806"><ele>1052.5</ele><time>2026-04-19T09:50:49Z</time></trkpt><trkpt lat="44.9316407718159" lon="7.2742783245171125"><ele>1051.6666666666667</ele><time>2026-04-19T09:50:50Z</time></trkpt><trkpt lat="44.93158873556592" lon="7.274337828433953"><ele>1050.8333333333333</ele><time>2026-04-19T09:50:51Z</time></trkpt><trkpt lat="44.93152941661615" lon="7.2744160364459525"><ele>1050.0</ele><time>2026-04-19T09:50:52Z</time></trkpt><trkpt lat="44.93147472982739" lon="7.274509842058408"><ele>1047.8333333333333</ele><time>2026-04-19T09:50:53Z</time></trkpt><trkpt lat="44.93140686019987" lon="7.274630336039454"><ele>1045.6666666666667</ele><time>2026-04-19T09:50:54Z</time></trkpt><trkpt lat="44.931366345418276" lon="7.274709921804089"><ele>1043.5</ele><time>2026-04-19T09:50:55Z</time></trkpt><trkpt lat="44.93130359944705" lon="7.274779480760325"><ele>1041.3333333333335</ele><time>2026-04-19T09:50:56Z</time></trkpt><trkpt lat="44.931226868606046" lon="7.274815721831024"><ele>1039.1666666666667</ele><time>2026-04-19T09:50:57Z</time></trkpt><trkpt lat="44.93112747823188" lon="7.274814319588726"><ele>1037.0</ele><time>2026-04-19T09:50:58Z</time></trkpt><trkpt lat="44.931038391951034" lon="7.2747833965616175"><ele>1037.0</ele><time>2026-04-19T09:50:59Z</time></trkpt><trkpt lat="44.93094002472853" lon="7.274736862757104"><ele>1037.0</ele><time>2026-04-19T09:51:00Z</time></trkpt><trkpt lat="44.93084422261885" lon="7.274704239896189"><ele>1037.0</ele><time>2026-04-19T09:51:01Z</time></trkpt><trkpt lat="44.930726437463036" lon="7.274725011117388"><ele>1037.0</ele><time>2026-04-19T09:51:02Z</time></trkpt><trkpt lat="44.930593313875896" lon="7.274771914380617"><ele>1032.5</ele><time>2026-04-19T09:51:03Z</time></trkpt><trkpt lat="44.93046075315149" lon="7.274807565934911"><ele>1028.0</ele><time>2026-04-19T09:51:03.999Z</time></trkpt><trkpt lat="44.930329973866904" lon="7.274850684281681"><ele>1023.5</ele><time>2026-04-19T09:51:04.999Z</time></trkpt><trkpt lat="44.930207968743765" lon="7.274906211566844"><ele>1019.0</ele><time>2026-04-19T09:51:05.999Z</time></trkpt><trkpt lat="44.93009154752111" lon="7.274929726324387"><ele>1019.0000000000001</ele><time>2026-04-19T09:51:06.999Z</time></trkpt><trkpt lat="44.93000093928042" lon="7.2749327477106185"><ele>1019.0</ele><time>2026-04-19T09:51:07.999Z</time></trkpt><trkpt lat="44.92992079388373" lon="7.2749182701770705"><ele>1019.0</ele><time>2026-04-19T09:51:08.999Z</time></trkpt><trkpt lat="44.92985674859269" lon="7.274865679922134"><ele>1019.0</ele><time>2026-04-19T09:51:09.999Z</time></trkpt><trkpt lat="44.92984073545657" lon="7.2747786118663615"><ele>1019.0000000000001</ele><time>2026-04-19T09:51:10.999Z</time></trkpt><trkpt lat="44.92982058625467" lon="7.274674238757538"><ele>1019.0</ele><time>2026-04-19T09:51:12.999Z</time></trkpt><trkpt lat="44.92947501114751" lon="7.274426945141537"><ele>1019.0000000000001</ele><time>2026-04-19T09:51:22.999Z</time></trkpt><trkpt lat="44.92940987114314" lon="7.274361526911371"><ele>1019.0</ele><time>2026-04-19T09:51:24.999Z</time></trkpt><trkpt lat="44.929343882516314" lon="7.2742889945114655"><ele>1019.0</ele><time>2026-04-19T09:51:27.999Z</time></trkpt><trkpt lat="44.92929531372409" lon="7.274232128182894"><ele>1019.0</ele><time>2026-04-19T09:51:33.999Z</time></trkpt><trkpt lat="44.92923990666712" lon="7.274166613537528"><ele>1019.0000000000001</ele><time>2026-04-19T09:51:35.999Z</time></trkpt><trkpt lat="44.92915157475898" lon="7.2740460766426525"><ele>1019.0</ele><time>2026-04-19T09:51:37.999Z</time></trkpt><trkpt lat="44.92908167752833" lon="7.274002422253706"><ele>1020.6666666666667</ele><time>2026-04-19T09:51:38.999Z</time></trkpt><trkpt lat="44.928994881629364" lon="7.273983170388015"><ele>1022.3333333333334</ele><time>2026-04-19T09:51:39.999Z</time></trkpt><trkpt lat="44.928905099091374" lon="7.273954271319504"><ele>1024.0</ele><time>2026-04-19T09:51:40.999Z</time></trkpt><trkpt lat="44.928801908092055" lon="7.273940981501398"><ele>1025.6666666666667</ele><time>2026-04-19T09:51:41.999Z</time></trkpt><trkpt lat="44.928725883193685" lon="7.27396443945422"><ele>1027.3333333333333</ele><time>2026-04-19T09:51:42.999Z</time></trkpt><trkpt lat="44.928660178145286" lon="7.274005939728418"><ele>1029.0</ele><time>2026-04-19T09:51:43.999Z</time></trkpt><trkpt lat="44.92859819313239" lon="7.274147300023028"><ele>1029.0</ele><time>2026-04-19T09:51:44.999Z</time></trkpt><trkpt lat="44.92852734100214" lon="7.274255334403887"><ele>1029.0</ele><time>2026-04-19T09:51:45.999Z</time></trkpt><trkpt lat="44.92844121699025" lon="7.2743420517253155"><ele>1029.0</ele><time>2026-04-19T09:51:46.999Z</time></trkpt><trkpt lat="44.928337199158456" lon="7.274401808983925"><ele>1029.0</ele><time>2026-04-19T09:51:47.999Z</time></trkpt><trkpt lat="44.928245854482654" lon="7.274461847050355"><ele>1029.0</ele><time>2026-04-19T09:51:48.999Z</time></trkpt><trkpt lat="44.92814797340767" lon="7.274499976050772"><ele>1028.8</ele><time>2026-04-19T09:51:49.999Z</time></trkpt><trkpt lat="44.92806174629238" lon="7.274530255886645"><ele>1028.6000000000001</ele><time>2026-04-19T09:51:50.999Z</time></trkpt><trkpt lat="44.927965476356114" lon="7.274546131176853"><ele>1028.4</ele><time>2026-04-19T09:51:51.999Z</time></trkpt><trkpt lat="44.92787139693057" lon="7.2745378066657995"><ele>1028.2</ele><time>2026-04-19T09:51:52.999Z</time></trkpt><trkpt lat="44.92776846486907" lon="7.274510402628685"><ele>1028.0</ele><time>2026-04-19T09:51:53.999Z</time></trkpt><trkpt lat="44.92767874131317" lon="7.274497560344181"><ele>1028.0</ele><time>2026-04-19T09:51:54.999Z</time></trkpt><trkpt lat="44.92759401802287" lon="7.274508324068348"><ele>1028.0</ele><time>2026-04-19T09:51:55.999Z</time></trkpt><trkpt lat="44.92753151517519" lon="7.274489124087633"><ele>1028.0</ele><time>2026-04-19T09:51:56.999Z</time></trkpt><trkpt lat="44.92746768173747" lon="7.274405215769531"><ele>1028.0</ele><time>2026-04-19T09:51:58.999Z</time></trkpt><trkpt lat="44.92742431411622" lon="7.274315050679771"><ele>1028.0</ele><time>2026-04-19T09:52:04.999Z</time></trkpt><trkpt lat="44.927383775923204" lon="7.274224279407893"><ele>1028.0</ele><time>2026-04-19T09:52:06.999Z</time></trkpt><trkpt lat="44.92736887492364" lon="7.2740953106459765"><ele>1027.3333333333335</ele><time>2026-04-19T09:52:10.998Z</time></trkpt><trkpt lat="44.92732252867222" lon="7.274029560172261"><ele>1026.6666666666667</ele><time>2026-04-19T09:52:12.998Z</time></trkpt><trkpt lat="44.92726096828319" lon="7.273975339480849"><ele>1026.0</ele><time>2026-04-19T09:52:15.998Z</time></trkpt><trkpt lat="44.92719698048388" lon="7.273973559972042"><ele>1025.3333333333333</ele><time>2026-04-19T09:52:17.998Z</time></trkpt><trkpt lat="44.927119834590286" lon="7.274010799052967"><ele>1024.6666666666665</ele><time>2026-04-19T09:52:20.998Z</time></trkpt><trkpt lat="44.92704064073807" lon="7.273989296313772"><ele>1024.0</ele><time>2026-04-19T09:52:23.998Z</time></trkpt><trkpt lat="44.926961886907534" lon="7.273911871339523"><ele>1023.9999999999999</ele><time>2026-04-19T09:52:25.998Z</time></trkpt><trkpt lat="44.92689237499091" lon="7.273878535454148"><ele>1024.0</ele><time>2026-04-19T09:52:28Z</time></trkpt><trkpt lat="44.92682908462396" lon="7.273919085157504"><ele>1024.0</ele><time>2026-04-19T09:52:30Z</time></trkpt><trkpt lat="44.92673270286752" lon="7.2739850348176684"><ele>1024.0</ele><time>2026-04-19T09:52:33Z</time></trkpt><trkpt lat="44.926646693854686" lon="7.2740279386272375"><ele>1023.9999999999999</ele><time>2026-04-19T09:52:35Z</time></trkpt><trkpt lat="44.92657937847412" lon="7.274093774139342"><ele>1024.0</ele><time>2026-04-19T09:52:37Z</time></trkpt><trkpt lat="44.92649915608487" lon="7.2741682788771325"><ele>1021.3333333333333</ele><time>2026-04-19T09:52:39Z</time></trkpt><trkpt lat="44.92644180508764" lon="7.274280669813258"><ele>1018.6666666666666</ele><time>2026-04-19T09:52:41Z</time></trkpt><trkpt lat="44.92636540105428" lon="7.274335568724976"><ele>1016.0</ele><time>2026-04-19T09:52:43Z</time></trkpt><trkpt lat="44.926321722028554" lon="7.274435801585139"><ele>1013.3333333333333</ele><time>2026-04-19T09:52:45Z</time></trkpt><trkpt lat="44.926240535073156" lon="7.274473082960167"><ele>1010.6666666666666</ele><time>2026-04-19T09:52:48Z</time></trkpt><trkpt lat="44.926174625925015" lon="7.274456395720641"><ele>1008.0</ele><time>2026-04-19T09:52:50Z</time></trkpt><trkpt lat="44.92605677738457" lon="7.274481527277747"><ele>1008.0</ele><time>2026-04-19T09:52:53Z</time></trkpt><trkpt lat="44.92598884058725" lon="7.274465354790088"><ele>1008.0</ele><time>2026-04-19T09:52:54Z</time></trkpt><trkpt lat="44.925887272615725" lon="7.274481625788737"><ele>1008.0</ele><time>2026-04-19T09:52:56Z</time></trkpt><trkpt lat="44.9258006890087" lon="7.274500944761618"><ele>1008.0</ele><time>2026-04-19T09:52:59Z</time></trkpt><trkpt lat="44.925787685237545" lon="7.274620386093274"><ele>1008.0</ele><time>2026-04-19T09:53:01Z</time></trkpt><trkpt lat="44.92581888128595" lon="7.274945631713156"><ele>1007.8</ele><time>2026-04-19T09:53:05.999Z</time></trkpt><trkpt lat="44.925839432850665" lon="7.275045309635936"><ele>1007.5999999999999</ele><time>2026-04-19T09:53:07.999Z</time></trkpt><trkpt lat="44.9259002756405" lon="7.275205950662064"><ele>1007.4000000000001</ele><time>2026-04-19T09:53:09.999Z</time></trkpt><trkpt lat="44.92599119062689" lon="7.275265822681088"><ele>1007.2</ele><time>2026-04-19T09:53:10.999Z</time></trkpt><trkpt lat="44.92607594939456" lon="7.275326616382105"><ele>1007.0</ele><time>2026-04-19T09:53:11.999Z</time></trkpt><trkpt lat="44.92616995148604" lon="7.275383695439441"><ele>1007.0000000000001</ele><time>2026-04-19T09:53:12.999Z</time></trkpt><trkpt lat="44.926268135116764" lon="7.275447039955379"><ele>1007.0</ele><time>2026-04-19T09:53:13.999Z</time></trkpt><trkpt lat="44.92635154305155" lon="7.275491176610639"><ele>1007.0</ele><time>2026-04-19T09:53:14.999Z</time></trkpt><trkpt lat="44.926399356282815" lon="7.275579648263772"><ele>1007.0</ele><time>2026-04-19T09:53:15.999Z</time></trkpt><trkpt lat="44.926447984358404" lon="7.275664890710559"><ele>1007.0000000000001</ele><time>2026-04-19T09:53:16.999Z</time></trkpt><trkpt lat="44.926474967123504" lon="7.275773514664427"><ele>1007.0</ele><time>2026-04-19T09:53:17.999Z</time></trkpt><trkpt lat="44.92651475439418" lon="7.275933816896999"><ele>1003.4000000000001</ele><time>2026-04-19T09:53:18.999Z</time></trkpt><trkpt lat="44.92653753103512" lon="7.276045354975734"><ele>999.8000000000001</ele><time>2026-04-19T09:53:19.999Z</time></trkpt><trkpt lat="44.92651528064866" lon="7.276177535201527"><ele>996.2</ele><time>2026-04-19T09:53:21.999Z</time></trkpt><trkpt lat="44.92645532139463" lon="7.276254125600752"><ele>992.6</ele><time>2026-04-19T09:53:23.999Z</time></trkpt><trkpt lat="44.9263007661231" lon="7.276285382780943"><ele>989.0</ele><time>2026-04-19T09:53:24.999Z</time></trkpt><trkpt lat="44.926193074237936" lon="7.276351733263791"><ele>989.0</ele><time>2026-04-19T09:53:25.999Z</time></trkpt><trkpt lat="44.92609052144874" lon="7.276418937666779"><ele>989.0</ele><time>2026-04-19T09:53:26.999Z</time></trkpt><trkpt lat="44.92598061350897" lon="7.276488963466841"><ele>989.0</ele><time>2026-04-19T09:53:27.999Z</time></trkpt><trkpt lat="44.92586407181708" lon="7.276576105724522"><ele>989.0</ele><time>2026-04-19T09:53:28.999Z</time></trkpt><trkpt lat="44.925759935611616" lon="7.276672768325381"><ele>984.2</ele><time>2026-04-19T09:53:29.999Z</time></trkpt><trkpt lat="44.92567847602435" lon="7.276765718738905"><ele>979.4000000000001</ele><time>2026-04-19T09:53:30.999Z</time></trkpt><trkpt lat="44.9255848993308" lon="7.276826699706238"><ele>974.6</ele><time>2026-04-19T09:53:31.999Z</time></trkpt><trkpt lat="44.9254931686734" lon="7.276897033286036"><ele>969.8</ele><time>2026-04-19T09:53:32.999Z</time></trkpt><trkpt lat="44.9254076195655" lon="7.276974233158728"><ele>965.0</ele><time>2026-04-19T09:53:33.999Z</time></trkpt><trkpt lat="44.92530786785812" lon="7.277036736616395"><ele>965.0</ele><time>2026-04-19T09:53:34.999Z</time></trkpt><trkpt lat="44.925221144379165" lon="7.277105362268373"><ele>965.0</ele><time>2026-04-19T09:53:35.999Z</time></trkpt><trkpt lat="44.92508889441078" lon="7.277128094220506"><ele>965.0</ele><time>2026-04-19T09:53:37.999Z</time></trkpt><trkpt lat="44.92494626684539" lon="7.277150971545235"><ele>965.0</ele><time>2026-04-19T09:53:38.999Z</time></trkpt><trkpt lat="44.92483151365268" lon="7.277132537525944"><ele>960.75</ele><time>2026-04-19T09:53:39.999Z</time></trkpt><trkpt lat="44.924716543185085" lon="7.2770738586865455"><ele>956.5</ele><time>2026-04-19T09:53:40.999Z</time></trkpt><trkpt lat="44.92461198275983" lon="7.276972947788808"><ele>952.25</ele><time>2026-04-19T09:53:41.999Z</time></trkpt><trkpt lat="44.9244927290596" lon="7.276905935339124"><ele>948.0</ele><time>2026-04-19T09:53:42.999Z</time></trkpt><trkpt lat="44.924384463484934" lon="7.276854412072372"><ele>948.0</ele><time>2026-04-19T09:53:43.999Z</time></trkpt><trkpt lat="44.92428472235375" lon="7.276806095184636"><ele>948.0</ele><time>2026-04-19T09:53:44.999Z</time></trkpt><trkpt lat="44.92419968138268" lon="7.276782695491137"><ele>948.0</ele><time>2026-04-19T09:53:45.999Z</time></trkpt><trkpt lat="44.924130312908474" lon="7.27678846967359"><ele>948.0</ele><time>2026-04-19T09:53:46.999Z</time></trkpt><trkpt lat="44.9240656757345" lon="7.276788219610472"><ele>948.0</ele><time>2026-04-19T09:53:47.999Z</time></trkpt><trkpt lat="44.92399471965449" lon="7.276807804867264"><ele>948.0</ele><time>2026-04-19T09:53:48.999Z</time></trkpt><trkpt lat="44.92392250981165" lon="7.276868841009188"><ele>948.2</ele><time>2026-04-19T09:53:49.999Z</time></trkpt><trkpt lat="44.923864197264045" lon="7.276936242333661"><ele>948.4</ele><time>2026-04-19T09:53:50.999Z</time></trkpt><trkpt lat="44.92380541967747" lon="7.277021703633946"><ele>948.6000000000001</ele><time>2026-04-19T09:53:51.999Z</time></trkpt><trkpt lat="44.92372176639533" lon="7.277142432078586"><ele>948.8000000000001</ele><time>2026-04-19T09:53:52.999Z</time></trkpt><trkpt lat="44.923661264447595" lon="7.277241026180296"><ele>949.0</ele><time>2026-04-19T09:53:53.999Z</time></trkpt><trkpt lat="44.923620972178604" lon="7.2773472248485644"><ele>948.4000000000001</ele><time>2026-04-19T09:53:54.999Z</time></trkpt><trkpt lat="44.92358908676102" lon="7.277485668356985"><ele>947.8000000000001</ele><time>2026-04-19T09:53:55.999Z</time></trkpt><trkpt lat="44.923556751806466" lon="7.277587501883701"><ele>947.1999999999999</ele><time>2026-04-19T09:53:56.999Z</time></trkpt><trkpt lat="44.92344966799122" lon="7.277756288362155"><ele>946.5999999999999</ele><time>2026-04-19T09:53:58.999Z</time></trkpt><trkpt lat="44.923361465716276" lon="7.277832588214997"><ele>946.0</ele><time>2026-04-19T09:53:59.999Z</time></trkpt><trkpt lat="44.92326029623961" lon="7.277890359715753"><ele>945.9999999999999</ele><time>2026-04-19T09:54:00.999Z</time></trkpt><trkpt lat="44.92319095499274" lon="7.277943849573666"><ele>946.0</ele><time>2026-04-19T09:54:01.999Z</time></trkpt><trkpt lat="44.92310951877123" lon="7.277967531077223"><ele>946.0</ele><time>2026-04-19T09:54:02.999Z</time></trkpt><trkpt lat="44.923020674566914" lon="7.278002162579459"><ele>946.0</ele><time>2026-04-19T09:54:03.999Z</time></trkpt><trkpt lat="44.922925172191135" lon="7.2780214535536185"><ele>945.9999999999999</ele><time>2026-04-19T09:54:04.999Z</time></trkpt><trkpt lat="44.92282971155506" lon="7.2780292687161445"><ele>946.0</ele><time>2026-04-19T09:54:05.999Z</time></trkpt><trkpt lat="44.92273884234418" lon="7.277999100869659"><ele>946.0</ele><time>2026-04-19T09:54:06.999Z</time></trkpt><trkpt lat="44.92265096171281" lon="7.277985081724677"><ele>945.9999999999999</ele><time>2026-04-19T09:54:07.999Z</time></trkpt><trkpt lat="44.922564315092686" lon="7.2779966056739225"><ele>945.9999999999999</ele><time>2026-04-19T09:54:08.999Z</time></trkpt><trkpt lat="44.92247270132613" lon="7.278015891186192"><ele>946.0</ele><time>2026-04-19T09:54:09.999Z</time></trkpt><trkpt lat="44.922402176593565" lon="7.278011956705683"><ele>946.0</ele><time>2026-04-19T09:54:10.998Z</time></trkpt><trkpt lat="44.9222820070623" lon="7.277967299725691"><ele>945.3333333333333</ele><time>2026-04-19T09:54:12.998Z</time></trkpt><trkpt lat="44.92216762917136" lon="7.277975749225397"><ele>944.6666666666666</ele><time>2026-04-19T09:54:14.998Z</time></trkpt><trkpt lat="44.92208900321885" lon="7.277880726862882"><ele>944.0</ele><time>2026-04-19T09:54:17.998Z</time></trkpt><trkpt lat="44.92202211305458" lon="7.277850785525955"><ele>943.3333333333333</ele><time>2026-04-19T09:54:18.998Z</time></trkpt><trkpt lat="44.921940036725196" lon="7.2777857341503385"><ele>942.6666666666666</ele><time>2026-04-19T09:54:19.998Z</time></trkpt><trkpt lat="44.921877936461186" lon="7.277753752408941"><ele>942.0</ele><time>2026-04-19T09:54:20.998Z</time></trkpt><trkpt lat="44.921792971744274" lon="7.277744164039345"><ele>943.0</ele><time>2026-04-19T09:54:21.998Z</time></trkpt><trkpt lat="44.92170545117834" lon="7.277766113181105"><ele>944.0</ele><time>2026-04-19T09:54:22.998Z</time></trkpt><trkpt lat="44.92161338095797" lon="7.277772033794511"><ele>945.0</ele><time>2026-04-19T09:54:23.998Z</time></trkpt><trkpt lat="44.92150580176127" lon="7.277753947497871"><ele>946.0</ele><time>2026-04-19T09:54:24.998Z</time></trkpt><trkpt lat="44.92142293296281" lon="7.277771958367705"><ele>947.0</ele><time>2026-04-19T09:54:56Z</time></trkpt><trkpt lat="44.921355329428124" lon="7.277776751000517"><ele>948.0</ele><time>2026-04-19T09:55:07Z</time></trkpt><trkpt lat="44.92140476634806" lon="7.277720217829478"><ele>948.0</ele><time>2026-04-19T09:55:14Z</time></trkpt><trkpt lat="44.92135718965902" lon="7.277657005736297"><ele>948.0</ele><time>2026-04-19T09:55:23.999Z</time></trkpt><trkpt lat="44.92132065467837" lon="7.277749435619787"><ele>948.0</ele><time>2026-04-19T09:55:27.999Z</time></trkpt><trkpt lat="44.92124203151912" lon="7.277770858884223"><ele>948.0</ele><time>2026-04-19T09:55:29.999Z</time></trkpt><trkpt lat="44.92114921987517" lon="7.277751043677433"><ele>948.0</ele><time>2026-04-19T09:55:31.999Z</time></trkpt><trkpt lat="44.9210569327239" lon="7.2777885884707"><ele>948.0</ele><time>2026-04-19T09:55:33.999Z</time></trkpt><trkpt lat="44.92095103987372" lon="7.2778210685238935"><ele>948.2</ele><time>2026-04-19T09:55:35.999Z</time></trkpt><trkpt lat="44.92085286849802" lon="7.277878456506919"><ele>948.4</ele><time>2026-04-19T09:55:37.999Z</time></trkpt><trkpt lat="44.92074923243323" lon="7.27789460530575"><ele>948.6000000000001</ele><time>2026-04-19T09:55:39.999Z</time></trkpt><trkpt lat="44.92065070440916" lon="7.2779818581677675"><ele>948.8000000000001</ele><time>2026-04-19T09:55:41.999Z</time></trkpt><trkpt lat="44.920569523880836" lon="7.278077319925334"><ele>949.0</ele><time>2026-04-19T09:55:43.999Z</time></trkpt><trkpt lat="44.920502912358785" lon="7.278155165599196"><ele>949.0</ele><time>2026-04-19T09:55:45.999Z</time></trkpt><trkpt lat="44.92044068584144" lon="7.278194759433711"><ele>949.0000000000001</ele><time>2026-04-19T09:55:46.999Z</time></trkpt><trkpt lat="44.92036672685326" lon="7.278253943684975"><ele>949.0000000000001</ele><time>2026-04-19T09:55:47.999Z</time></trkpt><trkpt lat="44.920282401779446" lon="7.278277158946382"><ele>949.0</ele><time>2026-04-19T09:55:48.999Z</time></trkpt><trkpt lat="44.920152508839564" lon="7.278064009353033"><ele>949.0</ele><time>2026-04-19T09:55:49.999Z</time></trkpt><trkpt lat="44.92008887993041" lon="7.278092569085869"><ele>949.9999999999999</ele><time>2026-04-19T09:55:50.999Z</time></trkpt><trkpt lat="44.91998203769658" lon="7.278140525089462"><ele>951.0</ele><time>2026-04-19T09:55:52.999Z</time></trkpt><trkpt lat="44.91990408430891" lon="7.278188010422853"><ele>952.0</ele><time>2026-04-19T09:55:54.999Z</time></trkpt><trkpt lat="44.919840025015496" lon="7.278252519043017"><ele>953.0</ele><time>2026-04-19T09:55:58.999Z</time></trkpt><trkpt lat="44.919765753181544" lon="7.278308952864717"><ele>953.9999999999999</ele><time>2026-04-19T09:56:08.999Z</time></trkpt><trkpt lat="44.91969776414884" lon="7.278359850112122"><ele>955.0</ele><time>2026-04-19T09:56:09.999Z</time></trkpt><trkpt lat="44.91963974856387" lon="7.278395968112346"><ele>954.9999999999999</ele><time>2026-04-19T09:56:10.999Z</time></trkpt><trkpt lat="44.919574270564354" lon="7.2784084662823005"><ele>955.0</ele><time>2026-04-19T09:56:11.999Z</time></trkpt><trkpt lat="44.919509727530766" lon="7.278452459707008"><ele>955.0</ele><time>2026-04-19T09:56:12.999Z</time></trkpt><trkpt lat="44.9194366136235" lon="7.27850360220265"><ele>955.0</ele><time>2026-04-19T09:56:13.999Z</time></trkpt><trkpt lat="44.919378237685315" lon="7.278537796776074"><ele>954.9999999999999</ele><time>2026-04-19T09:56:14.999Z</time></trkpt><trkpt lat="44.91927954605586" lon="7.278642592154783"><ele>955.0</ele><time>2026-04-19T09:56:16.999Z</time></trkpt><trkpt lat="44.91921755934538" lon="7.278692626138922"><ele>955.2</ele><time>2026-04-19T09:56:17.999Z</time></trkpt><trkpt lat="44.919157856221126" lon="7.278782661456684"><ele>955.4</ele><time>2026-04-19T09:56:18.999Z</time></trkpt><trkpt lat="44.91910054203868" lon="7.278889445020659"><ele>955.5999999999999</ele><time>2026-04-19T09:56:19.999Z</time></trkpt><trkpt lat="44.91905498502693" lon="7.279006503440479"><ele>955.8</ele><time>2026-04-19T09:56:20.998Z</time></trkpt><trkpt lat="44.91899688270977" lon="7.279153191204083"><ele>956.0</ele><time>2026-04-19T09:56:21.998Z</time></trkpt><trkpt lat="44.91892884406043" lon="7.279300697476974"><ele>956.0</ele><time>2026-04-19T09:56:22.998Z</time></trkpt><trkpt lat="44.91886221432642" lon="7.27944048612601"><ele>955.9999999999999</ele><time>2026-04-19T09:56:23.998Z</time></trkpt><trkpt lat="44.91880486204283" lon="7.279542877125604"><ele>955.9999999999999</ele><time>2026-04-19T09:56:24.998Z</time></trkpt><trkpt lat="44.91874394962085" lon="7.279632131644824"><ele>956.0</ele><time>2026-04-19T09:56:25.998Z</time></trkpt><trkpt lat="44.91868222796712" lon="7.279683891935256"><ele>956.0</ele><time>2026-04-19T09:56:26.998Z</time></trkpt><trkpt lat="44.918607782785436" lon="7.279818455742192"><ele>956.0</ele><time>2026-04-19T09:56:28.998Z</time></trkpt><trkpt lat="44.91855083219846" lon="7.279744750266843"><ele>955.9999999999999</ele><time>2026-04-19T09:56:29.998Z</time></trkpt><trkpt lat="44.91844469010696" lon="7.279646660212165"><ele>955.9999999999999</ele><time>2026-04-19T09:56:30.998Z</time></trkpt><trkpt lat="44.91833523569047" lon="7.279591812439634"><ele>956.0</ele><time>2026-04-19T09:56:31.998Z</time></trkpt><trkpt lat="44.91824149639149" lon="7.279482799729998"><ele>956.0</ele><time>2026-04-19T09:56:32.998Z</time></trkpt><trkpt lat="44.91815859710521" lon="7.279389848352916"><ele>956.5999999999999</ele><time>2026-04-19T09:56:33.998Z</time></trkpt><trkpt lat="44.91807654819001" lon="7.279308427169978"><ele>957.1999999999999</ele><time>2026-04-19T09:56:34.998Z</time></trkpt><trkpt lat="44.91801057869543" lon="7.279216239597791"><ele>957.8000000000001</ele><time>2026-04-19T09:56:35.998Z</time></trkpt><trkpt lat="44.91794229937411" lon="7.279138433348892"><ele>958.4000000000001</ele><time>2026-04-19T09:56:36.998Z</time></trkpt><trkpt lat="44.917892813401934" lon="7.279013279332925"><ele>959.0</ele><time>2026-04-19T09:56:37.998Z</time></trkpt><trkpt lat="44.917827043731364" lon="7.27893527548759"><ele>957.6</ele><time>2026-04-19T09:56:38.998Z</time></trkpt><trkpt lat="44.91775648154803" lon="7.278852593931555"><ele>956.2</ele><time>2026-04-19T09:56:40Z</time></trkpt><trkpt lat="44.917671276821316" lon="7.278773605792298"><ele>954.8000000000001</ele><time>2026-04-19T09:56:41Z</time></trkpt><trkpt lat="44.917564630826966" lon="7.278703681876021"><ele>953.4000000000001</ele><time>2026-04-19T09:56:42Z</time></trkpt><trkpt lat="44.9174465347252" lon="7.278662609192451"><ele>952.0</ele><time>2026-04-19T09:56:43Z</time></trkpt><trkpt lat="44.9173430083077" lon="7.278628133292088"><ele>952.0</ele><time>2026-04-19T09:56:44Z</time></trkpt><trkpt lat="44.91724409777338" lon="7.278616175713066"><ele>952.0</ele><time>2026-04-19T09:56:45Z</time></trkpt><trkpt lat="44.91714862493194" lon="7.278650120179273"><ele>952.0</ele><time>2026-04-19T09:56:46Z</time></trkpt><trkpt lat="44.91703182496805" lon="7.278702446798799"><ele>952.0</ele><time>2026-04-19T09:56:47Z</time></trkpt><trkpt lat="44.91692327245934" lon="7.278741465578859"><ele>952.0</ele><time>2026-04-19T09:56:48Z</time></trkpt><trkpt lat="44.916811741554824" lon="7.278751205055032"><ele>950.75</ele><time>2026-04-19T09:56:49Z</time></trkpt><trkpt lat="44.91668639265964" lon="7.278771484204411"><ele>949.5</ele><time>2026-04-19T09:56:50Z</time></trkpt><trkpt lat="44.91656596707829" lon="7.27878207671342"><ele>948.25</ele><time>2026-04-19T09:56:51Z</time></trkpt><trkpt lat="44.916436659172675" lon="7.278821122300591"><ele>947.0</ele><time>2026-04-19T09:56:52Z</time></trkpt><trkpt lat="44.91633667755174" lon="7.278850265950607"><ele>947.0</ele><time>2026-04-19T09:56:53Z</time></trkpt><trkpt lat="44.91621841779795" lon="7.278900118921976"><ele>947.0</ele><time>2026-04-19T09:56:54Z</time></trkpt><trkpt lat="44.9161316086181" lon="7.278939988942887"><ele>947.0</ele><time>2026-04-19T09:56:55Z</time></trkpt><trkpt lat="44.91606649743448" lon="7.278980401769083"><ele>947.0</ele><time>2026-04-19T09:56:56Z</time></trkpt><trkpt lat="44.91595517186016" lon="7.278993296427999"><ele>947.0</ele><time>2026-04-19T09:56:58Z</time></trkpt><trkpt lat="44.91587798072499" lon="7.278948907752105"><ele>946.3333333333334</ele><time>2026-04-19T09:56:59Z</time></trkpt><trkpt lat="44.91579575229173" lon="7.2789055174903075"><ele>945.6666666666667</ele><time>2026-04-19T09:57:00Z</time></trkpt><trkpt lat="44.9157170558451" lon="7.278845608274371"><ele>945.0</ele><time>2026-04-19T09:57:01Z</time></trkpt><trkpt lat="44.915631591432465" lon="7.278805107123633"><ele>944.3333333333333</ele><time>2026-04-19T09:57:02Z</time></trkpt><trkpt lat="44.915573729709344" lon="7.278738905552953"><ele>943.6666666666666</ele><time>2026-04-19T09:57:03Z</time></trkpt><trkpt lat="44.91551451716204" lon="7.278697800380835"><ele>943.0</ele><time>2026-04-19T09:57:04Z</time></trkpt><trkpt lat="44.91545663575657" lon="7.278656147050981"><ele>942.9999999999999</ele><time>2026-04-19T09:57:05Z</time></trkpt><trkpt lat="44.91539550801528" lon="7.278607124244671"><ele>943.0</ele><time>2026-04-19T09:57:06Z</time></trkpt><trkpt lat="44.915340929687765" lon="7.278558414094247"><ele>943.0</ele><time>2026-04-19T09:57:07Z</time></trkpt><trkpt lat="44.91527688194557" lon="7.278523616820547"><ele>943.0</ele><time>2026-04-19T09:57:08Z</time></trkpt><trkpt lat="44.91521903480049" lon="7.278484078769961"><ele>942.9999999999999</ele><time>2026-04-19T09:57:09Z</time></trkpt><trkpt lat="44.915160892180786" lon="7.278445864736936"><ele>943.0</ele><time>2026-04-19T09:57:10Z</time></trkpt><trkpt lat="44.91503787834718" lon="7.278374901169718"><ele>939.8</ele><time>2026-04-19T09:57:12Z</time></trkpt><trkpt lat="44.91495707347554" lon="7.278321622465157"><ele>936.5999999999999</ele><time>2026-04-19T09:57:13Z</time></trkpt><trkpt lat="44.914908047072466" lon="7.2781954585438715"><ele>933.4000000000001</ele><time>2026-04-19T09:57:14Z</time></trkpt><trkpt lat="44.91478957858835" lon="7.27820184936409"><ele>930.2</ele><time>2026-04-19T09:57:15Z</time></trkpt><trkpt lat="44.91469776691178" lon="7.278129226731785"><ele>927.0</ele><time>2026-04-19T09:57:16Z</time></trkpt><trkpt lat="44.91462451334122" lon="7.278060869940755"><ele>927.0</ele><time>2026-04-19T09:57:17Z</time></trkpt><trkpt lat="44.91455692019417" lon="7.277982233042725"><ele>927.0</ele><time>2026-04-19T09:57:18Z</time></trkpt><trkpt lat="44.91450509253267" lon="7.277901088882654"><ele>927.0</ele><time>2026-04-19T09:57:19Z</time></trkpt><trkpt lat="44.914427157144566" lon="7.277828167808173"><ele>927.0</ele><time>2026-04-19T09:57:20Z</time></trkpt><trkpt lat="44.914359519472995" lon="7.27776958304828"><ele>927.0</ele><time>2026-04-19T09:57:21Z</time></trkpt><trkpt lat="44.914298044096974" lon="7.277701353129503"><ele>927.0</ele><time>2026-04-19T09:57:22Z</time></trkpt><trkpt lat="44.914243688495255" lon="7.277652486266873"><ele>925.5714285714284</ele><time>2026-04-19T09:57:23Z</time></trkpt><trkpt lat="44.91418346288293" lon="7.277623366626762"><ele>924.1428571428571</ele><time>2026-04-19T09:57:24Z</time></trkpt><trkpt lat="44.91412587208041" lon="7.27758221157226"><ele>922.7142857142857</ele><time>2026-04-19T09:57:25Z</time></trkpt><trkpt lat="44.9140670824919" lon="7.277548595710244"><ele>921.2857142857142</ele><time>2026-04-19T09:57:26Z</time></trkpt><trkpt lat="44.91396073044705" lon="7.277545754569341"><ele>919.8571428571429</ele><time>2026-04-19T09:57:28Z</time></trkpt><trkpt lat="44.91393554206921" lon="7.277636436323471"><ele>918.4285714285714</ele><time>2026-04-19T09:57:31.999Z</time></trkpt><trkpt lat="44.9139837342223" lon="7.277712494973133"><ele>917.0</ele><time>2026-04-19T10:08:40.998Z</time></trkpt><trkpt lat="44.91393246359207" lon="7.277848632311954"><ele>917.0000000000001</ele><time>2026-04-19T10:08:52.998Z</time></trkpt><trkpt lat="44.91388300291148" lon="7.277911224270382"><ele>917.0</ele><time>2026-04-19T10:08:53.998Z</time></trkpt><trkpt lat="44.91380385411122" lon="7.277896763412561"><ele>917.0</ele><time>2026-04-19T10:08:54.998Z</time></trkpt><trkpt lat="44.913737616962855" lon="7.277899949707601"><ele>917.0</ele><time>2026-04-19T10:08:55.998Z</time></trkpt><trkpt lat="44.91365137869579" lon="7.277944474849779"><ele>917.0000000000001</ele><time>2026-04-19T10:08:56.998Z</time></trkpt><trkpt lat="44.91356559503033" lon="7.278005758306397"><ele>917.0</ele><time>2026-04-19T10:08:57.998Z</time></trkpt><trkpt lat="44.91348325990197" lon="7.278080826480926"><ele>915.8333333333334</ele><time>2026-04-19T10:08:58.998Z</time></trkpt><trkpt lat="44.91341626598978" lon="7.2781434191383525"><ele>914.6666666666667</ele><time>2026-04-19T10:08:59.998Z</time></trkpt><trkpt lat="44.913367563843885" lon="7.278202451620287"><ele>913.5</ele><time>2026-04-19T10:09:00.998Z</time></trkpt><trkpt lat="44.91328428348013" lon="7.278300449356062"><ele>912.3333333333333</ele><time>2026-04-19T10:09:02.998Z</time></trkpt><trkpt lat="44.91323366026878" lon="7.2783655438825745"><ele>911.1666666666666</ele><time>2026-04-19T10:09:03.998Z</time></trkpt><trkpt lat="44.91318611432084" lon="7.278470615055305"><ele>910.0</ele><time>2026-04-19T10:09:04.998Z</time></trkpt><trkpt lat="44.91312920529076" lon="7.278578725104599"><ele>913.2</ele><time>2026-04-19T10:09:05.998Z</time></trkpt><trkpt lat="44.913072772685034" lon="7.278687517522443"><ele>916.4</ele><time>2026-04-19T10:09:06.998Z</time></trkpt><trkpt lat="44.913010946993595" lon="7.27880407977485"><ele>919.5999999999999</ele><time>2026-04-19T10:09:07.998Z</time></trkpt><trkpt lat="44.91294654576864" lon="7.278917815244054"><ele>922.8</ele><time>2026-04-19T10:09:08.998Z</time></trkpt><trkpt lat="44.91288166435523" lon="7.279035893416571"><ele>926.0</ele><time>2026-04-19T10:09:09.998Z</time></trkpt><trkpt lat="44.91282073195596" lon="7.2791481457290415"><ele>926.0</ele><time>2026-04-19T10:09:10.998Z</time></trkpt><trkpt lat="44.91274861724962" lon="7.279271351202111"><ele>925.9999999999999</ele><time>2026-04-19T10:09:11.998Z</time></trkpt><trkpt lat="44.912668423402295" lon="7.27937955815623"><ele>925.9999999999999</ele><time>2026-04-19T10:09:12.998Z</time></trkpt><trkpt lat="44.91259510332908" lon="7.279490328963712"><ele>926.0</ele><time>2026-04-19T10:09:13.998Z</time></trkpt><trkpt lat="44.91253351509045" lon="7.279605599698883"><ele>926.0</ele><time>2026-04-19T10:09:14.998Z</time></trkpt><trkpt lat="44.912488107476086" lon="7.279737517834918"><ele>929.5999999999999</ele><time>2026-04-19T10:09:16Z</time></trkpt><trkpt lat="44.912438819990626" lon="7.279868929143619"><ele>933.1999999999999</ele><time>2026-04-19T10:09:17Z</time></trkpt><trkpt lat="44.91238641588523" lon="7.27998339639396"><ele>936.8000000000001</ele><time>2026-04-19T10:09:18Z</time></trkpt><trkpt lat="44.91230992548131" lon="7.280092646505174"><ele>940.4000000000001</ele><time>2026-04-19T10:09:20Z</time></trkpt><trkpt lat="44.912218795086886" lon="7.280067299928945"><ele>944.0</ele><time>2026-04-19T10:09:22Z</time></trkpt><trkpt lat="44.91213478236971" lon="7.279977413741305"><ele>944.0</ele><time>2026-04-19T10:09:24Z</time></trkpt><trkpt lat="44.91206131605525" lon="7.279942959239663"><ele>944.0000000000001</ele><time>2026-04-19T10:09:25Z</time></trkpt><trkpt lat="44.911964462996565" lon="7.279951926759115"><ele>944.0000000000001</ele><time>2026-04-19T10:09:26Z</time></trkpt><trkpt lat="44.911873860051735" lon="7.279925664950397"><ele>944.0</ele><time>2026-04-19T10:09:27Z</time></trkpt><trkpt lat="44.91178670518802" lon="7.279897967303222"><ele>944.0</ele><time>2026-04-19T10:09:28Z</time></trkpt><trkpt lat="44.91168914305645" lon="7.279873604698467"><ele>945.75</ele><time>2026-04-19T10:09:29Z</time></trkpt><trkpt lat="44.91158509246045" lon="7.279856661841714"><ele>947.5</ele><time>2026-04-19T10:09:30Z</time></trkpt><trkpt lat="44.91145962536399" lon="7.279842792163033"><ele>949.25</ele><time>2026-04-19T10:09:31Z</time></trkpt><trkpt lat="44.911343209977325" lon="7.279817581877114"><ele>951.0</ele><time>2026-04-19T10:09:32Z</time></trkpt><trkpt lat="44.9112365076597" lon="7.279786930095716"><ele>951.0</ele><time>2026-04-19T10:09:33Z</time></trkpt><trkpt lat="44.911126716529864" lon="7.279780704380285"><ele>951.0</ele><time>2026-04-19T10:09:34Z</time></trkpt><trkpt lat="44.91100748094157" lon="7.27980566624341"><ele>951.0</ele><time>2026-04-19T10:09:35Z</time></trkpt><trkpt lat="44.910894712821715" lon="7.279844185159722"><ele>951.0</ele><time>2026-04-19T10:09:36Z</time></trkpt><trkpt lat="44.91078763941924" lon="7.279905239052202"><ele>952.4</ele><time>2026-04-19T10:09:37Z</time></trkpt><trkpt lat="44.91069143103627" lon="7.279960662677233"><ele>953.8</ele><time>2026-04-19T10:09:38Z</time></trkpt><trkpt lat="44.91059705726749" lon="7.280044094982076"><ele>955.1999999999999</ele><time>2026-04-19T10:09:39Z</time></trkpt><trkpt lat="44.91051381177025" lon="7.280100646622311"><ele>956.5999999999999</ele><time>2026-04-19T10:09:40Z</time></trkpt><trkpt lat="44.91044366910892" lon="7.280144453839268"><ele>958.0</ele><time>2026-04-19T10:09:41Z</time></trkpt><trkpt lat="44.91037356928081" lon="7.280171329503621"><ele>958.0</ele><time>2026-04-19T10:09:42Z</time></trkpt><trkpt lat="44.9102909778486" lon="7.280159440566205"><ele>958.0</ele><time>2026-04-19T10:09:43Z</time></trkpt><trkpt lat="44.91018105554378" lon="7.2801370303566175"><ele>958.0</ele><time>2026-04-19T10:09:44Z</time></trkpt><trkpt lat="44.9100694184625" lon="7.280116400274102"><ele>958.0</ele><time>2026-04-19T10:09:45Z</time></trkpt><trkpt lat="44.9099699712062" lon="7.280147183714708"><ele>958.0</ele><time>2026-04-19T10:09:46Z</time></trkpt><trkpt lat="44.90985762364878" lon="7.280211365961248"><ele>959.2</ele><time>2026-04-19T10:09:47Z</time></trkpt><trkpt lat="44.909753697711835" lon="7.280266018655503"><ele>960.4</ele><time>2026-04-19T10:09:48Z</time></trkpt><trkpt lat="44.90963405841946" lon="7.280322941532102"><ele>961.6000000000001</ele><time>2026-04-19T10:09:49Z</time></trkpt><trkpt lat="44.90956799641581" lon="7.280334468333566"><ele>962.8000000000001</ele><time>2026-04-19T10:09:50Z</time></trkpt><trkpt lat="44.90947418873454" lon="7.280322220005814"><ele>964.0</ele><time>2026-04-19T10:09:51Z</time></trkpt><trkpt lat="44.909404208697985" lon="7.280294642840685"><ele>964.0</ele><time>2026-04-19T10:09:52Z</time></trkpt><trkpt lat="44.909310652466594" lon="7.280323899485355"><ele>964.0000000000001</ele><time>2026-04-19T10:09:53Z</time></trkpt><trkpt lat="44.90922017816791" lon="7.280352640794022"><ele>964.0000000000001</ele><time>2026-04-19T10:09:53.999Z</time></trkpt><trkpt lat="44.90914752577035" lon="7.280444158670803"><ele>964.0</ele><time>2026-04-19T10:09:54.999Z</time></trkpt><trkpt lat="44.90908373507953" lon="7.280529710517498"><ele>964.0</ele><time>2026-04-19T10:09:55.999Z</time></trkpt><trkpt lat="44.90900939650213" lon="7.28064825555609"><ele>964.25</ele><time>2026-04-19T10:09:56.999Z</time></trkpt><trkpt lat="44.908948955775436" lon="7.280758066085298"><ele>964.5</ele><time>2026-04-19T10:09:57.999Z</time></trkpt><trkpt lat="44.90889051823727" lon="7.280942622869881"><ele>964.75</ele><time>2026-04-19T10:09:58.999Z</time></trkpt><trkpt lat="44.90880523884196" lon="7.281107490986871"><ele>965.0</ele><time>2026-04-19T10:09:59.999Z</time></trkpt><trkpt lat="44.908729028148045" lon="7.281262251136817"><ele>965.0</ele><time>2026-04-19T10:10:00.999Z</time></trkpt><trkpt lat="44.908686977315064" lon="7.281407411804338"><ele>965.0</ele><time>2026-04-19T10:10:01.999Z</time></trkpt><trkpt lat="44.90863649098451" lon="7.281528467047449"><ele>965.0</ele><time>2026-04-19T10:10:02.999Z</time></trkpt><trkpt lat="44.908624286055115" lon="7.281677419490762"><ele>965.0</ele><time>2026-04-19T10:10:03.999Z</time></trkpt><trkpt lat="44.908679030238225" lon="7.281765525971599"><ele>965.0</ele><time>2026-04-19T10:10:04.999Z</time></trkpt><trkpt lat="44.90871539570871" lon="7.281891394072283"><ele>965.4</ele><time>2026-04-19T10:10:05.999Z</time></trkpt><trkpt lat="44.90875830814638" lon="7.281995211146177"><ele>965.8</ele><time>2026-04-19T10:10:06.999Z</time></trkpt><trkpt lat="44.908846898737764" lon="7.282108038434338"><ele>966.2</ele><time>2026-04-19T10:10:07.999Z</time></trkpt><trkpt lat="44.908938684006344" lon="7.282212288470967"><ele>966.6</ele><time>2026-04-19T10:10:09.999Z</time></trkpt><trkpt lat="44.90889770288721" lon="7.282311634450576"><ele>967.0</ele><time>2026-04-19T10:10:11.999Z</time></trkpt><trkpt lat="44.908785044296195" lon="7.282308788325179"><ele>967.0</ele><time>2026-04-19T10:10:13.999Z</time></trkpt><trkpt lat="44.908715087995546" lon="7.282184707601847"><ele>967.0</ele><time>2026-04-19T10:10:15.999Z</time></trkpt><trkpt lat="44.90862867549563" lon="7.2820569213939645"><ele>967.0</ele><time>2026-04-19T10:10:16.999Z</time></trkpt><trkpt lat="44.90848622562904" lon="7.2819804107760495"><ele>967.0</ele><time>2026-04-19T10:10:17.999Z</time></trkpt><trkpt lat="44.908387498830116" lon="7.28191353936621"><ele>971.25</ele><time>2026-04-19T10:10:18.999Z</time></trkpt><trkpt lat="44.90827939905088" lon="7.281867189020357"><ele>975.5</ele><time>2026-04-19T10:10:19.999Z</time></trkpt><trkpt lat="44.90818039616135" lon="7.28185115513591"><ele>979.75</ele><time>2026-04-19T10:10:20.999Z</time></trkpt><trkpt lat="44.90805976957632" lon="7.2817949947619525"><ele>984.0</ele><time>2026-04-19T10:10:21.999Z</time></trkpt><trkpt lat="44.90793111839523" lon="7.28178334275179"><ele>984.0</ele><time>2026-04-19T10:10:22.999Z</time></trkpt><trkpt lat="44.90784382425015" lon="7.281719944891278"><ele>984.0000000000001</ele><time>2026-04-19T10:10:23.999Z</time></trkpt><trkpt lat="44.9077438958223" lon="7.281631014458588"><ele>984.0000000000001</ele><time>2026-04-19T10:10:24.999Z</time></trkpt><trkpt lat="44.90765748697441" lon="7.281562902804169"><ele>984.0</ele><time>2026-04-19T10:10:25.999Z</time></trkpt><trkpt lat="44.90756293926375" lon="7.281513084101763"><ele>984.0</ele><time>2026-04-19T10:10:27.999Z</time></trkpt><trkpt lat="44.907507146889735" lon="7.281459233130814"><ele>986.8333333333334</ele><time>2026-04-19T10:10:28.999Z</time></trkpt><trkpt lat="44.90743808564253" lon="7.2813804842652035"><ele>989.6666666666667</ele><time>2026-04-19T10:10:33.999Z</time></trkpt><trkpt lat="44.907320576661085" lon="7.281297970489366"><ele>992.5</ele><time>2026-04-19T10:10:35.999Z</time></trkpt><trkpt lat="44.907257271337244" lon="7.281259141696468"><ele>995.3333333333334</ele><time>2026-04-19T10:10:36.999Z</time></trkpt><trkpt lat="44.90718807697465" lon="7.281208609127533"><ele>998.1666666666667</ele><time>2026-04-19T10:10:37.999Z</time></trkpt><trkpt lat="44.90715251673136" lon="7.2811184222071015"><ele>1001.0</ele><time>2026-04-19T10:10:38.999Z</time></trkpt><trkpt lat="44.907101461010605" lon="7.281049383798469"><ele>1001.0</ele><time>2026-04-19T10:10:39.999Z</time></trkpt><trkpt lat="44.90706042201877" lon="7.280953828063405"><ele>1001.0</ele><time>2026-04-19T10:10:41.999Z</time></trkpt><trkpt lat="44.90702484431305" lon="7.280872550561291"><ele>1001.0</ele><time>2026-04-19T10:10:44.998Z</time></trkpt><trkpt lat="44.90697484225508" lon="7.280816451984793"><ele>1001.0</ele><time>2026-04-19T10:10:46.998Z</time></trkpt><trkpt lat="44.90692667336231" lon="7.2807575025158995"><ele>1001.0</ele><time>2026-04-19T10:10:47.998Z</time></trkpt><trkpt lat="44.906890796349934" lon="7.280654571372143"><ele>1001.0</ele><time>2026-04-19T10:10:49.998Z</time></trkpt><trkpt lat="44.906827086419845" lon="7.280701631874643"><ele>1001.0</ele><time>2026-04-19T10:11:24Z</time></trkpt><trkpt lat="44.906880109918006" lon="7.28075198703055"><ele>1001.0000000000001</ele><time>2026-04-19T10:11:26Z</time></trkpt><trkpt lat="44.90691361362078" lon="7.28082881139489"><ele>1001.0</ele><time>2026-04-19T10:11:27Z</time></trkpt><trkpt lat="44.906975642812235" lon="7.280926635509079"><ele>1001.0</ele><time>2026-04-19T10:11:28Z</time></trkpt><trkpt lat="44.90704903537814" lon="7.281023440022609"><ele>1001.0</ele><time>2026-04-19T10:11:29Z</time></trkpt><trkpt lat="44.90711090034553" lon="7.281100365544944"><ele>1001.0000000000001</ele><time>2026-04-19T10:11:30Z</time></trkpt><trkpt lat="44.90716393420561" lon="7.281157252756189"><ele>1001.0</ele><time>2026-04-19T10:11:31Z</time></trkpt><trkpt lat="44.90723104560951" lon="7.2812509504905965"><ele>1001.0</ele><time>2026-04-19T10:11:33Z</time></trkpt><trkpt lat="44.907347052282276" lon="7.2813253464471535"><ele>1000.9999999999999</ele><time>2026-04-19T10:11:35Z</time></trkpt><trkpt lat="44.907412618467575" lon="7.281383005843712"><ele>1000.9999999999999</ele><time>2026-04-19T10:11:36Z</time></trkpt><trkpt lat="44.907486935613036" lon="7.281479915646332"><ele>1001.0</ele><time>2026-04-19T10:11:38Z</time></trkpt><trkpt lat="44.90746958715581" lon="7.281577576696875"><ele>1001.0</ele><time>2026-04-19T10:11:40Z</time></trkpt><trkpt lat="44.90734290821863" lon="7.28163671907676"><ele>999.1999999999999</ele><time>2026-04-19T10:11:42Z</time></trkpt><trkpt lat="44.90724455069966" lon="7.281665443053406"><ele>997.3999999999999</ele><time>2026-04-19T10:11:43Z</time></trkpt><trkpt lat="44.90715530073293" lon="7.28169975881449"><ele>995.6</ele><time>2026-04-19T10:11:44Z</time></trkpt><trkpt lat="44.907050729854355" lon="7.281751762782716"><ele>993.8</ele><time>2026-04-19T10:11:45Z</time></trkpt><trkpt lat="44.906962399128204" lon="7.28181471691703"><ele>992.0</ele><time>2026-04-19T10:11:46Z</time></trkpt><trkpt lat="44.90688558439402" lon="7.281874947130704"><ele>992.0</ele><time>2026-04-19T10:11:47Z</time></trkpt><trkpt lat="44.9067939420216" lon="7.281950099118096"><ele>992.0</ele><time>2026-04-19T10:11:48Z</time></trkpt><trkpt lat="44.90671018310404" lon="7.282020539975092"><ele>992.0</ele><time>2026-04-19T10:11:49Z</time></trkpt><trkpt lat="44.90665246258186" lon="7.282063085497186"><ele>992.0</ele><time>2026-04-19T10:11:50Z</time></trkpt><trkpt lat="44.906500539513196" lon="7.282097380967378"><ele>992.0</ele><time>2026-04-19T10:11:51.999Z</time></trkpt><trkpt lat="44.90642369580022" lon="7.282087109694156"><ele>991.6</ele><time>2026-04-19T10:11:52.999Z</time></trkpt><trkpt lat="44.90635092729884" lon="7.282024304569656"><ele>991.2</ele><time>2026-04-19T10:11:53.999Z</time></trkpt><trkpt lat="44.906268703300185" lon="7.281945481263967"><ele>990.8</ele><time>2026-04-19T10:11:54.999Z</time></trkpt><trkpt lat="44.9061748210079" lon="7.281832411205546"><ele>990.4</ele><time>2026-04-19T10:11:55.999Z</time></trkpt><trkpt lat="44.906085897366175" lon="7.2816906379191915"><ele>990.0</ele><time>2026-04-19T10:11:56.999Z</time></trkpt><trkpt lat="44.905988297155" lon="7.281578070138878"><ele>989.0</ele><time>2026-04-19T10:11:57.999Z</time></trkpt><trkpt lat="44.90589200630984" lon="7.281482452716901"><ele>988.0</ele><time>2026-04-19T10:11:58.999Z</time></trkpt><trkpt lat="44.905827066013636" lon="7.281438327921868"><ele>987.0</ele><time>2026-04-19T10:11:59.999Z</time></trkpt><trkpt lat="44.90576236680821" lon="7.2813706898062875"><ele>986.0</ele><time>2026-04-19T10:12:01.999Z</time></trkpt><trkpt lat="44.905664815524645" lon="7.281316368979003"><ele>985.0</ele><time>2026-04-19T10:12:02.999Z</time></trkpt><trkpt lat="44.905552780686456" lon="7.281194562311731"><ele>985.0</ele><time>2026-04-19T10:12:04.999Z</time></trkpt><trkpt lat="44.90551323419585" lon="7.281118733973446"><ele>985.0</ele><time>2026-04-19T10:12:05.999Z</time></trkpt><trkpt lat="44.90545901366134" lon="7.281048286995141"><ele>985.0</ele><time>2026-04-19T10:12:06.999Z</time></trkpt><trkpt lat="44.90537455748989" lon="7.281008075752345"><ele>985.0</ele><time>2026-04-19T10:12:07.999Z</time></trkpt><trkpt lat="44.90526873722039" lon="7.280972858365811"><ele>985.0</ele><time>2026-04-19T10:12:08.999Z</time></trkpt><trkpt lat="44.90515782731557" lon="7.280914869279216"><ele>981.8</ele><time>2026-04-19T10:12:09.999Z</time></trkpt><trkpt lat="44.90504088318283" lon="7.280851345034805"><ele>978.6</ele><time>2026-04-19T10:12:10.999Z</time></trkpt><trkpt lat="44.904947765007144" lon="7.280833541954106"><ele>975.4000000000001</ele><time>2026-04-19T10:12:11.999Z</time></trkpt><trkpt lat="44.90486703848282" lon="7.28079970054489"><ele>972.2</ele><time>2026-04-19T10:12:12.999Z</time></trkpt><trkpt lat="44.90479231563831" lon="7.280787628956075"><ele>969.0</ele><time>2026-04-19T10:12:13.999Z</time></trkpt><trkpt lat="44.90471181763498" lon="7.280769665999722"><ele>969.0</ele><time>2026-04-19T10:12:14.999Z</time></trkpt><trkpt lat="44.9046293984362" lon="7.280769690442961"><ele>969.0000000000001</ele><time>2026-04-19T10:12:15.999Z</time></trkpt><trkpt lat="44.9045496904606" lon="7.280741145820741"><ele>969.0000000000001</ele><time>2026-04-19T10:12:16.999Z</time></trkpt><trkpt lat="44.90446840827738" lon="7.280707308171352"><ele>969.0</ele><time>2026-04-19T10:12:17.999Z</time></trkpt><trkpt lat="44.90437046546897" lon="7.280761932290481"><ele>969.0</ele><time>2026-04-19T10:12:18.999Z</time></trkpt><trkpt lat="44.90424964818799" lon="7.280822330942739"><ele>965.25</ele><time>2026-04-19T10:12:19.999Z</time></trkpt><trkpt lat="44.90411749076369" lon="7.280822763025605"><ele>961.5</ele><time>2026-04-19T10:12:20.999Z</time></trkpt><trkpt lat="44.904015049306295" lon="7.2808704733171"><ele>957.75</ele><time>2026-04-19T10:12:21.999Z</time></trkpt><trkpt lat="44.90390888432484" lon="7.280886040550747"><ele>954.0</ele><time>2026-04-19T10:12:22.999Z</time></trkpt><trkpt lat="44.90377534180062" lon="7.2809078418689195"><ele>954.0</ele><time>2026-04-19T10:12:23.999Z</time></trkpt><trkpt lat="44.90369419288192" lon="7.280894653698974"><ele>954.0</ele><time>2026-04-19T10:12:24.999Z</time></trkpt><trkpt lat="44.90361793643898" lon="7.280927775695211"><ele>954.0</ele><time>2026-04-19T10:12:25.999Z</time></trkpt><trkpt lat="44.903528275881285" lon="7.28097971287251"><ele>954.0</ele><time>2026-04-19T10:12:27.999Z</time></trkpt><trkpt lat="44.903431894834995" lon="7.28099467341538"><ele>954.0</ele><time>2026-04-19T10:12:28.999Z</time></trkpt><trkpt lat="44.90335898006969" lon="7.280969268511684"><ele>954.0</ele><time>2026-04-19T10:12:29.999Z</time></trkpt><trkpt lat="44.90324966101729" lon="7.281041259129765"><ele>952.5</ele><time>2026-04-19T10:12:31.999Z</time></trkpt><trkpt lat="44.90320443837012" lon="7.281136673628377"><ele>951.0</ele><time>2026-04-19T10:12:32.999Z</time></trkpt><trkpt lat="44.90314459250507" lon="7.28125163618874"><ele>949.5</ele><time>2026-04-19T10:12:33.999Z</time></trkpt><trkpt lat="44.90310464338929" lon="7.281325778961041"><ele>948.0</ele><time>2026-04-19T10:12:34.999Z</time></trkpt><trkpt lat="44.90305041727486" lon="7.281433174865817"><ele>946.5</ele><time>2026-04-19T10:12:36.999Z</time></trkpt><trkpt lat="44.90299137673053" lon="7.281483986955228"><ele>945.0</ele><time>2026-04-19T10:12:37.999Z</time></trkpt><trkpt lat="44.90294002259597" lon="7.281614236977782"><ele>944.4</ele><time>2026-04-19T10:12:39.999Z</time></trkpt><trkpt lat="44.902881678458115" lon="7.2817542172775545"><ele>943.8</ele><time>2026-04-19T10:12:41.998Z</time></trkpt><trkpt lat="44.902918577252166" lon="7.281865805615423"><ele>943.2</ele><time>2026-04-19T10:12:43.998Z</time></trkpt><trkpt lat="44.90290108053611" lon="7.281997308414813"><ele>942.6</ele><time>2026-04-19T10:12:46.998Z</time></trkpt><trkpt lat="44.9029355033146" lon="7.282074560165955"><ele>942.0</ele><time>2026-04-19T10:12:47.998Z</time></trkpt><trkpt lat="44.902973857334" lon="7.282187392801361"><ele>939.2</ele><time>2026-04-19T10:12:49.998Z</time></trkpt><trkpt lat="44.90292044776105" lon="7.282295592639088"><ele>936.4000000000001</ele><time>2026-04-19T10:12:51.998Z</time></trkpt><trkpt lat="44.90282217233035" lon="7.282284629505703"><ele>933.5999999999999</ele><time>2026-04-19T10:12:53.998Z</time></trkpt><trkpt lat="44.90271675166608" lon="7.282276692998209"><ele>930.8</ele><time>2026-04-19T10:12:55.998Z</time></trkpt><trkpt lat="44.90262410423316" lon="7.282284800877382"><ele>928.0</ele><time>2026-04-19T10:12:56.998Z</time></trkpt><trkpt lat="44.90252867770325" lon="7.282289905504434"><ele>928.1666666666666</ele><time>2026-04-19T10:12:57.998Z</time></trkpt><trkpt lat="44.90243492829966" lon="7.282293362675971"><ele>928.3333333333333</ele><time>2026-04-19T10:12:58.998Z</time></trkpt><trkpt lat="44.90235886211786" lon="7.282299326980562"><ele>928.5</ele><time>2026-04-19T10:12:59.998Z</time></trkpt><trkpt lat="44.90229036678242" lon="7.282240915298822"><ele>928.6666666666667</ele><time>2026-04-19T10:13:00.998Z</time></trkpt><trkpt lat="44.90221865775184" lon="7.282181432297666"><ele>928.8333333333334</ele><time>2026-04-19T10:13:01.998Z</time></trkpt><trkpt lat="44.9021543272552" lon="7.282178185068604"><ele>929.0</ele><time>2026-04-19T10:13:02.998Z</time></trkpt><trkpt lat="44.902074583396896" lon="7.282162518001624"><ele>929.0</ele><time>2026-04-19T10:13:03.998Z</time></trkpt><trkpt lat="44.9020115373957" lon="7.2820982562071555"><ele>929.0000000000001</ele><time>2026-04-19T10:13:04.998Z</time></trkpt><trkpt lat="44.90194562762991" lon="7.282003888666555"><ele>929.0000000000001</ele><time>2026-04-19T10:13:05.998Z</time></trkpt><trkpt lat="44.90186571495732" lon="7.281934356422562"><ele>929.0</ele><time>2026-04-19T10:13:06.998Z</time></trkpt><trkpt lat="44.901801956041474" lon="7.281855185069541"><ele>929.0</ele><time>2026-04-19T10:13:07.998Z</time></trkpt><trkpt lat="44.90169010195595" lon="7.281854937785053"><ele>926.0</ele><time>2026-04-19T10:13:09.998Z</time></trkpt><trkpt lat="44.90159844291608" lon="7.281801112909435"><ele>923.0000000000001</ele><time>2026-04-19T10:13:10.998Z</time></trkpt><trkpt lat="44.901515588910904" lon="7.281803272575155"><ele>920.0000000000001</ele><time>2026-04-19T10:13:11.998Z</time></trkpt><trkpt lat="44.90142416058437" lon="7.2818445817797945"><ele>917.0</ele><time>2026-04-19T10:13:12.998Z</time></trkpt><trkpt lat="44.901320529104154" lon="7.2819026754294915"><ele>914.0</ele><time>2026-04-19T10:13:13.998Z</time></trkpt><trkpt lat="44.90123168371926" lon="7.281928678313839"><ele>914.0000000000001</ele><time>2026-04-19T10:13:14.998Z</time></trkpt><trkpt lat="44.90115743955888" lon="7.281937950036441"><ele>914.0</ele><time>2026-04-19T10:13:15.998Z</time></trkpt><trkpt lat="44.90107529584711" lon="7.28194770807533"><ele>914.0</ele><time>2026-04-19T10:13:16.998Z</time></trkpt><trkpt lat="44.90098968301301" lon="7.281937905290214"><ele>914.0</ele><time>2026-04-19T10:13:17.998Z</time></trkpt><trkpt lat="44.900881977444826" lon="7.28194460853376"><ele>914.0000000000001</ele><time>2026-04-19T10:13:19.998Z</time></trkpt><trkpt lat="44.90079767138826" lon="7.281967703722813"><ele>914.0</ele><time>2026-04-19T10:13:20.998Z</time></trkpt><trkpt lat="44.900720578004965" lon="7.282009377579912"><ele>911.6666666666667</ele><time>2026-04-19T10:13:21.998Z</time></trkpt><trkpt lat="44.90062255146447" lon="7.282046106690647"><ele>909.3333333333334</ele><time>2026-04-19T10:13:22.998Z</time></trkpt><trkpt lat="44.90056368104763" lon="7.2820861155525805"><ele>907.0</ele><time>2026-04-19T10:13:23.998Z</time></trkpt><trkpt lat="44.90049453876412" lon="7.2821025183360275"><ele>904.6666666666667</ele><time>2026-04-19T10:13:24.998Z</time></trkpt><trkpt lat="44.90040722137582" lon="7.282129414500634"><ele>902.3333333333334</ele><time>2026-04-19T10:13:25.998Z</time></trkpt><trkpt lat="44.90033761141057" lon="7.282161815822841"><ele>900.0</ele><time>2026-04-19T10:13:26.998Z</time></trkpt><trkpt lat="44.9002734671457" lon="7.282193871968364"><ele>900.0</ele><time>2026-04-19T10:13:28Z</time></trkpt><trkpt lat="44.900139084767645" lon="7.282111332377125"><ele>900.0</ele><time>2026-04-19T10:13:30Z</time></trkpt><trkpt lat="44.90007599735564" lon="7.282011669234253"><ele>900.0</ele><time>2026-04-19T10:13:31Z</time></trkpt><trkpt lat="44.90002275438865" lon="7.28193175944506"><ele>900.0</ele><time>2026-04-19T10:13:32Z</time></trkpt><trkpt lat="44.89995484755809" lon="7.281870968739865"><ele>900.0</ele><time>2026-04-19T10:13:33Z</time></trkpt><trkpt lat="44.89994118205402" lon="7.281763008060365"><ele>897.6</ele><time>2026-04-19T10:13:34Z</time></trkpt><trkpt lat="44.89986495181563" lon="7.28163606548461"><ele>895.2</ele><time>2026-04-19T10:13:36Z</time></trkpt><trkpt lat="44.89983132725543" lon="7.281498558066142"><ele>892.8</ele><time>2026-04-19T10:13:38Z</time></trkpt><trkpt lat="44.89984110526886" lon="7.281361148777519"><ele>890.4</ele><time>2026-04-19T10:13:39Z</time></trkpt><trkpt lat="44.899881563097345" lon="7.281236155888295"><ele>888.0</ele><time>2026-04-19T10:13:40Z</time></trkpt><trkpt lat="44.89992955214922" lon="7.281129888082982"><ele>888.0</ele><time>2026-04-19T10:13:41Z</time></trkpt><trkpt lat="44.89997611585625" lon="7.281000518593615"><ele>888.0</ele><time>2026-04-19T10:13:42Z</time></trkpt><trkpt lat="44.90001333773439" lon="7.2808730779053334"><ele>888.0</ele><time>2026-04-19T10:13:43Z</time></trkpt><trkpt lat="44.90005262131831" lon="7.2807353748535935"><ele>888.0</ele><time>2026-04-19T10:13:44Z</time></trkpt><trkpt lat="44.90008902741132" lon="7.28054892114186"><ele>888.0</ele><time>2026-04-19T10:13:45Z</time></trkpt><trkpt lat="44.90012959011001" lon="7.280387738473478"><ele>888.0</ele><time>2026-04-19T10:13:46Z</time></trkpt><trkpt lat="44.900159492376105" lon="7.280255155607738"><ele>888.0</ele><time>2026-04-19T10:13:47Z</time></trkpt><trkpt lat="44.90018633243274" lon="7.280124901095867"><ele>888.0</ele><time>2026-04-19T10:13:48Z</time></trkpt><trkpt lat="44.90019731170479" lon="7.279975533232309"><ele>888.0</ele><time>2026-04-19T10:13:49Z</time></trkpt><trkpt lat="44.90021929066712" lon="7.279841574513547"><ele>888.0</ele><time>2026-04-19T10:13:50Z</time></trkpt><trkpt lat="44.90024463343802" lon="7.279691618297922"><ele>885.5</ele><time>2026-04-19T10:13:51Z</time></trkpt><trkpt lat="44.90027405655985" lon="7.279548096055133"><ele>883.0</ele><time>2026-04-19T10:13:52Z</time></trkpt><trkpt lat="44.90028980356277" lon="7.279380494842939"><ele>880.5</ele><time>2026-04-19T10:13:52.999Z</time></trkpt><trkpt lat="44.900317252715155" lon="7.279229504591119"><ele>878.0</ele><time>2026-04-19T10:13:53.999Z</time></trkpt><trkpt lat="44.90036726266024" lon="7.279075307495989"><ele>878.0</ele><time>2026-04-19T10:13:54.999Z</time></trkpt><trkpt lat="44.90041120378966" lon="7.278957681764634"><ele>878.0</ele><time>2026-04-19T10:13:55.999Z</time></trkpt><trkpt lat="44.90049644389545" lon="7.278865966293047"><ele>878.0</ele><time>2026-04-19T10:13:56.999Z</time></trkpt><trkpt lat="44.90055830871622" lon="7.278787385002129"><ele>878.0</ele><time>2026-04-19T10:13:57.999Z</time></trkpt><trkpt lat="44.90063379564848" lon="7.278731246234663"><ele>878.0</ele><time>2026-04-19T10:13:59.999Z</time></trkpt><trkpt lat="44.90058203044531" lon="7.278645000465575"><ele>874.5</ele><time>2026-04-19T10:14:02.999Z</time></trkpt><trkpt lat="44.90041301310513" lon="7.278685948494557"><ele>871.0</ele><time>2026-04-19T10:14:04.999Z</time></trkpt><trkpt lat="44.900295356736514" lon="7.2787326609706"><ele>867.5</ele><time>2026-04-19T10:14:05.999Z</time></trkpt><trkpt lat="44.90016478932272" lon="7.2787672908031125"><ele>864.0</ele><time>2026-04-19T10:14:06.999Z</time></trkpt><trkpt lat="44.90005109856145" lon="7.278824196811606"><ele>863.2</ele><time>2026-04-19T10:14:07.999Z</time></trkpt><trkpt lat="44.89997078934711" lon="7.278874904157744"><ele>862.4000000000001</ele><time>2026-04-19T10:14:08.999Z</time></trkpt><trkpt lat="44.89991283249816" lon="7.278941162503005"><ele>861.6</ele><time>2026-04-19T10:14:09.999Z</time></trkpt><trkpt lat="44.8998935909447" lon="7.279045849070944"><ele>860.8</ele><time>2026-04-19T10:14:10.999Z</time></trkpt><trkpt lat="44.89983170183127" lon="7.279212346953915"><ele>860.0</ele><time>2026-04-19T10:14:11.999Z</time></trkpt><trkpt lat="44.89976049954944" lon="7.279326226800756"><ele>860.0</ele><time>2026-04-19T10:14:13.999Z</time></trkpt><trkpt lat="44.899659270014965" lon="7.279404320334528"><ele>860.0</ele><time>2026-04-19T10:14:14.999Z</time></trkpt><trkpt lat="44.89957284965568" lon="7.279448325611"><ele>860.0</ele><time>2026-04-19T10:14:15.999Z</time></trkpt><trkpt lat="44.89948103374842" lon="7.279448739253503"><ele>860.0</ele><time>2026-04-19T10:14:16.999Z</time></trkpt><trkpt lat="44.89939297993423" lon="7.279470269228705"><ele>860.0</ele><time>2026-04-19T10:14:17.999Z</time></trkpt><trkpt lat="44.89928273548068" lon="7.279417949983991"><ele>855.75</ele><time>2026-04-19T10:14:18.999Z</time></trkpt><trkpt lat="44.89916824381263" lon="7.279381957246423"><ele>851.5</ele><time>2026-04-19T10:14:19.999Z</time></trkpt><trkpt lat="44.899016655073574" lon="7.279376845428119"><ele>847.25</ele><time>2026-04-19T10:14:20.999Z</time></trkpt><trkpt lat="44.89888930473218" lon="7.2793380861761845"><ele>843.0</ele><time>2026-04-19T10:14:21.999Z</time></trkpt><trkpt lat="44.89877577673938" lon="7.279265390409056"><ele>843.0</ele><time>2026-04-19T10:14:22.999Z</time></trkpt><trkpt lat="44.89867630120307" lon="7.279227656830191"><ele>843.0</ele><time>2026-04-19T10:14:23.999Z</time></trkpt><trkpt lat="44.898589921364035" lon="7.279181691132498"><ele>843.0</ele><time>2026-04-19T10:14:24.999Z</time></trkpt><trkpt lat="44.898471825188444" lon="7.2791946874966476"><ele>843.0</ele><time>2026-04-19T10:14:25.999Z</time></trkpt><trkpt lat="44.89838492665235" lon="7.279273780375023"><ele>843.0</ele><time>2026-04-19T10:14:27.999Z</time></trkpt><trkpt lat="44.89835663738633" lon="7.279371242901748"><ele>841.5999999999999</ele><time>2026-04-19T10:14:28.999Z</time></trkpt><trkpt lat="44.89832885622521" lon="7.279535381651938"><ele>840.1999999999999</ele><time>2026-04-19T10:14:29.999Z</time></trkpt><trkpt lat="44.898330757018336" lon="7.279648497884278"><ele>838.8</ele><time>2026-04-19T10:14:30.999Z</time></trkpt><trkpt lat="44.898356305586425" lon="7.279752116057164"><ele>837.4</ele><time>2026-04-19T10:14:31.999Z</time></trkpt><trkpt lat="44.89838235361535" lon="7.279889149546825"><ele>836.0</ele><time>2026-04-19T10:14:32.999Z</time></trkpt><trkpt lat="44.89840227260492" lon="7.279993899802589"><ele>836.0</ele><time>2026-04-19T10:14:33.999Z</time></trkpt><trkpt lat="44.89840141360033" lon="7.2801364601567995"><ele>836.0</ele><time>2026-04-19T10:14:35.999Z</time></trkpt><trkpt lat="44.89835714882703" lon="7.280227133863174"><ele>836.0</ele><time>2026-04-19T10:14:36.999Z</time></trkpt><trkpt lat="44.898274176979214" lon="7.280332289826381"><ele>836.0</ele><time>2026-04-19T10:14:37.999Z</time></trkpt><trkpt lat="44.898171438320986" lon="7.280393676726058"><ele>836.0</ele><time>2026-04-19T10:14:38.999Z</time></trkpt><trkpt lat="44.89807333602525" lon="7.280461767008225"><ele>836.0</ele><time>2026-04-19T10:14:39.999Z</time></trkpt><trkpt lat="44.898029857945005" lon="7.280541422027537"><ele>836.0</ele><time>2026-04-19T10:14:40.999Z</time></trkpt><trkpt lat="44.8979698442616" lon="7.280588382516657"><ele>836.0</ele><time>2026-04-19T10:14:41.999Z</time></trkpt><trkpt lat="44.89786532105909" lon="7.280651105641151"><ele>836.0</ele><time>2026-04-19T10:14:42.999Z</time></trkpt><trkpt lat="44.897738312159674" lon="7.280728045443674"><ele>836.0</ele><time>2026-04-19T10:14:43.999Z</time></trkpt><trkpt lat="44.89763532194627" lon="7.280818875661537"><ele>832.8</ele><time>2026-04-19T10:14:44.999Z</time></trkpt><trkpt lat="44.89754544300695" lon="7.280869378118898"><ele>829.5999999999999</ele><time>2026-04-19T10:14:45.999Z</time></trkpt><trkpt lat="44.89747800634685" lon="7.280878291064238"><ele>826.4</ele><time>2026-04-19T10:14:46.999Z</time></trkpt><trkpt lat="44.89738727519786" lon="7.280894742444357"><ele>823.2</ele><time>2026-04-19T10:14:47.999Z</time></trkpt><trkpt lat="44.89726782921622" lon="7.2809199453604965"><ele>820.0</ele><time>2026-04-19T10:14:48.999Z</time></trkpt><trkpt lat="44.89719296710075" lon="7.280933661190849"><ele>820.0</ele><time>2026-04-19T10:14:49.999Z</time></trkpt><trkpt lat="44.897122619634295" lon="7.280821483975152"><ele>820.0</ele><time>2026-04-19T10:14:51.998Z</time></trkpt><trkpt lat="44.89714267945871" lon="7.280670398716083"><ele>820.0</ele><time>2026-04-19T10:14:53.998Z</time></trkpt><trkpt lat="44.89719806055032" lon="7.28058927754851"><ele>820.0</ele><time>2026-04-19T10:14:54.998Z</time></trkpt><trkpt lat="44.8972684181768" lon="7.280498323969489"><ele>820.0</ele><time>2026-04-19T10:14:55.998Z</time></trkpt><trkpt lat="44.897324137601736" lon="7.2803715107264075"><ele>817.6</ele><time>2026-04-19T10:14:56.998Z</time></trkpt><trkpt lat="44.897342888658805" lon="7.280247203715047"><ele>815.2</ele><time>2026-04-19T10:14:57.998Z</time></trkpt><trkpt lat="44.89735545708385" lon="7.280074401591271"><ele>812.8</ele><time>2026-04-19T10:14:59.998Z</time></trkpt><trkpt lat="44.89739062269296" lon="7.2799519697338"><ele>810.4</ele><time>2026-04-19T10:15:00.998Z</time></trkpt><trkpt lat="44.89742271654145" lon="7.279837382897586"><ele>808.0</ele><time>2026-04-19T10:15:01.998Z</time></trkpt><trkpt lat="44.897462301334194" lon="7.279764725944589"><ele>807.8</ele><time>2026-04-19T10:15:02.998Z</time></trkpt><trkpt lat="44.89748481764202" lon="7.279657929000589"><ele>807.5999999999999</ele><time>2026-04-19T10:15:04.998Z</time></trkpt><trkpt lat="44.89737759450273" lon="7.279624077234142"><ele>807.4000000000001</ele><time>2026-04-19T10:15:06.998Z</time></trkpt><trkpt lat="44.897288050838384" lon="7.279637630703746"><ele>807.2</ele><time>2026-04-19T10:15:07.998Z</time></trkpt><trkpt lat="44.89716826188609" lon="7.279665944607622"><ele>807.0</ele><time>2026-04-19T10:15:08.998Z</time></trkpt><trkpt lat="44.89707950119253" lon="7.279668599050025"><ele>807.0</ele><time>2026-04-19T10:15:09.998Z</time></trkpt><trkpt lat="44.89696143929508" lon="7.279712818668669"><ele>807.0</ele><time>2026-04-19T10:15:10.998Z</time></trkpt><trkpt lat="44.89687540269055" lon="7.279791411292742"><ele>807.0</ele><time>2026-04-19T10:15:11.998Z</time></trkpt><trkpt lat="44.89677745274131" lon="7.279829711735454"><ele>807.0</ele><time>2026-04-19T10:15:12.998Z</time></trkpt><trkpt lat="44.89666797616863" lon="7.2798981390405855"><ele>807.0</ele><time>2026-04-19T10:15:13.998Z</time></trkpt><trkpt lat="44.89654535305629" lon="7.279955598407859"><ele>804.4000000000001</ele><time>2026-04-19T10:15:14.998Z</time></trkpt><trkpt lat="44.89645491627288" lon="7.279989800074272"><ele>801.8000000000001</ele><time>2026-04-19T10:15:15.998Z</time></trkpt><trkpt lat="44.89638376230939" lon="7.2800238853814045"><ele>799.2</ele><time>2026-04-19T10:15:16.998Z</time></trkpt><trkpt lat="44.896317182754146" lon="7.280088396177685"><ele>796.6</ele><time>2026-04-19T10:15:17.998Z</time></trkpt><trkpt lat="44.89622787031827" lon="7.280174312957589"><ele>794.0</ele><time>2026-04-19T10:15:18.998Z</time></trkpt><trkpt lat="44.89615763832003" lon="7.280294102697816"><ele>794.0</ele><time>2026-04-19T10:15:19.998Z</time></trkpt><trkpt lat="44.896120306846875" lon="7.2803794507905275"><ele>794.0</ele><time>2026-04-19T10:15:20.998Z</time></trkpt><trkpt lat="44.89607250594431" lon="7.280484608934219"><ele>794.0</ele><time>2026-04-19T10:15:21.998Z</time></trkpt><trkpt lat="44.89601293167786" lon="7.28060946238762"><ele>794.0</ele><time>2026-04-19T10:15:22.998Z</time></trkpt><trkpt lat="44.89595440291041" lon="7.280747530489521"><ele>794.0</ele><time>2026-04-19T10:15:23.998Z</time></trkpt><trkpt lat="44.89591520124216" lon="7.28086718938827"><ele>792.6</ele><time>2026-04-19T10:15:24.998Z</time></trkpt><trkpt lat="44.89585550349083" lon="7.281009713817439"><ele>791.2</ele><time>2026-04-19T10:15:25.998Z</time></trkpt><trkpt lat="44.89580809360047" lon="7.281100806166979"><ele>789.8000000000001</ele><time>2026-04-19T10:15:26.998Z</time></trkpt><trkpt lat="44.89578269214431" lon="7.281210317587131"><ele>788.4000000000001</ele><time>2026-04-19T10:15:27.998Z</time></trkpt><trkpt lat="44.89574336749512" lon="7.281350419837139"><ele>787.0</ele><time>2026-04-19T10:15:28.998Z</time></trkpt><trkpt lat="44.89570550723344" lon="7.281471658786188"><ele>787.0</ele><time>2026-04-19T10:15:29.998Z</time></trkpt><trkpt lat="44.895667283657886" lon="7.281592971792957"><ele>787.0</ele><time>2026-04-19T10:15:30.998Z</time></trkpt><trkpt lat="44.89561625394002" lon="7.281725464542643"><ele>787.0</ele><time>2026-04-19T10:15:32.998Z</time></trkpt><trkpt lat="44.895541810533096" lon="7.281665132467763"><ele>787.0</ele><time>2026-04-19T10:15:35Z</time></trkpt><trkpt lat="44.89554616514209" lon="7.281464471317127"><ele>787.0</ele><time>2026-04-19T10:15:37Z</time></trkpt><trkpt lat="44.89554632686912" lon="7.281295546970211"><ele>785.8</ele><time>2026-04-19T10:15:38Z</time></trkpt><trkpt lat="44.89554331611599" lon="7.281128369025339"><ele>784.6</ele><time>2026-04-19T10:15:39Z</time></trkpt><trkpt lat="44.89554081243492" lon="7.280987960468789"><ele>783.4</ele><time>2026-04-19T10:15:40Z</time></trkpt><trkpt lat="44.89553930193688" lon="7.280849065485612"><ele>782.1999999999999</ele><time>2026-04-19T10:15:41Z</time></trkpt><trkpt lat="44.89551712636125" lon="7.280760440700751"><ele>781.0</ele><time>2026-04-19T10:15:42Z</time></trkpt><trkpt lat="44.89548094356243" lon="7.280673593094927"><ele>779.25</ele><time>2026-04-19T10:15:43Z</time></trkpt><trkpt lat="44.89541728454097" lon="7.280544960215961"><ele>777.5</ele><time>2026-04-19T10:15:44Z</time></trkpt><trkpt lat="44.89534557039307" lon="7.280400648115329"><ele>775.75</ele><time>2026-04-19T10:15:45Z</time></trkpt><trkpt lat="44.89528819670448" lon="7.280286999388433"><ele>774.0</ele><time>2026-04-19T10:15:46Z</time></trkpt><trkpt lat="44.89522700597849" lon="7.280097101703892"><ele>774.0</ele><time>2026-04-19T10:15:48Z</time></trkpt><trkpt lat="44.89519002120048" lon="7.279936122712862"><ele>774.0</ele><time>2026-04-19T10:15:49Z</time></trkpt><trkpt lat="44.8951608606616" lon="7.279757617535965"><ele>774.0</ele><time>2026-04-19T10:15:50Z</time></trkpt><trkpt lat="44.89514078469162" lon="7.27958159107681"><ele>774.0</ele><time>2026-04-19T10:15:51Z</time></trkpt><trkpt lat="44.8951172197906" lon="7.27944063696207"><ele>772.8000000000001</ele><time>2026-04-19T10:15:52Z</time></trkpt><trkpt lat="44.89509646311015" lon="7.279303116437882"><ele>771.6</ele><time>2026-04-19T10:15:53Z</time></trkpt><trkpt lat="44.89505340039601" lon="7.279191144975133"><ele>770.4</ele><time>2026-04-19T10:15:54Z</time></trkpt><trkpt lat="44.89497733416294" lon="7.279101887303028"><ele>769.2</ele><time>2026-04-19T10:15:55Z</time></trkpt><trkpt lat="44.89490882867896" lon="7.278993500273403"><ele>768.0</ele><time>2026-04-19T10:15:56Z</time></trkpt><trkpt lat="44.89479745455708" lon="7.278901399556906"><ele>764.8</ele><time>2026-04-19T10:15:57Z</time></trkpt><trkpt lat="44.894714254064155" lon="7.27881749522917"><ele>761.5999999999999</ele><time>2026-04-19T10:15:58Z</time></trkpt><trkpt lat="44.89464656863109" lon="7.278721970680495"><ele>758.4000000000001</ele><time>2026-04-19T10:15:59Z</time></trkpt><trkpt lat="44.894577961804785" lon="7.278619818108546"><ele>755.2</ele><time>2026-04-19T10:16:00Z</time></trkpt><trkpt lat="44.894515722098504" lon="7.278512963637072"><ele>752.0</ele><time>2026-04-19T10:16:01Z</time></trkpt><trkpt lat="44.89444916329028" lon="7.278420873652165"><ele>752.0</ele><time>2026-04-19T10:16:02Z</time></trkpt><trkpt lat="44.894396696673745" lon="7.27837139681607"><ele>752.0</ele><time>2026-04-19T10:16:03Z</time></trkpt><trkpt lat="44.89432918528206" lon="7.278340784866417"><ele>752.0</ele><time>2026-04-19T10:16:04.999Z</time></trkpt><trkpt lat="44.894267134878405" lon="7.278425278501542"><ele>752.0</ele><time>2026-04-19T10:16:08.999Z</time></trkpt><trkpt lat="44.89421616128378" lon="7.278552640013637"><ele>752.0</ele><time>2026-04-19T10:20:31Z</time></trkpt><trkpt lat="44.89418352908006" lon="7.278685548591153"><ele>752.0</ele><time>2026-04-19T10:20:32.999Z</time></trkpt><trkpt lat="44.89414510261282" lon="7.278853056565268"><ele>749.8333333333333</ele><time>2026-04-19T10:20:34.999Z</time></trkpt><trkpt lat="44.894144043377345" lon="7.27894349831122"><ele>747.6666666666666</ele><time>2026-04-19T10:20:35.999Z</time></trkpt><trkpt lat="44.89415430860146" lon="7.27912814726657"><ele>745.5</ele><time>2026-04-19T10:20:37.999Z</time></trkpt><trkpt lat="44.894162415889184" lon="7.279222590058568"><ele>743.3333333333334</ele><time>2026-04-19T10:20:38.999Z</time></trkpt><trkpt lat="44.89417851162365" lon="7.279329048090382"><ele>741.1666666666667</ele><time>2026-04-19T10:20:39.999Z</time></trkpt><trkpt lat="44.89421088544028" lon="7.279428944211901"><ele>739.0</ele><time>2026-04-19T10:20:40.999Z</time></trkpt><trkpt lat="44.89421108211749" lon="7.279529248474909"><ele>739.0</ele><time>2026-04-19T10:20:41.999Z</time></trkpt><trkpt lat="44.89421504785505" lon="7.2796290793441205"><ele>739.0</ele><time>2026-04-19T10:20:42.999Z</time></trkpt><trkpt lat="44.8942402520809" lon="7.279730297329627"><ele>739.0</ele><time>2026-04-19T10:20:43.999Z</time></trkpt><trkpt lat="44.89424575059203" lon="7.279851207477359"><ele>739.0</ele><time>2026-04-19T10:20:44.999Z</time></trkpt><trkpt lat="44.89422182662705" lon="7.280020044183938"><ele>739.0</ele><time>2026-04-19T10:20:46.999Z</time></trkpt><trkpt lat="44.89420179807379" lon="7.280163057746963"><ele>739.0</ele><time>2026-04-19T10:20:48.999Z</time></trkpt><trkpt lat="44.89412270969105" lon="7.280181836456581"><ele>739.0</ele><time>2026-04-19T10:20:50.999Z</time></trkpt><trkpt lat="44.89405802289541" lon="7.2801311067154435"><ele>739.0</ele><time>2026-04-19T10:20:51.999Z</time></trkpt><trkpt lat="44.89402426964165" lon="7.280000763039708"><ele>739.0</ele><time>2026-04-19T10:20:53.999Z</time></trkpt><trkpt lat="44.893964310861264" lon="7.279920631322935"><ele>739.0</ele><time>2026-04-19T10:20:54.999Z</time></trkpt><trkpt lat="44.89389972751411" lon="7.279832895510857"><ele>739.0</ele><time>2026-04-19T10:20:55.999Z</time></trkpt><trkpt lat="44.89382979008294" lon="7.27975828053059"><ele>739.0</ele><time>2026-04-19T10:20:56.999Z</time></trkpt><trkpt lat="44.893746981120124" lon="7.279676792564812"><ele>739.0</ele><time>2026-04-19T10:20:57.999Z</time></trkpt><trkpt lat="44.893655426447985" lon="7.279604663664254"><ele>739.0</ele><time>2026-04-19T10:20:58.999Z</time></trkpt><trkpt lat="44.89358329581776" lon="7.279541206177834"><ele>739.0</ele><time>2026-04-19T10:20:59.999Z</time></trkpt><trkpt lat="44.89350885383185" lon="7.2794912277923185"><ele>739.0</ele><time>2026-04-19T10:21:00.999Z</time></trkpt><trkpt lat="44.89344472304017" lon="7.27945394087452"><ele>739.0</ele><time>2026-04-19T10:21:01.999Z</time></trkpt><trkpt lat="44.89336794377921" lon="7.279453682831747"><ele>736.0</ele><time>2026-04-19T10:21:02.999Z</time></trkpt><trkpt lat="44.89329601534279" lon="7.279519805715186"><ele>733.0</ele><time>2026-04-19T10:21:03.999Z</time></trkpt><trkpt lat="44.893228731045596" lon="7.279617117797132"><ele>730.0</ele><time>2026-04-19T10:21:04.999Z</time></trkpt><trkpt lat="44.893157595514005" lon="7.279724991178297"><ele>727.0</ele><time>2026-04-19T10:21:05.999Z</time></trkpt><trkpt lat="44.893076559822084" lon="7.27981024323515"><ele>724.0</ele><time>2026-04-19T10:21:06.999Z</time></trkpt><trkpt lat="44.89301688583616" lon="7.279933460520035"><ele>722.4000000000001</ele><time>2026-04-19T10:21:07.999Z</time></trkpt><trkpt lat="44.89295345623371" lon="7.280027441282583"><ele>720.8</ele><time>2026-04-19T10:21:08.999Z</time></trkpt><trkpt lat="44.89287260876883" lon="7.280070208287369"><ele>719.2</ele><time>2026-04-19T10:21:09.999Z</time></trkpt><trkpt lat="44.892804973865246" lon="7.280115088262545"><ele>717.5999999999999</ele><time>2026-04-19T10:21:10.999Z</time></trkpt><trkpt lat="44.89273333114352" lon="7.280097867319335"><ele>716.0</ele><time>2026-04-19T10:21:11.999Z</time></trkpt><trkpt lat="44.89268423324972" lon="7.2798721229877685"><ele>717.5999999999999</ele><time>2026-04-19T10:21:13.999Z</time></trkpt><trkpt lat="44.892667952821014" lon="7.279746988008636"><ele>719.2</ele><time>2026-04-19T10:21:14.999Z</time></trkpt><trkpt lat="44.89269543702641" lon="7.279614272044027"><ele>720.8</ele><time>2026-04-19T10:21:15.999Z</time></trkpt><trkpt lat="44.892717582356866" lon="7.279458846172598"><ele>722.4000000000001</ele><time>2026-04-19T10:21:16.999Z</time></trkpt><trkpt lat="44.89274526997672" lon="7.279310149164316"><ele>724.0</ele><time>2026-04-19T10:21:17.999Z</time></trkpt><trkpt lat="44.89278476710411" lon="7.279145969683413"><ele>724.0</ele><time>2026-04-19T10:21:18.999Z</time></trkpt><trkpt lat="44.892797136836585" lon="7.278969608359214"><ele>724.0</ele><time>2026-04-19T10:21:19.999Z</time></trkpt><trkpt lat="44.89278507366415" lon="7.278808006530479"><ele>724.0</ele><time>2026-04-19T10:21:20.999Z</time></trkpt><trkpt lat="44.8927734400386" lon="7.278659182053656"><ele>724.0</ele><time>2026-04-19T10:21:21.999Z</time></trkpt><trkpt lat="44.89276476671738" lon="7.278507988479464"><ele>724.75</ele><time>2026-04-19T10:21:22.999Z</time></trkpt><trkpt lat="44.892734998130265" lon="7.278349480287417"><ele>725.5</ele><time>2026-04-19T10:21:23.999Z</time></trkpt><trkpt lat="44.89273786164099" lon="7.278183508413913"><ele>726.25</ele><time>2026-04-19T10:21:24.999Z</time></trkpt><trkpt lat="44.892731236701906" lon="7.278003368205835"><ele>727.0</ele><time>2026-04-19T10:21:25.999Z</time></trkpt><trkpt lat="44.892712888198204" lon="7.277849290775881"><ele>727.0</ele><time>2026-04-19T10:21:26.999Z</time></trkpt><trkpt lat="44.89272543902882" lon="7.277694979817705"><ele>727.0</ele><time>2026-04-19T10:21:27.999Z</time></trkpt><trkpt lat="44.89273811024596" lon="7.27753028437145"><ele>727.0</ele><time>2026-04-19T10:21:28.998Z</time></trkpt><trkpt lat="44.89274132053314" lon="7.277370915785016"><ele>727.0</ele><time>2026-04-19T10:21:29.998Z</time></trkpt><trkpt lat="44.8927456583447" lon="7.277209195277307"><ele>723.4000000000001</ele><time>2026-04-19T10:21:30.998Z</time></trkpt><trkpt lat="44.89274873233331" lon="7.277057935079126"><ele>719.8000000000001</ele><time>2026-04-19T10:21:31.998Z</time></trkpt><trkpt lat="44.892701294951216" lon="7.276928771795554"><ele>716.2</ele><time>2026-04-19T10:21:32.998Z</time></trkpt><trkpt lat="44.892657607455426" lon="7.276788318729167"><ele>712.6</ele><time>2026-04-19T10:21:33.998Z</time></trkpt><trkpt lat="44.8926088920891" lon="7.276649654686227"><ele>709.0</ele><time>2026-04-19T10:21:34.998Z</time></trkpt><trkpt lat="44.89258393763622" lon="7.276516813789914"><ele>703.1666666666667</ele><time>2026-04-19T10:21:35.998Z</time></trkpt><trkpt lat="44.892614765950434" lon="7.276396301015975"><ele>697.3333333333334</ele><time>2026-04-19T10:21:36.998Z</time></trkpt><trkpt lat="44.892621774755376" lon="7.276291928830597"><ele>691.5</ele><time>2026-04-19T10:21:37.998Z</time></trkpt><trkpt lat="44.89261634411375" lon="7.276191375419861"><ele>685.6666666666666</ele><time>2026-04-19T10:21:38.998Z</time></trkpt><trkpt lat="44.892569527956624" lon="7.276085718653405"><ele>679.8333333333333</ele><time>2026-04-19T10:21:40.998Z</time></trkpt><trkpt lat="44.892474288683786" lon="7.276174475613952"><ele>674.0</ele><time>2026-04-19T10:21:42.998Z</time></trkpt><trkpt lat="44.89242573899816" lon="7.276263843442365"><ele>675.0</ele><time>2026-04-19T10:21:43.998Z</time></trkpt><trkpt lat="44.892406076778826" lon="7.276382016701935"><ele>676.0</ele><time>2026-04-19T10:21:44.998Z</time></trkpt><trkpt lat="44.89238423868195" lon="7.276507204048414"><ele>677.0</ele><time>2026-04-19T10:21:45.998Z</time></trkpt><trkpt lat="44.89237248574507" lon="7.2766399580310654"><ele>678.0</ele><time>2026-04-19T10:21:46.998Z</time></trkpt><trkpt lat="44.89234204586874" lon="7.276768620610197"><ele>679.0</ele><time>2026-04-19T10:21:47.998Z</time></trkpt><trkpt lat="44.89233699754898" lon="7.276900663265886"><ele>679.0</ele><time>2026-04-19T10:21:48.998Z</time></trkpt><trkpt lat="44.89231550323145" lon="7.277034227584852"><ele>679.0</ele><time>2026-04-19T10:21:49.998Z</time></trkpt><trkpt lat="44.89229408371119" lon="7.27716852498845"><ele>679.0</ele><time>2026-04-19T10:21:50.998Z</time></trkpt><trkpt lat="44.8922809288348" lon="7.277301655372774"><ele>679.0</ele><time>2026-04-19T10:21:52Z</time></trkpt><trkpt lat="44.89228191190722" lon="7.277450630021358"><ele>679.0</ele><time>2026-04-19T10:21:53Z</time></trkpt><trkpt lat="44.89231863737805" lon="7.27761533689726"><ele>679.8000000000001</ele><time>2026-04-19T10:21:54Z</time></trkpt><trkpt lat="44.89233932426491" lon="7.2777643081312835"><ele>680.6</ele><time>2026-04-19T10:21:55Z</time></trkpt><trkpt lat="44.892349323754026" lon="7.2779175865969625"><ele>681.4</ele><time>2026-04-19T10:21:56Z</time></trkpt><trkpt lat="44.892324790702396" lon="7.278046028690169"><ele>682.2</ele><time>2026-04-19T10:21:57Z</time></trkpt><trkpt lat="44.89227275601478" lon="7.278151298533546"><ele>683.0</ele><time>2026-04-19T10:21:58Z</time></trkpt><trkpt lat="44.892229023706044" lon="7.278297456482939"><ele>683.8</ele><time>2026-04-19T10:21:59Z</time></trkpt><trkpt lat="44.892182761375224" lon="7.278444455047481"><ele>684.5999999999999</ele><time>2026-04-19T10:22:00Z</time></trkpt><trkpt lat="44.89212922306286" lon="7.278590490561275"><ele>685.4000000000001</ele><time>2026-04-19T10:22:01Z</time></trkpt><trkpt lat="44.8920695709484" lon="7.278730020068079"><ele>686.2</ele><time>2026-04-19T10:22:02Z</time></trkpt><trkpt lat="44.89201339421926" lon="7.278846221923322"><ele>687.0</ele><time>2026-04-19T10:22:03Z</time></trkpt><trkpt lat="44.891964501927525" lon="7.278934848592336"><ele>687.0</ele><time>2026-04-19T10:22:04Z</time></trkpt><trkpt lat="44.89186906450037" lon="7.279016627147476"><ele>687.0</ele><time>2026-04-19T10:22:06Z</time></trkpt><trkpt lat="44.89178713363357" lon="7.278876044232882"><ele>687.0</ele><time>2026-04-19T10:22:08Z</time></trkpt><trkpt lat="44.89180280333029" lon="7.278736503411458"><ele>687.0</ele><time>2026-04-19T10:22:09Z</time></trkpt><trkpt lat="44.89182371174353" lon="7.2786342308092635"><ele>687.0</ele><time>2026-04-19T10:22:10Z</time></trkpt><trkpt lat="44.89185154126156" lon="7.278530710745588"><ele>687.0</ele><time>2026-04-19T10:22:11Z</time></trkpt><trkpt lat="44.891903297510716" lon="7.27842372921532"><ele>687.0</ele><time>2026-04-19T10:22:12Z</time></trkpt><trkpt lat="44.89195672273266" lon="7.278312690122025"><ele>687.0</ele><time>2026-04-19T10:22:13Z</time></trkpt><trkpt lat="44.89199703349183" lon="7.278179598679586"><ele>687.0</ele><time>2026-04-19T10:22:14Z</time></trkpt><trkpt lat="44.892009320273864" lon="7.278014764142922"><ele>687.0</ele><time>2026-04-19T10:22:15Z</time></trkpt><trkpt lat="44.892010087974256" lon="7.2778617496615965"><ele>686.2</ele><time>2026-04-19T10:22:16Z</time></trkpt><trkpt lat="44.89198981129518" lon="7.277706176093524"><ele>685.4000000000001</ele><time>2026-04-19T10:22:17Z</time></trkpt><trkpt lat="44.89194782212524" lon="7.277561322251746"><ele>684.5999999999999</ele><time>2026-04-19T10:22:18Z</time></trkpt><trkpt lat="44.891870612293616" lon="7.277436996415055"><ele>683.8</ele><time>2026-04-19T10:22:19Z</time></trkpt><trkpt lat="44.89183379554974" lon="7.277329664839165"><ele>683.0</ele><time>2026-04-19T10:22:20Z</time></trkpt><trkpt lat="44.89179726704994" lon="7.277188972750903"><ele>682.2</ele><time>2026-04-19T10:22:21Z</time></trkpt><trkpt lat="44.891798968248345" lon="7.277042979134006"><ele>681.4</ele><time>2026-04-19T10:22:22Z</time></trkpt><trkpt lat="44.891786912490495" lon="7.276888464459398"><ele>680.6</ele><time>2026-04-19T10:22:23Z</time></trkpt><trkpt lat="44.8917512740798" lon="7.276734807373326"><ele>679.8000000000001</ele><time>2026-04-19T10:22:24Z</time></trkpt><trkpt lat="44.891722287049774" lon="7.276597026340888"><ele>679.0</ele><time>2026-04-19T10:22:25Z</time></trkpt><trkpt lat="44.891678695372434" lon="7.276452588023979"><ele>668.8000000000001</ele><time>2026-04-19T10:22:26Z</time></trkpt><trkpt lat="44.89162616385763" lon="7.2763261897060545"><ele>658.6</ele><time>2026-04-19T10:22:27Z</time></trkpt><trkpt lat="44.89157776041468" lon="7.276201147935891"><ele>648.4</ele><time>2026-04-19T10:22:28Z</time></trkpt><trkpt lat="44.891515247527906" lon="7.27610893122094"><ele>638.2</ele><time>2026-04-19T10:22:29Z</time></trkpt><trkpt lat="44.89146993225527" lon="7.275990474951469"><ele>628.0</ele><time>2026-04-19T10:22:29.999Z</time></trkpt><trkpt lat="44.891462751397036" lon="7.275854579062966"><ele>628.0</ele><time>2026-04-19T10:22:30.999Z</time></trkpt><trkpt lat="44.89145576378891" lon="7.275711566338613"><ele>628.0</ele><time>2026-04-19T10:22:31.999Z</time></trkpt><trkpt lat="44.891437199398496" lon="7.275581710539912"><ele>628.0</ele><time>2026-04-19T10:22:32.999Z</time></trkpt><trkpt lat="44.891429955646515" lon="7.275459600847041"><ele>628.0</ele><time>2026-04-19T10:22:33.999Z</time></trkpt><trkpt lat="44.89143379081516" lon="7.2753377502004195"><ele>628.0</ele><time>2026-04-19T10:22:34.999Z</time></trkpt><trkpt lat="44.89145837115686" lon="7.275148500366599"><ele>622.75</ele><time>2026-04-19T10:22:36.999Z</time></trkpt><trkpt lat="44.89144435627635" lon="7.275007762716401"><ele>617.5</ele><time>2026-04-19T10:22:38.999Z</time></trkpt><trkpt lat="44.89129083889917" lon="7.275074583656518"><ele>612.25</ele><time>2026-04-19T10:22:41.999Z</time></trkpt><trkpt lat="44.891250021010485" lon="7.275208858441362"><ele>607.0</ele><time>2026-04-19T10:22:42.999Z</time></trkpt><trkpt lat="44.891213834454526" lon="7.275345096170564"><ele>607.0</ele><time>2026-04-19T10:22:43.999Z</time></trkpt><trkpt lat="44.89117935816139" lon="7.275478259431722"><ele>607.0</ele><time>2026-04-19T10:22:44.999Z</time></trkpt><trkpt lat="44.891151290001815" lon="7.275614214828126"><ele>607.0</ele><time>2026-04-19T10:22:45.999Z</time></trkpt><trkpt lat="44.89113591742859" lon="7.275753584055786"><ele>607.0</ele><time>2026-04-19T10:22:46.999Z</time></trkpt><trkpt lat="44.89114500081399" lon="7.275870962479624"><ele>607.0</ele><time>2026-04-19T10:22:47.999Z</time></trkpt><trkpt lat="44.89110891778165" lon="7.275968986077158"><ele>607.0</ele><time>2026-04-19T10:22:49.999Z</time></trkpt><trkpt lat="44.89104565144619" lon="7.27592974648309"><ele>607.0</ele><time>2026-04-19T10:22:51.999Z</time></trkpt><trkpt lat="44.89106299780136" lon="7.275742645881488"><ele>607.0</ele><time>2026-04-19T10:22:52.999Z</time></trkpt><trkpt lat="44.89107017325423" lon="7.275610598744134"><ele>607.0</ele><time>2026-04-19T10:22:53.999Z</time></trkpt><trkpt lat="44.89106981475639" lon="7.275449631574656"><ele>607.0</ele><time>2026-04-19T10:22:54.999Z</time></trkpt><trkpt lat="44.891063594323825" lon="7.275302194196463"><ele>607.0</ele><time>2026-04-19T10:22:55.999Z</time></trkpt><trkpt lat="44.89105415646997" lon="7.275168812028935"><ele>607.0</ele><time>2026-04-19T10:22:56.999Z</time></trkpt><trkpt lat="44.891048219079565" lon="7.275058987690137"><ele>607.0</ele><time>2026-04-19T10:22:57.999Z</time></trkpt><trkpt lat="44.891012982684266" lon="7.274916853784127"><ele>607.0</ele><time>2026-04-19T10:22:59.999Z</time></trkpt><trkpt lat="44.89091079265949" lon="7.274922989937522"><ele>607.0</ele><time>2026-04-19T10:23:01.999Z</time></trkpt><trkpt lat="44.89089843214596" lon="7.275049762316905"><ele>603.0</ele><time>2026-04-19T10:23:02.999Z</time></trkpt><trkpt lat="44.890903304794634" lon="7.275193149366434"><ele>599.0</ele><time>2026-04-19T10:23:03.999Z</time></trkpt><trkpt lat="44.89087864928697" lon="7.275334553582367"><ele>595.0</ele><time>2026-04-19T10:23:04.999Z</time></trkpt><trkpt lat="44.89086751608435" lon="7.275494900610505"><ele>591.0</ele><time>2026-04-19T10:23:05.999Z</time></trkpt><trkpt lat="44.890830373989644" lon="7.275659109697614"><ele>587.0</ele><time>2026-04-19T10:23:06.999Z</time></trkpt><trkpt lat="44.89078262104018" lon="7.275826613512004"><ele>587.0</ele><time>2026-04-19T10:23:07.999Z</time></trkpt><trkpt lat="44.8907400090819" lon="7.275991059043422"><ele>587.0</ele><time>2026-04-19T10:23:08.999Z</time></trkpt><trkpt lat="44.890693413374734" lon="7.276163869323165"><ele>587.0</ele><time>2026-04-19T10:23:09.999Z</time></trkpt><trkpt lat="44.890675220118155" lon="7.276346094492398"><ele>587.0</ele><time>2026-04-19T10:23:10.999Z</time></trkpt><trkpt lat="44.890655787971106" lon="7.276521797238772"><ele>587.25</ele><time>2026-04-19T10:23:11.999Z</time></trkpt><trkpt lat="44.8906192397801" lon="7.276695217210746"><ele>587.5</ele><time>2026-04-19T10:23:12.999Z</time></trkpt><trkpt lat="44.890565185108436" lon="7.276861937464063"><ele>587.75</ele><time>2026-04-19T10:23:13.999Z</time></trkpt><trkpt lat="44.890504763714425" lon="7.277020448916154"><ele>588.0</ele><time>2026-04-19T10:23:14.999Z</time></trkpt><trkpt lat="44.89044544327394" lon="7.277168623655287"><ele>588.5</ele><time>2026-04-19T10:23:15.999Z</time></trkpt><trkpt lat="44.89039018873107" lon="7.277314767252455"><ele>589.0</ele><time>2026-04-19T10:23:16.999Z</time></trkpt><trkpt lat="44.89035647834529" lon="7.2774728353005536"><ele>589.5</ele><time>2026-04-19T10:23:17.999Z</time></trkpt><trkpt lat="44.8903392961963" lon="7.277634376517605"><ele>590.0</ele><time>2026-04-19T10:23:18.999Z</time></trkpt><trkpt lat="44.89032092403053" lon="7.277781582911502"><ele>590.0</ele><time>2026-04-19T10:23:19.999Z</time></trkpt><trkpt lat="44.890298347522936" lon="7.277931573750237"><ele>590.0</ele><time>2026-04-19T10:23:20.999Z</time></trkpt><trkpt lat="44.89026443708255" lon="7.278087456636637"><ele>590.0</ele><time>2026-04-19T10:23:21.999Z</time></trkpt><trkpt lat="44.8902158674156" lon="7.278247965234518"><ele>590.0</ele><time>2026-04-19T10:23:22.999Z</time></trkpt><trkpt lat="44.89013498254037" lon="7.278395300425006"><ele>581.75</ele><time>2026-04-19T10:23:23.999Z</time></trkpt><trkpt lat="44.89008266090911" lon="7.278579210052271"><ele>573.5</ele><time>2026-04-19T10:23:24.999Z</time></trkpt><trkpt lat="44.89004663250561" lon="7.278743067212466"><ele>565.25</ele><time>2026-04-19T10:23:25.999Z</time></trkpt><trkpt lat="44.89001536792909" lon="7.27889750492912"><ele>557.0</ele><time>2026-04-19T10:23:26.999Z</time></trkpt><trkpt lat="44.88999333662489" lon="7.279032721833815"><ele>557.0</ele><time>2026-04-19T10:23:27.998Z</time></trkpt><trkpt lat="44.88997554767757" lon="7.279144990803123"><ele>557.0</ele><time>2026-04-19T10:23:28.998Z</time></trkpt><trkpt lat="44.889954841606894" lon="7.279252544544036"><ele>557.0</ele><time>2026-04-19T10:23:30.998Z</time></trkpt><trkpt lat="44.8899004658039" lon="7.279066540214517"><ele>557.0</ele><time>2026-04-19T10:23:33.998Z</time></trkpt><trkpt lat="44.889911115178535" lon="7.278901066672721"><ele>557.0</ele><time>2026-04-19T10:23:34.998Z</time></trkpt><trkpt lat="44.88990152326435" lon="7.27874529866881"><ele>556.0</ele><time>2026-04-19T10:23:35.998Z</time></trkpt><trkpt lat="44.889892160334526" lon="7.278580457057769"><ele>555.0</ele><time>2026-04-19T10:23:36.998Z</time></trkpt><trkpt lat="44.88988185104629" lon="7.278411172284425"><ele>554.0</ele><time>2026-04-19T10:23:37.998Z</time></trkpt><trkpt lat="44.88985836522829" lon="7.278230621525153"><ele>553.0</ele><time>2026-04-19T10:23:38.998Z</time></trkpt><trkpt lat="44.889830832514164" lon="7.278055230477968"><ele>552.5</ele><time>2026-04-19T10:23:39.998Z</time></trkpt><trkpt lat="44.88978833495805" lon="7.277892673273019"><ele>552.0</ele><time>2026-04-19T10:23:40.998Z</time></trkpt><trkpt lat="44.889744155458324" lon="7.277737468946135"><ele>551.5</ele><time>2026-04-19T10:23:41.998Z</time></trkpt><trkpt lat="44.88970473399962" lon="7.277580953954336"><ele>551.0</ele><time>2026-04-19T10:23:42.998Z</time></trkpt><trkpt lat="44.88966806348979" lon="7.277425368226239"><ele>549.75</ele><time>2026-04-19T10:23:43.998Z</time></trkpt><trkpt lat="44.88963372816899" lon="7.277264786869949"><ele>548.5</ele><time>2026-04-19T10:23:44.998Z</time></trkpt><trkpt lat="44.88960133311431" lon="7.277093468625539"><ele>547.25</ele><time>2026-04-19T10:23:45.998Z</time></trkpt><trkpt lat="44.88956508212596" lon="7.2769120946000765"><ele>546.0</ele><time>2026-04-19T10:23:46.998Z</time></trkpt><trkpt lat="44.88953143376693" lon="7.2767275626997385"><ele>546.0</ele><time>2026-04-19T10:23:47.998Z</time></trkpt><trkpt lat="44.88950168354662" lon="7.276552083623742"><ele>546.0</ele><time>2026-04-19T10:23:48.998Z</time></trkpt><trkpt lat="44.88947107618784" lon="7.276389594489083"><ele>546.0</ele><time>2026-04-19T10:23:49.998Z</time></trkpt><trkpt lat="44.889446233718914" lon="7.276246388592936"><ele>546.0</ele><time>2026-04-19T10:23:50.998Z</time></trkpt><trkpt lat="44.889452394103415" lon="7.276107556706137"><ele>545.8</ele><time>2026-04-19T10:23:51.998Z</time></trkpt><trkpt lat="44.88948287038916" lon="7.275967539048914"><ele>545.6</ele><time>2026-04-19T10:23:52.998Z</time></trkpt><trkpt lat="44.88951210547836" lon="7.275818323350536"><ele>545.4</ele><time>2026-04-19T10:23:53.998Z</time></trkpt><trkpt lat="44.88950454846536" lon="7.275665194662896"><ele>545.2</ele><time>2026-04-19T10:23:54.998Z</time></trkpt><trkpt lat="44.88947766307783" lon="7.275497879113156"><ele>545.0</ele><time>2026-04-19T10:23:55.998Z</time></trkpt><trkpt lat="44.8894319902258" lon="7.275322660032517"><ele>544.25</ele><time>2026-04-19T10:23:56.998Z</time></trkpt><trkpt lat="44.889380846234054" lon="7.275147892574343"><ele>543.5</ele><time>2026-04-19T10:23:57.999Z</time></trkpt><trkpt lat="44.88934349017509" lon="7.27497186636046"><ele>542.75</ele><time>2026-04-19T10:23:58.999Z</time></trkpt><trkpt lat="44.88930473531843" lon="7.274803110064832"><ele>542.0</ele><time>2026-04-19T10:23:59.999Z</time></trkpt><trkpt lat="44.88926123712996" lon="7.2746360871180284"><ele>535.0</ele><time>2026-04-19T10:24:00.999Z</time></trkpt><trkpt lat="44.889221785245276" lon="7.274471152669822"><ele>528.0</ele><time>2026-04-19T10:24:01.999Z</time></trkpt><trkpt lat="44.88918633984636" lon="7.27431863516703"><ele>521.0</ele><time>2026-04-19T10:24:02.999Z</time></trkpt><trkpt lat="44.88916004154882" lon="7.274186152577249"><ele>514.0</ele><time>2026-04-19T10:24:03.999Z</time></trkpt><trkpt lat="44.88913563248089" lon="7.274073943194336"><ele>507.0</ele><time>2026-04-19T10:24:04.999Z</time></trkpt><trkpt lat="44.889099999222985" lon="7.273967103740699"><ele>505.0</ele><time>2026-04-19T10:24:05.999Z</time></trkpt><trkpt lat="44.88903787934441" lon="7.2738927666152104"><ele>503.00000000000006</ele><time>2026-04-19T10:24:06.999Z</time></trkpt><trkpt lat="44.888954249401685" lon="7.273814386884781"><ele>501.00000000000006</ele><time>2026-04-19T10:24:07.999Z</time></trkpt><trkpt lat="44.88886090811953" lon="7.273753305706351"><ele>499.0</ele><time>2026-04-19T10:24:08.999Z</time></trkpt><trkpt lat="44.88876483405477" lon="7.27369968136722"><ele>497.0</ele><time>2026-04-19T10:24:09.999Z</time></trkpt><trkpt lat="44.88866041020881" lon="7.273639195729703"><ele>496.99999999999994</ele><time>2026-04-19T10:24:10.999Z</time></trkpt><trkpt lat="44.88856613012673" lon="7.27357506853933"><ele>497.0</ele><time>2026-04-19T10:24:11.999Z</time></trkpt><trkpt lat="44.88848827640126" lon="7.2735112382184965"><ele>497.0</ele><time>2026-04-19T10:24:12.999Z</time></trkpt><trkpt lat="44.88842670242267" lon="7.273452144900058"><ele>497.0</ele><time>2026-04-19T10:24:13.999Z</time></trkpt><trkpt lat="44.888376071548386" lon="7.273397794506648"><ele>496.99999999999994</ele><time>2026-04-19T10:24:14.999Z</time></trkpt><trkpt lat="44.88831330760242" lon="7.273335514583089"><ele>497.0</ele><time>2026-04-19T10:24:16.999Z</time></trkpt><trkpt lat="44.88822545701209" lon="7.273451642806293"><ele>494.8</ele><time>2026-04-19T10:24:18.999Z</time></trkpt><trkpt lat="44.88818343519866" lon="7.273571434380349"><ele>492.6</ele><time>2026-04-19T10:24:19.999Z</time></trkpt><trkpt lat="44.88813167326397" lon="7.2737013464208"><ele>490.40000000000003</ele><time>2026-04-19T10:24:20.999Z</time></trkpt><trkpt lat="44.8881365939378" lon="7.27384829647596"><ele>488.20000000000005</ele><time>2026-04-19T10:24:21.999Z</time></trkpt><trkpt lat="44.888146325657246" lon="7.274007210309787"><ele>486.0</ele><time>2026-04-19T10:24:22.999Z</time></trkpt><trkpt lat="44.88813615402226" lon="7.274178188151629"><ele>486.0</ele><time>2026-04-19T10:24:23.999Z</time></trkpt><trkpt lat="44.888117843964075" lon="7.274333692093642"><ele>486.0</ele><time>2026-04-19T10:24:24.999Z</time></trkpt><trkpt lat="44.888082630983305" lon="7.274481129109541"><ele>486.0</ele><time>2026-04-19T10:24:25.999Z</time></trkpt><trkpt lat="44.88805232976775" lon="7.274623519170897"><ele>486.0</ele><time>2026-04-19T10:24:26.999Z</time></trkpt><trkpt lat="44.88803502645753" lon="7.274749148528182"><ele>486.0</ele><time>2026-04-19T10:24:27.999Z</time></trkpt><trkpt lat="44.88801271104402" lon="7.274861587172737"><ele>486.0</ele><time>2026-04-19T10:24:28.999Z</time></trkpt><trkpt lat="44.8879682283666" lon="7.274950586834668"><ele>486.0</ele><time>2026-04-19T10:24:29.999Z</time></trkpt><trkpt lat="44.88790493961587" lon="7.275057686645333"><ele>486.0</ele><time>2026-04-19T10:24:30.999Z</time></trkpt><trkpt lat="44.88787160773657" lon="7.275202005030896"><ele>486.0</ele><time>2026-04-19T10:24:31.999Z</time></trkpt><trkpt lat="44.88783230575772" lon="7.275351293190235"><ele>486.0</ele><time>2026-04-19T10:24:32.999Z</time></trkpt><trkpt lat="44.887795400746775" lon="7.275514665453342"><ele>486.5</ele><time>2026-04-19T10:24:33.999Z</time></trkpt><trkpt lat="44.8877540789504" lon="7.275670470245931"><ele>487.0</ele><time>2026-04-19T10:24:34.999Z</time></trkpt><trkpt lat="44.887702671133844" lon="7.275824392474346"><ele>487.5</ele><time>2026-04-19T10:24:35.999Z</time></trkpt><trkpt lat="44.887652172473125" lon="7.275990883929015"><ele>488.0</ele><time>2026-04-19T10:24:36.999Z</time></trkpt><trkpt lat="44.887601838754144" lon="7.2761675413463776"><ele>479.5</ele><time>2026-04-19T10:24:37.999Z</time></trkpt><trkpt lat="44.88754906868177" lon="7.276352140617631"><ele>471.0</ele><time>2026-04-19T10:24:38.999Z</time></trkpt><trkpt lat="44.88749611591442" lon="7.276538454530338"><ele>462.5</ele><time>2026-04-19T10:24:39.999Z</time></trkpt><trkpt lat="44.88745283513193" lon="7.2767286365117325"><ele>454.0</ele><time>2026-04-19T10:24:40.999Z</time></trkpt><trkpt lat="44.88740528501098" lon="7.27690991297437"><ele>454.0</ele><time>2026-04-19T10:24:41.999Z</time></trkpt><trkpt lat="44.887361493847415" lon="7.277090148962272"><ele>454.0</ele><time>2026-04-19T10:24:42.999Z</time></trkpt><trkpt lat="44.887307929790694" lon="7.277265751312597"><ele>454.0</ele><time>2026-04-19T10:24:43.999Z</time></trkpt><trkpt lat="44.88729356990486" lon="7.277468145677245"><ele>454.0</ele><time>2026-04-19T10:24:44.999Z</time></trkpt><trkpt lat="44.88729049626361" lon="7.277652763687547"><ele>454.25</ele><time>2026-04-19T10:24:45.999Z</time></trkpt><trkpt lat="44.88728042414339" lon="7.277824471146985"><ele>454.5</ele><time>2026-04-19T10:24:46.999Z</time></trkpt><trkpt lat="44.88724545304159" lon="7.277975193054931"><ele>454.75</ele><time>2026-04-19T10:24:47.999Z</time></trkpt><trkpt lat="44.88715224665842" lon="7.278077278950778"><ele>455.0</ele><time>2026-04-19T10:24:48.999Z</time></trkpt><trkpt lat="44.88710212169887" lon="7.278213614135142"><ele>454.25</ele><time>2026-04-19T10:24:49.999Z</time></trkpt><trkpt lat="44.8870809964857" lon="7.278373694081922"><ele>453.5</ele><time>2026-04-19T10:24:50.999Z</time></trkpt><trkpt lat="44.88706282844098" lon="7.2785303740985015"><ele>452.75</ele><time>2026-04-19T10:24:51.999Z</time></trkpt><trkpt lat="44.88706014928024" lon="7.278694913361154"><ele>452.0</ele><time>2026-04-19T10:24:52.999Z</time></trkpt><trkpt lat="44.887040952180286" lon="7.278857581045312"><ele>450.75</ele><time>2026-04-19T10:24:53.999Z</time></trkpt><trkpt lat="44.88702352104514" lon="7.2790164748126305"><ele>449.5</ele><time>2026-04-19T10:24:54.999Z</time></trkpt><trkpt lat="44.88699498423804" lon="7.279175922137026"><ele>448.25</ele><time>2026-04-19T10:24:55.999Z</time></trkpt><trkpt lat="44.88696375814193" lon="7.279330840252986"><ele>447.0</ele><time>2026-04-19T10:24:56.999Z</time></trkpt><trkpt lat="44.88692915760005" lon="7.279487517240049"><ele>447.0</ele><time>2026-04-19T10:24:57.999Z</time></trkpt><trkpt lat="44.88691601661139" lon="7.2796381309413905"><ele>447.00000000000006</ele><time>2026-04-19T10:24:58.999Z</time></trkpt><trkpt lat="44.88691174267235" lon="7.27977466170744"><ele>447.00000000000006</ele><time>2026-04-19T10:24:59.999Z</time></trkpt><trkpt lat="44.88693683362544" lon="7.279914078889255"><ele>447.0</ele><time>2026-04-19T10:25:00.999Z</time></trkpt><trkpt lat="44.88699063913001" lon="7.280050769202086"><ele>447.0</ele><time>2026-04-19T10:25:01.999Z</time></trkpt><trkpt lat="44.88705635779971" lon="7.280177398482672"><ele>445.6</ele><time>2026-04-19T10:25:02.999Z</time></trkpt><trkpt lat="44.887117981462104" lon="7.280304091193082"><ele>444.20000000000005</ele><time>2026-04-19T10:25:03.999Z</time></trkpt><trkpt lat="44.88716887778668" lon="7.280411485747587"><ele>442.8</ele><time>2026-04-19T10:25:04.999Z</time></trkpt><trkpt lat="44.88721719766591" lon="7.280512073279384"><ele>441.4</ele><time>2026-04-19T10:25:05.999Z</time></trkpt><trkpt lat="44.887272975837604" lon="7.280623545750066"><ele>440.0</ele><time>2026-04-19T10:25:06.999Z</time></trkpt><trkpt lat="44.887324744628486" lon="7.280724204436641"><ele>439.66666666666663</ele><time>2026-04-19T10:25:07.999Z</time></trkpt><trkpt lat="44.887371314442866" lon="7.280823852815249"><ele>439.3333333333333</ele><time>2026-04-19T10:25:08.999Z</time></trkpt><trkpt lat="44.887412938955435" lon="7.280931224874469"><ele>439.0</ele><time>2026-04-19T10:25:09.999Z</time></trkpt><trkpt lat="44.88746232384716" lon="7.281039845461542"><ele>438.66666666666663</ele><time>2026-04-19T10:25:10.999Z</time></trkpt><trkpt lat="44.8874935971837" lon="7.28116382565295"><ele>438.3333333333333</ele><time>2026-04-19T10:25:11.999Z</time></trkpt><trkpt lat="44.88752668211567" lon="7.28128023679876"><ele>438.0</ele><time>2026-04-19T10:25:12.999Z</time></trkpt><trkpt lat="44.887538429658946" lon="7.281398893190516"><ele>435.75</ele><time>2026-04-19T10:25:13.999Z</time></trkpt><trkpt lat="44.88755919229898" lon="7.281488091357273"><ele>433.5</ele><time>2026-04-19T10:25:14.999Z</time></trkpt><trkpt lat="44.88756979614375" lon="7.2816088960603285"><ele>431.25</ele><time>2026-04-19T10:25:16.999Z</time></trkpt><trkpt lat="44.88734559808917" lon="7.281732501016872"><ele>429.0</ele><time>2026-04-19T10:25:18.999Z</time></trkpt><trkpt lat="44.887257586952295" lon="7.281739312397948"><ele>429.0</ele><time>2026-04-19T10:25:19.999Z</time></trkpt><trkpt lat="44.887155083770594" lon="7.2817510628251325"><ele>429.0</ele><time>2026-04-19T10:25:20.999Z</time></trkpt><trkpt lat="44.887052551056314" lon="7.2817658458330285"><ele>429.0</ele><time>2026-04-19T10:25:21.999Z</time></trkpt><trkpt lat="44.88694894912839" lon="7.281797009053578"><ele>429.0</ele><time>2026-04-19T10:25:22.999Z</time></trkpt><trkpt lat="44.886854774314244" lon="7.281819653475035"><ele>429.0</ele><time>2026-04-19T10:25:23.999Z</time></trkpt><trkpt lat="44.88677871482547" lon="7.281839423959027"><ele>427.3333333333333</ele><time>2026-04-19T10:25:24.999Z</time></trkpt><trkpt lat="44.886709755388914" lon="7.281852809983992"><ele>425.66666666666663</ele><time>2026-04-19T10:25:25.999Z</time></trkpt><trkpt lat="44.886642654100015" lon="7.281857087443853"><ele>424.0</ele><time>2026-04-19T10:25:26.999Z</time></trkpt><trkpt lat="44.88655580289808" lon="7.2818724556641286"><ele>422.3333333333333</ele><time>2026-04-19T10:25:27.998Z</time></trkpt><trkpt lat="44.88646727770072" lon="7.28186590947735"><ele>420.66666666666663</ele><time>2026-04-19T10:25:28.998Z</time></trkpt><trkpt lat="44.88640025117794" lon="7.281864259044493"><ele>419.0</ele><time>2026-04-19T10:25:29.998Z</time></trkpt><trkpt lat="44.88629726292269" lon="7.281852972747512"><ele>418.99999999999994</ele><time>2026-04-19T10:25:31.998Z</time></trkpt><trkpt lat="44.886231832375515" lon="7.281839364171302"><ele>419.0</ele><time>2026-04-19T10:25:32.998Z</time></trkpt><trkpt lat="44.88615699539541" lon="7.281830886763664"><ele>419.0</ele><time>2026-04-19T10:25:33.998Z</time></trkpt><trkpt lat="44.88609202960032" lon="7.281821420055519"><ele>419.0</ele><time>2026-04-19T10:25:34.998Z</time></trkpt><trkpt lat="44.8859724817437" lon="7.281803734322084"><ele>418.99999999999994</ele><time>2026-04-19T10:25:36.998Z</time></trkpt><trkpt lat="44.885861454741324" lon="7.281790771372325"><ele>419.0</ele><time>2026-04-19T10:25:38.998Z</time></trkpt><trkpt lat="44.88578378743788" lon="7.281772020514185"><ele>417.66666666666663</ele><time>2026-04-19T10:25:40.998Z</time></trkpt><trkpt lat="44.88571713542809" lon="7.281736470839701"><ele>416.3333333333333</ele><time>2026-04-19T10:25:58.998Z</time></trkpt><trkpt lat="44.885650255204986" lon="7.281773498852142"><ele>415.0</ele><time>2026-04-19T10:26:00.998Z</time></trkpt><trkpt lat="44.88561697593293" lon="7.281879355778598"><ele>413.66666666666663</ele><time>2026-04-19T10:26:01.998Z</time></trkpt><trkpt lat="44.885596949416986" lon="7.282008317472523"><ele>412.3333333333333</ele><time>2026-04-19T10:26:02.998Z</time></trkpt><trkpt lat="44.88556835505767" lon="7.2821449375294955"><ele>411.0</ele><time>2026-04-19T10:26:03.999Z</time></trkpt><trkpt lat="44.88553707785995" lon="7.282300354912782"><ele>411.0</ele><time>2026-04-19T10:26:04.999Z</time></trkpt><trkpt lat="44.885506900385174" lon="7.282472447468954"><ele>411.0</ele><time>2026-04-19T10:26:05.999Z</time></trkpt><trkpt lat="44.885479173819704" lon="7.282656398948281"><ele>411.0</ele><time>2026-04-19T10:26:06.999Z</time></trkpt><trkpt lat="44.885463634235585" lon="7.282854417099805"><ele>411.0</ele><time>2026-04-19T10:26:07.999Z</time></trkpt><trkpt lat="44.88545257264096" lon="7.283056309477201"><ele>411.0</ele><time>2026-04-19T10:26:08.999Z</time></trkpt><trkpt lat="44.88544085277329" lon="7.283256770255737"><ele>411.0</ele><time>2026-04-19T10:26:09.999Z</time></trkpt><trkpt lat="44.88542547302914" lon="7.283450814824454"><ele>411.0</ele><time>2026-04-19T10:26:10.999Z</time></trkpt><trkpt lat="44.885408707761385" lon="7.283645105789031"><ele>411.0</ele><time>2026-04-19T10:26:11.999Z</time></trkpt><trkpt lat="44.88539440899581" lon="7.283829960333184"><ele>411.25</ele><time>2026-04-19T10:26:12.999Z</time></trkpt><trkpt lat="44.88538785227103" lon="7.284001038006447"><ele>411.5</ele><time>2026-04-19T10:26:13.999Z</time></trkpt><trkpt lat="44.8853825999706" lon="7.284170016081868"><ele>411.75</ele><time>2026-04-19T10:26:14.999Z</time></trkpt><trkpt lat="44.885368400220045" lon="7.284343932336581"><ele>412.0</ele><time>2026-04-19T10:26:15.999Z</time></trkpt><trkpt lat="44.885357323748465" lon="7.284516804925788"><ele>412.0</ele><time>2026-04-19T10:26:16.999Z</time></trkpt><trkpt lat="44.88534827093564" lon="7.284694454569632"><ele>412.0</ele><time>2026-04-19T10:26:17.999Z</time></trkpt><trkpt lat="44.88533788584782" lon="7.284869072343108"><ele>412.0</ele><time>2026-04-19T10:26:18.999Z</time></trkpt><trkpt lat="44.8853278032936" lon="7.28502988716779"><ele>412.0</ele><time>2026-04-19T10:26:19.999Z</time></trkpt><trkpt lat="44.885317730970264" lon="7.285188431706797"><ele>411.5</ele><time>2026-04-19T10:26:20.999Z</time></trkpt><trkpt lat="44.88530560416533" lon="7.285342336228754"><ele>411.0</ele><time>2026-04-19T10:26:21.999Z</time></trkpt><trkpt lat="44.88529516965115" lon="7.285502901141465"><ele>410.5</ele><time>2026-04-19T10:26:22.999Z</time></trkpt><trkpt lat="44.88529204522228" lon="7.285670979899501"><ele>410.0</ele><time>2026-04-19T10:26:23.999Z</time></trkpt><trkpt lat="44.88529496488445" lon="7.285853944841242"><ele>410.0</ele><time>2026-04-19T10:26:24.999Z</time></trkpt><trkpt lat="44.88527698537818" lon="7.286053192843592"><ele>410.0</ele><time>2026-04-19T10:26:25.999Z</time></trkpt><trkpt lat="44.88528224585309" lon="7.286282245606958"><ele>410.0</ele><time>2026-04-19T10:26:26.999Z</time></trkpt><trkpt lat="44.885300348942806" lon="7.286523081030233"><ele>410.5</ele><time>2026-04-19T10:26:27.999Z</time></trkpt><trkpt lat="44.88532107885902" lon="7.286744475475055"><ele>411.0</ele><time>2026-04-19T10:26:28.999Z</time></trkpt><trkpt lat="44.8853588015642" lon="7.286946515604394"><ele>411.5</ele><time>2026-04-19T10:26:29.999Z</time></trkpt><trkpt lat="44.88537914951429" lon="7.287141243720511"><ele>412.0</ele><time>2026-04-19T10:26:30.999Z</time></trkpt><trkpt lat="44.88540070307318" lon="7.287316563880572"><ele>412.20000000000005</ele><time>2026-04-19T10:26:31.999Z</time></trkpt><trkpt lat="44.88542314266554" lon="7.287481589308956"><ele>412.4</ele><time>2026-04-19T10:26:32.999Z</time></trkpt><trkpt lat="44.885434407963515" lon="7.287626155509592"><ele>412.6</ele><time>2026-04-19T10:26:33.999Z</time></trkpt><trkpt lat="44.88543417616373" lon="7.287758079772396"><ele>412.79999999999995</ele><time>2026-04-19T10:26:34.999Z</time></trkpt><trkpt lat="44.885417804979724" lon="7.28787437436443"><ele>413.0</ele><time>2026-04-19T10:26:35.999Z</time></trkpt><trkpt lat="44.88538389464087" lon="7.287982054208851"><ele>412.79999999999995</ele><time>2026-04-19T10:26:36.999Z</time></trkpt><trkpt lat="44.885356328305924" lon="7.288101226421974"><ele>412.6</ele><time>2026-04-19T10:26:37.999Z</time></trkpt><trkpt lat="44.88536124605854" lon="7.288233386173348"><ele>412.4</ele><time>2026-04-19T10:26:38.999Z</time></trkpt><trkpt lat="44.88539079082933" lon="7.288367821360149"><ele>412.20000000000005</ele><time>2026-04-19T10:26:39.999Z</time></trkpt><trkpt lat="44.88541841450806" lon="7.288511466945077"><ele>412.0</ele><time>2026-04-19T10:26:40.999Z</time></trkpt><trkpt lat="44.8854308422333" lon="7.2886716734552275"><ele>412.0</ele><time>2026-04-19T10:26:41.999Z</time></trkpt><trkpt lat="44.88543363523038" lon="7.288836253075126"><ele>412.0</ele><time>2026-04-19T10:26:42.999Z</time></trkpt><trkpt lat="44.88542335704547" lon="7.288990074200635"><ele>412.0</ele><time>2026-04-19T10:26:43.999Z</time></trkpt><trkpt lat="44.88541066936016" lon="7.2891304402171"><ele>412.0</ele><time>2026-04-19T10:26:44.999Z</time></trkpt><trkpt lat="44.88540403694584" lon="7.2892750091011465"><ele>412.0</ele><time>2026-04-19T10:26:45.999Z</time></trkpt><trkpt lat="44.88539456876782" lon="7.289416534254514"><ele>411.5</ele><time>2026-04-19T10:26:46.999Z</time></trkpt><trkpt lat="44.88538948732758" lon="7.2895683810703105"><ele>411.0</ele><time>2026-04-19T10:26:47.999Z</time></trkpt><trkpt lat="44.885392063216194" lon="7.28974304732062"><ele>410.5</ele><time>2026-04-19T10:26:48.999Z</time></trkpt><trkpt lat="44.88536657369679" lon="7.289938980432478"><ele>410.0</ele><time>2026-04-19T10:26:49.999Z</time></trkpt><trkpt lat="44.88535353535827" lon="7.290155987852873"><ele>410.0</ele><time>2026-04-19T10:26:50.999Z</time></trkpt><trkpt lat="44.88533992343677" lon="7.290386158212058"><ele>410.0</ele><time>2026-04-19T10:26:51.999Z</time></trkpt><trkpt lat="44.885325940049185" lon="7.290627231871885"><ele>410.0</ele><time>2026-04-19T10:26:52.999Z</time></trkpt><trkpt lat="44.88532630218019" lon="7.290871532644267"><ele>409.3333333333333</ele><time>2026-04-19T10:26:53.999Z</time></trkpt><trkpt lat="44.88531215834623" lon="7.291117417285619"><ele>408.66666666666663</ele><time>2026-04-19T10:26:54.999Z</time></trkpt><trkpt lat="44.88528056652016" lon="7.291363167305251"><ele>408.0</ele><time>2026-04-19T10:26:55.999Z</time></trkpt><trkpt lat="44.88526468526252" lon="7.291618837182994"><ele>407.66666666666663</ele><time>2026-04-19T10:26:56.999Z</time></trkpt><trkpt lat="44.885262668455184" lon="7.291874925471668"><ele>407.3333333333333</ele><time>2026-04-19T10:26:57.999Z</time></trkpt><trkpt lat="44.88524939017876" lon="7.292115129308319"><ele>407.0</ele><time>2026-04-19T10:26:58.999Z</time></trkpt><trkpt lat="44.88524581062898" lon="7.292349996464522"><ele>407.0</ele><time>2026-04-19T10:26:59.999Z</time></trkpt><trkpt lat="44.88525690277342" lon="7.292578304452434"><ele>407.0</ele><time>2026-04-19T10:27:00.999Z</time></trkpt><trkpt lat="44.885288429256306" lon="7.292808765132124"><ele>407.0</ele><time>2026-04-19T10:27:01.999Z</time></trkpt><trkpt lat="44.88532758270652" lon="7.293032876942382"><ele>407.3333333333333</ele><time>2026-04-19T10:27:02.999Z</time></trkpt><trkpt lat="44.88536759431801" lon="7.293267242058893"><ele>407.66666666666663</ele><time>2026-04-19T10:27:03.999Z</time></trkpt><trkpt lat="44.885411677084825" lon="7.293494840926952"><ele>408.0</ele><time>2026-04-19T10:27:04.999Z</time></trkpt><trkpt lat="44.88545558715834" lon="7.293716622348067"><ele>408.33333333333337</ele><time>2026-04-19T10:27:05.999Z</time></trkpt><trkpt lat="44.88550004284442" lon="7.293942702139866"><ele>408.6666666666667</ele><time>2026-04-19T10:27:06.999Z</time></trkpt><trkpt lat="44.88554191182526" lon="7.294168105021813"><ele>409.0</ele><time>2026-04-19T10:27:07.999Z</time></trkpt><trkpt lat="44.8855826365238" lon="7.294386449462346"><ele>409.0</ele><time>2026-04-19T10:27:08.999Z</time></trkpt><trkpt lat="44.88561512484987" lon="7.294609679242289"><ele>409.0</ele><time>2026-04-19T10:27:09.999Z</time></trkpt><trkpt lat="44.88563564128769" lon="7.29483385589653"><ele>409.0</ele><time>2026-04-19T10:27:10.999Z</time></trkpt><trkpt lat="44.8856485989461" lon="7.295049455770031"><ele>408.25</ele><time>2026-04-19T10:27:11.999Z</time></trkpt><trkpt lat="44.885654866772065" lon="7.295244824802679"><ele>407.5</ele><time>2026-04-19T10:27:12.999Z</time></trkpt><trkpt lat="44.88564855350465" lon="7.29542808636456"><ele>406.75</ele><time>2026-04-19T10:27:13.999Z</time></trkpt><trkpt lat="44.885637966895146" lon="7.295597017720805"><ele>406.0</ele><time>2026-04-19T10:27:14.999Z</time></trkpt><trkpt lat="44.88560941690788" lon="7.295761341149092"><ele>406.0</ele><time>2026-04-19T10:27:15.999Z</time></trkpt><trkpt lat="44.88556680916614" lon="7.295915714522596"><ele>406.0</ele><time>2026-04-19T10:27:16.999Z</time></trkpt><trkpt lat="44.88550311514931" lon="7.296048992343463"><ele>406.0</ele><time>2026-04-19T10:27:17.999Z</time></trkpt><trkpt lat="44.88548476289505" lon="7.296166057890236"><ele>406.0</ele><time>2026-04-19T10:27:18.999Z</time></trkpt><trkpt lat="44.885484823712076" lon="7.296273839541"><ele>406.0</ele><time>2026-04-19T10:27:19.999Z</time></trkpt><trkpt lat="44.88554763612605" lon="7.296354258597125"><ele>406.0</ele><time>2026-04-19T10:27:20.999Z</time></trkpt><trkpt lat="44.8856188590652" lon="7.296399567530234"><ele>406.0</ele><time>2026-04-19T10:27:21.999Z</time></trkpt><trkpt lat="44.88568316920458" lon="7.296451532477424"><ele>406.0</ele><time>2026-04-19T10:27:22.999Z</time></trkpt><trkpt lat="44.88571952710292" lon="7.29657281356979"><ele>406.0</ele><time>2026-04-19T10:27:23.999Z</time></trkpt><trkpt lat="44.88567934362499" lon="7.296749074986651"><ele>406.0</ele><time>2026-04-19T10:27:24.999Z</time></trkpt><trkpt lat="44.88567830992849" lon="7.2969300866243385"><ele>406.5</ele><time>2026-04-19T10:27:25.999Z</time></trkpt><trkpt lat="44.885691013494906" lon="7.297129881683712"><ele>407.0</ele><time>2026-04-19T10:27:26.999Z</time></trkpt><trkpt lat="44.88569222817334" lon="7.297330335357766"><ele>407.5</ele><time>2026-04-19T10:27:27.999Z</time></trkpt><trkpt lat="44.88568064109492" lon="7.297527098966819"><ele>408.0</ele><time>2026-04-19T10:27:28.999Z</time></trkpt><trkpt lat="44.88568566430493" lon="7.297717063275721"><ele>408.25</ele><time>2026-04-19T10:27:29.999Z</time></trkpt><trkpt lat="44.88571168180312" lon="7.2978865573616405"><ele>408.5</ele><time>2026-04-19T10:27:30.999Z</time></trkpt><trkpt lat="44.88572139276425" lon="7.298046189678963"><ele>408.75</ele><time>2026-04-19T10:27:31.999Z</time></trkpt><trkpt lat="44.88573230765897" lon="7.298196305241481"><ele>409.0</ele><time>2026-04-19T10:27:32.999Z</time></trkpt><trkpt lat="44.885728436286946" lon="7.298371108321178"><ele>409.0</ele><time>2026-04-19T10:27:33.999Z</time></trkpt><trkpt lat="44.88570680350453" lon="7.298547412109785"><ele>409.0</ele><time>2026-04-19T10:27:34.999Z</time></trkpt><trkpt lat="44.88569034891607" lon="7.298724133500374"><ele>409.0</ele><time>2026-04-19T10:27:35.999Z</time></trkpt><trkpt lat="44.88566573149491" lon="7.298902923991635"><ele>409.0</ele><time>2026-04-19T10:27:36.999Z</time></trkpt><trkpt lat="44.88565959769991" lon="7.29909641363602"><ele>408.5</ele><time>2026-04-19T10:27:37.999Z</time></trkpt><trkpt lat="44.885647263385536" lon="7.299291586204765"><ele>408.0</ele><time>2026-04-19T10:27:38.999Z</time></trkpt><trkpt lat="44.885616224276745" lon="7.299482367787104"><ele>407.5</ele><time>2026-04-19T10:27:39.999Z</time></trkpt><trkpt lat="44.88559769778915" lon="7.299695461486584"><ele>407.0</ele><time>2026-04-19T10:27:40.999Z</time></trkpt><trkpt lat="44.88560464759139" lon="7.299914223909307"><ele>406.66666666666663</ele><time>2026-04-19T10:27:41.999Z</time></trkpt><trkpt lat="44.88559521820342" lon="7.30013490133628"><ele>406.33333333333337</ele><time>2026-04-19T10:27:42.998Z</time></trkpt><trkpt lat="44.88557378247651" lon="7.300344311688098"><ele>406.0</ele><time>2026-04-19T10:27:43.998Z</time></trkpt><trkpt lat="44.885568874968016" lon="7.300565374541459"><ele>405.6666666666667</ele><time>2026-04-19T10:27:44.998Z</time></trkpt><trkpt lat="44.88557959538555" lon="7.300782130455901"><ele>405.33333333333337</ele><time>2026-04-19T10:27:45.998Z</time></trkpt><trkpt lat="44.8855645189469" lon="7.301004457575651"><ele>405.0</ele><time>2026-04-19T10:27:46.998Z</time></trkpt><trkpt lat="44.88555212384541" lon="7.301231555080535"><ele>404.33333333333337</ele><time>2026-04-19T10:27:47.998Z</time></trkpt><trkpt lat="44.88554661246508" lon="7.30146567513027"><ele>403.6666666666667</ele><time>2026-04-19T10:27:48.998Z</time></trkpt><trkpt lat="44.88554478844714" lon="7.301696917943869"><ele>403.0</ele><time>2026-04-19T10:27:49.998Z</time></trkpt><trkpt lat="44.88553870797872" lon="7.301934766708766"><ele>403.0</ele><time>2026-04-19T10:27:50.998Z</time></trkpt><trkpt lat="44.88553531533679" lon="7.302162437117895"><ele>403.0</ele><time>2026-04-19T10:27:51.998Z</time></trkpt><trkpt lat="44.885510130031214" lon="7.30237521215672"><ele>403.0</ele><time>2026-04-19T10:27:52.998Z</time></trkpt><trkpt lat="44.88550202976655" lon="7.3025739610526275"><ele>402.5</ele><time>2026-04-19T10:27:53.998Z</time></trkpt><trkpt lat="44.88550937740183" lon="7.302759837850612"><ele>402.0</ele><time>2026-04-19T10:27:54.998Z</time></trkpt><trkpt lat="44.885499020110416" lon="7.302936684810267"><ele>401.5</ele><time>2026-04-19T10:27:55.998Z</time></trkpt><trkpt lat="44.8854924696619" lon="7.303101933867401"><ele>401.0</ele><time>2026-04-19T10:27:56.998Z</time></trkpt><trkpt lat="44.8854833358706" lon="7.303261352484679"><ele>400.8</ele><time>2026-04-19T10:27:57.998Z</time></trkpt><trkpt lat="44.88545131565017" lon="7.303408401882193"><ele>400.6</ele><time>2026-04-19T10:27:58.998Z</time></trkpt><trkpt lat="44.885432187049595" lon="7.303561465009881"><ele>400.4</ele><time>2026-04-19T10:27:59.998Z</time></trkpt><trkpt lat="44.885432333466966" lon="7.303710196348883"><ele>400.2</ele><time>2026-04-19T10:28:00.998Z</time></trkpt><trkpt lat="44.88544099351514" lon="7.303853875264084"><ele>400.0</ele><time>2026-04-19T10:28:01.998Z</time></trkpt><trkpt lat="44.885484955838656" lon="7.3040130074576615"><ele>400.0</ele><time>2026-04-19T10:28:02.998Z</time></trkpt><trkpt lat="44.88554727157653" lon="7.304177866710285"><ele>400.0</ele><time>2026-04-19T10:28:03.998Z</time></trkpt><trkpt lat="44.88561573709945" lon="7.304342879799388"><ele>400.0</ele><time>2026-04-19T10:28:04.998Z</time></trkpt><trkpt lat="44.885686167269235" lon="7.304509113776969"><ele>400.0</ele><time>2026-04-19T10:28:05.998Z</time></trkpt><trkpt lat="44.885754298682464" lon="7.304669841764607"><ele>400.25</ele><time>2026-04-19T10:28:06.998Z</time></trkpt><trkpt lat="44.88582445445878" lon="7.304837128448382"><ele>400.5</ele><time>2026-04-19T10:28:07.998Z</time></trkpt><trkpt lat="44.88589002129758" lon="7.304997554506035"><ele>400.75</ele><time>2026-04-19T10:28:08.998Z</time></trkpt><trkpt lat="44.88595107864683" lon="7.305164914409355"><ele>401.0</ele><time>2026-04-19T10:28:09.999Z</time></trkpt><trkpt lat="44.88598638832756" lon="7.305335859334488"><ele>401.0</ele><time>2026-04-19T10:28:10.999Z</time></trkpt><trkpt lat="44.88601470427923" lon="7.305518010755808"><ele>401.0</ele><time>2026-04-19T10:28:11.999Z</time></trkpt><trkpt lat="44.886039941311466" lon="7.305685272550602"><ele>401.0</ele><time>2026-04-19T10:28:12.999Z</time></trkpt><trkpt lat="44.886080724999275" lon="7.305865949278207"><ele>401.0</ele><time>2026-04-19T10:28:13.999Z</time></trkpt><trkpt lat="44.88609821131232" lon="7.30604097596655"><ele>401.0</ele><time>2026-04-19T10:28:14.999Z</time></trkpt><trkpt lat="44.88610392876667" lon="7.306202032468709"><ele>401.0</ele><time>2026-04-19T10:28:15.999Z</time></trkpt><trkpt lat="44.88613511525556" lon="7.306353922329097"><ele>401.0</ele><time>2026-04-19T10:28:16.999Z</time></trkpt><trkpt lat="44.886146183265645" lon="7.306494489031164"><ele>401.0</ele><time>2026-04-19T10:28:17.999Z</time></trkpt><trkpt lat="44.88614976282007" lon="7.306642383269968"><ele>401.0</ele><time>2026-04-19T10:28:18.999Z</time></trkpt><trkpt lat="44.88614432960667" lon="7.306798970671533"><ele>401.0</ele><time>2026-04-19T10:28:19.999Z</time></trkpt><trkpt lat="44.88612457853188" lon="7.306960213420786"><ele>401.0</ele><time>2026-04-19T10:28:20.999Z</time></trkpt><trkpt lat="44.886095847503825" lon="7.307135157808865"><ele>401.0</ele><time>2026-04-19T10:28:21.999Z</time></trkpt><trkpt lat="44.88607662338911" lon="7.307324935825889"><ele>401.0</ele><time>2026-04-19T10:28:22.999Z</time></trkpt><trkpt lat="44.886061352880105" lon="7.307523829465954"><ele>400.66666666666663</ele><time>2026-04-19T10:28:23.999Z</time></trkpt><trkpt lat="44.88605276914519" lon="7.307729988911122"><ele>400.33333333333337</ele><time>2026-04-19T10:28:24.999Z</time></trkpt><trkpt lat="44.88603521385103" lon="7.307943469867053"><ele>400.0</ele><time>2026-04-19T10:28:25.999Z</time></trkpt><trkpt lat="44.88601832305327" lon="7.308160665640755"><ele>400.0</ele><time>2026-04-19T10:28:26.999Z</time></trkpt><trkpt lat="44.88600221733198" lon="7.308379961496705"><ele>400.0</ele><time>2026-04-19T10:28:27.999Z</time></trkpt><trkpt lat="44.8859866089231" lon="7.308600793763877"><ele>400.0</ele><time>2026-04-19T10:28:28.999Z</time></trkpt><trkpt lat="44.88597281415731" lon="7.308815576647177"><ele>399.5</ele><time>2026-04-19T10:28:29.999Z</time></trkpt><trkpt lat="44.8859613926675" lon="7.3090191870347105"><ele>399.0</ele><time>2026-04-19T10:28:30.999Z</time></trkpt><trkpt lat="44.885937897323544" lon="7.309233196547135"><ele>398.5</ele><time>2026-04-19T10:28:31.999Z</time></trkpt><trkpt lat="44.88592803933487" lon="7.309441727527546"><ele>398.0</ele><time>2026-04-19T10:28:32.999Z</time></trkpt><trkpt lat="44.885912956614696" lon="7.309650014107159"><ele>396.75</ele><time>2026-04-19T10:28:33.999Z</time></trkpt><trkpt lat="44.885899822674226" lon="7.309853550040423"><ele>395.5</ele><time>2026-04-19T10:28:34.999Z</time></trkpt><trkpt lat="44.8858882323239" lon="7.310040502319694"><ele>394.25</ele><time>2026-04-19T10:28:35.999Z</time></trkpt><trkpt lat="44.88586451230815" lon="7.310218957088507"><ele>393.0</ele><time>2026-04-19T10:28:36.999Z</time></trkpt><trkpt lat="44.88586520499079" lon="7.310380639357818"><ele>393.0</ele><time>2026-04-19T10:28:37.999Z</time></trkpt><trkpt lat="44.88585855163426" lon="7.31054575345215"><ele>393.0</ele><time>2026-04-19T10:28:38.999Z</time></trkpt><trkpt lat="44.88584309247558" lon="7.3107312234640105"><ele>393.0</ele><time>2026-04-19T10:28:39.999Z</time></trkpt><trkpt lat="44.88582982115524" lon="7.3109273420754715"><ele>393.0</ele><time>2026-04-19T10:28:40.999Z</time></trkpt><trkpt lat="44.88581797367818" lon="7.311121734127536"><ele>393.0</ele><time>2026-04-19T10:28:41.999Z</time></trkpt><trkpt lat="44.8857900549903" lon="7.311297637188808"><ele>393.0</ele><time>2026-04-19T10:28:42.999Z</time></trkpt><trkpt lat="44.88578202058133" lon="7.311452288130062"><ele>393.0</ele><time>2026-04-19T10:28:43.999Z</time></trkpt><trkpt lat="44.88577720275659" lon="7.311561595000836"><ele>393.0</ele><time>2026-04-19T10:28:44.999Z</time></trkpt><trkpt lat="44.88573414710635" lon="7.3117067604102095"><ele>393.0</ele><time>2026-04-19T10:28:46.999Z</time></trkpt><trkpt lat="44.88562855408925" lon="7.311797165396728"><ele>392.8333333333333</ele><time>2026-04-19T10:28:48.999Z</time></trkpt><trkpt lat="44.8856363710267" lon="7.311959492174038"><ele>392.66666666666663</ele><time>2026-04-19T10:28:50.999Z</time></trkpt><trkpt lat="44.88566075686729" lon="7.312047224298713"><ele>392.5</ele><time>2026-04-19T10:28:51.999Z</time></trkpt><trkpt lat="44.88571256276291" lon="7.312123791330218"><ele>392.3333333333333</ele><time>2026-04-19T10:28:52.999Z</time></trkpt><trkpt lat="44.88573141838274" lon="7.312229856204254"><ele>392.16666666666663</ele><time>2026-04-19T10:28:53.999Z</time></trkpt><trkpt lat="44.88571485377784" lon="7.312350572691381"><ele>392.0</ele><time>2026-04-19T10:28:54.999Z</time></trkpt><trkpt lat="44.88569991171534" lon="7.312481518794777"><ele>391.6</ele><time>2026-04-19T10:28:55.999Z</time></trkpt><trkpt lat="44.885690378512045" lon="7.312621854507276"><ele>391.20000000000005</ele><time>2026-04-19T10:28:56.999Z</time></trkpt><trkpt lat="44.8856912720808" lon="7.312778712088153"><ele>390.8</ele><time>2026-04-19T10:28:57.999Z</time></trkpt><trkpt lat="44.88568773070895" lon="7.312932947746522"><ele>390.4</ele><time>2026-04-19T10:28:58.999Z</time></trkpt><trkpt lat="44.88567553111316" lon="7.31308150956508"><ele>390.0</ele><time>2026-04-19T10:28:59.999Z</time></trkpt><trkpt lat="44.885675340022" lon="7.31323875254369"><ele>390.0</ele><time>2026-04-19T10:29:00.999Z</time></trkpt><trkpt lat="44.8856683235427" lon="7.313404484465569"><ele>390.0</ele><time>2026-04-19T10:29:01.999Z</time></trkpt><trkpt lat="44.88566565530434" lon="7.313565496795001"><ele>390.0</ele><time>2026-04-19T10:29:02.999Z</time></trkpt><trkpt lat="44.885663334884185" lon="7.313714756237029"><ele>390.0</ele><time>2026-04-19T10:29:03.999Z</time></trkpt><trkpt lat="44.88565058395906" lon="7.313847636823775"><ele>390.0</ele><time>2026-04-19T10:29:04.999Z</time></trkpt><trkpt lat="44.885652158593224" lon="7.3139676362885995"><ele>389.8333333333333</ele><time>2026-04-19T10:29:05.999Z</time></trkpt><trkpt lat="44.885648319491374" lon="7.314071451371186"><ele>389.66666666666663</ele><time>2026-04-19T10:29:06.999Z</time></trkpt><trkpt lat="44.88564765580139" lon="7.314171779056324"><ele>389.5</ele><time>2026-04-19T10:29:07.999Z</time></trkpt><trkpt lat="44.88564688866548" lon="7.314260879383209"><ele>389.3333333333333</ele><time>2026-04-19T10:29:08.999Z</time></trkpt><trkpt lat="44.88564058283529" lon="7.314395153965887"><ele>389.16666666666663</ele><time>2026-04-19T10:29:10.999Z</time></trkpt><trkpt lat="44.88562805473459" lon="7.314511428828552"><ele>389.0</ele><time>2026-04-19T10:30:07.999Z</time></trkpt><trkpt lat="44.88563152123402" lon="7.314686193434156"><ele>388.79999999999995</ele><time>2026-04-19T10:30:09.999Z</time></trkpt><trkpt lat="44.88563306536505" lon="7.314809179522541"><ele>388.59999999999997</ele><time>2026-04-19T10:30:10.999Z</time></trkpt><trkpt lat="44.88563265182571" lon="7.314938321718794"><ele>388.4</ele><time>2026-04-19T10:30:11.999Z</time></trkpt><trkpt lat="44.88563230376412" lon="7.3150795863509295"><ele>388.2</ele><time>2026-04-19T10:30:12.998Z</time></trkpt><trkpt lat="44.885630099656865" lon="7.315219479759578"><ele>388.0</ele><time>2026-04-19T10:30:13.998Z</time></trkpt><trkpt lat="44.88562850045093" lon="7.315346353447124"><ele>388.0</ele><time>2026-04-19T10:30:14.998Z</time></trkpt><trkpt lat="44.885626434141855" lon="7.3154825737182625"><ele>388.0</ele><time>2026-04-19T10:30:16Z</time></trkpt><trkpt lat="44.88562361706112" lon="7.315619142814793"><ele>388.0</ele><time>2026-04-19T10:30:17Z</time></trkpt><trkpt lat="44.88562351123982" lon="7.315759151365353"><ele>388.0</ele><time>2026-04-19T10:30:18Z</time></trkpt><trkpt lat="44.885621826162065" lon="7.31590610192591"><ele>388.0</ele><time>2026-04-19T10:30:19Z</time></trkpt><trkpt lat="44.885621267988036" lon="7.316046212873607"><ele>388.0</ele><time>2026-04-19T10:30:20Z</time></trkpt><trkpt lat="44.88560355752165" lon="7.3161916507177365"><ele>388.0</ele><time>2026-04-19T10:30:21Z</time></trkpt><trkpt lat="44.885600293168345" lon="7.316343683450976"><ele>388.0</ele><time>2026-04-19T10:30:22Z</time></trkpt><trkpt lat="44.885597009586405" lon="7.316502228594854"><ele>388.0</ele><time>2026-04-19T10:30:23Z</time></trkpt><trkpt lat="44.885593600659014" lon="7.316666825977301"><ele>388.0</ele><time>2026-04-19T10:30:24Z</time></trkpt><trkpt lat="44.885589256346115" lon="7.3168330638827115"><ele>388.0</ele><time>2026-04-19T10:30:25Z</time></trkpt><trkpt lat="44.88558389274811" lon="7.317000385085059"><ele>388.0</ele><time>2026-04-19T10:30:26Z</time></trkpt><trkpt lat="44.88557848828177" lon="7.317168949759985"><ele>388.0</ele><time>2026-04-19T10:30:27Z</time></trkpt><trkpt lat="44.88558956662904" lon="7.317337265971043"><ele>388.0</ele><time>2026-04-19T10:30:28Z</time></trkpt><trkpt lat="44.88558214889392" lon="7.31750296928065"><ele>387.25</ele><time>2026-04-19T10:30:29Z</time></trkpt><trkpt lat="44.88557618010309" lon="7.317671273141206"><ele>386.5</ele><time>2026-04-19T10:30:30Z</time></trkpt><trkpt lat="44.88557069386582" lon="7.31783748791551"><ele>385.75</ele><time>2026-04-19T10:30:31Z</time></trkpt><trkpt lat="44.88556628008942" lon="7.317998556127341"><ele>385.0</ele><time>2026-04-19T10:30:32Z</time></trkpt><trkpt lat="44.885557041531364" lon="7.3181561598317275"><ele>385.0</ele><time>2026-04-19T10:30:33Z</time></trkpt><trkpt lat="44.88555022359187" lon="7.318318770816085"><ele>385.0</ele><time>2026-04-19T10:30:34Z</time></trkpt><trkpt lat="44.885545321120674" lon="7.318479139464912"><ele>385.0</ele><time>2026-04-19T10:30:35Z</time></trkpt><trkpt lat="44.88553827211132" lon="7.318642016941078"><ele>385.0</ele><time>2026-04-19T10:30:36Z</time></trkpt><trkpt lat="44.88552955486239" lon="7.318804098701234"><ele>385.6</ele><time>2026-04-19T10:30:37Z</time></trkpt><trkpt lat="44.8855261857681" lon="7.318963854747763"><ele>386.2</ele><time>2026-04-19T10:30:38Z</time></trkpt><trkpt lat="44.88552230635976" lon="7.319126332283488"><ele>386.79999999999995</ele><time>2026-04-19T10:30:39Z</time></trkpt><trkpt lat="44.88551986407004" lon="7.319278012970998"><ele>387.4</ele><time>2026-04-19T10:30:40Z</time></trkpt><trkpt lat="44.885517908866134" lon="7.3194171861304005"><ele>388.0</ele><time>2026-04-19T10:30:41Z</time></trkpt><trkpt lat="44.88551606308896" lon="7.319532199580805"><ele>388.0</ele><time>2026-04-19T10:30:42Z</time></trkpt><trkpt lat="44.88551355348971" lon="7.3196228396539444"><ele>388.0</ele><time>2026-04-19T10:30:43Z</time></trkpt><trkpt lat="44.88550843897647" lon="7.319731408931862"><ele>388.0</ele><time>2026-04-19T10:30:45Z</time></trkpt><trkpt lat="44.88550529674458" lon="7.319844966462112"><ele>388.0</ele><time>2026-04-19T10:31:22.999Z</time></trkpt><trkpt lat="44.8854586792811" lon="7.319975338334188"><ele>388.0</ele><time>2026-04-19T10:31:24.999Z</time></trkpt><trkpt lat="44.88532983799894" lon="7.319952876318304"><ele>388.2</ele><time>2026-04-19T10:31:26.999Z</time></trkpt><trkpt lat="44.885246625028344" lon="7.319951293771027"><ele>388.4</ele><time>2026-04-19T10:31:27.999Z</time></trkpt><trkpt lat="44.885160171435196" lon="7.319964354590924"><ele>388.59999999999997</ele><time>2026-04-19T10:31:28.999Z</time></trkpt><trkpt lat="44.88505234913821" lon="7.319939136404158"><ele>388.79999999999995</ele><time>2026-04-19T10:31:29.999Z</time></trkpt><trkpt lat="44.88494197877317" lon="7.3199322296646745"><ele>389.0</ele><time>2026-04-19T10:31:30.999Z</time></trkpt><trkpt lat="44.88483565370286" lon="7.3199258039494985"><ele>387.75</ele><time>2026-04-19T10:31:31.999Z</time></trkpt><trkpt lat="44.884718709608684" lon="7.319938655777266"><ele>386.5</ele><time>2026-04-19T10:31:32.999Z</time></trkpt><trkpt lat="44.884587192396914" lon="7.319926480207774"><ele>385.25</ele><time>2026-04-19T10:31:33.999Z</time></trkpt><trkpt lat="44.88445085656345" lon="7.319913019786277"><ele>384.0</ele><time>2026-04-19T10:31:34.999Z</time></trkpt><trkpt lat="44.88430569606943" lon="7.319899378831577"><ele>383.75</ele><time>2026-04-19T10:31:35.999Z</time></trkpt><trkpt lat="44.884160667988766" lon="7.319887620878213"><ele>383.5</ele><time>2026-04-19T10:31:36.999Z</time></trkpt><trkpt lat="44.88402814842691" lon="7.319882172218926"><ele>383.25</ele><time>2026-04-19T10:31:37.999Z</time></trkpt><trkpt lat="44.88390812920254" lon="7.319870296676753"><ele>383.0</ele><time>2026-04-19T10:31:38.999Z</time></trkpt><trkpt lat="44.88379997185962" lon="7.319861943001053"><ele>383.0</ele><time>2026-04-19T10:31:39.999Z</time></trkpt><trkpt lat="44.88370758129663" lon="7.319857586970242"><ele>383.0</ele><time>2026-04-19T10:31:40.999Z</time></trkpt><trkpt lat="44.883631721098304" lon="7.3198461756828355"><ele>383.0</ele><time>2026-04-19T10:31:41.999Z</time></trkpt><trkpt lat="44.88351843789503" lon="7.319837338673376"><ele>383.0</ele><time>2026-04-19T10:31:43.999Z</time></trkpt><trkpt lat="44.88344729266071" lon="7.319821114332089"><ele>383.0</ele><time>2026-04-19T10:31:45.999Z</time></trkpt><trkpt lat="44.883370370902" lon="7.3197926295196005"><ele>383.0</ele><time>2026-04-19T10:31:56.999Z</time></trkpt><trkpt lat="44.883541966640855" lon="7.3195171162041985"><ele>382.59999999999997</ele><time>2026-04-19T10:32:00.999Z</time></trkpt><trkpt lat="44.88361244717115" lon="7.319414486766998"><ele>382.2</ele><time>2026-04-19T10:32:01.999Z</time></trkpt><trkpt lat="44.883700291497725" lon="7.3193156445467356"><ele>381.8</ele><time>2026-04-19T10:32:02.999Z</time></trkpt><trkpt lat="44.88377340099467" lon="7.31920131965419"><ele>381.4</ele><time>2026-04-19T10:32:03.999Z</time></trkpt><trkpt lat="44.88384695873956" lon="7.319101164092592"><ele>381.0</ele><time>2026-04-19T10:32:04.999Z</time></trkpt><trkpt lat="44.88391045425291" lon="7.319001990626976"><ele>381.0</ele><time>2026-04-19T10:32:05.999Z</time></trkpt><trkpt lat="44.88396498364188" lon="7.318913339106033"><ele>381.0</ele><time>2026-04-19T10:32:06.999Z</time></trkpt><trkpt lat="44.88401955074195" lon="7.318852511034081"><ele>381.0</ele><time>2026-04-19T10:32:07.999Z</time></trkpt><trkpt lat="44.884084660914596" lon="7.318756941522271"><ele>381.0</ele><time>2026-04-19T10:32:09.999Z</time></trkpt><trkpt lat="44.88403705675972" lon="7.31866009379164"><ele>381.0</ele><time>2026-04-19T10:32:11.999Z</time></trkpt><trkpt lat="44.88398861609151" lon="7.31856364716045"><ele>381.0</ele><time>2026-04-19T10:32:14.999Z</time></trkpt><trkpt lat="44.88391891602182" lon="7.318486791120438"><ele>381.1666666666667</ele><time>2026-04-19T10:32:17.999Z</time></trkpt><trkpt lat="44.88385683808162" lon="7.318407086609043"><ele>381.3333333333333</ele><time>2026-04-19T10:32:19.999Z</time></trkpt><trkpt lat="44.88378433809843" lon="7.318376931804761"><ele>381.5</ele><time>2026-04-19T10:32:21.999Z</time></trkpt><trkpt lat="44.883710210557474" lon="7.318440587664481"><ele>381.66666666666663</ele><time>2026-04-19T10:32:23.999Z</time></trkpt><trkpt lat="44.88371675885562" lon="7.318547419352581"><ele>381.8333333333333</ele><time>2026-04-19T10:32:26.999Z</time></trkpt><trkpt lat="44.8837314445994" lon="7.3186610412247495"><ele>382.0</ele><time>2026-04-19T10:32:40.999Z</time></trkpt><trkpt lat="44.88384364962497" lon="7.318718107226325"><ele>382.0</ele><time>2026-04-19T10:32:41.999Z</time></trkpt><trkpt lat="44.88392394520526" lon="7.318815376344895"><ele>382.0</ele><time>2026-04-19T10:32:43.999Z</time></trkpt><trkpt lat="44.88406906855519" lon="7.31875449966451"><ele>382.0</ele><time>2026-04-19T10:32:46.999Z</time></trkpt><trkpt lat="44.88413454783342" lon="7.318646627358249"><ele>382.0</ele><time>2026-04-19T10:32:47.999Z</time></trkpt><trkpt lat="44.8841906977709" lon="7.318558310668253"><ele>382.0</ele><time>2026-04-19T10:32:48.999Z</time></trkpt><trkpt lat="44.88423564391523" lon="7.318494728587458"><ele>382.0</ele><time>2026-04-19T10:32:49.999Z</time></trkpt><trkpt lat="44.88429060536512" lon="7.318405208289653"><ele>382.0</ele><time>2026-04-19T10:32:51.999Z</time></trkpt><trkpt lat="44.884287884886035" lon="7.318263589769873"><ele>382.0</ele><time>2026-04-19T10:32:54.999Z</time></trkpt><trkpt lat="44.884208188097446" lon="7.318181932641531"><ele>382.0</ele><time>2026-04-19T10:32:55.999Z</time></trkpt><trkpt lat="44.88411844093492" lon="7.318113423951626"><ele>382.0</ele><time>2026-04-19T10:32:56.999Z</time></trkpt><trkpt lat="44.88401173789795" lon="7.318025096822298"><ele>382.25</ele><time>2026-04-19T10:32:57.999Z</time></trkpt><trkpt lat="44.883892055379974" lon="7.317915207461097"><ele>382.5</ele><time>2026-04-19T10:32:58.999Z</time></trkpt><trkpt lat="44.883772007532755" lon="7.317800571881898"><ele>382.75</ele><time>2026-04-19T10:32:59.999Z</time></trkpt><trkpt lat="44.88364970385603" lon="7.3176817495740165"><ele>383.0</ele><time>2026-04-19T10:33:00.999Z</time></trkpt><trkpt lat="44.883524019737706" lon="7.317567362766931"><ele>383.0</ele><time>2026-04-19T10:33:01.999Z</time></trkpt><trkpt lat="44.883395216743935" lon="7.317455464028263"><ele>383.0</ele><time>2026-04-19T10:33:02.999Z</time></trkpt><trkpt lat="44.88326396593946" lon="7.3173359371876945"><ele>383.0</ele><time>2026-04-19T10:33:03.999Z</time></trkpt><trkpt lat="44.883138734424605" lon="7.317216790902854"><ele>383.0</ele><time>2026-04-19T10:33:04.999Z</time></trkpt><trkpt lat="44.88301541739059" lon="7.317095976511445"><ele>383.0</ele><time>2026-04-19T10:33:05.999Z</time></trkpt><trkpt lat="44.88290186928257" lon="7.316990269475325"><ele>383.0</ele><time>2026-04-19T10:33:06.999Z</time></trkpt><trkpt lat="44.882796439879435" lon="7.316896224452503"><ele>383.0</ele><time>2026-04-19T10:33:07.999Z</time></trkpt><trkpt lat="44.882702839537394" lon="7.316807157693257"><ele>383.0</ele><time>2026-04-19T10:33:08.999Z</time></trkpt><trkpt lat="44.88261902123875" lon="7.316712996664145"><ele>383.0</ele><time>2026-04-19T10:33:09.999Z</time></trkpt><trkpt lat="44.88254934930581" lon="7.316625216752591"><ele>383.0</ele><time>2026-04-19T10:33:10.999Z</time></trkpt><trkpt lat="44.882484872204586" lon="7.316574552436134"><ele>383.0</ele><time>2026-04-19T10:33:11.999Z</time></trkpt><trkpt lat="44.88245135879849" lon="7.316448990782628"><ele>383.0</ele><time>2026-04-19T10:33:12.999Z</time></trkpt><trkpt lat="44.88229693986835" lon="7.31656643909556"><ele>382.75</ele><time>2026-04-19T10:33:13.999Z</time></trkpt><trkpt lat="44.88224444448031" lon="7.31664052575679"><ele>382.5</ele><time>2026-04-19T10:33:14.999Z</time></trkpt><trkpt lat="44.88228950166025" lon="7.316841605254933"><ele>382.25</ele><time>2026-04-19T10:33:15.999Z</time></trkpt><trkpt lat="44.88226704822019" lon="7.316955653264425"><ele>382.0</ele><time>2026-04-19T10:33:17.999Z</time></trkpt><trkpt lat="44.88213205954022" lon="7.3167259497179655"><ele>382.0</ele><time>2026-04-19T10:33:20.999Z</time></trkpt><trkpt lat="44.88212425807042" lon="7.316619000981421"><ele>382.0</ele><time>2026-04-19T10:33:21.999Z</time></trkpt><trkpt lat="44.88209632019316" lon="7.316533714664803"><ele>382.0</ele><time>2026-04-19T10:33:22.999Z</time></trkpt><trkpt lat="44.88212725898035" lon="7.316246694244046"><ele>382.0</ele><time>2026-04-19T10:33:24.999Z</time></trkpt><trkpt lat="44.88205721378468" lon="7.316181624274492"><ele>382.0</ele><time>2026-04-19T10:34:29.02Z</time></trkpt><trkpt lat="44.88199802511155" lon="7.316126639693437"><ele>382.0</ele><time>2026-04-19T10:34:33.015Z</time></trkpt><trkpt lat="44.88188825373697" lon="7.316636513547329"><ele>382.0</ele><time>2026-04-19T10:34:53.249Z</time></trkpt><trkpt lat="44.88193610101274" lon="7.316700340190231"><ele>382.0</ele><time>2026-04-19T10:35:03.422Z</time></trkpt><trkpt lat="44.8819083895307" lon="7.316789638222926"><ele>382.0</ele><time>2026-04-19T10:36:59.999Z</time></trkpt><trkpt lat="44.881849773787245" lon="7.316844405165772"><ele>382.0</ele><time>2026-04-19T10:37:05.001Z</time></trkpt><trkpt lat="44.88186152083952" lon="7.316947668489479"><ele>382.0</ele><time>2026-04-19T10:37:15.001Z</time></trkpt></trkseg><trkseg><trkpt lat="44.88084816578302" lon="7.31522829520522"><ele>385.0</ele><time>2026-04-19T10:57:35.998Z</time></trkpt><trkpt lat="44.880752287573344" lon="7.315159507932595"><ele>385.0</ele><time>2026-04-19T10:57:36.998Z</time></trkpt><trkpt lat="44.88066355155739" lon="7.315083579300265"><ele>385.0</ele><time>2026-04-19T10:57:37.998Z</time></trkpt><trkpt lat="44.88061427572008" lon="7.314983282893209"><ele>385.0</ele><time>2026-04-19T10:57:38.998Z</time></trkpt><trkpt lat="44.88056415243797" lon="7.3149053707458345"><ele>385.0</ele><time>2026-04-19T10:57:39.998Z</time></trkpt><trkpt lat="44.880554757433195" lon="7.314795568389143"><ele>385.0</ele><time>2026-04-19T10:57:40.998Z</time></trkpt><trkpt lat="44.8806005960317" lon="7.314689100368056"><ele>385.0</ele><time>2026-04-19T10:57:42.998Z</time></trkpt><trkpt lat="44.88066581373616" lon="7.314632222083089"><ele>385.0</ele><time>2026-04-19T10:57:43.998Z</time></trkpt><trkpt lat="44.88076206286426" lon="7.314612796939191"><ele>385.0</ele><time>2026-04-19T10:57:44.998Z</time></trkpt><trkpt lat="44.880867107782485" lon="7.314613573343807"><ele>385.0</ele><time>2026-04-19T10:57:45.998Z</time></trkpt><trkpt lat="44.88098645377249" lon="7.314612917550638"><ele>385.0</ele><time>2026-04-19T10:57:46.998Z</time></trkpt><trkpt lat="44.88110499126624" lon="7.314609563715478"><ele>385.0</ele><time>2026-04-19T10:57:47.998Z</time></trkpt><trkpt lat="44.881222738518304" lon="7.314610356640902"><ele>385.0</ele><time>2026-04-19T10:57:48.998Z</time></trkpt><trkpt lat="44.88133715141413" lon="7.314613731943445"><ele>385.0</ele><time>2026-04-19T10:57:50Z</time></trkpt><trkpt lat="44.88141685201893" lon="7.314643256818349"><ele>385.0</ele><time>2026-04-19T10:57:52Z</time></trkpt><trkpt lat="44.881300637568195" lon="7.314538374478529"><ele>385.0</ele><time>2026-04-19T10:57:58Z</time></trkpt><trkpt lat="44.88123732966447" lon="7.3144919718574775"><ele>385.0</ele><time>2026-04-19T10:58:01Z</time></trkpt><trkpt lat="44.88130114133207" lon="7.314271152956255"><ele>385.0</ele><time>2026-04-19T10:58:03Z</time></trkpt><trkpt lat="44.88131758826899" lon="7.314120736253853"><ele>385.0</ele><time>2026-04-19T10:58:04Z</time></trkpt><trkpt lat="44.881337824953064" lon="7.313963140629254"><ele>385.0</ele><time>2026-04-19T10:58:05Z</time></trkpt><trkpt lat="44.88136228881902" lon="7.313811399759045"><ele>385.0</ele><time>2026-04-19T10:58:06Z</time></trkpt><trkpt lat="44.88137979893001" lon="7.313643799187623"><ele>385.0</ele><time>2026-04-19T10:58:07Z</time></trkpt><trkpt lat="44.88141161925821" lon="7.3134745089233215"><ele>385.0</ele><time>2026-04-19T10:58:08Z</time></trkpt><trkpt lat="44.88144624642394" lon="7.313295322449768"><ele>385.0</ele><time>2026-04-19T10:58:09Z</time></trkpt><trkpt lat="44.88146712936178" lon="7.313107547789489"><ele>385.0</ele><time>2026-04-19T10:58:10Z</time></trkpt><trkpt lat="44.881483320436345" lon="7.3129097918993455"><ele>385.0</ele><time>2026-04-19T10:58:11Z</time></trkpt><trkpt lat="44.881497551286294" lon="7.312703841948377"><ele>385.0</ele><time>2026-04-19T10:58:12Z</time></trkpt><trkpt lat="44.881506660671256" lon="7.312483406164474"><ele>385.33333333333337</ele><time>2026-04-19T10:58:13Z</time></trkpt><trkpt lat="44.88152021729617" lon="7.312267027197182"><ele>385.66666666666663</ele><time>2026-04-19T10:58:14Z</time></trkpt><trkpt lat="44.8815289141516" lon="7.312041186846426"><ele>386.0</ele><time>2026-04-19T10:58:14.999Z</time></trkpt><trkpt lat="44.881540170263484" lon="7.3118164379571775"><ele>387.0</ele><time>2026-04-19T10:58:15.999Z</time></trkpt><trkpt lat="44.88155323166118" lon="7.311600050575706"><ele>388.0</ele><time>2026-04-19T10:58:16.999Z</time></trkpt><trkpt lat="44.8815687683453" lon="7.311380668271431"><ele>389.0</ele><time>2026-04-19T10:58:17.999Z</time></trkpt><trkpt lat="44.88158683446504" lon="7.3111827142879005"><ele>389.25</ele><time>2026-04-19T10:58:18.999Z</time></trkpt><trkpt lat="44.88159910467056" lon="7.310982106070934"><ele>389.5</ele><time>2026-04-19T10:58:19.999Z</time></trkpt><trkpt lat="44.88160201778747" lon="7.310783200364486"><ele>389.75</ele><time>2026-04-19T10:58:20.999Z</time></trkpt><trkpt lat="44.88159745387371" lon="7.3105958292282"><ele>390.0</ele><time>2026-04-19T10:58:21.999Z</time></trkpt><trkpt lat="44.88160641987114" lon="7.310421816909793"><ele>390.0</ele><time>2026-04-19T10:58:22.999Z</time></trkpt><trkpt lat="44.88161444165956" lon="7.310262574668662"><ele>390.0</ele><time>2026-04-19T10:58:23.999Z</time></trkpt><trkpt lat="44.881627172933065" lon="7.310102351051007"><ele>390.0</ele><time>2026-04-19T10:58:24.999Z</time></trkpt><trkpt lat="44.881638835444214" lon="7.309939703064647"><ele>390.0</ele><time>2026-04-19T10:58:25.999Z</time></trkpt><trkpt lat="44.881651364098516" lon="7.309789175408582"><ele>390.25</ele><time>2026-04-19T10:58:26.999Z</time></trkpt><trkpt lat="44.88170784771733" lon="7.309651964479075"><ele>390.5</ele><time>2026-04-19T10:58:27.999Z</time></trkpt><trkpt lat="44.881767624517195" lon="7.30950249606293"><ele>390.75</ele><time>2026-04-19T10:58:28.999Z</time></trkpt><trkpt lat="44.88182767625344" lon="7.309326305504174"><ele>391.0</ele><time>2026-04-19T10:58:29.999Z</time></trkpt><trkpt lat="44.88192072435641" lon="7.309150770186832"><ele>391.0</ele><time>2026-04-19T10:58:30.999Z</time></trkpt><trkpt lat="44.88199185817621" lon="7.308944671465544"><ele>391.0</ele><time>2026-04-19T10:58:31.999Z</time></trkpt><trkpt lat="44.88205489852948" lon="7.308752016089195"><ele>391.0</ele><time>2026-04-19T10:58:32.999Z</time></trkpt><trkpt lat="44.882125201261815" lon="7.308545257944916"><ele>391.33333333333337</ele><time>2026-04-19T10:58:33.999Z</time></trkpt><trkpt lat="44.88219330132842" lon="7.308322916828207"><ele>391.66666666666663</ele><time>2026-04-19T10:58:34.999Z</time></trkpt><trkpt lat="44.88224774945049" lon="7.3081198640176215"><ele>392.0</ele><time>2026-04-19T10:58:35.999Z</time></trkpt><trkpt lat="44.88229002242889" lon="7.30795081834981"><ele>392.20000000000005</ele><time>2026-04-19T10:58:36.999Z</time></trkpt><trkpt lat="44.88232296377468" lon="7.3078058747990555"><ele>392.4</ele><time>2026-04-19T10:58:37.999Z</time></trkpt><trkpt lat="44.882341638710905" lon="7.3077029648921705"><ele>392.6</ele><time>2026-04-19T10:58:38.999Z</time></trkpt><trkpt lat="44.882425617187785" lon="7.30759929594548"><ele>392.79999999999995</ele><time>2026-04-19T10:58:40.999Z</time></trkpt><trkpt lat="44.88252097127437" lon="7.307613174524941"><ele>393.0</ele><time>2026-04-19T10:58:41.999Z</time></trkpt><trkpt lat="44.8826313736083" lon="7.307565633777668"><ele>393.25</ele><time>2026-04-19T10:58:42.999Z</time></trkpt><trkpt lat="44.882745029736945" lon="7.30750387475146"><ele>393.5</ele><time>2026-04-19T10:58:43.999Z</time></trkpt><trkpt lat="44.882868032688854" lon="7.307490132119469"><ele>393.75</ele><time>2026-04-19T10:58:44.999Z</time></trkpt><trkpt lat="44.8829882879446" lon="7.307446928358984"><ele>394.0</ele><time>2026-04-19T10:58:45.999Z</time></trkpt><trkpt lat="44.88309209523292" lon="7.307428734378052"><ele>394.00000000000006</ele><time>2026-04-19T10:58:46.999Z</time></trkpt><trkpt lat="44.883174288923726" lon="7.307415409741459"><ele>394.0</ele><time>2026-04-19T10:58:47.999Z</time></trkpt><trkpt lat="44.88324074443961" lon="7.307369825806373"><ele>394.0</ele><time>2026-04-19T10:58:48.999Z</time></trkpt><trkpt lat="44.88329552341767" lon="7.307309339964502"><ele>394.0</ele><time>2026-04-19T10:58:49.999Z</time></trkpt><trkpt lat="44.88332379126676" lon="7.307229262531724"><ele>394.00000000000006</ele><time>2026-04-19T10:58:50.999Z</time></trkpt><trkpt lat="44.88325611839791" lon="7.307028801686904"><ele>394.0</ele><time>2026-04-19T10:58:52.999Z</time></trkpt><trkpt lat="44.88319923281117" lon="7.306936075360589"><ele>394.25</ele><time>2026-04-19T10:58:53.999Z</time></trkpt><trkpt lat="44.8831286751326" lon="7.3068258704400115"><ele>394.5</ele><time>2026-04-19T10:58:54.999Z</time></trkpt><trkpt lat="44.88306197645244" lon="7.306692476857105"><ele>394.75</ele><time>2026-04-19T10:58:55.999Z</time></trkpt><trkpt lat="44.882987742805064" lon="7.306561065551668"><ele>395.0</ele><time>2026-04-19T10:58:56.999Z</time></trkpt><trkpt lat="44.882917829980386" lon="7.30642704833152"><ele>394.8</ele><time>2026-04-19T10:58:57.999Z</time></trkpt><trkpt lat="44.882856502719356" lon="7.306314184184478"><ele>394.6</ele><time>2026-04-19T10:58:58.999Z</time></trkpt><trkpt lat="44.88281003018173" lon="7.306238030695296"><ele>394.4</ele><time>2026-04-19T10:58:59.999Z</time></trkpt><trkpt lat="44.8828077502661" lon="7.306149133008016"><ele>394.2</ele><time>2026-04-19T10:59:01.999Z</time></trkpt><trkpt lat="44.882993048635996" lon="7.306128391800589"><ele>394.0</ele><time>2026-04-19T10:59:04.999Z</time></trkpt><trkpt lat="44.88311253095966" lon="7.30611099597895"><ele>394.0</ele><time>2026-04-19T10:59:05.999Z</time></trkpt><trkpt lat="44.88324215355954" lon="7.306083043066287"><ele>394.0</ele><time>2026-04-19T10:59:06.999Z</time></trkpt><trkpt lat="44.883378668341585" lon="7.306049820828104"><ele>394.0</ele><time>2026-04-19T10:59:07.999Z</time></trkpt><trkpt lat="44.883522128026996" lon="7.306025437893164"><ele>394.0</ele><time>2026-04-19T10:59:08.999Z</time></trkpt><trkpt lat="44.883653596453286" lon="7.306019736681578"><ele>394.4</ele><time>2026-04-19T10:59:09.999Z</time></trkpt><trkpt lat="44.88377056561099" lon="7.306017640082986"><ele>394.79999999999995</ele><time>2026-04-19T10:59:10.999Z</time></trkpt><trkpt lat="44.88388102064125" lon="7.306015243938866"><ele>395.20000000000005</ele><time>2026-04-19T10:59:11.999Z</time></trkpt><trkpt lat="44.88395466536373" lon="7.3060304209676685"><ele>395.6</ele><time>2026-04-19T10:59:12.999Z</time></trkpt><trkpt lat="44.884019616875904" lon="7.306085426866181"><ele>396.0</ele><time>2026-04-19T10:59:13.999Z</time></trkpt><trkpt lat="44.88407644690557" lon="7.306164835057495"><ele>396.0</ele><time>2026-04-19T10:59:14.999Z</time></trkpt><trkpt lat="44.8841423035649" lon="7.306190175039313"><ele>396.0</ele><time>2026-04-19T10:59:15.999Z</time></trkpt><trkpt lat="44.8842032454346" lon="7.30614018335325"><ele>396.0</ele><time>2026-04-19T10:59:16.999Z</time></trkpt><trkpt lat="44.884224709101076" lon="7.306049332814602"><ele>396.0</ele><time>2026-04-19T10:59:17.999Z</time></trkpt><trkpt lat="44.88421684016745" lon="7.305941281921606"><ele>396.0</ele><time>2026-04-19T10:59:18.999Z</time></trkpt><trkpt lat="44.88419844205496" lon="7.305795287064953"><ele>396.0</ele><time>2026-04-19T10:59:19.999Z</time></trkpt><trkpt lat="44.884185125980686" lon="7.305621079644835"><ele>396.0</ele><time>2026-04-19T10:59:20.998Z</time></trkpt><trkpt lat="44.88418043826793" lon="7.30543443992994"><ele>396.0</ele><time>2026-04-19T10:59:21.998Z</time></trkpt><trkpt lat="44.88416921084438" lon="7.305213416595953"><ele>396.0</ele><time>2026-04-19T10:59:22.998Z</time></trkpt><trkpt lat="44.88417029852258" lon="7.305000841829148"><ele>396.0</ele><time>2026-04-19T10:59:23.998Z</time></trkpt><trkpt lat="44.88416721022136" lon="7.304755637167876"><ele>396.0</ele><time>2026-04-19T10:59:24.998Z</time></trkpt><trkpt lat="44.88416711475604" lon="7.304521621158586"><ele>396.0</ele><time>2026-04-19T10:59:25.998Z</time></trkpt><trkpt lat="44.884175561020974" lon="7.304266930994464"><ele>396.0</ele><time>2026-04-19T10:59:26.998Z</time></trkpt><trkpt lat="44.88419312593433" lon="7.304017564485689"><ele>396.25</ele><time>2026-04-19T10:59:27.998Z</time></trkpt><trkpt lat="44.884216225843" lon="7.303789252984942"><ele>396.5</ele><time>2026-04-19T10:59:28.998Z</time></trkpt><trkpt lat="44.88424041292894" lon="7.303589403302748"><ele>396.75</ele><time>2026-04-19T10:59:29.998Z</time></trkpt><trkpt lat="44.88425687681244" lon="7.303423021782763"><ele>397.0</ele><time>2026-04-19T10:59:30.998Z</time></trkpt><trkpt lat="44.884264729584736" lon="7.30327979911723"><ele>397.1666666666667</ele><time>2026-04-19T10:59:31.998Z</time></trkpt><trkpt lat="44.88426421358432" lon="7.303146204454287"><ele>397.33333333333337</ele><time>2026-04-19T10:59:32.998Z</time></trkpt><trkpt lat="44.88425812440134" lon="7.3030389545040695"><ele>397.5</ele><time>2026-04-19T10:59:33.998Z</time></trkpt><trkpt lat="44.88426502756719" lon="7.302929729253805"><ele>397.66666666666663</ele><time>2026-04-19T10:59:34.998Z</time></trkpt><trkpt lat="44.88429558015871" lon="7.302842365457495"><ele>397.8333333333333</ele><time>2026-04-19T10:59:35.998Z</time></trkpt><trkpt lat="44.88427181004528" lon="7.302725037013907"><ele>398.0</ele><time>2026-04-19T10:59:36.998Z</time></trkpt><trkpt lat="44.88426550250113" lon="7.30256336503456"><ele>398.75</ele><time>2026-04-19T10:59:37.998Z</time></trkpt><trkpt lat="44.88428820538127" lon="7.302382046163805"><ele>399.5</ele><time>2026-04-19T10:59:38.998Z</time></trkpt><trkpt lat="44.884330655937056" lon="7.302185791788993"><ele>400.25</ele><time>2026-04-19T10:59:39.998Z</time></trkpt><trkpt lat="44.88437550918039" lon="7.301978337237884"><ele>401.0</ele><time>2026-04-19T10:59:40.998Z</time></trkpt><trkpt lat="44.88440723026299" lon="7.301745081204637"><ele>401.3333333333333</ele><time>2026-04-19T10:59:41.998Z</time></trkpt><trkpt lat="44.884423733384715" lon="7.301504451042731"><ele>401.66666666666663</ele><time>2026-04-19T10:59:42.998Z</time></trkpt><trkpt lat="44.88446465977174" lon="7.301265079314602"><ele>402.0</ele><time>2026-04-19T10:59:43.998Z</time></trkpt><trkpt lat="44.8844721272285" lon="7.301010860801848"><ele>402.66666666666663</ele><time>2026-04-19T10:59:44.998Z</time></trkpt><trkpt lat="44.884509206447525" lon="7.3007454065273505"><ele>403.3333333333333</ele><time>2026-04-19T10:59:45.998Z</time></trkpt><trkpt lat="44.88452890668395" lon="7.300480405323326"><ele>404.0</ele><time>2026-04-19T10:59:46.998Z</time></trkpt><trkpt lat="44.88454641386741" lon="7.3002007054031886"><ele>404.0</ele><time>2026-04-19T10:59:47.998Z</time></trkpt><trkpt lat="44.8845644656761" lon="7.299924640229166"><ele>404.0</ele><time>2026-04-19T10:59:48.998Z</time></trkpt><trkpt lat="44.884583385292295" lon="7.2996530488066025"><ele>404.0</ele><time>2026-04-19T10:59:49.998Z</time></trkpt><trkpt lat="44.884602308816156" lon="7.299395523675103"><ele>404.0</ele><time>2026-04-19T10:59:50.998Z</time></trkpt><trkpt lat="44.88462103612123" lon="7.299150919024163"><ele>404.0</ele><time>2026-04-19T10:59:51.998Z</time></trkpt><trkpt lat="44.884639057463616" lon="7.298915534487383"><ele>404.0</ele><time>2026-04-19T10:59:52.998Z</time></trkpt><trkpt lat="44.88465393827695" lon="7.298726037325559"><ele>404.66666666666663</ele><time>2026-04-19T10:59:53.998Z</time></trkpt><trkpt lat="44.884649560050434" lon="7.298473519912669"><ele>405.33333333333337</ele><time>2026-04-19T10:59:54.998Z</time></trkpt><trkpt lat="44.884663515678646" lon="7.298267669619405"><ele>406.0</ele><time>2026-04-19T10:59:55.998Z</time></trkpt><trkpt lat="44.884681554794355" lon="7.298087075921183"><ele>405.5</ele><time>2026-04-19T10:59:56.998Z</time></trkpt><trkpt lat="44.88470077193108" lon="7.297910607028768"><ele>405.0</ele><time>2026-04-19T10:59:57.998Z</time></trkpt><trkpt lat="44.88476259347702" lon="7.297737582479113"><ele>404.5</ele><time>2026-04-19T10:59:58.998Z</time></trkpt><trkpt lat="44.88481486647351" lon="7.2975415465496125"><ele>404.0</ele><time>2026-04-19T10:59:59.998Z</time></trkpt><trkpt lat="44.88489486141021" lon="7.297348203916441"><ele>404.0</ele><time>2026-04-19T11:00:00.998Z</time></trkpt><trkpt lat="44.884983226164486" lon="7.2971676308196445"><ele>404.0</ele><time>2026-04-19T11:00:01.998Z</time></trkpt><trkpt lat="44.885076400467916" lon="7.296987495899495"><ele>404.0</ele><time>2026-04-19T11:00:02.999Z</time></trkpt><trkpt lat="44.885164011766484" lon="7.296825384283392"><ele>404.5</ele><time>2026-04-19T11:00:03.999Z</time></trkpt><trkpt lat="44.88524615528902" lon="7.296674950870633"><ele>405.0</ele><time>2026-04-19T11:00:04.999Z</time></trkpt><trkpt lat="44.88532257855987" lon="7.296535854042854"><ele>405.5</ele><time>2026-04-19T11:00:05.999Z</time></trkpt><trkpt lat="44.88540229397706" lon="7.296411885781559"><ele>406.0</ele><time>2026-04-19T11:00:06.999Z</time></trkpt><trkpt lat="44.88550747884422" lon="7.296343384600141"><ele>406.0</ele><time>2026-04-19T11:00:07.999Z</time></trkpt><trkpt lat="44.885615552689266" lon="7.296326381022564"><ele>406.0</ele><time>2026-04-19T11:00:08.999Z</time></trkpt><trkpt lat="44.88565954264912" lon="7.296231247703503"><ele>406.0</ele><time>2026-04-19T11:00:09.999Z</time></trkpt><trkpt lat="44.8856781095977" lon="7.296127519516753"><ele>406.0</ele><time>2026-04-19T11:00:10.999Z</time></trkpt><trkpt lat="44.88568354401506" lon="7.295985064075476"><ele>406.0</ele><time>2026-04-19T11:00:11.999Z</time></trkpt><trkpt lat="44.8856812080769" lon="7.295819395351814"><ele>406.0</ele><time>2026-04-19T11:00:12.999Z</time></trkpt><trkpt lat="44.88566560026976" lon="7.295637271582316"><ele>406.0</ele><time>2026-04-19T11:00:13.999Z</time></trkpt><trkpt lat="44.885639913976085" lon="7.295442061066703"><ele>406.0</ele><time>2026-04-19T11:00:14.999Z</time></trkpt><trkpt lat="44.88561839570157" lon="7.295216446811279"><ele>406.0</ele><time>2026-04-19T11:00:15.999Z</time></trkpt><trkpt lat="44.8856143880693" lon="7.29496900281292"><ele>407.0</ele><time>2026-04-19T11:00:16.999Z</time></trkpt><trkpt lat="44.885609690926934" lon="7.294712134980887"><ele>408.0</ele><time>2026-04-19T11:00:17.999Z</time></trkpt><trkpt lat="44.885583952056045" lon="7.294467093463744"><ele>409.0</ele><time>2026-04-19T11:00:18.999Z</time></trkpt><trkpt lat="44.88557038431056" lon="7.294212609809155"><ele>409.0</ele><time>2026-04-19T11:00:19.999Z</time></trkpt><trkpt lat="44.88552476352425" lon="7.293972461342121"><ele>409.0</ele><time>2026-04-19T11:00:20.999Z</time></trkpt><trkpt lat="44.88547582223526" lon="7.293711179171132"><ele>409.0</ele><time>2026-04-19T11:00:21.999Z</time></trkpt><trkpt lat="44.88539742522678" lon="7.293470107667817"><ele>408.6666666666667</ele><time>2026-04-19T11:00:22.999Z</time></trkpt><trkpt lat="44.88535226868952" lon="7.293210111342804"><ele>408.33333333333337</ele><time>2026-04-19T11:00:23.999Z</time></trkpt><trkpt lat="44.88529694543945" lon="7.292939247678123"><ele>408.0</ele><time>2026-04-19T11:00:24.999Z</time></trkpt><trkpt lat="44.885253306811016" lon="7.292683650879011"><ele>407.66666666666663</ele><time>2026-04-19T11:00:25.999Z</time></trkpt><trkpt lat="44.88526986932943" lon="7.292445531742914"><ele>407.3333333333333</ele><time>2026-04-19T11:00:26.999Z</time></trkpt><trkpt lat="44.88526337710269" lon="7.2922066999475605"><ele>407.0</ele><time>2026-04-19T11:00:27.999Z</time></trkpt><trkpt lat="44.88527593987576" lon="7.2919756612780215"><ele>407.0</ele><time>2026-04-19T11:00:28.999Z</time></trkpt><trkpt lat="44.88529084379946" lon="7.2917357253439015"><ele>407.0</ele><time>2026-04-19T11:00:29.999Z</time></trkpt><trkpt lat="44.885306732894826" lon="7.291479929160509"><ele>407.0</ele><time>2026-04-19T11:00:30.999Z</time></trkpt><trkpt lat="44.88532222082166" lon="7.291230591546398"><ele>407.3333333333333</ele><time>2026-04-19T11:00:31.999Z</time></trkpt><trkpt lat="44.88533811805986" lon="7.290974664379512"><ele>407.66666666666663</ele><time>2026-04-19T11:00:32.999Z</time></trkpt><trkpt lat="44.88535394911148" lon="7.290719800934496"><ele>408.0</ele><time>2026-04-19T11:00:33.999Z</time></trkpt><trkpt lat="44.88536882888335" lon="7.290463695708503"><ele>408.33333333333337</ele><time>2026-04-19T11:00:34.999Z</time></trkpt><trkpt lat="44.885383497785" lon="7.290210802838936"><ele>408.6666666666667</ele><time>2026-04-19T11:00:35.999Z</time></trkpt><trkpt lat="44.88537202501035" lon="7.289954568297001"><ele>409.0</ele><time>2026-04-19T11:00:36.999Z</time></trkpt><trkpt lat="44.885385094228035" lon="7.289697269032292"><ele>409.0</ele><time>2026-04-19T11:00:37.999Z</time></trkpt><trkpt lat="44.88539789185258" lon="7.2894550246801275"><ele>409.0</ele><time>2026-04-19T11:00:38.999Z</time></trkpt><trkpt lat="44.885418241447965" lon="7.289217888580533"><ele>409.0</ele><time>2026-04-19T11:00:39.999Z</time></trkpt><trkpt lat="44.88542862657998" lon="7.288988172940609"><ele>410.0</ele><time>2026-04-19T11:00:40.999Z</time></trkpt><trkpt lat="44.88546564170223" lon="7.28876169132779"><ele>411.0</ele><time>2026-04-19T11:00:41.999Z</time></trkpt><trkpt lat="44.88544763428499" lon="7.288541449724615"><ele>412.0</ele><time>2026-04-19T11:00:42.999Z</time></trkpt><trkpt lat="44.885459505021544" lon="7.288317999113447"><ele>412.0</ele><time>2026-04-19T11:00:43.999Z</time></trkpt><trkpt lat="44.88546718614767" lon="7.28809719225305"><ele>412.0</ele><time>2026-04-19T11:00:44.999Z</time></trkpt><trkpt lat="44.88548073914737" lon="7.287843876306586"><ele>412.0</ele><time>2026-04-19T11:00:45.999Z</time></trkpt><trkpt lat="44.88545701607439" lon="7.287570018367785"><ele>412.0</ele><time>2026-04-19T11:00:46.999Z</time></trkpt><trkpt lat="44.88540476584063" lon="7.287300578996823"><ele>412.0</ele><time>2026-04-19T11:00:47.999Z</time></trkpt><trkpt lat="44.885387195799844" lon="7.28703214455866"><ele>412.0</ele><time>2026-04-19T11:00:48.999Z</time></trkpt><trkpt lat="44.88535691691215" lon="7.286762211587958"><ele>412.0</ele><time>2026-04-19T11:00:49.999Z</time></trkpt><trkpt lat="44.885333073149205" lon="7.286514182812369"><ele>412.0</ele><time>2026-04-19T11:00:50.999Z</time></trkpt><trkpt lat="44.8853150811404" lon="7.2862734465664705"><ele>412.0</ele><time>2026-04-19T11:00:51.999Z</time></trkpt><trkpt lat="44.88529455492652" lon="7.28603516427833"><ele>411.33333333333337</ele><time>2026-04-19T11:00:52.999Z</time></trkpt><trkpt lat="44.8852995470438" lon="7.2857716690805105"><ele>410.66666666666663</ele><time>2026-04-19T11:00:53.999Z</time></trkpt><trkpt lat="44.88532719045578" lon="7.285513265057524"><ele>410.0</ele><time>2026-04-19T11:00:54.999Z</time></trkpt><trkpt lat="44.885340229076576" lon="7.28525604135097"><ele>409.3333333333333</ele><time>2026-04-19T11:00:55.999Z</time></trkpt><trkpt lat="44.88535674646492" lon="7.284991407230567"><ele>408.66666666666663</ele><time>2026-04-19T11:00:56.999Z</time></trkpt><trkpt lat="44.88537167396783" lon="7.284732052709475"><ele>408.0</ele><time>2026-04-19T11:00:57.999Z</time></trkpt><trkpt lat="44.88538648751839" lon="7.2844746780386505"><ele>409.0</ele><time>2026-04-19T11:00:58.999Z</time></trkpt><trkpt lat="44.885403141850304" lon="7.284217330933294"><ele>410.0</ele><time>2026-04-19T11:00:59.999Z</time></trkpt><trkpt lat="44.88541892495996" lon="7.283972558281351"><ele>411.0</ele><time>2026-04-19T11:01:00.999Z</time></trkpt><trkpt lat="44.88543545591197" lon="7.2837169533942925"><ele>411.0</ele><time>2026-04-19T11:01:01.999Z</time></trkpt><trkpt lat="44.88545240824851" lon="7.283454956921291"><ele>411.0</ele><time>2026-04-19T11:01:02.999Z</time></trkpt><trkpt lat="44.88546877397959" lon="7.28320202647344"><ele>411.0</ele><time>2026-04-19T11:01:03.999Z</time></trkpt><trkpt lat="44.88548633428503" lon="7.282947173429353"><ele>411.0</ele><time>2026-04-19T11:01:04.999Z</time></trkpt><trkpt lat="44.885504029226276" lon="7.282698163733588"><ele>411.0</ele><time>2026-04-19T11:01:05.999Z</time></trkpt><trkpt lat="44.88553185503329" lon="7.282451900405964"><ele>411.0</ele><time>2026-04-19T11:01:06.999Z</time></trkpt><trkpt lat="44.88558469842871" lon="7.282210388499437"><ele>411.0</ele><time>2026-04-19T11:01:07.999Z</time></trkpt><trkpt lat="44.88564184562638" lon="7.281988516673443"><ele>411.0</ele><time>2026-04-19T11:01:08.999Z</time></trkpt><trkpt lat="44.88570010465907" lon="7.281761612722625"><ele>411.0</ele><time>2026-04-19T11:01:09.999Z</time></trkpt><trkpt lat="44.88575577105065" lon="7.281537976803993"><ele>411.0</ele><time>2026-04-19T11:01:10.999Z</time></trkpt><trkpt lat="44.885811863186944" lon="7.281320138417602"><ele>411.0</ele><time>2026-04-19T11:01:11.999Z</time></trkpt><trkpt lat="44.88586731748199" lon="7.281104777082334"><ele>411.0</ele><time>2026-04-19T11:01:12.999Z</time></trkpt><trkpt lat="44.88592461779113" lon="7.280881063997515"><ele>414.66666666666663</ele><time>2026-04-19T11:01:13.999Z</time></trkpt><trkpt lat="44.88598436939671" lon="7.280647312688162"><ele>418.3333333333333</ele><time>2026-04-19T11:01:14.999Z</time></trkpt><trkpt lat="44.8860397030708" lon="7.280405396093294"><ele>422.0</ele><time>2026-04-19T11:01:15.999Z</time></trkpt><trkpt lat="44.88609547987325" lon="7.280157440845773"><ele>422.0</ele><time>2026-04-19T11:01:16.999Z</time></trkpt><trkpt lat="44.88614458021076" lon="7.2799023443283115"><ele>422.0</ele><time>2026-04-19T11:01:17.999Z</time></trkpt><trkpt lat="44.886184955947925" lon="7.27964776891307"><ele>422.0</ele><time>2026-04-19T11:01:18.999Z</time></trkpt><trkpt lat="44.88622554082465" lon="7.279384350542928"><ele>422.0</ele><time>2026-04-19T11:01:19.998Z</time></trkpt><trkpt lat="44.88626486830616" lon="7.2791268189115765"><ele>422.0</ele><time>2026-04-19T11:01:20.998Z</time></trkpt><trkpt lat="44.88630330468059" lon="7.278868510835461"><ele>422.0</ele><time>2026-04-19T11:01:21.998Z</time></trkpt><trkpt lat="44.886342408501235" lon="7.278604108595705"><ele>422.0</ele><time>2026-04-19T11:01:22.998Z</time></trkpt><trkpt lat="44.886380520012246" lon="7.278346415949516"><ele>422.0</ele><time>2026-04-19T11:01:23.998Z</time></trkpt><trkpt lat="44.88641785730807" lon="7.278093212672866"><ele>422.0</ele><time>2026-04-19T11:01:24.998Z</time></trkpt><trkpt lat="44.88645561152523" lon="7.2778358444497675"><ele>422.3333333333333</ele><time>2026-04-19T11:01:25.998Z</time></trkpt><trkpt lat="44.88646176686658" lon="7.2775674585038095"><ele>422.66666666666663</ele><time>2026-04-19T11:01:26.998Z</time></trkpt><trkpt lat="44.88650052560794" lon="7.277319297138488"><ele>423.0</ele><time>2026-04-19T11:01:27.998Z</time></trkpt><trkpt lat="44.88653564584888" lon="7.277063357391482"><ele>422.0</ele><time>2026-04-19T11:01:28.998Z</time></trkpt><trkpt lat="44.88657543854369" lon="7.276808033365639"><ele>421.0</ele><time>2026-04-19T11:01:29.998Z</time></trkpt><trkpt lat="44.886642786108034" lon="7.27656307013591"><ele>420.0</ele><time>2026-04-19T11:01:30.998Z</time></trkpt><trkpt lat="44.886678927996805" lon="7.276311418012413"><ele>419.33333333333337</ele><time>2026-04-19T11:01:31.998Z</time></trkpt><trkpt lat="44.88671527265861" lon="7.276057227786102"><ele>418.6666666666667</ele><time>2026-04-19T11:01:32.998Z</time></trkpt><trkpt lat="44.88675122240086" lon="7.2758033475379476"><ele>418.0</ele><time>2026-04-19T11:01:33.998Z</time></trkpt><trkpt lat="44.8867859074114" lon="7.2755557607876"><ele>427.33333333333337</ele><time>2026-04-19T11:01:34.998Z</time></trkpt><trkpt lat="44.886819581783804" lon="7.275303881182835"><ele>436.66666666666663</ele><time>2026-04-19T11:01:35.998Z</time></trkpt><trkpt lat="44.88685117185553" lon="7.275049263282807"><ele>446.0</ele><time>2026-04-19T11:01:36.998Z</time></trkpt><trkpt lat="44.88685539828047" lon="7.274790509126415"><ele>447.0</ele><time>2026-04-19T11:01:37.998Z</time></trkpt><trkpt lat="44.88685075781236" lon="7.274540925180943"><ele>448.0</ele><time>2026-04-19T11:01:38.998Z</time></trkpt><trkpt lat="44.88681998272723" lon="7.2742917373199845"><ele>449.0</ele><time>2026-04-19T11:01:39.998Z</time></trkpt><trkpt lat="44.88679107343853" lon="7.274048552359978"><ele>450.66666666666663</ele><time>2026-04-19T11:01:40.998Z</time></trkpt><trkpt lat="44.88675966894954" lon="7.273802040673036"><ele>452.33333333333337</ele><time>2026-04-19T11:01:41.998Z</time></trkpt><trkpt lat="44.88676276507506" lon="7.273553723561682"><ele>454.0</ele><time>2026-04-19T11:01:42.998Z</time></trkpt><trkpt lat="44.886738991649466" lon="7.273316236450811"><ele>445.0</ele><time>2026-04-19T11:01:43.998Z</time></trkpt><trkpt lat="44.886701235503224" lon="7.273081325303469"><ele>436.0</ele><time>2026-04-19T11:01:44.998Z</time></trkpt><trkpt lat="44.88668218913749" lon="7.272846860758283"><ele>427.0</ele><time>2026-04-19T11:01:45.998Z</time></trkpt><trkpt lat="44.88666392840544" lon="7.27261204274259"><ele>427.0</ele><time>2026-04-19T11:01:46.998Z</time></trkpt><trkpt lat="44.886639140745025" lon="7.2723673792181085"><ele>427.0</ele><time>2026-04-19T11:01:47.998Z</time></trkpt><trkpt lat="44.886620920579006" lon="7.272142768365108"><ele>427.0</ele><time>2026-04-19T11:01:48.998Z</time></trkpt><trkpt lat="44.88660463293795" lon="7.271921098530136"><ele>426.6666666666667</ele><time>2026-04-19T11:01:49.998Z</time></trkpt><trkpt lat="44.88659840137621" lon="7.2717001935160335"><ele>426.33333333333337</ele><time>2026-04-19T11:01:50.998Z</time></trkpt><trkpt lat="44.886626442275144" lon="7.271486090766726"><ele>426.0</ele><time>2026-04-19T11:01:51.998Z</time></trkpt><trkpt lat="44.88665197869079" lon="7.271269158455039"><ele>425.66666666666663</ele><time>2026-04-19T11:01:52.998Z</time></trkpt><trkpt lat="44.88668206200722" lon="7.271052528716141"><ele>425.3333333333333</ele><time>2026-04-19T11:01:53.998Z</time></trkpt><trkpt lat="44.8867136447862" lon="7.2708322033224295"><ele>425.0</ele><time>2026-04-19T11:01:54.998Z</time></trkpt><trkpt lat="44.88672796452279" lon="7.270610272374538"><ele>426.3333333333333</ele><time>2026-04-19T11:01:55.998Z</time></trkpt><trkpt lat="44.88675213573474" lon="7.270391436850691"><ele>427.66666666666663</ele><time>2026-04-19T11:01:56.998Z</time></trkpt><trkpt lat="44.88678104324231" lon="7.27017526638219"><ele>429.0</ele><time>2026-04-19T11:01:57.998Z</time></trkpt><trkpt lat="44.88680549788385" lon="7.269955680321854"><ele>432.66666666666663</ele><time>2026-04-19T11:01:58.998Z</time></trkpt><trkpt lat="44.88684507029387" lon="7.269739406740628"><ele>436.3333333333333</ele><time>2026-04-19T11:01:59.998Z</time></trkpt><trkpt lat="44.8868594153821" lon="7.269515249753897"><ele>440.0</ele><time>2026-04-19T11:02:00.998Z</time></trkpt><trkpt lat="44.88688807597934" lon="7.269297989801504"><ele>440.0</ele><time>2026-04-19T11:02:01.998Z</time></trkpt><trkpt lat="44.88692444956608" lon="7.269062991482673"><ele>440.0</ele><time>2026-04-19T11:02:02.998Z</time></trkpt><trkpt lat="44.88693383547852" lon="7.2688614063556996"><ele>440.0</ele><time>2026-04-19T11:02:03.998Z</time></trkpt><trkpt lat="44.88696152801758" lon="7.268649922264756"><ele>439.25</ele><time>2026-04-19T11:02:04.998Z</time></trkpt><trkpt lat="44.88698714657548" lon="7.268444497959774"><ele>438.5</ele><time>2026-04-19T11:02:05.998Z</time></trkpt><trkpt lat="44.887010843539464" lon="7.268241337018301"><ele>437.75</ele><time>2026-04-19T11:02:06.998Z</time></trkpt><trkpt lat="44.88703407383173" lon="7.268035591802214"><ele>437.0</ele><time>2026-04-19T11:02:07.998Z</time></trkpt><trkpt lat="44.887058695093316" lon="7.267826711851648"><ele>436.66666666666663</ele><time>2026-04-19T11:02:08.998Z</time></trkpt><trkpt lat="44.88709019625627" lon="7.267583157794604"><ele>436.33333333333337</ele><time>2026-04-19T11:02:09.998Z</time></trkpt><trkpt lat="44.8871241519061" lon="7.267330365827985"><ele>436.0</ele><time>2026-04-19T11:02:10.998Z</time></trkpt><trkpt lat="44.88717328950097" lon="7.2670733607715565"><ele>435.33333333333337</ele><time>2026-04-19T11:02:11.998Z</time></trkpt><trkpt lat="44.88725481841999" lon="7.2668194156669585"><ele>434.66666666666663</ele><time>2026-04-19T11:02:12.998Z</time></trkpt><trkpt lat="44.887343152121616" lon="7.266558985672831"><ele>434.0</ele><time>2026-04-19T11:02:13.999Z</time></trkpt><trkpt lat="44.88744005485308" lon="7.2662906171170585"><ele>433.66666666666663</ele><time>2026-04-19T11:02:14.999Z</time></trkpt><trkpt lat="44.88752583906407" lon="7.266004547852276"><ele>433.33333333333337</ele><time>2026-04-19T11:02:15.999Z</time></trkpt><trkpt lat="44.88762212906192" lon="7.265742005324258"><ele>433.0</ele><time>2026-04-19T11:02:16.999Z</time></trkpt><trkpt lat="44.887716172263325" lon="7.265473039546513"><ele>434.6666666666667</ele><time>2026-04-19T11:02:17.999Z</time></trkpt><trkpt lat="44.88780502800175" lon="7.265215453334914"><ele>436.33333333333337</ele><time>2026-04-19T11:02:18.999Z</time></trkpt><trkpt lat="44.88789320146139" lon="7.264968964503735"><ele>438.0</ele><time>2026-04-19T11:02:19.999Z</time></trkpt><trkpt lat="44.88798114513771" lon="7.264724030438539"><ele>438.0</ele><time>2026-04-19T11:02:20.999Z</time></trkpt><trkpt lat="44.88807366042841" lon="7.264486348206118"><ele>438.0</ele><time>2026-04-19T11:02:21.999Z</time></trkpt><trkpt lat="44.88819425930369" lon="7.264276802113108"><ele>438.0</ele><time>2026-04-19T11:02:22.999Z</time></trkpt><trkpt lat="44.88831564666382" lon="7.264067261342209"><ele>446.0</ele><time>2026-04-19T11:02:23.999Z</time></trkpt><trkpt lat="44.88844579999964" lon="7.263842412122446"><ele>454.0</ele><time>2026-04-19T11:02:24.999Z</time></trkpt><trkpt lat="44.8885538712626" lon="7.263597247754477"><ele>462.0</ele><time>2026-04-19T11:02:25.999Z</time></trkpt><trkpt lat="44.888664076256845" lon="7.263363248639259"><ele>462.0</ele><time>2026-04-19T11:02:26.999Z</time></trkpt><trkpt lat="44.88878265200554" lon="7.2631181340407975"><ele>462.0</ele><time>2026-04-19T11:02:27.999Z</time></trkpt><trkpt lat="44.8888839372744" lon="7.262878436216209"><ele>462.0</ele><time>2026-04-19T11:02:28.999Z</time></trkpt><trkpt lat="44.88900192327092" lon="7.2626561057329635"><ele>463.33333333333337</ele><time>2026-04-19T11:02:29.999Z</time></trkpt><trkpt lat="44.889109985051185" lon="7.26241929064573"><ele>464.6666666666667</ele><time>2026-04-19T11:02:30.999Z</time></trkpt><trkpt lat="44.889205601593105" lon="7.262210514423455"><ele>466.0</ele><time>2026-04-19T11:02:31.999Z</time></trkpt><trkpt lat="44.88929297553162" lon="7.2620207864973105"><ele>466.0</ele><time>2026-04-19T11:02:32.999Z</time></trkpt><trkpt lat="44.889412145866345" lon="7.261761105516419"><ele>466.0</ele><time>2026-04-19T11:02:33.999Z</time></trkpt><trkpt lat="44.88951909632608" lon="7.261527880107012"><ele>466.0</ele><time>2026-04-19T11:02:34.999Z</time></trkpt><trkpt lat="44.889622032311" lon="7.261304005189664"><ele>459.33333333333337</ele><time>2026-04-19T11:02:35.999Z</time></trkpt><trkpt lat="44.88972525951744" lon="7.261080325182308"><ele>452.66666666666663</ele><time>2026-04-19T11:02:36.999Z</time></trkpt><trkpt lat="44.88982737225475" lon="7.260859060002483"><ele>446.0</ele><time>2026-04-19T11:02:37.999Z</time></trkpt><trkpt lat="44.889928930625736" lon="7.260638996091924"><ele>442.66666666666663</ele><time>2026-04-19T11:02:38.999Z</time></trkpt><trkpt lat="44.890031033723" lon="7.260417751631026"><ele>439.33333333333337</ele><time>2026-04-19T11:02:39.999Z</time></trkpt><trkpt lat="44.89013264565628" lon="7.260198412959114"><ele>436.0</ele><time>2026-04-19T11:02:40.999Z</time></trkpt><trkpt lat="44.890239001624444" lon="7.259969322292559"><ele>440.0</ele><time>2026-04-19T11:02:41.999Z</time></trkpt><trkpt lat="44.89033846056311" lon="7.259755086900394"><ele>444.0</ele><time>2026-04-19T11:02:42.999Z</time></trkpt><trkpt lat="44.890439069122" lon="7.259538375239394"><ele>448.0</ele><time>2026-04-19T11:02:43.999Z</time></trkpt><trkpt lat="44.89053664972875" lon="7.259305403193154"><ele>448.0</ele><time>2026-04-19T11:02:44.999Z</time></trkpt><trkpt lat="44.890622632774736" lon="7.259048463914472"><ele>448.0</ele><time>2026-04-19T11:02:45.999Z</time></trkpt><trkpt lat="44.89064393834662" lon="7.258806519887528"><ele>448.0</ele><time>2026-04-19T11:02:46.999Z</time></trkpt><trkpt lat="44.89067455525745" lon="7.258542828476354"><ele>447.0</ele><time>2026-04-19T11:02:47.999Z</time></trkpt><trkpt lat="44.89072757301068" lon="7.258280806161968"><ele>446.0</ele><time>2026-04-19T11:02:48.999Z</time></trkpt><trkpt lat="44.89076412746652" lon="7.258023065245"><ele>445.0</ele><time>2026-04-19T11:02:49.999Z</time></trkpt><trkpt lat="44.890800946510474" lon="7.257763458925047"><ele>445.33333333333337</ele><time>2026-04-19T11:02:50.999Z</time></trkpt><trkpt lat="44.89083848431872" lon="7.25749878463438"><ele>445.66666666666663</ele><time>2026-04-19T11:02:51.999Z</time></trkpt><trkpt lat="44.89087557118593" lon="7.257236141675359"><ele>446.0</ele><time>2026-04-19T11:02:52.999Z</time></trkpt><trkpt lat="44.890911914619956" lon="7.256978209131125"><ele>460.3333333333333</ele><time>2026-04-19T11:02:53.999Z</time></trkpt><trkpt lat="44.8909472602996" lon="7.256721101216024"><ele>474.66666666666663</ele><time>2026-04-19T11:02:54.999Z</time></trkpt><trkpt lat="44.89098364442382" lon="7.256456324307485"><ele>489.0</ele><time>2026-04-19T11:02:55.999Z</time></trkpt><trkpt lat="44.891020329264215" lon="7.256189358970654"><ele>489.33333333333337</ele><time>2026-04-19T11:02:56.999Z</time></trkpt><trkpt lat="44.89105626605304" lon="7.255927837437119"><ele>489.6666666666667</ele><time>2026-04-19T11:02:57.999Z</time></trkpt><trkpt lat="44.89109092927055" lon="7.255675583999036"><ele>490.0</ele><time>2026-04-19T11:02:58.999Z</time></trkpt><trkpt lat="44.891121308682045" lon="7.25541911301424"><ele>487.6666666666667</ele><time>2026-04-19T11:02:59.999Z</time></trkpt><trkpt lat="44.891142263446106" lon="7.255151145798858"><ele>485.33333333333337</ele><time>2026-04-19T11:03:00.999Z</time></trkpt><trkpt lat="44.89112841474152" lon="7.254881839600405"><ele>483.0</ele><time>2026-04-19T11:03:01.999Z</time></trkpt><trkpt lat="44.891119730260286" lon="7.254618843272392"><ele>483.0</ele><time>2026-04-19T11:03:02.999Z</time></trkpt><trkpt lat="44.89111343127722" lon="7.25434353855598"><ele>483.0</ele><time>2026-04-19T11:03:03.999Z</time></trkpt><trkpt lat="44.89110106154339" lon="7.254079502933922"><ele>483.0</ele><time>2026-04-19T11:03:04.999Z</time></trkpt><trkpt lat="44.891063436614424" lon="7.253817708200568"><ele>483.0</ele><time>2026-04-19T11:03:05.999Z</time></trkpt><trkpt lat="44.89105274841836" lon="7.253564140114866"><ele>483.0</ele><time>2026-04-19T11:03:06.999Z</time></trkpt><trkpt lat="44.8910386445324" lon="7.253298897279952"><ele>483.0</ele><time>2026-04-19T11:03:07.999Z</time></trkpt><trkpt lat="44.891024601329434" lon="7.253034530382399"><ele>486.0</ele><time>2026-04-19T11:03:08.999Z</time></trkpt><trkpt lat="44.89101544630092" lon="7.252774739050399"><ele>489.0</ele><time>2026-04-19T11:03:09.999Z</time></trkpt><trkpt lat="44.89100494938002" lon="7.252511153056315"><ele>492.0</ele><time>2026-04-19T11:03:10.999Z</time></trkpt><trkpt lat="44.89097945311447" lon="7.252249735188836"><ele>495.66666666666663</ele><time>2026-04-19T11:03:11.999Z</time></trkpt><trkpt lat="44.89094641349865" lon="7.251989239066311"><ele>499.3333333333333</ele><time>2026-04-19T11:03:12.999Z</time></trkpt><trkpt lat="44.89091558047473" lon="7.251724538765499"><ele>503.0</ele><time>2026-04-19T11:03:13.999Z</time></trkpt><trkpt lat="44.890883005163175" lon="7.251454604251284"><ele>486.66666666666663</ele><time>2026-04-19T11:03:14.999Z</time></trkpt><trkpt lat="44.890850859650506" lon="7.251193050410529"><ele>470.33333333333337</ele><time>2026-04-19T11:03:15.999Z</time></trkpt><trkpt lat="44.89082109836888" lon="7.250935780960405"><ele>454.0</ele><time>2026-04-19T11:03:16.999Z</time></trkpt><trkpt lat="44.89081529247979" lon="7.25067321374246"><ele>454.33333333333337</ele><time>2026-04-19T11:03:17.999Z</time></trkpt><trkpt lat="44.89078377222427" lon="7.250406177162561"><ele>454.66666666666663</ele><time>2026-04-19T11:03:18.999Z</time></trkpt><trkpt lat="44.89075245627406" lon="7.250141257628698"><ele>455.0</ele><time>2026-04-19T11:03:19.999Z</time></trkpt><trkpt lat="44.890720569696704" lon="7.249874524648662"><ele>454.0</ele><time>2026-04-19T11:03:20.999Z</time></trkpt><trkpt lat="44.8906899070309" lon="7.249617829908189"><ele>453.0</ele><time>2026-04-19T11:03:21.999Z</time></trkpt><trkpt lat="44.8906591373725" lon="7.249360239387335"><ele>452.0</ele><time>2026-04-19T11:03:22.999Z</time></trkpt><trkpt lat="44.89060892820175" lon="7.24910811892501"><ele>452.0</ele><time>2026-04-19T11:03:23.999Z</time></trkpt><trkpt lat="44.89058238234572" lon="7.248858989899303"><ele>452.0</ele><time>2026-04-19T11:03:24.999Z</time></trkpt><trkpt lat="44.89056708040822" lon="7.248612590436858"><ele>452.0</ele><time>2026-04-19T11:03:25.999Z</time></trkpt><trkpt lat="44.89056673951785" lon="7.248365220085255"><ele>452.0</ele><time>2026-04-19T11:03:26.999Z</time></trkpt><trkpt lat="44.890594122235996" lon="7.248117750892734"><ele>452.0</ele><time>2026-04-19T11:03:27.999Z</time></trkpt><trkpt lat="44.890601391912135" lon="7.247870281664428"><ele>452.0</ele><time>2026-04-19T11:03:28.999Z</time></trkpt><trkpt lat="44.890656040021284" lon="7.2476291948553415"><ele>452.0</ele><time>2026-04-19T11:03:29.999Z</time></trkpt><trkpt lat="44.89071247634824" lon="7.247394697460758"><ele>452.0</ele><time>2026-04-19T11:03:30.999Z</time></trkpt><trkpt lat="44.89078872532316" lon="7.2471660916755924"><ele>452.0</ele><time>2026-04-19T11:03:31.999Z</time></trkpt><trkpt lat="44.8908787298261" lon="7.246936366970414"><ele>452.3333333333333</ele><time>2026-04-19T11:03:32.999Z</time></trkpt><trkpt lat="44.89097869905326" lon="7.2467016995798526"><ele>452.66666666666663</ele><time>2026-04-19T11:03:33.999Z</time></trkpt><trkpt lat="44.89107515634817" lon="7.24646156949769"><ele>453.0</ele><time>2026-04-19T11:03:34.999Z</time></trkpt><trkpt lat="44.89118843737565" lon="7.246248796976828"><ele>453.0</ele><time>2026-04-19T11:03:35.999Z</time></trkpt><trkpt lat="44.89129537232424" lon="7.246040826936384"><ele>453.0</ele><time>2026-04-19T11:03:36.999Z</time></trkpt><trkpt lat="44.89140177494568" lon="7.24583710653213"><ele>453.0</ele><time>2026-04-19T11:03:37.999Z</time></trkpt><trkpt lat="44.89151073471119" lon="7.245636221303977"><ele>453.66666666666663</ele><time>2026-04-19T11:03:38.999Z</time></trkpt><trkpt lat="44.89161926976776" lon="7.245459351788064"><ele>454.3333333333333</ele><time>2026-04-19T11:03:39.999Z</time></trkpt><trkpt lat="44.89174566855724" lon="7.245320144707648"><ele>455.0</ele><time>2026-04-19T11:03:40.999Z</time></trkpt><trkpt lat="44.89186062552452" lon="7.2451533552319285"><ele>455.0</ele><time>2026-04-19T11:03:41.999Z</time></trkpt><trkpt lat="44.891993945602216" lon="7.24500775357238"><ele>455.0</ele><time>2026-04-19T11:03:42.999Z</time></trkpt><trkpt lat="44.89212749610923" lon="7.244865382797578"><ele>455.0</ele><time>2026-04-19T11:03:43.999Z</time></trkpt><trkpt lat="44.89226416407113" lon="7.244713822545814"><ele>455.0</ele><time>2026-04-19T11:03:44.999Z</time></trkpt><trkpt lat="44.89237506951882" lon="7.244533012598575"><ele>455.0</ele><time>2026-04-19T11:03:45.999Z</time></trkpt><trkpt lat="44.892472358726565" lon="7.244364618053114"><ele>455.0</ele><time>2026-04-19T11:03:46.999Z</time></trkpt><trkpt lat="44.89257740994841" lon="7.244269613517397"><ele>455.0</ele><time>2026-04-19T11:03:47.999Z</time></trkpt><trkpt lat="44.89270925023277" lon="7.244265470177763"><ele>457.0</ele><time>2026-04-19T11:03:48.999Z</time></trkpt><trkpt lat="44.892855071319794" lon="7.244228524820287"><ele>459.0</ele><time>2026-04-19T11:03:49.999Z</time></trkpt><trkpt lat="44.89301993490414" lon="7.244226510928027"><ele>461.0</ele><time>2026-04-19T11:03:50.999Z</time></trkpt><trkpt lat="44.89320196164606" lon="7.244250528639172"><ele>461.0</ele><time>2026-04-19T11:03:51.999Z</time></trkpt><trkpt lat="44.89336908681391" lon="7.244260265334414"><ele>461.0</ele><time>2026-04-19T11:03:52.999Z</time></trkpt><trkpt lat="44.89355021813368" lon="7.244280340080907"><ele>461.0</ele><time>2026-04-19T11:03:53.999Z</time></trkpt><trkpt lat="44.89373311751165" lon="7.244313156652534"><ele>461.0</ele><time>2026-04-19T11:03:54.999Z</time></trkpt><trkpt lat="44.893924132453265" lon="7.244349597423454"><ele>461.0</ele><time>2026-04-19T11:03:55.999Z</time></trkpt><trkpt lat="44.8941222705869" lon="7.244380512852775"><ele>461.0</ele><time>2026-04-19T11:03:56.999Z</time></trkpt><trkpt lat="44.8943248179566" lon="7.244418101195999"><ele>461.0</ele><time>2026-04-19T11:03:57.999Z</time></trkpt><trkpt lat="44.89452818450966" lon="7.244453751558242"><ele>461.0</ele><time>2026-04-19T11:03:58.999Z</time></trkpt><trkpt lat="44.89473239884682" lon="7.24449201665127"><ele>461.0</ele><time>2026-04-19T11:03:59.999Z</time></trkpt><trkpt lat="44.89494048936058" lon="7.244532435210663"><ele>460.66666666666663</ele><time>2026-04-19T11:04:00.998Z</time></trkpt><trkpt lat="44.895147045301805" lon="7.244571353817033"><ele>460.33333333333337</ele><time>2026-04-19T11:04:01.998Z</time></trkpt><trkpt lat="44.895345374248905" lon="7.244610558926816"><ele>460.0</ele><time>2026-04-19T11:04:02.998Z</time></trkpt><trkpt lat="44.89553951519408" lon="7.244648549683881"><ele>460.0</ele><time>2026-04-19T11:04:03.998Z</time></trkpt><trkpt lat="44.895716916405156" lon="7.244685431185709"><ele>460.0</ele><time>2026-04-19T11:04:04.998Z</time></trkpt><trkpt lat="44.895880392692696" lon="7.244720275631554"><ele>460.0</ele><time>2026-04-19T11:04:05.998Z</time></trkpt><trkpt lat="44.89604265915385" lon="7.244763147991975"><ele>464.0</ele><time>2026-04-19T11:04:06.998Z</time></trkpt><trkpt lat="44.89618959050362" lon="7.244801349182216"><ele>468.0</ele><time>2026-04-19T11:04:07.999Z</time></trkpt><trkpt lat="44.896319903321256" lon="7.2448556610443635"><ele>472.0</ele><time>2026-04-19T11:04:08.999Z</time></trkpt><trkpt lat="44.8964229680869" lon="7.244914710267693"><ele>476.0</ele><time>2026-04-19T11:04:09.999Z</time></trkpt><trkpt lat="44.89650316109281" lon="7.244987416154086"><ele>476.0</ele><time>2026-04-19T11:04:10.999Z</time></trkpt><trkpt lat="44.896574560675695" lon="7.245047938543166"><ele>476.0</ele><time>2026-04-19T11:04:11.999Z</time></trkpt><trkpt lat="44.89667025004405" lon="7.245006429867829"><ele>476.0</ele><time>2026-04-19T11:04:13.999Z</time></trkpt><trkpt lat="44.896666291551625" lon="7.244815355827454"><ele>476.0</ele><time>2026-04-19T11:04:15.999Z</time></trkpt><trkpt lat="44.89665642747386" lon="7.244687851344763"><ele>476.0</ele><time>2026-04-19T11:04:16.999Z</time></trkpt><trkpt lat="44.89668811215592" lon="7.244548479983962"><ele>472.75</ele><time>2026-04-19T11:04:17.999Z</time></trkpt><trkpt lat="44.8967489612589" lon="7.24439531700393"><ele>469.5</ele><time>2026-04-19T11:04:18.999Z</time></trkpt><trkpt lat="44.896811426582815" lon="7.2442292728236595"><ele>466.25</ele><time>2026-04-19T11:04:19.999Z</time></trkpt><trkpt lat="44.896877553356376" lon="7.244048579171994"><ele>463.0</ele><time>2026-04-19T11:04:20.999Z</time></trkpt><trkpt lat="44.896957469580165" lon="7.243867535306423"><ele>463.0</ele><time>2026-04-19T11:04:21.999Z</time></trkpt><trkpt lat="44.89704931310225" lon="7.243687920303894"><ele>463.0</ele><time>2026-04-19T11:04:22.999Z</time></trkpt><trkpt lat="44.89713624313297" lon="7.243504600408143"><ele>463.0</ele><time>2026-04-19T11:04:23.999Z</time></trkpt><trkpt lat="44.89722608893377" lon="7.243336943599759"><ele>463.0</ele><time>2026-04-19T11:04:24.999Z</time></trkpt><trkpt lat="44.89730717616462" lon="7.243174631044792"><ele>463.0</ele><time>2026-04-19T11:04:25.999Z</time></trkpt><trkpt lat="44.89737739653599" lon="7.243030912416875"><ele>463.0</ele><time>2026-04-19T11:04:26.999Z</time></trkpt><trkpt lat="44.89743489982639" lon="7.242891683472006"><ele>463.0</ele><time>2026-04-19T11:04:27.999Z</time></trkpt><trkpt lat="44.897471938539006" lon="7.242764420089153"><ele>463.83333333333337</ele><time>2026-04-19T11:04:28.999Z</time></trkpt><trkpt lat="44.897498830018684" lon="7.242646139651926"><ele>464.6666666666667</ele><time>2026-04-19T11:04:29.999Z</time></trkpt><trkpt lat="44.897513264144294" lon="7.242538414292485"><ele>465.5</ele><time>2026-04-19T11:04:30.999Z</time></trkpt><trkpt lat="44.89751922483548" lon="7.242447597445836"><ele>466.33333333333337</ele><time>2026-04-19T11:04:31.999Z</time></trkpt><trkpt lat="44.8976446314661" lon="7.242473556420692"><ele>467.1666666666667</ele><time>2026-04-19T11:04:35.999Z</time></trkpt><trkpt lat="44.89771440612574" lon="7.242481440772398"><ele>468.0</ele><time>2026-04-19T11:04:36.999Z</time></trkpt><trkpt lat="44.89779338763655" lon="7.242498571781113"><ele>469.0</ele><time>2026-04-19T11:04:37.999Z</time></trkpt><trkpt lat="44.897886400646314" lon="7.24251807419608"><ele>470.0</ele><time>2026-04-19T11:04:38.999Z</time></trkpt><trkpt lat="44.897998305485636" lon="7.242516238081089"><ele>471.0</ele><time>2026-04-19T11:04:39.999Z</time></trkpt><trkpt lat="44.89812129186214" lon="7.2425190136417"><ele>472.0</ele><time>2026-04-19T11:04:40.999Z</time></trkpt><trkpt lat="44.89825014201126" lon="7.242573258542228"><ele>472.0</ele><time>2026-04-19T11:04:41.999Z</time></trkpt><trkpt lat="44.89836670280703" lon="7.2426062117541825"><ele>472.0</ele><time>2026-04-19T11:04:42.999Z</time></trkpt><trkpt lat="44.89849966817717" lon="7.2426400366420856"><ele>472.0</ele><time>2026-04-19T11:04:43.999Z</time></trkpt><trkpt lat="44.89862586681564" lon="7.242701208909441"><ele>472.0</ele><time>2026-04-19T11:04:44.999Z</time></trkpt><trkpt lat="44.89874712765177" lon="7.242773906314897"><ele>472.0</ele><time>2026-04-19T11:04:45.999Z</time></trkpt><trkpt lat="44.898888882793926" lon="7.242846034991287"><ele>472.0</ele><time>2026-04-19T11:04:46.999Z</time></trkpt><trkpt lat="44.89901723739665" lon="7.242891150493307"><ele>472.0</ele><time>2026-04-19T11:04:47.999Z</time></trkpt><trkpt lat="44.89913813953525" lon="7.242925463184718"><ele>472.0</ele><time>2026-04-19T11:04:48.999Z</time></trkpt><trkpt lat="44.899273259296216" lon="7.24294276398268"><ele>470.75</ele><time>2026-04-19T11:04:49.999Z</time></trkpt><trkpt lat="44.89941962730825" lon="7.242959009325003"><ele>469.5</ele><time>2026-04-19T11:04:50.999Z</time></trkpt><trkpt lat="44.89955803388985" lon="7.242978216526236"><ele>468.25</ele><time>2026-04-19T11:04:51.999Z</time></trkpt><trkpt lat="44.89969204688398" lon="7.243016158795876"><ele>467.0</ele><time>2026-04-19T11:04:52.999Z</time></trkpt><trkpt lat="44.89983538787623" lon="7.243057778690148"><ele>467.0</ele><time>2026-04-19T11:04:53.999Z</time></trkpt><trkpt lat="44.89997233392899" lon="7.243102651401404"><ele>467.0</ele><time>2026-04-19T11:04:54.999Z</time></trkpt><trkpt lat="44.90011433302287" lon="7.243142476761466"><ele>467.0</ele><time>2026-04-19T11:04:55.999Z</time></trkpt><trkpt lat="44.900243670996154" lon="7.243178192273215"><ele>467.0</ele><time>2026-04-19T11:04:56.999Z</time></trkpt><trkpt lat="44.90033830927831" lon="7.24320272797369"><ele>468.25</ele><time>2026-04-19T11:04:57.999Z</time></trkpt><trkpt lat="44.90041565786333" lon="7.243237821755278"><ele>469.5</ele><time>2026-04-19T11:04:58.999Z</time></trkpt><trkpt lat="44.90049805103543" lon="7.243418802088855"><ele>470.75</ele><time>2026-04-19T11:05:00.999Z</time></trkpt><trkpt lat="44.900539788658094" lon="7.24357448392945"><ele>472.0</ele><time>2026-04-19T11:05:01.999Z</time></trkpt><trkpt lat="44.9005957561837" lon="7.243733914528378"><ele>472.0</ele><time>2026-04-19T11:05:02.999Z</time></trkpt><trkpt lat="44.900661403275826" lon="7.24388981757706"><ele>472.0</ele><time>2026-04-19T11:05:03.999Z</time></trkpt><trkpt lat="44.90072749961102" lon="7.24406004948517"><ele>472.0</ele><time>2026-04-19T11:05:04.999Z</time></trkpt><trkpt lat="44.90081380876692" lon="7.2442218763288295"><ele>472.0</ele><time>2026-04-19T11:05:05.999Z</time></trkpt><trkpt lat="44.90091244833585" lon="7.244379144756449"><ele>472.20000000000005</ele><time>2026-04-19T11:05:06.999Z</time></trkpt><trkpt lat="44.90098857420993" lon="7.24448833815899"><ele>472.40000000000003</ele><time>2026-04-19T11:05:07.999Z</time></trkpt><trkpt lat="44.901070613238076" lon="7.2445519229722874"><ele>472.59999999999997</ele><time>2026-04-19T11:05:08.999Z</time></trkpt><trkpt lat="44.90117168531582" lon="7.244617530568118"><ele>472.79999999999995</ele><time>2026-04-19T11:05:09.999Z</time></trkpt><trkpt lat="44.901285201857625" lon="7.244671204822519"><ele>473.0</ele><time>2026-04-19T11:05:10.999Z</time></trkpt><trkpt lat="44.90141171211011" lon="7.24472338398028"><ele>472.3333333333333</ele><time>2026-04-19T11:05:11.999Z</time></trkpt><trkpt lat="44.90155073740207" lon="7.244805917046901"><ele>471.66666666666663</ele><time>2026-04-19T11:05:12.999Z</time></trkpt><trkpt lat="44.90169582939585" lon="7.244875110302657"><ele>471.0</ele><time>2026-04-19T11:05:13.999Z</time></trkpt><trkpt lat="44.90186959121267" lon="7.244923976377568"><ele>471.0</ele><time>2026-04-19T11:05:14.999Z</time></trkpt><trkpt lat="44.90204909932887" lon="7.244951563432964"><ele>471.0</ele><time>2026-04-19T11:05:15.999Z</time></trkpt><trkpt lat="44.902212854343134" lon="7.244987353034207"><ele>471.0</ele><time>2026-04-19T11:05:16.999Z</time></trkpt><trkpt lat="44.90235382147581" lon="7.245024030743142"><ele>471.0</ele><time>2026-04-19T11:05:17.999Z</time></trkpt><trkpt lat="44.902487754447954" lon="7.245087207310499"><ele>471.0</ele><time>2026-04-19T11:05:18.999Z</time></trkpt><trkpt lat="44.902621744841696" lon="7.245180969255171"><ele>471.0</ele><time>2026-04-19T11:05:19.999Z</time></trkpt><trkpt lat="44.902742817226056" lon="7.245276139675497"><ele>471.0</ele><time>2026-04-19T11:05:20.999Z</time></trkpt><trkpt lat="44.90285330293501" lon="7.245342193009905"><ele>472.0</ele><time>2026-04-19T11:05:21.999Z</time></trkpt><trkpt lat="44.90295686168727" lon="7.245394539433342"><ele>473.0</ele><time>2026-04-19T11:05:22.999Z</time></trkpt><trkpt lat="44.9030369731773" lon="7.2454202840721615"><ele>474.0</ele><time>2026-04-19T11:05:23.999Z</time></trkpt><trkpt lat="44.90310261899582" lon="7.245484631552716"><ele>475.0</ele><time>2026-04-19T11:05:24.999Z</time></trkpt><trkpt lat="44.90318667187993" lon="7.245550119227666"><ele>476.0</ele><time>2026-04-19T11:05:25.999Z</time></trkpt><trkpt lat="44.90328713989253" lon="7.245609151290095"><ele>475.75</ele><time>2026-04-19T11:05:26.999Z</time></trkpt><trkpt lat="44.90339533268183" lon="7.245651123170134"><ele>475.5</ele><time>2026-04-19T11:05:27.999Z</time></trkpt><trkpt lat="44.90352385516237" lon="7.245686642874084"><ele>475.25</ele><time>2026-04-19T11:05:28.999Z</time></trkpt><trkpt lat="44.90365896768324" lon="7.245713022239789"><ele>475.0</ele><time>2026-04-19T11:05:29.999Z</time></trkpt><trkpt lat="44.90379430673471" lon="7.245719525831774"><ele>475.0</ele><time>2026-04-19T11:05:30.999Z</time></trkpt><trkpt lat="44.90392923553258" lon="7.245717830075034"><ele>475.0</ele><time>2026-04-19T11:05:31.999Z</time></trkpt><trkpt lat="44.90407641608288" lon="7.245721977179925"><ele>475.0</ele><time>2026-04-19T11:05:32.999Z</time></trkpt><trkpt lat="44.904222331553534" lon="7.245721272414154"><ele>475.0</ele><time>2026-04-19T11:05:33.999Z</time></trkpt><trkpt lat="44.904374625260736" lon="7.245739232631948"><ele>475.33333333333337</ele><time>2026-04-19T11:05:34.999Z</time></trkpt><trkpt lat="44.90452221502553" lon="7.245764490818738"><ele>475.66666666666663</ele><time>2026-04-19T11:05:35.999Z</time></trkpt><trkpt lat="44.90467792814984" lon="7.245791600967966"><ele>476.0</ele><time>2026-04-19T11:05:36.999Z</time></trkpt><trkpt lat="44.9048281921909" lon="7.245827484477691"><ele>476.0</ele><time>2026-04-19T11:05:37.999Z</time></trkpt><trkpt lat="44.904978488421214" lon="7.245873118971382"><ele>476.0</ele><time>2026-04-19T11:05:38.999Z</time></trkpt><trkpt lat="44.90512776929097" lon="7.245924188894531"><ele>476.0</ele><time>2026-04-19T11:05:39.999Z</time></trkpt><trkpt lat="44.90527393624296" lon="7.245971920962824"><ele>477.0</ele><time>2026-04-19T11:05:40.999Z</time></trkpt><trkpt lat="44.9054197824662" lon="7.246014268898586"><ele>478.0</ele><time>2026-04-19T11:05:41.999Z</time></trkpt><trkpt lat="44.90556394937477" lon="7.246058729983529"><ele>479.0</ele><time>2026-04-19T11:05:42.999Z</time></trkpt><trkpt lat="44.9056998996467" lon="7.246086140596022"><ele>480.0</ele><time>2026-04-19T11:05:43.999Z</time></trkpt><trkpt lat="44.90584805015727" lon="7.246079500261405"><ele>479.0</ele><time>2026-04-19T11:05:44.999Z</time></trkpt><trkpt lat="44.905995515767266" lon="7.246056712442743"><ele>478.0</ele><time>2026-04-19T11:05:45.999Z</time></trkpt><trkpt lat="44.90614008346238" lon="7.246057209575577"><ele>477.0</ele><time>2026-04-19T11:05:46.999Z</time></trkpt><trkpt lat="44.90628758163157" lon="7.246084050836971"><ele>476.0</ele><time>2026-04-19T11:05:47.999Z</time></trkpt><trkpt lat="44.90642314984582" lon="7.246099869783147"><ele>476.0</ele><time>2026-04-19T11:05:48.999Z</time></trkpt><trkpt lat="44.906539479781664" lon="7.246076371751757"><ele>476.0</ele><time>2026-04-19T11:05:49.999Z</time></trkpt><trkpt lat="44.90665130279514" lon="7.246061376509101"><ele>476.0</ele><time>2026-04-19T11:05:50.999Z</time></trkpt><trkpt lat="44.906747109596225" lon="7.246031356236703"><ele>476.0</ele><time>2026-04-19T11:05:51.999Z</time></trkpt><trkpt lat="44.90683233067092" lon="7.245962749130126"><ele>476.0</ele><time>2026-04-19T11:05:52.999Z</time></trkpt><trkpt lat="44.90692277676815" lon="7.24585722306016"><ele>476.0</ele><time>2026-04-19T11:05:53.999Z</time></trkpt><trkpt lat="44.90701820046296" lon="7.245734070439091"><ele>476.0</ele><time>2026-04-19T11:05:54.999Z</time></trkpt><trkpt lat="44.90712460589772" lon="7.245620213285003"><ele>476.0</ele><time>2026-04-19T11:05:55.999Z</time></trkpt><trkpt lat="44.90723029657494" lon="7.245511838520872"><ele>476.0</ele><time>2026-04-19T11:05:56.999Z</time></trkpt><trkpt lat="44.907322077142794" lon="7.245424745122111"><ele>476.0</ele><time>2026-04-19T11:05:57.999Z</time></trkpt><trkpt lat="44.90740090023501" lon="7.245327826672209"><ele>476.0</ele><time>2026-04-19T11:05:58.999Z</time></trkpt><trkpt lat="44.90747828630575" lon="7.245228850454035"><ele>476.0</ele><time>2026-04-19T11:05:59.999Z</time></trkpt><trkpt lat="44.907561938337324" lon="7.245141132180909"><ele>476.0</ele><time>2026-04-19T11:06:00.999Z</time></trkpt><trkpt lat="44.90765821409837" lon="7.245051986595344"><ele>476.0</ele><time>2026-04-19T11:06:01.999Z</time></trkpt><trkpt lat="44.90775131646067" lon="7.244968030648878"><ele>475.75</ele><time>2026-04-19T11:06:02.999Z</time></trkpt><trkpt lat="44.9078548335598" lon="7.244879874277443"><ele>475.5</ele><time>2026-04-19T11:06:03.999Z</time></trkpt><trkpt lat="44.90796034354557" lon="7.244788999784406"><ele>475.25</ele><time>2026-04-19T11:06:04.999Z</time></trkpt><trkpt lat="44.90807306980929" lon="7.244696718544365"><ele>475.0</ele><time>2026-04-19T11:06:05.999Z</time></trkpt><trkpt lat="44.90819077389403" lon="7.2445996459161295"><ele>475.0</ele><time>2026-04-19T11:06:06.999Z</time></trkpt><trkpt lat="44.908311626023306" lon="7.244506909067878"><ele>475.0</ele><time>2026-04-19T11:06:07.999Z</time></trkpt><trkpt lat="44.908442615471024" lon="7.244414007752949"><ele>475.0</ele><time>2026-04-19T11:06:08.999Z</time></trkpt><trkpt lat="44.90857281206031" lon="7.244321741802776"><ele>475.0</ele><time>2026-04-19T11:06:09.999Z</time></trkpt><trkpt lat="44.90871731579139" lon="7.244238452702813"><ele>475.0</ele><time>2026-04-19T11:06:10.999Z</time></trkpt><trkpt lat="44.908866904037666" lon="7.244162767538335"><ele>475.0</ele><time>2026-04-19T11:06:11.999Z</time></trkpt><trkpt lat="44.909009999024484" lon="7.2440939544031835"><ele>475.0</ele><time>2026-04-19T11:06:12.999Z</time></trkpt><trkpt lat="44.909147229340206" lon="7.244028919352932"><ele>477.0</ele><time>2026-04-19T11:06:13.999Z</time></trkpt><trkpt lat="44.90930276099506" lon="7.243958558712299"><ele>479.0</ele><time>2026-04-19T11:06:14.999Z</time></trkpt><trkpt lat="44.90944934691164" lon="7.243894122306239"><ele>481.0</ele><time>2026-04-19T11:06:15.999Z</time></trkpt><trkpt lat="44.909597341673354" lon="7.243831025768733"><ele>481.0</ele><time>2026-04-19T11:06:16.999Z</time></trkpt><trkpt lat="44.90974732126034" lon="7.243765685236879"><ele>481.0</ele><time>2026-04-19T11:06:17.999Z</time></trkpt><trkpt lat="44.90988745028336" lon="7.243698351853453"><ele>481.0</ele><time>2026-04-19T11:06:18.999Z</time></trkpt><trkpt lat="44.91002275375548" lon="7.243641973829909"><ele>481.0</ele><time>2026-04-19T11:06:19.999Z</time></trkpt><trkpt lat="44.91015579440152" lon="7.243591566891095"><ele>482.75</ele><time>2026-04-19T11:06:20.999Z</time></trkpt><trkpt lat="44.91029415815824" lon="7.2435693574118405"><ele>484.5</ele><time>2026-04-19T11:06:21.999Z</time></trkpt><trkpt lat="44.91043153758893" lon="7.243535275551129"><ele>486.25</ele><time>2026-04-19T11:06:22.999Z</time></trkpt><trkpt lat="44.910568284703444" lon="7.243486348760221"><ele>488.0</ele><time>2026-04-19T11:06:24Z</time></trkpt><trkpt lat="44.91068355218691" lon="7.243438997070484"><ele>488.0</ele><time>2026-04-19T11:06:25Z</time></trkpt><trkpt lat="44.910774073463415" lon="7.243429384883948"><ele>487.99999999999994</ele><time>2026-04-19T11:06:26Z</time></trkpt><trkpt lat="44.91084761125998" lon="7.243436347214302"><ele>487.99999999999994</ele><time>2026-04-19T11:06:27Z</time></trkpt><trkpt lat="44.91095217219633" lon="7.243436690174208"><ele>488.0</ele><time>2026-04-19T11:06:28Z</time></trkpt><trkpt lat="44.91106560757113" lon="7.243430337083509"><ele>488.0</ele><time>2026-04-19T11:06:29Z</time></trkpt><trkpt lat="44.91116967875232" lon="7.243440559567688"><ele>489.16666666666663</ele><time>2026-04-19T11:06:30Z</time></trkpt><trkpt lat="44.911253041371694" lon="7.2434505902937145"><ele>490.3333333333333</ele><time>2026-04-19T11:06:31Z</time></trkpt><trkpt lat="44.91131714203372" lon="7.243442971461579"><ele>491.5</ele><time>2026-04-19T11:06:32Z</time></trkpt><trkpt lat="44.91137731363612" lon="7.243409586915657"><ele>492.66666666666663</ele><time>2026-04-19T11:06:33Z</time></trkpt><trkpt lat="44.911436878941196" lon="7.243373286880813"><ele>493.8333333333333</ele><time>2026-04-19T11:06:34Z</time></trkpt><trkpt lat="44.911521097400716" lon="7.243312007113538"><ele>495.0</ele><time>2026-04-19T11:06:35Z</time></trkpt><trkpt lat="44.911598095825624" lon="7.2432415264324055"><ele>495.0</ele><time>2026-04-19T11:06:36Z</time></trkpt><trkpt lat="44.911685545231755" lon="7.243173424850772"><ele>495.0</ele><time>2026-04-19T11:06:37Z</time></trkpt><trkpt lat="44.9117517286362" lon="7.243152155251189"><ele>495.0</ele><time>2026-04-19T11:06:38Z</time></trkpt><trkpt lat="44.911824507822544" lon="7.243149239318123"><ele>495.0</ele><time>2026-04-19T11:06:39Z</time></trkpt><trkpt lat="44.91191452440327" lon="7.243154976266807"><ele>495.0</ele><time>2026-04-19T11:06:41Z</time></trkpt><trkpt lat="44.91194183939408" lon="7.24304413224911"><ele>495.0</ele><time>2026-04-19T11:06:43Z</time></trkpt><trkpt lat="44.91193914729064" lon="7.242953876182326"><ele>498.0</ele><time>2026-04-19T11:06:44Z</time></trkpt><trkpt lat="44.911891389557184" lon="7.242814307943151"><ele>501.0</ele><time>2026-04-19T11:06:46Z</time></trkpt><trkpt lat="44.91179365928571" lon="7.242731396106681"><ele>504.0</ele><time>2026-04-19T11:06:48Z</time></trkpt><trkpt lat="44.91169632103292" lon="7.242707101579111"><ele>507.0</ele><time>2026-04-19T11:06:49Z</time></trkpt><trkpt lat="44.91159969610655" lon="7.242688043360836"><ele>510.0</ele><time>2026-04-19T11:06:50Z</time></trkpt><trkpt lat="44.91150207250101" lon="7.242649662992181"><ele>510.0</ele><time>2026-04-19T11:06:51Z</time></trkpt><trkpt lat="44.91141586476691" lon="7.242599679152035"><ele>510.0</ele><time>2026-04-19T11:06:52Z</time></trkpt><trkpt lat="44.91130638844267" lon="7.242534167974428"><ele>510.0</ele><time>2026-04-19T11:06:53Z</time></trkpt><trkpt lat="44.91118064603368" lon="7.242477584980102"><ele>510.0</ele><time>2026-04-19T11:06:54Z</time></trkpt><trkpt lat="44.91104961740074" lon="7.242459112818783"><ele>510.0</ele><time>2026-04-19T11:06:55Z</time></trkpt><trkpt lat="44.91090944004395" lon="7.242479334834201"><ele>510.0</ele><time>2026-04-19T11:06:56Z</time></trkpt><trkpt lat="44.91076870892702" lon="7.242526119408226"><ele>510.0</ele><time>2026-04-19T11:06:57Z</time></trkpt><trkpt lat="44.91063651831681" lon="7.242585814902613"><ele>510.0</ele><time>2026-04-19T11:06:58Z</time></trkpt><trkpt lat="44.91050775026811" lon="7.242652846931983"><ele>508.25</ele><time>2026-04-19T11:06:59Z</time></trkpt><trkpt lat="44.910381736784565" lon="7.24271279847956"><ele>506.5</ele><time>2026-04-19T11:07:00Z</time></trkpt><trkpt lat="44.91026645999331" lon="7.242744597168324"><ele>504.75</ele><time>2026-04-19T11:07:01Z</time></trkpt><trkpt lat="44.910147105144226" lon="7.242753081950684"><ele>503.0</ele><time>2026-04-19T11:07:02Z</time></trkpt><trkpt lat="44.910017123959385" lon="7.242729366419592"><ele>502.75</ele><time>2026-04-19T11:07:03Z</time></trkpt><trkpt lat="44.909883310155095" lon="7.242693781502975"><ele>502.5</ele><time>2026-04-19T11:07:04Z</time></trkpt><trkpt lat="44.90976307398565" lon="7.242617295412263"><ele>502.25</ele><time>2026-04-19T11:07:05Z</time></trkpt><trkpt lat="44.909630761889716" lon="7.242559832571764"><ele>502.0</ele><time>2026-04-19T11:07:06Z</time></trkpt><trkpt lat="44.90950635831174" lon="7.242470260442236"><ele>502.0</ele><time>2026-04-19T11:07:07Z</time></trkpt><trkpt lat="44.909387575113676" lon="7.2423571655013"><ele>502.0</ele><time>2026-04-19T11:07:08Z</time></trkpt><trkpt lat="44.90928194362152" lon="7.2422363011132935"><ele>502.0</ele><time>2026-04-19T11:07:09Z</time></trkpt><trkpt lat="44.90917099723226" lon="7.242114012900786"><ele>502.0</ele><time>2026-04-19T11:07:10Z</time></trkpt><trkpt lat="44.909044613347795" lon="7.242001971980678"><ele>504.75</ele><time>2026-04-19T11:07:11Z</time></trkpt><trkpt lat="44.908921088196955" lon="7.241902327635623"><ele>507.5</ele><time>2026-04-19T11:07:12Z</time></trkpt><trkpt lat="44.90881448188832" lon="7.241813397672304"><ele>510.25</ele><time>2026-04-19T11:07:13Z</time></trkpt><trkpt lat="44.90870448661563" lon="7.241728025473139"><ele>513.0</ele><time>2026-04-19T11:07:14Z</time></trkpt><trkpt lat="44.90859534006242" lon="7.24162588735021"><ele>513.0</ele><time>2026-04-19T11:07:15Z</time></trkpt><trkpt lat="44.90849380108291" lon="7.241526882703535"><ele>513.0</ele><time>2026-04-19T11:07:16Z</time></trkpt><trkpt lat="44.90840554304026" lon="7.2414402821131345"><ele>513.0</ele><time>2026-04-19T11:07:17Z</time></trkpt><trkpt lat="44.908338352590015" lon="7.241356714393497"><ele>513.0</ele><time>2026-04-19T11:07:18Z</time></trkpt><trkpt lat="44.90829790259642" lon="7.241262199140652"><ele>513.0</ele><time>2026-04-19T11:07:19Z</time></trkpt><trkpt lat="44.90826810432464" lon="7.241139665911738"><ele>512.6</ele><time>2026-04-19T11:07:20Z</time></trkpt><trkpt lat="44.90823679348345" lon="7.240998172419562"><ele>512.1999999999999</ele><time>2026-04-19T11:07:21Z</time></trkpt><trkpt lat="44.90819698784535" lon="7.240863830925589"><ele>511.8</ele><time>2026-04-19T11:07:22Z</time></trkpt><trkpt lat="44.90816566872277" lon="7.240769596586331"><ele>511.4</ele><time>2026-04-19T11:07:23Z</time></trkpt><trkpt lat="44.90816097245332" lon="7.240660022462911"><ele>511.0</ele><time>2026-04-19T11:07:25Z</time></trkpt><trkpt lat="44.90834725325086" lon="7.240666195798321"><ele>512.8</ele><time>2026-04-19T11:07:28Z</time></trkpt><trkpt lat="44.90844173426551" lon="7.240634626221174"><ele>514.6</ele><time>2026-04-19T11:07:29Z</time></trkpt><trkpt lat="44.908528430579366" lon="7.240570843964763"><ele>516.4</ele><time>2026-04-19T11:07:30Z</time></trkpt><trkpt lat="44.908621460323566" lon="7.240524384445739"><ele>518.2</ele><time>2026-04-19T11:07:31Z</time></trkpt><trkpt lat="44.908698892137394" lon="7.2404317318964395"><ele>520.0</ele><time>2026-04-19T11:07:32Z</time></trkpt><trkpt lat="44.908781653309475" lon="7.24039282843562"><ele>521.5</ele><time>2026-04-19T11:07:33Z</time></trkpt><trkpt lat="44.908859041541426" lon="7.24037122575218"><ele>523.0</ele><time>2026-04-19T11:07:34Z</time></trkpt><trkpt lat="44.908953910513006" lon="7.240379951649699"><ele>524.5</ele><time>2026-04-19T11:07:35Z</time></trkpt><trkpt lat="44.909047841592525" lon="7.240344578072711"><ele>526.0</ele><time>2026-04-19T11:07:36Z</time></trkpt><trkpt lat="44.909129268100685" lon="7.240323920350909"><ele>527.5</ele><time>2026-04-19T11:07:37Z</time></trkpt><trkpt lat="44.90922091150508" lon="7.240318408426567"><ele>529.0</ele><time>2026-04-19T11:07:38Z</time></trkpt><trkpt lat="44.909301846047384" lon="7.240379981345739"><ele>528.8333333333334</ele><time>2026-04-19T11:07:39Z</time></trkpt><trkpt lat="44.90936596767286" lon="7.2404615892312085"><ele>528.6666666666667</ele><time>2026-04-19T11:07:40Z</time></trkpt><trkpt lat="44.909438534552976" lon="7.240543637492347"><ele>528.5</ele><time>2026-04-19T11:07:41Z</time></trkpt><trkpt lat="44.90949115676513" lon="7.2406239956233645"><ele>528.3333333333334</ele><time>2026-04-19T11:07:42Z</time></trkpt><trkpt lat="44.909552115427516" lon="7.240659210590658"><ele>528.1666666666666</ele><time>2026-04-19T11:07:43Z</time></trkpt><trkpt lat="44.90965379122015" lon="7.240565294211667"><ele>528.0</ele><time>2026-04-19T11:07:45Z</time></trkpt><trkpt lat="44.90969050999502" lon="7.240476981258517"><ele>530.5</ele><time>2026-04-19T11:07:46Z</time></trkpt><trkpt lat="44.90973761365351" lon="7.240393844183891"><ele>533.0</ele><time>2026-04-19T11:07:47Z</time></trkpt><trkpt lat="44.90981568067915" lon="7.240356402640272"><ele>535.5</ele><time>2026-04-19T11:07:48Z</time></trkpt><trkpt lat="44.90989127718882" lon="7.240323679628227"><ele>538.0</ele><time>2026-04-19T11:07:49Z</time></trkpt><trkpt lat="44.90997879936938" lon="7.24029147539388"><ele>540.5</ele><time>2026-04-19T11:07:50Z</time></trkpt><trkpt lat="44.91008406206316" lon="7.240343356115567"><ele>543.0</ele><time>2026-04-19T11:07:51Z</time></trkpt><trkpt lat="44.91019525498759" lon="7.240372520356376"><ele>545.25</ele><time>2026-04-19T11:07:52Z</time></trkpt><trkpt lat="44.91031420292222" lon="7.24038237574155"><ele>547.5</ele><time>2026-04-19T11:07:53Z</time></trkpt><trkpt lat="44.91042774907297" lon="7.240417224847194"><ele>549.75</ele><time>2026-04-19T11:07:54Z</time></trkpt><trkpt lat="44.910543272370724" lon="7.240457784718898"><ele>552.0</ele><time>2026-04-19T11:07:55Z</time></trkpt><trkpt lat="44.91064853247535" lon="7.240516185949149"><ele>552.0</ele><time>2026-04-19T11:07:56Z</time></trkpt><trkpt lat="44.910741253193216" lon="7.240577025263239"><ele>552.0</ele><time>2026-04-19T11:07:57Z</time></trkpt><trkpt lat="44.91080529116748" lon="7.240613795558771"><ele>552.0</ele><time>2026-04-19T11:07:58Z</time></trkpt><trkpt lat="44.91086814241628" lon="7.240649036230698"><ele>552.0</ele><time>2026-04-19T11:07:59Z</time></trkpt><trkpt lat="44.910946725846394" lon="7.240580943151606"><ele>552.0</ele><time>2026-04-19T11:08:00Z</time></trkpt><trkpt lat="44.91103365807175" lon="7.240536223753278"><ele>552.0</ele><time>2026-04-19T11:08:01Z</time></trkpt><trkpt lat="44.911126004565006" lon="7.240497188396212"><ele>554.0</ele><time>2026-04-19T11:08:02Z</time></trkpt><trkpt lat="44.91120222130528" lon="7.240476557910851"><ele>556.0</ele><time>2026-04-19T11:08:03Z</time></trkpt><trkpt lat="44.911270903815016" lon="7.240479740955807"><ele>558.0</ele><time>2026-04-19T11:08:03.999Z</time></trkpt><trkpt lat="44.91135822810424" lon="7.240490126605838"><ele>560.0</ele><time>2026-04-19T11:08:04.999Z</time></trkpt><trkpt lat="44.911460593076754" lon="7.240495099888771"><ele>562.0</ele><time>2026-04-19T11:08:05.999Z</time></trkpt><trkpt lat="44.911566534271614" lon="7.240522990635622"><ele>564.0</ele><time>2026-04-19T11:08:06.999Z</time></trkpt><trkpt lat="44.91166374100414" lon="7.240586898114598"><ele>563.4</ele><time>2026-04-19T11:08:07.999Z</time></trkpt><trkpt lat="44.91176794837078" lon="7.2406487906654515"><ele>562.8</ele><time>2026-04-19T11:08:08.999Z</time></trkpt><trkpt lat="44.91185879258735" lon="7.240719895351652"><ele>562.2</ele><time>2026-04-19T11:08:09.999Z</time></trkpt><trkpt lat="44.91194599333148" lon="7.24076821877593"><ele>561.6</ele><time>2026-04-19T11:08:10.999Z</time></trkpt><trkpt lat="44.912044989344786" lon="7.2408176157524995"><ele>561.0</ele><time>2026-04-19T11:08:12.999Z</time></trkpt><trkpt lat="44.91209034727008" lon="7.240655554924847"><ele>564.4</ele><time>2026-04-19T11:08:14.999Z</time></trkpt><trkpt lat="44.91201637360276" lon="7.240574512689806"><ele>567.8</ele><time>2026-04-19T11:08:15.999Z</time></trkpt><trkpt lat="44.9119826296413" lon="7.240475461280764"><ele>571.1999999999999</ele><time>2026-04-19T11:08:16.999Z</time></trkpt><trkpt lat="44.91195233596858" lon="7.240359176670915"><ele>574.6</ele><time>2026-04-19T11:08:17.999Z</time></trkpt><trkpt lat="44.91192409300689" lon="7.240221656893211"><ele>578.0</ele><time>2026-04-19T11:08:18.999Z</time></trkpt><trkpt lat="44.91190090577806" lon="7.240083814307843"><ele>578.0</ele><time>2026-04-19T11:08:20Z</time></trkpt><trkpt lat="44.91187997775005" lon="7.239957179751293"><ele>578.0</ele><time>2026-04-19T11:08:21Z</time></trkpt><trkpt lat="44.9118661462082" lon="7.239861496738579"><ele>578.0</ele><time>2026-04-19T11:08:22Z</time></trkpt><trkpt lat="44.91189198294692" lon="7.239756442678428"><ele>578.0</ele><time>2026-04-19T11:08:24Z</time></trkpt><trkpt lat="44.91196547360847" lon="7.239832613809141"><ele>578.0</ele><time>2026-04-19T11:08:26Z</time></trkpt><trkpt lat="44.91202524589277" lon="7.239861283689473"><ele>578.0</ele><time>2026-04-19T11:08:27Z</time></trkpt><trkpt lat="44.912114761434175" lon="7.239762257763202"><ele>579.0</ele><time>2026-04-19T11:08:29Z</time></trkpt><trkpt lat="44.91208829769742" lon="7.239638087716088"><ele>580.0</ele><time>2026-04-19T11:08:30Z</time></trkpt><trkpt lat="44.91202159792812" lon="7.239560452729426"><ele>581.0</ele><time>2026-04-19T11:08:31Z</time></trkpt><trkpt lat="44.911916428974884" lon="7.239563716937358"><ele>582.0</ele><time>2026-04-19T11:08:32Z</time></trkpt><trkpt lat="44.91181474300625" lon="7.2395633729025946"><ele>583.0</ele><time>2026-04-19T11:08:33Z</time></trkpt><trkpt lat="44.91170899441956" lon="7.239552526918881"><ele>583.0</ele><time>2026-04-19T11:08:34Z</time></trkpt><trkpt lat="44.91161835722955" lon="7.239610997152042"><ele>583.0</ele><time>2026-04-19T11:08:35Z</time></trkpt><trkpt lat="44.91154074172126" lon="7.239635613348248"><ele>583.0</ele><time>2026-04-19T11:08:36Z</time></trkpt><trkpt lat="44.91148011238752" lon="7.239574899820554"><ele>583.0</ele><time>2026-04-19T11:08:38Z</time></trkpt><trkpt lat="44.91152820235199" lon="7.239451462208759"><ele>583.0</ele><time>2026-04-19T11:08:40Z</time></trkpt><trkpt lat="44.91163613006708" lon="7.239347193685261"><ele>583.0</ele><time>2026-04-19T11:08:42Z</time></trkpt><trkpt lat="44.91172320322099" lon="7.2393509077013"><ele>583.0</ele><time>2026-04-19T11:08:43Z</time></trkpt><trkpt lat="44.91181233233769" lon="7.239326072961536"><ele>583.0</ele><time>2026-04-19T11:08:44Z</time></trkpt><trkpt lat="44.911890792061904" lon="7.239294459357962"><ele>583.0</ele><time>2026-04-19T11:08:45Z</time></trkpt><trkpt lat="44.91198136775973" lon="7.239187432567882"><ele>583.0</ele><time>2026-04-19T11:08:47Z</time></trkpt><trkpt lat="44.91201060632109" lon="7.239074407969104"><ele>585.0</ele><time>2026-04-19T11:08:48Z</time></trkpt><trkpt lat="44.91208008378658" lon="7.238999668807193"><ele>587.0</ele><time>2026-04-19T11:08:49Z</time></trkpt><trkpt lat="44.91214819208141" lon="7.2389363944926135"><ele>589.0</ele><time>2026-04-19T11:08:50Z</time></trkpt><trkpt lat="44.912219929868144" lon="7.238919467777201"><ele>591.0</ele><time>2026-04-19T11:08:51Z</time></trkpt><trkpt lat="44.912333670239434" lon="7.238899102322674"><ele>593.0</ele><time>2026-04-19T11:08:53Z</time></trkpt><trkpt lat="44.91241829348709" lon="7.238897677900665"><ele>595.0</ele><time>2026-04-19T11:08:54Z</time></trkpt><trkpt lat="44.912495987933795" lon="7.238955307783187"><ele>595.0</ele><time>2026-04-19T11:08:55Z</time></trkpt><trkpt lat="44.91256994167606" lon="7.2390115343796495"><ele>595.0</ele><time>2026-04-19T11:08:56Z</time></trkpt><trkpt lat="44.91265052436958" lon="7.23904821897102"><ele>595.0</ele><time>2026-04-19T11:08:58Z</time></trkpt><trkpt lat="44.912682942943704" lon="7.238900770444863"><ele>595.0</ele><time>2026-04-19T11:09:00Z</time></trkpt><trkpt lat="44.91269254560499" lon="7.238793442134165"><ele>595.0</ele><time>2026-04-19T11:09:02Z</time></trkpt><trkpt lat="44.91246017390513" lon="7.2386494906730325"><ele>600.1666666666667</ele><time>2026-04-19T11:09:05Z</time></trkpt><trkpt lat="44.912345301409964" lon="7.238549501682495"><ele>605.3333333333334</ele><time>2026-04-19T11:09:07Z</time></trkpt><trkpt lat="44.91230493344541" lon="7.2384804915445375"><ele>610.5</ele><time>2026-04-19T11:09:08Z</time></trkpt><trkpt lat="44.91228730929341" lon="7.238394496919211"><ele>615.6666666666666</ele><time>2026-04-19T11:09:09Z</time></trkpt><trkpt lat="44.91225603425755" lon="7.23830222680732"><ele>620.8333333333333</ele><time>2026-04-19T11:09:10Z</time></trkpt><trkpt lat="44.912216502024286" lon="7.238217450741983"><ele>626.0</ele><time>2026-04-19T11:09:11Z</time></trkpt><trkpt lat="44.91215894777008" lon="7.238153433786312"><ele>626.0</ele><time>2026-04-19T11:09:13Z</time></trkpt><trkpt lat="44.912127234946404" lon="7.23807412737866"><ele>626.0</ele><time>2026-04-19T11:10:40Z</time></trkpt><trkpt lat="44.91219755542701" lon="7.238074830472055"><ele>626.0</ele><time>2026-04-19T11:10:43Z</time></trkpt><trkpt lat="44.91229439252826" lon="7.238153236672275"><ele>626.0</ele><time>2026-04-19T11:10:45Z</time></trkpt><trkpt lat="44.91235868218558" lon="7.238202348377845"><ele>626.0</ele><time>2026-04-19T11:10:46Z</time></trkpt><trkpt lat="44.91246261831986" lon="7.238270497181939"><ele>626.0</ele><time>2026-04-19T11:10:47Z</time></trkpt><trkpt lat="44.91255965564821" lon="7.238319430783602"><ele>626.0</ele><time>2026-04-19T11:10:48Z</time></trkpt><trkpt lat="44.91262159083859" lon="7.238350878099155"><ele>626.0</ele><time>2026-04-19T11:10:49Z</time></trkpt><trkpt lat="44.91254642425574" lon="7.238342661435177"><ele>626.0</ele><time>2026-04-19T11:11:16Z</time></trkpt><trkpt lat="44.912461119566274" lon="7.238317911347801"><ele>626.0</ele><time>2026-04-19T11:11:18Z</time></trkpt><trkpt lat="44.91237430482919" lon="7.238227855814973"><ele>626.0</ele><time>2026-04-19T11:11:20Z</time></trkpt><trkpt lat="44.91229902931671" lon="7.238161499017857"><ele>626.0</ele><time>2026-04-19T11:11:23Z</time></trkpt><trkpt lat="44.91223533010557" lon="7.238137644875815"><ele>626.0</ele><time>2026-04-19T11:11:27Z</time></trkpt><trkpt lat="44.91216643770669" lon="7.238112242527627"><ele>626.0</ele><time>2026-04-19T11:11:55Z</time></trkpt><trkpt lat="44.912078223070175" lon="7.238134266875533"><ele>626.0</ele><time>2026-04-19T11:11:57Z</time></trkpt><trkpt lat="44.911988844352805" lon="7.238184280373297"><ele>626.0</ele><time>2026-04-19T11:11:59Z</time></trkpt><trkpt lat="44.91191313445339" lon="7.238197127714761"><ele>626.0</ele><time>2026-04-19T11:12:01Z</time></trkpt><trkpt lat="44.91184513838262" lon="7.238201762118554"><ele>626.0</ele><time>2026-04-19T11:12:03Z</time></trkpt><trkpt lat="44.91172253150013" lon="7.238026787314784"><ele>625.7142857142857</ele><time>2026-04-19T11:12:05Z</time></trkpt><trkpt lat="44.911642611950185" lon="7.238053701325696"><ele>625.4285714285714</ele><time>2026-04-19T11:12:07Z</time></trkpt><trkpt lat="44.91156984254785" lon="7.238097126593425"><ele>625.1428571428571</ele><time>2026-04-19T11:12:10Z</time></trkpt><trkpt lat="44.911507164483716" lon="7.238151107837819"><ele>624.8571428571429</ele><time>2026-04-19T11:12:13Z</time></trkpt><trkpt lat="44.911441396915045" lon="7.238150635032111"><ele>624.5714285714286</ele><time>2026-04-19T11:12:25Z</time></trkpt><trkpt lat="44.91150281720163" lon="7.238185195291853"><ele>624.2857142857143</ele><time>2026-04-19T11:12:30Z</time></trkpt><trkpt lat="44.911558982498136" lon="7.238134100783391"><ele>624.0</ele><time>2026-04-19T11:12:32Z</time></trkpt><trkpt lat="44.911526608060676" lon="7.238051208471206"><ele>624.0</ele><time>2026-04-19T11:12:35Z</time></trkpt><trkpt lat="44.91146116611665" lon="7.238089911026253"><ele>624.0</ele><time>2026-04-19T11:12:37Z</time></trkpt><trkpt lat="44.91156463894642" lon="7.2380615322202555"><ele>624.0</ele><time>2026-04-19T11:12:52Z</time></trkpt><trkpt lat="44.911568496728115" lon="7.2381801718434025"><ele>624.0</ele><time>2026-04-19T11:12:53Z</time></trkpt><trkpt lat="44.911455995012204" lon="7.238185703798473"><ele>624.0</ele><time>2026-04-19T11:12:54Z</time></trkpt><trkpt lat="44.9117726467244" lon="7.238036882856857"><ele>624.3333333333334</ele><time>2026-04-19T11:12:55Z</time></trkpt><trkpt lat="44.91187699804432" lon="7.238114512303654"><ele>624.6666666666666</ele><time>2026-04-19T11:12:57Z</time></trkpt><trkpt lat="44.91193561905834" lon="7.238153671432037"><ele>625.0</ele><time>2026-04-19T11:12:58Z</time></trkpt><trkpt lat="44.91200246593648" lon="7.238153888546737"><ele>625.3333333333333</ele><time>2026-04-19T11:12:59Z</time></trkpt><trkpt lat="44.91207325782451" lon="7.238128053068813"><ele>625.6666666666666</ele><time>2026-04-19T11:13:00Z</time></trkpt><trkpt lat="44.91213733390411" lon="7.238097006691759"><ele>626.0</ele><time>2026-04-19T11:13:01Z</time></trkpt><trkpt lat="44.912203763907236" lon="7.238087543269985"><ele>626.0</ele><time>2026-04-19T11:13:02Z</time></trkpt><trkpt lat="44.91226786785985" lon="7.238110205240743"><ele>626.0</ele><time>2026-04-19T11:13:03Z</time></trkpt><trkpt lat="44.91233266983642" lon="7.238166939457611"><ele>626.0</ele><time>2026-04-19T11:13:04Z</time></trkpt><trkpt lat="44.912393810025485" lon="7.238221082412959"><ele>626.0</ele><time>2026-04-19T11:13:05Z</time></trkpt><trkpt lat="44.91245463740283" lon="7.2382703876235235"><ele>626.0</ele><time>2026-04-19T11:13:06Z</time></trkpt><trkpt lat="44.912519422935226" lon="7.238301660031538"><ele>626.0</ele><time>2026-04-19T11:13:07Z</time></trkpt><trkpt lat="44.91263574183139" lon="7.238342471768712"><ele>628.0</ele><time>2026-04-19T11:13:09Z</time></trkpt><trkpt lat="44.912696220701996" lon="7.238305055330733"><ele>630.0</ele><time>2026-04-19T11:13:10Z</time></trkpt><trkpt lat="44.912820142546565" lon="7.238312930574035"><ele>632.0</ele><time>2026-04-19T11:13:12Z</time></trkpt><trkpt lat="44.91289012458586" lon="7.23829947379439"><ele>634.0</ele><time>2026-04-19T11:13:13Z</time></trkpt><trkpt lat="44.91296014178504" lon="7.238266223547196"><ele>636.0</ele><time>2026-04-19T11:13:14Z</time></trkpt><trkpt lat="44.91303392094513" lon="7.238255122104788"><ele>638.0</ele><time>2026-04-19T11:13:15Z</time></trkpt><trkpt lat="44.91309904073404" lon="7.238245359489776"><ele>638.0</ele><time>2026-04-19T11:13:16Z</time></trkpt><trkpt lat="44.91317205507823" lon="7.238240922437297"><ele>638.0</ele><time>2026-04-19T11:13:45Z</time></trkpt><trkpt lat="44.91324367723445" lon="7.238255727716873"><ele>638.0</ele><time>2026-04-19T11:13:46Z</time></trkpt><trkpt lat="44.913324092764846" lon="7.2382941198986135"><ele>638.0</ele><time>2026-04-19T11:13:47Z</time></trkpt><trkpt lat="44.913389624566804" lon="7.238321347322023"><ele>638.0</ele><time>2026-04-19T11:13:48Z</time></trkpt><trkpt lat="44.91344799212561" lon="7.238276108493992"><ele>638.0</ele><time>2026-04-19T11:13:50Z</time></trkpt><trkpt lat="44.91335303660172" lon="7.238126056111478"><ele>645.0</ele><time>2026-04-19T11:14:01Z</time></trkpt><trkpt lat="44.913254245408844" lon="7.23811161064085"><ele>652.0</ele><time>2026-04-19T11:14:03Z</time></trkpt><trkpt lat="44.9131678001846" lon="7.23810208643845"><ele>659.0</ele><time>2026-04-19T11:14:05Z</time></trkpt><trkpt lat="44.913074770853356" lon="7.2380886349706435"><ele>666.0</ele><time>2026-04-19T11:14:09Z</time></trkpt><trkpt lat="44.91297081922439" lon="7.238075474244577"><ele>673.0</ele><time>2026-04-19T11:14:11Z</time></trkpt><trkpt lat="44.9128580395059" lon="7.238055268854756"><ele>673.0</ele><time>2026-04-19T11:14:13Z</time></trkpt><trkpt lat="44.912766239954536" lon="7.2380371123251175"><ele>673.0</ele><time>2026-04-19T11:14:14Z</time></trkpt><trkpt lat="44.91269098292767" lon="7.23801793451801"><ele>673.0</ele><time>2026-04-19T11:14:15Z</time></trkpt><trkpt lat="44.91260727789537" lon="7.237995631252425"><ele>673.0</ele><time>2026-04-19T11:14:16Z</time></trkpt><trkpt lat="44.9125539925172" lon="7.237914777135522"><ele>673.0</ele><time>2026-04-19T11:14:18Z</time></trkpt><trkpt lat="44.91245709639875" lon="7.23778805246585"><ele>649.5</ele><time>2026-04-19T11:14:20Z</time></trkpt><trkpt lat="44.91215797709647" lon="7.238156596953841"><ele>626.0</ele><time>2026-04-19T11:14:26Z</time></trkpt><trkpt lat="44.91221813499056" lon="7.238232997797618"><ele>626.0</ele><time>2026-04-19T11:14:28Z</time></trkpt><trkpt lat="44.912285883547376" lon="7.2383508341675595"><ele>626.0</ele><time>2026-04-19T11:14:30Z</time></trkpt><trkpt lat="44.912316116728725" lon="7.238430335695487"><ele>626.0</ele><time>2026-04-19T11:14:31Z</time></trkpt><trkpt lat="44.912354835778125" lon="7.238557303807001"><ele>626.0</ele><time>2026-04-19T11:14:33Z</time></trkpt><trkpt lat="44.91244658360887" lon="7.23863433520135"><ele>626.0</ele><time>2026-04-19T11:14:35Z</time></trkpt><trkpt lat="44.9125064347373" lon="7.238686953340614"><ele>626.0</ele><time>2026-04-19T11:14:36Z</time></trkpt><trkpt lat="44.91261129523093" lon="7.238768639746253"><ele>626.0</ele><time>2026-04-19T11:14:37.999Z</time></trkpt><trkpt lat="44.912685874264575" lon="7.2388477212885265"><ele>626.0</ele><time>2026-04-19T11:14:39.999Z</time></trkpt><trkpt lat="44.91266378161833" lon="7.238971303563139"><ele>626.0</ele><time>2026-04-19T11:14:41.999Z</time></trkpt><trkpt lat="44.912579878729304" lon="7.239042044585158"><ele>626.0</ele><time>2026-04-19T11:14:43.999Z</time></trkpt><trkpt lat="44.912476517559554" lon="7.238927122694919"><ele>626.0</ele><time>2026-04-19T11:14:45.999Z</time></trkpt><trkpt lat="44.912404993795924" lon="7.238882683942263"><ele>626.0</ele><time>2026-04-19T11:14:46.999Z</time></trkpt><trkpt lat="44.91231740724732" lon="7.2388729205412465"><ele>626.0</ele><time>2026-04-19T11:14:47.999Z</time></trkpt><trkpt lat="44.912232265771685" lon="7.2388651047508334"><ele>626.0</ele><time>2026-04-19T11:14:48.999Z</time></trkpt><trkpt lat="44.91214714528505" lon="7.238890851538513"><ele>626.0</ele><time>2026-04-19T11:14:49.999Z</time></trkpt><trkpt lat="44.91207367216003" lon="7.238943158946774"><ele>626.0</ele><time>2026-04-19T11:14:50.999Z</time></trkpt><trkpt lat="44.91202078420045" lon="7.23902465242853"><ele>626.0</ele><time>2026-04-19T11:14:51.999Z</time></trkpt><trkpt lat="44.911975063321385" lon="7.239119332871318"><ele>620.8333333333333</ele><time>2026-04-19T11:14:52.999Z</time></trkpt><trkpt lat="44.91192807476394" lon="7.239214919507626"><ele>615.6666666666666</ele><time>2026-04-19T11:14:53.999Z</time></trkpt><trkpt lat="44.91188018343447" lon="7.239279064655502"><ele>610.5</ele><time>2026-04-19T11:14:54.999Z</time></trkpt><trkpt lat="44.91175468381221" lon="7.239325082432583"><ele>605.3333333333334</ele><time>2026-04-19T11:14:56.999Z</time></trkpt><trkpt lat="44.911673955731175" lon="7.239316871535843"><ele>600.1666666666667</ele><time>2026-04-19T11:14:57.999Z</time></trkpt><trkpt lat="44.91160795210406" lon="7.239357418567264"><ele>595.0</ele><time>2026-04-19T11:14:58.999Z</time></trkpt><trkpt lat="44.911541493038946" lon="7.239380224994434"><ele>592.6</ele><time>2026-04-19T11:14:59.999Z</time></trkpt><trkpt lat="44.91146509658617" lon="7.239498383753035"><ele>590.2</ele><time>2026-04-19T11:15:01.999Z</time></trkpt><trkpt lat="44.91146496977276" lon="7.2395899696754125"><ele>587.8</ele><time>2026-04-19T11:15:02.999Z</time></trkpt><trkpt lat="44.91148648537972" lon="7.2396785005905615"><ele>585.4</ele><time>2026-04-19T11:15:04.999Z</time></trkpt><trkpt lat="44.911621838240464" lon="7.239630478054863"><ele>583.0</ele><time>2026-04-19T11:15:05.999Z</time></trkpt><trkpt lat="44.91169526630229" lon="7.239604691535972"><ele>582.0</ele><time>2026-04-19T11:15:06.999Z</time></trkpt><trkpt lat="44.91178302070429" lon="7.2395893481816085"><ele>581.0</ele><time>2026-04-19T11:15:07.999Z</time></trkpt><trkpt lat="44.91187481977711" lon="7.239597379929603"><ele>580.0</ele><time>2026-04-19T11:15:08.999Z</time></trkpt><trkpt lat="44.911957974564146" lon="7.23960826377684"><ele>579.0</ele><time>2026-04-19T11:15:09.999Z</time></trkpt><trkpt lat="44.91205815661741" lon="7.239672335518417"><ele>578.0</ele><time>2026-04-19T11:15:11.999Z</time></trkpt><trkpt lat="44.912049299729276" lon="7.239815791956231"><ele>578.0</ele><time>2026-04-19T11:15:13.999Z</time></trkpt><trkpt lat="44.91194395577824" lon="7.239770279969481"><ele>578.0</ele><time>2026-04-19T11:15:15.999Z</time></trkpt><trkpt lat="44.91184265135053" lon="7.23978313986073"><ele>578.0</ele><time>2026-04-19T11:15:17.999Z</time></trkpt><trkpt lat="44.911813757741086" lon="7.239873207143177"><ele>578.0</ele><time>2026-04-19T11:15:18.999Z</time></trkpt><trkpt lat="44.911850289673936" lon="7.23998787872657"><ele>578.0</ele><time>2026-04-19T11:15:19.999Z</time></trkpt><trkpt lat="44.91188827618837" lon="7.240111474482316"><ele>578.0</ele><time>2026-04-19T11:15:20.999Z</time></trkpt><trkpt lat="44.91190765903446" lon="7.24024104928824"><ele>578.0</ele><time>2026-04-19T11:15:21.999Z</time></trkpt><trkpt lat="44.91192923631069" lon="7.240373660991783"><ele>578.0</ele><time>2026-04-19T11:15:22.999Z</time></trkpt><trkpt lat="44.911963439985705" lon="7.2404911372017065"><ele>578.0</ele><time>2026-04-19T11:15:23.999Z</time></trkpt><trkpt lat="44.91200095279534" lon="7.240584518447673"><ele>578.0</ele><time>2026-04-19T11:15:24.999Z</time></trkpt><trkpt lat="44.91204285918075" lon="7.240661778065246"><ele>578.0</ele><time>2026-04-19T11:15:25.999Z</time></trkpt><trkpt lat="44.91204413468718" lon="7.240788358036709"><ele>578.0</ele><time>2026-04-19T11:15:27.999Z</time></trkpt><trkpt lat="44.91193161111512" lon="7.2407307894402555"><ele>578.0</ele><time>2026-04-19T11:15:29.999Z</time></trkpt><trkpt lat="44.91186449650662" lon="7.240670280561515"><ele>578.0</ele><time>2026-04-19T11:15:30.999Z</time></trkpt><trkpt lat="44.911776310611835" lon="7.240624972352656"><ele>578.0</ele><time>2026-04-19T11:15:31.999Z</time></trkpt><trkpt lat="44.91168830716925" lon="7.240544392730145"><ele>578.0</ele><time>2026-04-19T11:15:32.999Z</time></trkpt><trkpt lat="44.911573768071726" lon="7.240516384284158"><ele>575.1999999999999</ele><time>2026-04-19T11:15:33.999Z</time></trkpt><trkpt lat="44.91145758998324" lon="7.240477489904589"><ele>572.4</ele><time>2026-04-19T11:15:34.999Z</time></trkpt><trkpt lat="44.911341689729944" lon="7.240456440210373"><ele>569.5999999999999</ele><time>2026-04-19T11:15:35.999Z</time></trkpt><trkpt lat="44.911236155733235" lon="7.240438311578033"><ele>566.8</ele><time>2026-04-19T11:15:36.999Z</time></trkpt><trkpt lat="44.9111506420329" lon="7.24041817524319"><ele>564.0</ele><time>2026-04-19T11:15:37.999Z</time></trkpt><trkpt lat="44.91108133314917" lon="7.2404187429013325"><ele>564.0</ele><time>2026-04-19T11:15:38.999Z</time></trkpt><trkpt lat="44.91102073669757" lon="7.2404671759831185"><ele>564.0</ele><time>2026-04-19T11:15:39.999Z</time></trkpt><trkpt lat="44.910952375698244" lon="7.24054146821673"><ele>564.0</ele><time>2026-04-19T11:15:40.999Z</time></trkpt><trkpt lat="44.9108694443464" lon="7.240600070556823"><ele>564.0</ele><time>2026-04-19T11:15:41.999Z</time></trkpt><trkpt lat="44.910796607383396" lon="7.240619446579846"><ele>564.0</ele><time>2026-04-19T11:15:42.999Z</time></trkpt><trkpt lat="44.91072321812384" lon="7.240593990896467"><ele>564.0</ele><time>2026-04-19T11:15:43.999Z</time></trkpt><trkpt lat="44.91065694170195" lon="7.2404947790882614"><ele>561.0</ele><time>2026-04-19T11:15:44.999Z</time></trkpt><trkpt lat="44.910559414496966" lon="7.240438955527604"><ele>558.0</ele><time>2026-04-19T11:15:45.999Z</time></trkpt><trkpt lat="44.91044372355611" lon="7.240415036897991"><ele>555.0</ele><time>2026-04-19T11:15:46.999Z</time></trkpt><trkpt lat="44.91031696162872" lon="7.240379507187105"><ele>552.0</ele><time>2026-04-19T11:15:47.999Z</time></trkpt><trkpt lat="44.91018700365231" lon="7.240329730546743"><ele>550.2</ele><time>2026-04-19T11:15:48.999Z</time></trkpt><trkpt lat="44.91006651514306" lon="7.240299425785166"><ele>548.4000000000001</ele><time>2026-04-19T11:15:49.999Z</time></trkpt><trkpt lat="44.909954853080436" lon="7.240283126475125"><ele>546.5999999999999</ele><time>2026-04-19T11:15:50.999Z</time></trkpt><trkpt lat="44.909851071654565" lon="7.240300564267988"><ele>544.8</ele><time>2026-04-19T11:15:51.999Z</time></trkpt><trkpt lat="44.909763588854645" lon="7.240342963948056"><ele>543.0</ele><time>2026-04-19T11:15:52.999Z</time></trkpt><trkpt lat="44.90968475109681" lon="7.24042372829501"><ele>543.0</ele><time>2026-04-19T11:15:53.999Z</time></trkpt><trkpt lat="44.909620172749854" lon="7.240533591962482"><ele>543.0</ele><time>2026-04-19T11:15:54.999Z</time></trkpt><trkpt lat="44.909567700749406" lon="7.240624288198048"><ele>543.0</ele><time>2026-04-19T11:15:55.999Z</time></trkpt><trkpt lat="44.90946587119199" lon="7.240607230905659"><ele>543.0</ele><time>2026-04-19T11:15:57.999Z</time></trkpt><trkpt lat="44.90943656122104" lon="7.240508664263759"><ele>543.0</ele><time>2026-04-19T11:15:58.999Z</time></trkpt><trkpt lat="44.90936198265227" lon="7.240423844211046"><ele>543.0</ele><time>2026-04-19T11:15:59.999Z</time></trkpt><trkpt lat="44.909293395544374" lon="7.2403154615636955"><ele>543.0</ele><time>2026-04-19T11:16:00.999Z</time></trkpt><trkpt lat="44.9092060824548" lon="7.240276128424235"><ele>543.0</ele><time>2026-04-19T11:16:01.999Z</time></trkpt><trkpt lat="44.90911097262774" lon="7.240282701447087"><ele>543.0</ele><time>2026-04-19T11:16:02.999Z</time></trkpt><trkpt lat="44.90902043377858" lon="7.240317967124512"><ele>543.0</ele><time>2026-04-19T11:16:03.999Z</time></trkpt><trkpt lat="44.90892869867279" lon="7.240350830306164"><ele>540.6666666666666</ele><time>2026-04-19T11:16:04.999Z</time></trkpt><trkpt lat="44.90883969525023" lon="7.240338347384472"><ele>538.3333333333334</ele><time>2026-04-19T11:16:05.999Z</time></trkpt><trkpt lat="44.90876331159588" lon="7.240360188682688"><ele>536.0</ele><time>2026-04-19T11:16:06.999Z</time></trkpt><trkpt lat="44.90869814287235" lon="7.240401726575478"><ele>533.6666666666667</ele><time>2026-04-19T11:16:07.999Z</time></trkpt><trkpt lat="44.90862422388948" lon="7.240473822570507"><ele>531.3333333333334</ele><time>2026-04-19T11:16:08.999Z</time></trkpt><trkpt lat="44.90855260176799" lon="7.240544912197073"><ele>529.0</ele><time>2026-04-19T11:16:09.999Z</time></trkpt><trkpt lat="44.90846679362496" lon="7.240601206411867"><ele>527.1666666666667</ele><time>2026-04-19T11:16:10.999Z</time></trkpt><trkpt lat="44.90837303413382" lon="7.240609429587166"><ele>525.3333333333334</ele><time>2026-04-19T11:16:11.999Z</time></trkpt><trkpt lat="44.90828435885901" lon="7.240650459318361"><ele>523.5</ele><time>2026-04-19T11:16:12.999Z</time></trkpt><trkpt lat="44.90821292835978" lon="7.240672400205722"><ele>521.6666666666666</ele><time>2026-04-19T11:16:13.999Z</time></trkpt><trkpt lat="44.90813900269428" lon="7.240675633822332"><ele>519.8333333333333</ele><time>2026-04-19T11:16:15.999Z</time></trkpt><trkpt lat="44.90814500781281" lon="7.240832316814453"><ele>518.0</ele><time>2026-04-19T11:16:19.999Z</time></trkpt><trkpt lat="44.908192588131776" lon="7.240961805215347"><ele>517.0</ele><time>2026-04-19T11:16:20.999Z</time></trkpt><trkpt lat="44.90823833425286" lon="7.241086747418402"><ele>516.0</ele><time>2026-04-19T11:16:21.999Z</time></trkpt><trkpt lat="44.90827452215041" lon="7.241220583554214"><ele>515.0</ele><time>2026-04-19T11:16:22.999Z</time></trkpt><trkpt lat="44.90831019886335" lon="7.241342627848087"><ele>514.0</ele><time>2026-04-19T11:16:23.999Z</time></trkpt><trkpt lat="44.90835090340412" lon="7.241439109309727"><ele>513.0</ele><time>2026-04-19T11:16:24.999Z</time></trkpt><trkpt lat="44.90841649398841" lon="7.241511063007976"><ele>513.0</ele><time>2026-04-19T11:16:25.999Z</time></trkpt><trkpt lat="44.9084840543353" lon="7.241561850351112"><ele>513.0</ele><time>2026-04-19T11:16:26.999Z</time></trkpt><trkpt lat="44.90857136412229" lon="7.241618050369669"><ele>513.0</ele><time>2026-04-19T11:16:28.999Z</time></trkpt><trkpt lat="44.90865393520771" lon="7.241719329060432"><ele>513.0</ele><time>2026-04-19T11:16:30.999Z</time></trkpt><trkpt lat="44.908722125208044" lon="7.241776379237395"><ele>513.0</ele><time>2026-04-19T11:16:31.999Z</time></trkpt><trkpt lat="44.908804552845346" lon="7.241835867596031"><ele>513.0</ele><time>2026-04-19T11:16:32.999Z</time></trkpt><trkpt lat="44.90889042152258" lon="7.241901092721785"><ele>513.0</ele><time>2026-04-19T11:16:33.999Z</time></trkpt><trkpt lat="44.90897929494126" lon="7.241972187302232"><ele>513.0</ele><time>2026-04-19T11:16:34.999Z</time></trkpt><trkpt lat="44.90907045132688" lon="7.242048417757341"><ele>513.0</ele><time>2026-04-19T11:16:35.999Z</time></trkpt><trkpt lat="44.9091665579523" lon="7.242127596907642"><ele>513.0</ele><time>2026-04-19T11:16:36.999Z</time></trkpt><trkpt lat="44.9092694699851" lon="7.242227060836094"><ele>510.25</ele><time>2026-04-19T11:16:37.999Z</time></trkpt><trkpt lat="44.90937106177848" lon="7.24235271053499"><ele>507.5</ele><time>2026-04-19T11:16:38.999Z</time></trkpt><trkpt lat="44.90948606794943" lon="7.242474792957729"><ele>504.75</ele><time>2026-04-19T11:16:39.999Z</time></trkpt><trkpt lat="44.90962262400511" lon="7.242576713232003"><ele>502.0</ele><time>2026-04-19T11:16:40.999Z</time></trkpt><trkpt lat="44.909772812749615" lon="7.242657327767389"><ele>502.0</ele><time>2026-04-19T11:16:41.999Z</time></trkpt><trkpt lat="44.909922087749806" lon="7.242721668380249"><ele>502.0</ele><time>2026-04-19T11:16:42.999Z</time></trkpt><trkpt lat="44.91006673054274" lon="7.242764143506506"><ele>502.0</ele><time>2026-04-19T11:16:43.998Z</time></trkpt><trkpt lat="44.910204009029215" lon="7.242773352363514"><ele>502.0</ele><time>2026-04-19T11:16:44.998Z</time></trkpt><trkpt lat="44.910343787456775" lon="7.242753366131711"><ele>502.33333333333337</ele><time>2026-04-19T11:16:45.998Z</time></trkpt><trkpt lat="44.9104882868895" lon="7.242695689473607"><ele>502.66666666666663</ele><time>2026-04-19T11:16:46.998Z</time></trkpt><trkpt lat="44.91063123594384" lon="7.24261477307545"><ele>503.0</ele><time>2026-04-19T11:16:47.998Z</time></trkpt><trkpt lat="44.9107774504178" lon="7.242574696621354"><ele>505.3333333333333</ele><time>2026-04-19T11:16:48.998Z</time></trkpt><trkpt lat="44.910923454247026" lon="7.242509294476793"><ele>507.66666666666663</ele><time>2026-04-19T11:16:49.998Z</time></trkpt><trkpt lat="44.911077646788684" lon="7.242492590226876"><ele>510.0</ele><time>2026-04-19T11:16:50.998Z</time></trkpt><trkpt lat="44.91123129123906" lon="7.24253119469499"><ele>510.0</ele><time>2026-04-19T11:16:51.998Z</time></trkpt><trkpt lat="44.9113755902925" lon="7.242605884509722"><ele>510.0</ele><time>2026-04-19T11:16:52.998Z</time></trkpt><trkpt lat="44.91152371430684" lon="7.242680151822935"><ele>510.0</ele><time>2026-04-19T11:16:53.998Z</time></trkpt><trkpt lat="44.91167204943047" lon="7.242726501795779"><ele>512.75</ele><time>2026-04-19T11:16:54.998Z</time></trkpt><trkpt lat="44.91180669444897" lon="7.2427832683159"><ele>515.5</ele><time>2026-04-19T11:16:55.998Z</time></trkpt><trkpt lat="44.91194230207587" lon="7.242838784933189"><ele>518.25</ele><time>2026-04-19T11:16:56.998Z</time></trkpt><trkpt lat="44.912082481785156" lon="7.2429033052834395"><ele>521.0</ele><time>2026-04-19T11:16:57.998Z</time></trkpt><trkpt lat="44.912233732173966" lon="7.242972092492255"><ele>521.0</ele><time>2026-04-19T11:16:58.998Z</time></trkpt><trkpt lat="44.91238318550426" lon="7.243037828914706"><ele>521.0</ele><time>2026-04-19T11:16:59.998Z</time></trkpt><trkpt lat="44.91253552795148" lon="7.243083998448791"><ele>521.0</ele><time>2026-04-19T11:17:00.999Z</time></trkpt><trkpt lat="44.91269966297586" lon="7.2431145907079895"><ele>520.3333333333333</ele><time>2026-04-19T11:17:01.999Z</time></trkpt><trkpt lat="44.91286588026549" lon="7.243113014897875"><ele>519.6666666666666</ele><time>2026-04-19T11:17:02.999Z</time></trkpt><trkpt lat="44.91303802204713" lon="7.24311675883524"><ele>519.0</ele><time>2026-04-19T11:17:03.999Z</time></trkpt><trkpt lat="44.91319307157239" lon="7.243154612627592"><ele>514.0</ele><time>2026-04-19T11:17:04.999Z</time></trkpt><trkpt lat="44.91334008956056" lon="7.24319007390217"><ele>509.0</ele><time>2026-04-19T11:17:05.999Z</time></trkpt><trkpt lat="44.91346902378535" lon="7.243184645850487"><ele>504.0</ele><time>2026-04-19T11:17:06.999Z</time></trkpt><trkpt lat="44.91357682736859" lon="7.243114870323945"><ele>499.0</ele><time>2026-04-19T11:17:07.999Z</time></trkpt><trkpt lat="44.9136673243457" lon="7.242985689605529"><ele>499.0</ele><time>2026-04-19T11:17:08.999Z</time></trkpt><trkpt lat="44.91374867525657" lon="7.242803538105601"><ele>499.0</ele><time>2026-04-19T11:17:09.999Z</time></trkpt><trkpt lat="44.91386374820227" lon="7.242627342720933"><ele>499.0</ele><time>2026-04-19T11:17:10.999Z</time></trkpt><trkpt lat="44.91398276384375" lon="7.24247224146906"><ele>499.0</ele><time>2026-04-19T11:17:11.999Z</time></trkpt><trkpt lat="44.91410669011418" lon="7.242347933818872"><ele>499.0</ele><time>2026-04-19T11:17:12.999Z</time></trkpt><trkpt lat="44.91423659629224" lon="7.242256468235382"><ele>499.0</ele><time>2026-04-19T11:17:13.999Z</time></trkpt><trkpt lat="44.91438170864549" lon="7.242206030522697"><ele>499.0</ele><time>2026-04-19T11:17:14.999Z</time></trkpt><trkpt lat="44.91452738587485" lon="7.242169818584535"><ele>503.0</ele><time>2026-04-19T11:17:15.999Z</time></trkpt><trkpt lat="44.914675639558304" lon="7.24213663819452"><ele>507.0</ele><time>2026-04-19T11:17:16.999Z</time></trkpt><trkpt lat="44.91481970389626" lon="7.242095643638619"><ele>511.0</ele><time>2026-04-19T11:17:17.999Z</time></trkpt><trkpt lat="44.91495571961582" lon="7.242073066024985"><ele>515.0</ele><time>2026-04-19T11:17:18.999Z</time></trkpt><trkpt lat="44.91508558159913" lon="7.24205262185509"><ele>515.0</ele><time>2026-04-19T11:17:19.999Z</time></trkpt><trkpt lat="44.91520388196045" lon="7.242047948008366"><ele>515.0</ele><time>2026-04-19T11:17:20.999Z</time></trkpt><trkpt lat="44.915295529583794" lon="7.242078881434713"><ele>515.0</ele><time>2026-04-19T11:17:21.999Z</time></trkpt><trkpt lat="44.91534717884644" lon="7.24214731219939"><ele>515.0</ele><time>2026-04-19T11:17:22.999Z</time></trkpt><trkpt lat="44.915360389143316" lon="7.2422835500410905"><ele>515.0</ele><time>2026-04-19T11:17:24.999Z</time></trkpt><trkpt lat="44.915371651056105" lon="7.242387453634151"><ele>515.0</ele><time>2026-04-19T11:17:30.999Z</time></trkpt><trkpt lat="44.91552341203088" lon="7.242299670665953"><ele>515.0</ele><time>2026-04-19T11:17:32.999Z</time></trkpt><trkpt lat="44.9156229388635" lon="7.242215216044738"><ele>515.0</ele><time>2026-04-19T11:17:33.999Z</time></trkpt><trkpt lat="44.91573362841152" lon="7.242146107423832"><ele>515.0</ele><time>2026-04-19T11:17:34.999Z</time></trkpt><trkpt lat="44.915862263761845" lon="7.242072402207329"><ele>508.66666666666663</ele><time>2026-04-19T11:17:35.999Z</time></trkpt><trkpt lat="44.915998733884166" lon="7.241997351313344"><ele>502.33333333333337</ele><time>2026-04-19T11:17:36.999Z</time></trkpt><trkpt lat="44.91614168029959" lon="7.24192814295844"><ele>496.0</ele><time>2026-04-19T11:17:37.999Z</time></trkpt><trkpt lat="44.91628795546506" lon="7.241859020640909"><ele>496.0</ele><time>2026-04-19T11:17:38.999Z</time></trkpt><trkpt lat="44.916437930640456" lon="7.241795217639172"><ele>496.0</ele><time>2026-04-19T11:17:39.999Z</time></trkpt><trkpt lat="44.916593407232924" lon="7.241731479916465"><ele>496.0</ele><time>2026-04-19T11:17:40.999Z</time></trkpt><trkpt lat="44.91674698595902" lon="7.2416744499152665"><ele>494.75</ele><time>2026-04-19T11:17:41.999Z</time></trkpt><trkpt lat="44.91689647671312" lon="7.241628403302636"><ele>493.5</ele><time>2026-04-19T11:17:42.999Z</time></trkpt><trkpt lat="44.91704009837472" lon="7.241592606178686"><ele>492.25</ele><time>2026-04-19T11:17:43.999Z</time></trkpt><trkpt lat="44.91718311478222" lon="7.241541710248086"><ele>491.0</ele><time>2026-04-19T11:17:44.999Z</time></trkpt><trkpt lat="44.91732392311791" lon="7.241488471229522"><ele>491.3333333333333</ele><time>2026-04-19T11:17:45.999Z</time></trkpt><trkpt lat="44.917464008980794" lon="7.241429296983575"><ele>491.66666666666663</ele><time>2026-04-19T11:17:46.999Z</time></trkpt><trkpt lat="44.91761484516359" lon="7.2413692244710255"><ele>492.0</ele><time>2026-04-19T11:17:47.999Z</time></trkpt><trkpt lat="44.917778360200444" lon="7.241302309308382"><ele>492.0</ele><time>2026-04-19T11:17:48.999Z</time></trkpt><trkpt lat="44.91794675788412" lon="7.241222758044108"><ele>492.0</ele><time>2026-04-19T11:17:49.999Z</time></trkpt><trkpt lat="44.91811055583518" lon="7.241128146212637"><ele>492.0</ele><time>2026-04-19T11:17:50.999Z</time></trkpt><trkpt lat="44.91827437869244" lon="7.241020713682291"><ele>493.33333333333337</ele><time>2026-04-19T11:17:51.999Z</time></trkpt><trkpt lat="44.91843672343813" lon="7.240903846621067"><ele>494.6666666666667</ele><time>2026-04-19T11:17:52.999Z</time></trkpt><trkpt lat="44.9185980528858" lon="7.2407800920402305"><ele>496.0</ele><time>2026-04-19T11:17:53.999Z</time></trkpt><trkpt lat="44.918751513115154" lon="7.240642070518618"><ele>496.33333333333337</ele><time>2026-04-19T11:17:54.999Z</time></trkpt><trkpt lat="44.918900358108736" lon="7.2404950633810605"><ele>496.66666666666663</ele><time>2026-04-19T11:17:56Z</time></trkpt><trkpt lat="44.91903804387858" lon="7.2403260356587635"><ele>497.0</ele><time>2026-04-19T11:17:57Z</time></trkpt><trkpt lat="44.91917597853905" lon="7.240175334205262"><ele>497.0</ele><time>2026-04-19T11:17:58Z</time></trkpt><trkpt lat="44.91930725261134" lon="7.240006397265725"><ele>497.0</ele><time>2026-04-19T11:17:59Z</time></trkpt><trkpt lat="44.91943426072123" lon="7.239837881949601"><ele>497.0</ele><time>2026-04-19T11:18:00Z</time></trkpt><trkpt lat="44.91955183595768" lon="7.239682109078492"><ele>497.0</ele><time>2026-04-19T11:18:01Z</time></trkpt><trkpt lat="44.919660478601195" lon="7.239532269418454"><ele>497.0</ele><time>2026-04-19T11:18:02Z</time></trkpt><trkpt lat="44.91976174276723" lon="7.239373768737596"><ele>497.0</ele><time>2026-04-19T11:18:03Z</time></trkpt><trkpt lat="44.919847493710996" lon="7.239303343374746"><ele>497.0</ele><time>2026-04-19T11:18:04Z</time></trkpt><trkpt lat="44.91995864696225" lon="7.2392089785640685"><ele>497.0</ele><time>2026-04-19T11:18:05Z</time></trkpt><trkpt lat="44.92006778695716" lon="7.239084058204927"><ele>497.0</ele><time>2026-04-19T11:18:06Z</time></trkpt><trkpt lat="44.92017705614509" lon="7.238957960267318"><ele>497.0</ele><time>2026-04-19T11:18:07Z</time></trkpt><trkpt lat="44.92031988089377" lon="7.238904076412486"><ele>497.0</ele><time>2026-04-19T11:18:08Z</time></trkpt><trkpt lat="44.9204764691349" lon="7.238820614818851"><ele>497.0</ele><time>2026-04-19T11:18:09Z</time></trkpt><trkpt lat="44.92064669295545" lon="7.238729885466211"><ele>497.0</ele><time>2026-04-19T11:18:10Z</time></trkpt><trkpt lat="44.92080871956183" lon="7.238674731592344"><ele>497.0</ele><time>2026-04-19T11:18:11Z</time></trkpt><trkpt lat="44.92098665757855" lon="7.238549298966101"><ele>496.66666666666663</ele><time>2026-04-19T11:18:12Z</time></trkpt><trkpt lat="44.92117779914001" lon="7.238462958162217"><ele>496.33333333333337</ele><time>2026-04-19T11:18:13Z</time></trkpt><trkpt lat="44.921368711523435" lon="7.238374714260304"><ele>496.0</ele><time>2026-04-19T11:18:14Z</time></trkpt><trkpt lat="44.92154930452228" lon="7.238291406959157"><ele>497.33333333333337</ele><time>2026-04-19T11:18:15Z</time></trkpt><trkpt lat="44.9217369244721" lon="7.238207761223474"><ele>498.66666666666663</ele><time>2026-04-19T11:18:16Z</time></trkpt><trkpt lat="44.92191698015033" lon="7.238129973900106"><ele>500.0</ele><time>2026-04-19T11:18:17Z</time></trkpt><trkpt lat="44.922097125277226" lon="7.238038133813016"><ele>500.0</ele><time>2026-04-19T11:18:18Z</time></trkpt><trkpt lat="44.92227180074287" lon="7.237952916255299"><ele>500.0</ele><time>2026-04-19T11:18:19Z</time></trkpt><trkpt lat="44.92242306894277" lon="7.237882532338203"><ele>500.0</ele><time>2026-04-19T11:18:20Z</time></trkpt><trkpt lat="44.92260983951647" lon="7.237781341426301"><ele>500.0</ele><time>2026-04-19T11:18:21Z</time></trkpt><trkpt lat="44.9227891160378" lon="7.23770788496126"><ele>500.0</ele><time>2026-04-19T11:18:22Z</time></trkpt><trkpt lat="44.92299361380579" lon="7.237648262794911"><ele>500.0</ele><time>2026-04-19T11:18:23Z</time></trkpt><trkpt lat="44.9231666264275" lon="7.237579218740607"><ele>500.0</ele><time>2026-04-19T11:18:24Z</time></trkpt><trkpt lat="44.92335228231456" lon="7.2374708699899255"><ele>500.0</ele><time>2026-04-19T11:18:25Z</time></trkpt><trkpt lat="44.923534497842454" lon="7.237380111477686"><ele>500.0</ele><time>2026-04-19T11:18:26Z</time></trkpt><trkpt lat="44.92370302747761" lon="7.237262183803858"><ele>501.3333333333333</ele><time>2026-04-19T11:18:27Z</time></trkpt><trkpt lat="44.923902717042104" lon="7.2371702722748354"><ele>502.66666666666663</ele><time>2026-04-19T11:18:28Z</time></trkpt><trkpt lat="44.924081451600586" lon="7.237075440101106"><ele>504.0</ele><time>2026-04-19T11:18:29Z</time></trkpt><trkpt lat="44.924252997764064" lon="7.236951187038042"><ele>504.0</ele><time>2026-04-19T11:18:30Z</time></trkpt><trkpt lat="44.92442126522136" lon="7.236806093242904"><ele>504.0</ele><time>2026-04-19T11:18:31Z</time></trkpt><trkpt lat="44.924586054971904" lon="7.236670120798604"><ele>504.0</ele><time>2026-04-19T11:18:32Z</time></trkpt><trkpt lat="44.924754563305704" lon="7.236529636369254"><ele>504.33333333333337</ele><time>2026-04-19T11:18:33Z</time></trkpt><trkpt lat="44.92492431411162" lon="7.236393187867105"><ele>504.6666666666667</ele><time>2026-04-19T11:18:34Z</time></trkpt><trkpt lat="44.925096287783894" lon="7.236260147659571"><ele>505.0</ele><time>2026-04-19T11:18:35Z</time></trkpt><trkpt lat="44.9252601046057" lon="7.23611074888543"><ele>505.0</ele><time>2026-04-19T11:18:36Z</time></trkpt><trkpt lat="44.925426020642504" lon="7.235977830988366"><ele>505.0</ele><time>2026-04-19T11:18:37Z</time></trkpt><trkpt lat="44.92559094678988" lon="7.235842096082762"><ele>505.0</ele><time>2026-04-19T11:18:38Z</time></trkpt><trkpt lat="44.925753145248116" lon="7.235701442786274"><ele>505.6666666666667</ele><time>2026-04-19T11:18:39Z</time></trkpt><trkpt lat="44.92592065656148" lon="7.235563518227191"><ele>506.33333333333337</ele><time>2026-04-19T11:18:40Z</time></trkpt><trkpt lat="44.92608951848898" lon="7.235423381204586"><ele>507.0</ele><time>2026-04-19T11:18:41Z</time></trkpt><trkpt lat="44.92625377595638" lon="7.235285560006815"><ele>507.0</ele><time>2026-04-19T11:18:42Z</time></trkpt><trkpt lat="44.926426004716006" lon="7.235152372208511"><ele>507.0</ele><time>2026-04-19T11:18:43Z</time></trkpt><trkpt lat="44.926598135992876" lon="7.235017053672418"><ele>507.0</ele><time>2026-04-19T11:18:44Z</time></trkpt><trkpt lat="44.926764155429055" lon="7.2348710373577445"><ele>507.0</ele><time>2026-04-19T11:18:45Z</time></trkpt><trkpt lat="44.92693204193201" lon="7.234722920757206"><ele>507.0</ele><time>2026-04-19T11:18:46Z</time></trkpt><trkpt lat="44.92710418054216" lon="7.234576989014153"><ele>507.0</ele><time>2026-04-19T11:18:47Z</time></trkpt><trkpt lat="44.92727872262678" lon="7.234436566080412"><ele>507.0</ele><time>2026-04-19T11:18:48Z</time></trkpt><trkpt lat="44.92745092547184" lon="7.2342895845683906"><ele>507.0</ele><time>2026-04-19T11:18:49Z</time></trkpt><trkpt lat="44.92762385621719" lon="7.234141538801187"><ele>507.0</ele><time>2026-04-19T11:18:49.998Z</time></trkpt><trkpt lat="44.92779637373216" lon="7.233996546571532"><ele>507.66666666666663</ele><time>2026-04-19T11:18:50.998Z</time></trkpt><trkpt lat="44.92797565703525" lon="7.23386357676985"><ele>508.3333333333333</ele><time>2026-04-19T11:18:51.998Z</time></trkpt><trkpt lat="44.9281479858838" lon="7.233726103966987"><ele>509.0</ele><time>2026-04-19T11:18:52.998Z</time></trkpt><trkpt lat="44.92831434547659" lon="7.233582218947542"><ele>509.0</ele><time>2026-04-19T11:18:53.998Z</time></trkpt><trkpt lat="44.92848210683795" lon="7.233437291451133"><ele>509.0</ele><time>2026-04-19T11:18:54.998Z</time></trkpt><trkpt lat="44.92865806656808" lon="7.233306272395171"><ele>509.0</ele><time>2026-04-19T11:18:55.998Z</time></trkpt><trkpt lat="44.92882258935466" lon="7.233156635208284"><ele>510.0</ele><time>2026-04-19T11:18:56.998Z</time></trkpt><trkpt lat="44.92899006776258" lon="7.233013245328165"><ele>511.0</ele><time>2026-04-19T11:18:57.999Z</time></trkpt><trkpt lat="44.92915623248086" lon="7.232870812342389"><ele>512.0</ele><time>2026-04-19T11:18:58.999Z</time></trkpt><trkpt lat="44.929323644410175" lon="7.232732098757274"><ele>512.6666666666666</ele><time>2026-04-19T11:18:59.999Z</time></trkpt><trkpt lat="44.9294874071126" lon="7.2325955645532325"><ele>513.3333333333334</ele><time>2026-04-19T11:19:00.999Z</time></trkpt><trkpt lat="44.92965010558914" lon="7.2324578881182795"><ele>514.0</ele><time>2026-04-19T11:19:01.999Z</time></trkpt><trkpt lat="44.92980799918566" lon="7.232314727247423"><ele>514.6666666666667</ele><time>2026-04-19T11:19:02.999Z</time></trkpt><trkpt lat="44.92996391388453" lon="7.232171760302418"><ele>515.3333333333334</ele><time>2026-04-19T11:19:03.999Z</time></trkpt><trkpt lat="44.93011923294106" lon="7.232027688102355"><ele>516.0</ele><time>2026-04-19T11:19:04.999Z</time></trkpt><trkpt lat="44.93026691843271" lon="7.231872934823143"><ele>516.0</ele><time>2026-04-19T11:19:05.999Z</time></trkpt><trkpt lat="44.93041018312887" lon="7.231712861107271"><ele>516.0</ele><time>2026-04-19T11:19:06.999Z</time></trkpt><trkpt lat="44.930557464692036" lon="7.231560148022386"><ele>516.0</ele><time>2026-04-19T11:19:07.999Z</time></trkpt><trkpt lat="44.93070053798229" lon="7.231390905699523"><ele>516.0</ele><time>2026-04-19T11:19:08.999Z</time></trkpt><trkpt lat="44.930840268663324" lon="7.231223666350978"><ele>516.0</ele><time>2026-04-19T11:19:09.999Z</time></trkpt><trkpt lat="44.93098125345333" lon="7.231044519772685"><ele>516.0</ele><time>2026-04-19T11:19:10.999Z</time></trkpt><trkpt lat="44.93112516053" lon="7.230861326692964"><ele>516.3333333333334</ele><time>2026-04-19T11:19:11.999Z</time></trkpt><trkpt lat="44.93126852134443" lon="7.2306775547739965"><ele>516.6666666666667</ele><time>2026-04-19T11:19:12.999Z</time></trkpt><trkpt lat="44.931403470597445" lon="7.230491147088336"><ele>517.0</ele><time>2026-04-19T11:19:13.999Z</time></trkpt><trkpt lat="44.93153051979776" lon="7.230301421597786"><ele>517.3333333333334</ele><time>2026-04-19T11:19:14.999Z</time></trkpt><trkpt lat="44.93166194319945" lon="7.230108660748327"><ele>517.6666666666666</ele><time>2026-04-19T11:19:15.999Z</time></trkpt><trkpt lat="44.93178424606941" lon="7.2299211941104415"><ele>518.0</ele><time>2026-04-19T11:19:16.999Z</time></trkpt><trkpt lat="44.9319125532689" lon="7.229714031547111"><ele>518.3333333333333</ele><time>2026-04-19T11:19:17.999Z</time></trkpt><trkpt lat="44.93203372749441" lon="7.229502198790551"><ele>518.6666666666666</ele><time>2026-04-19T11:19:18.999Z</time></trkpt><trkpt lat="44.93215085187265" lon="7.229298190078724"><ele>519.0</ele><time>2026-04-19T11:19:19.999Z</time></trkpt><trkpt lat="44.932264221011486" lon="7.229098288887059"><ele>519.0</ele><time>2026-04-19T11:19:20.999Z</time></trkpt><trkpt lat="44.9323706774866" lon="7.228892571117692"><ele>519.0</ele><time>2026-04-19T11:19:21.999Z</time></trkpt><trkpt lat="44.932472766762956" lon="7.228686900445974"><ele>519.0</ele><time>2026-04-19T11:19:22.999Z</time></trkpt><trkpt lat="44.9325740649895" lon="7.228477440523037"><ele>519.0</ele><time>2026-04-19T11:19:23.999Z</time></trkpt><trkpt lat="44.93267179160618" lon="7.228268660833897"><ele>519.0</ele><time>2026-04-19T11:19:24.999Z</time></trkpt><trkpt lat="44.9327694479545" lon="7.228057444931597"><ele>519.0</ele><time>2026-04-19T11:19:25.999Z</time></trkpt><trkpt lat="44.93286431244224" lon="7.227828256866959"><ele>520.3333333333334</ele><time>2026-04-19T11:19:26.999Z</time></trkpt><trkpt lat="44.93294991389905" lon="7.227604428535083"><ele>521.6666666666667</ele><time>2026-04-19T11:19:27.999Z</time></trkpt><trkpt lat="44.93303323754771" lon="7.22737322404041"><ele>523.0</ele><time>2026-04-19T11:19:28.999Z</time></trkpt><trkpt lat="44.933110655691756" lon="7.227158307867643"><ele>524.0</ele><time>2026-04-19T11:19:29.999Z</time></trkpt><trkpt lat="44.933183859288064" lon="7.226956435060373"><ele>525.0</ele><time>2026-04-19T11:19:31Z</time></trkpt><trkpt lat="44.93325390413945" lon="7.226778841248783"><ele>526.0</ele><time>2026-04-19T11:19:32Z</time></trkpt><trkpt lat="44.93331204549859" lon="7.22661525378628"><ele>527.0</ele><time>2026-04-19T11:19:33Z</time></trkpt><trkpt lat="44.93337941064354" lon="7.226472548462876"><ele>529.5</ele><time>2026-04-19T11:19:34Z</time></trkpt><trkpt lat="44.93347362919393" lon="7.226360979643589"><ele>532.0</ele><time>2026-04-19T11:19:35Z</time></trkpt><trkpt lat="44.93358985889279" lon="7.226276734691141"><ele>534.5</ele><time>2026-04-19T11:19:36Z</time></trkpt><trkpt lat="44.933703099864026" lon="7.226190728372365"><ele>537.0</ele><time>2026-04-19T11:19:37Z</time></trkpt><trkpt lat="44.93386420918099" lon="7.226179367985078"><ele>537.0</ele><time>2026-04-19T11:19:38Z</time></trkpt><trkpt lat="44.93401933237594" lon="7.226167266445029"><ele>537.0</ele><time>2026-04-19T11:19:39Z</time></trkpt><trkpt lat="44.934176061090135" lon="7.226157175319666"><ele>537.0</ele><time>2026-04-19T11:19:40Z</time></trkpt><trkpt lat="44.93434026092028" lon="7.2261130689717765"><ele>535.3333333333334</ele><time>2026-04-19T11:19:41Z</time></trkpt><trkpt lat="44.934506774241264" lon="7.226046385529945"><ele>533.6666666666667</ele><time>2026-04-19T11:19:42Z</time></trkpt><trkpt lat="44.93467258452399" lon="7.225958308650201"><ele>532.0</ele><time>2026-04-19T11:19:43Z</time></trkpt><trkpt lat="44.93483527775958" lon="7.225845746543979"><ele>532.0</ele><time>2026-04-19T11:19:44Z</time></trkpt><trkpt lat="44.934989806795016" lon="7.225702573524104"><ele>532.0</ele><time>2026-04-19T11:19:45Z</time></trkpt><trkpt lat="44.93514170540198" lon="7.225556930238898"><ele>532.0</ele><time>2026-04-19T11:19:46Z</time></trkpt><trkpt lat="44.935303221037174" lon="7.225409499071161"><ele>534.3333333333334</ele><time>2026-04-19T11:19:47Z</time></trkpt><trkpt lat="44.93545687806988" lon="7.225263897471014"><ele>536.6666666666666</ele><time>2026-04-19T11:19:48Z</time></trkpt><trkpt lat="44.93562986183246" lon="7.225112770938304"><ele>539.0</ele><time>2026-04-19T11:19:49Z</time></trkpt><trkpt lat="44.93579724525398" lon="7.22496792661512"><ele>537.6666666666666</ele><time>2026-04-19T11:19:50Z</time></trkpt><trkpt lat="44.93596885255633" lon="7.224810013003442"><ele>536.3333333333334</ele><time>2026-04-19T11:19:51Z</time></trkpt><trkpt lat="44.93614145098369" lon="7.2246443020740685"><ele>535.0</ele><time>2026-04-19T11:19:52Z</time></trkpt><trkpt lat="44.93631476735051" lon="7.22448039840816"><ele>535.0</ele><time>2026-04-19T11:19:53Z</time></trkpt><trkpt lat="44.936481815948824" lon="7.224334963958459"><ele>535.0</ele><time>2026-04-19T11:19:54Z</time></trkpt><trkpt lat="44.93665064035731" lon="7.2241947653205285"><ele>535.0</ele><time>2026-04-19T11:19:55Z</time></trkpt><trkpt lat="44.93682077003838" lon="7.22407846708103"><ele>537.3333333333334</ele><time>2026-04-19T11:19:56Z</time></trkpt><trkpt lat="44.93699373389054" lon="7.223937787419883"><ele>539.6666666666666</ele><time>2026-04-19T11:19:57Z</time></trkpt><trkpt lat="44.937168560842" lon="7.223813240766492"><ele>542.0</ele><time>2026-04-19T11:19:58Z</time></trkpt><trkpt lat="44.93734430882296" lon="7.223694871105586"><ele>542.0</ele><time>2026-04-19T11:19:59Z</time></trkpt><trkpt lat="44.937515391767654" lon="7.223581595393328"><ele>542.0</ele><time>2026-04-19T11:20:00Z</time></trkpt><trkpt lat="44.93769043716905" lon="7.223476120184457"><ele>542.0</ele><time>2026-04-19T11:20:01Z</time></trkpt><trkpt lat="44.937862809158524" lon="7.223380925464399"><ele>544.0</ele><time>2026-04-19T11:20:02Z</time></trkpt><trkpt lat="44.938045568784744" lon="7.223279005161015"><ele>546.0</ele><time>2026-04-19T11:20:03Z</time></trkpt><trkpt lat="44.93822922090602" lon="7.223184796870997"><ele>548.0</ele><time>2026-04-19T11:20:04Z</time></trkpt><trkpt lat="44.938416065785646" lon="7.223088110405083"><ele>548.0</ele><time>2026-04-19T11:20:05Z</time></trkpt><trkpt lat="44.93860174213712" lon="7.222997372487669"><ele>548.0</ele><time>2026-04-19T11:20:06Z</time></trkpt><trkpt lat="44.93879034191833" lon="7.22290429099175"><ele>548.0</ele><time>2026-04-19T11:20:07Z</time></trkpt><trkpt lat="44.93897852403007" lon="7.22281940637284"><ele>548.0</ele><time>2026-04-19T11:20:08Z</time></trkpt><trkpt lat="44.93916750789013" lon="7.222729364939857"><ele>548.0</ele><time>2026-04-19T11:20:09Z</time></trkpt><trkpt lat="44.93935801178777" lon="7.222635722999461"><ele>548.0</ele><time>2026-04-19T11:20:10Z</time></trkpt><trkpt lat="44.93954188398571" lon="7.222552115322975"><ele>546.3333333333333</ele><time>2026-04-19T11:20:11Z</time></trkpt><trkpt lat="44.93972835281732" lon="7.2224621253278745"><ele>544.6666666666666</ele><time>2026-04-19T11:20:12Z</time></trkpt><trkpt lat="44.93991273393378" lon="7.222374517005899"><ele>543.0</ele><time>2026-04-19T11:20:13Z</time></trkpt><trkpt lat="44.94009526471307" lon="7.222283767165137"><ele>548.0</ele><time>2026-04-19T11:20:14Z</time></trkpt><trkpt lat="44.94027280396147" lon="7.222194291031115"><ele>553.0</ele><time>2026-04-19T11:20:15Z</time></trkpt><trkpt lat="44.94045404735187" lon="7.222100182425208"><ele>558.0</ele><time>2026-04-19T11:20:16Z</time></trkpt><trkpt lat="44.94063570141623" lon="7.222002985712096"><ele>558.0</ele><time>2026-04-19T11:20:17Z</time></trkpt><trkpt lat="44.94081501281276" lon="7.2219081792483735"><ele>558.0</ele><time>2026-04-19T11:20:18Z</time></trkpt><trkpt lat="44.9409915649528" lon="7.221816214093688"><ele>558.0</ele><time>2026-04-19T11:20:19Z</time></trkpt><trkpt lat="44.94115755988412" lon="7.221713138927697"><ele>560.3333333333334</ele><time>2026-04-19T11:20:20Z</time></trkpt><trkpt lat="44.941324783194815" lon="7.221606992228611"><ele>562.6666666666667</ele><time>2026-04-19T11:20:21Z</time></trkpt><trkpt lat="44.941492849384346" lon="7.221507606695338"><ele>565.0</ele><time>2026-04-19T11:20:22Z</time></trkpt><trkpt lat="44.941662040581335" lon="7.221401219866774"><ele>557.3333333333334</ele><time>2026-04-19T11:20:23Z</time></trkpt><trkpt lat="44.94183082736211" lon="7.221299632208053"><ele>549.6666666666666</ele><time>2026-04-19T11:20:24Z</time></trkpt><trkpt lat="44.94198367158848" lon="7.221208492847331"><ele>542.0</ele><time>2026-04-19T11:20:25Z</time></trkpt><trkpt lat="44.94212557866721" lon="7.221117258112831"><ele>542.0</ele><time>2026-04-19T11:20:26Z</time></trkpt><trkpt lat="44.942259580707265" lon="7.221033182817935"><ele>542.0</ele><time>2026-04-19T11:20:27Z</time></trkpt><trkpt lat="44.94238882065324" lon="7.220967307328357"><ele>542.0</ele><time>2026-04-19T11:20:28Z</time></trkpt><trkpt lat="44.9425109474381" lon="7.220934094029762"><ele>542.0</ele><time>2026-04-19T11:20:29Z</time></trkpt><trkpt lat="44.9426092085876" lon="7.220945225450718"><ele>542.4</ele><time>2026-04-19T11:20:30Z</time></trkpt><trkpt lat="44.942682871315554" lon="7.2209411246024535"><ele>542.8000000000001</ele><time>2026-04-19T11:20:31Z</time></trkpt><trkpt lat="44.94274698948887" lon="7.220795354846519"><ele>543.2</ele><time>2026-04-19T11:20:33Z</time></trkpt><trkpt lat="44.942725384691585" lon="7.220682886377676"><ele>543.6</ele><time>2026-04-19T11:20:34Z</time></trkpt><trkpt lat="44.94267324323916" lon="7.220579566959029"><ele>544.0</ele><time>2026-04-19T11:20:35Z</time></trkpt><trkpt lat="44.94261378446164" lon="7.220492980908293"><ele>544.0</ele><time>2026-04-19T11:20:36Z</time></trkpt><trkpt lat="44.94259658719521" lon="7.22040699204502"><ele>544.0</ele><time>2026-04-19T11:20:37Z</time></trkpt><trkpt lat="44.94270555688512" lon="7.220313982663007"><ele>544.0</ele><time>2026-04-19T11:20:39Z</time></trkpt><trkpt lat="44.94278207552468" lon="7.220349882180782"><ele>544.0</ele><time>2026-04-19T11:20:40Z</time></trkpt><trkpt lat="44.94285752216428" lon="7.220442936839631"><ele>544.0</ele><time>2026-04-19T11:20:41Z</time></trkpt><trkpt lat="44.94294286323841" lon="7.220556543685079"><ele>544.0</ele><time>2026-04-19T11:20:42Z</time></trkpt><trkpt lat="44.94305463079221" lon="7.220640870894362"><ele>544.0</ele><time>2026-04-19T11:20:43Z</time></trkpt><trkpt lat="44.94319404942322" lon="7.22066755914875"><ele>544.0</ele><time>2026-04-19T11:20:44Z</time></trkpt><trkpt lat="44.94334437695607" lon="7.220612888596618"><ele>544.0</ele><time>2026-04-19T11:20:45Z</time></trkpt><trkpt lat="44.94349030455904" lon="7.220527647201589"><ele>544.0</ele><time>2026-04-19T11:20:46Z</time></trkpt><trkpt lat="44.9436375911829" lon="7.220450785845705"><ele>544.0</ele><time>2026-04-19T11:20:47Z</time></trkpt><trkpt lat="44.9437686958763" lon="7.220373756537116"><ele>544.0</ele><time>2026-04-19T11:20:48Z</time></trkpt><trkpt lat="44.943896885831535" lon="7.220276923011812"><ele>544.0</ele><time>2026-04-19T11:20:49Z</time></trkpt><trkpt lat="44.944021898428645" lon="7.220161415916831"><ele>544.0</ele><time>2026-04-19T11:20:50Z</time></trkpt><trkpt lat="44.944135545274314" lon="7.2200163116054155"><ele>544.0</ele><time>2026-04-19T11:20:51Z</time></trkpt><trkpt lat="44.94423987465988" lon="7.219853929363286"><ele>544.0</ele><time>2026-04-19T11:20:52Z</time></trkpt><trkpt lat="44.944334085044225" lon="7.219690343689259"><ele>544.75</ele><time>2026-04-19T11:20:53Z</time></trkpt><trkpt lat="44.94441201480265" lon="7.219532427085473"><ele>545.5</ele><time>2026-04-19T11:20:54Z</time></trkpt><trkpt lat="44.944477512105664" lon="7.2193647569631265"><ele>546.25</ele><time>2026-04-19T11:20:55Z</time></trkpt><trkpt lat="44.94452985789025" lon="7.219188636624133"><ele>547.0</ele><time>2026-04-19T11:20:55.999Z</time></trkpt><trkpt lat="44.94455930991181" lon="7.219003506457931"><ele>548.75</ele><time>2026-04-19T11:20:56.999Z</time></trkpt><trkpt lat="44.94455706321809" lon="7.218809746176598"><ele>550.5</ele><time>2026-04-19T11:20:57.999Z</time></trkpt><trkpt lat="44.944552171386505" lon="7.2186201622564194"><ele>552.25</ele><time>2026-04-19T11:20:58.999Z</time></trkpt><trkpt lat="44.94461128309758" lon="7.218438251372677"><ele>554.0</ele><time>2026-04-19T11:20:59.999Z</time></trkpt><trkpt lat="44.94467563024369" lon="7.218312737359141"><ele>554.0</ele><time>2026-04-19T11:21:00.999Z</time></trkpt><trkpt lat="44.94475800436593" lon="7.218184692832542"><ele>554.0</ele><time>2026-04-19T11:21:01.999Z</time></trkpt><trkpt lat="44.94483684440333" lon="7.218051085356524"><ele>554.0</ele><time>2026-04-19T11:21:02.999Z</time></trkpt><trkpt lat="44.944929528434805" lon="7.217935435914839"><ele>554.0</ele><time>2026-04-19T11:21:03.999Z</time></trkpt><trkpt lat="44.94501417783613" lon="7.2177975762825355"><ele>554.0</ele><time>2026-04-19T11:21:04.999Z</time></trkpt><trkpt lat="44.94509143799786" lon="7.217653199656062"><ele>554.0</ele><time>2026-04-19T11:21:05.999Z</time></trkpt><trkpt lat="44.94516732177089" lon="7.217499141530697"><ele>554.0</ele><time>2026-04-19T11:21:06.999Z</time></trkpt><trkpt lat="44.94525228047035" lon="7.2173457019578935"><ele>554.0</ele><time>2026-04-19T11:21:07.999Z</time></trkpt><trkpt lat="44.94537123061599" lon="7.217245013240685"><ele>554.0</ele><time>2026-04-19T11:21:08.999Z</time></trkpt><trkpt lat="44.94548088555191" lon="7.217125331023958"><ele>554.0</ele><time>2026-04-19T11:21:09.999Z</time></trkpt><trkpt lat="44.94561002273658" lon="7.217025036925901"><ele>554.0</ele><time>2026-04-19T11:21:10.999Z</time></trkpt><trkpt lat="44.9457447125744" lon="7.216905871127416"><ele>554.0</ele><time>2026-04-19T11:21:11.999Z</time></trkpt><trkpt lat="44.94587349020939" lon="7.216760249232781"><ele>554.3333333333333</ele><time>2026-04-19T11:21:12.999Z</time></trkpt><trkpt lat="44.945999907536645" lon="7.216632253895245"><ele>554.6666666666666</ele><time>2026-04-19T11:21:13.999Z</time></trkpt><trkpt lat="44.946125100713424" lon="7.216500883742697"><ele>555.0</ele><time>2026-04-19T11:21:14.999Z</time></trkpt><trkpt lat="44.94624599021176" lon="7.216361781610863"><ele>555.0</ele><time>2026-04-19T11:21:15.999Z</time></trkpt><trkpt lat="44.94635096458066" lon="7.216202176051773"><ele>555.0</ele><time>2026-04-19T11:21:16.999Z</time></trkpt><trkpt lat="44.94644440422529" lon="7.216022351477122"><ele>555.0</ele><time>2026-04-19T11:21:17.999Z</time></trkpt><trkpt lat="44.946522928011404" lon="7.215844536770696"><ele>555.0</ele><time>2026-04-19T11:21:18.999Z</time></trkpt><trkpt lat="44.94659849889229" lon="7.215661758440772"><ele>555.0</ele><time>2026-04-19T11:21:20Z</time></trkpt><trkpt lat="44.94667877140362" lon="7.215493515130399"><ele>555.0</ele><time>2026-04-19T11:21:21Z</time></trkpt><trkpt lat="44.94676494230865" lon="7.215327209432123"><ele>555.0</ele><time>2026-04-19T11:21:22Z</time></trkpt><trkpt lat="44.94685040765139" lon="7.21516644555068"><ele>555.6666666666666</ele><time>2026-04-19T11:21:23Z</time></trkpt><trkpt lat="44.946951804506" lon="7.215005109264121"><ele>556.3333333333333</ele><time>2026-04-19T11:21:24Z</time></trkpt><trkpt lat="44.94704750631774" lon="7.214839024770302"><ele>557.0</ele><time>2026-04-19T11:21:25Z</time></trkpt><trkpt lat="44.94714487742742" lon="7.214661137492974"><ele>557.3333333333333</ele><time>2026-04-19T11:21:26Z</time></trkpt><trkpt lat="44.94724741122666" lon="7.214481350641193"><ele>557.6666666666666</ele><time>2026-04-19T11:21:27Z</time></trkpt><trkpt lat="44.94734823878564" lon="7.214315859492542"><ele>558.0</ele><time>2026-04-19T11:21:28Z</time></trkpt><trkpt lat="44.94745112497302" lon="7.21414734781322"><ele>558.25</ele><time>2026-04-19T11:21:29Z</time></trkpt><trkpt lat="44.947548755449304" lon="7.2139925356163825"><ele>558.5</ele><time>2026-04-19T11:21:30Z</time></trkpt><trkpt lat="44.94764529686742" lon="7.21382235642853"><ele>558.75</ele><time>2026-04-19T11:21:31Z</time></trkpt><trkpt lat="44.94773685661698" lon="7.2136602321183725"><ele>559.0</ele><time>2026-04-19T11:21:32Z</time></trkpt><trkpt lat="44.94782315682777" lon="7.213493251626799"><ele>559.0</ele><time>2026-04-19T11:21:33Z</time></trkpt><trkpt lat="44.94791792545535" lon="7.213324754247525"><ele>559.0</ele><time>2026-04-19T11:21:34Z</time></trkpt><trkpt lat="44.94801304545959" lon="7.213142890918109"><ele>559.0</ele><time>2026-04-19T11:21:35Z</time></trkpt><trkpt lat="44.94811202710812" lon="7.212956407262369"><ele>559.6666666666667</ele><time>2026-04-19T11:21:36Z</time></trkpt><trkpt lat="44.9482118678289" lon="7.212763063104332"><ele>560.3333333333334</ele><time>2026-04-19T11:21:37Z</time></trkpt><trkpt lat="44.94831434954531" lon="7.212568664512582"><ele>561.0</ele><time>2026-04-19T11:21:38Z</time></trkpt><trkpt lat="44.94841869427395" lon="7.212377341699007"><ele>561.6666666666666</ele><time>2026-04-19T11:21:39Z</time></trkpt><trkpt lat="44.94851493723669" lon="7.212190377156718"><ele>562.3333333333333</ele><time>2026-04-19T11:21:40Z</time></trkpt><trkpt lat="44.94860967400274" lon="7.2120039367059645"><ele>563.0</ele><time>2026-04-19T11:21:41Z</time></trkpt><trkpt lat="44.94870655780223" lon="7.211815385884586"><ele>563.0</ele><time>2026-04-19T11:21:42Z</time></trkpt><trkpt lat="44.948802893302215" lon="7.211621837642917"><ele>563.0</ele><time>2026-04-19T11:21:43Z</time></trkpt><trkpt lat="44.94889460521333" lon="7.211419427995774"><ele>563.0</ele><time>2026-04-19T11:21:44Z</time></trkpt><trkpt lat="44.948985339542766" lon="7.21122500100026"><ele>563.0</ele><time>2026-04-19T11:21:45Z</time></trkpt><trkpt lat="44.94907657627611" lon="7.211032976506792"><ele>563.0</ele><time>2026-04-19T11:21:46Z</time></trkpt><trkpt lat="44.94916451708273" lon="7.210826542198667"><ele>563.0</ele><time>2026-04-19T11:21:47Z</time></trkpt><trkpt lat="44.94924507462315" lon="7.210619636305955"><ele>563.0</ele><time>2026-04-19T11:21:48Z</time></trkpt><trkpt lat="44.949330652612545" lon="7.210420793167059"><ele>563.0</ele><time>2026-04-19T11:21:49Z</time></trkpt><trkpt lat="44.9494112037884" lon="7.210225807969462"><ele>563.0</ele><time>2026-04-19T11:21:50Z</time></trkpt><trkpt lat="44.9494893298188" lon="7.2100164152116015"><ele>564.0</ele><time>2026-04-19T11:21:51Z</time></trkpt><trkpt lat="44.94956645702223" lon="7.209816087460056"><ele>565.0</ele><time>2026-04-19T11:21:52Z</time></trkpt><trkpt lat="44.94964962738643" lon="7.209606732613769"><ele>566.0</ele><time>2026-04-19T11:21:53Z</time></trkpt><trkpt lat="44.94972399747155" lon="7.209417241045509"><ele>566.0</ele><time>2026-04-19T11:21:54Z</time></trkpt><trkpt lat="44.94979736244819" lon="7.209239455249442"><ele>566.0</ele><time>2026-04-19T11:21:55Z</time></trkpt><trkpt lat="44.94986018256402" lon="7.209060185229932"><ele>566.0</ele><time>2026-04-19T11:21:56Z</time></trkpt><trkpt lat="44.94992177650894" lon="7.208866715300488"><ele>566.0</ele><time>2026-04-19T11:21:57Z</time></trkpt><trkpt lat="44.94998875816045" lon="7.208678128511861"><ele>565.3333333333333</ele><time>2026-04-19T11:21:58Z</time></trkpt><trkpt lat="44.95007414851803" lon="7.208498471639063"><ele>564.6666666666666</ele><time>2026-04-19T11:21:59Z</time></trkpt><trkpt lat="44.95018866538003" lon="7.208350155390119"><ele>564.0</ele><time>2026-04-19T11:22:00Z</time></trkpt><trkpt lat="44.95027285180324" lon="7.208180340020284"><ele>565.5</ele><time>2026-04-19T11:22:01Z</time></trkpt><trkpt lat="44.950356133727354" lon="7.208027042083014"><ele>567.0</ele><time>2026-04-19T11:22:02Z</time></trkpt><trkpt lat="44.95041566626774" lon="7.207863580031081"><ele>568.5</ele><time>2026-04-19T11:22:03Z</time></trkpt><trkpt lat="44.95047065677838" lon="7.207714820121277"><ele>570.0</ele><time>2026-04-19T11:22:04Z</time></trkpt><trkpt lat="44.95052816651349" lon="7.207575748980345"><ele>570.0</ele><time>2026-04-19T11:22:05Z</time></trkpt><trkpt lat="44.95058706561484" lon="7.207425078488125"><ele>570.0</ele><time>2026-04-19T11:22:06Z</time></trkpt><trkpt lat="44.95065145364295" lon="7.207268039104578"><ele>570.0</ele><time>2026-04-19T11:22:07Z</time></trkpt><trkpt lat="44.950712373965594" lon="7.207105610788096"><ele>570.0</ele><time>2026-04-19T11:22:08Z</time></trkpt><trkpt lat="44.950768017229834" lon="7.206932662455349"><ele>570.5</ele><time>2026-04-19T11:22:09Z</time></trkpt><trkpt lat="44.95082116755948" lon="7.206752988128838"><ele>571.0</ele><time>2026-04-19T11:22:10Z</time></trkpt><trkpt lat="44.95087216276759" lon="7.206571436891315"><ele>571.5</ele><time>2026-04-19T11:22:11Z</time></trkpt><trkpt lat="44.95092441030701" lon="7.206391152249777"><ele>572.0</ele><time>2026-04-19T11:22:12Z</time></trkpt><trkpt lat="44.95097820695135" lon="7.206202453043223"><ele>572.0</ele><time>2026-04-19T11:22:13Z</time></trkpt><trkpt lat="44.95102738112669" lon="7.20601830604501"><ele>572.0</ele><time>2026-04-19T11:22:14Z</time></trkpt><trkpt lat="44.95107660602784" lon="7.205837568008881"><ele>572.0</ele><time>2026-04-19T11:22:15Z</time></trkpt><trkpt lat="44.95112681020544" lon="7.205661931921841"><ele>572.0</ele><time>2026-04-19T11:22:16Z</time></trkpt><trkpt lat="44.95116746983312" lon="7.205478216390769"><ele>572.0</ele><time>2026-04-19T11:22:17Z</time></trkpt><trkpt lat="44.95121375874315" lon="7.205288075015803"><ele>572.0</ele><time>2026-04-19T11:22:18Z</time></trkpt><trkpt lat="44.95126699117521" lon="7.205101361767937"><ele>572.0</ele><time>2026-04-19T11:22:19Z</time></trkpt><trkpt lat="44.95131132192836" lon="7.204895073775746"><ele>572.0</ele><time>2026-04-19T11:22:20.001Z</time></trkpt><trkpt lat="44.9513522345344" lon="7.204678359650111"><ele>573.0</ele><time>2026-04-19T11:22:21.001Z</time></trkpt><trkpt lat="44.95139304928627" lon="7.204455454094412"><ele>574.0</ele><time>2026-04-19T11:22:22.001Z</time></trkpt><trkpt lat="44.951438504371104" lon="7.204231436738895"><ele>575.0</ele><time>2026-04-19T11:22:23.001Z</time></trkpt><trkpt lat="44.951482140513576" lon="7.204007700299794"><ele>575.3333333333333</ele><time>2026-04-19T11:22:24.001Z</time></trkpt><trkpt lat="44.95152551712323" lon="7.203772244196147"><ele>575.6666666666666</ele><time>2026-04-19T11:22:25.001Z</time></trkpt><trkpt lat="44.951566310199475" lon="7.20353953398438"><ele>576.0</ele><time>2026-04-19T11:22:26.001Z</time></trkpt><trkpt lat="44.95160932531343" lon="7.2033151184925215"><ele>576.0</ele><time>2026-04-19T11:22:27.001Z</time></trkpt><trkpt lat="44.951649428158355" lon="7.203080296892765"><ele>576.0</ele><time>2026-04-19T11:22:28.001Z</time></trkpt><trkpt lat="44.95168041423492" lon="7.202839711587514"><ele>576.0</ele><time>2026-04-19T11:22:29.001Z</time></trkpt><trkpt lat="44.951707053735774" lon="7.2026003848518885"><ele>575.3333333333334</ele><time>2026-04-19T11:22:30.001Z</time></trkpt><trkpt lat="44.95172876328191" lon="7.202359750804657"><ele>574.6666666666667</ele><time>2026-04-19T11:22:31.001Z</time></trkpt><trkpt lat="44.95174841605109" lon="7.202125271062815"><ele>574.0</ele><time>2026-04-19T11:22:32.001Z</time></trkpt><trkpt lat="44.95177101860891" lon="7.201897266975234"><ele>573.6666666666667</ele><time>2026-04-19T11:22:33.001Z</time></trkpt><trkpt lat="44.95179420338759" lon="7.2016598467620785"><ele>573.3333333333334</ele><time>2026-04-19T11:22:34.001Z</time></trkpt><trkpt lat="44.95181783566116" lon="7.201418852715926"><ele>573.0</ele><time>2026-04-19T11:22:35.001Z</time></trkpt><trkpt lat="44.95183881258471" lon="7.20117921914349"><ele>573.0</ele><time>2026-04-19T11:22:36.001Z</time></trkpt><trkpt lat="44.95186060494098" lon="7.200943214679302"><ele>573.0</ele><time>2026-04-19T11:22:37.001Z</time></trkpt><trkpt lat="44.95188817584449" lon="7.200711716324909"><ele>573.0</ele><time>2026-04-19T11:22:38.001Z</time></trkpt><trkpt lat="44.95191276781342" lon="7.20047124061745"><ele>573.6666666666666</ele><time>2026-04-19T11:22:39.001Z</time></trkpt><trkpt lat="44.95193617195193" lon="7.200225767013545"><ele>574.3333333333333</ele><time>2026-04-19T11:22:40.001Z</time></trkpt><trkpt lat="44.95195991246883" lon="7.199989254021854"><ele>575.0</ele><time>2026-04-19T11:22:41.001Z</time></trkpt><trkpt lat="44.951988822275894" lon="7.199755675171612"><ele>575.6666666666666</ele><time>2026-04-19T11:22:42.001Z</time></trkpt><trkpt lat="44.952015293871945" lon="7.199530504132588"><ele>576.3333333333334</ele><time>2026-04-19T11:22:43.001Z</time></trkpt><trkpt lat="44.952022844040485" lon="7.199326402172753"><ele>577.0</ele><time>2026-04-19T11:22:44.001Z</time></trkpt><trkpt lat="44.952002725097984" lon="7.199112211327036"><ele>577.0</ele><time>2026-04-19T11:22:45.001Z</time></trkpt><trkpt lat="44.95196357419722" lon="7.198898062626006"><ele>577.0</ele><time>2026-04-19T11:22:46.001Z</time></trkpt><trkpt lat="44.9519109038081" lon="7.198696532220644"><ele>577.0</ele><time>2026-04-19T11:22:47.001Z</time></trkpt><trkpt lat="44.95185961673673" lon="7.198491048531374"><ele>577.0</ele><time>2026-04-19T11:22:48.001Z</time></trkpt><trkpt lat="44.95180298192073" lon="7.19833682470241"><ele>577.0</ele><time>2026-04-19T11:22:49.001Z</time></trkpt><trkpt lat="44.95175716444376" lon="7.198183842376134"><ele>577.0</ele><time>2026-04-19T11:22:50.001Z</time></trkpt><trkpt lat="44.9517369025467" lon="7.19799749051931"><ele>577.0</ele><time>2026-04-19T11:22:51.001Z</time></trkpt><trkpt lat="44.95173461662628" lon="7.197828029584082"><ele>577.75</ele><time>2026-04-19T11:22:52.001Z</time></trkpt><trkpt lat="44.95175722932905" lon="7.197707640614066"><ele>578.5</ele><time>2026-04-19T11:22:53.001Z</time></trkpt><trkpt lat="44.95179368812352" lon="7.197536287390554"><ele>579.25</ele><time>2026-04-19T11:22:54.001Z</time></trkpt><trkpt lat="44.951843323109536" lon="7.197357572440339"><ele>580.0</ele><time>2026-04-19T11:22:55.001Z</time></trkpt><trkpt lat="44.9519002551917" lon="7.197161999505005"><ele>581.0</ele><time>2026-04-19T11:22:56.001Z</time></trkpt><trkpt lat="44.95195904905794" lon="7.196926126817407"><ele>582.0</ele><time>2026-04-19T11:22:57.001Z</time></trkpt><trkpt lat="44.95203173806277" lon="7.196684630678737"><ele>583.0</ele><time>2026-04-19T11:22:58.001Z</time></trkpt><trkpt lat="44.95206401607122" lon="7.196409208098836"><ele>583.6666666666667</ele><time>2026-04-19T11:22:59.001Z</time></trkpt><trkpt lat="44.952106739174724" lon="7.1961397483828335"><ele>584.3333333333334</ele><time>2026-04-19T11:23:00.001Z</time></trkpt><trkpt lat="44.95215695151576" lon="7.195865487396856"><ele>585.0</ele><time>2026-04-19T11:23:01.001Z</time></trkpt><trkpt lat="44.95219902343261" lon="7.195596875881665"><ele>585.3333333333334</ele><time>2026-04-19T11:23:02Z</time></trkpt><trkpt lat="44.95223825078398" lon="7.195344546880737"><ele>585.6666666666667</ele><time>2026-04-19T11:23:03Z</time></trkpt><trkpt lat="44.95226858560652" lon="7.19508921352681"><ele>586.0</ele><time>2026-04-19T11:23:04Z</time></trkpt><trkpt lat="44.952305161856906" lon="7.194840248776313"><ele>586.0</ele><time>2026-04-19T11:23:05Z</time></trkpt><trkpt lat="44.9523291773282" lon="7.194602422222813"><ele>586.0</ele><time>2026-04-19T11:23:06Z</time></trkpt><trkpt lat="44.95235318126622" lon="7.194374587618926"><ele>586.0</ele><time>2026-04-19T11:23:07Z</time></trkpt><trkpt lat="44.95237836117894" lon="7.19416625676496"><ele>587.3333333333334</ele><time>2026-04-19T11:23:08Z</time></trkpt><trkpt lat="44.952408225783266" lon="7.193898938599166"><ele>588.6666666666666</ele><time>2026-04-19T11:23:09Z</time></trkpt><trkpt lat="44.95245213058783" lon="7.193685564600317"><ele>590.0</ele><time>2026-04-19T11:23:10Z</time></trkpt><trkpt lat="44.952497310324944" lon="7.193444533135538"><ele>590.0</ele><time>2026-04-19T11:23:11Z</time></trkpt><trkpt lat="44.95254155519962" lon="7.193203693425491"><ele>590.0</ele><time>2026-04-19T11:23:12Z</time></trkpt><trkpt lat="44.95258605936792" lon="7.1929390182113595"><ele>590.0</ele><time>2026-04-19T11:23:13Z</time></trkpt><trkpt lat="44.952627942021934" lon="7.192681129396074"><ele>590.6666666666666</ele><time>2026-04-19T11:23:14Z</time></trkpt><trkpt lat="44.952671782027195" lon="7.192411188483147"><ele>591.3333333333334</ele><time>2026-04-19T11:23:15Z</time></trkpt><trkpt lat="44.9527089223837" lon="7.19218249993744"><ele>592.0</ele><time>2026-04-19T11:23:16Z</time></trkpt><trkpt lat="44.952747665353904" lon="7.191934220272813"><ele>592.6666666666667</ele><time>2026-04-19T11:23:17Z</time></trkpt><trkpt lat="44.95277933263741" lon="7.191676715770007"><ele>593.3333333333334</ele><time>2026-04-19T11:23:18Z</time></trkpt><trkpt lat="44.952797774484544" lon="7.191413916881584"><ele>594.0</ele><time>2026-04-19T11:23:19Z</time></trkpt><trkpt lat="44.95281172938485" lon="7.191159548224974"><ele>594.3333333333334</ele><time>2026-04-19T11:23:20Z</time></trkpt><trkpt lat="44.952826169546505" lon="7.190896334038381"><ele>594.6666666666667</ele><time>2026-04-19T11:23:21Z</time></trkpt><trkpt lat="44.95284357169027" lon="7.190638917114901"><ele>595.0</ele><time>2026-04-19T11:23:22Z</time></trkpt><trkpt lat="44.952860716004324" lon="7.190386050809426"><ele>595.3333333333334</ele><time>2026-04-19T11:23:23Z</time></trkpt><trkpt lat="44.95287953263746" lon="7.1901454207573785"><ele>595.6666666666666</ele><time>2026-04-19T11:23:24Z</time></trkpt><trkpt lat="44.95290937483445" lon="7.189910456392868"><ele>596.0</ele><time>2026-04-19T11:23:25Z</time></trkpt><trkpt lat="44.95294444823457" lon="7.189670788411116"><ele>596.6666666666666</ele><time>2026-04-19T11:23:26Z</time></trkpt><trkpt lat="44.9529760798712" lon="7.189431597892721"><ele>597.3333333333334</ele><time>2026-04-19T11:23:27Z</time></trkpt><trkpt lat="44.95297970428851" lon="7.189194655951775"><ele>598.0</ele><time>2026-04-19T11:23:28Z</time></trkpt><trkpt lat="44.952989758489224" lon="7.188943212060064"><ele>599.3333333333334</ele><time>2026-04-19T11:23:29Z</time></trkpt><trkpt lat="44.95301412953371" lon="7.18869961212304"><ele>600.6666666666666</ele><time>2026-04-19T11:23:30Z</time></trkpt><trkpt lat="44.95302645053471" lon="7.188449401122011"><ele>602.0</ele><time>2026-04-19T11:23:31Z</time></trkpt><trkpt lat="44.95303054545458" lon="7.188203277937577"><ele>602.0</ele><time>2026-04-19T11:23:32Z</time></trkpt><trkpt lat="44.95300813585386" lon="7.187983002870002"><ele>602.0</ele><time>2026-04-19T11:23:33Z</time></trkpt><trkpt lat="44.952981289923954" lon="7.1877723962606215"><ele>602.0</ele><time>2026-04-19T11:23:34Z</time></trkpt><trkpt lat="44.95293688084415" lon="7.187578055065666"><ele>602.0</ele><time>2026-04-19T11:23:35Z</time></trkpt><trkpt lat="44.95289674140627" lon="7.187395421859654"><ele>602.0</ele><time>2026-04-19T11:23:36Z</time></trkpt><trkpt lat="44.95283526852777" lon="7.18718353893849"><ele>602.0</ele><time>2026-04-19T11:23:37Z</time></trkpt><trkpt lat="44.95279088035849" lon="7.186965349631927"><ele>602.0</ele><time>2026-04-19T11:23:38.001Z</time></trkpt><trkpt lat="44.95276266569445" lon="7.186732454647656"><ele>602.0</ele><time>2026-04-19T11:23:39.001Z</time></trkpt><trkpt lat="44.9527648355513" lon="7.186490459221646"><ele>602.0</ele><time>2026-04-19T11:23:40.001Z</time></trkpt><trkpt lat="44.95285538390304" lon="7.186270952357271"><ele>602.3333333333333</ele><time>2026-04-19T11:23:41.001Z</time></trkpt><trkpt lat="44.9529370539171" lon="7.186052865698977"><ele>602.6666666666666</ele><time>2026-04-19T11:23:42.001Z</time></trkpt><trkpt lat="44.95302603224819" lon="7.185835110457908"><ele>603.0</ele><time>2026-04-19T11:23:43.001Z</time></trkpt><trkpt lat="44.95311880815525" lon="7.185599722131053"><ele>603.0</ele><time>2026-04-19T11:23:44.001Z</time></trkpt><trkpt lat="44.95320929998056" lon="7.185378949481178"><ele>603.0</ele><time>2026-04-19T11:23:45.001Z</time></trkpt><trkpt lat="44.953302972396656" lon="7.185148977829596"><ele>603.0</ele><time>2026-04-19T11:23:46.001Z</time></trkpt><trkpt lat="44.95340035807295" lon="7.184931183645487"><ele>603.6666666666666</ele><time>2026-04-19T11:23:47.001Z</time></trkpt><trkpt lat="44.95351174686527" lon="7.184732890038634"><ele>604.3333333333333</ele><time>2026-04-19T11:23:48.001Z</time></trkpt><trkpt lat="44.953599522769885" lon="7.1845057536813846"><ele>605.0</ele><time>2026-04-19T11:23:49.001Z</time></trkpt><trkpt lat="44.953664625586484" lon="7.1842660804512155"><ele>605.0</ele><time>2026-04-19T11:23:50.001Z</time></trkpt><trkpt lat="44.95369761168167" lon="7.1840323015363605"><ele>605.0</ele><time>2026-04-19T11:23:51.001Z</time></trkpt><trkpt lat="44.9537372476441" lon="7.183790025207274"><ele>605.0</ele><time>2026-04-19T11:23:52.001Z</time></trkpt><trkpt lat="44.95375918790242" lon="7.183537762539199"><ele>605.3333333333333</ele><time>2026-04-19T11:23:53.001Z</time></trkpt><trkpt lat="44.953801146452996" lon="7.183298961765622"><ele>605.6666666666666</ele><time>2026-04-19T11:23:54.001Z</time></trkpt><trkpt lat="44.95383128723466" lon="7.183045464898747"><ele>606.0</ele><time>2026-04-19T11:23:55.001Z</time></trkpt><trkpt lat="44.95386096958835" lon="7.182802219209485"><ele>606.3333333333334</ele><time>2026-04-19T11:23:56.001Z</time></trkpt><trkpt lat="44.95389093623513" lon="7.182556643787145"><ele>606.6666666666667</ele><time>2026-04-19T11:23:57.001Z</time></trkpt><trkpt lat="44.953907848474515" lon="7.182310805342654"><ele>607.0</ele><time>2026-04-19T11:23:58.001Z</time></trkpt><trkpt lat="44.95393928687245" lon="7.1820682787482575"><ele>607.6666666666667</ele><time>2026-04-19T11:23:59.001Z</time></trkpt><trkpt lat="44.953966726420454" lon="7.181832965431435"><ele>608.3333333333334</ele><time>2026-04-19T11:24:00.001Z</time></trkpt><trkpt lat="44.95398374342472" lon="7.1816092066880355"><ele>609.0</ele><time>2026-04-19T11:24:01.001Z</time></trkpt><trkpt lat="44.9539789248277" lon="7.181381414887966"><ele>609.6666666666666</ele><time>2026-04-19T11:24:02.001Z</time></trkpt><trkpt lat="44.95395131598887" lon="7.181145640930989"><ele>610.3333333333333</ele><time>2026-04-19T11:24:03.001Z</time></trkpt><trkpt lat="44.95394204694176" lon="7.1809064740549475"><ele>611.0</ele><time>2026-04-19T11:24:04.001Z</time></trkpt><trkpt lat="44.953923059278075" lon="7.1806592891823104"><ele>611.6666666666666</ele><time>2026-04-19T11:24:05.001Z</time></trkpt><trkpt lat="44.95390631120032" lon="7.180413107268671"><ele>612.3333333333334</ele><time>2026-04-19T11:24:06.001Z</time></trkpt><trkpt lat="44.95388964320771" lon="7.180160041827902"><ele>613.0</ele><time>2026-04-19T11:24:07.001Z</time></trkpt><trkpt lat="44.95385649630922" lon="7.17992128220523"><ele>614.3333333333334</ele><time>2026-04-19T11:24:08.001Z</time></trkpt><trkpt lat="44.95383369576565" lon="7.179696860541465"><ele>615.6666666666666</ele><time>2026-04-19T11:24:09.001Z</time></trkpt><trkpt lat="44.953801770806436" lon="7.179475589935872"><ele>617.0</ele><time>2026-04-19T11:24:10.001Z</time></trkpt><trkpt lat="44.95378408449963" lon="7.179272563653277"><ele>617.0</ele><time>2026-04-19T11:24:11.001Z</time></trkpt><trkpt lat="44.95374792286867" lon="7.179078491437447"><ele>617.0</ele><time>2026-04-19T11:24:12.001Z</time></trkpt><trkpt lat="44.953710921484095" lon="7.178906432716236"><ele>617.0</ele><time>2026-04-19T11:24:13.001Z</time></trkpt><trkpt lat="44.95366655758384" lon="7.178732629167279"><ele>617.0</ele><time>2026-04-19T11:24:14.001Z</time></trkpt><trkpt lat="44.95361649244417" lon="7.178571221306884"><ele>618.5</ele><time>2026-04-19T11:24:15.001Z</time></trkpt><trkpt lat="44.953569451356934" lon="7.1784024921473675"><ele>620.0</ele><time>2026-04-19T11:24:16.001Z</time></trkpt><trkpt lat="44.95353028447753" lon="7.17821914468682"><ele>621.5</ele><time>2026-04-19T11:24:17.001Z</time></trkpt><trkpt lat="44.95348839907966" lon="7.178017130116682"><ele>623.0</ele><time>2026-04-19T11:24:18.001Z</time></trkpt><trkpt lat="44.953445734649236" lon="7.177815534442482"><ele>623.0</ele><time>2026-04-19T11:24:19.001Z</time></trkpt><trkpt lat="44.953388193158865" lon="7.1776255659109465"><ele>623.0</ele><time>2026-04-19T11:24:20.001Z</time></trkpt><trkpt lat="44.95336338870025" lon="7.177431674368975"><ele>623.0</ele><time>2026-04-19T11:24:21.001Z</time></trkpt><trkpt lat="44.953314771584544" lon="7.177265160649132"><ele>623.0</ele><time>2026-04-19T11:24:22.001Z</time></trkpt><trkpt lat="44.95330019298961" lon="7.177111116795949"><ele>623.0</ele><time>2026-04-19T11:24:23.001Z</time></trkpt><trkpt lat="44.953293446194714" lon="7.176955878832201"><ele>623.0</ele><time>2026-04-19T11:24:24.001Z</time></trkpt><trkpt lat="44.953312757769034" lon="7.176807411297736"><ele>623.0</ele><time>2026-04-19T11:24:25.001Z</time></trkpt><trkpt lat="44.95330177191542" lon="7.176688296402129"><ele>623.0</ele><time>2026-04-19T11:24:26.001Z</time></trkpt><trkpt lat="44.953464950613245" lon="7.176670013000083"><ele>624.25</ele><time>2026-04-19T11:24:27.001Z</time></trkpt><trkpt lat="44.95355542699171" lon="7.176612244055021"><ele>625.5</ele><time>2026-04-19T11:24:28.001Z</time></trkpt><trkpt lat="44.95366922113783" lon="7.1765231301871895"><ele>626.75</ele><time>2026-04-19T11:24:29.001Z</time></trkpt><trkpt lat="44.95378564105481" lon="7.1764749275457556"><ele>628.0</ele><time>2026-04-19T11:24:30.001Z</time></trkpt><trkpt lat="44.95388728631504" lon="7.176414766435673"><ele>628.0</ele><time>2026-04-19T11:24:31.001Z</time></trkpt><trkpt lat="44.953987687058955" lon="7.176365265214812"><ele>628.0</ele><time>2026-04-19T11:24:32.001Z</time></trkpt><trkpt lat="44.95408436598147" lon="7.176335026406817"><ele>628.0</ele><time>2026-04-19T11:24:33.001Z</time></trkpt><trkpt lat="44.95416855073831" lon="7.17628314256944"><ele>628.0</ele><time>2026-04-19T11:24:34.001Z</time></trkpt><trkpt lat="44.954230296149234" lon="7.176194100207763"><ele>628.0</ele><time>2026-04-19T11:24:35.001Z</time></trkpt><trkpt lat="44.95424790523498" lon="7.17604832644081"><ele>642.0</ele><time>2026-04-19T11:24:36.001Z</time></trkpt><trkpt lat="44.954295548106714" lon="7.17588805503499"><ele>656.0</ele><time>2026-04-19T11:24:37.001Z</time></trkpt><trkpt lat="44.95433888297517" lon="7.175702384284179"><ele>670.0</ele><time>2026-04-19T11:24:38.001Z</time></trkpt><trkpt lat="44.95439436426927" lon="7.17550338182215"><ele>684.0</ele><time>2026-04-19T11:24:39.001Z</time></trkpt><trkpt lat="44.9544320899151" lon="7.175286987947918"><ele>684.6666666666666</ele><time>2026-04-19T11:24:40.001Z</time></trkpt><trkpt lat="44.9544280248247" lon="7.175054098100169"><ele>685.3333333333333</ele><time>2026-04-19T11:24:41.001Z</time></trkpt><trkpt lat="44.95439907461266" lon="7.174825612549556"><ele>686.0</ele><time>2026-04-19T11:24:42.001Z</time></trkpt><trkpt lat="44.95435122834562" lon="7.174613045791985"><ele>689.25</ele><time>2026-04-19T11:24:43.001Z</time></trkpt><trkpt lat="44.95429458447569" lon="7.174434481736516"><ele>692.5</ele><time>2026-04-19T11:24:44.001Z</time></trkpt><trkpt lat="44.95423781495872" lon="7.174263093152518"><ele>695.75</ele><time>2026-04-19T11:24:45.001Z</time></trkpt><trkpt lat="44.9541348033077" lon="7.174121968464182"><ele>699.0</ele><time>2026-04-19T11:24:46.001Z</time></trkpt><trkpt lat="44.954011671124924" lon="7.174034129168133"><ele>692.75</ele><time>2026-04-19T11:24:47.001Z</time></trkpt><trkpt lat="44.95388361817061" lon="7.173963353820332"><ele>686.5</ele><time>2026-04-19T11:24:48.001Z</time></trkpt><trkpt lat="44.953756133000255" lon="7.173932158936298"><ele>680.25</ele><time>2026-04-19T11:24:49.001Z</time></trkpt><trkpt lat="44.95362351213875" lon="7.173905045553273"><ele>674.0</ele><time>2026-04-19T11:24:50.001Z</time></trkpt><trkpt lat="44.95349384983273" lon="7.173847198144773"><ele>662.3333333333333</ele><time>2026-04-19T11:24:51.001Z</time></trkpt><trkpt lat="44.953335160563405" lon="7.173792935034339"><ele>650.6666666666666</ele><time>2026-04-19T11:24:52.001Z</time></trkpt><trkpt lat="44.95317499247886" lon="7.173738719235258"><ele>639.0</ele><time>2026-04-19T11:24:53.001Z</time></trkpt><trkpt lat="44.95301182041043" lon="7.173690154997199"><ele>639.0</ele><time>2026-04-19T11:24:54.001Z</time></trkpt><trkpt lat="44.95284541455406" lon="7.173632787141076"><ele>639.0</ele><time>2026-04-19T11:24:55.001Z</time></trkpt><trkpt lat="44.9526839840122" lon="7.173573652019699"><ele>639.0</ele><time>2026-04-19T11:24:56.001Z</time></trkpt><trkpt lat="44.95252032394675" lon="7.173512205251746"><ele>636.6666666666666</ele><time>2026-04-19T11:24:57.001Z</time></trkpt><trkpt lat="44.95236030853177" lon="7.17345339687776"><ele>634.3333333333333</ele><time>2026-04-19T11:24:58.001Z</time></trkpt><trkpt lat="44.952197121563934" lon="7.173383619922164"><ele>632.0</ele><time>2026-04-19T11:24:59.001Z</time></trkpt><trkpt lat="44.95206334879071" lon="7.173315155409498"><ele>632.0</ele><time>2026-04-19T11:25:00.001Z</time></trkpt><trkpt lat="44.95193420856698" lon="7.173197137162473"><ele>632.0</ele><time>2026-04-19T11:25:01.001Z</time></trkpt><trkpt lat="44.9517938745478" lon="7.17309374990938"><ele>632.0</ele><time>2026-04-19T11:25:02.001Z</time></trkpt><trkpt lat="44.95167132552507" lon="7.172948572144316"><ele>634.0</ele><time>2026-04-19T11:25:03.002Z</time></trkpt><trkpt lat="44.95155360467068" lon="7.172793512650038"><ele>636.0</ele><time>2026-04-19T11:25:04.002Z</time></trkpt><trkpt lat="44.95145029799263" lon="7.172618908566397"><ele>638.0</ele><time>2026-04-19T11:25:05.002Z</time></trkpt><trkpt lat="44.95135890157318" lon="7.172428004006679"><ele>641.0</ele><time>2026-04-19T11:25:06.002Z</time></trkpt><trkpt lat="44.9512802713008" lon="7.172212232396605"><ele>644.0</ele><time>2026-04-19T11:25:07.002Z</time></trkpt><trkpt lat="44.951239526233806" lon="7.171970585696718"><ele>647.0</ele><time>2026-04-19T11:25:08.002Z</time></trkpt><trkpt lat="44.951182398624795" lon="7.171731337998208"><ele>649.0</ele><time>2026-04-19T11:25:09.002Z</time></trkpt><trkpt lat="44.95117578331592" lon="7.171468568202282"><ele>651.0</ele><time>2026-04-19T11:25:10.002Z</time></trkpt><trkpt lat="44.95117700439039" lon="7.171212652244556"><ele>653.0</ele><time>2026-04-19T11:25:11.002Z</time></trkpt><trkpt lat="44.951190394449576" lon="7.170964436442571"><ele>653.0</ele><time>2026-04-19T11:25:12.002Z</time></trkpt><trkpt lat="44.95119708659629" lon="7.170693707625574"><ele>653.0</ele><time>2026-04-19T11:25:13.002Z</time></trkpt><trkpt lat="44.951218391430814" lon="7.170445732082262"><ele>653.0</ele><time>2026-04-19T11:25:14.002Z</time></trkpt><trkpt lat="44.951234808078674" lon="7.170196463694425"><ele>655.6666666666666</ele><time>2026-04-19T11:25:15.002Z</time></trkpt><trkpt lat="44.95125199062477" lon="7.169955981922279"><ele>658.3333333333334</ele><time>2026-04-19T11:25:16.002Z</time></trkpt><trkpt lat="44.95127158539848" lon="7.169720640478804"><ele>661.0</ele><time>2026-04-19T11:25:17.002Z</time></trkpt><trkpt lat="44.951289270489994" lon="7.16948612259049"><ele>662.0</ele><time>2026-04-19T11:25:18.002Z</time></trkpt><trkpt lat="44.951305768608854" lon="7.169250621687694"><ele>663.0</ele><time>2026-04-19T11:25:19.002Z</time></trkpt><trkpt lat="44.95132052118461" lon="7.169008092097153"><ele>664.0</ele><time>2026-04-19T11:25:20.001Z</time></trkpt><trkpt lat="44.951334431184726" lon="7.1687572838715345"><ele>665.3333333333334</ele><time>2026-04-19T11:25:21.001Z</time></trkpt><trkpt lat="44.95133873935663" lon="7.168524606202212"><ele>666.6666666666666</ele><time>2026-04-19T11:25:22.001Z</time></trkpt><trkpt lat="44.95132870401769" lon="7.168281079375735"><ele>668.0</ele><time>2026-04-19T11:25:23.001Z</time></trkpt><trkpt lat="44.95130947161757" lon="7.168035932966302"><ele>668.3333333333333</ele><time>2026-04-19T11:25:24.001Z</time></trkpt><trkpt lat="44.9512835368263" lon="7.167797661174306"><ele>668.6666666666666</ele><time>2026-04-19T11:25:25.001Z</time></trkpt><trkpt lat="44.951253516078424" lon="7.167566706985985"><ele>669.0</ele><time>2026-04-19T11:25:26.001Z</time></trkpt><trkpt lat="44.951222150820506" lon="7.1673161488227874"><ele>669.6666666666666</ele><time>2026-04-19T11:25:27.001Z</time></trkpt><trkpt lat="44.951190366099375" lon="7.167074272205038"><ele>670.3333333333333</ele><time>2026-04-19T11:25:28.001Z</time></trkpt><trkpt lat="44.95116123385604" lon="7.166831290037218"><ele>671.0</ele><time>2026-04-19T11:25:29.001Z</time></trkpt><trkpt lat="44.951138564452435" lon="7.1665962737282065"><ele>676.3333333333333</ele><time>2026-04-19T11:25:30.001Z</time></trkpt><trkpt lat="44.95111102112904" lon="7.166366314632878"><ele>681.6666666666666</ele><time>2026-04-19T11:25:31.001Z</time></trkpt><trkpt lat="44.951081314840614" lon="7.166158245712677"><ele>687.0</ele><time>2026-04-19T11:25:32.001Z</time></trkpt><trkpt lat="44.951041061469134" lon="7.16597546409902"><ele>687.0</ele><time>2026-04-19T11:25:33.001Z</time></trkpt><trkpt lat="44.95097468081629" lon="7.165822592430568"><ele>687.0</ele><time>2026-04-19T11:25:34.001Z</time></trkpt><trkpt lat="44.95089608815828" lon="7.165704554394777"><ele>687.0</ele><time>2026-04-19T11:25:35.001Z</time></trkpt><trkpt lat="44.95076810238843" lon="7.165697290094588"><ele>687.0</ele><time>2026-04-19T11:25:36.001Z</time></trkpt><trkpt lat="44.95065483638959" lon="7.165717525303589"><ele>681.0</ele><time>2026-04-19T11:25:37.001Z</time></trkpt><trkpt lat="44.95055890554771" lon="7.165693654009199"><ele>675.0</ele><time>2026-04-19T11:25:38.001Z</time></trkpt><trkpt lat="44.950500820107955" lon="7.1656375547445705"><ele>669.0</ele><time>2026-04-19T11:25:39.001Z</time></trkpt><trkpt lat="44.95046293417782" lon="7.165483157963208"><ele>663.0</ele><time>2026-04-19T11:25:40.001Z</time></trkpt><trkpt lat="44.95042889654804" lon="7.1653030431445295"><ele>657.0</ele><time>2026-04-19T11:25:41.001Z</time></trkpt><trkpt lat="44.950404020509794" lon="7.165088363833628"><ele>657.0</ele><time>2026-04-19T11:25:42.001Z</time></trkpt><trkpt lat="44.950348507206165" lon="7.164869755139573"><ele>657.0</ele><time>2026-04-19T11:25:43.001Z</time></trkpt><trkpt lat="44.950281669717214" lon="7.164645863479215"><ele>657.0</ele><time>2026-04-19T11:25:44.001Z</time></trkpt><trkpt lat="44.9501880276237" lon="7.164413382320259"><ele>661.3333333333334</ele><time>2026-04-19T11:25:45.001Z</time></trkpt><trkpt lat="44.95010729207578" lon="7.164182046316583"><ele>665.6666666666667</ele><time>2026-04-19T11:25:46.001Z</time></trkpt><trkpt lat="44.95000250264624" lon="7.16400790400518"><ele>670.0</ele><time>2026-04-19T11:25:47.001Z</time></trkpt><trkpt lat="44.949913507760066" lon="7.163800836732821"><ele>670.0</ele><time>2026-04-19T11:25:48.001Z</time></trkpt><trkpt lat="44.949809812312125" lon="7.163611893932917"><ele>670.0</ele><time>2026-04-19T11:25:49.001Z</time></trkpt><trkpt lat="44.94968027204402" lon="7.163432019390842"><ele>670.0</ele><time>2026-04-19T11:25:50.001Z</time></trkpt><trkpt lat="44.9495645810869" lon="7.163268387601186"><ele>675.0</ele><time>2026-04-19T11:25:51.001Z</time></trkpt><trkpt lat="44.94945046233787" lon="7.1631341446537435"><ele>680.0</ele><time>2026-04-19T11:25:52.001Z</time></trkpt><trkpt lat="44.949346444905565" lon="7.163002118609449"><ele>685.0</ele><time>2026-04-19T11:25:53.001Z</time></trkpt><trkpt lat="44.94924463869409" lon="7.162873001591938"><ele>690.0</ele><time>2026-04-19T11:25:54.001Z</time></trkpt><trkpt lat="44.94914201222211" lon="7.162813219704237"><ele>690.0</ele><time>2026-04-19T11:25:55.001Z</time></trkpt><trkpt lat="44.94901165772087" lon="7.162827344528492"><ele>690.0</ele><time>2026-04-19T11:25:56.001Z</time></trkpt><trkpt lat="44.9488881434393" lon="7.162900137967886"><ele>690.0</ele><time>2026-04-19T11:25:57.001Z</time></trkpt><trkpt lat="44.94876995156518" lon="7.163016368123688"><ele>690.0</ele><time>2026-04-19T11:25:58.001Z</time></trkpt><trkpt lat="44.94865747481229" lon="7.163170216271107"><ele>688.0</ele><time>2026-04-19T11:25:59.001Z</time></trkpt><trkpt lat="44.94853501244064" lon="7.163314492129711"><ele>686.0</ele><time>2026-04-19T11:26:00.001Z</time></trkpt><trkpt lat="44.94840487461639" lon="7.163449083912709"><ele>684.0</ele><time>2026-04-19T11:26:01.001Z</time></trkpt><trkpt lat="44.94825242639982" lon="7.163567770495938"><ele>683.3333333333334</ele><time>2026-04-19T11:26:02.001Z</time></trkpt><trkpt lat="44.94810304675616" lon="7.163691369904473"><ele>682.6666666666667</ele><time>2026-04-19T11:26:03.001Z</time></trkpt><trkpt lat="44.94793833383657" lon="7.163788785642246"><ele>682.0</ele><time>2026-04-19T11:26:04.001Z</time></trkpt><trkpt lat="44.94776782487614" lon="7.163856169342173"><ele>682.0</ele><time>2026-04-19T11:26:05.001Z</time></trkpt><trkpt lat="44.94758460010423" lon="7.163910376915364"><ele>682.0</ele><time>2026-04-19T11:26:06.001Z</time></trkpt><trkpt lat="44.94741226039007" lon="7.163923146694101"><ele>682.0</ele><time>2026-04-19T11:26:07.001Z</time></trkpt><trkpt lat="44.9472396655609" lon="7.16393040438505"><ele>679.25</ele><time>2026-04-19T11:26:08.001Z</time></trkpt><trkpt lat="44.94710652119458" lon="7.163917105006843"><ele>676.5</ele><time>2026-04-19T11:26:09.001Z</time></trkpt><trkpt lat="44.94697438376154" lon="7.1638859968909046"><ele>673.75</ele><time>2026-04-19T11:26:10.001Z</time></trkpt><trkpt lat="44.946856802115285" lon="7.163825732065645"><ele>671.0</ele><time>2026-04-19T11:26:11.001Z</time></trkpt><trkpt lat="44.94674840594736" lon="7.163718222981396"><ele>671.0</ele><time>2026-04-19T11:26:12.001Z</time></trkpt><trkpt lat="44.94664069791259" lon="7.163591995157941"><ele>671.0</ele><time>2026-04-19T11:26:13.001Z</time></trkpt><trkpt lat="44.9465571783726" lon="7.163427110799197"><ele>671.0</ele><time>2026-04-19T11:26:14.001Z</time></trkpt><trkpt lat="44.9464464399434" lon="7.163237908909585"><ele>671.6666666666666</ele><time>2026-04-19T11:26:15.001Z</time></trkpt><trkpt lat="44.946328120707555" lon="7.16305729322495"><ele>672.3333333333334</ele><time>2026-04-19T11:26:16.001Z</time></trkpt><trkpt lat="44.94621678442948" lon="7.162856723308322"><ele>673.0</ele><time>2026-04-19T11:26:17.001Z</time></trkpt><trkpt lat="44.94609978146218" lon="7.1626505642190805"><ele>673.0</ele><time>2026-04-19T11:26:18.001Z</time></trkpt><trkpt lat="44.94596724070749" lon="7.162437015556274"><ele>673.0</ele><time>2026-04-19T11:26:19.001Z</time></trkpt><trkpt lat="44.94583662660099" lon="7.162230084772947"><ele>673.0</ele><time>2026-04-19T11:26:20.001Z</time></trkpt><trkpt lat="44.94570491340822" lon="7.162011888858596"><ele>670.3333333333334</ele><time>2026-04-19T11:26:21.001Z</time></trkpt><trkpt lat="44.945585470998324" lon="7.161796603618149"><ele>667.6666666666666</ele><time>2026-04-19T11:26:22.001Z</time></trkpt><trkpt lat="44.9454540674532" lon="7.161613105351138"><ele>665.0</ele><time>2026-04-19T11:26:23.001Z</time></trkpt><trkpt lat="44.945308610721526" lon="7.1614714743074686"><ele>665.6666666666666</ele><time>2026-04-19T11:26:24.001Z</time></trkpt><trkpt lat="44.945130765993305" lon="7.161388425600363"><ele>666.3333333333334</ele><time>2026-04-19T11:26:25.001Z</time></trkpt><trkpt lat="44.944949340280644" lon="7.161296499102155"><ele>667.0</ele><time>2026-04-19T11:26:26.001Z</time></trkpt><trkpt lat="44.94477666658743" lon="7.1611936139677645"><ele>667.0</ele><time>2026-04-19T11:26:27.001Z</time></trkpt><trkpt lat="44.944612424677" lon="7.161063312281841"><ele>667.0</ele><time>2026-04-19T11:26:28.001Z</time></trkpt><trkpt lat="44.94446783951452" lon="7.16087971892925"><ele>667.0</ele><time>2026-04-19T11:26:29.001Z</time></trkpt><trkpt lat="44.94432803639301" lon="7.160691533481087"><ele>670.3333333333334</ele><time>2026-04-19T11:26:30.001Z</time></trkpt><trkpt lat="44.94418722227324" lon="7.160491175772401"><ele>673.6666666666666</ele><time>2026-04-19T11:26:31.001Z</time></trkpt><trkpt lat="44.944052106665325" lon="7.160286679735214"><ele>677.0</ele><time>2026-04-19T11:26:32.001Z</time></trkpt><trkpt lat="44.94392711018814" lon="7.160054792722022"><ele>674.6666666666666</ele><time>2026-04-19T11:26:33.001Z</time></trkpt><trkpt lat="44.94379197810925" lon="7.159835563481054"><ele>672.3333333333334</ele><time>2026-04-19T11:26:34.001Z</time></trkpt><trkpt lat="44.94365954237598" lon="7.159623339406229"><ele>670.0</ele><time>2026-04-19T11:26:35.001Z</time></trkpt><trkpt lat="44.94351000805902" lon="7.159429416489132"><ele>673.0</ele><time>2026-04-19T11:26:36.001Z</time></trkpt><trkpt lat="44.94333072583714" lon="7.159303674561983"><ele>676.0</ele><time>2026-04-19T11:26:37.001Z</time></trkpt><trkpt lat="44.94313477505051" lon="7.159224572201967"><ele>679.0</ele><time>2026-04-19T11:26:38.001Z</time></trkpt><trkpt lat="44.94294246655783" lon="7.159163328663694"><ele>679.0</ele><time>2026-04-19T11:26:39.001Z</time></trkpt><trkpt lat="44.942757467307715" lon="7.159091959697504"><ele>679.0</ele><time>2026-04-19T11:26:40.001Z</time></trkpt><trkpt lat="44.94258239593864" lon="7.159005595213107"><ele>679.0</ele><time>2026-04-19T11:26:41.001Z</time></trkpt><trkpt lat="44.942419587419586" lon="7.158889372112541"><ele>678.6666666666667</ele><time>2026-04-19T11:26:42.001Z</time></trkpt><trkpt lat="44.9422662153326" lon="7.158760395859125"><ele>678.3333333333334</ele><time>2026-04-19T11:26:43.001Z</time></trkpt><trkpt lat="44.94212209682893" lon="7.158600883721594"><ele>678.0</ele><time>2026-04-19T11:26:44.001Z</time></trkpt><trkpt lat="44.94202102346045" lon="7.158390531049252"><ele>683.0</ele><time>2026-04-19T11:26:45.001Z</time></trkpt><trkpt lat="44.94192761589131" lon="7.158168295174102"><ele>688.0</ele><time>2026-04-19T11:26:46.001Z</time></trkpt><trkpt lat="44.941829723978856" lon="7.157937076106633"><ele>693.0</ele><time>2026-04-19T11:26:47.001Z</time></trkpt><trkpt lat="44.941737856176964" lon="7.157711647592348"><ele>693.3333333333334</ele><time>2026-04-19T11:26:48.001Z</time></trkpt><trkpt lat="44.94167823337679" lon="7.1574597175016414"><ele>693.6666666666667</ele><time>2026-04-19T11:26:49.001Z</time></trkpt><trkpt lat="44.94164541382487" lon="7.157208529502535"><ele>694.0</ele><time>2026-04-19T11:26:50.001Z</time></trkpt><trkpt lat="44.94162082543284" lon="7.156954015539904"><ele>692.6666666666667</ele><time>2026-04-19T11:26:51.001Z</time></trkpt><trkpt lat="44.941590982729494" lon="7.156709143303523"><ele>691.3333333333334</ele><time>2026-04-19T11:26:52.001Z</time></trkpt><trkpt lat="44.94153766538435" lon="7.156492005952806"><ele>690.0</ele><time>2026-04-19T11:26:53.001Z</time></trkpt><trkpt lat="44.94146822483912" lon="7.156264974105633"><ele>689.0</ele><time>2026-04-19T11:26:54.001Z</time></trkpt><trkpt lat="44.941402349509325" lon="7.156024174373291"><ele>688.0</ele><time>2026-04-19T11:26:55.001Z</time></trkpt><trkpt lat="44.94130071616307" lon="7.1558130224384"><ele>687.0</ele><time>2026-04-19T11:26:56.001Z</time></trkpt><trkpt lat="44.941184814828496" lon="7.155643767540445"><ele>686.0</ele><time>2026-04-19T11:26:57.001Z</time></trkpt><trkpt lat="44.94103922710644" lon="7.155508210756719"><ele>685.0</ele><time>2026-04-19T11:26:58.001Z</time></trkpt><trkpt lat="44.940880288443154" lon="7.155405709846168"><ele>684.0</ele><time>2026-04-19T11:26:59.001Z</time></trkpt><trkpt lat="44.94069933366462" lon="7.155298730510537"><ele>684.0</ele><time>2026-04-19T11:27:00.001Z</time></trkpt><trkpt lat="44.94056778422486" lon="7.155168782680903"><ele>684.0</ele><time>2026-04-19T11:27:01.001Z</time></trkpt><trkpt lat="44.94049001157745" lon="7.1549899399101315"><ele>684.0</ele><time>2026-04-19T11:27:02.001Z</time></trkpt><trkpt lat="44.940421670920585" lon="7.154813389119578"><ele>689.25</ele><time>2026-04-19T11:27:03.001Z</time></trkpt><trkpt lat="44.940350890273464" lon="7.154663392819766"><ele>694.5</ele><time>2026-04-19T11:27:04.002Z</time></trkpt><trkpt lat="44.94023068369793" lon="7.154573049170331"><ele>699.75</ele><time>2026-04-19T11:27:05.002Z</time></trkpt><trkpt lat="44.94009575996539" lon="7.154564309901995"><ele>705.0</ele><time>2026-04-19T11:27:06.002Z</time></trkpt><trkpt lat="44.939950490132404" lon="7.154539350357596"><ele>705.0</ele><time>2026-04-19T11:27:07.002Z</time></trkpt><trkpt lat="44.939792766502634" lon="7.154536393650877"><ele>705.0</ele><time>2026-04-19T11:27:08.002Z</time></trkpt><trkpt lat="44.93963230288978" lon="7.154477102143899"><ele>705.0</ele><time>2026-04-19T11:27:09.002Z</time></trkpt><trkpt lat="44.939465364785285" lon="7.154366595831571"><ele>705.0</ele><time>2026-04-19T11:27:10.002Z</time></trkpt><trkpt lat="44.93931774695831" lon="7.154223103765523"><ele>705.0</ele><time>2026-04-19T11:27:11.002Z</time></trkpt><trkpt lat="44.939168857880674" lon="7.154041244665065"><ele>705.0</ele><time>2026-04-19T11:27:12.002Z</time></trkpt><trkpt lat="44.93903832237246" lon="7.1538407054173465"><ele>709.6666666666666</ele><time>2026-04-19T11:27:13.002Z</time></trkpt><trkpt lat="44.93891545881506" lon="7.153631497155877"><ele>714.3333333333333</ele><time>2026-04-19T11:27:14.002Z</time></trkpt><trkpt lat="44.93882579290583" lon="7.153402175194743"><ele>719.0</ele><time>2026-04-19T11:27:15.002Z</time></trkpt><trkpt lat="44.93878308049448" lon="7.153151291345362"><ele>722.3333333333333</ele><time>2026-04-19T11:27:16.002Z</time></trkpt><trkpt lat="44.93874943870085" lon="7.152894760899667"><ele>725.6666666666666</ele><time>2026-04-19T11:27:17.002Z</time></trkpt><trkpt lat="44.938739989720496" lon="7.152626631202513"><ele>729.0</ele><time>2026-04-19T11:27:18.002Z</time></trkpt><trkpt lat="44.938731741690226" lon="7.152357755788424"><ele>729.0</ele><time>2026-04-19T11:27:19.002Z</time></trkpt><trkpt lat="44.93881379178509" lon="7.1521170450367775"><ele>729.0</ele><time>2026-04-19T11:27:20.002Z</time></trkpt><trkpt lat="44.93888956434929" lon="7.1518817778173975"><ele>729.0</ele><time>2026-04-19T11:27:21.002Z</time></trkpt><trkpt lat="44.93895461048647" lon="7.151657148896672"><ele>730.3333333333334</ele><time>2026-04-19T11:27:22.002Z</time></trkpt><trkpt lat="44.93899602429491" lon="7.151402071257259"><ele>731.6666666666667</ele><time>2026-04-19T11:27:23.002Z</time></trkpt><trkpt lat="44.93898820555256" lon="7.151166516956854"><ele>733.0</ele><time>2026-04-19T11:27:24.002Z</time></trkpt><trkpt lat="44.93895154592182" lon="7.150913466712287"><ele>735.6666666666667</ele><time>2026-04-19T11:27:25.002Z</time></trkpt><trkpt lat="44.938884638856415" lon="7.150664624540108"><ele>738.3333333333334</ele><time>2026-04-19T11:27:26.002Z</time></trkpt><trkpt lat="44.93881489563965" lon="7.150416100810675"><ele>741.0</ele><time>2026-04-19T11:27:27.002Z</time></trkpt><trkpt lat="44.9387709058084" lon="7.150164938467667"><ele>741.0</ele><time>2026-04-19T11:27:28.002Z</time></trkpt><trkpt lat="44.93867785837067" lon="7.149926157755239"><ele>741.0</ele><time>2026-04-19T11:27:29.002Z</time></trkpt><trkpt lat="44.938583373708816" lon="7.149689205882217"><ele>741.0</ele><time>2026-04-19T11:27:30.001Z</time></trkpt><trkpt lat="44.938471632940995" lon="7.149472047546443"><ele>737.0</ele><time>2026-04-19T11:27:31.001Z</time></trkpt><trkpt lat="44.938343758288255" lon="7.149264519260651"><ele>733.0</ele><time>2026-04-19T11:27:32.001Z</time></trkpt><trkpt lat="44.93821709507326" lon="7.149063461479911"><ele>729.0</ele><time>2026-04-19T11:27:33.001Z</time></trkpt><trkpt lat="44.93809075783642" lon="7.14886875290277"><ele>729.0</ele><time>2026-04-19T11:27:34.001Z</time></trkpt><trkpt lat="44.93797262782447" lon="7.148685330420374"><ele>729.0</ele><time>2026-04-19T11:27:35.001Z</time></trkpt><trkpt lat="44.93788420397098" lon="7.148450257430304"><ele>729.0</ele><time>2026-04-19T11:27:36.001Z</time></trkpt><trkpt lat="44.93780235477623" lon="7.1482414116600435"><ele>739.3333333333334</ele><time>2026-04-19T11:27:37.001Z</time></trkpt><trkpt lat="44.93772046540606" lon="7.148003322253975"><ele>749.6666666666667</ele><time>2026-04-19T11:27:38.001Z</time></trkpt><trkpt lat="44.93764492553528" lon="7.147765121199478"><ele>760.0</ele><time>2026-04-19T11:27:39.001Z</time></trkpt><trkpt lat="44.937568022052474" lon="7.147517503468824"><ele>750.3333333333334</ele><time>2026-04-19T11:27:40.001Z</time></trkpt><trkpt lat="44.93749719697671" lon="7.147280238873077"><ele>740.6666666666666</ele><time>2026-04-19T11:27:41.001Z</time></trkpt><trkpt lat="44.93745116856913" lon="7.147057228947722"><ele>731.0</ele><time>2026-04-19T11:27:42.001Z</time></trkpt><trkpt lat="44.93746076884749" lon="7.146873396696063"><ele>731.0</ele><time>2026-04-19T11:27:43.001Z</time></trkpt><trkpt lat="44.93749899686158" lon="7.1466840454507885"><ele>731.0</ele><time>2026-04-19T11:27:44.001Z</time></trkpt><trkpt lat="44.93755356319225" lon="7.146459766490115"><ele>731.0</ele><time>2026-04-19T11:27:45.001Z</time></trkpt><trkpt lat="44.93761432863713" lon="7.146209594761047"><ele>740.6666666666666</ele><time>2026-04-19T11:27:46.001Z</time></trkpt><trkpt lat="44.93765880551201" lon="7.145956589031806"><ele>750.3333333333334</ele><time>2026-04-19T11:27:47.001Z</time></trkpt><trkpt lat="44.937725698482765" lon="7.145736412344548"><ele>760.0</ele><time>2026-04-19T11:27:48.001Z</time></trkpt><trkpt lat="44.93777864580147" lon="7.145561181865681"><ele>760.0</ele><time>2026-04-19T11:27:49.001Z</time></trkpt><trkpt lat="44.93784504347223" lon="7.1453389327696"><ele>760.0</ele><time>2026-04-19T11:27:50.001Z</time></trkpt><trkpt lat="44.93789977521641" lon="7.14499945157293"><ele>760.0</ele><time>2026-04-19T11:27:51.001Z</time></trkpt><trkpt lat="44.93795864435287" lon="7.144743457161595"><ele>758.0</ele><time>2026-04-19T11:27:52.001Z</time></trkpt><trkpt lat="44.93800799831418" lon="7.144490902690808"><ele>756.0</ele><time>2026-04-19T11:27:53.001Z</time></trkpt><trkpt lat="44.938078324410306" lon="7.144244598242768"><ele>754.0</ele><time>2026-04-19T11:27:54.001Z</time></trkpt><trkpt lat="44.93808538659723" lon="7.143960701092492"><ele>753.3333333333334</ele><time>2026-04-19T11:27:55.001Z</time></trkpt><trkpt lat="44.938130620994485" lon="7.143701773701663"><ele>752.6666666666666</ele><time>2026-04-19T11:27:56.001Z</time></trkpt><trkpt lat="44.938128705243415" lon="7.143425435398263"><ele>752.0</ele><time>2026-04-19T11:27:57.001Z</time></trkpt><trkpt lat="44.938115588185376" lon="7.1431462176485745"><ele>752.0</ele><time>2026-04-19T11:27:58.001Z</time></trkpt><trkpt lat="44.938103658029185" lon="7.142877666292199"><ele>752.0</ele><time>2026-04-19T11:27:59.001Z</time></trkpt><trkpt lat="44.93806800611153" lon="7.142617231361183"><ele>752.0</ele><time>2026-04-19T11:28:00.001Z</time></trkpt><trkpt lat="44.93800261693008" lon="7.1423656783028475"><ele>755.3333333333333</ele><time>2026-04-19T11:28:01.001Z</time></trkpt><trkpt lat="44.937937440586026" lon="7.142149270958414"><ele>758.6666666666666</ele><time>2026-04-19T11:28:02.001Z</time></trkpt><trkpt lat="44.93789992524882" lon="7.14192026670744"><ele>762.0</ele><time>2026-04-19T11:28:03.001Z</time></trkpt><trkpt lat="44.93786517614453" lon="7.141688557580669"><ele>768.0</ele><time>2026-04-19T11:28:04.001Z</time></trkpt><trkpt lat="44.937808407409314" lon="7.1414475152057815"><ele>774.0</ele><time>2026-04-19T11:28:05.001Z</time></trkpt><trkpt lat="44.93770911568444" lon="7.14123087733895"><ele>780.0</ele><time>2026-04-19T11:28:06.001Z</time></trkpt><trkpt lat="44.9376127193002" lon="7.141015082952554"><ele>773.6666666666666</ele><time>2026-04-19T11:28:07.001Z</time></trkpt><trkpt lat="44.937519758068476" lon="7.140800664248949"><ele>767.3333333333333</ele><time>2026-04-19T11:28:08.001Z</time></trkpt><trkpt lat="44.93741831395059" lon="7.140582044311717"><ele>761.0</ele><time>2026-04-19T11:28:09.001Z</time></trkpt><trkpt lat="44.93730505194022" lon="7.140393596829067"><ele>761.0</ele><time>2026-04-19T11:28:10.001Z</time></trkpt><trkpt lat="44.93718073184109" lon="7.140224625187467"><ele>761.0</ele><time>2026-04-19T11:28:11.001Z</time></trkpt><trkpt lat="44.937050829223324" lon="7.140053537207865"><ele>761.0</ele><time>2026-04-19T11:28:12.001Z</time></trkpt><trkpt lat="44.93692416212835" lon="7.139915842479449"><ele>758.0</ele><time>2026-04-19T11:28:13.001Z</time></trkpt><trkpt lat="44.93679866663568" lon="7.139724193965841"><ele>755.0</ele><time>2026-04-19T11:28:14.001Z</time></trkpt><trkpt lat="44.936662282829744" lon="7.139610542857251"><ele>752.0</ele><time>2026-04-19T11:28:15.001Z</time></trkpt><trkpt lat="44.93654264412777" lon="7.139507440010516"><ele>752.0</ele><time>2026-04-19T11:28:16.001Z</time></trkpt><trkpt lat="44.93640845672573" lon="7.139393068973561"><ele>752.0</ele><time>2026-04-19T11:28:17.001Z</time></trkpt><trkpt lat="44.93630627651675" lon="7.139279479694055"><ele>752.0</ele><time>2026-04-19T11:28:18.001Z</time></trkpt><trkpt lat="44.93621505458025" lon="7.139177442129913"><ele>752.0</ele><time>2026-04-19T11:28:19.001Z</time></trkpt><trkpt lat="44.93614435215877" lon="7.139059868250204"><ele>747.4000000000001</ele><time>2026-04-19T11:28:20.001Z</time></trkpt><trkpt lat="44.93608571459291" lon="7.138978901622591"><ele>742.8000000000001</ele><time>2026-04-19T11:28:21.001Z</time></trkpt><trkpt lat="44.93604718991763" lon="7.138907960480763"><ele>738.2</ele><time>2026-04-19T11:28:22.001Z</time></trkpt><trkpt lat="44.935909131720294" lon="7.139031076664882"><ele>733.6</ele><time>2026-04-19T11:28:24.001Z</time></trkpt><trkpt lat="44.935847194929075" lon="7.1391410409016425"><ele>729.0</ele><time>2026-04-19T11:28:25.001Z</time></trkpt><trkpt lat="44.93577912455822" lon="7.139272271415341"><ele>729.0</ele><time>2026-04-19T11:28:26.001Z</time></trkpt><trkpt lat="44.935719467431376" lon="7.139426630044103"><ele>729.0</ele><time>2026-04-19T11:28:27.001Z</time></trkpt><trkpt lat="44.93569579155041" lon="7.1395981519251634"><ele>729.0</ele><time>2026-04-19T11:28:28.001Z</time></trkpt><trkpt lat="44.93571059217931" lon="7.139775424568998"><ele>729.0</ele><time>2026-04-19T11:28:29.001Z</time></trkpt><trkpt lat="44.93575890793491" lon="7.139946199963066"><ele>728.5</ele><time>2026-04-19T11:28:30.001Z</time></trkpt><trkpt lat="44.935826493651135" lon="7.140117536487864"><ele>728.0</ele><time>2026-04-19T11:28:31.001Z</time></trkpt><trkpt lat="44.93586540040199" lon="7.140295535333565"><ele>727.5</ele><time>2026-04-19T11:28:32.001Z</time></trkpt><trkpt lat="44.935878242239255" lon="7.140497498561872"><ele>727.0</ele><time>2026-04-19T11:28:33.001Z</time></trkpt><trkpt lat="44.93589937766861" lon="7.140692347560396"><ele>729.0</ele><time>2026-04-19T11:28:34.001Z</time></trkpt><trkpt lat="44.93588591435779" lon="7.140882095170213"><ele>731.0</ele><time>2026-04-19T11:28:35.001Z</time></trkpt><trkpt lat="44.935854339655215" lon="7.141042894382598"><ele>733.0</ele><time>2026-04-19T11:28:36.001Z</time></trkpt><trkpt lat="44.93578222025226" lon="7.141149164073061"><ele>735.0</ele><time>2026-04-19T11:28:37.001Z</time></trkpt><trkpt lat="44.935696248020456" lon="7.141198716952845"><ele>735.0</ele><time>2026-04-19T11:28:38.001Z</time></trkpt><trkpt lat="44.93559696245021" lon="7.141207662970858"><ele>735.0</ele><time>2026-04-19T11:28:39.001Z</time></trkpt><trkpt lat="44.93549146264552" lon="7.141236062854113"><ele>735.0</ele><time>2026-04-19T11:28:40.001Z</time></trkpt><trkpt lat="44.93536640059226" lon="7.141255979484313"><ele>735.0</ele><time>2026-04-19T11:28:41.001Z</time></trkpt><trkpt lat="44.93523106242344" lon="7.141275755868986"><ele>735.0</ele><time>2026-04-19T11:28:42.001Z</time></trkpt><trkpt lat="44.935093206587936" lon="7.141293235966118"><ele>735.0</ele><time>2026-04-19T11:28:43.001Z</time></trkpt><trkpt lat="44.93494719841436" lon="7.141330467661869"><ele>735.0</ele><time>2026-04-19T11:28:44.001Z</time></trkpt><trkpt lat="44.934801944423064" lon="7.141330587187754"><ele>735.0</ele><time>2026-04-19T11:28:45.001Z</time></trkpt><trkpt lat="44.93464428661087" lon="7.14134210886555"><ele>738.75</ele><time>2026-04-19T11:28:46.001Z</time></trkpt><trkpt lat="44.934486173334584" lon="7.141334012917076"><ele>742.5</ele><time>2026-04-19T11:28:47.001Z</time></trkpt><trkpt lat="44.934332390345126" lon="7.141341647215851"><ele>746.25</ele><time>2026-04-19T11:28:48.001Z</time></trkpt><trkpt lat="44.93419536435926" lon="7.14135285564156"><ele>750.0</ele><time>2026-04-19T11:28:49.001Z</time></trkpt><trkpt lat="44.934030768243616" lon="7.141370408653519"><ele>752.75</ele><time>2026-04-19T11:28:50.001Z</time></trkpt><trkpt lat="44.93388154312807" lon="7.1413863725542335"><ele>755.5</ele><time>2026-04-19T11:28:51.001Z</time></trkpt><trkpt lat="44.93375534768726" lon="7.1414501225193865"><ele>758.25</ele><time>2026-04-19T11:28:52.001Z</time></trkpt><trkpt lat="44.93369053964859" lon="7.1415315289478265"><ele>761.0</ele><time>2026-04-19T11:28:53.001Z</time></trkpt><trkpt lat="44.933676006366795" lon="7.1416501179584255"><ele>763.0</ele><time>2026-04-19T11:28:55.001Z</time></trkpt><trkpt lat="44.933797362408995" lon="7.141733354866731"><ele>765.0</ele><time>2026-04-19T11:28:57.001Z</time></trkpt><trkpt lat="44.933937159361584" lon="7.141673473791335"><ele>767.0</ele><time>2026-04-19T11:28:58.001Z</time></trkpt><trkpt lat="44.93405679866212" lon="7.14164294905488"><ele>769.0</ele><time>2026-04-19T11:28:59.001Z</time></trkpt><trkpt lat="44.934193234414316" lon="7.141599897901846"><ele>768.0</ele><time>2026-04-19T11:29:00.001Z</time></trkpt><trkpt lat="44.93433236046394" lon="7.141588374924008"><ele>767.0</ele><time>2026-04-19T11:29:01.001Z</time></trkpt><trkpt lat="44.93448157545361" lon="7.141631757834077"><ele>766.0</ele><time>2026-04-19T11:29:02.001Z</time></trkpt><trkpt lat="44.934646693861836" lon="7.141651746672105"><ele>766.0</ele><time>2026-04-19T11:29:03.001Z</time></trkpt><trkpt lat="44.93481599270407" lon="7.1416534568646615"><ele>766.0</ele><time>2026-04-19T11:29:04.001Z</time></trkpt><trkpt lat="44.93497327690593" lon="7.141690553069905"><ele>766.0</ele><time>2026-04-19T11:29:05.001Z</time></trkpt><trkpt lat="44.93512097882754" lon="7.141794041270336"><ele>763.0</ele><time>2026-04-19T11:29:06.001Z</time></trkpt><trkpt lat="44.93528083966386" lon="7.141824980262999"><ele>760.0</ele><time>2026-04-19T11:29:07.001Z</time></trkpt><trkpt lat="44.935429957306546" lon="7.141919126424903"><ele>757.0</ele><time>2026-04-19T11:29:08.001Z</time></trkpt><trkpt lat="44.93557210913418" lon="7.1419901913340915"><ele>757.0</ele><time>2026-04-19T11:29:09.001Z</time></trkpt><trkpt lat="44.93571648031189" lon="7.142046076333359"><ele>757.0</ele><time>2026-04-19T11:29:10.001Z</time></trkpt><trkpt lat="44.93583208407879" lon="7.142103843436325"><ele>757.0</ele><time>2026-04-19T11:29:11.001Z</time></trkpt><trkpt lat="44.93592962773394" lon="7.142162012319197"><ele>757.0</ele><time>2026-04-19T11:29:12.001Z</time></trkpt><trkpt lat="44.936004843437665" lon="7.142220040115602"><ele>757.0</ele><time>2026-04-19T11:29:13.001Z</time></trkpt><trkpt lat="44.93605491148001" lon="7.1423205971938595"><ele>757.0</ele><time>2026-04-19T11:29:15.001Z</time></trkpt><trkpt lat="44.93596412747659" lon="7.142378344630214"><ele>757.0</ele><time>2026-04-19T11:29:17.001Z</time></trkpt><trkpt lat="44.93590097471429" lon="7.1422987315674415"><ele>757.0</ele><time>2026-04-19T11:29:18.001Z</time></trkpt><trkpt lat="44.935806482609735" lon="7.142260336472051"><ele>757.0</ele><time>2026-04-19T11:29:19.001Z</time></trkpt><trkpt lat="44.935697633288335" lon="7.142187319298916"><ele>757.0</ele><time>2026-04-19T11:29:20.002Z</time></trkpt><trkpt lat="44.93557040110964" lon="7.142159335271057"><ele>757.0</ele><time>2026-04-19T11:29:21.002Z</time></trkpt><trkpt lat="44.93542954742792" lon="7.142150674090215"><ele>757.0</ele><time>2026-04-19T11:29:22.002Z</time></trkpt><trkpt lat="44.935283580979835" lon="7.142139253158112"><ele>757.0</ele><time>2026-04-19T11:29:23.002Z</time></trkpt><trkpt lat="44.93513060187247" lon="7.142139723018659"><ele>760.0</ele><time>2026-04-19T11:29:24.002Z</time></trkpt><trkpt lat="44.934963763670766" lon="7.142156503906957"><ele>763.0</ele><time>2026-04-19T11:29:25.002Z</time></trkpt><trkpt lat="44.934791428156586" lon="7.142195033047066"><ele>766.0</ele><time>2026-04-19T11:29:26.002Z</time></trkpt><trkpt lat="44.93464971671229" lon="7.142242756828551"><ele>766.0</ele><time>2026-04-19T11:29:27.002Z</time></trkpt><trkpt lat="44.93455616584748" lon="7.14228515823878"><ele>766.0</ele><time>2026-04-19T11:29:28.002Z</time></trkpt><trkpt lat="44.934494966573695" lon="7.142326026499041"><ele>766.0</ele><time>2026-04-19T11:29:29.002Z</time></trkpt><trkpt lat="44.934449655935936" lon="7.1424701714245895"><ele>766.0</ele><time>2026-04-19T11:29:31.001Z</time></trkpt><trkpt lat="44.93449624322898" lon="7.142551477442491"><ele>766.0</ele><time>2026-04-19T11:29:32.001Z</time></trkpt><trkpt lat="44.93458014967144" lon="7.142585274370705"><ele>766.0</ele><time>2026-04-19T11:29:33.001Z</time></trkpt><trkpt lat="44.934675324806555" lon="7.142554013331205"><ele>766.0</ele><time>2026-04-19T11:29:34.001Z</time></trkpt><trkpt lat="44.93477611812895" lon="7.14246551676616"><ele>766.0</ele><time>2026-04-19T11:29:35.001Z</time></trkpt><trkpt lat="44.93489471482295" lon="7.1423946384232595"><ele>766.0</ele><time>2026-04-19T11:29:36.001Z</time></trkpt><trkpt lat="44.935034543174915" lon="7.1423618066113015"><ele>766.0</ele><time>2026-04-19T11:29:37.001Z</time></trkpt><trkpt lat="44.93515669269298" lon="7.1423949730453975"><ele>768.8333333333334</ele><time>2026-04-19T11:29:38.001Z</time></trkpt><trkpt lat="44.935227212396136" lon="7.142431098513315"><ele>771.6666666666667</ele><time>2026-04-19T11:29:39.001Z</time></trkpt><trkpt lat="44.935216059750736" lon="7.142522570477743"><ele>774.5</ele><time>2026-04-19T11:29:41.001Z</time></trkpt><trkpt lat="44.9351444622641" lon="7.142571526786273"><ele>777.3333333333334</ele><time>2026-04-19T11:29:42.001Z</time></trkpt><trkpt lat="44.935054129133064" lon="7.14252244950418"><ele>780.1666666666666</ele><time>2026-04-19T11:29:43.001Z</time></trkpt><trkpt lat="44.934945469511085" lon="7.142549571964436"><ele>783.0</ele><time>2026-04-19T11:29:44.001Z</time></trkpt><trkpt lat="44.93483464123226" lon="7.1426074046752035"><ele>786.5</ele><time>2026-04-19T11:29:45.001Z</time></trkpt><trkpt lat="44.93471480424593" lon="7.142680310275483"><ele>790.0</ele><time>2026-04-19T11:29:46.001Z</time></trkpt><trkpt lat="44.93458151346875" lon="7.142761344197579"><ele>793.5</ele><time>2026-04-19T11:29:47.001Z</time></trkpt><trkpt lat="44.934441651873264" lon="7.142866228201828"><ele>797.0</ele><time>2026-04-19T11:29:48.001Z</time></trkpt><trkpt lat="44.934282455030974" lon="7.142955109983881"><ele>795.75</ele><time>2026-04-19T11:29:49.001Z</time></trkpt><trkpt lat="44.93413331973732" lon="7.143048900765421"><ele>794.5</ele><time>2026-04-19T11:29:50.001Z</time></trkpt><trkpt lat="44.934008345784875" lon="7.143120610625733"><ele>793.25</ele><time>2026-04-19T11:29:51.001Z</time></trkpt><trkpt lat="44.93391149776179" lon="7.143166759093875"><ele>792.0</ele><time>2026-04-19T11:29:52.001Z</time></trkpt><trkpt lat="44.93383670050883" lon="7.14321788835836"><ele>796.4000000000001</ele><time>2026-04-19T11:29:53.001Z</time></trkpt><trkpt lat="44.93377313130075" lon="7.143352414942887"><ele>800.8000000000001</ele><time>2026-04-19T11:29:55.001Z</time></trkpt><trkpt lat="44.933805486922395" lon="7.143465241471"><ele>805.2</ele><time>2026-04-19T11:29:56.001Z</time></trkpt><trkpt lat="44.93388359186845" lon="7.143532033869479"><ele>809.6</ele><time>2026-04-19T11:29:57.001Z</time></trkpt><trkpt lat="44.93398288085577" lon="7.143543248385072"><ele>814.0</ele><time>2026-04-19T11:29:58.001Z</time></trkpt><trkpt lat="44.93408429644199" lon="7.143489456429444"><ele>814.0</ele><time>2026-04-19T11:29:59.001Z</time></trkpt><trkpt lat="44.93418699713003" lon="7.143427287900535"><ele>814.0</ele><time>2026-04-19T11:30:00.001Z</time></trkpt><trkpt lat="44.9343085996898" lon="7.14341485481915"><ele>814.0</ele><time>2026-04-19T11:30:01.001Z</time></trkpt><trkpt lat="44.93445907987151" lon="7.143426227590136"><ele>814.0</ele><time>2026-04-19T11:30:02.001Z</time></trkpt><trkpt lat="44.934614807263245" lon="7.14344777271183"><ele>815.5</ele><time>2026-04-19T11:30:03.001Z</time></trkpt><trkpt lat="44.934769512005396" lon="7.143464646847261"><ele>817.0</ele><time>2026-04-19T11:30:04.001Z</time></trkpt><trkpt lat="44.9349142023662" lon="7.14347438943436"><ele>818.5</ele><time>2026-04-19T11:30:05.001Z</time></trkpt><trkpt lat="44.93505476578719" lon="7.143489076117143"><ele>820.0</ele><time>2026-04-19T11:30:06.001Z</time></trkpt><trkpt lat="44.93517102947029" lon="7.1435120710947615"><ele>820.0</ele><time>2026-04-19T11:30:07.001Z</time></trkpt><trkpt lat="44.93525105334698" lon="7.143543948752014"><ele>820.0</ele><time>2026-04-19T11:30:08.001Z</time></trkpt><trkpt lat="44.93528797335986" lon="7.143664638960476"><ele>820.0</ele><time>2026-04-19T11:30:10.001Z</time></trkpt><trkpt lat="44.9352023836743" lon="7.143743015870186"><ele>820.0</ele><time>2026-04-19T11:30:11.001Z</time></trkpt><trkpt lat="44.93509312119449" lon="7.143768578666606"><ele>820.0</ele><time>2026-04-19T11:30:12.001Z</time></trkpt><trkpt lat="44.93498690924139" lon="7.143860705267575"><ele>820.0</ele><time>2026-04-19T11:30:13.001Z</time></trkpt><trkpt lat="44.93486729670931" lon="7.1439447257763655"><ele>820.0</ele><time>2026-04-19T11:30:14.001Z</time></trkpt><trkpt lat="44.93475817850838" lon="7.144042831688534"><ele>820.0</ele><time>2026-04-19T11:30:15.001Z</time></trkpt><trkpt lat="44.934644546176926" lon="7.144138180827876"><ele>820.0</ele><time>2026-04-19T11:30:16.001Z</time></trkpt><trkpt lat="44.93452835998589" lon="7.144249974831834"><ele>823.0</ele><time>2026-04-19T11:30:17.001Z</time></trkpt><trkpt lat="44.934425557374986" lon="7.144382748384052"><ele>826.0</ele><time>2026-04-19T11:30:18.001Z</time></trkpt><trkpt lat="44.93432954636678" lon="7.144524056457278"><ele>829.0</ele><time>2026-04-19T11:30:19.001Z</time></trkpt><trkpt lat="44.93423374807704" lon="7.144659748490477"><ele>832.0</ele><time>2026-04-19T11:30:20.001Z</time></trkpt><trkpt lat="44.93413601385254" lon="7.144813392567656"><ele>837.0</ele><time>2026-04-19T11:30:21.001Z</time></trkpt><trkpt lat="44.93404933635887" lon="7.144995176885901"><ele>842.0</ele><time>2026-04-19T11:30:22.001Z</time></trkpt><trkpt lat="44.93396425610223" lon="7.1452001666244165"><ele>847.0</ele><time>2026-04-19T11:30:23.001Z</time></trkpt><trkpt lat="44.93391355031022" lon="7.14542490067798"><ele>847.0</ele><time>2026-04-19T11:30:24.001Z</time></trkpt><trkpt lat="44.9338697252217" lon="7.145680074679675"><ele>847.0</ele><time>2026-04-19T11:30:25.001Z</time></trkpt><trkpt lat="44.93382314254682" lon="7.1459212501182225"><ele>847.0</ele><time>2026-04-19T11:30:26.001Z</time></trkpt><trkpt lat="44.93375881431345" lon="7.146131824789783"><ele>851.0</ele><time>2026-04-19T11:30:27.001Z</time></trkpt><trkpt lat="44.93369051957948" lon="7.146301833697801"><ele>855.0</ele><time>2026-04-19T11:30:28.001Z</time></trkpt><trkpt lat="44.9336121157728" lon="7.146473457383872"><ele>859.0</ele><time>2026-04-19T11:30:29.001Z</time></trkpt><trkpt lat="44.933526439835816" lon="7.1466297168389525"><ele>863.0</ele><time>2026-04-19T11:30:30.001Z</time></trkpt><trkpt lat="44.93342483641003" lon="7.146770332325566"><ele>861.3333333333334</ele><time>2026-04-19T11:30:31.001Z</time></trkpt><trkpt lat="44.93330512656336" lon="7.146907757341832"><ele>859.6666666666667</ele><time>2026-04-19T11:30:32.001Z</time></trkpt><trkpt lat="44.93317584826961" lon="7.146975050321728"><ele>858.0</ele><time>2026-04-19T11:30:33.001Z</time></trkpt><trkpt lat="44.933018576914215" lon="7.147080605580596"><ele>858.0</ele><time>2026-04-19T11:30:34.001Z</time></trkpt><trkpt lat="44.93288905313556" lon="7.147196348495749"><ele>858.0</ele><time>2026-04-19T11:30:35.001Z</time></trkpt><trkpt lat="44.93275546239112" lon="7.14729253165527"><ele>858.0</ele><time>2026-04-19T11:30:36.001Z</time></trkpt><trkpt lat="44.932633017219786" lon="7.147380741026074"><ele>858.0</ele><time>2026-04-19T11:30:37.001Z</time></trkpt><trkpt lat="44.93250699702901" lon="7.147473462965698"><ele>861.5</ele><time>2026-04-19T11:30:38.001Z</time></trkpt><trkpt lat="44.93237974660492" lon="7.147548675960162"><ele>865.0</ele><time>2026-04-19T11:30:39.001Z</time></trkpt><trkpt lat="44.93224378019456" lon="7.147569578792353"><ele>868.5</ele><time>2026-04-19T11:30:40.001Z</time></trkpt><trkpt lat="44.9321118772506" lon="7.147568166898317"><ele>872.0</ele><time>2026-04-19T11:30:41.001Z</time></trkpt><trkpt lat="44.93196584901648" lon="7.147586681579293"><ele>872.0</ele><time>2026-04-19T11:30:42.001Z</time></trkpt><trkpt lat="44.93181842765197" lon="7.147653608596737"><ele>872.0</ele><time>2026-04-19T11:30:43.001Z</time></trkpt><trkpt lat="44.93167050018487" lon="7.147702530895798"><ele>872.0</ele><time>2026-04-19T11:30:44.001Z</time></trkpt><trkpt lat="44.93153983162431" lon="7.147681586478923"><ele>872.0</ele><time>2026-04-19T11:30:45.001Z</time></trkpt><trkpt lat="44.931408501409564" lon="7.147652441625586"><ele>873.75</ele><time>2026-04-19T11:30:46.001Z</time></trkpt><trkpt lat="44.931275218444874" lon="7.147594823084602"><ele>875.5</ele><time>2026-04-19T11:30:47.001Z</time></trkpt><trkpt lat="44.93115649183216" lon="7.147532566613386"><ele>877.25</ele><time>2026-04-19T11:30:48.001Z</time></trkpt><trkpt lat="44.93104988601604" lon="7.14751658777358"><ele>879.0</ele><time>2026-04-19T11:30:49.001Z</time></trkpt><trkpt lat="44.93094509204906" lon="7.147546206209535"><ele>879.75</ele><time>2026-04-19T11:30:50.001Z</time></trkpt><trkpt lat="44.93082829497509" lon="7.14763429507834"><ele>880.5</ele><time>2026-04-19T11:30:51.001Z</time></trkpt><trkpt lat="44.93070195581797" lon="7.147722481279943"><ele>881.25</ele><time>2026-04-19T11:30:52.001Z</time></trkpt><trkpt lat="44.930578802543316" lon="7.147780844692532"><ele>882.0</ele><time>2026-04-19T11:30:53.001Z</time></trkpt><trkpt lat="44.93048525997836" lon="7.147854750349061"><ele>882.0</ele><time>2026-04-19T11:30:54.001Z</time></trkpt><trkpt lat="44.930412643302496" lon="7.147956497643875"><ele>882.0</ele><time>2026-04-19T11:30:55.001Z</time></trkpt><trkpt lat="44.930387993671744" lon="7.148077086545269"><ele>882.0</ele><time>2026-04-19T11:30:56.001Z</time></trkpt><trkpt lat="44.930395141196264" lon="7.148241966162937"><ele>882.0</ele><time>2026-04-19T11:30:57.001Z</time></trkpt><trkpt lat="44.93036087738779" lon="7.1484101640217865"><ele>882.0</ele><time>2026-04-19T11:30:58.001Z</time></trkpt><trkpt lat="44.930328130249265" lon="7.148616657686135"><ele>888.0</ele><time>2026-04-19T11:30:59.001Z</time></trkpt><trkpt lat="44.93028787389636" lon="7.148823808239652"><ele>894.0</ele><time>2026-04-19T11:31:00.001Z</time></trkpt><trkpt lat="44.930245480624485" lon="7.149019327367515"><ele>900.0</ele><time>2026-04-19T11:31:01.001Z</time></trkpt><trkpt lat="44.93020366917329" lon="7.149200830626972"><ele>906.0</ele><time>2026-04-19T11:31:02.001Z</time></trkpt><trkpt lat="44.930086791134656" lon="7.14931959964808"><ele>906.0</ele><time>2026-04-19T11:31:03.001Z</time></trkpt><trkpt lat="44.92996642900481" lon="7.1494690802397445"><ele>906.0</ele><time>2026-04-19T11:31:04.001Z</time></trkpt><trkpt lat="44.92984097136215" lon="7.149595472330822"><ele>906.0</ele><time>2026-04-19T11:31:05.001Z</time></trkpt><trkpt lat="44.92972420690554" lon="7.1497079220261295"><ele>906.0</ele><time>2026-04-19T11:31:06.001Z</time></trkpt><trkpt lat="44.92961240587158" lon="7.149782943168087"><ele>906.0</ele><time>2026-04-19T11:31:07.001Z</time></trkpt><trkpt lat="44.92950542598368" lon="7.149810524146203"><ele>906.0</ele><time>2026-04-19T11:31:08.001Z</time></trkpt><trkpt lat="44.9293887807394" lon="7.149771902836369"><ele>906.0</ele><time>2026-04-19T11:31:09.001Z</time></trkpt><trkpt lat="44.929262935938034" lon="7.149781911525044"><ele>903.0</ele><time>2026-04-19T11:31:10.001Z</time></trkpt><trkpt lat="44.92914641602285" lon="7.1498089226641195"><ele>900.0</ele><time>2026-04-19T11:31:11.001Z</time></trkpt><trkpt lat="44.92901795019262" lon="7.149905936987418"><ele>897.0</ele><time>2026-04-19T11:31:12.001Z</time></trkpt><trkpt lat="44.92887933808536" lon="7.149985008514158"><ele>894.0</ele><time>2026-04-19T11:31:13.001Z</time></trkpt><trkpt lat="44.92874680477729" lon="7.150083938152849"><ele>903.6666666666667</ele><time>2026-04-19T11:31:14.001Z</time></trkpt><trkpt lat="44.928604421526565" lon="7.150177856226116"><ele>913.3333333333334</ele><time>2026-04-19T11:31:15.001Z</time></trkpt><trkpt lat="44.92846243144444" lon="7.150235347591663"><ele>923.0</ele><time>2026-04-19T11:31:16.001Z</time></trkpt><trkpt lat="44.92831762915225" lon="7.1502683707985355"><ele>923.0</ele><time>2026-04-19T11:31:17.001Z</time></trkpt><trkpt lat="44.92816302151367" lon="7.150279311182358"><ele>923.0</ele><time>2026-04-19T11:31:18.001Z</time></trkpt><trkpt lat="44.92801398986707" lon="7.150291644690131"><ele>923.0</ele><time>2026-04-19T11:31:19.001Z</time></trkpt><trkpt lat="44.92785007983915" lon="7.150314778644797"><ele>923.0</ele><time>2026-04-19T11:31:20.001Z</time></trkpt><trkpt lat="44.927702050935" lon="7.150397249728505"><ele>923.0</ele><time>2026-04-19T11:31:21.001Z</time></trkpt><trkpt lat="44.92757595659091" lon="7.150502880858146"><ele>923.0</ele><time>2026-04-19T11:31:22.001Z</time></trkpt><trkpt lat="44.92745407239228" lon="7.15059752742691"><ele>923.0</ele><time>2026-04-19T11:31:23.001Z</time></trkpt><trkpt lat="44.92732079480987" lon="7.150678437119169"><ele>930.3333333333334</ele><time>2026-04-19T11:31:24.001Z</time></trkpt><trkpt lat="44.92717632045502" lon="7.15078130944301"><ele>937.6666666666667</ele><time>2026-04-19T11:31:25.001Z</time></trkpt><trkpt lat="44.92704055933736" lon="7.150887463428558"><ele>945.0</ele><time>2026-04-19T11:31:26.001Z</time></trkpt><trkpt lat="44.926903078453336" lon="7.150939969245761"><ele>945.0</ele><time>2026-04-19T11:31:27.001Z</time></trkpt><trkpt lat="44.92677219202438" lon="7.150967381862011"><ele>945.0</ele><time>2026-04-19T11:31:28.001Z</time></trkpt><trkpt lat="44.92667430309866" lon="7.150998582675723"><ele>945.0</ele><time>2026-04-19T11:31:29.001Z</time></trkpt><trkpt lat="44.92659185459937" lon="7.151043260234975"><ele>945.0</ele><time>2026-04-19T11:31:30.001Z</time></trkpt><trkpt lat="44.92653623411267" lon="7.151120025775931"><ele>945.0</ele><time>2026-04-19T11:31:31.001Z</time></trkpt><trkpt lat="44.92656254663151" lon="7.151259158973732"><ele>945.0</ele><time>2026-04-19T11:31:32.001Z</time></trkpt><trkpt lat="44.926618419593254" lon="7.151325958353864"><ele>945.0</ele><time>2026-04-19T11:31:33.001Z</time></trkpt><trkpt lat="44.92668711570462" lon="7.151361010885638"><ele>945.0</ele><time>2026-04-19T11:31:34.001Z</time></trkpt><trkpt lat="44.92682018479105" lon="7.151303602054302"><ele>945.0</ele><time>2026-04-19T11:31:35.001Z</time></trkpt><trkpt lat="44.9269490156786" lon="7.151247849046106"><ele>945.0</ele><time>2026-04-19T11:31:36.001Z</time></trkpt><trkpt lat="44.92708676045796" lon="7.151244128812298"><ele>945.0</ele><time>2026-04-19T11:31:37.001Z</time></trkpt><trkpt lat="44.92723123034958" lon="7.151260082917094"><ele>945.0</ele><time>2026-04-19T11:31:38.001Z</time></trkpt><trkpt lat="44.927387288301844" lon="7.151247444829437"><ele>945.0</ele><time>2026-04-19T11:31:39.001Z</time></trkpt><trkpt lat="44.92755596439942" lon="7.151265917079511"><ele>946.0</ele><time>2026-04-19T11:31:40.001Z</time></trkpt><trkpt lat="44.927732537148366" lon="7.1512542008615165"><ele>947.0</ele><time>2026-04-19T11:31:41.001Z</time></trkpt><trkpt lat="44.92791056568435" lon="7.151270232602123"><ele>948.0</ele><time>2026-04-19T11:31:42.001Z</time></trkpt><trkpt lat="44.92807656988352" lon="7.151286409931366"><ele>948.0</ele><time>2026-04-19T11:31:43.001Z</time></trkpt><trkpt lat="44.92824370726481" lon="7.1513243873410035"><ele>948.0</ele><time>2026-04-19T11:31:44.001Z</time></trkpt><trkpt lat="44.928424326227315" lon="7.151372480810503"><ele>948.0</ele><time>2026-04-19T11:31:45.001Z</time></trkpt><trkpt lat="44.92858957017733" lon="7.151397691458603"><ele>947.6666666666667</ele><time>2026-04-19T11:31:46.001Z</time></trkpt><trkpt lat="44.928760995698475" lon="7.151414656202201"><ele>947.3333333333334</ele><time>2026-04-19T11:31:47.001Z</time></trkpt><trkpt lat="44.92893537476358" lon="7.151397620609221"><ele>947.0</ele><time>2026-04-19T11:31:48Z</time></trkpt><trkpt lat="44.92909065463433" lon="7.151348965370068"><ele>947.0</ele><time>2026-04-19T11:31:49Z</time></trkpt><trkpt lat="44.92921555908496" lon="7.151330885445394"><ele>947.0</ele><time>2026-04-19T11:31:50Z</time></trkpt><trkpt lat="44.92933633381948" lon="7.151309862802563"><ele>947.0</ele><time>2026-04-19T11:31:51Z</time></trkpt><trkpt lat="44.92945734535335" lon="7.151400982774031"><ele>947.0</ele><time>2026-04-19T11:31:52Z</time></trkpt><trkpt lat="44.92957868632928" lon="7.151505569416636"><ele>955.0</ele><time>2026-04-19T11:31:53Z</time></trkpt><trkpt lat="44.92971280416584" lon="7.151603252271428"><ele>963.0</ele><time>2026-04-19T11:31:54Z</time></trkpt><trkpt lat="44.92983957843576" lon="7.151749485022691"><ele>971.0</ele><time>2026-04-19T11:31:55Z</time></trkpt><trkpt lat="44.92997566079015" lon="7.15188145008085"><ele>974.25</ele><time>2026-04-19T11:31:56Z</time></trkpt><trkpt lat="44.930128408193276" lon="7.1519752724979995"><ele>977.5</ele><time>2026-04-19T11:31:57Z</time></trkpt><trkpt lat="44.930277787487874" lon="7.152027295731718"><ele>980.75</ele><time>2026-04-19T11:31:58Z</time></trkpt><trkpt lat="44.930404110540586" lon="7.152060084199352"><ele>984.0</ele><time>2026-04-19T11:31:59Z</time></trkpt><trkpt lat="44.930510985245434" lon="7.152085798962514"><ele>984.0</ele><time>2026-04-19T11:32:00Z</time></trkpt><trkpt lat="44.930597532534186" lon="7.152105408451761"><ele>984.0000000000001</ele><time>2026-04-19T11:32:01Z</time></trkpt><trkpt lat="44.930667289307735" lon="7.152136124279278"><ele>984.0000000000001</ele><time>2026-04-19T11:32:02Z</time></trkpt><trkpt lat="44.930675277130824" lon="7.152255415478637"><ele>984.0</ele><time>2026-04-19T11:32:04Z</time></trkpt><trkpt lat="44.93053602310009" lon="7.152293177119482"><ele>984.0</ele><time>2026-04-19T11:32:06Z</time></trkpt><trkpt lat="44.93044306294219" lon="7.152291851924493"><ele>984.0</ele><time>2026-04-19T11:32:07Z</time></trkpt><trkpt lat="44.93032279785522" lon="7.152295988752786"><ele>984.0</ele><time>2026-04-19T11:32:08Z</time></trkpt><trkpt lat="44.930201022021855" lon="7.1522874630735425"><ele>984.0</ele><time>2026-04-19T11:32:09Z</time></trkpt><trkpt lat="44.93006712131998" lon="7.152254352701765"><ele>984.0</ele><time>2026-04-19T11:32:10Z</time></trkpt><trkpt lat="44.9299210981316" lon="7.152206994153673"><ele>980.75</ele><time>2026-04-19T11:32:11Z</time></trkpt><trkpt lat="44.92978482755448" lon="7.152161067792847"><ele>977.5</ele><time>2026-04-19T11:32:12Z</time></trkpt><trkpt lat="44.929635415561954" lon="7.152146012145103"><ele>974.25</ele><time>2026-04-19T11:32:13Z</time></trkpt><trkpt lat="44.92950225210415" lon="7.152110426902559"><ele>971.0</ele><time>2026-04-19T11:32:14Z</time></trkpt><trkpt lat="44.92938210342653" lon="7.15211600946389"><ele>971.0</ele><time>2026-04-19T11:32:15Z</time></trkpt><trkpt lat="44.92926243863366" lon="7.152133088584269"><ele>971.0</ele><time>2026-04-19T11:32:16Z</time></trkpt><trkpt lat="44.92913138533143" lon="7.152190655167757"><ele>971.0</ele><time>2026-04-19T11:32:17Z</time></trkpt><trkpt lat="44.92898967916077" lon="7.152275395491779"><ele>971.0</ele><time>2026-04-19T11:32:18Z</time></trkpt><trkpt lat="44.92884025180475" lon="7.152366324458997"><ele>978.0</ele><time>2026-04-19T11:32:19Z</time></trkpt><trkpt lat="44.92869971810091" lon="7.152428736609594"><ele>985.0</ele><time>2026-04-19T11:32:20Z</time></trkpt><trkpt lat="44.92859092216689" lon="7.152486217869299"><ele>992.0</ele><time>2026-04-19T11:32:21Z</time></trkpt><trkpt lat="44.9285167703417" lon="7.152578571025752"><ele>999.0</ele><time>2026-04-19T11:32:22Z</time></trkpt><trkpt lat="44.92845872870958" lon="7.1527104829264"><ele>999.0</ele><time>2026-04-19T11:32:23Z</time></trkpt><trkpt lat="44.928406427538015" lon="7.15286687040575"><ele>999.0</ele><time>2026-04-19T11:32:24Z</time></trkpt><trkpt lat="44.92833558725055" lon="7.153020840805784"><ele>999.0</ele><time>2026-04-19T11:32:25Z</time></trkpt><trkpt lat="44.928216987256" lon="7.153111909248756"><ele>999.0</ele><time>2026-04-19T11:32:26Z</time></trkpt><trkpt lat="44.92809431127069" lon="7.153229014922704"><ele>1001.25</ele><time>2026-04-19T11:32:27Z</time></trkpt><trkpt lat="44.927980603142174" lon="7.153365879551359"><ele>1003.5</ele><time>2026-04-19T11:32:28Z</time></trkpt><trkpt lat="44.927853556535794" lon="7.153464661315964"><ele>1005.75</ele><time>2026-04-19T11:32:29Z</time></trkpt><trkpt lat="44.92773648027823" lon="7.153533638713701"><ele>1008.0</ele><time>2026-04-19T11:32:30Z</time></trkpt><trkpt lat="44.92762871175335" lon="7.1535346506745805"><ele>1007.0</ele><time>2026-04-19T11:32:31Z</time></trkpt><trkpt lat="44.92753614623987" lon="7.153552566308435"><ele>1006.0</ele><time>2026-04-19T11:32:32Z</time></trkpt><trkpt lat="44.92746932702622" lon="7.153585555428624"><ele>1005.0</ele><time>2026-04-19T11:32:33Z</time></trkpt><trkpt lat="44.927383740769024" lon="7.153642945999778"><ele>1004.0</ele><time>2026-04-19T11:32:35Z</time></trkpt><trkpt lat="44.927458278748915" lon="7.153821118640228"><ele>1003.0</ele><time>2026-04-19T11:32:37Z</time></trkpt><trkpt lat="44.92752854436" lon="7.1538621257115445"><ele>1004.25</ele><time>2026-04-19T11:32:38Z</time></trkpt><trkpt lat="44.92762439408427" lon="7.153872058607178"><ele>1005.5</ele><time>2026-04-19T11:32:39Z</time></trkpt><trkpt lat="44.92773666183302" lon="7.1538645724001455"><ele>1006.75</ele><time>2026-04-19T11:32:40Z</time></trkpt><trkpt lat="44.92785697015472" lon="7.153835252160862"><ele>1008.0</ele><time>2026-04-19T11:32:41Z</time></trkpt><trkpt lat="44.927980712265715" lon="7.15379340055646"><ele>1008.0</ele><time>2026-04-19T11:32:42Z</time></trkpt><trkpt lat="44.92810957116687" lon="7.153759737108277"><ele>1008.0</ele><time>2026-04-19T11:32:43Z</time></trkpt><trkpt lat="44.92825856346377" lon="7.153766975362259"><ele>1008.0</ele><time>2026-04-19T11:32:44Z</time></trkpt><trkpt lat="44.92841800748431" lon="7.1537534269439895"><ele>1008.0</ele><time>2026-04-19T11:32:45Z</time></trkpt><trkpt lat="44.928584538821994" lon="7.153710513428658"><ele>1013.0</ele><time>2026-04-19T11:32:46Z</time></trkpt><trkpt lat="44.928752068162474" lon="7.153667402443114"><ele>1018.0</ele><time>2026-04-19T11:32:47Z</time></trkpt><trkpt lat="44.92891602580662" lon="7.153603236704848"><ele>1023.0</ele><time>2026-04-19T11:32:48Z</time></trkpt><trkpt lat="44.92908677332782" lon="7.153557379457122"><ele>1024.25</ele><time>2026-04-19T11:32:49Z</time></trkpt><trkpt lat="44.929236505463656" lon="7.1534743153965525"><ele>1025.5</ele><time>2026-04-19T11:32:50Z</time></trkpt><trkpt lat="44.92937182880644" lon="7.1534567443786745"><ele>1026.75</ele><time>2026-04-19T11:32:51Z</time></trkpt><trkpt lat="44.929480401509316" lon="7.153425889348788"><ele>1028.0</ele><time>2026-04-19T11:32:52Z</time></trkpt><trkpt lat="44.929575364511585" lon="7.153394441889717"><ele>1028.0</ele><time>2026-04-19T11:32:53Z</time></trkpt><trkpt lat="44.929656159028724" lon="7.153371237637743"><ele>1028.0</ele><time>2026-04-19T11:32:54Z</time></trkpt><trkpt lat="44.92972112071513" lon="7.153383544551866"><ele>1028.0</ele><time>2026-04-19T11:32:55Z</time></trkpt><trkpt lat="44.92976952839703" lon="7.153478965407803"><ele>1028.0</ele><time>2026-04-19T11:32:57Z</time></trkpt><trkpt lat="44.92972919339727" lon="7.153559286075495"><ele>1028.0</ele><time>2026-04-19T11:32:58Z</time></trkpt><trkpt lat="44.929646005633714" lon="7.153587159634315"><ele>1028.0</ele><time>2026-04-19T11:32:59Z</time></trkpt><trkpt lat="44.92955493808176" lon="7.153666613050041"><ele>1028.0</ele><time>2026-04-19T11:33:00Z</time></trkpt><trkpt lat="44.92944584455921" lon="7.153727629425607"><ele>1028.0</ele><time>2026-04-19T11:33:01Z</time></trkpt><trkpt lat="44.92933539089936" lon="7.153806998564114"><ele>1028.0</ele><time>2026-04-19T11:33:02Z</time></trkpt><trkpt lat="44.92921977245711" lon="7.153901976181624"><ele>1028.0</ele><time>2026-04-19T11:33:03Z</time></trkpt><trkpt lat="44.929119534972955" lon="7.15397586620187"><ele>1027.1666666666667</ele><time>2026-04-19T11:33:04Z</time></trkpt><trkpt lat="44.9290417525408" lon="7.154037445740422"><ele>1026.3333333333335</ele><time>2026-04-19T11:33:05Z</time></trkpt><trkpt lat="44.92897539452266" lon="7.154116562983305"><ele>1025.5</ele><time>2026-04-19T11:33:06Z</time></trkpt><trkpt lat="44.92893777438728" lon="7.154208068096789"><ele>1024.6666666666667</ele><time>2026-04-19T11:33:07Z</time></trkpt><trkpt lat="44.928956602143266" lon="7.154296602163143"><ele>1023.8333333333334</ele><time>2026-04-19T11:33:08Z</time></trkpt><trkpt lat="44.929017945278574" lon="7.154352523790809"><ele>1023.0</ele><time>2026-04-19T11:33:09Z</time></trkpt><trkpt lat="44.92910096426966" lon="7.1543666785387625"><ele>1029.25</ele><time>2026-04-19T11:33:10Z</time></trkpt><trkpt lat="44.92919296148349" lon="7.154324677065497"><ele>1035.5</ele><time>2026-04-19T11:33:11Z</time></trkpt><trkpt lat="44.92929593169847" lon="7.154265508555782"><ele>1041.75</ele><time>2026-04-19T11:33:12Z</time></trkpt><trkpt lat="44.92940886536025" lon="7.154218159436667"><ele>1048.0</ele><time>2026-04-19T11:33:13Z</time></trkpt><trkpt lat="44.92953220650267" lon="7.1541868290014605"><ele>1049.25</ele><time>2026-04-19T11:33:14Z</time></trkpt><trkpt lat="44.92965910987483" lon="7.154165841633209"><ele>1050.5</ele><time>2026-04-19T11:33:15Z</time></trkpt><trkpt lat="44.929788293720435" lon="7.154179712178511"><ele>1051.75</ele><time>2026-04-19T11:33:16Z</time></trkpt><trkpt lat="44.92992026581331" lon="7.15419878360198"><ele>1053.0</ele><time>2026-04-19T11:33:17Z</time></trkpt><trkpt lat="44.93005439579542" lon="7.15421950464127"><ele>1052.5</ele><time>2026-04-19T11:33:18Z</time></trkpt><trkpt lat="44.93018452527022" lon="7.154300321013945"><ele>1052.0</ele><time>2026-04-19T11:33:19Z</time></trkpt><trkpt lat="44.930317183437595" lon="7.154394011358011"><ele>1051.5</ele><time>2026-04-19T11:33:20Z</time></trkpt><trkpt lat="44.93044297009897" lon="7.154505198671415"><ele>1051.0</ele><time>2026-04-19T11:33:21Z</time></trkpt><trkpt lat="44.93054995778161" lon="7.154647822293173"><ele>1051.0</ele><time>2026-04-19T11:33:22Z</time></trkpt><trkpt lat="44.93063219254881" lon="7.154784039970153"><ele>1051.0</ele><time>2026-04-19T11:33:23Z</time></trkpt><trkpt lat="44.930692915128006" lon="7.1548604891425"><ele>1051.0</ele><time>2026-04-19T11:33:24Z</time></trkpt><trkpt lat="44.93074838245913" lon="7.154941404976697"><ele>1051.0</ele><time>2026-04-19T11:35:34Z</time></trkpt><trkpt lat="44.93081449612994" lon="7.15501887108714"><ele>1051.0</ele><time>2026-04-19T11:35:35Z</time></trkpt><trkpt lat="44.9308876522052" lon="7.1551031011957615"><ele>1052.6666666666665</ele><time>2026-04-19T11:35:36Z</time></trkpt><trkpt lat="44.93096714335363" lon="7.155187557268702"><ele>1054.3333333333333</ele><time>2026-04-19T11:35:37Z</time></trkpt><trkpt lat="44.93105092157845" lon="7.155242203601402"><ele>1056.0</ele><time>2026-04-19T11:35:38.001Z</time></trkpt><trkpt lat="44.93112970895552" lon="7.155285877105241"><ele>1057.6666666666667</ele><time>2026-04-19T11:35:39.001Z</time></trkpt><trkpt lat="44.931198859487985" lon="7.155307188575461"><ele>1059.3333333333335</ele><time>2026-04-19T11:35:40.001Z</time></trkpt><trkpt lat="44.93127479782544" lon="7.155369324543231"><ele>1061.0</ele><time>2026-04-19T11:35:42.001Z</time></trkpt><trkpt lat="44.93113427003722" lon="7.155390470414777"><ele>1061.0</ele><time>2026-04-19T11:35:46.001Z</time></trkpt><trkpt lat="44.93104632632301" lon="7.155387655701164"><ele>1061.0</ele><time>2026-04-19T11:35:47.001Z</time></trkpt><trkpt lat="44.93094880714886" lon="7.155381817747774"><ele>1061.0</ele><time>2026-04-19T11:35:48.001Z</time></trkpt><trkpt lat="44.93083601551057" lon="7.155365883385196"><ele>1061.0</ele><time>2026-04-19T11:35:49.001Z</time></trkpt><trkpt lat="44.93073575232619" lon="7.155310923368926"><ele>1061.0</ele><time>2026-04-19T11:35:50.001Z</time></trkpt><trkpt lat="44.930626372540594" lon="7.1552531553046155"><ele>1063.25</ele><time>2026-04-19T11:35:51.001Z</time></trkpt><trkpt lat="44.93051173817162" lon="7.155251424611654"><ele>1065.5</ele><time>2026-04-19T11:35:52.001Z</time></trkpt><trkpt lat="44.930386143944666" lon="7.155259359989908"><ele>1067.75</ele><time>2026-04-19T11:35:53Z</time></trkpt><trkpt lat="44.930248663658375" lon="7.155272616206833"><ele>1070.0</ele><time>2026-04-19T11:35:54Z</time></trkpt><trkpt lat="44.9301145735924" lon="7.155291818749323"><ele>1071.5</ele><time>2026-04-19T11:35:55Z</time></trkpt><trkpt lat="44.929993925708246" lon="7.155347362240102"><ele>1073.0</ele><time>2026-04-19T11:35:56Z</time></trkpt><trkpt lat="44.92988973166636" lon="7.15537528945513"><ele>1074.5</ele><time>2026-04-19T11:35:57Z</time></trkpt><trkpt lat="44.92979675295229" lon="7.155465147100104"><ele>1076.0</ele><time>2026-04-19T11:35:58Z</time></trkpt><trkpt lat="44.9297155813892" lon="7.155558379005288"><ele>1076.0</ele><time>2026-04-19T11:35:59Z</time></trkpt><trkpt lat="44.929626677764126" lon="7.155667583972808"><ele>1076.0</ele><time>2026-04-19T11:36:00Z</time></trkpt><trkpt lat="44.92955001055306" lon="7.155819412939735"><ele>1076.0</ele><time>2026-04-19T11:36:01Z</time></trkpt><trkpt lat="44.92946518472606" lon="7.15599071920501"><ele>1076.0</ele><time>2026-04-19T11:36:02Z</time></trkpt><trkpt lat="44.92935526560753" lon="7.156163171386776"><ele>1079.3333333333335</ele><time>2026-04-19T11:36:03Z</time></trkpt><trkpt lat="44.929256475475825" lon="7.156356408015198"><ele>1082.6666666666667</ele><time>2026-04-19T11:36:04Z</time></trkpt><trkpt lat="44.92912693453716" lon="7.156510411277251"><ele>1086.0</ele><time>2026-04-19T11:36:05Z</time></trkpt><trkpt lat="44.92900128940781" lon="7.156677577111773"><ele>1093.3333333333333</ele><time>2026-04-19T11:36:06Z</time></trkpt><trkpt lat="44.928871071939184" lon="7.1568343156465755"><ele>1100.6666666666665</ele><time>2026-04-19T11:36:07Z</time></trkpt><trkpt lat="44.92874835001593" lon="7.1569649205113395"><ele>1108.0</ele><time>2026-04-19T11:36:08Z</time></trkpt><trkpt lat="44.928638236172546" lon="7.157076841828588"><ele>1108.0</ele><time>2026-04-19T11:36:09Z</time></trkpt><trkpt lat="44.928554192889656" lon="7.157159718096109"><ele>1108.0</ele><time>2026-04-19T11:36:10Z</time></trkpt><trkpt lat="44.928481211876935" lon="7.157227647590495"><ele>1108.0</ele><time>2026-04-19T11:36:11Z</time></trkpt><trkpt lat="44.92837678738227" lon="7.157245734886707"><ele>1108.0</ele><time>2026-04-19T11:36:12Z</time></trkpt><trkpt lat="44.92828880074375" lon="7.157210325341427"><ele>1108.0</ele><time>2026-04-19T11:36:13Z</time></trkpt><trkpt lat="44.92819786411708" lon="7.157186444775729"><ele>1109.4</ele><time>2026-04-19T11:36:14Z</time></trkpt><trkpt lat="44.92808866321467" lon="7.157194042469038"><ele>1110.8</ele><time>2026-04-19T11:36:15Z</time></trkpt><trkpt lat="44.92802499812111" lon="7.157222280973752"><ele>1112.2</ele><time>2026-04-19T11:36:16Z</time></trkpt><trkpt lat="44.927970293438165" lon="7.1573714399512"><ele>1113.6</ele><time>2026-04-19T11:36:18Z</time></trkpt><trkpt lat="44.9280460167131" lon="7.157449100117079"><ele>1115.0</ele><time>2026-04-19T11:36:19Z</time></trkpt><trkpt lat="44.92811364207549" lon="7.157475276586533"><ele>1115.0</ele><time>2026-04-19T11:36:20Z</time></trkpt><trkpt lat="44.928210399269744" lon="7.157472730675327"><ele>1115.0</ele><time>2026-04-19T11:36:21Z</time></trkpt><trkpt lat="44.92830403224995" lon="7.157493524825867"><ele>1115.0</ele><time>2026-04-19T11:36:22Z</time></trkpt><trkpt lat="44.92838879029613" lon="7.157559750329778"><ele>1115.0</ele><time>2026-04-19T11:36:23Z</time></trkpt><trkpt lat="44.92849196351286" lon="7.15765854721459"><ele>1115.0</ele><time>2026-04-19T11:36:24Z</time></trkpt><trkpt lat="44.92858631248795" lon="7.157691635433766"><ele>1113.25</ele><time>2026-04-19T11:36:25Z</time></trkpt><trkpt lat="44.92867319969304" lon="7.157641895994636"><ele>1111.5</ele><time>2026-04-19T11:36:26Z</time></trkpt><trkpt lat="44.928755413134056" lon="7.157547255594876"><ele>1109.75</ele><time>2026-04-19T11:36:27Z</time></trkpt><trkpt lat="44.92885405133357" lon="7.157440158890112"><ele>1108.0</ele><time>2026-04-19T11:36:28Z</time></trkpt><trkpt lat="44.92896307458696" lon="7.157351462447008"><ele>1108.0</ele><time>2026-04-19T11:36:29Z</time></trkpt><trkpt lat="44.92909157103525" lon="7.157264340541151"><ele>1108.0</ele><time>2026-04-19T11:36:30Z</time></trkpt><trkpt lat="44.92922836767892" lon="7.157193203749071"><ele>1108.0</ele><time>2026-04-19T11:36:31Z</time></trkpt><trkpt lat="44.92936296976027" lon="7.157134517484517"><ele>1108.0</ele><time>2026-04-19T11:36:32Z</time></trkpt><trkpt lat="44.92948284240903" lon="7.157059004600078"><ele>1109.4</ele><time>2026-04-19T11:36:33Z</time></trkpt><trkpt lat="44.92957857725678" lon="7.15695892102866"><ele>1110.8</ele><time>2026-04-19T11:36:34Z</time></trkpt><trkpt lat="44.92964064519565" lon="7.156872142484636"><ele>1112.2</ele><time>2026-04-19T11:36:35Z</time></trkpt><trkpt lat="44.92969862540787" lon="7.156781102078156"><ele>1113.6</ele><time>2026-04-19T11:36:36Z</time></trkpt><trkpt lat="44.92977438340612" lon="7.156735499487125"><ele>1115.0</ele><time>2026-04-19T11:36:37Z</time></trkpt><trkpt lat="44.92984165402064" lon="7.156678472236588"><ele>1115.0</ele><time>2026-04-19T11:36:38Z</time></trkpt><trkpt lat="44.92990558089803" lon="7.156611711149433"><ele>1115.0</ele><time>2026-04-19T11:36:39Z</time></trkpt><trkpt lat="44.92999665124749" lon="7.1566432714016734"><ele>1115.0</ele><time>2026-04-19T11:36:41Z</time></trkpt><trkpt lat="44.93008088789649" lon="7.1567676352654415"><ele>1115.0</ele><time>2026-04-19T11:36:43Z</time></trkpt><trkpt lat="44.93007510409336" lon="7.156887243666622"><ele>1115.0</ele><time>2026-04-19T11:36:44Z</time></trkpt><trkpt lat="44.930069163350495" lon="7.157026583888581"><ele>1115.0</ele><time>2026-04-19T11:36:45Z</time></trkpt><trkpt lat="44.9300318963348" lon="7.157185946137525"><ele>1115.0</ele><time>2026-04-19T11:36:46Z</time></trkpt><trkpt lat="44.92999582056079" lon="7.157366747196542"><ele>1115.0</ele><time>2026-04-19T11:36:47Z</time></trkpt><trkpt lat="44.929978489828834" lon="7.157555432387433"><ele>1115.0</ele><time>2026-04-19T11:36:48Z</time></trkpt><trkpt lat="44.92997921583598" lon="7.15774500246532"><ele>1117.75</ele><time>2026-04-19T11:36:49Z</time></trkpt><trkpt lat="44.92999059715915" lon="7.157935205299726"><ele>1120.5</ele><time>2026-04-19T11:36:50Z</time></trkpt><trkpt lat="44.93001231065151" lon="7.158115247808617"><ele>1123.25</ele><time>2026-04-19T11:36:51Z</time></trkpt><trkpt lat="44.93002352967989" lon="7.158318323622146"><ele>1126.0</ele><time>2026-04-19T11:36:52Z</time></trkpt><trkpt lat="44.93002668478018" lon="7.158512319095962"><ele>1128.5</ele><time>2026-04-19T11:36:53Z</time></trkpt><trkpt lat="44.93001503547216" lon="7.158690392371776"><ele>1131.0</ele><time>2026-04-19T11:36:54Z</time></trkpt><trkpt lat="44.92995738985313" lon="7.15883634774848"><ele>1133.5</ele><time>2026-04-19T11:36:55Z</time></trkpt><trkpt lat="44.92991415948013" lon="7.159002709144837"><ele>1136.0</ele><time>2026-04-19T11:36:56Z</time></trkpt><trkpt lat="44.929868952458726" lon="7.159179077456189"><ele>1137.5</ele><time>2026-04-19T11:36:57Z</time></trkpt><trkpt lat="44.92984735340542" lon="7.159384848305673"><ele>1139.0</ele><time>2026-04-19T11:36:58Z</time></trkpt><trkpt lat="44.92979685646293" lon="7.159571828957717"><ele>1140.5</ele><time>2026-04-19T11:36:59Z</time></trkpt><trkpt lat="44.929769761587195" lon="7.159725373560652"><ele>1142.0</ele><time>2026-04-19T11:37:00Z</time></trkpt><trkpt lat="44.92973847065118" lon="7.159833119065091"><ele>1142.0</ele><time>2026-04-19T11:37:01Z</time></trkpt><trkpt lat="44.929705085316584" lon="7.159912347229503"><ele>1142.0</ele><time>2026-04-19T11:37:02Z</time></trkpt><trkpt lat="44.92963643460904" lon="7.15991756811035"><ele>1142.0</ele><time>2026-04-19T11:37:04Z</time></trkpt><trkpt lat="44.92963558460721" lon="7.159827448190277"><ele>1142.0</ele><time>2026-04-19T11:37:05Z</time></trkpt><trkpt lat="44.92967533589955" lon="7.159679803113709"><ele>1142.0</ele><time>2026-04-19T11:37:07Z</time></trkpt><trkpt lat="44.92967635802437" lon="7.159545611881464"><ele>1142.0</ele><time>2026-04-19T11:37:08Z</time></trkpt><trkpt lat="44.92964954143616" lon="7.159392435034813"><ele>1142.0</ele><time>2026-04-19T11:37:09Z</time></trkpt><trkpt lat="44.929625764324896" lon="7.15921245960861"><ele>1142.0</ele><time>2026-04-19T11:37:10Z</time></trkpt><trkpt lat="44.9295982928701" lon="7.159048641355868"><ele>1142.0</ele><time>2026-04-19T11:37:11Z</time></trkpt><trkpt lat="44.92957023615898" lon="7.158940566733196"><ele>1142.0</ele><time>2026-04-19T11:37:12Z</time></trkpt><trkpt lat="44.929511315732555" lon="7.158858761082372"><ele>1142.0</ele><time>2026-04-19T11:37:13Z</time></trkpt><trkpt lat="44.92942362960077" lon="7.158835286020832"><ele>1142.0</ele><time>2026-04-19T11:37:14Z</time></trkpt><trkpt lat="44.92935117860411" lon="7.158790925775231"><ele>1142.0</ele><time>2026-04-19T11:37:15Z</time></trkpt><trkpt lat="44.92928456348411" lon="7.1587870273978735"><ele>1142.0</ele><time>2026-04-19T11:37:16Z</time></trkpt><trkpt lat="44.92921231129908" lon="7.158925047014195"><ele>1142.0</ele><time>2026-04-19T11:37:18Z</time></trkpt><trkpt lat="44.92927708267017" lon="7.159079360132609"><ele>1142.0</ele><time>2026-04-19T11:37:20Z</time></trkpt><trkpt lat="44.92934437099203" lon="7.159172898635943"><ele>1142.0</ele><time>2026-04-19T11:37:21Z</time></trkpt><trkpt lat="44.92938427509326" lon="7.159258996871239"><ele>1142.0</ele><time>2026-04-19T11:37:22Z</time></trkpt><trkpt lat="44.929381729399964" lon="7.1593734825587205"><ele>1142.0</ele><time>2026-04-19T11:37:23Z</time></trkpt><trkpt lat="44.92938205591711" lon="7.159489771100819"><ele>1142.0</ele><time>2026-04-19T11:37:24Z</time></trkpt><trkpt lat="44.929357543002425" lon="7.159608481659145"><ele>1142.0</ele><time>2026-04-19T11:37:25Z</time></trkpt><trkpt lat="44.92934245471888" lon="7.159745167701915"><ele>1142.0</ele><time>2026-04-19T11:37:26Z</time></trkpt><trkpt lat="44.92929168584853" lon="7.159891176976712"><ele>1142.6</ele><time>2026-04-19T11:37:27Z</time></trkpt><trkpt lat="44.92924246093961" lon="7.160031089319817"><ele>1143.2</ele><time>2026-04-19T11:37:28Z</time></trkpt><trkpt lat="44.92918623539627" lon="7.160119721684655"><ele>1143.8</ele><time>2026-04-19T11:37:29Z</time></trkpt><trkpt lat="44.92911563310832" lon="7.160149755966653"><ele>1144.4</ele><time>2026-04-19T11:37:30Z</time></trkpt><trkpt lat="44.92897052341057" lon="7.160232808396496"><ele>1145.0</ele><time>2026-04-19T11:37:32Z</time></trkpt><trkpt lat="44.928902861477724" lon="7.160283572338787"><ele>1150.25</ele><time>2026-04-19T11:37:33Z</time></trkpt><trkpt lat="44.92890007968818" lon="7.160500888247286"><ele>1155.5</ele><time>2026-04-19T11:37:35Z</time></trkpt><trkpt lat="44.92892987163655" lon="7.160660900526014"><ele>1160.75</ele><time>2026-04-19T11:37:36Z</time></trkpt><trkpt lat="44.928938189861576" lon="7.160825712486515"><ele>1166.0</ele><time>2026-04-19T11:37:37Z</time></trkpt><trkpt lat="44.928947992297914" lon="7.1609904008233976"><ele>1167.0</ele><time>2026-04-19T11:37:38Z</time></trkpt><trkpt lat="44.928965806212474" lon="7.161168803291428"><ele>1168.0</ele><time>2026-04-19T11:37:39Z</time></trkpt><trkpt lat="44.92898979299901" lon="7.1613514453230565"><ele>1169.0</ele><time>2026-04-19T11:37:40Z</time></trkpt><trkpt lat="44.92899565914251" lon="7.161505638434552"><ele>1170.0</ele><time>2026-04-19T11:37:41Z</time></trkpt><trkpt lat="44.928984752832996" lon="7.1616716586416285"><ele>1171.2</ele><time>2026-04-19T11:37:42Z</time></trkpt><trkpt lat="44.92895833400184" lon="7.1618079924159455"><ele>1172.4</ele><time>2026-04-19T11:37:43Z</time></trkpt><trkpt lat="44.92893116572955" lon="7.1619447283671285"><ele>1173.6</ele><time>2026-04-19T11:37:44Z</time></trkpt><trkpt lat="44.928901739637716" lon="7.162087273217993"><ele>1174.8</ele><time>2026-04-19T11:37:45Z</time></trkpt><trkpt lat="44.92886956916775" lon="7.16224311236238"><ele>1176.0</ele><time>2026-04-19T11:37:46Z</time></trkpt><trkpt lat="44.92882679840552" lon="7.162434790601595"><ele>1177.0</ele><time>2026-04-19T11:37:47Z</time></trkpt><trkpt lat="44.92878864267288" lon="7.162562097135891"><ele>1178.0</ele><time>2026-04-19T11:37:48Z</time></trkpt><trkpt lat="44.928742126767" lon="7.162633131065227"><ele>1179.0</ele><time>2026-04-19T11:37:49Z</time></trkpt><trkpt lat="44.92868320302294" lon="7.162666050861399"><ele>1180.0</ele><time>2026-04-19T11:37:51Z</time></trkpt><trkpt lat="44.92871814528819" lon="7.1625892118621435"><ele>1181.0</ele><time>2026-04-19T11:37:52Z</time></trkpt><trkpt lat="44.928693305057976" lon="7.162476644196835"><ele>1182.0</ele><time>2026-04-19T11:37:55Z</time></trkpt><trkpt lat="44.92867782559739" lon="7.162373911112799"><ele>1180.8</ele><time>2026-04-19T11:37:56Z</time></trkpt><trkpt lat="44.92866064481254" lon="7.1622663777345394"><ele>1179.6</ele><time>2026-04-19T11:37:57Z</time></trkpt><trkpt lat="44.92863653567739" lon="7.162149584604061"><ele>1178.3999999999999</ele><time>2026-04-19T11:37:58Z</time></trkpt><trkpt lat="44.92858043867443" lon="7.161988932757933"><ele>1177.2</ele><time>2026-04-19T11:37:59Z</time></trkpt><trkpt lat="44.92851989327809" lon="7.161829409037912"><ele>1176.0</ele><time>2026-04-19T11:38:00Z</time></trkpt><trkpt lat="44.92844103090479" lon="7.1616723699652605"><ele>1179.0</ele><time>2026-04-19T11:38:01Z</time></trkpt><trkpt lat="44.92837562727748" lon="7.161497917534161"><ele>1182.0</ele><time>2026-04-19T11:38:02Z</time></trkpt><trkpt lat="44.92830504678913" lon="7.161306147744036"><ele>1185.0</ele><time>2026-04-19T11:38:03Z</time></trkpt><trkpt lat="44.928239656670065" lon="7.16115842776666"><ele>1188.0</ele><time>2026-04-19T11:38:04Z</time></trkpt><trkpt lat="44.92819082297756" lon="7.161043987315352"><ele>1188.0</ele><time>2026-04-19T11:38:05Z</time></trkpt><trkpt lat="44.928127311644445" lon="7.160985767873984"><ele>1188.0</ele><time>2026-04-19T11:38:06Z</time></trkpt><trkpt lat="44.92803037215731" lon="7.160914566148642"><ele>1188.0</ele><time>2026-04-19T11:38:07Z</time></trkpt><trkpt lat="44.92792875951458" lon="7.160836075062758"><ele>1188.0</ele><time>2026-04-19T11:38:08Z</time></trkpt><trkpt lat="44.92784337144651" lon="7.160773457117766"><ele>1188.0</ele><time>2026-04-19T11:38:09Z</time></trkpt><trkpt lat="44.92777912075893" lon="7.160735536495647"><ele>1188.0</ele><time>2026-04-19T11:38:10Z</time></trkpt><trkpt lat="44.927707845365575" lon="7.160756741779505"><ele>1188.0</ele><time>2026-04-19T11:38:12Z</time></trkpt><trkpt lat="44.9277491244654" lon="7.160929252323555"><ele>1188.0</ele><time>2026-04-19T11:38:14Z</time></trkpt><trkpt lat="44.927839585944795" lon="7.161001892839943"><ele>1188.0</ele><time>2026-04-19T11:38:15Z</time></trkpt><trkpt lat="44.92787707058869" lon="7.161120961785771"><ele>1188.0</ele><time>2026-04-19T11:38:16Z</time></trkpt><trkpt lat="44.92791142011446" lon="7.161232940927151"><ele>1188.0</ele><time>2026-04-19T11:38:17Z</time></trkpt><trkpt lat="44.92794958916958" lon="7.161366337303043"><ele>1188.0</ele><time>2026-04-19T11:38:18Z</time></trkpt><trkpt lat="44.92798088408953" lon="7.1615122141865175"><ele>1188.0</ele><time>2026-04-19T11:38:19Z</time></trkpt><trkpt lat="44.92799677417731" lon="7.16167611440565"><ele>1188.0</ele><time>2026-04-19T11:38:20Z</time></trkpt><trkpt lat="44.928012037451744" lon="7.161877622418218"><ele>1191.0</ele><time>2026-04-19T11:38:21Z</time></trkpt><trkpt lat="44.92802323225336" lon="7.162049168268018"><ele>1194.0</ele><time>2026-04-19T11:38:22Z</time></trkpt><trkpt lat="44.928030194689846" lon="7.162237257272878"><ele>1197.0</ele><time>2026-04-19T11:38:23Z</time></trkpt><trkpt lat="44.9280284120956" lon="7.162371006592691"><ele>1200.0</ele><time>2026-04-19T11:38:24Z</time></trkpt><trkpt lat="44.92801748799705" lon="7.162490069205111"><ele>1203.0</ele><time>2026-04-19T11:38:25Z</time></trkpt><trkpt lat="44.927990689158676" lon="7.162635157932767"><ele>1204.4</ele><time>2026-04-19T11:38:26Z</time></trkpt><trkpt lat="44.92796166876245" lon="7.162802839636395"><ele>1205.8</ele><time>2026-04-19T11:38:27Z</time></trkpt><trkpt lat="44.92794023615885" lon="7.162979317778074"><ele>1207.2</ele><time>2026-04-19T11:38:28Z</time></trkpt><trkpt lat="44.92789462865638" lon="7.163137095925344"><ele>1208.6</ele><time>2026-04-19T11:38:29Z</time></trkpt><trkpt lat="44.927868883037085" lon="7.163228957445608"><ele>1210.0</ele><time>2026-04-19T11:38:30Z</time></trkpt><trkpt lat="44.927852285056396" lon="7.1633249678630015"><ele>1210.0</ele><time>2026-04-19T11:38:32Z</time></trkpt><trkpt lat="44.92778692427664" lon="7.1632339179906275"><ele>1210.0</ele><time>2026-04-19T11:38:33Z</time></trkpt><trkpt lat="44.927834540988805" lon="7.163154166699472"><ele>1210.0</ele><time>2026-04-19T11:38:34Z</time></trkpt><trkpt lat="44.927819637409335" lon="7.163025027476753"><ele>1210.0</ele><time>2026-04-19T11:38:36Z</time></trkpt><trkpt lat="44.92777066513798" lon="7.16284703513617"><ele>1210.0</ele><time>2026-04-19T11:38:38Z</time></trkpt><trkpt lat="44.92771205288986" lon="7.1626654797113725"><ele>1210.0</ele><time>2026-04-19T11:38:39Z</time></trkpt><trkpt lat="44.927638548667176" lon="7.162519023010984"><ele>1210.0</ele><time>2026-04-19T11:38:40Z</time></trkpt><trkpt lat="44.927531444581504" lon="7.162407850924853"><ele>1210.0</ele><time>2026-04-19T11:38:41Z</time></trkpt><trkpt lat="44.92744893972453" lon="7.162303855665871"><ele>1210.0</ele><time>2026-04-19T11:38:42Z</time></trkpt><trkpt lat="44.92733789627822" lon="7.162192206002582"><ele>1214.5</ele><time>2026-04-19T11:38:43Z</time></trkpt><trkpt lat="44.92721990854598" lon="7.162097668101251"><ele>1219.0</ele><time>2026-04-19T11:38:44Z</time></trkpt><trkpt lat="44.92710279268094" lon="7.1620084860815645"><ele>1223.5</ele><time>2026-04-19T11:38:45Z</time></trkpt><trkpt lat="44.926994318611705" lon="7.161930950797162"><ele>1228.0</ele><time>2026-04-19T11:38:46Z</time></trkpt><trkpt lat="44.92690173797152" lon="7.161865090030725"><ele>1228.0</ele><time>2026-04-19T11:38:47Z</time></trkpt><trkpt lat="44.926787341476434" lon="7.161787227142406"><ele>1228.0</ele><time>2026-04-19T11:38:48Z</time></trkpt><trkpt lat="44.92667342365609" lon="7.161712419116646"><ele>1228.0</ele><time>2026-04-19T11:38:49Z</time></trkpt><trkpt lat="44.926547277787" lon="7.161660273862784"><ele>1228.0</ele><time>2026-04-19T11:38:50Z</time></trkpt><trkpt lat="44.926454702621946" lon="7.161564777186869"><ele>1228.6</ele><time>2026-04-19T11:38:51Z</time></trkpt><trkpt lat="44.92638178837738" lon="7.161442909742205"><ele>1229.1999999999998</ele><time>2026-04-19T11:38:52Z</time></trkpt><trkpt lat="44.92630396823418" lon="7.161311818731321"><ele>1229.8</ele><time>2026-04-19T11:38:53Z</time></trkpt><trkpt lat="44.92620996868247" lon="7.161220829161301"><ele>1230.3999999999999</ele><time>2026-04-19T11:38:54Z</time></trkpt><trkpt lat="44.926123369033355" lon="7.161197899358639"><ele>1231.0</ele><time>2026-04-19T11:38:55Z</time></trkpt><trkpt lat="44.926117272245214" lon="7.161311545499377"><ele>1235.5</ele><time>2026-04-19T11:38:59Z</time></trkpt><trkpt lat="44.926135082487235" lon="7.161550521870113"><ele>1240.0</ele><time>2026-04-19T11:39:01Z</time></trkpt><trkpt lat="44.92617720782677" lon="7.161661635337361"><ele>1244.5</ele><time>2026-04-19T11:39:02Z</time></trkpt><trkpt lat="44.926207712976336" lon="7.161831714004398"><ele>1249.0</ele><time>2026-04-19T11:39:03Z</time></trkpt><trkpt lat="44.926248115418716" lon="7.162024367684718"><ele>1249.0</ele><time>2026-04-19T11:39:04Z</time></trkpt><trkpt lat="44.926297908409516" lon="7.162191144271009"><ele>1249.0</ele><time>2026-04-19T11:39:05Z</time></trkpt><trkpt lat="44.92635525500623" lon="7.162341691971016"><ele>1249.0</ele><time>2026-04-19T11:39:06Z</time></trkpt><trkpt lat="44.92641703595611" lon="7.162496471004852"><ele>1249.0</ele><time>2026-04-19T11:39:07Z</time></trkpt><trkpt lat="44.92646310311585" lon="7.162671322770909"><ele>1253.25</ele><time>2026-04-19T11:39:08Z</time></trkpt><trkpt lat="44.9264976566329" lon="7.162833235369998"><ele>1257.5</ele><time>2026-04-19T11:39:09Z</time></trkpt><trkpt lat="44.92653638108287" lon="7.163015253303666"><ele>1261.75</ele><time>2026-04-19T11:39:10Z</time></trkpt><trkpt lat="44.92655755373569" lon="7.163179959775601"><ele>1266.0</ele><time>2026-04-19T11:39:11Z</time></trkpt><trkpt lat="44.92656710438121" lon="7.16337258658104"><ele>1269.25</ele><time>2026-04-19T11:39:12Z</time></trkpt><trkpt lat="44.92655170982505" lon="7.163473043715197"><ele>1272.5</ele><time>2026-04-19T11:39:12.999Z</time></trkpt><trkpt lat="44.9265431994188" lon="7.163620192430859"><ele>1275.75</ele><time>2026-04-19T11:39:13.999Z</time></trkpt><trkpt lat="44.92652978034368" lon="7.163786767527115"><ele>1279.0</ele><time>2026-04-19T11:39:14.999Z</time></trkpt><trkpt lat="44.9264731772837" lon="7.163988468165871"><ele>1281.6666666666665</ele><time>2026-04-19T11:39:15.999Z</time></trkpt><trkpt lat="44.92644733792418" lon="7.164204887104275"><ele>1284.3333333333333</ele><time>2026-04-19T11:39:16.999Z</time></trkpt><trkpt lat="44.92642705396264" lon="7.164431528988224"><ele>1287.0</ele><time>2026-04-19T11:39:17.999Z</time></trkpt><trkpt lat="44.926404095392016" lon="7.164652173085168"><ele>1287.0</ele><time>2026-04-19T11:39:18.999Z</time></trkpt><trkpt lat="44.926376420429904" lon="7.16484095953834"><ele>1287.0</ele><time>2026-04-19T11:39:19.999Z</time></trkpt><trkpt lat="44.92630538614407" lon="7.165073006252901"><ele>1287.0</ele><time>2026-04-19T11:39:20.999Z</time></trkpt><trkpt lat="44.92627389875376" lon="7.16525818578988"><ele>1287.75</ele><time>2026-04-19T11:39:21.999Z</time></trkpt><trkpt lat="44.926233218806836" lon="7.16542515665378"><ele>1288.5</ele><time>2026-04-19T11:39:22.999Z</time></trkpt><trkpt lat="44.92620959708137" lon="7.165604062752509"><ele>1289.25</ele><time>2026-04-19T11:39:23.999Z</time></trkpt><trkpt lat="44.926179506053295" lon="7.165799025246865"><ele>1290.0</ele><time>2026-04-19T11:39:24.999Z</time></trkpt><trkpt lat="44.926142819741635" lon="7.165997919524321"><ele>1290.0</ele><time>2026-04-19T11:39:25.999Z</time></trkpt><trkpt lat="44.926154880984065" lon="7.16621751947321"><ele>1290.0</ele><time>2026-04-19T11:39:26.999Z</time></trkpt><trkpt lat="44.92612053802345" lon="7.166408760636781"><ele>1290.0</ele><time>2026-04-19T11:39:27.999Z</time></trkpt><trkpt lat="44.92610044050354" lon="7.166582973928573"><ele>1290.0</ele><time>2026-04-19T11:39:28.999Z</time></trkpt><trkpt lat="44.9260712441163" lon="7.166836060033528"><ele>1290.5</ele><time>2026-04-19T11:39:29.999Z</time></trkpt><trkpt lat="44.926047641521954" lon="7.167021877753504"><ele>1291.0</ele><time>2026-04-19T11:39:30.999Z</time></trkpt><trkpt lat="44.92601139908369" lon="7.167216036751127"><ele>1291.5</ele><time>2026-04-19T11:39:31.999Z</time></trkpt><trkpt lat="44.925984395622685" lon="7.167409773833049"><ele>1292.0</ele><time>2026-04-19T11:39:32.999Z</time></trkpt><trkpt lat="44.92598436119221" lon="7.167570614465418"><ele>1294.25</ele><time>2026-04-19T11:39:33.999Z</time></trkpt><trkpt lat="44.926012402478236" lon="7.167712448440117"><ele>1296.5</ele><time>2026-04-19T11:39:34.999Z</time></trkpt><trkpt lat="44.92605107784218" lon="7.167864492467532"><ele>1298.75</ele><time>2026-04-19T11:39:35.999Z</time></trkpt><trkpt lat="44.9261084047377" lon="7.168006858533809"><ele>1301.0</ele><time>2026-04-19T11:39:36.999Z</time></trkpt><trkpt lat="44.92616591497238" lon="7.168172854485008"><ele>1304.25</ele><time>2026-04-19T11:39:37.999Z</time></trkpt><trkpt lat="44.92620772085264" lon="7.16835067405208"><ele>1307.5</ele><time>2026-04-19T11:39:38.999Z</time></trkpt><trkpt lat="44.926228350021134" lon="7.168551266000383"><ele>1310.75</ele><time>2026-04-19T11:39:39.999Z</time></trkpt><trkpt lat="44.926260446384646" lon="7.168725394395797"><ele>1314.0</ele><time>2026-04-19T11:39:40.999Z</time></trkpt><trkpt lat="44.92629531044086" lon="7.168913190712093"><ele>1317.5</ele><time>2026-04-19T11:39:41.999Z</time></trkpt><trkpt lat="44.92632751290929" lon="7.169096240495454"><ele>1321.0</ele><time>2026-04-19T11:39:42.999Z</time></trkpt><trkpt lat="44.926360312020215" lon="7.169294313750515"><ele>1324.5</ele><time>2026-04-19T11:39:43.999Z</time></trkpt><trkpt lat="44.926402217667246" lon="7.169492377615555"><ele>1328.0</ele><time>2026-04-19T11:39:44.999Z</time></trkpt><trkpt lat="44.92645992974307" lon="7.169666950057509"><ele>1328.0</ele><time>2026-04-19T11:39:45.999Z</time></trkpt><trkpt lat="44.92649973212273" lon="7.1698136129645444"><ele>1328.0</ele><time>2026-04-19T11:39:46.999Z</time></trkpt><trkpt lat="44.926580141478006" lon="7.169911704127207"><ele>1328.0</ele><time>2026-04-19T11:39:47.999Z</time></trkpt><trkpt lat="44.92662996458236" lon="7.170048128399455"><ele>1328.0</ele><time>2026-04-19T11:39:48.999Z</time></trkpt><trkpt lat="44.926718648087174" lon="7.170198723360448"><ele>1328.6666666666667</ele><time>2026-04-19T11:39:49.999Z</time></trkpt><trkpt lat="44.926821525769974" lon="7.1703542458352025"><ele>1329.3333333333333</ele><time>2026-04-19T11:39:50.999Z</time></trkpt><trkpt lat="44.926939936788884" lon="7.170507044509047"><ele>1330.0</ele><time>2026-04-19T11:39:51.999Z</time></trkpt><trkpt lat="44.92705408607079" lon="7.170668481175142"><ele>1333.75</ele><time>2026-04-19T11:39:52.999Z</time></trkpt><trkpt lat="44.92717065269268" lon="7.170809693973822"><ele>1337.5</ele><time>2026-04-19T11:39:53.999Z</time></trkpt><trkpt lat="44.927253291416896" lon="7.170940859896866"><ele>1341.25</ele><time>2026-04-19T11:39:54.999Z</time></trkpt><trkpt lat="44.92729738001049" lon="7.171073947847137"><ele>1345.0</ele><time>2026-04-19T11:39:55.999Z</time></trkpt><trkpt lat="44.9273494677143" lon="7.171209190588362"><ele>1345.0</ele><time>2026-04-19T11:39:56.999Z</time></trkpt><trkpt lat="44.927408929948804" lon="7.1713702004423965"><ele>1345.0</ele><time>2026-04-19T11:39:57.999Z</time></trkpt><trkpt lat="44.92742911677036" lon="7.1715731684431505"><ele>1345.0</ele><time>2026-04-19T11:39:59Z</time></trkpt><trkpt lat="44.92747831039495" lon="7.1717850147718165"><ele>1345.0</ele><time>2026-04-19T11:40:00Z</time></trkpt><trkpt lat="44.92752628503796" lon="7.17195649082811"><ele>1344.5</ele><time>2026-04-19T11:40:01Z</time></trkpt><trkpt lat="44.92761483010717" lon="7.172104222972702"><ele>1344.0</ele><time>2026-04-19T11:40:02Z</time></trkpt><trkpt lat="44.927711706062794" lon="7.1722723138334175"><ele>1343.5</ele><time>2026-04-19T11:40:03Z</time></trkpt><trkpt lat="44.92779154149404" lon="7.172395159252691"><ele>1343.0</ele><time>2026-04-19T11:40:04Z</time></trkpt><trkpt lat="44.92788337682533" lon="7.172533384385748"><ele>1347.0</ele><time>2026-04-19T11:40:05Z</time></trkpt><trkpt lat="44.92794157244999" lon="7.172690994399443"><ele>1351.0</ele><time>2026-04-19T11:40:06Z</time></trkpt><trkpt lat="44.927965080847706" lon="7.172848646882476"><ele>1355.0</ele><time>2026-04-19T11:40:07Z</time></trkpt><trkpt lat="44.92800997550779" lon="7.172997534249537"><ele>1359.0</ele><time>2026-04-19T11:40:08Z</time></trkpt><trkpt lat="44.928049286215405" lon="7.17312563544697"><ele>1359.4</ele><time>2026-04-19T11:40:09Z</time></trkpt><trkpt lat="44.9280979144997" lon="7.173232151181114"><ele>1359.8000000000002</ele><time>2026-04-19T11:40:10Z</time></trkpt><trkpt lat="44.92818771739301" lon="7.173296492629151"><ele>1360.1999999999998</ele><time>2026-04-19T11:40:11Z</time></trkpt><trkpt lat="44.92828401919238" lon="7.173365322807529"><ele>1360.6</ele><time>2026-04-19T11:40:12Z</time></trkpt><trkpt lat="44.92841336499815" lon="7.173441589975514"><ele>1361.0</ele><time>2026-04-19T11:40:13Z</time></trkpt><trkpt lat="44.92852899048487" lon="7.173478288236991"><ele>1361.0</ele><time>2026-04-19T11:40:14Z</time></trkpt><trkpt lat="44.92860974408277" lon="7.173551888791544"><ele>1361.0</ele><time>2026-04-19T11:40:15Z</time></trkpt><trkpt lat="44.92868142745416" lon="7.173618898845811"><ele>1361.0</ele><time>2026-04-19T11:40:16Z</time></trkpt><trkpt lat="44.928746858609756" lon="7.1737197009247575"><ele>1361.0</ele><time>2026-04-19T11:40:17Z</time></trkpt><trkpt lat="44.92882550943203" lon="7.173839033310566"><ele>1361.0</ele><time>2026-04-19T11:40:18Z</time></trkpt><trkpt lat="44.92889104744051" lon="7.173979977089857"><ele>1362.5</ele><time>2026-04-19T11:40:19Z</time></trkpt><trkpt lat="44.92897355219448" lon="7.174105751327624"><ele>1364.0</ele><time>2026-04-19T11:40:20Z</time></trkpt><trkpt lat="44.92907451612965" lon="7.174206766559744"><ele>1365.5</ele><time>2026-04-19T11:40:21Z</time></trkpt><trkpt lat="44.9291770249136" lon="7.174291537117022"><ele>1367.0</ele><time>2026-04-19T11:40:22Z</time></trkpt><trkpt lat="44.929275454942925" lon="7.174408479573102"><ele>1367.0</ele><time>2026-04-19T11:40:23Z</time></trkpt><trkpt lat="44.92937466454552" lon="7.174558962735901"><ele>1367.0</ele><time>2026-04-19T11:40:24Z</time></trkpt><trkpt lat="44.92946707746649" lon="7.174693440247943"><ele>1367.0</ele><time>2026-04-19T11:40:25Z</time></trkpt><trkpt lat="44.929554856072414" lon="7.174824582343773"><ele>1367.0</ele><time>2026-04-19T11:40:26Z</time></trkpt><trkpt lat="44.929640929376326" lon="7.174938372984446"><ele>1372.0</ele><time>2026-04-19T11:40:27Z</time></trkpt><trkpt lat="44.92972811135167" lon="7.175057715956446"><ele>1377.0</ele><time>2026-04-19T11:40:28Z</time></trkpt><trkpt lat="44.92979270174575" lon="7.175201750673729"><ele>1382.0</ele><time>2026-04-19T11:40:29Z</time></trkpt><trkpt lat="44.929870277727176" lon="7.175340442363926"><ele>1387.0</ele><time>2026-04-19T11:40:30Z</time></trkpt><trkpt lat="44.92991058097139" lon="7.175492468654934"><ele>1387.0</ele><time>2026-04-19T11:40:31Z</time></trkpt><trkpt lat="44.92994558568049" lon="7.1756556285266955"><ele>1387.0</ele><time>2026-04-19T11:40:32Z</time></trkpt><trkpt lat="44.930005905456234" lon="7.175814239804631"><ele>1387.0</ele><time>2026-04-19T11:40:33Z</time></trkpt><trkpt lat="44.93010104198749" lon="7.1759470092272855"><ele>1387.0</ele><time>2026-04-19T11:40:34Z</time></trkpt><trkpt lat="44.93018265785986" lon="7.176084461394009"><ele>1387.75</ele><time>2026-04-19T11:40:35Z</time></trkpt><trkpt lat="44.93027552677916" lon="7.176216521547202"><ele>1388.5</ele><time>2026-04-19T11:40:36Z</time></trkpt><trkpt lat="44.93038415427238" lon="7.176335075804645"><ele>1389.25</ele><time>2026-04-19T11:40:37Z</time></trkpt><trkpt lat="44.930503454322555" lon="7.176459408915307"><ele>1390.0</ele><time>2026-04-19T11:40:38Z</time></trkpt><trkpt lat="44.93061735410344" lon="7.176560401705443"><ele>1392.2</ele><time>2026-04-19T11:40:39Z</time></trkpt><trkpt lat="44.93072124076661" lon="7.176648888825105"><ele>1394.4</ele><time>2026-04-19T11:40:40Z</time></trkpt><trkpt lat="44.93081423991266" lon="7.176727168393517"><ele>1396.6</ele><time>2026-04-19T11:40:41Z</time></trkpt><trkpt lat="44.93088835811855" lon="7.176804787894255"><ele>1398.8</ele><time>2026-04-19T11:40:42Z</time></trkpt><trkpt lat="44.930921617023934" lon="7.176933187231917"><ele>1401.0</ele><time>2026-04-19T11:40:43Z</time></trkpt><trkpt lat="44.930963565802585" lon="7.1770472585848"><ele>1401.0</ele><time>2026-04-19T11:40:44Z</time></trkpt><trkpt lat="44.931007344255185" lon="7.177178204477954"><ele>1401.0</ele><time>2026-04-19T11:40:45Z</time></trkpt><trkpt lat="44.93106209725587" lon="7.177274448383579"><ele>1401.0</ele><time>2026-04-19T11:40:46Z</time></trkpt><trkpt lat="44.93115536153635" lon="7.177334927071733"><ele>1401.0</ele><time>2026-04-19T11:40:48Z</time></trkpt><trkpt lat="44.93124024351052" lon="7.177371417520447"><ele>1401.0</ele><time>2026-04-19T11:40:49Z</time></trkpt><trkpt lat="44.93132641138668" lon="7.1773894060612955"><ele>1406.0</ele><time>2026-04-19T11:40:50Z</time></trkpt><trkpt lat="44.93139545809567" lon="7.177402963316532"><ele>1411.0</ele><time>2026-04-19T11:40:52Z</time></trkpt><trkpt lat="44.93140669821041" lon="7.177723683345711"><ele>1416.0</ele><time>2026-04-19T11:40:53Z</time></trkpt><trkpt lat="44.93117889277674" lon="7.1775406919794875"><ele>1416.0</ele><time>2026-04-19T11:40:54Z</time></trkpt><trkpt lat="44.93108106301622" lon="7.177478620859651"><ele>1416.0</ele><time>2026-04-19T11:40:55Z</time></trkpt><trkpt lat="44.93096370806776" lon="7.177392617146768"><ele>1416.0</ele><time>2026-04-19T11:40:56Z</time></trkpt><trkpt lat="44.93084049611362" lon="7.17734429006621"><ele>1416.0</ele><time>2026-04-19T11:40:57Z</time></trkpt><trkpt lat="44.930741600311094" lon="7.177343554844939"><ele>1418.0</ele><time>2026-04-19T11:40:58Z</time></trkpt><trkpt lat="44.93065052190212" lon="7.177334194471728"><ele>1420.0</ele><time>2026-04-19T11:40:59Z</time></trkpt><trkpt lat="44.93053397086604" lon="7.177363712911955"><ele>1422.0</ele><time>2026-04-19T11:41:00Z</time></trkpt><trkpt lat="44.93040076524155" lon="7.177398560635868"><ele>1424.0</ele><time>2026-04-19T11:41:01Z</time></trkpt><trkpt lat="44.93025641187256" lon="7.177428746677916"><ele>1424.0</ele><time>2026-04-19T11:41:02Z</time></trkpt><trkpt lat="44.93012154472777" lon="7.177411601822189"><ele>1424.0</ele><time>2026-04-19T11:41:03Z</time></trkpt><trkpt lat="44.9299834552704" lon="7.177383111935583"><ele>1424.0</ele><time>2026-04-19T11:41:04Z</time></trkpt><trkpt lat="44.9298430301995" lon="7.17736142966241"><ele>1424.0</ele><time>2026-04-19T11:41:05Z</time></trkpt><trkpt lat="44.92971796024886" lon="7.177306275465965"><ele>1422.25</ele><time>2026-04-19T11:41:06Z</time></trkpt><trkpt lat="44.929604155898495" lon="7.177260957055039"><ele>1420.5</ele><time>2026-04-19T11:41:07Z</time></trkpt><trkpt lat="44.929477833042185" lon="7.177206184586983"><ele>1418.75</ele><time>2026-04-19T11:41:08Z</time></trkpt><trkpt lat="44.929345209049714" lon="7.177166028919227"><ele>1417.0</ele><time>2026-04-19T11:41:09Z</time></trkpt><trkpt lat="44.92924267926871" lon="7.177105439921576"><ele>1421.5</ele><time>2026-04-19T11:41:10Z</time></trkpt><trkpt lat="44.929125600864694" lon="7.177057416341877"><ele>1426.0</ele><time>2026-04-19T11:41:11Z</time></trkpt><trkpt lat="44.92900388480404" lon="7.17699938378406"><ele>1430.5</ele><time>2026-04-19T11:41:12Z</time></trkpt><trkpt lat="44.928874927961196" lon="7.1769616390600115"><ele>1435.0</ele><time>2026-04-19T11:41:13Z</time></trkpt><trkpt lat="44.92874984637081" lon="7.1769387703593726"><ele>1435.0</ele><time>2026-04-19T11:41:14Z</time></trkpt><trkpt lat="44.92862398052726" lon="7.176945791512484"><ele>1435.0</ele><time>2026-04-19T11:41:15Z</time></trkpt><trkpt lat="44.92849942601795" lon="7.1769462157802"><ele>1435.0</ele><time>2026-04-19T11:41:16Z</time></trkpt><trkpt lat="44.92839735252767" lon="7.176958106391535"><ele>1435.0</ele><time>2026-04-19T11:41:17Z</time></trkpt><trkpt lat="44.9283550639296" lon="7.177049648880307"><ele>1435.0</ele><time>2026-04-19T11:41:19Z</time></trkpt><trkpt lat="44.92844649032306" lon="7.177095397408012"><ele>1435.0</ele><time>2026-04-19T11:41:21Z</time></trkpt><trkpt lat="44.92854776803518" lon="7.177174156120823"><ele>1435.0</ele><time>2026-04-19T11:41:23Z</time></trkpt><trkpt lat="44.92862650225336" lon="7.177259778751531"><ele>1435.0</ele><time>2026-04-19T11:41:24Z</time></trkpt><trkpt lat="44.92871119211234" lon="7.177317977860046"><ele>1435.0</ele><time>2026-04-19T11:41:25Z</time></trkpt><trkpt lat="44.92878086261573" lon="7.177425139490068"><ele>1435.0</ele><time>2026-04-19T11:41:26Z</time></trkpt><trkpt lat="44.92886922406802" lon="7.177546857710207"><ele>1439.75</ele><time>2026-04-19T11:41:27Z</time></trkpt><trkpt lat="44.92896587021142" lon="7.17763908120556"><ele>1444.5</ele><time>2026-04-19T11:41:28Z</time></trkpt><trkpt lat="44.92906444933417" lon="7.177736298439874"><ele>1449.25</ele><time>2026-04-19T11:41:29Z</time></trkpt><trkpt lat="44.929133003104354" lon="7.177846239019418"><ele>1454.0</ele><time>2026-04-19T11:41:30Z</time></trkpt><trkpt lat="44.929219809250085" lon="7.177956437432216"><ele>1455.0</ele><time>2026-04-19T11:41:31Z</time></trkpt><trkpt lat="44.92929527190346" lon="7.1780936983327965"><ele>1456.0</ele><time>2026-04-19T11:41:32Z</time></trkpt><trkpt lat="44.9293639636591" lon="7.178242763154768"><ele>1457.0</ele><time>2026-04-19T11:41:33Z</time></trkpt><trkpt lat="44.92943559216977" lon="7.1783954917322825"><ele>1458.0</ele><time>2026-04-19T11:41:34Z</time></trkpt><trkpt lat="44.9295156423386" lon="7.178547524148819"><ele>1458.0</ele><time>2026-04-19T11:41:35Z</time></trkpt><trkpt lat="44.92958814373767" lon="7.178677456181215"><ele>1458.0</ele><time>2026-04-19T11:41:36Z</time></trkpt><trkpt lat="44.929642759062936" lon="7.178761869695433"><ele>1458.0</ele><time>2026-04-19T11:41:37Z</time></trkpt><trkpt lat="44.92966834641661" lon="7.178859230166294"><ele>1458.0</ele><time>2026-04-19T11:41:39Z</time></trkpt><trkpt lat="44.929588073927754" lon="7.178919628016429"><ele>1458.0</ele><time>2026-04-19T11:41:41Z</time></trkpt><trkpt lat="44.92952357635936" lon="7.178893316670665"><ele>1458.0</ele><time>2026-04-19T11:41:42Z</time></trkpt><trkpt lat="44.92943700475115" lon="7.178812980440021"><ele>1458.0</ele><time>2026-04-19T11:41:43Z</time></trkpt><trkpt lat="44.92934475380089" lon="7.178747379201659"><ele>1458.0</ele><time>2026-04-19T11:41:44Z</time></trkpt><trkpt lat="44.929237142292585" lon="7.178697213138235"><ele>1458.0</ele><time>2026-04-19T11:41:45Z</time></trkpt><trkpt lat="44.929124666705135" lon="7.178661850645617"><ele>1458.0</ele><time>2026-04-19T11:41:46Z</time></trkpt><trkpt lat="44.929015962324456" lon="7.178691985474157"><ele>1458.0</ele><time>2026-04-19T11:41:47Z</time></trkpt><trkpt lat="44.92889909642737" lon="7.1787081366135395"><ele>1461.2</ele><time>2026-04-19T11:41:48Z</time></trkpt><trkpt lat="44.92878871474329" lon="7.178702926462682"><ele>1464.4</ele><time>2026-04-19T11:41:49Z</time></trkpt><trkpt lat="44.92869561606841" lon="7.178703899961156"><ele>1467.6000000000001</ele><time>2026-04-19T11:41:50Z</time></trkpt><trkpt lat="44.928637684563085" lon="7.178664357273373"><ele>1470.8000000000002</ele><time>2026-04-19T11:41:51Z</time></trkpt><trkpt lat="44.92856200417768" lon="7.178620204678911"><ele>1474.0</ele><time>2026-04-19T11:41:52Z</time></trkpt><trkpt lat="44.92845021747621" lon="7.178556170073689"><ele>1476.75</ele><time>2026-04-19T11:41:53Z</time></trkpt><trkpt lat="44.928340235703786" lon="7.1785055484496905"><ele>1479.5</ele><time>2026-04-19T11:41:54Z</time></trkpt><trkpt lat="44.92823027325132" lon="7.178494336426749"><ele>1482.25</ele><time>2026-04-19T11:41:55Z</time></trkpt><trkpt lat="44.928112114765064" lon="7.178443626751785"><ele>1485.0</ele><time>2026-04-19T11:41:56Z</time></trkpt><trkpt lat="44.92798757878137" lon="7.178400420584835"><ele>1485.0</ele><time>2026-04-19T11:41:57Z</time></trkpt><trkpt lat="44.92785779375793" lon="7.178371005873402"><ele>1485.0</ele><time>2026-04-19T11:41:58Z</time></trkpt><trkpt lat="44.927750199989596" lon="7.17828337031724"><ele>1485.0</ele><time>2026-04-19T11:41:59Z</time></trkpt><trkpt lat="44.92763818600995" lon="7.178202382323458"><ele>1485.0</ele><time>2026-04-19T11:42:00Z</time></trkpt><trkpt lat="44.92751543235267" lon="7.178131601790657"><ele>1484.25</ele><time>2026-04-19T11:42:01Z</time></trkpt><trkpt lat="44.92739578552224" lon="7.17809474195296"><ele>1483.5</ele><time>2026-04-19T11:42:02Z</time></trkpt><trkpt lat="44.927274497914404" lon="7.178028201903736"><ele>1482.75</ele><time>2026-04-19T11:42:03Z</time></trkpt><trkpt lat="44.92715115105888" lon="7.177970184788152"><ele>1482.0</ele><time>2026-04-19T11:42:04Z</time></trkpt><trkpt lat="44.927035908245735" lon="7.177894001131314"><ele>1482.0</ele><time>2026-04-19T11:42:05Z</time></trkpt><trkpt lat="44.92692250400916" lon="7.177809833107526"><ele>1482.0</ele><time>2026-04-19T11:42:06Z</time></trkpt><trkpt lat="44.926801119668774" lon="7.177721848163916"><ele>1482.0</ele><time>2026-04-19T11:42:07Z</time></trkpt><trkpt lat="44.926686798993835" lon="7.17766116534199"><ele>1482.0</ele><time>2026-04-19T11:42:08Z</time></trkpt><trkpt lat="44.92656433548557" lon="7.177565883648434"><ele>1483.25</ele><time>2026-04-19T11:42:09Z</time></trkpt><trkpt lat="44.926454258385036" lon="7.17750587257605"><ele>1484.5</ele><time>2026-04-19T11:42:10Z</time></trkpt><trkpt lat="44.926320666010824" lon="7.177442209474854"><ele>1485.75</ele><time>2026-04-19T11:42:11Z</time></trkpt><trkpt lat="44.92620313558816" lon="7.177364499867055"><ele>1487.0</ele><time>2026-04-19T11:42:12Z</time></trkpt><trkpt lat="44.92606757028883" lon="7.177220354467824"><ele>1487.0</ele><time>2026-04-19T11:42:13Z</time></trkpt><trkpt lat="44.92594689530551" lon="7.1771086632739545"><ele>1487.0</ele><time>2026-04-19T11:42:14Z</time></trkpt><trkpt lat="44.925815272664146" lon="7.177024237215147"><ele>1487.0</ele><time>2026-04-19T11:42:15Z</time></trkpt><trkpt lat="44.92568419092484" lon="7.176956663425364"><ele>1487.0</ele><time>2026-04-19T11:42:16Z</time></trkpt><trkpt lat="44.92554700692068" lon="7.176867826856092"><ele>1487.5</ele><time>2026-04-19T11:42:17Z</time></trkpt><trkpt lat="44.92541857396194" lon="7.1767884134244415"><ele>1488.0</ele><time>2026-04-19T11:42:18Z</time></trkpt><trkpt lat="44.925292811734124" lon="7.176676986960601"><ele>1488.5</ele><time>2026-04-19T11:42:19Z</time></trkpt><trkpt lat="44.92518032538255" lon="7.176563524762609"><ele>1489.0</ele><time>2026-04-19T11:42:20Z</time></trkpt><trkpt lat="44.92506463777593" lon="7.176485330331893"><ele>1493.2</ele><time>2026-04-19T11:42:21Z</time></trkpt><trkpt lat="44.92496878444517" lon="7.176421025336839"><ele>1497.4</ele><time>2026-04-19T11:42:22Z</time></trkpt><trkpt lat="44.924852829704044" lon="7.1763819010154"><ele>1501.6</ele><time>2026-04-19T11:42:23Z</time></trkpt><trkpt lat="44.924743087194805" lon="7.176388655284348"><ele>1505.8</ele><time>2026-04-19T11:42:24Z</time></trkpt><trkpt lat="44.92465042539486" lon="7.17635954093203"><ele>1510.0</ele><time>2026-04-19T11:42:25Z</time></trkpt><trkpt lat="44.92453010531073" lon="7.176340267477288"><ele>1510.0</ele><time>2026-04-19T11:42:26Z</time></trkpt><trkpt lat="44.924416821883774" lon="7.1762711592661255"><ele>1510.0</ele><time>2026-04-19T11:42:27Z</time></trkpt><trkpt lat="44.92430607130656" lon="7.176194467156579"><ele>1510.0</ele><time>2026-04-19T11:42:28Z</time></trkpt><trkpt lat="44.92419129779836" lon="7.1761093728597745"><ele>1510.0</ele><time>2026-04-19T11:42:29Z</time></trkpt><trkpt lat="44.92406682852792" lon="7.176013729156607"><ele>1509.75</ele><time>2026-04-19T11:42:30Z</time></trkpt><trkpt lat="44.92394267113304" lon="7.1759145560291175"><ele>1509.5</ele><time>2026-04-19T11:42:31Z</time></trkpt><trkpt lat="44.92383768275548" lon="7.175799861652643"><ele>1509.25</ele><time>2026-04-19T11:42:32Z</time></trkpt><trkpt lat="44.92375312163462" lon="7.175691667991667"><ele>1509.0</ele><time>2026-04-19T11:42:33Z</time></trkpt><trkpt lat="44.92365299037028" lon="7.175594193104038"><ele>1509.0</ele><time>2026-04-19T11:42:34Z</time></trkpt><trkpt lat="44.92355426634686" lon="7.175512481524814"><ele>1509.0</ele><time>2026-04-19T11:42:35Z</time></trkpt><trkpt lat="44.92346089436508" lon="7.175410996893326"><ele>1509.0</ele><time>2026-04-19T11:42:36Z</time></trkpt><trkpt lat="44.92336680763135" lon="7.175299286931208"><ele>1509.0</ele><time>2026-04-19T11:42:37Z</time></trkpt><trkpt lat="44.92325894481658" lon="7.175171039461215"><ele>1515.8000000000002</ele><time>2026-04-19T11:42:38Z</time></trkpt><trkpt lat="44.92316799002104" lon="7.1750951054517"><ele>1522.6000000000001</ele><time>2026-04-19T11:42:39Z</time></trkpt><trkpt lat="44.92308347366053" lon="7.175030774952574"><ele>1529.4</ele><time>2026-04-19T11:42:41Z</time></trkpt><trkpt lat="44.92300954648256" lon="7.175083407808265"><ele>1536.2</ele><time>2026-04-19T11:42:43Z</time></trkpt><trkpt lat="44.92298432853931" lon="7.175233986980806"><ele>1543.0</ele><time>2026-04-19T11:42:45Z</time></trkpt><trkpt lat="44.92305046104124" lon="7.17528495483837"><ele>1543.0</ele><time>2026-04-19T11:42:46Z</time></trkpt><trkpt lat="44.9231074603782" lon="7.175362391548123"><ele>1543.0</ele><time>2026-04-19T11:42:47Z</time></trkpt><trkpt lat="44.92316923369704" lon="7.175427226130452"><ele>1543.0</ele><time>2026-04-19T11:42:48Z</time></trkpt><trkpt lat="44.92322875468991" lon="7.175527337775347"><ele>1543.0</ele><time>2026-04-19T11:42:49Z</time></trkpt><trkpt lat="44.923298924001365" lon="7.17563794648339"><ele>1543.0</ele><time>2026-04-19T11:42:50Z</time></trkpt><trkpt lat="44.92337254864121" lon="7.175728271354104"><ele>1541.0</ele><time>2026-04-19T11:42:51Z</time></trkpt><trkpt lat="44.92345034677873" lon="7.175825162597327"><ele>1539.0</ele><time>2026-04-19T11:42:52Z</time></trkpt><trkpt lat="44.923503135748355" lon="7.175933421900789"><ele>1537.0</ele><time>2026-04-19T11:42:53Z</time></trkpt><trkpt lat="44.92354479752105" lon="7.176057701027281"><ele>1535.0</ele><time>2026-04-19T11:42:54Z</time></trkpt><trkpt lat="44.92354244293002" lon="7.176203168097114"><ele>1533.0</ele><time>2026-04-19T11:42:55Z</time></trkpt><trkpt lat="44.9235629703206" lon="7.176385747449152"><ele>1538.75</ele><time>2026-04-19T11:42:56Z</time></trkpt><trkpt lat="44.92364411376281" lon="7.176545869825268"><ele>1544.5</ele><time>2026-04-19T11:42:57Z</time></trkpt><trkpt lat="44.923701979086225" lon="7.176699168042809"><ele>1550.25</ele><time>2026-04-19T11:42:58Z</time></trkpt><trkpt lat="44.92378660578668" lon="7.176831498517841"><ele>1556.0</ele><time>2026-04-19T11:42:59Z</time></trkpt><trkpt lat="44.9238794156707" lon="7.17694461329232"><ele>1555.9999999999998</ele><time>2026-04-19T11:43:00Z</time></trkpt><trkpt lat="44.92395624222412" lon="7.177043217679233"><ele>1556.0</ele><time>2026-04-19T11:43:01Z</time></trkpt><trkpt lat="44.92400914892098" lon="7.1771210084948445"><ele>1556.0</ele><time>2026-04-19T11:43:02Z</time></trkpt><trkpt lat="44.92403877589292" lon="7.177217856555249"><ele>1556.0</ele><time>2026-04-19T11:43:04Z</time></trkpt><trkpt lat="44.923947216816785" lon="7.17727068630492"><ele>1555.9999999999998</ele><time>2026-04-19T11:43:07Z</time></trkpt><trkpt lat="44.92390837081023" lon="7.17719007907824"><ele>1556.0</ele><time>2026-04-19T11:43:08Z</time></trkpt><trkpt lat="44.923823857697066" lon="7.177144775252152"><ele>1556.0</ele><time>2026-04-19T11:43:09Z</time></trkpt><trkpt lat="44.92373760463045" lon="7.177053412950187"><ele>1556.0</ele><time>2026-04-19T11:43:10Z</time></trkpt><trkpt lat="44.92364425433837" lon="7.176977605152737"><ele>1556.0</ele><time>2026-04-19T11:43:11Z</time></trkpt><trkpt lat="44.92355321815792" lon="7.1769008064061035"><ele>1556.0</ele><time>2026-04-19T11:43:12Z</time></trkpt><trkpt lat="44.923461663249554" lon="7.176823317285183"><ele>1556.0</ele><time>2026-04-19T11:43:13Z</time></trkpt><trkpt lat="44.923383133213065" lon="7.176763650146516"><ele>1560.0</ele><time>2026-04-19T11:43:14Z</time></trkpt><trkpt lat="44.923301882664425" lon="7.176710847743328"><ele>1564.0</ele><time>2026-04-19T11:43:15Z</time></trkpt><trkpt lat="44.92320962030901" lon="7.176678412191618"><ele>1568.0</ele><time>2026-04-19T11:43:16Z</time></trkpt><trkpt lat="44.92310918456031" lon="7.176624840407429"><ele>1572.0</ele><time>2026-04-19T11:43:17Z</time></trkpt><trkpt lat="44.92300673472207" lon="7.176594451098902"><ele>1576.0</ele><time>2026-04-19T11:43:18Z</time></trkpt><trkpt lat="44.92289492403656" lon="7.176565858765271"><ele>1577.25</ele><time>2026-04-19T11:43:19Z</time></trkpt><trkpt lat="44.922785698998986" lon="7.176517628113775"><ele>1578.5</ele><time>2026-04-19T11:43:20Z</time></trkpt><trkpt lat="44.92266376285833" lon="7.176501248291279"><ele>1579.75</ele><time>2026-04-19T11:43:21Z</time></trkpt><trkpt lat="44.922558627622536" lon="7.176474682386369"><ele>1581.0</ele><time>2026-04-19T11:43:22Z</time></trkpt><trkpt lat="44.922447041593934" lon="7.176450985300113"><ele>1581.0</ele><time>2026-04-19T11:43:23Z</time></trkpt><trkpt lat="44.92233960825445" lon="7.176445027009808"><ele>1581.0</ele><time>2026-04-19T11:43:24Z</time></trkpt><trkpt lat="44.922235231260665" lon="7.17644446355237"><ele>1581.0</ele><time>2026-04-19T11:43:25Z</time></trkpt><trkpt lat="44.92213470577684" lon="7.176433354812945"><ele>1581.0</ele><time>2026-04-19T11:43:26Z</time></trkpt><trkpt lat="44.92205820409316" lon="7.176403177917262"><ele>1581.0</ele><time>2026-04-19T11:43:27Z</time></trkpt><trkpt lat="44.921963423289924" lon="7.176380810521924"><ele>1581.0</ele><time>2026-04-19T11:43:29Z</time></trkpt><trkpt lat="44.92189169840791" lon="7.1763462011491255"><ele>1581.0</ele><time>2026-04-19T11:44:10Z</time></trkpt><trkpt lat="44.92190800997249" lon="7.176433942386058"><ele>1581.0</ele><time>2026-04-19T11:45:04Z</time></trkpt><trkpt lat="44.92183651656867" lon="7.176394591730873"><ele>1581.0</ele><time>2026-04-19T11:45:10Z</time></trkpt><trkpt lat="44.921708913627256" lon="7.176310158130209"><ele>1581.0</ele><time>2026-04-19T11:45:12Z</time></trkpt><trkpt lat="44.921625986049904" lon="7.176242723196906"><ele>1583.6</ele><time>2026-04-19T11:45:13Z</time></trkpt><trkpt lat="44.921546331052" lon="7.1760849015896895"><ele>1586.1999999999998</ele><time>2026-04-19T11:45:14Z</time></trkpt><trkpt lat="44.92145452016411" lon="7.175999714057518"><ele>1588.8000000000002</ele><time>2026-04-19T11:45:15Z</time></trkpt><trkpt lat="44.92136666183647" lon="7.1759194571092895"><ele>1591.4</ele><time>2026-04-19T11:45:16Z</time></trkpt><trkpt lat="44.92129065038305" lon="7.1758500220257915"><ele>1594.0</ele><time>2026-04-19T11:45:17Z</time></trkpt><trkpt lat="44.92120831747325" lon="7.175774887988129"><ele>1594.0</ele><time>2026-04-19T11:45:18Z</time></trkpt><trkpt lat="44.92112183177292" lon="7.1756970110020974"><ele>1594.0</ele><time>2026-04-19T11:45:19Z</time></trkpt><trkpt lat="44.92105256035015" lon="7.175604538315138"><ele>1594.0</ele><time>2026-04-19T11:45:20Z</time></trkpt><trkpt lat="44.92097945517842" lon="7.175508785326717"><ele>1594.0</ele><time>2026-04-19T11:45:21Z</time></trkpt><trkpt lat="44.92091623976028" lon="7.17543154000888"><ele>1594.0</ele><time>2026-04-19T11:45:22Z</time></trkpt><trkpt lat="44.92082554675448" lon="7.175403280239757"><ele>1594.1666666666667</ele><time>2026-04-19T11:45:23Z</time></trkpt><trkpt lat="44.92077619308919" lon="7.175317606699452"><ele>1594.3333333333335</ele><time>2026-04-19T11:45:24Z</time></trkpt><trkpt lat="44.92073064624846" lon="7.1752532495220365"><ele>1594.5</ele><time>2026-04-19T11:45:25Z</time></trkpt><trkpt lat="44.92064273837642" lon="7.175200889216785"><ele>1594.6666666666665</ele><time>2026-04-19T11:45:27Z</time></trkpt><trkpt lat="44.920583327370245" lon="7.175236871597133"><ele>1594.8333333333333</ele><time>2026-04-19T11:45:29Z</time></trkpt><trkpt lat="44.92060107754265" lon="7.175414393100828"><ele>1595.0</ele><time>2026-04-19T11:45:30Z</time></trkpt><trkpt lat="44.92068706375508" lon="7.175506850135012"><ele>1595.0</ele><time>2026-04-19T11:45:31Z</time></trkpt><trkpt lat="44.92076432228439" lon="7.175637359895497"><ele>1595.0</ele><time>2026-04-19T11:45:32Z</time></trkpt><trkpt lat="44.92084195693169" lon="7.175791620780137"><ele>1595.0</ele><time>2026-04-19T11:45:33Z</time></trkpt><trkpt lat="44.92091449956853" lon="7.175963008591865"><ele>1595.0</ele><time>2026-04-19T11:45:34Z</time></trkpt><trkpt lat="44.92100424476788" lon="7.176147976440006"><ele>1594.6666666666665</ele><time>2026-04-19T11:45:35Z</time></trkpt><trkpt lat="44.92109393780373" lon="7.1763320320997925"><ele>1594.3333333333335</ele><time>2026-04-19T11:45:36Z</time></trkpt><trkpt lat="44.92117867194357" lon="7.176528187575115"><ele>1594.0</ele><time>2026-04-19T11:45:37Z</time></trkpt><trkpt lat="44.921255491295504" lon="7.176719218844099"><ele>1591.0</ele><time>2026-04-19T11:45:38Z</time></trkpt><trkpt lat="44.92132768915426" lon="7.1768697011561295"><ele>1588.0</ele><time>2026-04-19T11:45:39Z</time></trkpt><trkpt lat="44.92139217297146" lon="7.1769984016591755"><ele>1585.0</ele><time>2026-04-19T11:45:40Z</time></trkpt><trkpt lat="44.92143994691675" lon="7.1771579533013945"><ele>1582.0</ele><time>2026-04-19T11:45:41Z</time></trkpt><trkpt lat="44.921477300585174" lon="7.177336570490372"><ele>1578.0</ele><time>2026-04-19T11:45:42Z</time></trkpt><trkpt lat="44.92150640295615" lon="7.177536792499882"><ele>1574.0</ele><time>2026-04-19T11:45:43Z</time></trkpt><trkpt lat="44.921526298914564" lon="7.177745141110918"><ele>1570.0</ele><time>2026-04-19T11:45:44Z</time></trkpt><trkpt lat="44.92154674642562" lon="7.177934146085215"><ele>1566.0</ele><time>2026-04-19T11:45:45Z</time></trkpt><trkpt lat="44.92159183752395" lon="7.178099436671476"><ele>1563.8</ele><time>2026-04-19T11:45:46Z</time></trkpt><trkpt lat="44.92165124128693" lon="7.178228151543535"><ele>1561.6</ele><time>2026-04-19T11:45:47Z</time></trkpt><trkpt lat="44.92170353102268" lon="7.178365009892115"><ele>1559.4</ele><time>2026-04-19T11:45:48Z</time></trkpt><trkpt lat="44.92170451090706" lon="7.1785107064372236"><ele>1557.2</ele><time>2026-04-19T11:45:49Z</time></trkpt><trkpt lat="44.92172665174774" lon="7.178669673461557"><ele>1555.0</ele><time>2026-04-19T11:45:50Z</time></trkpt><trkpt lat="44.92174300394356" lon="7.178844777679001"><ele>1558.25</ele><time>2026-04-19T11:45:51Z</time></trkpt><trkpt lat="44.92179397925415" lon="7.179019745178145"><ele>1561.5</ele><time>2026-04-19T11:45:52Z</time></trkpt><trkpt lat="44.921860279612574" lon="7.1792151383710054"><ele>1564.75</ele><time>2026-04-19T11:45:53Z</time></trkpt><trkpt lat="44.9219079193634" lon="7.179412964144628"><ele>1568.0</ele><time>2026-04-19T11:45:54Z</time></trkpt><trkpt lat="44.9219360441613" lon="7.1796084851823"><ele>1568.0</ele><time>2026-04-19T11:45:55Z</time></trkpt><trkpt lat="44.92195089355876" lon="7.179794468202146"><ele>1568.0</ele><time>2026-04-19T11:45:56Z</time></trkpt><trkpt lat="44.92194179753446" lon="7.179952249029068"><ele>1568.0</ele><time>2026-04-19T11:45:57Z</time></trkpt><trkpt lat="44.9219073168207" lon="7.180118555434222"><ele>1568.0</ele><time>2026-04-19T11:45:58Z</time></trkpt><trkpt lat="44.92185672969544" lon="7.180283325960275"><ele>1565.5</ele><time>2026-04-19T11:45:59Z</time></trkpt><trkpt lat="44.921808841225634" lon="7.18043947533085"><ele>1563.0</ele><time>2026-04-19T11:46:00Z</time></trkpt><trkpt lat="44.92178353457351" lon="7.180591128323832"><ele>1560.5</ele><time>2026-04-19T11:46:01Z</time></trkpt><trkpt lat="44.9217780007654" lon="7.180798807546469"><ele>1558.0</ele><time>2026-04-19T11:46:02Z</time></trkpt><trkpt lat="44.92176137725396" lon="7.181031944160845"><ele>1555.25</ele><time>2026-04-19T11:46:03Z</time></trkpt><trkpt lat="44.921730758682095" lon="7.181237167205975"><ele>1552.5</ele><time>2026-04-19T11:46:04Z</time></trkpt><trkpt lat="44.921724932787335" lon="7.1814414415307954"><ele>1549.75</ele><time>2026-04-19T11:46:05Z</time></trkpt><trkpt lat="44.92172769487585" lon="7.1816559687515475"><ele>1547.0</ele><time>2026-04-19T11:46:06Z</time></trkpt><trkpt lat="44.92173945269317" lon="7.181824173318514"><ele>1547.0</ele><time>2026-04-19T11:46:07Z</time></trkpt><trkpt lat="44.92175864712045" lon="7.181962061358627"><ele>1547.0</ele><time>2026-04-19T11:46:07.999Z</time></trkpt><trkpt lat="44.921777320445706" lon="7.182097965664887"><ele>1547.0</ele><time>2026-04-19T11:46:08.999Z</time></trkpt><trkpt lat="44.92180450686521" lon="7.18223537964864"><ele>1547.0</ele><time>2026-04-19T11:46:09.999Z</time></trkpt><trkpt lat="44.92185578172633" lon="7.1823934447319155"><ele>1547.0</ele><time>2026-04-19T11:46:10.999Z</time></trkpt><trkpt lat="44.921908465548235" lon="7.182547984630813"><ele>1545.3999999999999</ele><time>2026-04-19T11:46:11.999Z</time></trkpt><trkpt lat="44.92195363820392" lon="7.182684170385911"><ele>1543.8</ele><time>2026-04-19T11:46:12.999Z</time></trkpt><trkpt lat="44.92198814087147" lon="7.182808031499464"><ele>1542.2</ele><time>2026-04-19T11:46:13.999Z</time></trkpt><trkpt lat="44.922011646232484" lon="7.182941488711981"><ele>1540.6</ele><time>2026-04-19T11:46:14.999Z</time></trkpt><trkpt lat="44.92202945048302" lon="7.183067266271577"><ele>1539.0</ele><time>2026-04-19T11:46:15.999Z</time></trkpt><trkpt lat="44.92203884793473" lon="7.183186984643595"><ele>1537.2</ele><time>2026-04-19T11:46:16.999Z</time></trkpt><trkpt lat="44.92203620784208" lon="7.1833085439169055"><ele>1535.4</ele><time>2026-04-19T11:46:17.999Z</time></trkpt><trkpt lat="44.92204047408331" lon="7.183408757169154"><ele>1533.6</ele><time>2026-04-19T11:46:18.999Z</time></trkpt><trkpt lat="44.922060281892854" lon="7.18355470217282"><ele>1531.8</ele><time>2026-04-19T11:46:19.999Z</time></trkpt><trkpt lat="44.922097031387906" lon="7.183702365655067"><ele>1530.0</ele><time>2026-04-19T11:46:20.999Z</time></trkpt><trkpt lat="44.92215310796396" lon="7.183855504540217"><ele>1530.0</ele><time>2026-04-19T11:46:21.999Z</time></trkpt><trkpt lat="44.92222814458187" lon="7.184007990112044"><ele>1530.0</ele><time>2026-04-19T11:46:22.999Z</time></trkpt><trkpt lat="44.92231120614334" lon="7.184158753375275"><ele>1530.0</ele><time>2026-04-19T11:46:23.999Z</time></trkpt><trkpt lat="44.922390501841676" lon="7.184303588475887"><ele>1530.0</ele><time>2026-04-19T11:46:24.999Z</time></trkpt><trkpt lat="44.92245147473935" lon="7.184411479102048"><ele>1530.5</ele><time>2026-04-19T11:46:25.999Z</time></trkpt><trkpt lat="44.922546249544375" lon="7.184474842095585"><ele>1531.0</ele><time>2026-04-19T11:46:26.999Z</time></trkpt><trkpt lat="44.92263276687961" lon="7.184600757824042"><ele>1531.5</ele><time>2026-04-19T11:46:27.999Z</time></trkpt><trkpt lat="44.92270613346315" lon="7.184734417239762"><ele>1532.0</ele><time>2026-04-19T11:46:28.999Z</time></trkpt><trkpt lat="44.922750569234964" lon="7.184898072970962"><ele>1532.0</ele><time>2026-04-19T11:46:29.999Z</time></trkpt><trkpt lat="44.92277460042216" lon="7.185071380876295"><ele>1532.0</ele><time>2026-04-19T11:46:30.999Z</time></trkpt><trkpt lat="44.92278030128074" lon="7.185243060520215"><ele>1532.0</ele><time>2026-04-19T11:46:31.999Z</time></trkpt><trkpt lat="44.92276955990009" lon="7.185418140024907"><ele>1532.0</ele><time>2026-04-19T11:46:32.999Z</time></trkpt><trkpt lat="44.922747035818944" lon="7.185612068716803"><ele>1531.6</ele><time>2026-04-19T11:46:33.999Z</time></trkpt><trkpt lat="44.922718072552286" lon="7.18580224564899"><ele>1531.1999999999998</ele><time>2026-04-19T11:46:34.999Z</time></trkpt><trkpt lat="44.922685236671335" lon="7.185957310382223"><ele>1530.8</ele><time>2026-04-19T11:46:35.999Z</time></trkpt><trkpt lat="44.92265371391402" lon="7.186083543088355"><ele>1530.4</ele><time>2026-04-19T11:46:37Z</time></trkpt><trkpt lat="44.922611066248265" lon="7.1861678518642265"><ele>1530.0</ele><time>2026-04-19T11:46:38Z</time></trkpt><trkpt lat="44.92257420873752" lon="7.186278427235182"><ele>1525.5</ele><time>2026-04-19T11:46:39Z</time></trkpt><trkpt lat="44.92253887000348" lon="7.186384995913472"><ele>1521.0</ele><time>2026-04-19T11:46:40Z</time></trkpt><trkpt lat="44.92250857757791" lon="7.186475056834224"><ele>1516.5</ele><time>2026-04-19T11:46:41Z</time></trkpt><trkpt lat="44.92248408460947" lon="7.186578024281149"><ele>1512.0</ele><time>2026-04-19T11:46:42Z</time></trkpt><trkpt lat="44.92246593844123" lon="7.186674671977858"><ele>1507.5</ele><time>2026-04-19T11:46:43Z</time></trkpt><trkpt lat="44.922444529480366" lon="7.186758701604755"><ele>1503.0</ele><time>2026-04-19T11:46:44Z</time></trkpt><trkpt lat="44.922404961213964" lon="7.186870239046609"><ele>1503.0</ele><time>2026-04-19T11:46:45Z</time></trkpt><trkpt lat="44.92238123008227" lon="7.187003849558523"><ele>1503.0</ele><time>2026-04-19T11:46:46Z</time></trkpt><trkpt lat="44.92233448153049" lon="7.187120164535873"><ele>1503.0</ele><time>2026-04-19T11:46:47Z</time></trkpt><trkpt lat="44.922248009241486" lon="7.187228955613897"><ele>1503.0</ele><time>2026-04-19T11:46:48Z</time></trkpt><trkpt lat="44.92215695364051" lon="7.187313005741642"><ele>1503.0</ele><time>2026-04-19T11:46:49Z</time></trkpt><trkpt lat="44.92208377876133" lon="7.187390885278974"><ele>1502.8000000000002</ele><time>2026-04-19T11:46:50Z</time></trkpt><trkpt lat="44.92201431385683" lon="7.18749001672478"><ele>1502.6</ele><time>2026-04-19T11:46:51Z</time></trkpt><trkpt lat="44.922003088581874" lon="7.187618194718918"><ele>1502.4</ele><time>2026-04-19T11:46:52Z</time></trkpt><trkpt lat="44.921990945943165" lon="7.187731777053226"><ele>1502.1999999999998</ele><time>2026-04-19T11:46:53Z</time></trkpt><trkpt lat="44.92195835948009" lon="7.1878600059123965"><ele>1502.0</ele><time>2026-04-19T11:46:54Z</time></trkpt><trkpt lat="44.92197748737468" lon="7.187980899848358"><ele>1502.0</ele><time>2026-04-19T11:46:55Z</time></trkpt><trkpt lat="44.92203354073034" lon="7.188087809477486"><ele>1502.0</ele><time>2026-04-19T11:46:56Z</time></trkpt><trkpt lat="44.92208638257662" lon="7.188177720730954"><ele>1502.0</ele><time>2026-04-19T11:46:57Z</time></trkpt><trkpt lat="44.922169966893584" lon="7.188300930390249"><ele>1502.0</ele><time>2026-04-19T11:46:58Z</time></trkpt><trkpt lat="44.9222317983469" lon="7.18837237540518"><ele>1502.0</ele><time>2026-04-19T11:46:59Z</time></trkpt><trkpt lat="44.922271377264735" lon="7.188467689491609"><ele>1498.75</ele><time>2026-04-19T11:47:00Z</time></trkpt><trkpt lat="44.92218715679484" lon="7.188653794848981"><ele>1495.5</ele><time>2026-04-19T11:47:02Z</time></trkpt><trkpt lat="44.92212774167735" lon="7.188739670028393"><ele>1492.25</ele><time>2026-04-19T11:47:03Z</time></trkpt><trkpt lat="44.92207132713049" lon="7.188902486096221"><ele>1489.0</ele><time>2026-04-19T11:47:04Z</time></trkpt><trkpt lat="44.922034620272825" lon="7.189030576093806"><ele>1488.2</ele><time>2026-04-19T11:47:05Z</time></trkpt><trkpt lat="44.92199815678835" lon="7.18918183598397"><ele>1487.4</ele><time>2026-04-19T11:47:06Z</time></trkpt><trkpt lat="44.92199058525718" lon="7.189293112009871"><ele>1486.6</ele><time>2026-04-19T11:47:07Z</time></trkpt><trkpt lat="44.922034918591145" lon="7.189382098573984"><ele>1485.8</ele><time>2026-04-19T11:47:08Z</time></trkpt><trkpt lat="44.92210366773387" lon="7.18947807898793"><ele>1485.0</ele><time>2026-04-19T11:47:09Z</time></trkpt><trkpt lat="44.92218104421368" lon="7.189582100696376"><ele>1485.0</ele><time>2026-04-19T11:47:10Z</time></trkpt><trkpt lat="44.92221852523598" lon="7.189709940309218"><ele>1485.0</ele><time>2026-04-19T11:47:11Z</time></trkpt><trkpt lat="44.92219740993099" lon="7.18983271939906"><ele>1485.0</ele><time>2026-04-19T11:47:12Z</time></trkpt><trkpt lat="44.92217040437402" lon="7.189955906848471"><ele>1485.0</ele><time>2026-04-19T11:47:13Z</time></trkpt><trkpt lat="44.92215339643459" lon="7.1900835982866"><ele>1485.0</ele><time>2026-04-19T11:47:14Z</time></trkpt><trkpt lat="44.92210511795458" lon="7.190196495474302"><ele>1484.4</ele><time>2026-04-19T11:47:15Z</time></trkpt><trkpt lat="44.92205557205141" lon="7.19028172869492"><ele>1483.8</ele><time>2026-04-19T11:47:16Z</time></trkpt><trkpt lat="44.92197531371118" lon="7.190306825967465"><ele>1483.1999999999998</ele><time>2026-04-19T11:47:18Z</time></trkpt><trkpt lat="44.921980483069504" lon="7.1901364943719805"><ele>1482.6</ele><time>2026-04-19T11:47:19Z</time></trkpt><trkpt lat="44.92190362849316" lon="7.190056737559613"><ele>1482.0</ele><time>2026-04-19T11:47:20Z</time></trkpt><trkpt lat="44.92180569110608" lon="7.189961759033589"><ele>1478.6</ele><time>2026-04-19T11:47:21Z</time></trkpt><trkpt lat="44.921702156728834" lon="7.189874547990992"><ele>1475.1999999999998</ele><time>2026-04-19T11:47:22Z</time></trkpt><trkpt lat="44.92158099976863" lon="7.189862851939618"><ele>1471.8</ele><time>2026-04-19T11:47:23Z</time></trkpt><trkpt lat="44.92149266335967" lon="7.189789813181242"><ele>1468.4</ele><time>2026-04-19T11:47:24Z</time></trkpt><trkpt lat="44.921430325251556" lon="7.189730648600103"><ele>1465.0</ele><time>2026-04-19T11:47:25Z</time></trkpt><trkpt lat="44.921382037802275" lon="7.189667794707242"><ele>1465.0</ele><time>2026-04-19T11:47:26Z</time></trkpt><trkpt lat="44.921350452846056" lon="7.189576187812773"><ele>1465.0</ele><time>2026-04-19T11:47:27Z</time></trkpt><trkpt lat="44.921323522319156" lon="7.189435832347726"><ele>1465.0</ele><time>2026-04-19T11:47:28Z</time></trkpt><trkpt lat="44.92127399774421" lon="7.18927911410317"><ele>1465.0</ele><time>2026-04-19T11:47:29Z</time></trkpt><trkpt lat="44.92115929878372" lon="7.1891994494590845"><ele>1465.0</ele><time>2026-04-19T11:47:30Z</time></trkpt><trkpt lat="44.921088690201714" lon="7.189067060089684"><ele>1465.75</ele><time>2026-04-19T11:47:31Z</time></trkpt><trkpt lat="44.921019344010084" lon="7.1889117734196395"><ele>1466.5</ele><time>2026-04-19T11:47:32Z</time></trkpt><trkpt lat="44.920931318282214" lon="7.188765286006588"><ele>1467.25</ele><time>2026-04-19T11:47:33Z</time></trkpt><trkpt lat="44.92084078081939" lon="7.188643863069621"><ele>1468.0</ele><time>2026-04-19T11:47:34Z</time></trkpt><trkpt lat="44.92072944660784" lon="7.1885734361549165"><ele>1464.2</ele><time>2026-04-19T11:47:35Z</time></trkpt><trkpt lat="44.92064862774864" lon="7.188479105286398"><ele>1460.4</ele><time>2026-04-19T11:47:36Z</time></trkpt><trkpt lat="44.920570013942466" lon="7.188402445989693"><ele>1456.6000000000001</ele><time>2026-04-19T11:47:37Z</time></trkpt><trkpt lat="44.92049123662306" lon="7.1883103125387775"><ele>1452.8000000000002</ele><time>2026-04-19T11:47:38Z</time></trkpt><trkpt lat="44.92042072986754" lon="7.188205134272503"><ele>1449.0</ele><time>2026-04-19T11:47:39Z</time></trkpt><trkpt lat="44.920377699560994" lon="7.188082055691742"><ele>1449.0</ele><time>2026-04-19T11:47:40Z</time></trkpt><trkpt lat="44.92037508151677" lon="7.187976241009178"><ele>1449.0</ele><time>2026-04-19T11:47:41Z</time></trkpt><trkpt lat="44.92036856284108" lon="7.187884680038236"><ele>1449.0</ele><time>2026-04-19T11:47:42Z</time></trkpt><trkpt lat="44.920358257524775" lon="7.18779398185036"><ele>1449.0</ele><time>2026-04-19T11:47:43Z</time></trkpt><trkpt lat="44.920340118136444" lon="7.187640808490833"><ele>1449.0</ele><time>2026-04-19T11:47:45Z</time></trkpt><trkpt lat="44.920303700113315" lon="7.187553531936049"><ele>1449.0</ele><time>2026-04-19T11:47:47Z</time></trkpt><trkpt lat="44.9202127266084" lon="7.18759200135469"><ele>1449.0</ele><time>2026-04-19T11:47:49Z</time></trkpt><trkpt lat="44.92023182047429" lon="7.187715588991269"><ele>1449.0</ele><time>2026-04-19T11:47:53Z</time></trkpt><trkpt lat="44.92020598997388" lon="7.187822064300359"><ele>1449.0</ele><time>2026-04-19T11:47:56Z</time></trkpt><trkpt lat="44.9201735123131" lon="7.187919720737868"><ele>1449.0</ele><time>2026-04-19T11:47:57Z</time></trkpt><trkpt lat="44.920148797035765" lon="7.188021875941576"><ele>1449.0</ele><time>2026-04-19T11:47:58Z</time></trkpt><trkpt lat="44.92012836277633" lon="7.188127759042338"><ele>1449.0</ele><time>2026-04-19T11:47:59Z</time></trkpt><trkpt lat="44.92046324840377" lon="7.188350899308861"><ele>1448.6</ele><time>2026-04-19T11:48:00Z</time></trkpt><trkpt lat="44.92053347061986" lon="7.188472360142736"><ele>1448.2</ele><time>2026-04-19T11:48:01Z</time></trkpt><trkpt lat="44.92062632186866" lon="7.188565933962934"><ele>1447.8</ele><time>2026-04-19T11:48:02Z</time></trkpt><trkpt lat="44.920729003343574" lon="7.188631743414588"><ele>1447.3999999999999</ele><time>2026-04-19T11:48:03Z</time></trkpt><trkpt lat="44.92083053874704" lon="7.1886971232125685"><ele>1447.0</ele><time>2026-04-19T11:48:04Z</time></trkpt><trkpt lat="44.92092576571803" lon="7.188810986978695"><ele>1450.6</ele><time>2026-04-19T11:48:05Z</time></trkpt><trkpt lat="44.9209759162671" lon="7.1889369865769375"><ele>1454.1999999999998</ele><time>2026-04-19T11:48:06Z</time></trkpt><trkpt lat="44.92102006779714" lon="7.189061607190698"><ele>1457.8</ele><time>2026-04-19T11:48:07Z</time></trkpt><trkpt lat="44.92108494027583" lon="7.189184313088211"><ele>1461.4</ele><time>2026-04-19T11:48:08Z</time></trkpt><trkpt lat="44.92116836253465" lon="7.189270042910574"><ele>1465.0</ele><time>2026-04-19T11:48:09Z</time></trkpt><trkpt lat="44.92123489755835" lon="7.189342311295282"><ele>1465.0</ele><time>2026-04-19T11:48:10Z</time></trkpt><trkpt lat="44.92129454701391" lon="7.189465369926824"><ele>1465.0</ele><time>2026-04-19T11:48:11Z</time></trkpt><trkpt lat="44.92132995454897" lon="7.1896221884557745"><ele>1465.0</ele><time>2026-04-19T11:48:12Z</time></trkpt><trkpt lat="44.92136066484034" lon="7.189756251974636"><ele>1465.0</ele><time>2026-04-19T11:48:13Z</time></trkpt><trkpt lat="44.92140729416304" lon="7.189838438135776"><ele>1465.0</ele><time>2026-04-19T11:48:14Z</time></trkpt><trkpt lat="44.921471566729274" lon="7.189899506907212"><ele>1463.6</ele><time>2026-04-19T11:48:15Z</time></trkpt><trkpt lat="44.921558540098935" lon="7.189915155054921"><ele>1462.2</ele><time>2026-04-19T11:48:16Z</time></trkpt><trkpt lat="44.921655510429254" lon="7.189951558680819"><ele>1460.8000000000002</ele><time>2026-04-19T11:48:17Z</time></trkpt><trkpt lat="44.92176193136564" lon="7.190021407210309"><ele>1459.4</ele><time>2026-04-19T11:48:18Z</time></trkpt><trkpt lat="44.921856364739384" lon="7.190095003909412"><ele>1458.0</ele><time>2026-04-19T11:48:19Z</time></trkpt><trkpt lat="44.92192593058723" lon="7.190167197394388"><ele>1462.8000000000002</ele><time>2026-04-19T11:48:20Z</time></trkpt><trkpt lat="44.92198827300923" lon="7.190244692568565"><ele>1467.6</ele><time>2026-04-19T11:48:21Z</time></trkpt><trkpt lat="44.92207063167321" lon="7.19030363265442"><ele>1472.4</ele><time>2026-04-19T11:48:23Z</time></trkpt><trkpt lat="44.92216720276236" lon="7.1902258974224935"><ele>1477.1999999999998</ele><time>2026-04-19T11:48:25Z</time></trkpt><trkpt lat="44.922172099666966" lon="7.190123065971599"><ele>1482.0</ele><time>2026-04-19T11:48:27Z</time></trkpt><trkpt lat="44.922378712663594" lon="7.190230985484326"><ele>1482.0</ele><time>2026-04-19T11:48:42Z</time></trkpt><trkpt lat="44.922417265779565" lon="7.190352428559382"><ele>1482.0</ele><time>2026-04-19T11:48:44Z</time></trkpt><trkpt lat="44.922373876234374" lon="7.190532132154212"><ele>1482.0</ele><time>2026-04-19T11:48:46Z</time></trkpt><trkpt lat="44.9223617481676" lon="7.190625277653457"><ele>1482.0</ele><time>2026-04-19T11:48:47Z</time></trkpt><trkpt lat="44.92237853730701" lon="7.190714415445283"><ele>1482.0</ele><time>2026-04-19T11:48:48Z</time></trkpt><trkpt lat="44.922423417351304" lon="7.1907817040714805"><ele>1482.0</ele><time>2026-04-19T11:48:49Z</time></trkpt><trkpt lat="44.92248091874102" lon="7.190843776825914"><ele>1481.0</ele><time>2026-04-19T11:48:50Z</time></trkpt><trkpt lat="44.92255135415331" lon="7.190899698067931"><ele>1480.0</ele><time>2026-04-19T11:48:51Z</time></trkpt><trkpt lat="44.922618923157245" lon="7.190936827723111"><ele>1479.0</ele><time>2026-04-19T11:48:52Z</time></trkpt><trkpt lat="44.922692221939506" lon="7.191010652485564"><ele>1478.0</ele><time>2026-04-19T11:48:53Z</time></trkpt><trkpt lat="44.92276511156186" lon="7.191095192039042"><ele>1477.0</ele><time>2026-04-19T11:48:54Z</time></trkpt><trkpt lat="44.92283360892271" lon="7.191185402791762"><ele>1476.0</ele><time>2026-04-19T11:48:55Z</time></trkpt><trkpt lat="44.92289844380378" lon="7.19128854720067"><ele>1479.4</ele><time>2026-04-19T11:48:56Z</time></trkpt><trkpt lat="44.922965165198804" lon="7.191382194839567"><ele>1482.8</ele><time>2026-04-19T11:48:57Z</time></trkpt><trkpt lat="44.92302362847119" lon="7.191470678209757"><ele>1486.2</ele><time>2026-04-19T11:48:58Z</time></trkpt><trkpt lat="44.923091920219626" lon="7.191561813344116"><ele>1489.6000000000001</ele><time>2026-04-19T11:48:59Z</time></trkpt><trkpt lat="44.92316914200554" lon="7.191651933026459"><ele>1493.0</ele><time>2026-04-19T11:49:00Z</time></trkpt><trkpt lat="44.923248952195394" lon="7.191724548293152"><ele>1493.0</ele><time>2026-04-19T11:49:01Z</time></trkpt><trkpt lat="44.9233188064532" lon="7.1917938543902835"><ele>1493.0</ele><time>2026-04-19T11:49:02Z</time></trkpt><trkpt lat="44.92336895632694" lon="7.1918666709217005"><ele>1493.0</ele><time>2026-04-19T11:49:03Z</time></trkpt><trkpt lat="44.92343326183737" lon="7.19192875417573"><ele>1493.0</ele><time>2026-04-19T11:49:04Z</time></trkpt><trkpt lat="44.9235020096811" lon="7.192039762446885"><ele>1493.0</ele><time>2026-04-19T11:49:06Z</time></trkpt><trkpt lat="44.92351692542615" lon="7.192157473975743"><ele>1493.0</ele><time>2026-04-19T11:49:08Z</time></trkpt><trkpt lat="44.92349559648887" lon="7.192325382467671"><ele>1491.2</ele><time>2026-04-19T11:49:10Z</time></trkpt><trkpt lat="44.92344881297492" lon="7.192441995221287"><ele>1489.4</ele><time>2026-04-19T11:49:11Z</time></trkpt><trkpt lat="44.923392265453494" lon="7.192574375745763"><ele>1487.6000000000001</ele><time>2026-04-19T11:49:12Z</time></trkpt><trkpt lat="44.92333835888358" lon="7.192710770630806"><ele>1485.8000000000002</ele><time>2026-04-19T11:49:13Z</time></trkpt><trkpt lat="44.92331008284362" lon="7.192794253449102"><ele>1484.0</ele><time>2026-04-19T11:49:14Z</time></trkpt><trkpt lat="44.92329513703214" lon="7.19290686130426"><ele>1484.0</ele><time>2026-04-19T11:49:15Z</time></trkpt><trkpt lat="44.92328485260519" lon="7.1930493691595485"><ele>1484.0</ele><time>2026-04-19T11:49:16Z</time></trkpt><trkpt lat="44.92327432854241" lon="7.19318908645251"><ele>1484.0</ele><time>2026-04-19T11:49:17Z</time></trkpt><trkpt lat="44.923278395693245" lon="7.1933137104648415"><ele>1484.0</ele><time>2026-04-19T11:49:18Z</time></trkpt><trkpt lat="44.9232974317453" lon="7.193439054475732"><ele>1484.0</ele><time>2026-04-19T11:49:19Z</time></trkpt><trkpt lat="44.92332617499153" lon="7.193559410557131"><ele>1484.2857142857142</ele><time>2026-04-19T11:49:20Z</time></trkpt><trkpt lat="44.9233511774912" lon="7.1936532077863236"><ele>1484.5714285714284</ele><time>2026-04-19T11:49:21Z</time></trkpt><trkpt lat="44.92337027246745" lon="7.193751286838828"><ele>1484.857142857143</ele><time>2026-04-19T11:49:22Z</time></trkpt><trkpt lat="44.923362513462756" lon="7.193840639736647"><ele>1485.142857142857</ele><time>2026-04-19T11:49:23Z</time></trkpt><trkpt lat="44.923327891770356" lon="7.1939222383907335"><ele>1485.4285714285713</ele><time>2026-04-19T11:49:24Z</time></trkpt><trkpt lat="44.92328268824264" lon="7.1939880676345735"><ele>1485.7142857142858</ele><time>2026-04-19T11:49:25Z</time></trkpt><trkpt lat="44.92320882970769" lon="7.1940347121059505"><ele>1486.0</ele><time>2026-04-19T11:49:26Z</time></trkpt><trkpt lat="44.92313217526402" lon="7.194052186572843"><ele>1486.8</ele><time>2026-04-19T11:49:27Z</time></trkpt><trkpt lat="44.9230472150795" lon="7.194067712644703"><ele>1487.6</ele><time>2026-04-19T11:49:28Z</time></trkpt><trkpt lat="44.922983354035914" lon="7.194101023069904"><ele>1488.4</ele><time>2026-04-19T11:49:29Z</time></trkpt><trkpt lat="44.92294343581604" lon="7.194173930695465"><ele>1489.2</ele><time>2026-04-19T11:49:30Z</time></trkpt><trkpt lat="44.92287880618403" lon="7.194301002116768"><ele>1490.0</ele><time>2026-04-19T11:49:31Z</time></trkpt><trkpt lat="44.9227784349117" lon="7.194409225397318"><ele>1490.0</ele><time>2026-04-19T11:49:32Z</time></trkpt><trkpt lat="44.92267713662831" lon="7.19452031583593"><ele>1490.0</ele><time>2026-04-19T11:49:33Z</time></trkpt><trkpt lat="44.922582992143354" lon="7.194633157914161"><ele>1490.0</ele><time>2026-04-19T11:49:34Z</time></trkpt><trkpt lat="44.922491185277515" lon="7.194723548733765"><ele>1490.0</ele><time>2026-04-19T11:49:35Z</time></trkpt><trkpt lat="44.922417503319124" lon="7.194816956893007"><ele>1487.4</ele><time>2026-04-19T11:49:36Z</time></trkpt><trkpt lat="44.92235448596241" lon="7.194913569484421"><ele>1484.8</ele><time>2026-04-19T11:49:37Z</time></trkpt><trkpt lat="44.92232067633522" lon="7.194998792355495"><ele>1482.1999999999998</ele><time>2026-04-19T11:49:38Z</time></trkpt><trkpt lat="44.92230102729888" lon="7.195121003907923"><ele>1479.6</ele><time>2026-04-19T11:49:39Z</time></trkpt><trkpt lat="44.92227477783199" lon="7.195275668145167"><ele>1477.0</ele><time>2026-04-19T11:49:40Z</time></trkpt><trkpt lat="44.92224533031477" lon="7.195437406972432"><ele>1477.0</ele><time>2026-04-19T11:49:41Z</time></trkpt><trkpt lat="44.92223316274195" lon="7.195600987646582"><ele>1477.0</ele><time>2026-04-19T11:49:42Z</time></trkpt><trkpt lat="44.92222335163938" lon="7.195751601218357"><ele>1477.0</ele><time>2026-04-19T11:49:43Z</time></trkpt><trkpt lat="44.92221033990316" lon="7.1958999522758145"><ele>1477.0</ele><time>2026-04-19T11:49:44Z</time></trkpt><trkpt lat="44.922189862865096" lon="7.196079372075062"><ele>1479.5</ele><time>2026-04-19T11:49:45Z</time></trkpt><trkpt lat="44.9221639225485" lon="7.196275729704646"><ele>1482.0</ele><time>2026-04-19T11:49:46Z</time></trkpt><trkpt lat="44.922159050802" lon="7.196486231678437"><ele>1484.5</ele><time>2026-04-19T11:49:47Z</time></trkpt><trkpt lat="44.92217748700903" lon="7.196663739564758"><ele>1487.0</ele><time>2026-04-19T11:49:48Z</time></trkpt><trkpt lat="44.92217719198987" lon="7.196814240486725"><ele>1487.5</ele><time>2026-04-19T11:49:49Z</time></trkpt><trkpt lat="44.922135170995894" lon="7.196949457851654"><ele>1488.0</ele><time>2026-04-19T11:49:50Z</time></trkpt><trkpt lat="44.92207585676053" lon="7.197095903650077"><ele>1488.5</ele><time>2026-04-19T11:49:51Z</time></trkpt><trkpt lat="44.92202011810737" lon="7.197256540488136"><ele>1489.0</ele><time>2026-04-19T11:49:52Z</time></trkpt><trkpt lat="44.921981364603276" lon="7.197433416587139"><ele>1489.0</ele><time>2026-04-19T11:49:53Z</time></trkpt><trkpt lat="44.92192664734312" lon="7.197609554970007"><ele>1489.0</ele><time>2026-04-19T11:49:54Z</time></trkpt><trkpt lat="44.92188240534432" lon="7.197771314564835"><ele>1489.0</ele><time>2026-04-19T11:49:55Z</time></trkpt><trkpt lat="44.921845830025696" lon="7.197930596073763"><ele>1489.0</ele><time>2026-04-19T11:49:56Z</time></trkpt><trkpt lat="44.921827613680655" lon="7.19806617359928"><ele>1489.0</ele><time>2026-04-19T11:49:57Z</time></trkpt><trkpt lat="44.92180690424359" lon="7.198221777266085"><ele>1489.0</ele><time>2026-04-19T11:49:58Z</time></trkpt><trkpt lat="44.92178885994096" lon="7.198379009722954"><ele>1489.0</ele><time>2026-04-19T11:49:59Z</time></trkpt><trkpt lat="44.92180031745942" lon="7.198544898877729"><ele>1489.0</ele><time>2026-04-19T11:50:00Z</time></trkpt><trkpt lat="44.921781182916874" lon="7.198702225562424"><ele>1489.0</ele><time>2026-04-19T11:50:01Z</time></trkpt><trkpt lat="44.92174642919638" lon="7.198859609383106"><ele>1489.0</ele><time>2026-04-19T11:50:02Z</time></trkpt><trkpt lat="44.921702018897655" lon="7.199015276400994"><ele>1489.0</ele><time>2026-04-19T11:50:03Z</time></trkpt><trkpt lat="44.92165763539311" lon="7.199142877290859"><ele>1489.0</ele><time>2026-04-19T11:50:04Z</time></trkpt><trkpt lat="44.92161433680247" lon="7.199275375986544"><ele>1489.0</ele><time>2026-04-19T11:50:05Z</time></trkpt><trkpt lat="44.9215725430457" lon="7.199358572259511"><ele>1485.1666666666665</ele><time>2026-04-19T11:50:06Z</time></trkpt><trkpt lat="44.92151111651403" lon="7.199419757642672"><ele>1481.3333333333333</ele><time>2026-04-19T11:50:07Z</time></trkpt><trkpt lat="44.92142917324572" lon="7.199466259852238"><ele>1477.5</ele><time>2026-04-19T11:50:08Z</time></trkpt><trkpt lat="44.92136775682154" lon="7.199498249182457"><ele>1473.6666666666667</ele><time>2026-04-19T11:50:09Z</time></trkpt><trkpt lat="44.92129728974614" lon="7.199549316074702"><ele>1469.8333333333335</ele><time>2026-04-19T11:50:10Z</time></trkpt><trkpt lat="44.92122252712208" lon="7.199523498394681"><ele>1466.0</ele><time>2026-04-19T11:50:12Z</time></trkpt><trkpt lat="44.921140998705454" lon="7.199375036341971"><ele>1466.0</ele><time>2026-04-19T11:50:14Z</time></trkpt><trkpt lat="44.92107642157508" lon="7.199297121357707"><ele>1466.0</ele><time>2026-04-19T11:50:15Z</time></trkpt><trkpt lat="44.92100810159334" lon="7.1992437850132465"><ele>1466.0</ele><time>2026-04-19T11:50:16Z</time></trkpt><trkpt lat="44.92094817662899" lon="7.199164457466689"><ele>1466.0</ele><time>2026-04-19T11:50:17Z</time></trkpt><trkpt lat="44.920904585244394" lon="7.199044080424159"><ele>1466.0</ele><time>2026-04-19T11:50:18Z</time></trkpt><trkpt lat="44.92084718489381" lon="7.198929801470193"><ele>1466.0</ele><time>2026-04-19T11:50:19Z</time></trkpt><trkpt lat="44.92076577980098" lon="7.198852056986706"><ele>1461.8333333333335</ele><time>2026-04-19T11:50:20.001Z</time></trkpt><trkpt lat="44.92068834207535" lon="7.198762729670103"><ele>1457.6666666666667</ele><time>2026-04-19T11:50:21.001Z</time></trkpt><trkpt lat="44.92061753903634" lon="7.198702476859455"><ele>1453.5</ele><time>2026-04-19T11:50:22.001Z</time></trkpt><trkpt lat="44.92056885131208" lon="7.198615735813711"><ele>1449.3333333333333</ele><time>2026-04-19T11:50:23.001Z</time></trkpt><trkpt lat="44.92053903494301" lon="7.198526937966145"><ele>1445.1666666666665</ele><time>2026-04-19T11:50:24.001Z</time></trkpt><trkpt lat="44.920519094557896" lon="7.1984243153719785"><ele>1441.0</ele><time>2026-04-19T11:50:25Z</time></trkpt><trkpt lat="44.920514906379104" lon="7.198318030741378"><ele>1441.0</ele><time>2026-04-19T11:50:26Z</time></trkpt><trkpt lat="44.9205440357916" lon="7.198226517507581"><ele>1441.0</ele><time>2026-04-19T11:50:27Z</time></trkpt><trkpt lat="44.92057227885371" lon="7.198139583287629"><ele>1441.0</ele><time>2026-04-19T11:50:28Z</time></trkpt><trkpt lat="44.92054932639502" lon="7.198036822585443"><ele>1441.0</ele><time>2026-04-19T11:50:31Z</time></trkpt><trkpt lat="44.92045973466197" lon="7.19804635960286"><ele>1441.0</ele><time>2026-04-19T11:50:33Z</time></trkpt><trkpt lat="44.92037661136365" lon="7.198084311759881"><ele>1441.0</ele><time>2026-04-19T11:50:34Z</time></trkpt><trkpt lat="44.920266111123766" lon="7.198151909625239"><ele>1441.0</ele><time>2026-04-19T11:50:35Z</time></trkpt><trkpt lat="44.920195503787376" lon="7.198210864114802"><ele>1441.0</ele><time>2026-04-19T11:50:36Z</time></trkpt><trkpt lat="44.92016005025407" lon="7.198313246133485"><ele>1441.0</ele><time>2026-04-19T11:50:37Z</time></trkpt><trkpt lat="44.920120797134864" lon="7.19845208768272"><ele>1441.0</ele><time>2026-04-19T11:50:38Z</time></trkpt><trkpt lat="44.9200750499697" lon="7.198593523009388"><ele>1441.0</ele><time>2026-04-19T11:50:39Z</time></trkpt><trkpt lat="44.920028238034305" lon="7.1987144852127685"><ele>1436.0</ele><time>2026-04-19T11:50:40Z</time></trkpt><trkpt lat="44.92000158518033" lon="7.198801297695388"><ele>1431.0</ele><time>2026-04-19T11:50:41Z</time></trkpt><trkpt lat="44.91998355265311" lon="7.1988951802401315"><ele>1426.0</ele><time>2026-04-19T11:50:42Z</time></trkpt><trkpt lat="44.91995734985165" lon="7.199017317584463"><ele>1421.0</ele><time>2026-04-19T11:50:43Z</time></trkpt><trkpt lat="44.91998174004748" lon="7.199121464897021"><ele>1416.0</ele><time>2026-04-19T11:50:44Z</time></trkpt><trkpt lat="44.92002502641885" lon="7.199261160103724"><ele>1411.0</ele><time>2026-04-19T11:50:45Z</time></trkpt><trkpt lat="44.92006173601636" lon="7.1993953101962385"><ele>1416.0</ele><time>2026-04-19T11:50:46Z</time></trkpt><trkpt lat="44.92011586066022" lon="7.199497051674201"><ele>1421.0</ele><time>2026-04-19T11:50:47Z</time></trkpt><trkpt lat="44.92020274407376" lon="7.199629099212277"><ele>1426.0</ele><time>2026-04-19T11:50:49Z</time></trkpt><trkpt lat="44.92026237997278" lon="7.199726094977232"><ele>1431.0</ele><time>2026-04-19T11:50:50Z</time></trkpt><trkpt lat="44.920284772267635" lon="7.199841988696023"><ele>1436.0</ele><time>2026-04-19T11:50:51Z</time></trkpt><trkpt lat="44.92027899786065" lon="7.199983660345076"><ele>1436.0</ele><time>2026-04-19T11:50:52Z</time></trkpt><trkpt lat="44.920287772760446" lon="7.200099283196334"><ele>1436.0</ele><time>2026-04-19T11:50:53Z</time></trkpt><trkpt lat="44.92032287761772" lon="7.200212885228022"><ele>1436.0</ele><time>2026-04-19T11:50:54Z</time></trkpt><trkpt lat="44.92032297110508" lon="7.200344329850039"><ele>1436.0</ele><time>2026-04-19T11:50:55Z</time></trkpt><trkpt lat="44.920290914380764" lon="7.200483070721337"><ele>1436.0</ele><time>2026-04-19T11:50:56Z</time></trkpt><trkpt lat="44.920304504415654" lon="7.200573829076495"><ele>1436.0</ele><time>2026-04-19T11:50:57Z</time></trkpt><trkpt lat="44.92026210880516" lon="7.20066221916437"><ele>1436.0</ele><time>2026-04-19T11:50:59Z</time></trkpt><trkpt lat="44.92014921795362" lon="7.2006020761294645"><ele>1436.0</ele><time>2026-04-19T11:51:01Z</time></trkpt><trkpt lat="44.920089025680184" lon="7.200545532230173"><ele>1436.0</ele><time>2026-04-19T11:51:02Z</time></trkpt><trkpt lat="44.9200547014155" lon="7.200462975739826"><ele>1436.0</ele><time>2026-04-19T11:51:03Z</time></trkpt><trkpt lat="44.92002065568376" lon="7.2003385623589145"><ele>1436.0</ele><time>2026-04-19T11:51:04Z</time></trkpt><trkpt lat="44.91999009946088" lon="7.200246926817019"><ele>1436.0</ele><time>2026-04-19T11:51:05Z</time></trkpt><trkpt lat="44.91991342212308" lon="7.200174707381771"><ele>1431.6666666666667</ele><time>2026-04-19T11:51:06Z</time></trkpt><trkpt lat="44.919817073170485" lon="7.200122702363043"><ele>1427.3333333333335</ele><time>2026-04-19T11:51:07Z</time></trkpt><trkpt lat="44.91974851270271" lon="7.2000360857451176"><ele>1423.0</ele><time>2026-04-19T11:51:08Z</time></trkpt><trkpt lat="44.91968846043651" lon="7.199968903842229"><ele>1418.6666666666667</ele><time>2026-04-19T11:51:09Z</time></trkpt><trkpt lat="44.919601138313865" lon="7.199924530721397"><ele>1414.3333333333333</ele><time>2026-04-19T11:51:10Z</time></trkpt><trkpt lat="44.919552335565825" lon="7.199836389451184"><ele>1410.0</ele><time>2026-04-19T11:51:11Z</time></trkpt><trkpt lat="44.91948325385542" lon="7.199774063699027"><ele>1410.0</ele><time>2026-04-19T11:51:12Z</time></trkpt><trkpt lat="44.91940128133199" lon="7.199692194528319"><ele>1410.0</ele><time>2026-04-19T11:51:13Z</time></trkpt><trkpt lat="44.91932182388348" lon="7.19963423724592"><ele>1410.0</ele><time>2026-04-19T11:51:14Z</time></trkpt><trkpt lat="44.91927258115215" lon="7.199443948059675"><ele>1410.0</ele><time>2026-04-19T11:51:16Z</time></trkpt><trkpt lat="44.91923976536637" lon="7.199330489075823"><ele>1410.0</ele><time>2026-04-19T11:51:17Z</time></trkpt><trkpt lat="44.91921848289036" lon="7.199220156017244"><ele>1404.5</ele><time>2026-04-19T11:51:18Z</time></trkpt><trkpt lat="44.91918914017924" lon="7.199102727130189"><ele>1399.0</ele><time>2026-04-19T11:51:19Z</time></trkpt><trkpt lat="44.91916580240151" lon="7.198984489172363"><ele>1393.5</ele><time>2026-04-19T11:51:20Z</time></trkpt><trkpt lat="44.919142783207576" lon="7.198877979121366"><ele>1388.0</ele><time>2026-04-19T11:51:21Z</time></trkpt><trkpt lat="44.919154079657325" lon="7.198736895153659"><ele>1382.5</ele><time>2026-04-19T11:51:22Z</time></trkpt><trkpt lat="44.91914287830071" lon="7.198631155685093"><ele>1377.0</ele><time>2026-04-19T11:51:23Z</time></trkpt><trkpt lat="44.919130793732215" lon="7.1985020389914975"><ele>1376.5</ele><time>2026-04-19T11:51:24Z</time></trkpt><trkpt lat="44.91912547341504" lon="7.19834736513028"><ele>1376.0</ele><time>2026-04-19T11:51:25Z</time></trkpt><trkpt lat="44.91911656536374" lon="7.198179625139229"><ele>1375.5</ele><time>2026-04-19T11:51:26Z</time></trkpt><trkpt lat="44.91908172539912" lon="7.197995890037397"><ele>1375.0</ele><time>2026-04-19T11:51:27Z</time></trkpt><trkpt lat="44.919057351891254" lon="7.197815747897103"><ele>1374.25</ele><time>2026-04-19T11:51:28Z</time></trkpt><trkpt lat="44.91903891539307" lon="7.197622603206904"><ele>1373.5</ele><time>2026-04-19T11:51:29Z</time></trkpt><trkpt lat="44.91901320120407" lon="7.197441911461343"><ele>1372.75</ele><time>2026-04-19T11:51:30Z</time></trkpt><trkpt lat="44.91900720710285" lon="7.1972954970160465"><ele>1372.0</ele><time>2026-04-19T11:51:31Z</time></trkpt><trkpt lat="44.91901648430786" lon="7.197140220525383"><ele>1370.8</ele><time>2026-04-19T11:51:32Z</time></trkpt><trkpt lat="44.91901644357611" lon="7.1970020606400285"><ele>1369.6</ele><time>2026-04-19T11:51:33Z</time></trkpt><trkpt lat="44.91902044427297" lon="7.19688206186705"><ele>1368.3999999999999</ele><time>2026-04-19T11:51:34Z</time></trkpt><trkpt lat="44.9190387929004" lon="7.196781369785825"><ele>1367.1999999999998</ele><time>2026-04-19T11:51:35Z</time></trkpt><trkpt lat="44.91906195029424" lon="7.1966809279623405"><ele>1366.0</ele><time>2026-04-19T11:51:36Z</time></trkpt><trkpt lat="44.91914000564842" lon="7.196553484572481"><ele>1363.5</ele><time>2026-04-19T11:51:37Z</time></trkpt><trkpt lat="44.919200625689925" lon="7.196368225841719"><ele>1361.0</ele><time>2026-04-19T11:51:38Z</time></trkpt><trkpt lat="44.9192732787096" lon="7.19620834335162"><ele>1358.5</ele><time>2026-04-19T11:51:39Z</time></trkpt><trkpt lat="44.91930823755578" lon="7.195999768295669"><ele>1356.0</ele><time>2026-04-19T11:51:40Z</time></trkpt><trkpt lat="44.91933049874658" lon="7.195853745527713"><ele>1356.0</ele><time>2026-04-19T11:51:41Z</time></trkpt><trkpt lat="44.91935234269554" lon="7.195712106583342"><ele>1356.0</ele><time>2026-04-19T11:51:42Z</time></trkpt><trkpt lat="44.91932013749166" lon="7.195600934658585"><ele>1356.0</ele><time>2026-04-19T11:51:43Z</time></trkpt><trkpt lat="44.919246464520846" lon="7.195501514966422"><ele>1356.0</ele><time>2026-04-19T11:51:44Z</time></trkpt><trkpt lat="44.919200266561795" lon="7.195384219083688"><ele>1356.0</ele><time>2026-04-19T11:51:45Z</time></trkpt><trkpt lat="44.91916569052902" lon="7.195237915028906"><ele>1356.0</ele><time>2026-04-19T11:51:47Z</time></trkpt><trkpt lat="44.9191510569192" lon="7.1951268107861726"><ele>1356.0</ele><time>2026-04-19T11:51:48Z</time></trkpt><trkpt lat="44.91914635432035" lon="7.19502983452128"><ele>1356.0</ele><time>2026-04-19T11:51:49Z</time></trkpt><trkpt lat="44.919143787600106" lon="7.194886900388431"><ele>1356.0</ele><time>2026-04-19T11:51:50Z</time></trkpt><trkpt lat="44.919150036020746" lon="7.1947415163060295"><ele>1356.0</ele><time>2026-04-19T11:51:51Z</time></trkpt><trkpt lat="44.91917614504347" lon="7.194600074745562"><ele>1355.6</ele><time>2026-04-19T11:51:52Z</time></trkpt><trkpt lat="44.91921532552725" lon="7.194489963370912"><ele>1355.1999999999998</ele><time>2026-04-19T11:51:53Z</time></trkpt><trkpt lat="44.919239551438295" lon="7.194383876242477"><ele>1354.8000000000002</ele><time>2026-04-19T11:51:54Z</time></trkpt><trkpt lat="44.91924718825377" lon="7.194273717795763"><ele>1354.4</ele><time>2026-04-19T11:51:55Z</time></trkpt><trkpt lat="44.91924034439057" lon="7.194117262568426"><ele>1354.0</ele><time>2026-04-19T11:51:57Z</time></trkpt><trkpt lat="44.919010628882546" lon="7.194068737990334"><ele>1354.0</ele><time>2026-04-19T11:52:00Z</time></trkpt><trkpt lat="44.91890126337401" lon="7.194044473383703"><ele>1354.0</ele><time>2026-04-19T11:52:01Z</time></trkpt><trkpt lat="44.91877584370664" lon="7.194058903149606"><ele>1354.0</ele><time>2026-04-19T11:52:02Z</time></trkpt><trkpt lat="44.91866046927031" lon="7.194143883357225"><ele>1354.0</ele><time>2026-04-19T11:52:03Z</time></trkpt><trkpt lat="44.9185734046627" lon="7.194133976387037"><ele>1354.0</ele><time>2026-04-19T11:52:04Z</time></trkpt><trkpt lat="44.91848953690995" lon="7.194127998743074"><ele>1354.0</ele><time>2026-04-19T11:52:05Z</time></trkpt><trkpt lat="44.91841386993664" lon="7.194096542531797"><ele>1354.0</ele><time>2026-04-19T11:52:06Z</time></trkpt><trkpt lat="44.918343022559775" lon="7.194040751574727"><ele>1354.0</ele><time>2026-04-19T11:52:07Z</time></trkpt><trkpt lat="44.918310238945146" lon="7.193962991661505"><ele>1354.0</ele><time>2026-04-19T11:52:08Z</time></trkpt><trkpt lat="44.91834225117955" lon="7.193786875664342"><ele>1354.0</ele><time>2026-04-19T11:52:10Z</time></trkpt><trkpt lat="44.91837849055554" lon="7.193664341278763"><ele>1353.6</ele><time>2026-04-19T11:52:11Z</time></trkpt><trkpt lat="44.918439569827854" lon="7.193565294906577"><ele>1353.2</ele><time>2026-04-19T11:52:12Z</time></trkpt><trkpt lat="44.91847737535042" lon="7.193477725509486"><ele>1352.8</ele><time>2026-04-19T11:52:13Z</time></trkpt><trkpt lat="44.918428071091746" lon="7.193312636279843"><ele>1352.3999999999999</ele><time>2026-04-19T11:52:14.999Z</time></trkpt><trkpt lat="44.91834571655027" lon="7.19326221695514"><ele>1352.0</ele><time>2026-04-19T11:52:15.999Z</time></trkpt><trkpt lat="44.918232560446796" lon="7.193243327141189"><ele>1349.8</ele><time>2026-04-19T11:52:16.999Z</time></trkpt><trkpt lat="44.91810553415319" lon="7.193179343043053"><ele>1347.6</ele><time>2026-04-19T11:52:17.999Z</time></trkpt><trkpt lat="44.918000646713885" lon="7.193159023329797"><ele>1345.3999999999999</ele><time>2026-04-19T11:52:18.999Z</time></trkpt><trkpt lat="44.91790372822425" lon="7.193166103392037"><ele>1343.1999999999998</ele><time>2026-04-19T11:52:19.999Z</time></trkpt><trkpt lat="44.91782437975784" lon="7.193205910404899"><ele>1341.0</ele><time>2026-04-19T11:52:20.999Z</time></trkpt><trkpt lat="44.91778936350295" lon="7.193308082598831"><ele>1341.0</ele><time>2026-04-19T11:52:21.999Z</time></trkpt><trkpt lat="44.91776367049475" lon="7.193417557462731"><ele>1341.0</ele><time>2026-04-19T11:52:22.999Z</time></trkpt><trkpt lat="44.91773141543492" lon="7.193584400875421"><ele>1341.0</ele><time>2026-04-19T11:52:23.999Z</time></trkpt><trkpt lat="44.91770393897309" lon="7.19375507997646"><ele>1341.0</ele><time>2026-04-19T11:52:24.999Z</time></trkpt><trkpt lat="44.91764588829085" lon="7.193895372312058"><ele>1341.0</ele><time>2026-04-19T11:52:26Z</time></trkpt><trkpt lat="44.91757994535523" lon="7.194016015918973"><ele>1338.3333333333333</ele><time>2026-04-19T11:52:27Z</time></trkpt><trkpt lat="44.917508003464086" lon="7.194131405959629"><ele>1335.6666666666667</ele><time>2026-04-19T11:52:28Z</time></trkpt><trkpt lat="44.91747418675265" lon="7.194237744730814"><ele>1333.0</ele><time>2026-04-19T11:52:29Z</time></trkpt><trkpt lat="44.917446000086336" lon="7.1943293349582484"><ele>1330.3333333333335</ele><time>2026-04-19T11:52:30Z</time></trkpt><trkpt lat="44.917425715396455" lon="7.1944209950342906"><ele>1327.6666666666667</ele><time>2026-04-19T11:52:31Z</time></trkpt><trkpt lat="44.91735159968743" lon="7.194416215752554"><ele>1325.0</ele><time>2026-04-19T11:52:33Z</time></trkpt><trkpt lat="44.91733478102915" lon="7.19430921429098"><ele>1325.0</ele><time>2026-04-19T11:52:34Z</time></trkpt><trkpt lat="44.9173039803789" lon="7.194197824136326"><ele>1325.0</ele><time>2026-04-19T11:52:35Z</time></trkpt><trkpt lat="44.91730087807049" lon="7.194072107629001"><ele>1325.0</ele><time>2026-04-19T11:52:36Z</time></trkpt><trkpt lat="44.91730543579408" lon="7.1939476765834085"><ele>1325.0</ele><time>2026-04-19T11:52:37Z</time></trkpt><trkpt lat="44.91725164842951" lon="7.193785397974217"><ele>1325.0</ele><time>2026-04-19T11:52:38Z</time></trkpt><trkpt lat="44.917127163545366" lon="7.193689149032311"><ele>1324.2</ele><time>2026-04-19T11:52:39Z</time></trkpt><trkpt lat="44.91705049161459" lon="7.193580870353065"><ele>1323.4</ele><time>2026-04-19T11:52:40Z</time></trkpt><trkpt lat="44.91703250452123" lon="7.193464964172976"><ele>1322.6</ele><time>2026-04-19T11:52:41Z</time></trkpt><trkpt lat="44.91702072920784" lon="7.193340776403882"><ele>1321.8</ele><time>2026-04-19T11:52:42Z</time></trkpt><trkpt lat="44.9170082752869" lon="7.193188250548286"><ele>1321.0</ele><time>2026-04-19T11:52:43Z</time></trkpt><trkpt lat="44.91700574373869" lon="7.193053535552223"><ele>1319.25</ele><time>2026-04-19T11:52:44Z</time></trkpt><trkpt lat="44.91712064374066" lon="7.192957961360043"><ele>1317.5</ele><time>2026-04-19T11:52:45Z</time></trkpt><trkpt lat="44.91710468020797" lon="7.192838376946373"><ele>1315.75</ele><time>2026-04-19T11:52:48Z</time></trkpt><trkpt lat="44.917019115539176" lon="7.1927735741100305"><ele>1314.0</ele><time>2026-04-19T11:52:49Z</time></trkpt><trkpt lat="44.91688833843045" lon="7.192843062601686"><ele>1314.0</ele><time>2026-04-19T11:52:50Z</time></trkpt><trkpt lat="44.9168070491241" lon="7.192997534045463"><ele>1314.0</ele><time>2026-04-19T11:52:51Z</time></trkpt><trkpt lat="44.91673161434773" lon="7.193154649020359"><ele>1314.0</ele><time>2026-04-19T11:52:52Z</time></trkpt><trkpt lat="44.91663979107108" lon="7.193343117652882"><ele>1314.0</ele><time>2026-04-19T11:52:53Z</time></trkpt><trkpt lat="44.916533468816205" lon="7.193537252337301"><ele>1308.6666666666667</ele><time>2026-04-19T11:52:54Z</time></trkpt><trkpt lat="44.91643011287302" lon="7.193708427738412"><ele>1303.3333333333335</ele><time>2026-04-19T11:52:55Z</time></trkpt><trkpt lat="44.91633648204354" lon="7.193874600785337"><ele>1298.0</ele><time>2026-04-19T11:52:56Z</time></trkpt><trkpt lat="44.91624125498387" lon="7.194028723917423"><ele>1298.0</ele><time>2026-04-19T11:52:57Z</time></trkpt><trkpt lat="44.916162230167174" lon="7.19416204686808"><ele>1298.0</ele><time>2026-04-19T11:52:58Z</time></trkpt><trkpt lat="44.916111564941204" lon="7.194282566628132"><ele>1298.0</ele><time>2026-04-19T11:52:59Z</time></trkpt><trkpt lat="44.916086259841606" lon="7.19440304897567"><ele>1298.0</ele><time>2026-04-19T11:53:00Z</time></trkpt><trkpt lat="44.91607777850782" lon="7.194557352661347"><ele>1298.0</ele><time>2026-04-19T11:53:01Z</time></trkpt><trkpt lat="44.91607555195726" lon="7.194739918581316"><ele>1297.0</ele><time>2026-04-19T11:53:02Z</time></trkpt><trkpt lat="44.91607216991781" lon="7.194905305134879"><ele>1296.0</ele><time>2026-04-19T11:53:03Z</time></trkpt><trkpt lat="44.91605666290178" lon="7.195036836300571"><ele>1295.0</ele><time>2026-04-19T11:53:04Z</time></trkpt><trkpt lat="44.916023932675856" lon="7.195150640644727"><ele>1294.0</ele><time>2026-04-19T11:53:05Z</time></trkpt><trkpt lat="44.915973157635186" lon="7.195224423088861"><ele>1293.0</ele><time>2026-04-19T11:53:06Z</time></trkpt><trkpt lat="44.91589039227781" lon="7.195249357038867"><ele>1288.2</ele><time>2026-04-19T11:53:07Z</time></trkpt><trkpt lat="44.915781350103856" lon="7.195288363808329"><ele>1283.4</ele><time>2026-04-19T11:53:08Z</time></trkpt><trkpt lat="44.91567387914888" lon="7.195336460263416"><ele>1278.6000000000001</ele><time>2026-04-19T11:53:09Z</time></trkpt><trkpt lat="44.91559433594592" lon="7.195407960723798"><ele>1273.8000000000002</ele><time>2026-04-19T11:53:10Z</time></trkpt><trkpt lat="44.91559044226963" lon="7.195546145871864"><ele>1269.0</ele><time>2026-04-19T11:53:11Z</time></trkpt><trkpt lat="44.915538766903374" lon="7.195678106205347"><ele>1269.0</ele><time>2026-04-19T11:53:13Z</time></trkpt><trkpt lat="44.91544417009918" lon="7.195602488440715"><ele>1269.0</ele><time>2026-04-19T11:53:15Z</time></trkpt><trkpt lat="44.915418285962055" lon="7.1954920030467635"><ele>1269.0</ele><time>2026-04-19T11:53:16Z</time></trkpt><trkpt lat="44.91538747588107" lon="7.19535650527063"><ele>1269.0</ele><time>2026-04-19T11:53:17Z</time></trkpt><trkpt lat="44.915373921229495" lon="7.195212900890403"><ele>1269.0</ele><time>2026-04-19T11:53:18Z</time></trkpt><trkpt lat="44.91537129588636" lon="7.195083377967251"><ele>1269.0</ele><time>2026-04-19T11:53:19Z</time></trkpt><trkpt lat="44.91529804095666" lon="7.194955504838898"><ele>1269.0</ele><time>2026-04-19T11:53:21Z</time></trkpt><trkpt lat="44.91522079647323" lon="7.195005662106917"><ele>1269.0</ele><time>2026-04-19T11:53:22Z</time></trkpt><trkpt lat="44.91517768358156" lon="7.195142410938326"><ele>1269.0</ele><time>2026-04-19T11:53:23Z</time></trkpt><trkpt lat="44.91513429529754" lon="7.195276212756621"><ele>1269.0</ele><time>2026-04-19T11:53:24Z</time></trkpt><trkpt lat="44.915059289187546" lon="7.195424920679772"><ele>1263.8</ele><time>2026-04-19T11:53:25Z</time></trkpt><trkpt lat="44.91498764146962" lon="7.19557375653687"><ele>1258.6000000000001</ele><time>2026-04-19T11:53:26Z</time></trkpt><trkpt lat="44.914939668163115" lon="7.195699473619399"><ele>1253.4</ele><time>2026-04-19T11:53:27Z</time></trkpt><trkpt lat="44.91488390914898" lon="7.19578288978227"><ele>1248.2</ele><time>2026-04-19T11:53:28Z</time></trkpt><trkpt lat="44.91482698211614" lon="7.195841816521503"><ele>1243.0</ele><time>2026-04-19T11:53:29Z</time></trkpt><trkpt lat="44.91473939292987" lon="7.19578781273889"><ele>1243.0</ele><time>2026-04-19T11:53:31Z</time></trkpt><trkpt lat="44.914759269344685" lon="7.195625931712506"><ele>1243.0</ele><time>2026-04-19T11:53:33Z</time></trkpt><trkpt lat="44.914784499768075" lon="7.195508970718142"><ele>1243.0</ele><time>2026-04-19T11:53:34Z</time></trkpt><trkpt lat="44.91481585156876" lon="7.195345228182992"><ele>1243.0</ele><time>2026-04-19T11:53:35Z</time></trkpt><trkpt lat="44.91484886856389" lon="7.195143290920808"><ele>1243.0</ele><time>2026-04-19T11:53:36Z</time></trkpt><trkpt lat="44.914850219470004" lon="7.194931915027199"><ele>1243.0</ele><time>2026-04-19T11:53:37Z</time></trkpt><trkpt lat="44.914811867578486" lon="7.19474516232405"><ele>1243.0</ele><time>2026-04-19T11:53:38Z</time></trkpt><trkpt lat="44.914746000091135" lon="7.1946033423789695"><ele>1243.0</ele><time>2026-04-19T11:53:39Z</time></trkpt><trkpt lat="44.91471093345139" lon="7.194460282126622"><ele>1242.4</ele><time>2026-04-19T11:53:40Z</time></trkpt><trkpt lat="44.91467879872072" lon="7.194351233348958"><ele>1241.8</ele><time>2026-04-19T11:53:41Z</time></trkpt><trkpt lat="44.914604230900075" lon="7.194252598472994"><ele>1241.2</ele><time>2026-04-19T11:53:43Z</time></trkpt><trkpt lat="44.91451473819188" lon="7.194393488581479"><ele>1240.6</ele><time>2026-04-19T11:53:45Z</time></trkpt><trkpt lat="44.9145105238634" lon="7.1945143485660585"><ele>1240.0</ele><time>2026-04-19T11:53:46Z</time></trkpt><trkpt lat="44.91451017219986" lon="7.194701649007857"><ele>1241.0</ele><time>2026-04-19T11:53:47Z</time></trkpt><trkpt lat="44.914488373082065" lon="7.1949047548823835"><ele>1242.0</ele><time>2026-04-19T11:53:48Z</time></trkpt><trkpt lat="44.9144274755079" lon="7.19512470849821"><ele>1243.0</ele><time>2026-04-19T11:53:49Z</time></trkpt><trkpt lat="44.91435747234819" lon="7.195336670225005"><ele>1243.0</ele><time>2026-04-19T11:53:50Z</time></trkpt><trkpt lat="44.914284953569116" lon="7.195546731668078"><ele>1243.0</ele><time>2026-04-19T11:53:51Z</time></trkpt><trkpt lat="44.91420485848865" lon="7.195723646487606"><ele>1243.0</ele><time>2026-04-19T11:53:52Z</time></trkpt><trkpt lat="44.914145410973724" lon="7.195861587237099"><ele>1243.0</ele><time>2026-04-19T11:53:53Z</time></trkpt><trkpt lat="44.914105291970905" lon="7.195982101581758"><ele>1243.0</ele><time>2026-04-19T11:53:54Z</time></trkpt><trkpt lat="44.91410687329154" lon="7.196108419407309"><ele>1243.0</ele><time>2026-04-19T11:53:55Z</time></trkpt><trkpt lat="44.914135451177245" lon="7.196242607148678"><ele>1243.0</ele><time>2026-04-19T11:53:56Z</time></trkpt><trkpt lat="44.91423027744067" lon="7.196343402296019"><ele>1243.0</ele><time>2026-04-19T11:53:57Z</time></trkpt><trkpt lat="44.914343972137914" lon="7.1963895048093525"><ele>1243.0</ele><time>2026-04-19T11:53:58Z</time></trkpt><trkpt lat="44.914451026228086" lon="7.196453747667016"><ele>1239.0</ele><time>2026-04-19T11:53:59Z</time></trkpt><trkpt lat="44.914551067558136" lon="7.196535806266713"><ele>1235.0</ele><time>2026-04-19T11:54:00Z</time></trkpt><trkpt lat="44.91462280464926" lon="7.19657985114858"><ele>1231.0</ele><time>2026-04-19T11:54:01Z</time></trkpt><trkpt lat="44.91469280052096" lon="7.196622627799437"><ele>1227.0</ele><time>2026-04-19T11:54:03Z</time></trkpt><trkpt lat="44.91459627301236" lon="7.196736409903459"><ele>1223.0</ele><time>2026-04-19T11:54:05Z</time></trkpt><trkpt lat="44.91452336964287" lon="7.196679434512713"><ele>1223.0</ele><time>2026-04-19T11:54:06Z</time></trkpt><trkpt lat="44.91441643891679" lon="7.196663446579437"><ele>1223.0</ele><time>2026-04-19T11:54:07Z</time></trkpt><trkpt lat="44.91429134666241" lon="7.196671125207501"><ele>1223.0</ele><time>2026-04-19T11:54:08Z</time></trkpt><trkpt lat="44.914175947053096" lon="7.196722206419867"><ele>1223.0</ele><time>2026-04-19T11:54:09Z</time></trkpt><trkpt lat="44.914063123036804" lon="7.196769425934934"><ele>1221.2</ele><time>2026-04-19T11:54:10Z</time></trkpt><trkpt lat="44.91396478889702" lon="7.196763174753252"><ele>1219.4</ele><time>2026-04-19T11:54:11Z</time></trkpt><trkpt lat="44.91387546177041" lon="7.196737059549348"><ele>1217.6000000000001</ele><time>2026-04-19T11:54:12Z</time></trkpt><trkpt lat="44.91383020246801" lon="7.196664486368158"><ele>1215.8</ele><time>2026-04-19T11:54:13Z</time></trkpt><trkpt lat="44.91375323823972" lon="7.196502672683964"><ele>1214.0</ele><time>2026-04-19T11:54:15Z</time></trkpt><trkpt lat="44.913710084791454" lon="7.196411150605443"><ele>1214.0</ele><time>2026-04-19T11:54:16Z</time></trkpt><trkpt lat="44.91364104268079" lon="7.196288153666517"><ele>1214.0</ele><time>2026-04-19T11:54:18Z</time></trkpt><trkpt lat="44.91355564841048" lon="7.196393440718364"><ele>1214.0</ele><time>2026-04-19T11:54:20Z</time></trkpt><trkpt lat="44.91355986736504" lon="7.1964835063120285"><ele>1214.0</ele><time>2026-04-19T11:54:21Z</time></trkpt><trkpt lat="44.913594368105" lon="7.1966023269214245"><ele>1214.0</ele><time>2026-04-19T11:54:22Z</time></trkpt><trkpt lat="44.91362864576964" lon="7.196753738012273"><ele>1211.25</ele><time>2026-04-19T11:54:23Z</time></trkpt><trkpt lat="44.9136742098527" lon="7.19693575905333"><ele>1208.5</ele><time>2026-04-19T11:54:24Z</time></trkpt><trkpt lat="44.91366369053439" lon="7.1971497700562574"><ele>1205.75</ele><time>2026-04-19T11:54:25Z</time></trkpt><trkpt lat="44.91369376984012" lon="7.197319671037861"><ele>1203.0</ele><time>2026-04-19T11:54:26Z</time></trkpt><trkpt lat="44.913714140203474" lon="7.197464377530539"><ele>1199.5</ele><time>2026-04-19T11:54:27Z</time></trkpt><trkpt lat="44.913711911787104" lon="7.197591167218559"><ele>1196.0</ele><time>2026-04-19T11:54:28Z</time></trkpt><trkpt lat="44.91368744796725" lon="7.197683235697299"><ele>1192.5</ele><time>2026-04-19T11:54:29Z</time></trkpt><trkpt lat="44.91363514469065" lon="7.1977499420901525"><ele>1189.0</ele><time>2026-04-19T11:54:30Z</time></trkpt><trkpt lat="44.913559893004106" lon="7.197763436017021"><ele>1185.5</ele><time>2026-04-19T11:54:31Z</time></trkpt><trkpt lat="44.91345105057853" lon="7.197698074665074"><ele>1182.0</ele><time>2026-04-19T11:54:32.001Z</time></trkpt><trkpt lat="44.91331482519633" lon="7.197690724581363"><ele>1177.5</ele><time>2026-04-19T11:54:33.001Z</time></trkpt><trkpt lat="44.91317173655998" lon="7.197686886134671"><ele>1173.0</ele><time>2026-04-19T11:54:34.001Z</time></trkpt><trkpt lat="44.9130380443635" lon="7.197680847029489"><ele>1168.5</ele><time>2026-04-19T11:54:35.001Z</time></trkpt><trkpt lat="44.91293788467615" lon="7.197660210966849"><ele>1164.0</ele><time>2026-04-19T11:54:36.001Z</time></trkpt><trkpt lat="44.912873112361396" lon="7.197608446211162"><ele>1164.0</ele><time>2026-04-19T11:54:37.001Z</time></trkpt><trkpt lat="44.9127935870874" lon="7.197496161987389"><ele>1164.0</ele><time>2026-04-19T11:54:39.001Z</time></trkpt><trkpt lat="44.91271481385873" lon="7.197547548150307"><ele>1164.0</ele><time>2026-04-19T11:54:40.001Z</time></trkpt><trkpt lat="44.91270287870703" lon="7.1976770852993415"><ele>1164.0</ele><time>2026-04-19T11:54:41Z</time></trkpt><trkpt lat="44.91271454382457" lon="7.197800882825271"><ele>1164.0</ele><time>2026-04-19T11:54:42Z</time></trkpt><trkpt lat="44.912748820513805" lon="7.197953953339741"><ele>1164.0</ele><time>2026-04-19T11:54:43Z</time></trkpt><trkpt lat="44.91279836227171" lon="7.198093238180575"><ele>1164.0</ele><time>2026-04-19T11:54:44Z</time></trkpt><trkpt lat="44.91285328587106" lon="7.198181145236548"><ele>1164.0</ele><time>2026-04-19T11:54:45Z</time></trkpt><trkpt lat="44.91291508787142" lon="7.198206428172764"><ele>1164.0</ele><time>2026-04-19T11:54:46Z</time></trkpt><trkpt lat="44.91292169406142" lon="7.198322181410303"><ele>1164.0</ele><time>2026-04-19T11:54:48Z</time></trkpt><trkpt lat="44.91280165584167" lon="7.198379175180617"><ele>1164.0</ele><time>2026-04-19T11:54:50Z</time></trkpt><trkpt lat="44.912725990350175" lon="7.198340505986485"><ele>1164.0</ele><time>2026-04-19T11:54:51Z</time></trkpt><trkpt lat="44.912686136241206" lon="7.198206319909446"><ele>1164.0</ele><time>2026-04-19T11:54:52Z</time></trkpt><trkpt lat="44.912596889173706" lon="7.198097002102243"><ele>1164.0</ele><time>2026-04-19T11:54:53Z</time></trkpt><trkpt lat="44.912486420910824" lon="7.198031936284125"><ele>1164.0</ele><time>2026-04-19T11:54:54Z</time></trkpt><trkpt lat="44.91238797778151" lon="7.197968073214183"><ele>1160.2</ele><time>2026-04-19T11:54:55Z</time></trkpt><trkpt lat="44.91230488645112" lon="7.1978952722246134"><ele>1156.4</ele><time>2026-04-19T11:54:56Z</time></trkpt><trkpt lat="44.912266830831435" lon="7.197795960711906"><ele>1152.6</ele><time>2026-04-19T11:54:57Z</time></trkpt><trkpt lat="44.91223789460574" lon="7.197674180540132"><ele>1148.8</ele><time>2026-04-19T11:54:58Z</time></trkpt><trkpt lat="44.91221152776737" lon="7.197530594071648"><ele>1145.0</ele><time>2026-04-19T11:54:59Z</time></trkpt><trkpt lat="44.912203920269796" lon="7.197385271352522"><ele>1146.4</ele><time>2026-04-19T11:55:00Z</time></trkpt><trkpt lat="44.91219979231448" lon="7.197250025169679"><ele>1147.8</ele><time>2026-04-19T11:55:01Z</time></trkpt><trkpt lat="44.912177723965875" lon="7.1971323640744105"><ele>1149.2</ele><time>2026-04-19T11:55:02Z</time></trkpt><trkpt lat="44.912082276993864" lon="7.197042196876998"><ele>1150.6</ele><time>2026-04-19T11:55:03Z</time></trkpt><trkpt lat="44.912018075941354" lon="7.1969668235277275"><ele>1152.0</ele><time>2026-04-19T11:55:04Z</time></trkpt><trkpt lat="44.91195734775923" lon="7.196895526563531"><ele>1152.0</ele><time>2026-04-19T11:55:05Z</time></trkpt><trkpt lat="44.911884895954366" lon="7.196841490137375"><ele>1152.0</ele><time>2026-04-19T11:55:06Z</time></trkpt><trkpt lat="44.91181563437413" lon="7.196769768598305"><ele>1152.0</ele><time>2026-04-19T11:55:07Z</time></trkpt><trkpt lat="44.911724127992315" lon="7.1967248337397525"><ele>1152.0</ele><time>2026-04-19T11:55:08Z</time></trkpt><trkpt lat="44.91164613259454" lon="7.196642507352196"><ele>1152.0</ele><time>2026-04-19T11:55:09Z</time></trkpt><trkpt lat="44.91157729146374" lon="7.196571187754523"><ele>1152.0</ele><time>2026-04-19T11:55:10Z</time></trkpt><trkpt lat="44.911499599031366" lon="7.196486739844258"><ele>1147.5</ele><time>2026-04-19T11:55:11Z</time></trkpt><trkpt lat="44.91141527714332" lon="7.1963938413159125"><ele>1143.0</ele><time>2026-04-19T11:55:12Z</time></trkpt><trkpt lat="44.911333178975276" lon="7.196303172775449"><ele>1138.5</ele><time>2026-04-19T11:55:13Z</time></trkpt><trkpt lat="44.91118829877695" lon="7.196352323958142"><ele>1134.0</ele><time>2026-04-19T11:55:14Z</time></trkpt><trkpt lat="44.9110926324394" lon="7.196351186706869"><ele>1134.0</ele><time>2026-04-19T11:55:15Z</time></trkpt><trkpt lat="44.91101547361193" lon="7.1962930457755405"><ele>1134.0</ele><time>2026-04-19T11:55:16Z</time></trkpt><trkpt lat="44.91095891729527" lon="7.196222146710691"><ele>1134.0</ele><time>2026-04-19T11:55:17Z</time></trkpt><trkpt lat="44.910948611268616" lon="7.196132029800997"><ele>1134.0</ele><time>2026-04-19T11:55:18Z</time></trkpt><trkpt lat="44.9109419836538" lon="7.19591942807777"><ele>1134.0</ele><time>2026-04-19T11:55:20Z</time></trkpt><trkpt lat="44.91095012889594" lon="7.195765443257664"><ele>1134.5</ele><time>2026-04-19T11:55:21Z</time></trkpt><trkpt lat="44.910947222725014" lon="7.195594919951302"><ele>1135.0</ele><time>2026-04-19T11:55:22Z</time></trkpt><trkpt lat="44.910947794386615" lon="7.1954213944201575"><ele>1135.5</ele><time>2026-04-19T11:55:23Z</time></trkpt><trkpt lat="44.9110067748671" lon="7.19526195208375"><ele>1136.0</ele><time>2026-04-19T11:55:24Z</time></trkpt><trkpt lat="44.9110512479278" lon="7.1950936878229275"><ele>1136.0</ele><time>2026-04-19T11:55:25Z</time></trkpt><trkpt lat="44.91108544168226" lon="7.194906379947806"><ele>1136.0</ele><time>2026-04-19T11:55:26Z</time></trkpt><trkpt lat="44.911176115208924" lon="7.194770689530776"><ele>1136.0</ele><time>2026-04-19T11:55:27Z</time></trkpt><trkpt lat="44.9112637765727" lon="7.1946609078118815"><ele>1136.0</ele><time>2026-04-19T11:55:28Z</time></trkpt><trkpt lat="44.91132686546668" lon="7.194529708281948"><ele>1136.25</ele><time>2026-04-19T11:55:29Z</time></trkpt><trkpt lat="44.911378656230234" lon="7.194365205654918"><ele>1136.5</ele><time>2026-04-19T11:55:30Z</time></trkpt><trkpt lat="44.911392140688605" lon="7.1941861767159665"><ele>1136.75</ele><time>2026-04-19T11:55:31Z</time></trkpt><trkpt lat="44.91139564565455" lon="7.1940057317657535"><ele>1137.0</ele><time>2026-04-19T11:55:32Z</time></trkpt><trkpt lat="44.911391237098485" lon="7.193827581688378"><ele>1137.6</ele><time>2026-04-19T11:55:33Z</time></trkpt><trkpt lat="44.91138038844882" lon="7.193635710657901"><ele>1138.2</ele><time>2026-04-19T11:55:34Z</time></trkpt><trkpt lat="44.911383089457956" lon="7.1934777156372265"><ele>1138.8</ele><time>2026-04-19T11:55:35Z</time></trkpt><trkpt lat="44.91138669046374" lon="7.193351300473835"><ele>1139.4</ele><time>2026-04-19T11:55:36Z</time></trkpt><trkpt lat="44.9113787308534" lon="7.193256669932578"><ele>1140.0</ele><time>2026-04-19T11:55:37Z</time></trkpt><trkpt lat="44.9113556543845" lon="7.1931638452087885"><ele>1143.25</ele><time>2026-04-19T11:55:38Z</time></trkpt><trkpt lat="44.91130573000767" lon="7.193034700670841"><ele>1146.5</ele><time>2026-04-19T11:55:39Z</time></trkpt><trkpt lat="44.911213508703845" lon="7.192889807561769"><ele>1149.75</ele><time>2026-04-19T11:55:40Z</time></trkpt><trkpt lat="44.91111478727076" lon="7.192707709868063"><ele>1153.0</ele><time>2026-04-19T11:55:41Z</time></trkpt><trkpt lat="44.91099121488428" lon="7.1925308496164835"><ele>1148.0</ele><time>2026-04-19T11:55:42Z</time></trkpt><trkpt lat="44.910851585294736" lon="7.192369079378786"><ele>1143.0</ele><time>2026-04-19T11:55:43Z</time></trkpt><trkpt lat="44.91068529108898" lon="7.192217097744378"><ele>1138.0</ele><time>2026-04-19T11:55:44Z</time></trkpt><trkpt lat="44.910526232975656" lon="7.192078015355272"><ele>1138.0</ele><time>2026-04-19T11:55:45Z</time></trkpt><trkpt lat="44.910369980841665" lon="7.1919478472998275"><ele>1138.0</ele><time>2026-04-19T11:55:46Z</time></trkpt><trkpt lat="44.910219620159836" lon="7.191829300378761"><ele>1138.0</ele><time>2026-04-19T11:55:47Z</time></trkpt><trkpt lat="44.91007544905553" lon="7.191718652561774"><ele>1129.6666666666665</ele><time>2026-04-19T11:55:48Z</time></trkpt><trkpt lat="44.909926648046806" lon="7.19160592026908"><ele>1121.3333333333333</ele><time>2026-04-19T11:55:49Z</time></trkpt><trkpt lat="44.90978866867572" lon="7.1915028983708895"><ele>1113.0</ele><time>2026-04-19T11:55:50Z</time></trkpt><trkpt lat="44.9096588547954" lon="7.19140636550357"><ele>1113.0</ele><time>2026-04-19T11:55:51Z</time></trkpt><trkpt lat="44.90953199836797" lon="7.1913120319308"><ele>1113.0</ele><time>2026-04-19T11:55:52Z</time></trkpt><trkpt lat="44.9094184185262" lon="7.191221966987862"><ele>1113.0</ele><time>2026-04-19T11:55:53Z</time></trkpt><trkpt lat="44.90933346196264" lon="7.191119149923866"><ele>1113.0</ele><time>2026-04-19T11:55:54Z</time></trkpt><trkpt lat="44.90927495515671" lon="7.190994982814313"><ele>1114.25</ele><time>2026-04-19T11:55:55Z</time></trkpt><trkpt lat="44.909241325375824" lon="7.190855457688053"><ele>1115.5</ele><time>2026-04-19T11:55:56Z</time></trkpt><trkpt lat="44.90924164431069" lon="7.190705633040105"><ele>1116.75</ele><time>2026-04-19T11:55:57Z</time></trkpt><trkpt lat="44.90924369175883" lon="7.190517299359056"><ele>1118.0</ele><time>2026-04-19T11:55:58Z</time></trkpt><trkpt lat="44.90924354430992" lon="7.190305034712863"><ele>1111.75</ele><time>2026-04-19T11:55:59Z</time></trkpt><trkpt lat="44.90923107455732" lon="7.190095392391641"><ele>1105.5</ele><time>2026-04-19T11:56:00Z</time></trkpt><trkpt lat="44.909191256931614" lon="7.189918138817272"><ele>1099.25</ele><time>2026-04-19T11:56:01Z</time></trkpt><trkpt lat="44.9091552137271" lon="7.189767240252682"><ele>1093.0</ele><time>2026-04-19T11:56:02Z</time></trkpt><trkpt lat="44.909112004449426" lon="7.189625934933567"><ele>1093.0</ele><time>2026-04-19T11:56:03Z</time></trkpt><trkpt lat="44.90912759791397" lon="7.189455899300258"><ele>1093.0</ele><time>2026-04-19T11:56:04Z</time></trkpt><trkpt lat="44.909139734050804" lon="7.189271368353406"><ele>1093.0</ele><time>2026-04-19T11:56:05Z</time></trkpt><trkpt lat="44.90915424453919" lon="7.1890675130697685"><ele>1093.0</ele><time>2026-04-19T11:56:06Z</time></trkpt><trkpt lat="44.909170179771436" lon="7.188850466255547"><ele>1091.75</ele><time>2026-04-19T11:56:07Z</time></trkpt><trkpt lat="44.90917773426318" lon="7.18863045383401"><ele>1090.5</ele><time>2026-04-19T11:56:08Z</time></trkpt><trkpt lat="44.90916479395972" lon="7.188419079167153"><ele>1089.25</ele><time>2026-04-19T11:56:09Z</time></trkpt><trkpt lat="44.909148178632016" lon="7.188221995974471"><ele>1088.0</ele><time>2026-04-19T11:56:10Z</time></trkpt><trkpt lat="44.909146183567366" lon="7.1880367424942895"><ele>1087.5</ele><time>2026-04-19T11:56:11Z</time></trkpt><trkpt lat="44.90916374433287" lon="7.187832123156864"><ele>1087.0</ele><time>2026-04-19T11:56:12Z</time></trkpt><trkpt lat="44.90912781630245" lon="7.187623015066727"><ele>1086.5</ele><time>2026-04-19T11:56:13Z</time></trkpt><trkpt lat="44.90910273985845" lon="7.187427414194127"><ele>1086.0</ele><time>2026-04-19T11:56:14Z</time></trkpt><trkpt lat="44.90909440442205" lon="7.1872468569997"><ele>1085.5</ele><time>2026-04-19T11:56:15Z</time></trkpt><trkpt lat="44.909102832681604" lon="7.187095490790992"><ele>1085.0</ele><time>2026-04-19T11:56:16Z</time></trkpt><trkpt lat="44.90911225008601" lon="7.1869709235071975"><ele>1084.5</ele><time>2026-04-19T11:56:17Z</time></trkpt><trkpt lat="44.90909992859042" lon="7.186867946954759"><ele>1084.0</ele><time>2026-04-19T11:56:18Z</time></trkpt><trkpt lat="44.90905836940943" lon="7.186800235730017"><ele>1083.5</ele><time>2026-04-19T11:56:19Z</time></trkpt><trkpt lat="44.908986502385424" lon="7.186780431650283"><ele>1083.0</ele><time>2026-04-19T11:56:20Z</time></trkpt><trkpt lat="44.90887779494662" lon="7.186869206199573"><ele>1083.0</ele><time>2026-04-19T11:56:21Z</time></trkpt><trkpt lat="44.908845134141586" lon="7.1870754370851015"><ele>1083.0</ele><time>2026-04-19T11:56:22Z</time></trkpt><trkpt lat="44.908840466299765" lon="7.187284847859655"><ele>1083.0</ele><time>2026-04-19T11:56:23Z</time></trkpt><trkpt lat="44.908869335940324" lon="7.187471825152521"><ele>1083.0</ele><time>2026-04-19T11:56:24Z</time></trkpt><trkpt lat="44.908904201944026" lon="7.187657280134735"><ele>1083.75</ele><time>2026-04-19T11:56:25Z</time></trkpt><trkpt lat="44.90891121582707" lon="7.187845533255317"><ele>1084.5</ele><time>2026-04-19T11:56:26Z</time></trkpt><trkpt lat="44.908858590444176" lon="7.188016417178209"><ele>1085.25</ele><time>2026-04-19T11:56:27Z</time></trkpt><trkpt lat="44.908779431843286" lon="7.1881712406378355"><ele>1086.0</ele><time>2026-04-19T11:56:28Z</time></trkpt><trkpt lat="44.908677270580206" lon="7.188327540661862"><ele>1086.6666666666667</ele><time>2026-04-19T11:56:29Z</time></trkpt><trkpt lat="44.908575283932144" lon="7.188476961560018"><ele>1087.3333333333335</ele><time>2026-04-19T11:56:30Z</time></trkpt><trkpt lat="44.90848030061961" lon="7.188633806912045"><ele>1088.0</ele><time>2026-04-19T11:56:31Z</time></trkpt><trkpt lat="44.90838734260495" lon="7.188823424865251"><ele>1079.3333333333335</ele><time>2026-04-19T11:56:32Z</time></trkpt><trkpt lat="44.90828928067785" lon="7.18902287400871"><ele>1070.6666666666667</ele><time>2026-04-19T11:56:33Z</time></trkpt><trkpt lat="44.90821321185024" lon="7.189247532729748"><ele>1062.0</ele><time>2026-04-19T11:56:34Z</time></trkpt><trkpt lat="44.90815538992729" lon="7.189487915222763"><ele>1062.0</ele><time>2026-04-19T11:56:35Z</time></trkpt><trkpt lat="44.9080765885282" lon="7.189713662485726"><ele>1062.0</ele><time>2026-04-19T11:56:36Z</time></trkpt><trkpt lat="44.907999582745326" lon="7.189946973118732"><ele>1062.0</ele><time>2026-04-19T11:56:37Z</time></trkpt><trkpt lat="44.907925806342384" lon="7.190167659649346"><ele>1064.0</ele><time>2026-04-19T11:56:38Z</time></trkpt><trkpt lat="44.90784929989199" lon="7.190378531214547"><ele>1066.0</ele><time>2026-04-19T11:56:39Z</time></trkpt><trkpt lat="44.90776744156469" lon="7.190573999184967"><ele>1068.0</ele><time>2026-04-19T11:56:40Z</time></trkpt><trkpt lat="44.90768642978816" lon="7.190766071791884"><ele>1069.0</ele><time>2026-04-19T11:56:41Z</time></trkpt><trkpt lat="44.90760499487493" lon="7.19094818656611"><ele>1070.0</ele><time>2026-04-19T11:56:42Z</time></trkpt><trkpt lat="44.90753295637867" lon="7.191153517535751"><ele>1071.0</ele><time>2026-04-19T11:56:43Z</time></trkpt><trkpt lat="44.90749450468062" lon="7.19136960751274"><ele>1063.75</ele><time>2026-04-19T11:56:44Z</time></trkpt><trkpt lat="44.90743883246349" lon="7.191586665184565"><ele>1056.5</ele><time>2026-04-19T11:56:45Z</time></trkpt><trkpt lat="44.90738315847825" lon="7.1917710908965855"><ele>1049.25</ele><time>2026-04-19T11:56:46Z</time></trkpt><trkpt lat="44.90733610501139" lon="7.191927507607384"><ele>1042.0</ele><time>2026-04-19T11:56:47Z</time></trkpt><trkpt lat="44.907312087930414" lon="7.1920441541703255"><ele>1042.0</ele><time>2026-04-19T11:56:48Z</time></trkpt><trkpt lat="44.907328497133285" lon="7.192148797215901"><ele>1042.0</ele><time>2026-04-19T11:56:49Z</time></trkpt><trkpt lat="44.907383552796134" lon="7.192213429384257"><ele>1042.0</ele><time>2026-04-19T11:56:50Z</time></trkpt><trkpt lat="44.907490715900565" lon="7.192306416475855"><ele>1042.0</ele><time>2026-04-19T11:56:51Z</time></trkpt><trkpt lat="44.90762197176727" lon="7.192399565041604"><ele>1042.0</ele><time>2026-04-19T11:56:52Z</time></trkpt><trkpt lat="44.907760115306665" lon="7.192495748623198"><ele>1043.3333333333333</ele><time>2026-04-19T11:56:53Z</time></trkpt><trkpt lat="44.90792370534355" lon="7.192558200124902"><ele>1044.6666666666667</ele><time>2026-04-19T11:56:54Z</time></trkpt><trkpt lat="44.90809271627627" lon="7.192610130561276"><ele>1046.0</ele><time>2026-04-19T11:56:55Z</time></trkpt><trkpt lat="44.90825070012343" lon="7.19268090593691"><ele>1051.6666666666667</ele><time>2026-04-19T11:56:56Z</time></trkpt><trkpt lat="44.90841264516264" lon="7.192792456347026"><ele>1057.3333333333333</ele><time>2026-04-19T11:56:57Z</time></trkpt><trkpt lat="44.90855750820524" lon="7.192866134251954"><ele>1063.0</ele><time>2026-04-19T11:56:58Z</time></trkpt><trkpt lat="44.90868618780169" lon="7.192992041405278"><ele>1063.0</ele><time>2026-04-19T11:56:59Z</time></trkpt><trkpt lat="44.90880249763754" lon="7.193111837442525"><ele>1063.0</ele><time>2026-04-19T11:57:00Z</time></trkpt><trkpt lat="44.908921102332805" lon="7.193244052089114"><ele>1063.0</ele><time>2026-04-19T11:57:01Z</time></trkpt><trkpt lat="44.90904528139141" lon="7.193388165074305"><ele>1065.5</ele><time>2026-04-19T11:57:02Z</time></trkpt><trkpt lat="44.90915622559155" lon="7.193517087232835"><ele>1068.0</ele><time>2026-04-19T11:57:03Z</time></trkpt><trkpt lat="44.90926580371757" lon="7.193640747217002"><ele>1070.5</ele><time>2026-04-19T11:57:04Z</time></trkpt><trkpt lat="44.90935571757297" lon="7.193741028212758"><ele>1073.0</ele><time>2026-04-19T11:57:05Z</time></trkpt><trkpt lat="44.90942642366768" lon="7.193871889538822"><ele>1070.5</ele><time>2026-04-19T11:57:06Z</time></trkpt><trkpt lat="44.90944107747468" lon="7.194053067374988"><ele>1068.0</ele><time>2026-04-19T11:57:07Z</time></trkpt><trkpt lat="44.909457357683095" lon="7.194230095092189"><ele>1065.5</ele><time>2026-04-19T11:57:08Z</time></trkpt><trkpt lat="44.909459966013195" lon="7.19439675544041"><ele>1063.0</ele><time>2026-04-19T11:57:09Z</time></trkpt><trkpt lat="44.909418591687285" lon="7.194513127411121"><ele>1063.0</ele><time>2026-04-19T11:57:10Z</time></trkpt><trkpt lat="44.90935911167036" lon="7.194577009796723"><ele>1063.0</ele><time>2026-04-19T11:57:11Z</time></trkpt><trkpt lat="44.90923424313431" lon="7.194563160696199"><ele>1063.0</ele><time>2026-04-19T11:57:12Z</time></trkpt><trkpt lat="44.90910609205871" lon="7.194618298103519"><ele>1063.0</ele><time>2026-04-19T11:57:13Z</time></trkpt><trkpt lat="44.90896314447315" lon="7.194718377264172"><ele>1050.3333333333333</ele><time>2026-04-19T11:57:14Z</time></trkpt><trkpt lat="44.90882416842782" lon="7.194829376454075"><ele>1037.6666666666667</ele><time>2026-04-19T11:57:15Z</time></trkpt><trkpt lat="44.9086740257173" lon="7.194966775054252"><ele>1025.0</ele><time>2026-04-19T11:57:16Z</time></trkpt><trkpt lat="44.90849817389074" lon="7.195069167057605"><ele>1016.5</ele><time>2026-04-19T11:57:17Z</time></trkpt><trkpt lat="44.90835694466027" lon="7.195159908156018"><ele>1008.0</ele><time>2026-04-19T11:57:18Z</time></trkpt><trkpt lat="44.908248920300274" lon="7.195265422500231"><ele>999.5</ele><time>2026-04-19T11:57:19Z</time></trkpt><trkpt lat="44.908175424964945" lon="7.195364946864577"><ele>991.0</ele><time>2026-04-19T11:57:20Z</time></trkpt><trkpt lat="44.90812965831533" lon="7.195495611573501"><ele>991.0</ele><time>2026-04-19T11:57:21Z</time></trkpt><trkpt lat="44.908132046488625" lon="7.195669491308592"><ele>991.0</ele><time>2026-04-19T11:57:22Z</time></trkpt><trkpt lat="44.908124066668556" lon="7.195887593027718"><ele>991.0</ele><time>2026-04-19T11:57:23Z</time></trkpt><trkpt lat="44.90815525124145" lon="7.196120955775758"><ele>991.0</ele><time>2026-04-19T11:57:24Z</time></trkpt><trkpt lat="44.90815856001561" lon="7.196351499719088"><ele>993.3333333333333</ele><time>2026-04-19T11:57:25Z</time></trkpt><trkpt lat="44.908158382192624" lon="7.196587951791841"><ele>995.6666666666667</ele><time>2026-04-19T11:57:26Z</time></trkpt><trkpt lat="44.90817793250462" lon="7.196834685120882"><ele>998.0</ele><time>2026-04-19T11:57:27Z</time></trkpt><trkpt lat="44.90822501838538" lon="7.197085428922922"><ele>998.0</ele><time>2026-04-19T11:57:28Z</time></trkpt><trkpt lat="44.908278871991534" lon="7.197335335873809"><ele>998.0</ele><time>2026-04-19T11:57:29Z</time></trkpt><trkpt lat="44.9083312452781" lon="7.197578459283944"><ele>998.0</ele><time>2026-04-19T11:57:30Z</time></trkpt><trkpt lat="44.908355227677944" lon="7.197819958013709"><ele>994.0</ele><time>2026-04-19T11:57:31Z</time></trkpt><trkpt lat="44.90837219395549" lon="7.198060605059707"><ele>990.0</ele><time>2026-04-19T11:57:32Z</time></trkpt><trkpt lat="44.90837444700759" lon="7.198291971371781"><ele>986.0</ele><time>2026-04-19T11:57:33Z</time></trkpt><trkpt lat="44.908393469228066" lon="7.198491295292783"><ele>984.4</ele><time>2026-04-19T11:57:34Z</time></trkpt><trkpt lat="44.90838981358429" lon="7.198671829516425"><ele>982.8</ele><time>2026-04-19T11:57:35Z</time></trkpt><trkpt lat="44.90837406132026" lon="7.1987979060845495"><ele>981.1999999999999</ele><time>2026-04-19T11:57:36Z</time></trkpt><trkpt lat="44.90829651397613" lon="7.198871065408377"><ele>979.5999999999999</ele><time>2026-04-19T11:57:37Z</time></trkpt><trkpt lat="44.90821281817801" lon="7.198925550598694"><ele>978.0</ele><time>2026-04-19T11:57:38Z</time></trkpt><trkpt lat="44.908107797039385" lon="7.198941205883872"><ele>978.0</ele><time>2026-04-19T11:57:39Z</time></trkpt><trkpt lat="44.907989091189584" lon="7.1988793625251475"><ele>978.0</ele><time>2026-04-19T11:57:40Z</time></trkpt><trkpt lat="44.90783673112064" lon="7.198851953591052"><ele>978.0</ele><time>2026-04-19T11:57:41Z</time></trkpt><trkpt lat="44.907695690755304" lon="7.198863113154109"><ele>978.0</ele><time>2026-04-19T11:57:42Z</time></trkpt><trkpt lat="44.90754785970408" lon="7.198886246412325"><ele>977.0</ele><time>2026-04-19T11:57:43Z</time></trkpt><trkpt lat="44.90739630424713" lon="7.19894721989969"><ele>976.0</ele><time>2026-04-19T11:57:44Z</time></trkpt><trkpt lat="44.90725141107527" lon="7.199038687143478"><ele>975.0</ele><time>2026-04-19T11:57:45Z</time></trkpt><trkpt lat="44.9071187492495" lon="7.199111593995031"><ele>975.0</ele><time>2026-04-19T11:57:46Z</time></trkpt><trkpt lat="44.90700570939996" lon="7.199194317448719"><ele>975.0</ele><time>2026-04-19T11:57:47Z</time></trkpt><trkpt lat="44.90692521332066" lon="7.1993060771912605"><ele>975.0</ele><time>2026-04-19T11:57:48Z</time></trkpt><trkpt lat="44.9068772855159" lon="7.199479397984045"><ele>975.0</ele><time>2026-04-19T11:57:49Z</time></trkpt><trkpt lat="44.90683423336897" lon="7.199693691468955"><ele>984.3333333333333</ele><time>2026-04-19T11:57:50Z</time></trkpt><trkpt lat="44.906801245605976" lon="7.199935294335244"><ele>993.6666666666666</ele><time>2026-04-19T11:57:51Z</time></trkpt><trkpt lat="44.906770581840476" lon="7.200138725095055"><ele>1003.0</ele><time>2026-04-19T11:57:52Z</time></trkpt><trkpt lat="44.90666929003119" lon="7.2003102767949"><ele>991.0</ele><time>2026-04-19T11:57:53Z</time></trkpt><trkpt lat="44.90656706254417" lon="7.200509054722761"><ele>979.0</ele><time>2026-04-19T11:57:54Z</time></trkpt><trkpt lat="44.90645658112981" lon="7.200712203129113"><ele>967.0</ele><time>2026-04-19T11:57:55Z</time></trkpt><trkpt lat="44.90634095807156" lon="7.200934097422979"><ele>967.0</ele><time>2026-04-19T11:57:56Z</time></trkpt><trkpt lat="44.90623046666677" lon="7.201163229605181"><ele>967.0</ele><time>2026-04-19T11:57:57Z</time></trkpt><trkpt lat="44.90613009233375" lon="7.201404469584274"><ele>967.0</ele><time>2026-04-19T11:57:58Z</time></trkpt><trkpt lat="44.90605416395991" lon="7.2016428315876935"><ele>973.3333333333333</ele><time>2026-04-19T11:57:59Z</time></trkpt><trkpt lat="44.90593651546231" lon="7.201829609392603"><ele>979.6666666666667</ele><time>2026-04-19T11:58:00Z</time></trkpt><trkpt lat="44.90581601944156" lon="7.202005773587041"><ele>986.0</ele><time>2026-04-19T11:58:01Z</time></trkpt><trkpt lat="44.9056989214118" lon="7.202189265121158"><ele>973.3333333333334</ele><time>2026-04-19T11:58:02Z</time></trkpt><trkpt lat="44.90559356334614" lon="7.2023820674075925"><ele>960.6666666666667</ele><time>2026-04-19T11:58:03Z</time></trkpt><trkpt lat="44.90548162989601" lon="7.202556056759534"><ele>948.0</ele><time>2026-04-19T11:58:04Z</time></trkpt><trkpt lat="44.9053951984543" lon="7.202740400179968"><ele>948.0</ele><time>2026-04-19T11:58:05Z</time></trkpt><trkpt lat="44.90529532344307" lon="7.202901144780492"><ele>948.0</ele><time>2026-04-19T11:58:06Z</time></trkpt><trkpt lat="44.9051640145765" lon="7.202944731278874"><ele>948.0</ele><time>2026-04-19T11:58:07Z</time></trkpt><trkpt lat="44.905056135679324" lon="7.203019861320075"><ele>948.0</ele><time>2026-04-19T11:58:08Z</time></trkpt><trkpt lat="44.90497213957333" lon="7.203123398136198"><ele>939.5</ele><time>2026-04-19T11:58:09Z</time></trkpt><trkpt lat="44.904944176540944" lon="7.203304261087254"><ele>931.0</ele><time>2026-04-19T11:58:10Z</time></trkpt><trkpt lat="44.90492668087189" lon="7.203487711397637"><ele>922.5</ele><time>2026-04-19T11:58:11Z</time></trkpt><trkpt lat="44.904968691288815" lon="7.2036702020105485"><ele>914.0</ele><time>2026-04-19T11:58:12Z</time></trkpt><trkpt lat="44.90503827193356" lon="7.203856292807058"><ele>923.5</ele><time>2026-04-19T11:58:13Z</time></trkpt><trkpt lat="44.9051196940277" lon="7.204052259148499"><ele>933.0</ele><time>2026-04-19T11:58:14Z</time></trkpt><trkpt lat="44.90518385417858" lon="7.204238999666209"><ele>942.5</ele><time>2026-04-19T11:58:15Z</time></trkpt><trkpt lat="44.90524762352105" lon="7.204401170887825"><ele>952.0</ele><time>2026-04-19T11:58:16Z</time></trkpt><trkpt lat="44.905334013976315" lon="7.2045214536249755"><ele>952.0</ele><time>2026-04-19T11:58:17Z</time></trkpt><trkpt lat="44.9054685725134" lon="7.2046018401851795"><ele>952.0</ele><time>2026-04-19T11:58:18Z</time></trkpt><trkpt lat="44.90561510609189" lon="7.204668261049059"><ele>952.0</ele><time>2026-04-19T11:58:19Z</time></trkpt><trkpt lat="44.90570117515096" lon="7.204744337355395"><ele>952.0</ele><time>2026-04-19T11:58:20Z</time></trkpt><trkpt lat="44.90574718356788" lon="7.204875349619033"><ele>944.6</ele><time>2026-04-19T11:58:21Z</time></trkpt><trkpt lat="44.90584332089959" lon="7.20500599569166"><ele>937.2</ele><time>2026-04-19T11:58:22Z</time></trkpt><trkpt lat="44.905900023583186" lon="7.205062994756946"><ele>929.8</ele><time>2026-04-19T11:58:23Z</time></trkpt><trkpt lat="44.90588227729191" lon="7.205220500989882"><ele>922.4</ele><time>2026-04-19T11:58:25Z</time></trkpt><trkpt lat="44.9058059584335" lon="7.205215064885825"><ele>915.0</ele><time>2026-04-19T11:58:26Z</time></trkpt><trkpt lat="44.90574604582811" lon="7.205160529331829"><ele>915.0</ele><time>2026-04-19T11:58:27Z</time></trkpt><trkpt lat="44.90571883982605" lon="7.205026916075235"><ele>915.0</ele><time>2026-04-19T11:58:28Z</time></trkpt><trkpt lat="44.90565814241759" lon="7.204898922482442"><ele>915.0</ele><time>2026-04-19T11:58:29Z</time></trkpt><trkpt lat="44.90555035479951" lon="7.204788568487066"><ele>915.0</ele><time>2026-04-19T11:58:30Z</time></trkpt><trkpt lat="44.90541031529637" lon="7.204719232007736"><ele>913.6666666666667</ele><time>2026-04-19T11:58:31Z</time></trkpt><trkpt lat="44.90526383886654" lon="7.204630283278742"><ele>912.3333333333334</ele><time>2026-04-19T11:58:32Z</time></trkpt><trkpt lat="44.90513798403915" lon="7.204496959441757"><ele>911.0</ele><time>2026-04-19T11:58:33Z</time></trkpt><trkpt lat="44.90501787546232" lon="7.2043610262767475"><ele>911.0</ele><time>2026-04-19T11:58:34Z</time></trkpt><trkpt lat="44.90488428831824" lon="7.204212906772581"><ele>911.0</ele><time>2026-04-19T11:58:35Z</time></trkpt><trkpt lat="44.90476879144958" lon="7.204037479632781"><ele>911.0</ele><time>2026-04-19T11:58:35.999Z</time></trkpt><trkpt lat="44.90465588052152" lon="7.20388865236224"><ele>911.75</ele><time>2026-04-19T11:58:36.999Z</time></trkpt><trkpt lat="44.904554474032956" lon="7.203759163957126"><ele>912.5</ele><time>2026-04-19T11:58:37.999Z</time></trkpt><trkpt lat="44.904461032359556" lon="7.203633561599675"><ele>913.25</ele><time>2026-04-19T11:58:38.999Z</time></trkpt><trkpt lat="44.90441011752892" lon="7.203489867590648"><ele>914.0</ele><time>2026-04-19T11:58:39.999Z</time></trkpt><trkpt lat="44.9043950736138" lon="7.203330487771691"><ele>910.25</ele><time>2026-04-19T11:58:40.999Z</time></trkpt><trkpt lat="44.9044084631316" lon="7.203153601266465"><ele>906.5</ele><time>2026-04-19T11:58:41.999Z</time></trkpt><trkpt lat="44.90443312233627" lon="7.202981606212239"><ele>902.75</ele><time>2026-04-19T11:58:42.999Z</time></trkpt><trkpt lat="44.90451413472257" lon="7.202841408204855"><ele>899.0</ele><time>2026-04-19T11:58:44Z</time></trkpt><trkpt lat="44.904625308387764" lon="7.202679250757465"><ele>899.0</ele><time>2026-04-19T11:58:45Z</time></trkpt><trkpt lat="44.90474002305849" lon="7.202509528102921"><ele>899.0</ele><time>2026-04-19T11:58:46Z</time></trkpt><trkpt lat="44.90484283311665" lon="7.202309295354811"><ele>899.0</ele><time>2026-04-19T11:58:47Z</time></trkpt><trkpt lat="44.90494421674676" lon="7.202102892128665"><ele>901.0</ele><time>2026-04-19T11:58:48Z</time></trkpt><trkpt lat="44.90502121606996" lon="7.201892641336412"><ele>903.0</ele><time>2026-04-19T11:58:49Z</time></trkpt><trkpt lat="44.905085889326486" lon="7.201690918424346"><ele>905.0</ele><time>2026-04-19T11:58:50Z</time></trkpt><trkpt lat="44.90515368975723" lon="7.201482422785574"><ele>905.0</ele><time>2026-04-19T11:58:51Z</time></trkpt><trkpt lat="44.90516156016331" lon="7.20125567181219"><ele>905.0</ele><time>2026-04-19T11:58:52Z</time></trkpt><trkpt lat="44.905192843515806" lon="7.201028739531965"><ele>905.0</ele><time>2026-04-19T11:58:53Z</time></trkpt><trkpt lat="44.90520716047328" lon="7.200801570588978"><ele>900.5</ele><time>2026-04-19T11:58:54Z</time></trkpt><trkpt lat="44.905221845243034" lon="7.200568564777005"><ele>896.0</ele><time>2026-04-19T11:58:55Z</time></trkpt><trkpt lat="44.90521475660739" lon="7.200363405642007"><ele>891.5</ele><time>2026-04-19T11:58:56Z</time></trkpt><trkpt lat="44.905238732092464" lon="7.200198260872599"><ele>887.0</ele><time>2026-04-19T11:58:57Z</time></trkpt><trkpt lat="44.905300101476094" lon="7.200084324700309"><ele>887.0</ele><time>2026-04-19T11:58:58Z</time></trkpt><trkpt lat="44.905373265917" lon="7.199984922710933"><ele>887.0</ele><time>2026-04-19T11:58:59Z</time></trkpt><trkpt lat="44.9054742107613" lon="7.199882518215282"><ele>887.0</ele><time>2026-04-19T11:59:00Z</time></trkpt><trkpt lat="44.90558269484132" lon="7.1997515792991695"><ele>887.0</ele><time>2026-04-19T11:59:01Z</time></trkpt><trkpt lat="44.90567471702994" lon="7.199616124808887"><ele>880.25</ele><time>2026-04-19T11:59:02Z</time></trkpt><trkpt lat="44.90573341136181" lon="7.199454378707548"><ele>873.5</ele><time>2026-04-19T11:59:03Z</time></trkpt><trkpt lat="44.90574942704474" lon="7.199255504814191"><ele>866.75</ele><time>2026-04-19T11:59:04Z</time></trkpt><trkpt lat="44.90573322839908" lon="7.199055332898258"><ele>860.0</ele><time>2026-04-19T11:59:05Z</time></trkpt><trkpt lat="44.90577765055977" lon="7.1988889004133"><ele>855.8</ele><time>2026-04-19T11:59:06Z</time></trkpt><trkpt lat="44.90583230077912" lon="7.198757797192257"><ele>851.6</ele><time>2026-04-19T11:59:07Z</time></trkpt><trkpt lat="44.90592755965766" lon="7.1986661116420425"><ele>847.4000000000001</ele><time>2026-04-19T11:59:08Z</time></trkpt><trkpt lat="44.90602407904546" lon="7.198568945543344"><ele>843.2</ele><time>2026-04-19T11:59:09Z</time></trkpt><trkpt lat="44.90608678355606" lon="7.1984682572725776"><ele>839.0</ele><time>2026-04-19T11:59:10Z</time></trkpt><trkpt lat="44.90613274495289" lon="7.198331628540123"><ele>851.0</ele><time>2026-04-19T11:59:11Z</time></trkpt><trkpt lat="44.90612484498497" lon="7.19815991308705"><ele>863.0</ele><time>2026-04-19T11:59:12Z</time></trkpt><trkpt lat="44.90606475001244" lon="7.197987936275624"><ele>875.0</ele><time>2026-04-19T11:59:13Z</time></trkpt><trkpt lat="44.9059962144364" lon="7.19779234792358"><ele>887.0</ele><time>2026-04-19T11:59:14Z</time></trkpt><trkpt lat="44.90592025370113" lon="7.197581137714931"><ele>878.0</ele><time>2026-04-19T11:59:15Z</time></trkpt><trkpt lat="44.905837029457686" lon="7.197367184091374"><ele>869.0</ele><time>2026-04-19T11:59:16Z</time></trkpt><trkpt lat="44.905745335697915" lon="7.197177554256169"><ele>860.0</ele><time>2026-04-19T11:59:17Z</time></trkpt><trkpt lat="44.90565268172907" lon="7.196991864271761"><ele>860.0</ele><time>2026-04-19T11:59:18Z</time></trkpt><trkpt lat="44.90556783015715" lon="7.196785724803377"><ele>860.0</ele><time>2026-04-19T11:59:19Z</time></trkpt><trkpt lat="44.90548385773377" lon="7.19657189426932"><ele>860.0</ele><time>2026-04-19T11:59:20Z</time></trkpt><trkpt lat="44.90540554989431" lon="7.196372493438925"><ele>866.75</ele><time>2026-04-19T11:59:21Z</time></trkpt><trkpt lat="44.90533406777658" lon="7.196179577092194"><ele>873.5</ele><time>2026-04-19T11:59:22Z</time></trkpt><trkpt lat="44.90526830302046" lon="7.1959869005617865"><ele>880.25</ele><time>2026-04-19T11:59:23Z</time></trkpt><trkpt lat="44.90522979683314" lon="7.195792833119476"><ele>887.0</ele><time>2026-04-19T11:59:24Z</time></trkpt><trkpt lat="44.90521018648718" lon="7.195620265978274"><ele>887.0</ele><time>2026-04-19T11:59:25Z</time></trkpt><trkpt lat="44.90518764412383" lon="7.195493754102219"><ele>887.0</ele><time>2026-04-19T11:59:26Z</time></trkpt><trkpt lat="44.90514569314009" lon="7.195421229954249"><ele>887.0</ele><time>2026-04-19T11:59:27Z</time></trkpt><trkpt lat="44.90500598827532" lon="7.195547983915223"><ele>887.0</ele><time>2026-04-19T11:59:30Z</time></trkpt><trkpt lat="44.90504017069367" lon="7.195705554032338"><ele>887.0</ele><time>2026-04-19T11:59:31Z</time></trkpt><trkpt lat="44.9051287022227" lon="7.195842731438246"><ele>887.0</ele><time>2026-04-19T11:59:32Z</time></trkpt><trkpt lat="44.90517433664918" lon="7.196031514633773"><ele>887.0</ele><time>2026-04-19T11:59:33Z</time></trkpt><trkpt lat="44.90523192238611" lon="7.196221492466967"><ele>887.0</ele><time>2026-04-19T11:59:34Z</time></trkpt><trkpt lat="44.90529662120603" lon="7.196437221640321"><ele>878.0</ele><time>2026-04-19T11:59:35Z</time></trkpt><trkpt lat="44.905318839736616" lon="7.1966761899034575"><ele>869.0</ele><time>2026-04-19T11:59:36Z</time></trkpt><trkpt lat="44.905342639987786" lon="7.196935138997008"><ele>860.0</ele><time>2026-04-19T11:59:37Z</time></trkpt><trkpt lat="44.9053744295593" lon="7.197197325518706"><ele>853.3333333333334</ele><time>2026-04-19T11:59:38Z</time></trkpt><trkpt lat="44.90539352899014" lon="7.197436739392105"><ele>846.6666666666667</ele><time>2026-04-19T11:59:39Z</time></trkpt><trkpt lat="44.90541122522097" lon="7.197663472480867"><ele>840.0</ele><time>2026-04-19T11:59:40Z</time></trkpt><trkpt lat="44.90541593489164" lon="7.197882025148301"><ele>840.0</ele><time>2026-04-19T11:59:41Z</time></trkpt><trkpt lat="44.905423955590166" lon="7.198092613492048"><ele>840.0</ele><time>2026-04-19T11:59:42Z</time></trkpt><trkpt lat="44.9054253632138" lon="7.198263783071184"><ele>840.0</ele><time>2026-04-19T11:59:43Z</time></trkpt><trkpt lat="44.905380367687236" lon="7.198443377480012"><ele>840.0</ele><time>2026-04-19T11:59:44Z</time></trkpt><trkpt lat="44.90527314413666" lon="7.198558264979329"><ele>839.6666666666667</ele><time>2026-04-19T11:59:45Z</time></trkpt><trkpt lat="44.90516451221066" lon="7.198702410059587"><ele>839.3333333333334</ele><time>2026-04-19T11:59:46Z</time></trkpt><trkpt lat="44.90504382764805" lon="7.198860696317006"><ele>839.0</ele><time>2026-04-19T11:59:47Z</time></trkpt><trkpt lat="44.90492894468778" lon="7.199014182639542"><ele>830.6666666666667</ele><time>2026-04-19T11:59:48Z</time></trkpt><trkpt lat="44.9048177405881" lon="7.199201071752739"><ele>822.3333333333333</ele><time>2026-04-19T11:59:49Z</time></trkpt><trkpt lat="44.90470213134713" lon="7.19935691666666"><ele>814.0</ele><time>2026-04-19T11:59:50Z</time></trkpt><trkpt lat="44.90461167558292" lon="7.199516156229148"><ele>814.0</ele><time>2026-04-19T11:59:51Z</time></trkpt><trkpt lat="44.9045211728842" lon="7.199687355142031"><ele>814.0</ele><time>2026-04-19T11:59:52Z</time></trkpt><trkpt lat="44.904440107178985" lon="7.199841453943703"><ele>814.0</ele><time>2026-04-19T11:59:53Z</time></trkpt><trkpt lat="44.904347090200915" lon="7.19999526999748"><ele>814.0</ele><time>2026-04-19T11:59:54Z</time></trkpt><trkpt lat="44.90425188941576" lon="7.20016424786437"><ele>811.0</ele><time>2026-04-19T11:59:55Z</time></trkpt><trkpt lat="44.90415033107773" lon="7.200316477113028"><ele>808.0</ele><time>2026-04-19T11:59:56Z</time></trkpt><trkpt lat="44.904053504584226" lon="7.200457238682701"><ele>805.0</ele><time>2026-04-19T11:59:57Z</time></trkpt><trkpt lat="44.904035571210244" lon="7.200669489753588"><ele>802.0</ele><time>2026-04-19T11:59:58Z</time></trkpt><trkpt lat="44.90399780489605" lon="7.200869829189835"><ele>802.0</ele><time>2026-04-19T11:59:59Z</time></trkpt><trkpt lat="44.90384283223697" lon="7.200930998138707"><ele>802.0</ele><time>2026-04-19T12:00:00Z</time></trkpt><trkpt lat="44.9037011606505" lon="7.2011335582289915"><ele>802.0</ele><time>2026-04-19T12:00:01Z</time></trkpt><trkpt lat="44.90357749857926" lon="7.201371304370924"><ele>812.0</ele><time>2026-04-19T12:00:02Z</time></trkpt><trkpt lat="44.90343056632294" lon="7.201609170103931"><ele>822.0</ele><time>2026-04-19T12:00:03Z</time></trkpt><trkpt lat="44.9032773637131" lon="7.201845248933586"><ele>816.6666666666667</ele><time>2026-04-19T12:00:04Z</time></trkpt><trkpt lat="44.903138967344326" lon="7.20204180182891"><ele>811.3333333333334</ele><time>2026-04-19T12:00:05Z</time></trkpt><trkpt lat="44.902995953121014" lon="7.202230656269808"><ele>806.0</ele><time>2026-04-19T12:00:06Z</time></trkpt><trkpt lat="44.902891666204575" lon="7.202369665983997"><ele>806.0</ele><time>2026-04-19T12:00:07Z</time></trkpt><trkpt lat="44.90278846561736" lon="7.202477998269227"><ele>806.0</ele><time>2026-04-19T12:00:08Z</time></trkpt><trkpt lat="44.90270272462731" lon="7.202610499862808"><ele>806.0</ele><time>2026-04-19T12:00:09Z</time></trkpt><trkpt lat="44.90264606094691" lon="7.202773712480394"><ele>806.0</ele><time>2026-04-19T12:00:10Z</time></trkpt><trkpt lat="44.902639645838796" lon="7.202951564872058"><ele>806.0</ele><time>2026-04-19T12:00:11Z</time></trkpt><trkpt lat="44.90266491931978" lon="7.2031396075103125"><ele>806.0</ele><time>2026-04-19T12:00:11.999Z</time></trkpt><trkpt lat="44.90269931141113" lon="7.203334043374624"><ele>806.0</ele><time>2026-04-19T12:00:12.999Z</time></trkpt><trkpt lat="44.90270369704723" lon="7.203553652608848"><ele>806.0</ele><time>2026-04-19T12:00:13.999Z</time></trkpt><trkpt lat="44.902694594460044" lon="7.203749457479338"><ele>807.0</ele><time>2026-04-19T12:00:14.999Z</time></trkpt><trkpt lat="44.902714068132944" lon="7.203941611333635"><ele>808.0</ele><time>2026-04-19T12:00:15.999Z</time></trkpt><trkpt lat="44.902763362448106" lon="7.20414162373428"><ele>809.0</ele><time>2026-04-19T12:00:16.999Z</time></trkpt><trkpt lat="44.902827483131155" lon="7.2043446381555505"><ele>810.0</ele><time>2026-04-19T12:00:17.999Z</time></trkpt><trkpt lat="44.90292477194453" lon="7.204521455926156"><ele>810.0</ele><time>2026-04-19T12:00:18.999Z</time></trkpt><trkpt lat="44.90305242464943" lon="7.204692230061631"><ele>810.0</ele><time>2026-04-19T12:00:19.999Z</time></trkpt><trkpt lat="44.903187527852346" lon="7.204857660337506"><ele>810.0</ele><time>2026-04-19T12:00:20.999Z</time></trkpt><trkpt lat="44.9033087285845" lon="7.205004593621808"><ele>806.5</ele><time>2026-04-19T12:00:21.999Z</time></trkpt><trkpt lat="44.903425048157615" lon="7.2051159721884614"><ele>803.0</ele><time>2026-04-19T12:00:22.999Z</time></trkpt><trkpt lat="44.90351205863172" lon="7.205261093135784"><ele>799.5</ele><time>2026-04-19T12:00:23.999Z</time></trkpt><trkpt lat="44.903530773843706" lon="7.205467143564393"><ele>796.0</ele><time>2026-04-19T12:00:24.999Z</time></trkpt><trkpt lat="44.90359316599364" lon="7.205679189311343"><ele>796.0</ele><time>2026-04-19T12:00:25.999Z</time></trkpt><trkpt lat="44.903634772124114" lon="7.205889575336459"><ele>796.0</ele><time>2026-04-19T12:00:26.999Z</time></trkpt><trkpt lat="44.90369112872802" lon="7.206051889785977"><ele>796.0</ele><time>2026-04-19T12:00:27.999Z</time></trkpt><trkpt lat="44.90377778853127" lon="7.206177978301143"><ele>796.0</ele><time>2026-04-19T12:00:28.999Z</time></trkpt><trkpt lat="44.90388807746523" lon="7.206303124409111"><ele>796.0</ele><time>2026-04-19T12:00:29.999Z</time></trkpt><trkpt lat="44.90397192052093" lon="7.206450001104458"><ele>796.0</ele><time>2026-04-19T12:00:30.999Z</time></trkpt><trkpt lat="44.90404968397503" lon="7.206639068602187"><ele>796.0</ele><time>2026-04-19T12:00:31.999Z</time></trkpt><trkpt lat="44.90411194889567" lon="7.206863450264717"><ele>796.6666666666666</ele><time>2026-04-19T12:00:32.999Z</time></trkpt><trkpt lat="44.90416829867712" lon="7.207104616341425"><ele>797.3333333333333</ele><time>2026-04-19T12:00:33.999Z</time></trkpt><trkpt lat="44.90421119977905" lon="7.207357010886827"><ele>798.0</ele><time>2026-04-19T12:00:34.999Z</time></trkpt><trkpt lat="44.90426700251627" lon="7.207587612458896"><ele>798.0</ele><time>2026-04-19T12:00:35.999Z</time></trkpt><trkpt lat="44.90428520876284" lon="7.20782009966667"><ele>798.0</ele><time>2026-04-19T12:00:36.999Z</time></trkpt><trkpt lat="44.90429310413359" lon="7.208043084955157"><ele>798.0</ele><time>2026-04-19T12:00:37.999Z</time></trkpt><trkpt lat="44.904317911425174" lon="7.208243292411426"><ele>786.3333333333334</ele><time>2026-04-19T12:00:38.999Z</time></trkpt><trkpt lat="44.9043798543609" lon="7.208435309108415"><ele>774.6666666666667</ele><time>2026-04-19T12:00:39.999Z</time></trkpt><trkpt lat="44.90448157776213" lon="7.2086222091904"><ele>763.0</ele><time>2026-04-19T12:00:40.999Z</time></trkpt><trkpt lat="44.904604345528455" lon="7.208774933355752"><ele>763.0</ele><time>2026-04-19T12:00:41.999Z</time></trkpt><trkpt lat="44.904758344138266" lon="7.208898448484181"><ele>763.0</ele><time>2026-04-19T12:00:42.999Z</time></trkpt><trkpt lat="44.90490023079036" lon="7.209026379837633"><ele>763.0</ele><time>2026-04-19T12:00:43.999Z</time></trkpt><trkpt lat="44.90503076335672" lon="7.209124403986955"><ele>753.3333333333334</ele><time>2026-04-19T12:00:44.999Z</time></trkpt><trkpt lat="44.90516820065728" lon="7.209198050770341"><ele>743.6666666666666</ele><time>2026-04-19T12:00:45.999Z</time></trkpt><trkpt lat="44.90532513397235" lon="7.209241780979797"><ele>734.0</ele><time>2026-04-19T12:00:46.999Z</time></trkpt><trkpt lat="44.90547965601438" lon="7.20927576125268"><ele>734.0</ele><time>2026-04-19T12:00:47.999Z</time></trkpt><trkpt lat="44.90561593966458" lon="7.209339745379586"><ele>734.0</ele><time>2026-04-19T12:00:48.999Z</time></trkpt><trkpt lat="44.90573126459982" lon="7.209402188407016"><ele>734.0</ele><time>2026-04-19T12:00:50Z</time></trkpt><trkpt lat="44.90583184649192" lon="7.20943938047431"><ele>734.0</ele><time>2026-04-19T12:00:51Z</time></trkpt><trkpt lat="44.905900251596066" lon="7.209473098652982"><ele>734.0</ele><time>2026-04-19T12:00:52Z</time></trkpt><trkpt lat="44.90592158139581" lon="7.209584969037405"><ele>734.0</ele><time>2026-04-19T12:00:54Z</time></trkpt><trkpt lat="44.90584133468626" lon="7.209639487297858"><ele>734.0</ele><time>2026-04-19T12:00:55Z</time></trkpt><trkpt lat="44.905778208679074" lon="7.209550166507025"><ele>734.0</ele><time>2026-04-19T12:00:56Z</time></trkpt><trkpt lat="44.905702669433815" lon="7.209474798527695"><ele>734.0</ele><time>2026-04-19T12:00:57Z</time></trkpt><trkpt lat="44.90559760013341" lon="7.209404226506372"><ele>734.0</ele><time>2026-04-19T12:00:58Z</time></trkpt><trkpt lat="44.90546926650178" lon="7.209351835175032"><ele>734.0</ele><time>2026-04-19T12:00:59Z</time></trkpt><trkpt lat="44.90533657544077" lon="7.209373391469978"><ele>734.0</ele><time>2026-04-19T12:01:00Z</time></trkpt><trkpt lat="44.90519227811215" lon="7.209393720198399"><ele>734.0</ele><time>2026-04-19T12:01:01Z</time></trkpt><trkpt lat="44.90504518841567" lon="7.209408978634156"><ele>734.0</ele><time>2026-04-19T12:01:02Z</time></trkpt><trkpt lat="44.90489685620707" lon="7.20935793256515"><ele>731.5</ele><time>2026-04-19T12:01:03Z</time></trkpt><trkpt lat="44.9047452169648" lon="7.209308574260377"><ele>729.0</ele><time>2026-04-19T12:01:04Z</time></trkpt><trkpt lat="44.904603203901495" lon="7.209265916969723"><ele>726.5</ele><time>2026-04-19T12:01:05Z</time></trkpt><trkpt lat="44.90446298195522" lon="7.209227110366271"><ele>724.0</ele><time>2026-04-19T12:01:06Z</time></trkpt><trkpt lat="44.904334336309724" lon="7.209179943417447"><ele>722.5</ele><time>2026-04-19T12:01:07Z</time></trkpt><trkpt lat="44.90421513761809" lon="7.209119437643166"><ele>721.0</ele><time>2026-04-19T12:01:08Z</time></trkpt><trkpt lat="44.90412852877353" lon="7.209037198791047"><ele>719.5</ele><time>2026-04-19T12:01:09Z</time></trkpt><trkpt lat="44.90407275234629" lon="7.208910369287876"><ele>718.0</ele><time>2026-04-19T12:01:10Z</time></trkpt><trkpt lat="44.90403340343869" lon="7.208751845627832"><ele>718.0</ele><time>2026-04-19T12:01:11Z</time></trkpt><trkpt lat="44.90398761365807" lon="7.208554730822718"><ele>718.0</ele><time>2026-04-19T12:01:12Z</time></trkpt><trkpt lat="44.903941042831185" lon="7.208342008418763"><ele>718.0</ele><time>2026-04-19T12:01:13Z</time></trkpt><trkpt lat="44.903890741879515" lon="7.208139980384415"><ele>723.75</ele><time>2026-04-19T12:01:14Z</time></trkpt><trkpt lat="44.903862618243" lon="7.207950738270923"><ele>729.5</ele><time>2026-04-19T12:01:15Z</time></trkpt><trkpt lat="44.90381843131468" lon="7.207757833511153"><ele>735.25</ele><time>2026-04-19T12:01:16Z</time></trkpt><trkpt lat="44.903750833164125" lon="7.20758225353979"><ele>741.0</ele><time>2026-04-19T12:01:17Z</time></trkpt><trkpt lat="44.90365514995319" lon="7.207450129196737"><ele>747.25</ele><time>2026-04-19T12:01:18Z</time></trkpt><trkpt lat="44.903577899529026" lon="7.207309636036098"><ele>753.5</ele><time>2026-04-19T12:01:19Z</time></trkpt><trkpt lat="44.903484361054" lon="7.207183211461342"><ele>759.75</ele><time>2026-04-19T12:01:20Z</time></trkpt><trkpt lat="44.903401586007035" lon="7.207036848776427"><ele>766.0</ele><time>2026-04-19T12:01:21Z</time></trkpt><trkpt lat="44.90331280992648" lon="7.2069085506262125"><ele>759.75</ele><time>2026-04-19T12:01:22Z</time></trkpt><trkpt lat="44.903235977858486" lon="7.206770977400196"><ele>753.5</ele><time>2026-04-19T12:01:23Z</time></trkpt><trkpt lat="44.90313860810412" lon="7.206653440903552"><ele>747.25</ele><time>2026-04-19T12:01:24Z</time></trkpt><trkpt lat="44.90305152133503" lon="7.206532069848909"><ele>741.0</ele><time>2026-04-19T12:01:25Z</time></trkpt><trkpt lat="44.9029658968975" lon="7.206412457745246"><ele>741.0</ele><time>2026-04-19T12:01:26Z</time></trkpt><trkpt lat="44.90287696571281" lon="7.206292715521627"><ele>741.0</ele><time>2026-04-19T12:01:27Z</time></trkpt><trkpt lat="44.90278133488053" lon="7.206191708343961"><ele>741.0</ele><time>2026-04-19T12:01:28Z</time></trkpt><trkpt lat="44.90268618930661" lon="7.2060959725429345"><ele>741.0</ele><time>2026-04-19T12:01:29Z</time></trkpt><trkpt lat="44.902601658160286" lon="7.206030580675262"><ele>732.8333333333334</ele><time>2026-04-19T12:01:30Z</time></trkpt><trkpt lat="44.902509655534274" lon="7.205987330079088"><ele>724.6666666666666</ele><time>2026-04-19T12:01:31Z</time></trkpt><trkpt lat="44.902430145495345" lon="7.2059999601022415"><ele>716.5</ele><time>2026-04-19T12:01:32Z</time></trkpt><trkpt lat="44.902371793735256" lon="7.206070282100412"><ele>708.3333333333333</ele><time>2026-04-19T12:01:33Z</time></trkpt><trkpt lat="44.90233452873143" lon="7.206175731391817"><ele>700.1666666666666</ele><time>2026-04-19T12:01:34Z</time></trkpt><trkpt lat="44.90234735557579" lon="7.206308213805379"><ele>692.0</ele><time>2026-04-19T12:01:35Z</time></trkpt><trkpt lat="44.902405341660874" lon="7.206435240168676"><ele>689.25</ele><time>2026-04-19T12:01:36Z</time></trkpt><trkpt lat="44.9024839504657" lon="7.20656112195382"><ele>686.5</ele><time>2026-04-19T12:01:37Z</time></trkpt><trkpt lat="44.90257605087931" lon="7.206694953154595"><ele>683.75</ele><time>2026-04-19T12:01:38Z</time></trkpt><trkpt lat="44.902663763914774" lon="7.206859470237391"><ele>681.0</ele><time>2026-04-19T12:01:39Z</time></trkpt><trkpt lat="44.90274917579291" lon="7.207043541705267"><ele>682.0</ele><time>2026-04-19T12:01:40Z</time></trkpt><trkpt lat="44.902822902395705" lon="7.207249502203217"><ele>683.0</ele><time>2026-04-19T12:01:41Z</time></trkpt><trkpt lat="44.902884266547076" lon="7.207475344775128"><ele>684.0</ele><time>2026-04-19T12:01:42Z</time></trkpt><trkpt lat="44.90291652554142" lon="7.207728302251052"><ele>684.0</ele><time>2026-04-19T12:01:43Z</time></trkpt><trkpt lat="44.90292354484126" lon="7.207997849666273"><ele>684.0</ele><time>2026-04-19T12:01:44Z</time></trkpt><trkpt lat="44.90292473860434" lon="7.2082605737013825"><ele>684.0</ele><time>2026-04-19T12:01:45Z</time></trkpt><trkpt lat="44.90293658860141" lon="7.208532595946443"><ele>681.6666666666666</ele><time>2026-04-19T12:01:46Z</time></trkpt><trkpt lat="44.90294804001004" lon="7.208795759496409"><ele>679.3333333333333</ele><time>2026-04-19T12:01:47Z</time></trkpt><trkpt lat="44.90295887568961" lon="7.209056946813978"><ele>677.0</ele><time>2026-04-19T12:01:48Z</time></trkpt><trkpt lat="44.9029708629878" lon="7.209309954574194"><ele>673.0</ele><time>2026-04-19T12:01:49Z</time></trkpt><trkpt lat="44.9029823929642" lon="7.209549137458232"><ele>669.0</ele><time>2026-04-19T12:01:50Z</time></trkpt><trkpt lat="44.90299523022393" lon="7.209789890743443"><ele>665.0</ele><time>2026-04-19T12:01:51Z</time></trkpt><trkpt lat="44.90300512228378" lon="7.210006716721616"><ele>662.5</ele><time>2026-04-19T12:01:52Z</time></trkpt><trkpt lat="44.9030131271571" lon="7.210203835021545"><ele>660.0</ele><time>2026-04-19T12:01:53Z</time></trkpt><trkpt lat="44.903017097724145" lon="7.210370870809303"><ele>657.5</ele><time>2026-04-19T12:01:54Z</time></trkpt><trkpt lat="44.90302257753794" lon="7.210499950056255"><ele>655.0</ele><time>2026-04-19T12:01:55Z</time></trkpt><trkpt lat="44.90302284624179" lon="7.21066202415463"><ele>654.5</ele><time>2026-04-19T12:01:57Z</time></trkpt><trkpt lat="44.903014570062446" lon="7.21076534683129"><ele>654.0</ele><time>2026-04-19T12:01:59Z</time></trkpt><trkpt lat="44.90303652200943" lon="7.210865412363595"><ele>653.5</ele><time>2026-04-19T12:04:08Z</time></trkpt><trkpt lat="44.90304279445395" lon="7.2109827968071745"><ele>653.0</ele><time>2026-04-19T12:04:09Z</time></trkpt><trkpt lat="44.903047468717766" lon="7.211123606484882"><ele>652.5</ele><time>2026-04-19T12:04:10Z</time></trkpt><trkpt lat="44.9030514755499" lon="7.2112816626612855"><ele>652.0</ele><time>2026-04-19T12:04:11Z</time></trkpt><trkpt lat="44.90305607478731" lon="7.211461462012516"><ele>651.0</ele><time>2026-04-19T12:04:12Z</time></trkpt><trkpt lat="44.90306231926525" lon="7.21167809386656"><ele>650.0</ele><time>2026-04-19T12:04:13Z</time></trkpt><trkpt lat="44.903069562929666" lon="7.211929388279034"><ele>649.0</ele><time>2026-04-19T12:04:14Z</time></trkpt><trkpt lat="44.90308039141103" lon="7.212222836593449"><ele>649.6666666666667</ele><time>2026-04-19T12:04:15Z</time></trkpt><trkpt lat="44.90309551359131" lon="7.2124858258406634"><ele>650.3333333333334</ele><time>2026-04-19T12:04:16Z</time></trkpt><trkpt lat="44.903108146148575" lon="7.212742200746264"><ele>651.0</ele><time>2026-04-19T12:04:17Z</time></trkpt><trkpt lat="44.90310259952138" lon="7.213002694352674"><ele>651.6666666666666</ele><time>2026-04-19T12:04:18Z</time></trkpt><trkpt lat="44.90308221508782" lon="7.213264451023501"><ele>652.3333333333333</ele><time>2026-04-19T12:04:19Z</time></trkpt><trkpt lat="44.90303808194318" lon="7.213517850059769"><ele>653.0</ele><time>2026-04-19T12:04:20Z</time></trkpt><trkpt lat="44.902974377847436" lon="7.213784317094746"><ele>654.6666666666666</ele><time>2026-04-19T12:04:21Z</time></trkpt><trkpt lat="44.90290898017731" lon="7.214052376975323"><ele>656.3333333333334</ele><time>2026-04-19T12:04:22Z</time></trkpt><trkpt lat="44.9028452173752" lon="7.214308462868173"><ele>658.0</ele><time>2026-04-19T12:04:23Z</time></trkpt><trkpt lat="44.90277234913513" lon="7.214582175071437"><ele>659.3333333333334</ele><time>2026-04-19T12:04:24Z</time></trkpt><trkpt lat="44.90272319437504" lon="7.214888770238862"><ele>660.6666666666666</ele><time>2026-04-19T12:04:25Z</time></trkpt><trkpt lat="44.90268889605505" lon="7.215191620152603"><ele>662.0</ele><time>2026-04-19T12:04:26Z</time></trkpt><trkpt lat="44.902662264782585" lon="7.21546008194271"><ele>662.0</ele><time>2026-04-19T12:04:27Z</time></trkpt><trkpt lat="44.902635196375684" lon="7.215683266704669"><ele>662.0</ele><time>2026-04-19T12:04:28Z</time></trkpt><trkpt lat="44.90261547764573" lon="7.215898127638516"><ele>662.0</ele><time>2026-04-19T12:04:29Z</time></trkpt><trkpt lat="44.90260975444583" lon="7.216112727468835"><ele>662.0</ele><time>2026-04-19T12:04:30Z</time></trkpt><trkpt lat="44.90264454114538" lon="7.21636391081663"><ele>662.0</ele><time>2026-04-19T12:04:31Z</time></trkpt><trkpt lat="44.902697731572395" lon="7.216601227930688"><ele>662.0</ele><time>2026-04-19T12:04:32Z</time></trkpt><trkpt lat="44.90273507105749" lon="7.216820279784925"><ele>662.0</ele><time>2026-04-19T12:04:33Z</time></trkpt><trkpt lat="44.9027404747235" lon="7.217034917937584"><ele>662.0</ele><time>2026-04-19T12:04:34Z</time></trkpt><trkpt lat="44.90272327885109" lon="7.2172798709375865"><ele>662.0</ele><time>2026-04-19T12:04:35Z</time></trkpt><trkpt lat="44.90267973698025" lon="7.217563124691124"><ele>660.6666666666666</ele><time>2026-04-19T12:04:36Z</time></trkpt><trkpt lat="44.902635859548525" lon="7.217856423647482"><ele>659.3333333333334</ele><time>2026-04-19T12:04:37Z</time></trkpt><trkpt lat="44.90259825146453" lon="7.218149898801359"><ele>658.0</ele><time>2026-04-19T12:04:38Z</time></trkpt><trkpt lat="44.90256798708492" lon="7.218434347632814"><ele>643.6666666666667</ele><time>2026-04-19T12:04:39Z</time></trkpt><trkpt lat="44.902530956831804" lon="7.218714812547077"><ele>629.3333333333334</ele><time>2026-04-19T12:04:40Z</time></trkpt><trkpt lat="44.90247574612074" lon="7.218990636070727"><ele>615.0</ele><time>2026-04-19T12:04:41Z</time></trkpt><trkpt lat="44.90240620488653" lon="7.219267559950136"><ele>615.0</ele><time>2026-04-19T12:04:42Z</time></trkpt><trkpt lat="44.90232588308556" lon="7.219543261859525"><ele>615.0</ele><time>2026-04-19T12:04:43Z</time></trkpt><trkpt lat="44.902227597032834" lon="7.219801037456496"><ele>615.0</ele><time>2026-04-19T12:04:44Z</time></trkpt><trkpt lat="44.902113153752616" lon="7.220020346133571"><ele>617.6666666666666</ele><time>2026-04-19T12:04:45Z</time></trkpt><trkpt lat="44.90198922978515" lon="7.220219672434557"><ele>620.3333333333333</ele><time>2026-04-19T12:04:46Z</time></trkpt><trkpt lat="44.901846718082275" lon="7.220411743543488"><ele>623.0</ele><time>2026-04-19T12:04:47Z</time></trkpt><trkpt lat="44.901727471793684" lon="7.220647930051401"><ele>616.6666666666666</ele><time>2026-04-19T12:04:48Z</time></trkpt><trkpt lat="44.90161370200461" lon="7.22088784281577"><ele>610.3333333333334</ele><time>2026-04-19T12:04:49Z</time></trkpt><trkpt lat="44.90151563072539" lon="7.221138527860804"><ele>604.0</ele><time>2026-04-19T12:04:50Z</time></trkpt><trkpt lat="44.90143494527327" lon="7.221407154424711"><ele>604.6666666666667</ele><time>2026-04-19T12:04:51Z</time></trkpt><trkpt lat="44.90136034966528" lon="7.221660413467862"><ele>605.3333333333334</ele><time>2026-04-19T12:04:52Z</time></trkpt><trkpt lat="44.90132234536324" lon="7.221923575461793"><ele>606.0</ele><time>2026-04-19T12:04:53Z</time></trkpt><trkpt lat="44.9013148543748" lon="7.222193389429274"><ele>607.6666666666666</ele><time>2026-04-19T12:04:54Z</time></trkpt><trkpt lat="44.90132222774522" lon="7.222464203253774"><ele>609.3333333333333</ele><time>2026-04-19T12:04:55Z</time></trkpt><trkpt lat="44.90133220634408" lon="7.222730856679934"><ele>611.0</ele><time>2026-04-19T12:04:56Z</time></trkpt><trkpt lat="44.90134623425318" lon="7.2229837387086295"><ele>609.0</ele><time>2026-04-19T12:04:57Z</time></trkpt><trkpt lat="44.901388081435584" lon="7.223190932403886"><ele>607.0</ele><time>2026-04-19T12:04:58Z</time></trkpt><trkpt lat="44.90145685092454" lon="7.223381369246017"><ele>605.0</ele><time>2026-04-19T12:04:59Z</time></trkpt><trkpt lat="44.901536092598576" lon="7.223578493804211"><ele>605.0</ele><time>2026-04-19T12:05:00Z</time></trkpt><trkpt lat="44.90160914570122" lon="7.22375963169727"><ele>605.0</ele><time>2026-04-19T12:05:01Z</time></trkpt><trkpt lat="44.90164299315882" lon="7.2239527067096505"><ele>605.0</ele><time>2026-04-19T12:05:02.001Z</time></trkpt><trkpt lat="44.9016592247992" lon="7.224170910575658"><ele>605.0</ele><time>2026-04-19T12:05:03.001Z</time></trkpt><trkpt lat="44.901671278399206" lon="7.224411677644099"><ele>602.0</ele><time>2026-04-19T12:05:04.001Z</time></trkpt><trkpt lat="44.901684953309484" lon="7.224646678981873"><ele>599.0</ele><time>2026-04-19T12:05:05.001Z</time></trkpt><trkpt lat="44.90169710241708" lon="7.224884879349231"><ele>596.0</ele><time>2026-04-19T12:05:06.001Z</time></trkpt><trkpt lat="44.90169965437057" lon="7.225127015636356"><ele>595.3333333333333</ele><time>2026-04-19T12:05:07Z</time></trkpt><trkpt lat="44.90175769295291" lon="7.225374621919129"><ele>594.6666666666666</ele><time>2026-04-19T12:05:08Z</time></trkpt><trkpt lat="44.901672910917085" lon="7.225581797398944"><ele>594.0</ele><time>2026-04-19T12:05:09Z</time></trkpt><trkpt lat="44.901621103303164" lon="7.2257760903378845"><ele>593.0</ele><time>2026-04-19T12:05:10Z</time></trkpt><trkpt lat="44.90160043166997" lon="7.2259612602924665"><ele>592.0</ele><time>2026-04-19T12:05:11Z</time></trkpt><trkpt lat="44.90163129828666" lon="7.226135914993884"><ele>591.0</ele><time>2026-04-19T12:05:12Z</time></trkpt><trkpt lat="44.90170535429131" lon="7.226320280352486"><ele>590.0</ele><time>2026-04-19T12:05:13Z</time></trkpt><trkpt lat="44.90176719543449" lon="7.226528103744706"><ele>600.6666666666666</ele><time>2026-04-19T12:05:14Z</time></trkpt><trkpt lat="44.90181783736935" lon="7.2267581312225495"><ele>611.3333333333334</ele><time>2026-04-19T12:05:15Z</time></trkpt><trkpt lat="44.901857981977294" lon="7.226999905871995"><ele>622.0</ele><time>2026-04-19T12:05:16Z</time></trkpt><trkpt lat="44.90189294369706" lon="7.227238208902961"><ele>622.6666666666667</ele><time>2026-04-19T12:05:17Z</time></trkpt><trkpt lat="44.901926269895405" lon="7.227491269357016"><ele>623.3333333333334</ele><time>2026-04-19T12:05:18Z</time></trkpt><trkpt lat="44.901949779711124" lon="7.227733809638965"><ele>624.0</ele><time>2026-04-19T12:05:19Z</time></trkpt><trkpt lat="44.901959239250324" lon="7.227975235727073"><ele>624.6666666666666</ele><time>2026-04-19T12:05:20Z</time></trkpt><trkpt lat="44.901949469524304" lon="7.228211725278972"><ele>625.3333333333333</ele><time>2026-04-19T12:05:21Z</time></trkpt><trkpt lat="44.9019377914016" lon="7.228438647460951"><ele>626.0</ele><time>2026-04-19T12:05:22Z</time></trkpt><trkpt lat="44.901928913458406" lon="7.228642326194299"><ele>626.0</ele><time>2026-04-19T12:05:23Z</time></trkpt><trkpt lat="44.90192090058127" lon="7.22884215809069"><ele>626.0</ele><time>2026-04-19T12:05:24Z</time></trkpt><trkpt lat="44.901934403555565" lon="7.229020994923228"><ele>626.0</ele><time>2026-04-19T12:05:25Z</time></trkpt><trkpt lat="44.901920509569415" lon="7.229185922518814"><ele>626.0</ele><time>2026-04-19T12:05:26Z</time></trkpt><trkpt lat="44.90194679595183" lon="7.22934297248725"><ele>623.6</ele><time>2026-04-19T12:05:27Z</time></trkpt><trkpt lat="44.902037755017496" lon="7.229468073895404"><ele>621.2</ele><time>2026-04-19T12:05:28Z</time></trkpt><trkpt lat="44.90216903120401" lon="7.229513125040981"><ele>618.8</ele><time>2026-04-19T12:05:29Z</time></trkpt><trkpt lat="44.90225446141022" lon="7.229593517440679"><ele>616.4</ele><time>2026-04-19T12:05:30Z</time></trkpt><trkpt lat="44.902314426031296" lon="7.229663077444839"><ele>614.0</ele><time>2026-04-19T12:05:31Z</time></trkpt><trkpt lat="44.90231069882794" lon="7.2297637015072995"><ele>612.4</ele><time>2026-04-19T12:05:32Z</time></trkpt><trkpt lat="44.902302037104754" lon="7.229870031573441"><ele>610.8</ele><time>2026-04-19T12:05:33Z</time></trkpt><trkpt lat="44.90220885052305" lon="7.229919916486415"><ele>609.2</ele><time>2026-04-19T12:05:34Z</time></trkpt><trkpt lat="44.902122735234954" lon="7.22997900173371"><ele>607.6</ele><time>2026-04-19T12:05:35Z</time></trkpt><trkpt lat="44.902050388779394" lon="7.230085058628328"><ele>606.0</ele><time>2026-04-19T12:05:36Z</time></trkpt><trkpt lat="44.90200103875949" lon="7.230219107427717"><ele>606.0</ele><time>2026-04-19T12:05:37Z</time></trkpt><trkpt lat="44.901992096480406" lon="7.230406925428239"><ele>606.0</ele><time>2026-04-19T12:05:38Z</time></trkpt><trkpt lat="44.90198813134664" lon="7.230606239393703"><ele>606.0</ele><time>2026-04-19T12:05:39Z</time></trkpt><trkpt lat="44.90200843154464" lon="7.230822974796438"><ele>606.0</ele><time>2026-04-19T12:05:40Z</time></trkpt><trkpt lat="44.9020311808481" lon="7.231021427221932"><ele>605.25</ele><time>2026-04-19T12:05:41Z</time></trkpt><trkpt lat="44.90203181895272" lon="7.231197535047153"><ele>604.5</ele><time>2026-04-19T12:05:42Z</time></trkpt><trkpt lat="44.90200734193431" lon="7.231354075095751"><ele>603.75</ele><time>2026-04-19T12:05:43Z</time></trkpt><trkpt lat="44.9019523238415" lon="7.2314800013557345"><ele>603.0</ele><time>2026-04-19T12:05:44Z</time></trkpt><trkpt lat="44.90185556388837" lon="7.231547917350133"><ele>603.0</ele><time>2026-04-19T12:05:45Z</time></trkpt><trkpt lat="44.90175151092747" lon="7.231614403815348"><ele>603.0</ele><time>2026-04-19T12:05:46Z</time></trkpt><trkpt lat="44.901686480056725" lon="7.231712669143062"><ele>603.0</ele><time>2026-04-19T12:05:47Z</time></trkpt><trkpt lat="44.901643409006105" lon="7.2318477456711845"><ele>603.0</ele><time>2026-04-19T12:05:48Z</time></trkpt><trkpt lat="44.90164247058147" lon="7.232025994007995"><ele>603.0</ele><time>2026-04-19T12:05:49Z</time></trkpt><trkpt lat="44.90164292014404" lon="7.232221914326195"><ele>592.3333333333334</ele><time>2026-04-19T12:05:50Z</time></trkpt><trkpt lat="44.901590866162564" lon="7.232418382298945"><ele>581.6666666666667</ele><time>2026-04-19T12:05:51Z</time></trkpt><trkpt lat="44.90153110672093" lon="7.232619466717748"><ele>571.0</ele><time>2026-04-19T12:05:52Z</time></trkpt><trkpt lat="44.90148206717956" lon="7.23281518402945"><ele>571.0</ele><time>2026-04-19T12:05:53Z</time></trkpt><trkpt lat="44.90142736527236" lon="7.232992734877626"><ele>571.0</ele><time>2026-04-19T12:05:54Z</time></trkpt><trkpt lat="44.901398809612274" lon="7.233172591908181"><ele>571.0</ele><time>2026-04-19T12:05:55Z</time></trkpt><trkpt lat="44.90140881149742" lon="7.2333495899850835"><ele>571.0</ele><time>2026-04-19T12:05:56Z</time></trkpt><trkpt lat="44.90145110692443" lon="7.233530575013075"><ele>570.6666666666667</ele><time>2026-04-19T12:05:57Z</time></trkpt><trkpt lat="44.90152369037528" lon="7.233731163638174"><ele>570.3333333333334</ele><time>2026-04-19T12:05:58Z</time></trkpt><trkpt lat="44.90160880223311" lon="7.233941572269797"><ele>570.0</ele><time>2026-04-19T12:05:59Z</time></trkpt><trkpt lat="44.90166167235099" lon="7.234173880890748"><ele>565.6666666666666</ele><time>2026-04-19T12:06:00Z</time></trkpt><trkpt lat="44.901732345341564" lon="7.234408548933722"><ele>561.3333333333333</ele><time>2026-04-19T12:06:01Z</time></trkpt><trkpt lat="44.90181080113855" lon="7.234608702269448"><ele>557.0</ele><time>2026-04-19T12:06:02Z</time></trkpt><trkpt lat="44.90186183382704" lon="7.2347484946312886"><ele>558.0</ele><time>2026-04-19T12:06:03Z</time></trkpt><trkpt lat="44.90187955248163" lon="7.234841317485834"><ele>559.0</ele><time>2026-04-19T12:06:04Z</time></trkpt><trkpt lat="44.90193516082993" lon="7.234983841489045"><ele>560.0</ele><time>2026-04-19T12:06:06Z</time></trkpt><trkpt lat="44.901973905544125" lon="7.235080738805251"><ele>561.0</ele><time>2026-04-19T12:06:11Z</time></trkpt><trkpt lat="44.90201394896888" lon="7.235175206152826"><ele>562.0</ele><time>2026-04-19T12:06:13Z</time></trkpt><trkpt lat="44.90206965126226" lon="7.235309782466437"><ele>562.0</ele><time>2026-04-19T12:06:15Z</time></trkpt><trkpt lat="44.90211437999781" lon="7.235400363463876"><ele>562.0</ele><time>2026-04-19T12:06:17Z</time></trkpt><trkpt lat="44.902152275193885" lon="7.2355045916753165"><ele>562.0</ele><time>2026-04-19T12:06:19Z</time></trkpt><trkpt lat="44.90217821973836" lon="7.235623088132229"><ele>562.0</ele><time>2026-04-19T12:06:22Z</time></trkpt><trkpt lat="44.90218686701712" lon="7.23543992630784"><ele>562.0</ele><time>2026-04-19T12:06:27Z</time></trkpt><trkpt lat="44.90211448767221" lon="7.235343403533533"><ele>562.0</ele><time>2026-04-19T12:06:28Z</time></trkpt><trkpt lat="44.902063339492265" lon="7.235232832602831"><ele>562.0</ele><time>2026-04-19T12:06:29Z</time></trkpt><trkpt lat="44.90201222551571" lon="7.235134745812731"><ele>562.0</ele><time>2026-04-19T12:06:30Z</time></trkpt><trkpt lat="44.901966808730116" lon="7.235069631632484"><ele>562.0</ele><time>2026-04-19T12:06:31Z</time></trkpt><trkpt lat="44.90189180993123" lon="7.234973580435797"><ele>562.0</ele><time>2026-04-19T12:06:33Z</time></trkpt><trkpt lat="44.901811514646624" lon="7.234907616222425"><ele>562.0</ele><time>2026-04-19T12:06:35Z</time></trkpt><trkpt lat="44.90172157315724" lon="7.235028788219077"><ele>559.6666666666667</ele><time>2026-04-19T12:06:37Z</time></trkpt><trkpt lat="44.901676763532606" lon="7.235132927785087"><ele>557.3333333333334</ele><time>2026-04-19T12:06:38Z</time></trkpt><trkpt lat="44.90163031784619" lon="7.235233348757692"><ele>555.0</ele><time>2026-04-19T12:06:39Z</time></trkpt><trkpt lat="44.90159452147124" lon="7.235343103418374"><ele>552.6666666666666</ele><time>2026-04-19T12:06:40Z</time></trkpt><trkpt lat="44.90155242113981" lon="7.23545408310537"><ele>550.3333333333333</ele><time>2026-04-19T12:06:41Z</time></trkpt><trkpt lat="44.90152819865872" lon="7.235573867077749"><ele>548.0</ele><time>2026-04-19T12:06:42Z</time></trkpt><trkpt lat="44.901503373539676" lon="7.235684414070065"><ele>546.8</ele><time>2026-04-19T12:06:43Z</time></trkpt><trkpt lat="44.9014873340819" lon="7.235797198615623"><ele>545.5999999999999</ele><time>2026-04-19T12:06:44Z</time></trkpt><trkpt lat="44.90142066380002" lon="7.235888126881544"><ele>544.4000000000001</ele><time>2026-04-19T12:06:45Z</time></trkpt><trkpt lat="44.9013676577567" lon="7.236014241842478"><ele>543.2</ele><time>2026-04-19T12:06:46Z</time></trkpt><trkpt lat="44.90130595706617" lon="7.2361328891625805"><ele>542.0</ele><time>2026-04-19T12:06:47Z</time></trkpt><trkpt lat="44.90125346427757" lon="7.236243356486969"><ele>542.0</ele><time>2026-04-19T12:06:48Z</time></trkpt><trkpt lat="44.901209442725886" lon="7.236341888244904"><ele>542.0</ele><time>2026-04-19T12:06:48.999Z</time></trkpt><trkpt lat="44.901172671981406" lon="7.23644574646752"><ele>542.0</ele><time>2026-04-19T12:06:49.999Z</time></trkpt><trkpt lat="44.90123008425198" lon="7.236640358291664"><ele>542.0</ele><time>2026-04-19T12:06:50.999Z</time></trkpt><trkpt lat="44.90123813409251" lon="7.2367956578058426"><ele>542.0</ele><time>2026-04-19T12:06:51.999Z</time></trkpt><trkpt lat="44.90124573300087" lon="7.236942256648493"><ele>540.3333333333333</ele><time>2026-04-19T12:06:52.999Z</time></trkpt><trkpt lat="44.90125198572089" lon="7.237080148081902"><ele>538.6666666666666</ele><time>2026-04-19T12:06:53.999Z</time></trkpt><trkpt lat="44.901256966451584" lon="7.2372058131166375"><ele>537.0</ele><time>2026-04-19T12:06:54.999Z</time></trkpt><trkpt lat="44.90125960126972" lon="7.237313074939215"><ele>535.3333333333334</ele><time>2026-04-19T12:06:55.999Z</time></trkpt><trkpt lat="44.9012633699394" lon="7.2374664949557665"><ele>533.6666666666667</ele><time>2026-04-19T12:06:57.999Z</time></trkpt><trkpt lat="44.901266215867636" lon="7.237574952959525"><ele>532.0</ele><time>2026-04-19T12:06:59.999Z</time></trkpt><trkpt lat="44.901270822612034" lon="7.237677318806361"><ele>530.5</ele><time>2026-04-19T12:07:01.999Z</time></trkpt><trkpt lat="44.90127489316766" lon="7.23778266893877"><ele>529.0</ele><time>2026-04-19T12:07:03.999Z</time></trkpt><trkpt lat="44.90127732866213" lon="7.237898506757439"><ele>527.5</ele><time>2026-04-19T12:07:05.999Z</time></trkpt><trkpt lat="44.90128111030239" lon="7.238016481563433"><ele>526.0</ele><time>2026-04-19T12:07:09Z</time></trkpt><trkpt lat="44.90128178076438" lon="7.238134623993717"><ele>524.5</ele><time>2026-04-19T12:07:12Z</time></trkpt><trkpt lat="44.90133382211402" lon="7.238191719733111"><ele>523.0</ele><time>2026-04-19T12:07:14Z</time></trkpt><trkpt lat="44.90141701741815" lon="7.2381991694047105"><ele>521.8333333333334</ele><time>2026-04-19T12:07:16Z</time></trkpt><trkpt lat="44.901438665887035" lon="7.238323235382919"><ele>520.6666666666667</ele><time>2026-04-19T12:07:22Z</time></trkpt><trkpt lat="44.901438925806346" lon="7.23842586223075"><ele>519.5</ele><time>2026-04-19T12:07:24Z</time></trkpt><trkpt lat="44.90143687284491" lon="7.238521784856339"><ele>518.3333333333334</ele><time>2026-04-19T12:07:26Z</time></trkpt><trkpt lat="44.90141535748257" lon="7.23863542867124"><ele>517.1666666666666</ele><time>2026-04-19T12:07:29Z</time></trkpt><trkpt lat="44.90131782558628" lon="7.2387029527476505"><ele>516.0</ele><time>2026-04-19T12:07:31Z</time></trkpt><trkpt lat="44.901224931488" lon="7.238762168919059"><ele>516.0</ele><time>2026-04-19T12:07:33Z</time></trkpt><trkpt lat="44.90111888104663" lon="7.2388062650412035"><ele>516.0</ele><time>2026-04-19T12:07:35Z</time></trkpt><trkpt lat="44.9010059266412" lon="7.2388380059296376"><ele>516.0</ele><time>2026-04-19T12:07:37Z</time></trkpt><trkpt lat="44.90091656154545" lon="7.238865985681729"><ele>516.0</ele><time>2026-04-19T12:07:39Z</time></trkpt><trkpt lat="44.90083592504044" lon="7.238911084452732"><ele>516.0</ele><time>2026-04-19T12:07:41Z</time></trkpt><trkpt lat="44.90076242459277" lon="7.238974664772881"><ele>512.4</ele><time>2026-04-19T12:07:43Z</time></trkpt><trkpt lat="44.900698892412365" lon="7.239010976786053"><ele>508.8</ele><time>2026-04-19T12:07:47Z</time></trkpt><trkpt lat="44.90064031438141" lon="7.239099871739521"><ele>505.19999999999993</ele><time>2026-04-19T12:07:52Z</time></trkpt><trkpt lat="44.90048190403769" lon="7.239141714718377"><ele>501.59999999999997</ele><time>2026-04-19T12:07:54Z</time></trkpt><trkpt lat="44.90038378626994" lon="7.23914847287788"><ele>498.0</ele><time>2026-04-19T12:07:55Z</time></trkpt><trkpt lat="44.90028076653661" lon="7.239149828051907"><ele>498.0</ele><time>2026-04-19T12:07:56Z</time></trkpt><trkpt lat="44.900185529993166" lon="7.23915800267986"><ele>498.0</ele><time>2026-04-19T12:07:56.999Z</time></trkpt><trkpt lat="44.90009827386923" lon="7.23917259446926"><ele>498.0</ele><time>2026-04-19T12:07:57.999Z</time></trkpt><trkpt lat="44.90001448840075" lon="7.23919751432007"><ele>498.0</ele><time>2026-04-19T12:07:58.999Z</time></trkpt><trkpt lat="44.89991670237165" lon="7.239242566239043"><ele>498.0</ele><time>2026-04-19T12:07:59.999Z</time></trkpt><trkpt lat="44.899849975936206" lon="7.239272208834009"><ele>498.0</ele><time>2026-04-19T12:08:00.999Z</time></trkpt><trkpt lat="44.89975224662228" lon="7.23927964369271"><ele>497.0</ele><time>2026-04-19T12:08:01.999Z</time></trkpt><trkpt lat="44.8996467364605" lon="7.2392595263779045"><ele>495.99999999999994</ele><time>2026-04-19T12:08:02.999Z</time></trkpt><trkpt lat="44.89953688575384" lon="7.239222206385283"><ele>494.99999999999994</ele><time>2026-04-19T12:08:03.999Z</time></trkpt><trkpt lat="44.89944142139761" lon="7.239191731104408"><ele>494.0</ele><time>2026-04-19T12:08:04.999Z</time></trkpt><trkpt lat="44.89932775998014" lon="7.2391904271474505"><ele>493.0</ele><time>2026-04-19T12:08:05.999Z</time></trkpt><trkpt lat="44.89920585512079" lon="7.239204470471531"><ele>492.59999999999997</ele><time>2026-04-19T12:08:06.999Z</time></trkpt><trkpt lat="44.899087198083336" lon="7.239247523057602"><ele>492.19999999999993</ele><time>2026-04-19T12:08:07.999Z</time></trkpt><trkpt lat="44.89898622471509" lon="7.2393085753168345"><ele>491.8</ele><time>2026-04-19T12:08:08.999Z</time></trkpt><trkpt lat="44.8989043199239" lon="7.239354376525372"><ele>491.4</ele><time>2026-04-19T12:08:09.999Z</time></trkpt><trkpt lat="44.898807493446554" lon="7.239425158936726"><ele>491.0</ele><time>2026-04-19T12:08:10.999Z</time></trkpt><trkpt lat="44.89869932889595" lon="7.239477561432596"><ele>491.0</ele><time>2026-04-19T12:08:11.999Z</time></trkpt><trkpt lat="44.89857929157634" lon="7.239513005602494"><ele>491.0</ele><time>2026-04-19T12:08:12.999Z</time></trkpt><trkpt lat="44.89847687211359" lon="7.239545887459927"><ele>491.0</ele><time>2026-04-19T12:08:13.999Z</time></trkpt><trkpt lat="44.8983842362697" lon="7.239573240593727"><ele>491.0</ele><time>2026-04-19T12:08:14.999Z</time></trkpt><trkpt lat="44.89829834484148" lon="7.2395882350610306"><ele>491.0</ele><time>2026-04-19T12:08:15.999Z</time></trkpt><trkpt lat="44.898216217717945" lon="7.239581756354722"><ele>489.6</ele><time>2026-04-19T12:08:16.999Z</time></trkpt><trkpt lat="44.89813419766399" lon="7.239616652866769"><ele>488.20000000000005</ele><time>2026-04-19T12:08:17.999Z</time></trkpt><trkpt lat="44.898060668964625" lon="7.239720426160602"><ele>486.79999999999995</ele><time>2026-04-19T12:08:18.999Z</time></trkpt><trkpt lat="44.897999006699536" lon="7.239869286323221"><ele>485.4</ele><time>2026-04-19T12:08:19.999Z</time></trkpt><trkpt lat="44.897948027690816" lon="7.240033747374237"><ele>484.0</ele><time>2026-04-19T12:08:20.999Z</time></trkpt><trkpt lat="44.897882815551675" lon="7.240200134651297"><ele>484.0</ele><time>2026-04-19T12:08:21.999Z</time></trkpt><trkpt lat="44.89781342089326" lon="7.2403647733565615"><ele>484.0</ele><time>2026-04-19T12:08:22.999Z</time></trkpt><trkpt lat="44.89774301903282" lon="7.240527818294648"><ele>484.0</ele><time>2026-04-19T12:08:23.999Z</time></trkpt><trkpt lat="44.8976799238458" lon="7.2407157646196225"><ele>484.0</ele><time>2026-04-19T12:08:24.999Z</time></trkpt><trkpt lat="44.89763088802492" lon="7.240923325912967"><ele>483.6666666666667</ele><time>2026-04-19T12:08:25.999Z</time></trkpt><trkpt lat="44.8976004423124" lon="7.241146903224202"><ele>483.33333333333337</ele><time>2026-04-19T12:08:26.999Z</time></trkpt><trkpt lat="44.897582981370114" lon="7.241366416307723"><ele>483.0</ele><time>2026-04-19T12:08:27.999Z</time></trkpt><trkpt lat="44.89757084905429" lon="7.241609699564771"><ele>479.75</ele><time>2026-04-19T12:08:28.999Z</time></trkpt><trkpt lat="44.89755249041527" lon="7.241801562058758"><ele>476.5</ele><time>2026-04-19T12:08:29.999Z</time></trkpt><trkpt lat="44.89752966332858" lon="7.241987521705238"><ele>473.25</ele><time>2026-04-19T12:08:30.999Z</time></trkpt><trkpt lat="44.89750876145619" lon="7.242158374758158"><ele>470.0</ele><time>2026-04-19T12:08:31.999Z</time></trkpt><trkpt lat="44.897494210646876" lon="7.242324574604483"><ele>469.6</ele><time>2026-04-19T12:08:32.999Z</time></trkpt><trkpt lat="44.89748764996636" lon="7.242480609137227"><ele>469.2</ele><time>2026-04-19T12:08:33.999Z</time></trkpt><trkpt lat="44.89746990143762" lon="7.242615675549579"><ele>468.79999999999995</ele><time>2026-04-19T12:08:34.999Z</time></trkpt><trkpt lat="44.89744510487067" lon="7.242747350373804"><ele>468.4</ele><time>2026-04-19T12:08:35.999Z</time></trkpt><trkpt lat="44.89740103668907" lon="7.242873266191909"><ele>468.0</ele><time>2026-04-19T12:08:36.999Z</time></trkpt><trkpt lat="44.897341309438836" lon="7.2430173867866925"><ele>466.33333333333337</ele><time>2026-04-19T12:08:37.999Z</time></trkpt><trkpt lat="44.89725372970328" lon="7.243198484610963"><ele>464.6666666666667</ele><time>2026-04-19T12:08:38.999Z</time></trkpt><trkpt lat="44.897136502054316" lon="7.243426195363983"><ele>463.0</ele><time>2026-04-19T12:08:39.999Z</time></trkpt><trkpt lat="44.896997244497605" lon="7.243687172062834"><ele>463.0</ele><time>2026-04-19T12:08:40.999Z</time></trkpt><trkpt lat="44.89688103096988" lon="7.243935133168941"><ele>463.0</ele><time>2026-04-19T12:08:41.999Z</time></trkpt><trkpt lat="44.896805921302544" lon="7.244160368152334"><ele>463.0</ele><time>2026-04-19T12:08:42.999Z</time></trkpt><trkpt lat="44.89674136041528" lon="7.2443654229935674"><ele>462.59999999999997</ele><time>2026-04-19T12:08:43.999Z</time></trkpt><trkpt lat="44.896680579369644" lon="7.244539907512777"><ele>462.19999999999993</ele><time>2026-04-19T12:08:44.999Z</time></trkpt><trkpt lat="44.89664234373322" lon="7.244682414424965"><ele>461.8</ele><time>2026-04-19T12:08:45.999Z</time></trkpt><trkpt lat="44.89660064117906" lon="7.244793070046986"><ele>461.4</ele><time>2026-04-19T12:08:46.999Z</time></trkpt><trkpt lat="44.89654988923136" lon="7.244866333561213"><ele>461.0</ele><time>2026-04-19T12:08:47.999Z</time></trkpt><trkpt lat="44.89647508497213" lon="7.244882741866457"><ele>461.0</ele><time>2026-04-19T12:08:48.999Z</time></trkpt><trkpt lat="44.896376374583575" lon="7.244824391401805"><ele>461.0</ele><time>2026-04-19T12:08:49.999Z</time></trkpt><trkpt lat="44.896235667539045" lon="7.244790045920071"><ele>461.0</ele><time>2026-04-19T12:08:50.999Z</time></trkpt><trkpt lat="44.89605868975357" lon="7.244708324986491"><ele>461.0</ele><time>2026-04-19T12:08:51.999Z</time></trkpt><trkpt lat="44.89584919499609" lon="7.244642746848355"><ele>460.66666666666663</ele><time>2026-04-19T12:08:52.999Z</time></trkpt><trkpt lat="44.8956257118384" lon="7.244590436032969"><ele>460.33333333333337</ele><time>2026-04-19T12:08:53.999Z</time></trkpt><trkpt lat="44.895430214042015" lon="7.244546294711401"><ele>460.0</ele><time>2026-04-19T12:08:54.999Z</time></trkpt><trkpt lat="44.89525260488631" lon="7.24451673235468"><ele>460.33333333333337</ele><time>2026-04-19T12:08:55.999Z</time></trkpt><trkpt lat="44.89508386740205" lon="7.244489393334293"><ele>460.66666666666663</ele><time>2026-04-19T12:08:56.999Z</time></trkpt><trkpt lat="44.89490146206095" lon="7.244455652271154"><ele>461.0</ele><time>2026-04-19T12:08:57.999Z</time></trkpt><trkpt lat="44.89472334818307" lon="7.244420389176235"><ele>461.0</ele><time>2026-04-19T12:08:58.999Z</time></trkpt><trkpt lat="44.894553605622086" lon="7.244386980669692"><ele>461.0</ele><time>2026-04-19T12:08:59.999Z</time></trkpt><trkpt lat="44.89437782181888" lon="7.244360594342455"><ele>461.0</ele><time>2026-04-19T12:09:00.999Z</time></trkpt><trkpt lat="44.89419846462679" lon="7.2443300447507095"><ele>461.66666666666663</ele><time>2026-04-19T12:09:01.999Z</time></trkpt><trkpt lat="44.89401709611704" lon="7.24429861506991"><ele>462.33333333333337</ele><time>2026-04-19T12:09:02.999Z</time></trkpt><trkpt lat="44.89383438067909" lon="7.2442635260724675"><ele>463.0</ele><time>2026-04-19T12:09:03.999Z</time></trkpt><trkpt lat="44.893665356695315" lon="7.2442289629324605"><ele>463.0</ele><time>2026-04-19T12:09:04.999Z</time></trkpt><trkpt lat="44.89348668560504" lon="7.244201966907457"><ele>463.0</ele><time>2026-04-19T12:09:05.999Z</time></trkpt><trkpt lat="44.893323359552234" lon="7.244170521408315"><ele>463.0</ele><time>2026-04-19T12:09:06.999Z</time></trkpt><trkpt lat="44.89317909428485" lon="7.24416505840598"><ele>462.5</ele><time>2026-04-19T12:09:07.999Z</time></trkpt><trkpt lat="44.89303226980088" lon="7.244173462289526"><ele>462.0</ele><time>2026-04-19T12:09:08.999Z</time></trkpt><trkpt lat="44.89289937549906" lon="7.244204992425607"><ele>461.5</ele><time>2026-04-19T12:09:09.999Z</time></trkpt><trkpt lat="44.89276957097068" lon="7.244228259454989"><ele>461.0</ele><time>2026-04-19T12:09:10.999Z</time></trkpt><trkpt lat="44.892643930602205" lon="7.244232503054449"><ele>459.5</ele><time>2026-04-19T12:09:11.999Z</time></trkpt><trkpt lat="44.89252336609004" lon="7.244262519956774"><ele>458.0</ele><time>2026-04-19T12:09:12.999Z</time></trkpt><trkpt lat="44.892407131055776" lon="7.2442993497618255"><ele>456.5</ele><time>2026-04-19T12:09:13.999Z</time></trkpt><trkpt lat="44.892287398291735" lon="7.2442951338352355"><ele>455.0</ele><time>2026-04-19T12:09:14.999Z</time></trkpt><trkpt lat="44.892170967082535" lon="7.24427787510997"><ele>455.0</ele><time>2026-04-19T12:09:15.999Z</time></trkpt><trkpt lat="44.89206383708739" lon="7.244265174355931"><ele>455.0</ele><time>2026-04-19T12:09:16.999Z</time></trkpt><trkpt lat="44.891966624794144" lon="7.244289730674975"><ele>455.0</ele><time>2026-04-19T12:09:17.999Z</time></trkpt><trkpt lat="44.89188190549415" lon="7.244362051088223"><ele>455.0</ele><time>2026-04-19T12:09:18.999Z</time></trkpt><trkpt lat="44.89183269703742" lon="7.24447590798053"><ele>455.0</ele><time>2026-04-19T12:09:19.999Z</time></trkpt><trkpt lat="44.891815734475536" lon="7.244609484025339"><ele>455.0</ele><time>2026-04-19T12:09:20.999Z</time></trkpt><trkpt lat="44.89182407216801" lon="7.244744288010548"><ele>455.0</ele><time>2026-04-19T12:09:21.999Z</time></trkpt><trkpt lat="44.89186409068018" lon="7.244873698511809"><ele>455.0</ele><time>2026-04-19T12:09:22.999Z</time></trkpt><trkpt lat="44.89190815606643" lon="7.244964271794481"><ele>455.0</ele><time>2026-04-19T12:09:23.999Z</time></trkpt><trkpt lat="44.89186525723" lon="7.2450939190359565"><ele>455.0</ele><time>2026-04-19T12:09:24.999Z</time></trkpt><trkpt lat="44.891804006420855" lon="7.2451907370038064"><ele>455.0</ele><time>2026-04-19T12:09:25.999Z</time></trkpt><trkpt lat="44.8917189243959" lon="7.245281236573323"><ele>455.0</ele><time>2026-04-19T12:09:26.999Z</time></trkpt><trkpt lat="44.891630590017655" lon="7.2454020448568865"><ele>455.0</ele><time>2026-04-19T12:09:27.999Z</time></trkpt><trkpt lat="44.891532995731524" lon="7.245564320232036"><ele>455.0</ele><time>2026-04-19T12:09:28.999Z</time></trkpt><trkpt lat="44.891416661475134" lon="7.245738537194564"><ele>454.3333333333333</ele><time>2026-04-19T12:09:29.999Z</time></trkpt><trkpt lat="44.891303008721074" lon="7.245947788598489"><ele>453.66666666666663</ele><time>2026-04-19T12:09:30.999Z</time></trkpt><trkpt lat="44.891189900520565" lon="7.246169495567411"><ele>453.0</ele><time>2026-04-19T12:09:31.999Z</time></trkpt><trkpt lat="44.891081940152176" lon="7.246394482506356"><ele>452.33333333333337</ele><time>2026-04-19T12:09:32.999Z</time></trkpt><trkpt lat="44.89096515165444" lon="7.246626722980632"><ele>451.6666666666667</ele><time>2026-04-19T12:09:33.999Z</time></trkpt><trkpt lat="44.89085544950976" lon="7.246876780786139"><ele>451.0</ele><time>2026-04-19T12:09:34.999Z</time></trkpt><trkpt lat="44.89075731319436" lon="7.247130818415482"><ele>451.33333333333337</ele><time>2026-04-19T12:09:35.999Z</time></trkpt><trkpt lat="44.89066550883382" lon="7.247400730576728"><ele>451.66666666666663</ele><time>2026-04-19T12:09:36.999Z</time></trkpt><trkpt lat="44.89059118824092" lon="7.24767479205303"><ele>452.0</ele><time>2026-04-19T12:09:37.999Z</time></trkpt><trkpt lat="44.890541125819674" lon="7.247954620633766"><ele>452.0</ele><time>2026-04-19T12:09:38.999Z</time></trkpt><trkpt lat="44.890522896171014" lon="7.24823471337897"><ele>452.0</ele><time>2026-04-19T12:09:39.999Z</time></trkpt><trkpt lat="44.890517878709964" lon="7.248520572512173"><ele>452.0</ele><time>2026-04-19T12:09:40.999Z</time></trkpt><trkpt lat="44.89054172473243" lon="7.2488094215223295"><ele>452.0</ele><time>2026-04-19T12:09:41.999Z</time></trkpt><trkpt lat="44.890576661859555" lon="7.2490944431684765"><ele>452.0</ele><time>2026-04-19T12:09:42.999Z</time></trkpt><trkpt lat="44.89062391027888" lon="7.2493746910966586"><ele>452.0</ele><time>2026-04-19T12:09:43.999Z</time></trkpt><trkpt lat="44.89065847256253" lon="7.249650935306029"><ele>453.0</ele><time>2026-04-19T12:09:44.999Z</time></trkpt><trkpt lat="44.890702878335006" lon="7.249952583059545"><ele>454.0</ele><time>2026-04-19T12:09:45.999Z</time></trkpt><trkpt lat="44.8907372582523" lon="7.250245121014652"><ele>455.0</ele><time>2026-04-19T12:09:46.999Z</time></trkpt><trkpt lat="44.89076131095798" lon="7.25052946963845"><ele>454.66666666666663</ele><time>2026-04-19T12:09:47.999Z</time></trkpt><trkpt lat="44.89079840167569" lon="7.250807970348669"><ele>454.33333333333337</ele><time>2026-04-19T12:09:48.999Z</time></trkpt><trkpt lat="44.89083536105992" lon="7.251088619677192"><ele>454.0</ele><time>2026-04-19T12:09:49.999Z</time></trkpt><trkpt lat="44.89086409720822" lon="7.251368649745082"><ele>453.33333333333337</ele><time>2026-04-19T12:09:50.999Z</time></trkpt><trkpt lat="44.89090238345554" lon="7.251649277241432"><ele>452.66666666666663</ele><time>2026-04-19T12:09:51.999Z</time></trkpt><trkpt lat="44.89093831235462" lon="7.251922829847226"><ele>452.0</ele><time>2026-04-19T12:09:52.999Z</time></trkpt><trkpt lat="44.890958620012434" lon="7.25216729940478"><ele>465.3333333333333</ele><time>2026-04-19T12:09:53.999Z</time></trkpt><trkpt lat="44.89097634027988" lon="7.252412695714723"><ele>478.66666666666663</ele><time>2026-04-19T12:09:54.999Z</time></trkpt><trkpt lat="44.89099423451537" lon="7.252634859306816"><ele>492.0</ele><time>2026-04-19T12:09:55.999Z</time></trkpt><trkpt lat="44.89101114832893" lon="7.252843051500265"><ele>492.0</ele><time>2026-04-19T12:09:56.999Z</time></trkpt><trkpt lat="44.89102647174644" lon="7.2530363997659455"><ele>492.0</ele><time>2026-04-19T12:09:57.999Z</time></trkpt><trkpt lat="44.891039006529844" lon="7.253228851118956"><ele>492.0</ele><time>2026-04-19T12:09:58.999Z</time></trkpt><trkpt lat="44.89103756303465" lon="7.253433903981032"><ele>492.0</ele><time>2026-04-19T12:09:59.999Z</time></trkpt><trkpt lat="44.891075581218594" lon="7.2536633051321635"><ele>489.0</ele><time>2026-04-19T12:10:00.999Z</time></trkpt><trkpt lat="44.89108670122687" lon="7.253915742189207"><ele>486.0</ele><time>2026-04-19T12:10:01.999Z</time></trkpt><trkpt lat="44.89108834738979" lon="7.254173321341032"><ele>483.0</ele><time>2026-04-19T12:10:02.999Z</time></trkpt><trkpt lat="44.89109472493068" lon="7.25443312388806"><ele>483.0</ele><time>2026-04-19T12:10:03.999Z</time></trkpt><trkpt lat="44.8911058914631" lon="7.254695307206273"><ele>483.0</ele><time>2026-04-19T12:10:04.999Z</time></trkpt><trkpt lat="44.89111289123773" lon="7.254935570025188"><ele>483.0</ele><time>2026-04-19T12:10:05.999Z</time></trkpt><trkpt lat="44.891111180855845" lon="7.2551718194326575"><ele>483.0</ele><time>2026-04-19T12:10:06.999Z</time></trkpt><trkpt lat="44.89109249268663" lon="7.255420000504316"><ele>483.0</ele><time>2026-04-19T12:10:07.999Z</time></trkpt><trkpt lat="44.89105482339103" lon="7.255708390812843"><ele>483.0</ele><time>2026-04-19T12:10:08.999Z</time></trkpt><trkpt lat="44.891000437151774" lon="7.256029098485888"><ele>485.0</ele><time>2026-04-19T12:10:09.999Z</time></trkpt><trkpt lat="44.890960750111255" lon="7.256334731545906"><ele>487.0</ele><time>2026-04-19T12:10:10.999Z</time></trkpt><trkpt lat="44.89092466168861" lon="7.256587683379607"><ele>489.0</ele><time>2026-04-19T12:10:11.999Z</time></trkpt><trkpt lat="44.890897633525704" lon="7.256777949546479"><ele>478.25</ele><time>2026-04-19T12:10:12.999Z</time></trkpt><trkpt lat="44.89087814723203" lon="7.256970435384964"><ele>467.5</ele><time>2026-04-19T12:10:13.999Z</time></trkpt><trkpt lat="44.89085542314593" lon="7.257164198755648"><ele>456.75</ele><time>2026-04-19T12:10:14.999Z</time></trkpt><trkpt lat="44.89082324757982" lon="7.257366612440784"><ele>446.0</ele><time>2026-04-19T12:10:15.999Z</time></trkpt><trkpt lat="44.89080122959438" lon="7.257629572365726"><ele>445.66666666666663</ele><time>2026-04-19T12:10:16.999Z</time></trkpt><trkpt lat="44.89076400983314" lon="7.257902466460136"><ele>445.33333333333337</ele><time>2026-04-19T12:10:17.999Z</time></trkpt><trkpt lat="44.890707779065" lon="7.258181005305082"><ele>445.0</ele><time>2026-04-19T12:10:18.999Z</time></trkpt><trkpt lat="44.890671027678714" lon="7.258440134676282"><ele>445.0</ele><time>2026-04-19T12:10:19.999Z</time></trkpt><trkpt lat="44.89064893107122" lon="7.258686549299829"><ele>445.0</ele><time>2026-04-19T12:10:20.999Z</time></trkpt><trkpt lat="44.89061677926467" lon="7.2588998865231495"><ele>445.0</ele><time>2026-04-19T12:10:21.999Z</time></trkpt><trkpt lat="44.890575538612616" lon="7.259110098822038"><ele>446.0</ele><time>2026-04-19T12:10:22.999Z</time></trkpt><trkpt lat="44.89049368996221" lon="7.259317384092872"><ele>447.0</ele><time>2026-04-19T12:10:23.999Z</time></trkpt><trkpt lat="44.89039880008633" lon="7.259539464505943"><ele>448.0</ele><time>2026-04-19T12:10:24.999Z</time></trkpt><trkpt lat="44.89029141207" lon="7.259770779188738"><ele>444.0</ele><time>2026-04-19T12:10:25.999Z</time></trkpt><trkpt lat="44.890198241033964" lon="7.260004110961663"><ele>440.0</ele><time>2026-04-19T12:10:26.999Z</time></trkpt><trkpt lat="44.89009192562391" lon="7.260221347109052"><ele>436.0</ele><time>2026-04-19T12:10:27.999Z</time></trkpt><trkpt lat="44.88998253248089" lon="7.260444153939743"><ele>439.33333333333337</ele><time>2026-04-19T12:10:28.999Z</time></trkpt><trkpt lat="44.88987385579869" lon="7.2606716463137095"><ele>442.66666666666663</ele><time>2026-04-19T12:10:29.999Z</time></trkpt><trkpt lat="44.88976367843714" lon="7.260901036355548"><ele>446.0</ele><time>2026-04-19T12:10:30.999Z</time></trkpt><trkpt lat="44.889662035901" lon="7.261129055234166"><ele>446.0</ele><time>2026-04-19T12:10:31.999Z</time></trkpt><trkpt lat="44.88956146701717" lon="7.2613493020214115"><ele>446.0</ele><time>2026-04-19T12:10:32.999Z</time></trkpt><trkpt lat="44.88945949814361" lon="7.261569805667431"><ele>446.0</ele><time>2026-04-19T12:10:33.999Z</time></trkpt><trkpt lat="44.88936538273" lon="7.261782768432271"><ele>445.0</ele><time>2026-04-19T12:10:34.999Z</time></trkpt><trkpt lat="44.88926792578073" lon="7.26200099445797"><ele>444.0</ele><time>2026-04-19T12:10:35.999Z</time></trkpt><trkpt lat="44.88916933496128" lon="7.262208940395612"><ele>443.0</ele><time>2026-04-19T12:10:36.999Z</time></trkpt><trkpt lat="44.88906559892286" lon="7.262426320279439"><ele>443.0</ele><time>2026-04-19T12:10:37.999Z</time></trkpt><trkpt lat="44.88896953106814" lon="7.262636180494775"><ele>443.0</ele><time>2026-04-19T12:10:38.999Z</time></trkpt><trkpt lat="44.88887005907719" lon="7.262853154115111"><ele>443.0</ele><time>2026-04-19T12:10:39.999Z</time></trkpt><trkpt lat="44.888775739663174" lon="7.263073585474769"><ele>449.3333333333333</ele><time>2026-04-19T12:10:40.999Z</time></trkpt><trkpt lat="44.888677721554615" lon="7.263302893780727"><ele>455.66666666666663</ele><time>2026-04-19T12:10:41.999Z</time></trkpt><trkpt lat="44.888576409479285" lon="7.263521677474007"><ele>462.0</ele><time>2026-04-19T12:10:42.999Z</time></trkpt><trkpt lat="44.88845855758162" lon="7.263738540257895"><ele>454.0</ele><time>2026-04-19T12:10:43.999Z</time></trkpt><trkpt lat="44.88834984123044" lon="7.26393751656542"><ele>446.0</ele><time>2026-04-19T12:10:44.999Z</time></trkpt><trkpt lat="44.8882342404841" lon="7.264130637153927"><ele>438.0</ele><time>2026-04-19T12:10:45.999Z</time></trkpt><trkpt lat="44.888141015557075" lon="7.264332430901654"><ele>438.0</ele><time>2026-04-19T12:10:46.999Z</time></trkpt><trkpt lat="44.888046212069504" lon="7.264533624312202"><ele>438.0</ele><time>2026-04-19T12:10:47.999Z</time></trkpt><trkpt lat="44.8879517959711" lon="7.264765768059774"><ele>438.0</ele><time>2026-04-19T12:10:48.999Z</time></trkpt><trkpt lat="44.88785615182688" lon="7.264997380435598"><ele>441.33333333333337</ele><time>2026-04-19T12:10:49.999Z</time></trkpt><trkpt lat="44.88777054975844" lon="7.265242348466055"><ele>444.6666666666667</ele><time>2026-04-19T12:10:50.999Z</time></trkpt><trkpt lat="44.88768564293577" lon="7.265483197235022"><ele>448.0</ele><time>2026-04-19T12:10:51.999Z</time></trkpt><trkpt lat="44.88760112052277" lon="7.2657237152883285"><ele>443.0</ele><time>2026-04-19T12:10:52.999Z</time></trkpt><trkpt lat="44.88752258159385" lon="7.265949276647282"><ele>438.0</ele><time>2026-04-19T12:10:53.999Z</time></trkpt><trkpt lat="44.88744613143101" lon="7.266167416189747"><ele>433.0</ele><time>2026-04-19T12:10:54.999Z</time></trkpt><trkpt lat="44.88737487190218" lon="7.266370267790693"><ele>433.33333333333337</ele><time>2026-04-19T12:10:55.999Z</time></trkpt><trkpt lat="44.88730627032307" lon="7.26656314999672"><ele>433.66666666666663</ele><time>2026-04-19T12:10:56.999Z</time></trkpt><trkpt lat="44.887236657603545" lon="7.266764281738766"><ele>434.0</ele><time>2026-04-19T12:10:57.999Z</time></trkpt><trkpt lat="44.887167605614586" lon="7.266978809466442"><ele>434.0</ele><time>2026-04-19T12:10:58.999Z</time></trkpt><trkpt lat="44.88710981257266" lon="7.26720096246965"><ele>434.0</ele><time>2026-04-19T12:10:59.999Z</time></trkpt><trkpt lat="44.887078155387165" lon="7.267453715478669"><ele>434.0</ele><time>2026-04-19T12:11:00.999Z</time></trkpt><trkpt lat="44.887048429365045" lon="7.267700229026965"><ele>434.5</ele><time>2026-04-19T12:11:01.999Z</time></trkpt><trkpt lat="44.88702413813791" lon="7.267901672937629"><ele>435.0</ele><time>2026-04-19T12:11:02.999Z</time></trkpt><trkpt lat="44.88700248906113" lon="7.268081779574918"><ele>435.5</ele><time>2026-04-19T12:11:03.999Z</time></trkpt><trkpt lat="44.886981662762736" lon="7.268257583106163"><ele>436.0</ele><time>2026-04-19T12:11:04.999Z</time></trkpt><trkpt lat="44.88696235444696" lon="7.268426278924285"><ele>436.25</ele><time>2026-04-19T12:11:05.999Z</time></trkpt><trkpt lat="44.88694322749982" lon="7.268601828020972"><ele>436.5</ele><time>2026-04-19T12:11:06.999Z</time></trkpt><trkpt lat="44.88692459558603" lon="7.2687728344381695"><ele>436.75</ele><time>2026-04-19T12:11:07.999Z</time></trkpt><trkpt lat="44.88690594925169" lon="7.268933271358253"><ele>437.0</ele><time>2026-04-19T12:11:08.999Z</time></trkpt><trkpt lat="44.886895698174136" lon="7.2691112618586216"><ele>437.75</ele><time>2026-04-19T12:11:09.999Z</time></trkpt><trkpt lat="44.88686804168843" lon="7.269285678280118"><ele>438.5</ele><time>2026-04-19T12:11:10.999Z</time></trkpt><trkpt lat="44.88685081567788" lon="7.269461712742057"><ele>439.25</ele><time>2026-04-19T12:11:11.999Z</time></trkpt><trkpt lat="44.88683357628975" lon="7.269629169707913"><ele>440.0</ele><time>2026-04-19T12:11:12.999Z</time></trkpt><trkpt lat="44.88680889670768" lon="7.269802909640102"><ele>441.25</ele><time>2026-04-19T12:11:13.999Z</time></trkpt><trkpt lat="44.88679390607057" lon="7.269976752905646"><ele>442.5</ele><time>2026-04-19T12:11:14.999Z</time></trkpt><trkpt lat="44.8867632277587" lon="7.270151276148271"><ele>443.75</ele><time>2026-04-19T12:11:15.999Z</time></trkpt><trkpt lat="44.88673944149399" lon="7.270348805976643"><ele>445.0</ele><time>2026-04-19T12:11:16.999Z</time></trkpt><trkpt lat="44.88671623626992" lon="7.270563074393043"><ele>440.0</ele><time>2026-04-19T12:11:17.999Z</time></trkpt><trkpt lat="44.88668742678001" lon="7.270777695666219"><ele>435.0</ele><time>2026-04-19T12:11:18.999Z</time></trkpt><trkpt lat="44.886658248273726" lon="7.270983439417873"><ele>430.0</ele><time>2026-04-19T12:11:19.999Z</time></trkpt><trkpt lat="44.886646298291204" lon="7.271174207817077"><ele>425.0</ele><time>2026-04-19T12:11:20.999Z</time></trkpt><trkpt lat="44.88662305319984" lon="7.27135680841669"><ele>425.3333333333333</ele><time>2026-04-19T12:11:21.999Z</time></trkpt><trkpt lat="44.88658473770701" lon="7.271556379479186"><ele>425.66666666666663</ele><time>2026-04-19T12:11:22.999Z</time></trkpt><trkpt lat="44.886574853899354" lon="7.271796272141691"><ele>426.0</ele><time>2026-04-19T12:11:23.999Z</time></trkpt><trkpt lat="44.886597356400706" lon="7.272055516462811"><ele>426.33333333333337</ele><time>2026-04-19T12:11:24.999Z</time></trkpt><trkpt lat="44.88662593197372" lon="7.272337475202"><ele>426.6666666666667</ele><time>2026-04-19T12:11:25.999Z</time></trkpt><trkpt lat="44.88665821097245" lon="7.2726406883223"><ele>427.0</ele><time>2026-04-19T12:11:26.999Z</time></trkpt><trkpt lat="44.88668521009104" lon="7.2729645239551655"><ele>425.5</ele><time>2026-04-19T12:11:27.999Z</time></trkpt><trkpt lat="44.88671142313471" lon="7.273293939217036"><ele>424.0</ele><time>2026-04-19T12:11:28.999Z</time></trkpt><trkpt lat="44.88673888095116" lon="7.273613222712292"><ele>432.33333333333337</ele><time>2026-04-19T12:11:29.999Z</time></trkpt><trkpt lat="44.886769969247695" lon="7.273908343964778"><ele>440.66666666666663</ele><time>2026-04-19T12:11:30.999Z</time></trkpt><trkpt lat="44.88679584726175" lon="7.274180144047906"><ele>449.0</ele><time>2026-04-19T12:11:31.999Z</time></trkpt><trkpt lat="44.886816163167545" lon="7.2744402367073295"><ele>449.0</ele><time>2026-04-19T12:11:32.999Z</time></trkpt><trkpt lat="44.88683222676273" lon="7.274691184722995"><ele>449.0</ele><time>2026-04-19T12:11:33.999Z</time></trkpt><trkpt lat="44.88682917227535" lon="7.274939253467861"><ele>449.0</ele><time>2026-04-19T12:11:34.999Z</time></trkpt><trkpt lat="44.886804336317034" lon="7.275192397077285"><ele>448.0</ele><time>2026-04-19T12:11:35.999Z</time></trkpt><trkpt lat="44.886766687754836" lon="7.27545823160297"><ele>447.0</ele><time>2026-04-19T12:11:36.999Z</time></trkpt><trkpt lat="44.88672255352325" lon="7.2757257034277965"><ele>446.0</ele><time>2026-04-19T12:11:37.999Z</time></trkpt><trkpt lat="44.886681559517385" lon="7.275998796996717"><ele>437.3333333333333</ele><time>2026-04-19T12:11:38.999Z</time></trkpt><trkpt lat="44.88664995285638" lon="7.276272802870879"><ele>428.66666666666663</ele><time>2026-04-19T12:11:39.999Z</time></trkpt><trkpt lat="44.88661587076458" lon="7.276555318654424"><ele>420.0</ele><time>2026-04-19T12:11:40.999Z</time></trkpt><trkpt lat="44.88657452804316" lon="7.2768385953980035"><ele>420.0</ele><time>2026-04-19T12:11:41.999Z</time></trkpt><trkpt lat="44.88653126183851" lon="7.277123247183149"><ele>420.0</ele><time>2026-04-19T12:11:43Z</time></trkpt><trkpt lat="44.886497326844015" lon="7.2773463273613475"><ele>420.0</ele><time>2026-04-19T12:11:44Z</time></trkpt><trkpt lat="44.886475333409805" lon="7.27749450762761"><ele>420.6</ele><time>2026-04-19T12:11:45Z</time></trkpt><trkpt lat="44.88647211598582" lon="7.277604414337601"><ele>421.2</ele><time>2026-04-19T12:11:46Z</time></trkpt><trkpt lat="44.88658979655118" lon="7.277736737313149"><ele>421.79999999999995</ele><time>2026-04-19T12:11:49Z</time></trkpt><trkpt lat="44.88664102157479" lon="7.277586176026924"><ele>422.4</ele><time>2026-04-19T12:11:51Z</time></trkpt><trkpt lat="44.88665478803763" lon="7.277486726107142"><ele>423.0</ele><time>2026-04-19T12:11:53Z</time></trkpt><trkpt lat="44.886659393560286" lon="7.277393553384243"><ele>423.0</ele><time>2026-04-19T12:11:56Z</time></trkpt><trkpt lat="44.886667877856816" lon="7.277292020016387"><ele>423.0</ele><time>2026-04-19T12:11:59Z</time></trkpt><trkpt lat="44.886634879938455" lon="7.277189711114847"><ele>423.0</ele><time>2026-04-19T12:18:36Z</time></trkpt><trkpt lat="44.88655284704387" lon="7.277208141659204"><ele>423.0</ele><time>2026-04-19T12:18:38Z</time></trkpt><trkpt lat="44.88649951209597" lon="7.277353258181232"><ele>423.0</ele><time>2026-04-19T12:18:40Z</time></trkpt><trkpt lat="44.88647087634535" lon="7.277498013064945"><ele>423.0</ele><time>2026-04-19T12:18:41Z</time></trkpt><trkpt lat="44.886443917960875" lon="7.27764803332039"><ele>423.0</ele><time>2026-04-19T12:18:42Z</time></trkpt><trkpt lat="44.8864211777947" lon="7.27782196821516"><ele>423.0</ele><time>2026-04-19T12:18:43Z</time></trkpt><trkpt lat="44.88639826603078" lon="7.2780113195072005"><ele>423.0</ele><time>2026-04-19T12:18:44Z</time></trkpt><trkpt lat="44.886366751921464" lon="7.278218472952658"><ele>423.0</ele><time>2026-04-19T12:18:45Z</time></trkpt><trkpt lat="44.886332549837256" lon="7.278450453170565"><ele>423.0</ele><time>2026-04-19T12:18:46Z</time></trkpt><trkpt lat="44.88629893499133" lon="7.278700444290878"><ele>423.0</ele><time>2026-04-19T12:18:47Z</time></trkpt><trkpt lat="44.88624779639017" lon="7.278950539471685"><ele>423.0</ele><time>2026-04-19T12:18:48Z</time></trkpt><trkpt lat="44.88620270240854" lon="7.279211582738857"><ele>423.0</ele><time>2026-04-19T12:18:49Z</time></trkpt><trkpt lat="44.8861699674964" lon="7.279481852766911"><ele>423.0</ele><time>2026-04-19T12:18:50Z</time></trkpt><trkpt lat="44.88612391975908" lon="7.279743080252231"><ele>422.66666666666663</ele><time>2026-04-19T12:18:51Z</time></trkpt><trkpt lat="44.88608025380054" lon="7.28000526823378"><ele>422.3333333333333</ele><time>2026-04-19T12:18:52Z</time></trkpt><trkpt lat="44.88603092070104" lon="7.280275160723498"><ele>422.0</ele><time>2026-04-19T12:18:53Z</time></trkpt><trkpt lat="44.88597430470467" lon="7.280537342819759"><ele>418.3333333333333</ele><time>2026-04-19T12:18:54Z</time></trkpt><trkpt lat="44.885904592499436" lon="7.280799720799572"><ele>414.66666666666663</ele><time>2026-04-19T12:18:55Z</time></trkpt><trkpt lat="44.885838173967095" lon="7.28105765487756"><ele>411.0</ele><time>2026-04-19T12:18:56Z</time></trkpt><trkpt lat="44.885775057810115" lon="7.281311776911054"><ele>411.0</ele><time>2026-04-19T12:18:57Z</time></trkpt><trkpt lat="44.88571612509935" lon="7.281559093813588"><ele>411.0</ele><time>2026-04-19T12:18:58Z</time></trkpt><trkpt lat="44.8856565036733" lon="7.281807081380261"><ele>411.0</ele><time>2026-04-19T12:18:59Z</time></trkpt><trkpt lat="44.88559642432175" lon="7.282047357171884"><ele>411.0</ele><time>2026-04-19T12:19:00Z</time></trkpt><trkpt lat="44.88553896343683" lon="7.282297717411404"><ele>411.0</ele><time>2026-04-19T12:19:01Z</time></trkpt><trkpt lat="44.88549062392049" lon="7.282552318749383"><ele>411.0</ele><time>2026-04-19T12:19:02Z</time></trkpt><trkpt lat="44.885462500158596" lon="7.282811881254282"><ele>411.0</ele><time>2026-04-19T12:19:03Z</time></trkpt><trkpt lat="44.885450759359415" lon="7.283087232116807"><ele>411.0</ele><time>2026-04-19T12:19:04Z</time></trkpt><trkpt lat="44.885439238286594" lon="7.283365403546995"><ele>411.0</ele><time>2026-04-19T12:19:05Z</time></trkpt><trkpt lat="44.88542067473727" lon="7.2836408217354585"><ele>411.0</ele><time>2026-04-19T12:19:06Z</time></trkpt><trkpt lat="44.885399926663446" lon="7.28391634391725"><ele>411.0</ele><time>2026-04-19T12:19:07Z</time></trkpt><trkpt lat="44.88538328012491" lon="7.284184481102337"><ele>411.0</ele><time>2026-04-19T12:19:08Z</time></trkpt><trkpt lat="44.88536779750932" lon="7.284438801600118"><ele>411.33333333333337</ele><time>2026-04-19T12:19:09Z</time></trkpt><trkpt lat="44.885347089922384" lon="7.284692045080115"><ele>411.6666666666667</ele><time>2026-04-19T12:19:10Z</time></trkpt><trkpt lat="44.88533404838612" lon="7.284930341647854"><ele>412.0</ele><time>2026-04-19T12:19:11Z</time></trkpt><trkpt lat="44.88532395517813" lon="7.2851615353206425"><ele>411.33333333333337</ele><time>2026-04-19T12:19:12Z</time></trkpt><trkpt lat="44.885310573446624" lon="7.285393974581782"><ele>410.66666666666663</ele><time>2026-04-19T12:19:13Z</time></trkpt><trkpt lat="44.88530291677855" lon="7.285623414883343"><ele>410.0</ele><time>2026-04-19T12:19:14Z</time></trkpt><trkpt lat="44.88529656009403" lon="7.285870356320798"><ele>410.0</ele><time>2026-04-19T12:19:15Z</time></trkpt><trkpt lat="44.88527709766596" lon="7.286118433330847"><ele>410.0</ele><time>2026-04-19T12:19:16Z</time></trkpt><trkpt lat="44.88528767323846" lon="7.286372380557153"><ele>410.0</ele><time>2026-04-19T12:19:17Z</time></trkpt><trkpt lat="44.885323636447616" lon="7.286609890692326"><ele>410.5</ele><time>2026-04-19T12:19:18Z</time></trkpt><trkpt lat="44.88534561118278" lon="7.2868279441678325"><ele>411.0</ele><time>2026-04-19T12:19:19Z</time></trkpt><trkpt lat="44.88535948392759" lon="7.287033332083899"><ele>411.5</ele><time>2026-04-19T12:19:20Z</time></trkpt><trkpt lat="44.885382251630226" lon="7.287207600204636"><ele>412.0</ele><time>2026-04-19T12:19:21Z</time></trkpt><trkpt lat="44.88539588133904" lon="7.287378557741466"><ele>412.1666666666667</ele><time>2026-04-19T12:19:22Z</time></trkpt><trkpt lat="44.88541298989401" lon="7.2875379479440845"><ele>412.33333333333337</ele><time>2026-04-19T12:19:23Z</time></trkpt><trkpt lat="44.885425185434606" lon="7.28767821176313"><ele>412.5</ele><time>2026-04-19T12:19:24Z</time></trkpt><trkpt lat="44.88543370128275" lon="7.287800831990442"><ele>412.66666666666663</ele><time>2026-04-19T12:19:25Z</time></trkpt><trkpt lat="44.88541690627696" lon="7.287893026869102"><ele>412.8333333333333</ele><time>2026-04-19T12:19:26Z</time></trkpt><trkpt lat="44.88539268886837" lon="7.28797923153634"><ele>413.0</ele><time>2026-04-19T12:19:27Z</time></trkpt><trkpt lat="44.885357778897074" lon="7.288058721959135"><ele>412.79999999999995</ele><time>2026-04-19T12:19:28Z</time></trkpt><trkpt lat="44.88533684236506" lon="7.288151625099997"><ele>412.6</ele><time>2026-04-19T12:19:29Z</time></trkpt><trkpt lat="44.88534416644086" lon="7.288249324193647"><ele>412.4</ele><time>2026-04-19T12:19:30Z</time></trkpt><trkpt lat="44.88540335804122" lon="7.288322720112614"><ele>412.20000000000005</ele><time>2026-04-19T12:19:31Z</time></trkpt><trkpt lat="44.8854120090278" lon="7.28850257512246"><ele>412.0</ele><time>2026-04-19T12:19:32Z</time></trkpt><trkpt lat="44.885430244074904" lon="7.288668372542093"><ele>412.0</ele><time>2026-04-19T12:19:33Z</time></trkpt><trkpt lat="44.88543212009835" lon="7.288847889676123"><ele>412.0</ele><time>2026-04-19T12:19:34Z</time></trkpt><trkpt lat="44.88541712854734" lon="7.288990225706676"><ele>412.0</ele><time>2026-04-19T12:19:35Z</time></trkpt><trkpt lat="44.88540226530876" lon="7.2891438796620545"><ele>412.0</ele><time>2026-04-19T12:19:36Z</time></trkpt><trkpt lat="44.88539686993672" lon="7.289321881549118"><ele>411.5</ele><time>2026-04-19T12:19:37Z</time></trkpt><trkpt lat="44.885385568819515" lon="7.289509477990494"><ele>411.0</ele><time>2026-04-19T12:19:38Z</time></trkpt><trkpt lat="44.885376699498394" lon="7.289705153819103"><ele>410.5</ele><time>2026-04-19T12:19:39Z</time></trkpt><trkpt lat="44.885368405521575" lon="7.2899290101650625"><ele>410.0</ele><time>2026-04-19T12:19:40Z</time></trkpt><trkpt lat="44.88535453590864" lon="7.290179329922703"><ele>410.0</ele><time>2026-04-19T12:19:41Z</time></trkpt><trkpt lat="44.88533401982428" lon="7.290448750381531"><ele>410.0</ele><time>2026-04-19T12:19:42Z</time></trkpt><trkpt lat="44.88531256172196" lon="7.290735720234843"><ele>410.0</ele><time>2026-04-19T12:19:43Z</time></trkpt><trkpt lat="44.88529397517557" lon="7.291038420788523"><ele>409.3333333333333</ele><time>2026-04-19T12:19:44Z</time></trkpt><trkpt lat="44.88527689887189" lon="7.291346149027674"><ele>408.66666666666663</ele><time>2026-04-19T12:19:45Z</time></trkpt><trkpt lat="44.88525483730294" lon="7.291659312036433"><ele>408.0</ele><time>2026-04-19T12:19:46Z</time></trkpt><trkpt lat="44.88523476425032" lon="7.291972118678762"><ele>407.66666666666663</ele><time>2026-04-19T12:19:47Z</time></trkpt><trkpt lat="44.8852263951496" lon="7.2922837951690385"><ele>407.3333333333333</ele><time>2026-04-19T12:19:48Z</time></trkpt><trkpt lat="44.885232102549345" lon="7.29259777603161"><ele>407.0</ele><time>2026-04-19T12:19:49Z</time></trkpt><trkpt lat="44.8852740953304" lon="7.292908164208101"><ele>407.3333333333333</ele><time>2026-04-19T12:19:50Z</time></trkpt><trkpt lat="44.88533217643148" lon="7.293211985051384"><ele>407.66666666666663</ele><time>2026-04-19T12:19:51Z</time></trkpt><trkpt lat="44.88539859347433" lon="7.293510723730711"><ele>408.0</ele><time>2026-04-19T12:19:52Z</time></trkpt><trkpt lat="44.88545999479596" lon="7.293802634479412"><ele>408.33333333333337</ele><time>2026-04-19T12:19:53Z</time></trkpt><trkpt lat="44.88551328294346" lon="7.2940737342148285"><ele>408.6666666666667</ele><time>2026-04-19T12:19:54Z</time></trkpt><trkpt lat="44.88555169421367" lon="7.294325924602941"><ele>409.0</ele><time>2026-04-19T12:19:55Z</time></trkpt><trkpt lat="44.88558959981491" lon="7.294575107668472"><ele>408.0</ele><time>2026-04-19T12:19:56Z</time></trkpt><trkpt lat="44.88561617659361" lon="7.294812625752578"><ele>407.0</ele><time>2026-04-19T12:19:57Z</time></trkpt><trkpt lat="44.885625641766985" lon="7.295062952687613"><ele>406.0</ele><time>2026-04-19T12:19:58Z</time></trkpt><trkpt lat="44.88563905507848" lon="7.295292175626565"><ele>406.0</ele><time>2026-04-19T12:19:59Z</time></trkpt><trkpt lat="44.88563436640302" lon="7.295492684607331"><ele>406.0</ele><time>2026-04-19T12:20:00Z</time></trkpt><trkpt lat="44.88561661730267" lon="7.295685999840594"><ele>406.0</ele><time>2026-04-19T12:20:01Z</time></trkpt><trkpt lat="44.88557130297813" lon="7.295869063530921"><ele>406.0</ele><time>2026-04-19T12:20:02Z</time></trkpt><trkpt lat="44.88550779416327" lon="7.2960718282279835"><ele>406.0</ele><time>2026-04-19T12:20:03Z</time></trkpt><trkpt lat="44.8854232626305" lon="7.296268573776836"><ele>406.0</ele><time>2026-04-19T12:20:04Z</time></trkpt><trkpt lat="44.885324666831565" lon="7.2964641525506915"><ele>406.0</ele><time>2026-04-19T12:20:05Z</time></trkpt><trkpt lat="44.885218687263766" lon="7.296662347974216"><ele>406.6666666666667</ele><time>2026-04-19T12:20:06Z</time></trkpt><trkpt lat="44.88511006108999" lon="7.296855759991354"><ele>407.33333333333337</ele><time>2026-04-19T12:20:07Z</time></trkpt><trkpt lat="44.88500842726489" lon="7.2970434955245755"><ele>408.0</ele><time>2026-04-19T12:20:08Z</time></trkpt><trkpt lat="44.88491444469867" lon="7.297230666091385"><ele>406.66666666666663</ele><time>2026-04-19T12:20:09Z</time></trkpt><trkpt lat="44.884819922738714" lon="7.297415513744284"><ele>405.3333333333333</ele><time>2026-04-19T12:20:10Z</time></trkpt><trkpt lat="44.88473307897871" lon="7.297592199391559"><ele>404.0</ele><time>2026-04-19T12:20:11Z</time></trkpt><trkpt lat="44.884653929607644" lon="7.29776148486301"><ele>404.0</ele><time>2026-04-19T12:20:12Z</time></trkpt><trkpt lat="44.884582939037884" lon="7.297943380156724"><ele>404.0</ele><time>2026-04-19T12:20:13Z</time></trkpt><trkpt lat="44.88456539383882" lon="7.298137947307795"><ele>404.0</ele><time>2026-04-19T12:20:14Z</time></trkpt><trkpt lat="44.88456843997107" lon="7.298344279838055"><ele>404.0</ele><time>2026-04-19T12:20:15Z</time></trkpt><trkpt lat="44.884549615140315" lon="7.29856658384477"><ele>404.0</ele><time>2026-04-19T12:20:16Z</time></trkpt><trkpt lat="44.88454566803657" lon="7.298807539397611"><ele>404.0</ele><time>2026-04-19T12:20:17Z</time></trkpt><trkpt lat="44.88452640930004" lon="7.299055206919824"><ele>404.0</ele><time>2026-04-19T12:20:18Z</time></trkpt><trkpt lat="44.884507037135954" lon="7.299315116485078"><ele>404.0</ele><time>2026-04-19T12:20:19Z</time></trkpt><trkpt lat="44.88448925027713" lon="7.299587179147674"><ele>404.0</ele><time>2026-04-19T12:20:20Z</time></trkpt><trkpt lat="44.88447332249876" lon="7.299851581857609"><ele>404.0</ele><time>2026-04-19T12:20:21Z</time></trkpt><trkpt lat="44.88445208091467" lon="7.300128165007967"><ele>404.0</ele><time>2026-04-19T12:20:22Z</time></trkpt><trkpt lat="44.88443488823091" lon="7.300403223126701"><ele>404.0</ele><time>2026-04-19T12:20:23Z</time></trkpt><trkpt lat="44.884419378037876" lon="7.30066103523256"><ele>404.0</ele><time>2026-04-19T12:20:24Z</time></trkpt><trkpt lat="44.88439564805915" lon="7.300934886333744"><ele>404.0</ele><time>2026-04-19T12:20:25Z</time></trkpt><trkpt lat="44.884375402035346" lon="7.301177538615868"><ele>404.0</ele><time>2026-04-19T12:20:26Z</time></trkpt><trkpt lat="44.88435039054689" lon="7.301410200655399"><ele>404.0</ele><time>2026-04-19T12:20:27Z</time></trkpt><trkpt lat="44.88432323299198" lon="7.3016564073477594"><ele>403.3333333333333</ele><time>2026-04-19T12:20:28Z</time></trkpt><trkpt lat="44.884293841522435" lon="7.301897602955206"><ele>402.66666666666663</ele><time>2026-04-19T12:20:29Z</time></trkpt><trkpt lat="44.88426703719407" lon="7.302122988678515"><ele>402.0</ele><time>2026-04-19T12:20:30Z</time></trkpt><trkpt lat="44.884242893657195" lon="7.302326198343402"><ele>401.0</ele><time>2026-04-19T12:20:31Z</time></trkpt><trkpt lat="44.88421948593837" lon="7.302514065629824"><ele>400.0</ele><time>2026-04-19T12:20:32Z</time></trkpt><trkpt lat="44.8841864476811" lon="7.302681767423615"><ele>399.0</ele><time>2026-04-19T12:20:33Z</time></trkpt><trkpt lat="44.88413915567396" lon="7.3028604433569235"><ele>398.0</ele><time>2026-04-19T12:20:34Z</time></trkpt><trkpt lat="44.88410407074891" lon="7.30304954669822"><ele>397.66666666666663</ele><time>2026-04-19T12:20:35Z</time></trkpt><trkpt lat="44.8841032937928" lon="7.303260507421513"><ele>397.33333333333337</ele><time>2026-04-19T12:20:36Z</time></trkpt><trkpt lat="44.88411423571342" lon="7.303493993223136"><ele>397.0</ele><time>2026-04-19T12:20:37Z</time></trkpt><trkpt lat="44.88411641530726" lon="7.303730491130711"><ele>396.6666666666667</ele><time>2026-04-19T12:20:38Z</time></trkpt><trkpt lat="44.8841045531909" lon="7.303981056600427"><ele>396.33333333333337</ele><time>2026-04-19T12:20:39Z</time></trkpt><trkpt lat="44.88409290100097" lon="7.3042337951518395"><ele>396.0</ele><time>2026-04-19T12:20:40Z</time></trkpt><trkpt lat="44.88408339821933" lon="7.304492990054332"><ele>396.0</ele><time>2026-04-19T12:20:41Z</time></trkpt><trkpt lat="44.884081576658886" lon="7.304745076509713"><ele>396.0</ele><time>2026-04-19T12:20:42Z</time></trkpt><trkpt lat="44.88408134850398" lon="7.304986137557887"><ele>396.0</ele><time>2026-04-19T12:20:43Z</time></trkpt><trkpt lat="44.88408445297446" lon="7.305233606050222"><ele>396.0</ele><time>2026-04-19T12:20:43.999Z</time></trkpt><trkpt lat="44.88408793840596" lon="7.305460099592271"><ele>396.0</ele><time>2026-04-19T12:20:44.999Z</time></trkpt><trkpt lat="44.88409080595156" lon="7.305653643703577"><ele>396.0</ele><time>2026-04-19T12:20:45.999Z</time></trkpt><trkpt lat="44.884069416899024" lon="7.3058236555983465"><ele>396.0</ele><time>2026-04-19T12:20:46.999Z</time></trkpt><trkpt lat="44.884029025836725" lon="7.305970277387214"><ele>396.0</ele><time>2026-04-19T12:20:47.999Z</time></trkpt><trkpt lat="44.88399724188976" lon="7.306083520716498"><ele>396.0</ele><time>2026-04-19T12:20:48.999Z</time></trkpt><trkpt lat="44.884013002717346" lon="7.306179036506444"><ele>396.0</ele><time>2026-04-19T12:20:49.999Z</time></trkpt><trkpt lat="44.88407282565997" lon="7.306240787278052"><ele>396.0</ele><time>2026-04-19T12:20:50.999Z</time></trkpt><trkpt lat="44.884157667750074" lon="7.306308224454057"><ele>396.0</ele><time>2026-04-19T12:20:51.999Z</time></trkpt><trkpt lat="44.884213887075624" lon="7.306426860074271"><ele>396.0</ele><time>2026-04-19T12:20:52.999Z</time></trkpt><trkpt lat="44.88423023526049" lon="7.3066011849703605"><ele>396.0</ele><time>2026-04-19T12:20:53.999Z</time></trkpt><trkpt lat="44.884241539856404" lon="7.306803258495902"><ele>396.0</ele><time>2026-04-19T12:20:54.999Z</time></trkpt><trkpt lat="44.884240622744684" lon="7.307014738155771"><ele>396.0</ele><time>2026-04-19T12:20:55.999Z</time></trkpt><trkpt lat="44.884240780790165" lon="7.307231667086967"><ele>396.0</ele><time>2026-04-19T12:20:56.999Z</time></trkpt><trkpt lat="44.88424673729489" lon="7.307460588199871"><ele>395.33333333333337</ele><time>2026-04-19T12:20:57.999Z</time></trkpt><trkpt lat="44.88425089969552" lon="7.307701856060048"><ele>394.6666666666667</ele><time>2026-04-19T12:20:58.999Z</time></trkpt><trkpt lat="44.884258724202574" lon="7.307956553827477"><ele>394.0</ele><time>2026-04-19T12:20:59.999Z</time></trkpt><trkpt lat="44.88426702096734" lon="7.3082165087599735"><ele>394.0</ele><time>2026-04-19T12:21:00.999Z</time></trkpt><trkpt lat="44.884281949529516" lon="7.308482686827439"><ele>394.0</ele><time>2026-04-19T12:21:01.999Z</time></trkpt><trkpt lat="44.88430320436046" lon="7.308762142152863"><ele>394.0</ele><time>2026-04-19T12:21:02.999Z</time></trkpt><trkpt lat="44.88433780119" lon="7.309032448766173"><ele>393.6666666666667</ele><time>2026-04-19T12:21:03.999Z</time></trkpt><trkpt lat="44.884386629929644" lon="7.309300251169572"><ele>393.33333333333337</ele><time>2026-04-19T12:21:04.999Z</time></trkpt><trkpt lat="44.884444470901215" lon="7.3095706375272025"><ele>393.0</ele><time>2026-04-19T12:21:05.999Z</time></trkpt><trkpt lat="44.88452535277467" lon="7.309827836243432"><ele>393.0</ele><time>2026-04-19T12:21:06.999Z</time></trkpt><trkpt lat="44.884634563174046" lon="7.3100571335037445"><ele>393.0</ele><time>2026-04-19T12:21:07.999Z</time></trkpt><trkpt lat="44.884743938757" lon="7.310288568147424"><ele>393.0</ele><time>2026-04-19T12:21:08.999Z</time></trkpt><trkpt lat="44.88483865028613" lon="7.310502779534483"><ele>393.0</ele><time>2026-04-19T12:21:09.999Z</time></trkpt><trkpt lat="44.88493941560474" lon="7.3107204984308725"><ele>393.0</ele><time>2026-04-19T12:21:10.999Z</time></trkpt><trkpt lat="44.88504038212696" lon="7.310938389613703"><ele>393.0</ele><time>2026-04-19T12:21:11.999Z</time></trkpt><trkpt lat="44.885138547133195" lon="7.311154634954826"><ele>393.0</ele><time>2026-04-19T12:21:12.999Z</time></trkpt><trkpt lat="44.885240829613636" lon="7.311356315939736"><ele>393.0</ele><time>2026-04-19T12:21:13.999Z</time></trkpt><trkpt lat="44.88534850629839" lon="7.311530746723556"><ele>393.0</ele><time>2026-04-19T12:21:14.999Z</time></trkpt><trkpt lat="44.8854468797724" lon="7.3116794207614415"><ele>392.75</ele><time>2026-04-19T12:21:15.999Z</time></trkpt><trkpt lat="44.88552862030847" lon="7.311806855161727"><ele>392.5</ele><time>2026-04-19T12:21:16.999Z</time></trkpt><trkpt lat="44.885617247669906" lon="7.31190762189948"><ele>392.25</ele><time>2026-04-19T12:21:17.999Z</time></trkpt><trkpt lat="44.885669181691746" lon="7.312064010949821"><ele>392.0</ele><time>2026-04-19T12:21:18.999Z</time></trkpt><trkpt lat="44.8857423768719" lon="7.312203364970804"><ele>391.5</ele><time>2026-04-19T12:21:19.999Z</time></trkpt><trkpt lat="44.88570693776874" lon="7.3123885968299795"><ele>391.0</ele><time>2026-04-19T12:21:20.999Z</time></trkpt><trkpt lat="44.88569287401528" lon="7.312584079754806"><ele>390.5</ele><time>2026-04-19T12:21:21.999Z</time></trkpt><trkpt lat="44.88568565098652" lon="7.312784444103581"><ele>390.0</ele><time>2026-04-19T12:21:22.999Z</time></trkpt><trkpt lat="44.88567608510827" lon="7.312994316045105"><ele>390.0</ele><time>2026-04-19T12:21:23.999Z</time></trkpt><trkpt lat="44.88566870125884" lon="7.313213929413036"><ele>390.0</ele><time>2026-04-19T12:21:24.999Z</time></trkpt><trkpt lat="44.88566294457096" lon="7.31343718302939"><ele>390.0</ele><time>2026-04-19T12:21:25.999Z</time></trkpt><trkpt lat="44.885652175852435" lon="7.31367386478759"><ele>389.66666666666663</ele><time>2026-04-19T12:21:26.999Z</time></trkpt><trkpt lat="44.88564609554244" lon="7.31390851829182"><ele>389.3333333333333</ele><time>2026-04-19T12:21:27.999Z</time></trkpt><trkpt lat="44.8856420826556" lon="7.314146807190712"><ele>389.0</ele><time>2026-04-19T12:21:28.999Z</time></trkpt><trkpt lat="44.88563791153857" lon="7.314378751496173"><ele>389.0</ele><time>2026-04-19T12:21:29.999Z</time></trkpt><trkpt lat="44.885635507952685" lon="7.314621647083017"><ele>389.0</ele><time>2026-04-19T12:21:30.999Z</time></trkpt><trkpt lat="44.885630753151766" lon="7.3148701647185215"><ele>389.0</ele><time>2026-04-19T12:21:31.999Z</time></trkpt><trkpt lat="44.88562464707926" lon="7.315117296187136"><ele>388.66666666666663</ele><time>2026-04-19T12:21:32.999Z</time></trkpt><trkpt lat="44.885620491719415" lon="7.315370702158519"><ele>388.33333333333337</ele><time>2026-04-19T12:21:33.999Z</time></trkpt><trkpt lat="44.88561854491288" lon="7.315621358068538"><ele>388.0</ele><time>2026-04-19T12:21:34.999Z</time></trkpt><trkpt lat="44.885613628782544" lon="7.315871064138585"><ele>388.0</ele><time>2026-04-19T12:21:35.999Z</time></trkpt><trkpt lat="44.8856115766709" lon="7.316130468183458"><ele>388.0</ele><time>2026-04-19T12:21:36.999Z</time></trkpt><trkpt lat="44.885610116313885" lon="7.316384509062797"><ele>388.0</ele><time>2026-04-19T12:21:37.999Z</time></trkpt><trkpt lat="44.885594861327355" lon="7.316605955548359"><ele>388.0</ele><time>2026-04-19T12:21:38.999Z</time></trkpt><trkpt lat="44.885590050630825" lon="7.316806206922955"><ele>388.0</ele><time>2026-04-19T12:21:39.999Z</time></trkpt><trkpt lat="44.885584838540446" lon="7.316973204804805"><ele>388.0</ele><time>2026-04-19T12:21:40.999Z</time></trkpt><trkpt lat="44.885580419076355" lon="7.317109299826969"><ele>388.0</ele><time>2026-04-19T12:21:41.999Z</time></trkpt><trkpt lat="44.8855769948421" lon="7.317215407315855"><ele>388.0</ele><time>2026-04-19T12:21:42.999Z</time></trkpt><trkpt lat="44.8855722107893" lon="7.317383845807147"><ele>387.4</ele><time>2026-04-19T12:21:44.999Z</time></trkpt><trkpt lat="44.885569061196236" lon="7.317479725371885"><ele>386.79999999999995</ele><time>2026-04-19T12:21:45.999Z</time></trkpt><trkpt lat="44.88558009954462" lon="7.317604122538204"><ele>386.2</ele><time>2026-04-19T12:21:46.999Z</time></trkpt><trkpt lat="44.885572067460494" lon="7.3177392634660485"><ele>385.6</ele><time>2026-04-19T12:21:47.999Z</time></trkpt><trkpt lat="44.88556943958464" lon="7.31788710541158"><ele>385.0</ele><time>2026-04-19T12:21:48.999Z</time></trkpt><trkpt lat="44.88556243580351" lon="7.318044982970266"><ele>385.0</ele><time>2026-04-19T12:21:49.998Z</time></trkpt><trkpt lat="44.88555194625562" lon="7.318213199713232"><ele>385.0</ele><time>2026-04-19T12:21:50.998Z</time></trkpt><trkpt lat="44.88554327304807" lon="7.3183825087357945"><ele>385.0</ele><time>2026-04-19T12:21:51.998Z</time></trkpt><trkpt lat="44.885533591079884" lon="7.318551673006663"><ele>385.0</ele><time>2026-04-19T12:21:52.998Z</time></trkpt><trkpt lat="44.88552794161463" lon="7.318735170016648"><ele>385.75</ele><time>2026-04-19T12:21:53.998Z</time></trkpt><trkpt lat="44.88552520540897" lon="7.31894260940966"><ele>386.5</ele><time>2026-04-19T12:21:54.998Z</time></trkpt><trkpt lat="44.88551778792518" lon="7.3191343644738085"><ele>387.25</ele><time>2026-04-19T12:21:55.998Z</time></trkpt><trkpt lat="44.88551687015115" lon="7.319301716888895"><ele>388.0</ele><time>2026-04-19T12:21:56.998Z</time></trkpt><trkpt lat="44.88551595443129" lon="7.31948503872337"><ele>388.0</ele><time>2026-04-19T12:21:57.998Z</time></trkpt><trkpt lat="44.8855128514307" lon="7.319652911187412"><ele>388.0</ele><time>2026-04-19T12:21:58.998Z</time></trkpt><trkpt lat="44.88550682590428" lon="7.319792021223437"><ele>388.0</ele><time>2026-04-19T12:21:59.998Z</time></trkpt><trkpt lat="44.88550177042877" lon="7.319914365012464"><ele>388.0</ele><time>2026-04-19T12:22:00.998Z</time></trkpt><trkpt lat="44.88549550398876" lon="7.320040678771906"><ele>388.0</ele><time>2026-04-19T12:22:01.998Z</time></trkpt><trkpt lat="44.88548852491464" lon="7.32017709916845"><ele>388.25</ele><time>2026-04-19T12:22:02.998Z</time></trkpt><trkpt lat="44.885491580619316" lon="7.3203381319753245"><ele>388.5</ele><time>2026-04-19T12:22:03.998Z</time></trkpt><trkpt lat="44.88548776160327" lon="7.320528111370253"><ele>388.75</ele><time>2026-04-19T12:22:04.998Z</time></trkpt><trkpt lat="44.885489436113005" lon="7.320736790336928"><ele>389.0</ele><time>2026-04-19T12:22:05.998Z</time></trkpt><trkpt lat="44.88548653194076" lon="7.32095039108436"><ele>388.0</ele><time>2026-04-19T12:22:06.998Z</time></trkpt><trkpt lat="44.885478279438956" lon="7.321162889868697"><ele>387.0</ele><time>2026-04-19T12:22:07.998Z</time></trkpt><trkpt lat="44.88547291639145" lon="7.32138113366488"><ele>386.0</ele><time>2026-04-19T12:22:08.998Z</time></trkpt><trkpt lat="44.88546302563859" lon="7.321615138324758"><ele>386.0</ele><time>2026-04-19T12:22:09.998Z</time></trkpt><trkpt lat="44.88546563450179" lon="7.321848745495963"><ele>386.0</ele><time>2026-04-19T12:22:10.998Z</time></trkpt><trkpt lat="44.885451204984776" lon="7.322081782492625"><ele>386.0</ele><time>2026-04-19T12:22:11.999Z</time></trkpt><trkpt lat="44.885446821741894" lon="7.322314358976905"><ele>386.0</ele><time>2026-04-19T12:22:12.999Z</time></trkpt><trkpt lat="44.88543424751023" lon="7.322551724996545"><ele>386.0</ele><time>2026-04-19T12:22:13.999Z</time></trkpt><trkpt lat="44.88542555199884" lon="7.322784093106397"><ele>386.0</ele><time>2026-04-19T12:22:14.999Z</time></trkpt><trkpt lat="44.88542734166027" lon="7.3230109113273505"><ele>386.0</ele><time>2026-04-19T12:22:15.999Z</time></trkpt><trkpt lat="44.88542425568358" lon="7.323236967399187"><ele>386.0</ele><time>2026-04-19T12:22:16.999Z</time></trkpt><trkpt lat="44.88541972709426" lon="7.323465095257991"><ele>386.0</ele><time>2026-04-19T12:22:17.999Z</time></trkpt><trkpt lat="44.885412537922655" lon="7.323701694116957"><ele>386.66666666666663</ele><time>2026-04-19T12:22:18.999Z</time></trkpt><trkpt lat="44.88540218198311" lon="7.323954579943382"><ele>387.33333333333337</ele><time>2026-04-19T12:22:19.999Z</time></trkpt><trkpt lat="44.88538379016559" lon="7.324215029525313"><ele>388.0</ele><time>2026-04-19T12:22:20.999Z</time></trkpt><trkpt lat="44.885353033406986" lon="7.324480091852031"><ele>387.6666666666667</ele><time>2026-04-19T12:22:21.999Z</time></trkpt><trkpt lat="44.88532068544828" lon="7.324739412952998"><ele>387.33333333333337</ele><time>2026-04-19T12:22:22.999Z</time></trkpt><trkpt lat="44.88528907738245" lon="7.3249855414704275"><ele>387.0</ele><time>2026-04-19T12:22:23.999Z</time></trkpt><trkpt lat="44.88525221204767" lon="7.325228402504129"><ele>387.0</ele><time>2026-04-19T12:22:24.999Z</time></trkpt><trkpt lat="44.885220073675434" lon="7.325468968947661"><ele>387.0</ele><time>2026-04-19T12:22:25.999Z</time></trkpt><trkpt lat="44.885185218009575" lon="7.3257042126685326"><ele>387.0</ele><time>2026-04-19T12:22:26.999Z</time></trkpt><trkpt lat="44.88515858522196" lon="7.325935709788792"><ele>387.0</ele><time>2026-04-19T12:22:27.999Z</time></trkpt><trkpt lat="44.88513468129009" lon="7.326159712343104"><ele>387.0</ele><time>2026-04-19T12:22:28.999Z</time></trkpt><trkpt lat="44.8851021811123" lon="7.326396468745237"><ele>387.0</ele><time>2026-04-19T12:22:29.999Z</time></trkpt><trkpt lat="44.88505549908666" lon="7.326638929327969"><ele>386.0</ele><time>2026-04-19T12:22:30.999Z</time></trkpt><trkpt lat="44.88502000656166" lon="7.3268809638604235"><ele>385.0</ele><time>2026-04-19T12:22:31.999Z</time></trkpt><trkpt lat="44.88498607338784" lon="7.3271058936235125"><ele>384.0</ele><time>2026-04-19T12:22:32.999Z</time></trkpt><trkpt lat="44.88495001511332" lon="7.327330652084918"><ele>384.0</ele><time>2026-04-19T12:22:33.999Z</time></trkpt><trkpt lat="44.88492282212623" lon="7.327591393019229"><ele>384.0</ele><time>2026-04-19T12:22:34.999Z</time></trkpt><trkpt lat="44.88489603073475" lon="7.327805678692394"><ele>384.0</ele><time>2026-04-19T12:22:35.999Z</time></trkpt><trkpt lat="44.88486917880814" lon="7.328011614843122"><ele>384.0</ele><time>2026-04-19T12:22:36.999Z</time></trkpt><trkpt lat="44.884833755716976" lon="7.328191282278394"><ele>384.0</ele><time>2026-04-19T12:22:37.999Z</time></trkpt><trkpt lat="44.884821041037576" lon="7.328343026933827"><ele>384.0</ele><time>2026-04-19T12:22:38.999Z</time></trkpt><trkpt lat="44.884792883338676" lon="7.3284587002255375"><ele>384.0</ele><time>2026-04-19T12:22:39.999Z</time></trkpt><trkpt lat="44.88478658705503" lon="7.328563320797301"><ele>384.0</ele><time>2026-04-19T12:22:40.999Z</time></trkpt><trkpt lat="44.88476320055392" lon="7.3286920930771835"><ele>384.0</ele><time>2026-04-19T12:22:41.999Z</time></trkpt><trkpt lat="44.884725156580615" lon="7.328872476012734"><ele>384.0</ele><time>2026-04-19T12:22:42.999Z</time></trkpt><trkpt lat="44.884679058125776" lon="7.329071996175305"><ele>384.0</ele><time>2026-04-19T12:22:43.999Z</time></trkpt><trkpt lat="44.884642162735595" lon="7.329299324894041"><ele>384.0</ele><time>2026-04-19T12:22:44.999Z</time></trkpt><trkpt lat="44.88460703211982" lon="7.329533032751371"><ele>383.5</ele><time>2026-04-19T12:22:45.999Z</time></trkpt><trkpt lat="44.884572578570356" lon="7.329749802382014"><ele>383.0</ele><time>2026-04-19T12:22:46.999Z</time></trkpt><trkpt lat="44.8845404674528" lon="7.329934751109212"><ele>382.5</ele><time>2026-04-19T12:22:47.999Z</time></trkpt><trkpt lat="44.88451520817129" lon="7.3301034553172935"><ele>382.0</ele><time>2026-04-19T12:22:48.999Z</time></trkpt><trkpt lat="44.88449630478627" lon="7.3302373766567275"><ele>382.0</ele><time>2026-04-19T12:22:49.999Z</time></trkpt><trkpt lat="44.88448762796449" lon="7.330328505258068"><ele>382.0</ele><time>2026-04-19T12:22:50.999Z</time></trkpt><trkpt lat="44.884488597625314" lon="7.3304260985943905"><ele>382.0</ele><time>2026-04-19T12:22:52.999Z</time></trkpt><trkpt lat="44.88449708228243" lon="7.330592446014197"><ele>382.0</ele><time>2026-04-19T12:23:53.999Z</time></trkpt><trkpt lat="44.88452593915085" lon="7.330700655379942"><ele>382.0</ele><time>2026-04-19T12:23:54.999Z</time></trkpt><trkpt lat="44.88456104246444" lon="7.330827942954044"><ele>382.0</ele><time>2026-04-19T12:23:55.998Z</time></trkpt><trkpt lat="44.88460794985993" lon="7.3309738080888085"><ele>381.25</ele><time>2026-04-19T12:23:56.998Z</time></trkpt><trkpt lat="44.88465394765615" lon="7.3311391015499465"><ele>380.5</ele><time>2026-04-19T12:23:57.998Z</time></trkpt><trkpt lat="44.88470333270165" lon="7.331315784032184"><ele>379.75</ele><time>2026-04-19T12:23:58.998Z</time></trkpt><trkpt lat="44.884748820080205" lon="7.331479512599406"><ele>379.0</ele><time>2026-04-19T12:23:59.998Z</time></trkpt><trkpt lat="44.88478715425946" lon="7.331608886181831"><ele>379.0</ele><time>2026-04-19T12:24:00.998Z</time></trkpt><trkpt lat="44.884816771925664" lon="7.331708197045149"><ele>379.0</ele><time>2026-04-19T12:24:01.998Z</time></trkpt><trkpt lat="44.8848426590423" lon="7.331801767500328"><ele>379.0</ele><time>2026-04-19T12:24:02.998Z</time></trkpt><trkpt lat="44.884879189741746" lon="7.331950382103072"><ele>379.0</ele><time>2026-04-19T12:24:04.998Z</time></trkpt><trkpt lat="44.88490196227085" lon="7.332043549954018"><ele>379.0</ele><time>2026-04-19T12:24:06.998Z</time></trkpt><trkpt lat="44.88493565819051" lon="7.332133338889923"><ele>379.0</ele><time>2026-04-19T12:24:23.999Z</time></trkpt><trkpt lat="44.884955855388895" lon="7.332236104223079"><ele>379.0</ele><time>2026-04-19T12:24:24.999Z</time></trkpt><trkpt lat="44.88498464882994" lon="7.332344720956586"><ele>379.0</ele><time>2026-04-19T12:24:25.999Z</time></trkpt><trkpt lat="44.8850237556624" lon="7.332486947885253"><ele>379.0</ele><time>2026-04-19T12:24:26.999Z</time></trkpt><trkpt lat="44.88507787666687" lon="7.332673136307258"><ele>379.0</ele><time>2026-04-19T12:24:27.999Z</time></trkpt><trkpt lat="44.885142345317014" lon="7.332921189391278"><ele>377.66666666666663</ele><time>2026-04-19T12:24:28.999Z</time></trkpt><trkpt lat="44.88521288374618" lon="7.333168669283404"><ele>376.3333333333333</ele><time>2026-04-19T12:24:29.999Z</time></trkpt><trkpt lat="44.88527631927207" lon="7.333395591535293"><ele>375.0</ele><time>2026-04-19T12:24:30.999Z</time></trkpt><trkpt lat="44.88533745863119" lon="7.333600120024967"><ele>375.0</ele><time>2026-04-19T12:24:31.999Z</time></trkpt><trkpt lat="44.88539264120806" lon="7.333768245195413"><ele>375.0</ele><time>2026-04-19T12:24:32.999Z</time></trkpt><trkpt lat="44.88542731696356" lon="7.333904623775812"><ele>375.0</ele><time>2026-04-19T12:24:33.999Z</time></trkpt><trkpt lat="44.88545173069219" lon="7.334010556385035"><ele>375.0</ele><time>2026-04-19T12:24:34.999Z</time></trkpt><trkpt lat="44.88548871158012" lon="7.334147296229647"><ele>375.0</ele><time>2026-04-19T12:24:36.999Z</time></trkpt><trkpt lat="44.8855001097445" lon="7.334258945292276"><ele>375.0</ele><time>2026-04-19T12:25:12.999Z</time></trkpt><trkpt lat="44.885549989692315" lon="7.334415056514146"><ele>375.0</ele><time>2026-04-19T12:25:13.999Z</time></trkpt><trkpt lat="44.88562091697149" lon="7.3346223718636505"><ele>375.0</ele><time>2026-04-19T12:25:14.999Z</time></trkpt><trkpt lat="44.88569830913468" lon="7.334870428027176"><ele>374.6666666666667</ele><time>2026-04-19T12:25:15.999Z</time></trkpt><trkpt lat="44.88577325883103" lon="7.335114457017844"><ele>374.33333333333337</ele><time>2026-04-19T12:25:16.999Z</time></trkpt><trkpt lat="44.885839260224465" lon="7.335334175107324"><ele>374.0</ele><time>2026-04-19T12:25:17.999Z</time></trkpt><trkpt lat="44.88588371588475" lon="7.335528466413661"><ele>373.79999999999995</ele><time>2026-04-19T12:25:18.999Z</time></trkpt><trkpt lat="44.88590625758282" lon="7.335703172172283"><ele>373.59999999999997</ele><time>2026-04-19T12:25:19.999Z</time></trkpt><trkpt lat="44.88591701248172" lon="7.3358710016098465"><ele>373.4</ele><time>2026-04-19T12:25:20.999Z</time></trkpt><trkpt lat="44.88590162505708" lon="7.3360162015333845"><ele>373.2</ele><time>2026-04-19T12:25:21.999Z</time></trkpt><trkpt lat="44.88588439640384" lon="7.3361386250808565"><ele>373.0</ele><time>2026-04-19T12:25:22.999Z</time></trkpt><trkpt lat="44.88590720810933" lon="7.336226185535158"><ele>373.0</ele><time>2026-04-19T12:25:23.999Z</time></trkpt><trkpt lat="44.885971883068066" lon="7.3362682943398925"><ele>373.0</ele><time>2026-04-19T12:25:24.999Z</time></trkpt><trkpt lat="44.886062454850496" lon="7.336291797299244"><ele>373.0</ele><time>2026-04-19T12:25:25.999Z</time></trkpt><trkpt lat="44.88614923319599" lon="7.336359594910631"><ele>373.0</ele><time>2026-04-19T12:25:26.999Z</time></trkpt><trkpt lat="44.88619058740131" lon="7.336530387049691"><ele>373.0</ele><time>2026-04-19T12:25:27.999Z</time></trkpt><trkpt lat="44.88624877618714" lon="7.3367350678607695"><ele>372.5</ele><time>2026-04-19T12:25:28.999Z</time></trkpt><trkpt lat="44.886313259365956" lon="7.3369389190737095"><ele>372.0</ele><time>2026-04-19T12:25:29.999Z</time></trkpt><trkpt lat="44.88636091525192" lon="7.337105362935786"><ele>371.5</ele><time>2026-04-19T12:25:30.999Z</time></trkpt><trkpt lat="44.88640072683619" lon="7.337241696387481"><ele>371.0</ele><time>2026-04-19T12:25:31.999Z</time></trkpt><trkpt lat="44.88644040577597" lon="7.33734320163265"><ele>370.5</ele><time>2026-04-19T12:25:32.999Z</time></trkpt><trkpt lat="44.886451986957475" lon="7.337440457507549"><ele>370.0</ele><time>2026-04-19T12:25:33.999Z</time></trkpt><trkpt lat="44.88666613209585" lon="7.337427487803836"><ele>369.5</ele><time>2026-04-19T12:25:35.999Z</time></trkpt><trkpt lat="44.886763443196145" lon="7.337377381749433"><ele>369.0</ele><time>2026-04-19T12:25:36.999Z</time></trkpt><trkpt lat="44.886867152305214" lon="7.337320490965354"><ele>369.0</ele><time>2026-04-19T12:25:37.999Z</time></trkpt><trkpt lat="44.88695878996654" lon="7.33726451096576"><ele>369.0</ele><time>2026-04-19T12:25:38.999Z</time></trkpt><trkpt lat="44.88705283720976" lon="7.337229635652356"><ele>369.0</ele><time>2026-04-19T12:25:39.999Z</time></trkpt><trkpt lat="44.88713172624847" lon="7.337235829025381"><ele>369.0</ele><time>2026-04-19T12:25:40.999Z</time></trkpt><trkpt lat="44.887199689830155" lon="7.337200959607643"><ele>369.0</ele><time>2026-04-19T12:25:41.999Z</time></trkpt><trkpt lat="44.887259519620336" lon="7.337102206515631"><ele>369.0</ele><time>2026-04-19T12:25:42.999Z</time></trkpt><trkpt lat="44.88732810863781" lon="7.337003619598392"><ele>369.3333333333333</ele><time>2026-04-19T12:25:43.999Z</time></trkpt><trkpt lat="44.887399984833436" lon="7.336926224599838"><ele>369.6666666666667</ele><time>2026-04-19T12:25:44.999Z</time></trkpt><trkpt lat="44.88746995345357" lon="7.336863058875089"><ele>370.0</ele><time>2026-04-19T12:25:45.999Z</time></trkpt><trkpt lat="44.88754493188408" lon="7.336829817429791"><ele>370.33333333333337</ele><time>2026-04-19T12:25:46.999Z</time></trkpt><trkpt lat="44.88762965246036" lon="7.336810091684367"><ele>370.6666666666667</ele><time>2026-04-19T12:25:47.999Z</time></trkpt><trkpt lat="44.88771688652608" lon="7.336791011892794"><ele>371.0</ele><time>2026-04-19T12:25:48.999Z</time></trkpt><trkpt lat="44.88779808080106" lon="7.336753343484297"><ele>371.0</ele><time>2026-04-19T12:25:49.999Z</time></trkpt><trkpt lat="44.8878855714425" lon="7.336702878966306"><ele>371.0</ele><time>2026-04-19T12:25:50.999Z</time></trkpt><trkpt lat="44.88797581435263" lon="7.336657662404585"><ele>371.0</ele><time>2026-04-19T12:25:51.999Z</time></trkpt><trkpt lat="44.888065236881324" lon="7.336614710109574"><ele>371.0</ele><time>2026-04-19T12:25:52.999Z</time></trkpt><trkpt lat="44.88813993324505" lon="7.336563546246961"><ele>371.0</ele><time>2026-04-19T12:25:53.999Z</time></trkpt><trkpt lat="44.8882057034022" lon="7.336531780954"><ele>371.0</ele><time>2026-04-19T12:25:54.999Z</time></trkpt><trkpt lat="44.88828903617242" lon="7.336516648816993"><ele>371.0</ele><time>2026-04-19T12:25:56.999Z</time></trkpt><trkpt lat="44.88830114105759" lon="7.336742644005144"><ele>371.0</ele><time>2026-04-19T12:25:57.999Z</time></trkpt><trkpt lat="44.888344821215576" lon="7.336886910769881"><ele>371.0</ele><time>2026-04-19T12:25:58.999Z</time></trkpt><trkpt lat="44.88840221323092" lon="7.337076464685387"><ele>371.0</ele><time>2026-04-19T12:25:59.999Z</time></trkpt><trkpt lat="44.888467981426075" lon="7.337272512282594"><ele>370.33333333333337</ele><time>2026-04-19T12:26:00.999Z</time></trkpt><trkpt lat="44.88853483507336" lon="7.337485212825811"><ele>369.6666666666667</ele><time>2026-04-19T12:26:01.998Z</time></trkpt><trkpt lat="44.888597027972374" lon="7.337709886502487"><ele>369.0</ele><time>2026-04-19T12:26:02.998Z</time></trkpt><trkpt lat="44.88865560894432" lon="7.337930983207146"><ele>368.3333333333333</ele><time>2026-04-19T12:26:03.998Z</time></trkpt><trkpt lat="44.888716277426575" lon="7.3381371663411015"><ele>367.66666666666663</ele><time>2026-04-19T12:26:04.998Z</time></trkpt><trkpt lat="44.888787257721674" lon="7.338347173618266"><ele>367.0</ele><time>2026-04-19T12:26:05.998Z</time></trkpt><trkpt lat="44.88885837134959" lon="7.338555379016778"><ele>367.0</ele><time>2026-04-19T12:26:06.998Z</time></trkpt><trkpt lat="44.888948359795606" lon="7.338756289736267"><ele>367.0</ele><time>2026-04-19T12:26:07.998Z</time></trkpt><trkpt lat="44.8890546018355" lon="7.3389491366914505"><ele>367.0</ele><time>2026-04-19T12:26:08.998Z</time></trkpt><trkpt lat="44.88917781249771" lon="7.339132561068415"><ele>366.66666666666663</ele><time>2026-04-19T12:26:09.998Z</time></trkpt><trkpt lat="44.88929900676121" lon="7.339323017177367"><ele>366.3333333333333</ele><time>2026-04-19T12:26:10.998Z</time></trkpt><trkpt lat="44.88943049334173" lon="7.33951531290105"><ele>366.0</ele><time>2026-04-19T12:26:11.998Z</time></trkpt><trkpt lat="44.889543287432495" lon="7.3397119030932485"><ele>365.6666666666667</ele><time>2026-04-19T12:26:12.998Z</time></trkpt><trkpt lat="44.88965229424747" lon="7.339909468333701"><ele>365.33333333333337</ele><time>2026-04-19T12:26:13.998Z</time></trkpt><trkpt lat="44.88976428030246" lon="7.340121392690755"><ele>365.0</ele><time>2026-04-19T12:26:14.998Z</time></trkpt><trkpt lat="44.88987376661777" lon="7.340328790431845"><ele>364.6666666666667</ele><time>2026-04-19T12:26:15.999Z</time></trkpt><trkpt lat="44.889974657085446" lon="7.340553796799098"><ele>364.3333333333333</ele><time>2026-04-19T12:26:16.999Z</time></trkpt><trkpt lat="44.89006987725537" lon="7.34077686686134"><ele>364.0</ele><time>2026-04-19T12:26:17.999Z</time></trkpt><trkpt lat="44.89015767059104" lon="7.3410095129431125"><ele>364.0</ele><time>2026-04-19T12:26:18.999Z</time></trkpt><trkpt lat="44.890246521100025" lon="7.341245694437149"><ele>364.0</ele><time>2026-04-19T12:26:19.999Z</time></trkpt><trkpt lat="44.89032722506048" lon="7.3414676063655495"><ele>364.0</ele><time>2026-04-19T12:26:20.999Z</time></trkpt><trkpt lat="44.890408933659124" lon="7.341686367821302"><ele>364.0</ele><time>2026-04-19T12:26:21.999Z</time></trkpt><trkpt lat="44.8904898908298" lon="7.341903969092773"><ele>364.0</ele><time>2026-04-19T12:26:22.999Z</time></trkpt><trkpt lat="44.89056652256208" lon="7.342097907536114"><ele>364.0</ele><time>2026-04-19T12:26:23.999Z</time></trkpt><trkpt lat="44.89064862222884" lon="7.342305959265934"><ele>363.66666666666663</ele><time>2026-04-19T12:26:24.999Z</time></trkpt><trkpt lat="44.89073303623342" lon="7.342522458597042"><ele>363.3333333333333</ele><time>2026-04-19T12:26:25.999Z</time></trkpt><trkpt lat="44.89081401070954" lon="7.342733415027195"><ele>363.0</ele><time>2026-04-19T12:26:26.999Z</time></trkpt><trkpt lat="44.89090112536825" lon="7.342958684422255"><ele>363.3333333333333</ele><time>2026-04-19T12:26:27.999Z</time></trkpt><trkpt lat="44.89100040634888" lon="7.343165710250131"><ele>363.66666666666663</ele><time>2026-04-19T12:26:28.999Z</time></trkpt><trkpt lat="44.89109819604535" lon="7.343375191518225"><ele>364.0</ele><time>2026-04-19T12:26:29.999Z</time></trkpt><trkpt lat="44.891196901967355" lon="7.343589430374294"><ele>364.0</ele><time>2026-04-19T12:26:30.999Z</time></trkpt><trkpt lat="44.89129134179721" lon="7.343781027811827"><ele>364.0</ele><time>2026-04-19T12:26:31.999Z</time></trkpt><trkpt lat="44.89137662124268" lon="7.343992338307252"><ele>364.0</ele><time>2026-04-19T12:26:32.999Z</time></trkpt><trkpt lat="44.891443436745185" lon="7.344213609228839"><ele>363.3333333333333</ele><time>2026-04-19T12:26:33.999Z</time></trkpt><trkpt lat="44.89149862972815" lon="7.34443626467837"><ele>362.6666666666667</ele><time>2026-04-19T12:26:34.999Z</time></trkpt><trkpt lat="44.89152067301189" lon="7.34466766356872"><ele>362.0</ele><time>2026-04-19T12:26:35.999Z</time></trkpt><trkpt lat="44.891467659854705" lon="7.344915807666973"><ele>361.0</ele><time>2026-04-19T12:26:36.999Z</time></trkpt><trkpt lat="44.89145217142121" lon="7.345152042272213"><ele>360.0</ele><time>2026-04-19T12:26:37.999Z</time></trkpt><trkpt lat="44.89139421919783" lon="7.345384543518112"><ele>359.0</ele><time>2026-04-19T12:26:38.999Z</time></trkpt><trkpt lat="44.89131252563236" lon="7.345608719921131"><ele>358.33333333333337</ele><time>2026-04-19T12:26:39.999Z</time></trkpt><trkpt lat="44.89120638964792" lon="7.345809866395859"><ele>357.6666666666667</ele><time>2026-04-19T12:26:40.999Z</time></trkpt><trkpt lat="44.89109048413039" lon="7.345966939616446"><ele>357.0</ele><time>2026-04-19T12:26:41.999Z</time></trkpt><trkpt lat="44.89096918160726" lon="7.3461041085939325"><ele>357.25</ele><time>2026-04-19T12:26:42.999Z</time></trkpt><trkpt lat="44.890855480495276" lon="7.346241108811981"><ele>357.5</ele><time>2026-04-19T12:26:43.999Z</time></trkpt><trkpt lat="44.890754332943054" lon="7.346357017882652"><ele>357.75</ele><time>2026-04-19T12:26:44.999Z</time></trkpt><trkpt lat="44.89065796359053" lon="7.346470716721984"><ele>358.0</ele><time>2026-04-19T12:26:45.999Z</time></trkpt><trkpt lat="44.890574079150774" lon="7.346581193196254"><ele>358.0</ele><time>2026-04-19T12:26:46.999Z</time></trkpt><trkpt lat="44.89048073951968" lon="7.346696334217812"><ele>358.0</ele><time>2026-04-19T12:26:47.999Z</time></trkpt><trkpt lat="44.890378174499666" lon="7.346825525337597"><ele>358.0</ele><time>2026-04-19T12:26:48.999Z</time></trkpt><trkpt lat="44.89027015839585" lon="7.346958416832942"><ele>358.0</ele><time>2026-04-19T12:26:49.999Z</time></trkpt><trkpt lat="44.89015540882858" lon="7.3470958582717385"><ele>357.66666666666663</ele><time>2026-04-19T12:26:50.999Z</time></trkpt><trkpt lat="44.89003822245555" lon="7.347232284429191"><ele>357.3333333333333</ele><time>2026-04-19T12:26:51.999Z</time></trkpt><trkpt lat="44.889920366482926" lon="7.347364568780172"><ele>357.0</ele><time>2026-04-19T12:26:52.999Z</time></trkpt><trkpt lat="44.8898013083544" lon="7.347508248585784"><ele>357.0</ele><time>2026-04-19T12:26:53.999Z</time></trkpt><trkpt lat="44.88968231940871" lon="7.347644843639783"><ele>357.0</ele><time>2026-04-19T12:26:54.999Z</time></trkpt><trkpt lat="44.889567222291184" lon="7.347787035156559"><ele>357.0</ele><time>2026-04-19T12:26:55.999Z</time></trkpt><trkpt lat="44.88945157221074" lon="7.347931103453329"><ele>356.6666666666667</ele><time>2026-04-19T12:26:56.999Z</time></trkpt><trkpt lat="44.889336747960336" lon="7.34807030420027"><ele>356.33333333333337</ele><time>2026-04-19T12:26:57.999Z</time></trkpt><trkpt lat="44.889222227508974" lon="7.348207430815493"><ele>356.0</ele><time>2026-04-19T12:26:58.999Z</time></trkpt><trkpt lat="44.889101741411736" lon="7.348348858711533"><ele>356.0</ele><time>2026-04-19T12:26:59.999Z</time></trkpt><trkpt lat="44.88897219488433" lon="7.348470762968907"><ele>356.0</ele><time>2026-04-19T12:27:00.999Z</time></trkpt><trkpt lat="44.88887127176636" lon="7.348608960958052"><ele>356.0</ele><time>2026-04-19T12:27:01.999Z</time></trkpt><trkpt lat="44.88877834415561" lon="7.348724946611419"><ele>356.0</ele><time>2026-04-19T12:27:02.999Z</time></trkpt><trkpt lat="44.8886851904297" lon="7.348827149126531"><ele>356.0</ele><time>2026-04-19T12:27:03.999Z</time></trkpt><trkpt lat="44.888596421402795" lon="7.3489238175386165"><ele>356.0</ele><time>2026-04-19T12:27:04.999Z</time></trkpt><trkpt lat="44.88851746063481" lon="7.349025809445415"><ele>356.0</ele><time>2026-04-19T12:27:05.999Z</time></trkpt><trkpt lat="44.88844192219646" lon="7.3491365879733435"><ele>356.0</ele><time>2026-04-19T12:27:06.999Z</time></trkpt><trkpt lat="44.88837437539394" lon="7.3492500015044175"><ele>356.0</ele><time>2026-04-19T12:27:08Z</time></trkpt><trkpt lat="44.88831568979261" lon="7.349374669581464"><ele>356.0</ele><time>2026-04-19T12:27:09Z</time></trkpt><trkpt lat="44.888264680329826" lon="7.349479294499849"><ele>356.0</ele><time>2026-04-19T12:27:10Z</time></trkpt><trkpt lat="44.888223210532935" lon="7.3495638946479644"><ele>356.0</ele><time>2026-04-19T12:27:11Z</time></trkpt><trkpt lat="44.88819452033712" lon="7.349654847386275"><ele>356.0</ele><time>2026-04-19T12:27:12Z</time></trkpt><trkpt lat="44.88816437189739" lon="7.349750320607189"><ele>356.0</ele><time>2026-04-19T12:27:13Z</time></trkpt><trkpt lat="44.888125363410495" lon="7.349854143635978"><ele>356.0</ele><time>2026-04-19T12:27:14Z</time></trkpt><trkpt lat="44.888098355206985" lon="7.349963165902993"><ele>356.20000000000005</ele><time>2026-04-19T12:27:15Z</time></trkpt><trkpt lat="44.88806613513217" lon="7.35007952265028"><ele>356.40000000000003</ele><time>2026-04-19T12:27:16Z</time></trkpt><trkpt lat="44.88803801396574" lon="7.350209701609866"><ele>356.6</ele><time>2026-04-19T12:27:17Z</time></trkpt><trkpt lat="44.88799908936561" lon="7.350341309735157"><ele>356.8</ele><time>2026-04-19T12:27:18Z</time></trkpt><trkpt lat="44.88796880673191" lon="7.35046784069302"><ele>357.0</ele><time>2026-04-19T12:27:19Z</time></trkpt><trkpt lat="44.887939403319876" lon="7.350560515158718"><ele>356.6666666666667</ele><time>2026-04-19T12:27:20Z</time></trkpt><trkpt lat="44.88789442497131" lon="7.350633482432425"><ele>356.3333333333333</ele><time>2026-04-19T12:27:21Z</time></trkpt><trkpt lat="44.88783585585201" lon="7.350678504172707"><ele>356.0</ele><time>2026-04-19T12:27:22Z</time></trkpt><trkpt lat="44.887757576535925" lon="7.350806207673342"><ele>355.66666666666663</ele><time>2026-04-19T12:27:24Z</time></trkpt><trkpt lat="44.88775743540744" lon="7.350905600038387"><ele>355.3333333333333</ele><time>2026-04-19T12:27:25Z</time></trkpt><trkpt lat="44.887809245509054" lon="7.351015962009042"><ele>355.0</ele><time>2026-04-19T12:27:27Z</time></trkpt><trkpt lat="44.887914910111924" lon="7.350981353141057"><ele>355.0</ele><time>2026-04-19T12:27:29Z</time></trkpt><trkpt lat="44.88796425970189" lon="7.3509235978823195"><ele>355.0</ele><time>2026-04-19T12:27:30Z</time></trkpt><trkpt lat="44.88795771605714" lon="7.350819834802754"><ele>355.0</ele><time>2026-04-19T12:27:31Z</time></trkpt><trkpt lat="44.88788148193377" lon="7.350698903167953"><ele>355.0</ele><time>2026-04-19T12:27:33Z</time></trkpt><trkpt lat="44.88781422253258" lon="7.350698183291211"><ele>355.0</ele><time>2026-04-19T12:27:34Z</time></trkpt><trkpt lat="44.88776074575535" lon="7.350752048677962"><ele>355.0</ele><time>2026-04-19T12:27:35Z</time></trkpt><trkpt lat="44.88773912728144" lon="7.35083834376877"><ele>355.0</ele><time>2026-04-19T12:27:36Z</time></trkpt><trkpt lat="44.8877495605336" lon="7.350967489296963"><ele>355.0</ele><time>2026-04-19T12:27:37Z</time></trkpt><trkpt lat="44.88778438284011" lon="7.351136707654451"><ele>355.0</ele><time>2026-04-19T12:27:38Z</time></trkpt><trkpt lat="44.887807788426606" lon="7.351332639324388"><ele>355.0</ele><time>2026-04-19T12:27:39Z</time></trkpt><trkpt lat="44.887858603149745" lon="7.351538816780443"><ele>354.66666666666663</ele><time>2026-04-19T12:27:40Z</time></trkpt><trkpt lat="44.88786688891063" lon="7.351777171115723"><ele>354.3333333333333</ele><time>2026-04-19T12:27:41Z</time></trkpt><trkpt lat="44.88790446914553" lon="7.352006960525197"><ele>354.0</ele><time>2026-04-19T12:27:42Z</time></trkpt><trkpt lat="44.88794231797179" lon="7.352240229331779"><ele>355.0</ele><time>2026-04-19T12:27:43Z</time></trkpt><trkpt lat="44.88797653146259" lon="7.352470689618048"><ele>356.0</ele><time>2026-04-19T12:27:44Z</time></trkpt><trkpt lat="44.88800785382953" lon="7.352706239967122"><ele>357.0</ele><time>2026-04-19T12:27:45Z</time></trkpt><trkpt lat="44.88804048840729" lon="7.3529405361898865"><ele>356.6666666666667</ele><time>2026-04-19T12:27:46Z</time></trkpt><trkpt lat="44.88806973396906" lon="7.353180812112753"><ele>356.33333333333337</ele><time>2026-04-19T12:27:47Z</time></trkpt><trkpt lat="44.88809894883692" lon="7.353411886409194"><ele>356.0</ele><time>2026-04-19T12:27:48Z</time></trkpt><trkpt lat="44.888131105416576" lon="7.353653091499738"><ele>355.33333333333337</ele><time>2026-04-19T12:27:49Z</time></trkpt><trkpt lat="44.888171252858484" lon="7.353895633642059"><ele>354.6666666666667</ele><time>2026-04-19T12:27:50Z</time></trkpt><trkpt lat="44.88820585390515" lon="7.354133158753242"><ele>354.0</ele><time>2026-04-19T12:27:51Z</time></trkpt><trkpt lat="44.888232924675606" lon="7.354350625659744"><ele>354.0</ele><time>2026-04-19T12:27:52Z</time></trkpt><trkpt lat="44.88825484458687" lon="7.354543139809117"><ele>354.0</ele><time>2026-04-19T12:27:53Z</time></trkpt><trkpt lat="44.88827121993939" lon="7.354692321927996"><ele>354.0</ele><time>2026-04-19T12:27:54Z</time></trkpt><trkpt lat="44.88829930333502" lon="7.354813249920871"><ele>354.0</ele><time>2026-04-19T12:27:55Z</time></trkpt><trkpt lat="44.88834526203512" lon="7.3548922854266126"><ele>354.0</ele><time>2026-04-19T12:27:56Z</time></trkpt><trkpt lat="44.888408698525126" lon="7.354909474586286"><ele>353.2</ele><time>2026-04-19T12:27:57Z</time></trkpt><trkpt lat="44.88847466879569" lon="7.35491174959662"><ele>352.4</ele><time>2026-04-19T12:27:58Z</time></trkpt><trkpt lat="44.888549345503876" lon="7.354793803853143"><ele>351.6</ele><time>2026-04-19T12:27:59Z</time></trkpt><trkpt lat="44.88864004479176" lon="7.354700073388818"><ele>350.8</ele><time>2026-04-19T12:28:00Z</time></trkpt><trkpt lat="44.88876065986328" lon="7.354641770247315"><ele>350.0</ele><time>2026-04-19T12:28:01Z</time></trkpt><trkpt lat="44.88891013131434" lon="7.354609602304572"><ele>350.0</ele><time>2026-04-19T12:28:02Z</time></trkpt><trkpt lat="44.88907565974861" lon="7.3545732348127775"><ele>350.0</ele><time>2026-04-19T12:28:03Z</time></trkpt><trkpt lat="44.8892553087134" lon="7.354528481370302"><ele>350.0</ele><time>2026-04-19T12:28:04Z</time></trkpt><trkpt lat="44.88942851187153" lon="7.354474350918199"><ele>350.0</ele><time>2026-04-19T12:28:05Z</time></trkpt><trkpt lat="44.889588185675194" lon="7.354424109045921"><ele>350.0</ele><time>2026-04-19T12:28:06Z</time></trkpt><trkpt lat="44.889720844532015" lon="7.354370885577929"><ele>350.0</ele><time>2026-04-19T12:28:07Z</time></trkpt><trkpt lat="44.88983963946807" lon="7.354305036450812"><ele>350.0</ele><time>2026-04-19T12:28:07.998Z</time></trkpt><trkpt lat="44.88997126690923" lon="7.354277503987893"><ele>350.0</ele><time>2026-04-19T12:28:08.998Z</time></trkpt><trkpt lat="44.89009913033691" lon="7.354174736643056"><ele>350.0</ele><time>2026-04-19T12:28:09.998Z</time></trkpt><trkpt lat="44.89021168398359" lon="7.354070085593213"><ele>350.0</ele><time>2026-04-19T12:28:10.998Z</time></trkpt><trkpt lat="44.890348821209145" lon="7.354061931822473"><ele>350.0</ele><time>2026-04-19T12:28:11.998Z</time></trkpt><trkpt lat="44.89049139838352" lon="7.354039146116224"><ele>350.0</ele><time>2026-04-19T12:28:12.998Z</time></trkpt><trkpt lat="44.890642126567506" lon="7.35411405218602"><ele>350.0</ele><time>2026-04-19T12:28:13.998Z</time></trkpt><trkpt lat="44.89080285612286" lon="7.354176808330509"><ele>350.0</ele><time>2026-04-19T12:28:14.998Z</time></trkpt><trkpt lat="44.890980131427604" lon="7.354228074966494"><ele>350.0</ele><time>2026-04-19T12:28:15.998Z</time></trkpt><trkpt lat="44.89115955934401" lon="7.354313338226875"><ele>350.0</ele><time>2026-04-19T12:28:16.998Z</time></trkpt><trkpt lat="44.89135007250241" lon="7.354383375855269"><ele>350.0</ele><time>2026-04-19T12:28:17.998Z</time></trkpt><trkpt lat="44.891545897981864" lon="7.354463434329814"><ele>350.0</ele><time>2026-04-19T12:28:18.999Z</time></trkpt><trkpt lat="44.89174336354823" lon="7.354544344888111"><ele>350.0</ele><time>2026-04-19T12:28:19.999Z</time></trkpt><trkpt lat="44.891944717004804" lon="7.354619223090102"><ele>350.0</ele><time>2026-04-19T12:28:20.999Z</time></trkpt><trkpt lat="44.89214765740574" lon="7.354718706209654"><ele>349.6666666666667</ele><time>2026-04-19T12:28:21.999Z</time></trkpt><trkpt lat="44.89235440090709" lon="7.354781182156845"><ele>349.3333333333333</ele><time>2026-04-19T12:28:22.999Z</time></trkpt><trkpt lat="44.89256363974066" lon="7.354862214067114"><ele>349.0</ele><time>2026-04-19T12:28:23.999Z</time></trkpt><trkpt lat="44.89275356046326" lon="7.354942829453987"><ele>348.66666666666663</ele><time>2026-04-19T12:28:24.999Z</time></trkpt><trkpt lat="44.89292642865803" lon="7.3550070614237315"><ele>348.3333333333333</ele><time>2026-04-19T12:28:25.999Z</time></trkpt><trkpt lat="44.89307659615543" lon="7.355063568932806"><ele>348.0</ele><time>2026-04-19T12:28:26.999Z</time></trkpt><trkpt lat="44.893210883157955" lon="7.355121634944259"><ele>348.0</ele><time>2026-04-19T12:28:27.999Z</time></trkpt><trkpt lat="44.89333597455884" lon="7.355190137699595"><ele>348.0</ele><time>2026-04-19T12:28:28.999Z</time></trkpt><trkpt lat="44.89343423077776" lon="7.3552511727032055"><ele>348.0</ele><time>2026-04-19T12:28:29.999Z</time></trkpt><trkpt lat="44.893506806916776" lon="7.355261662844183"><ele>348.0</ele><time>2026-04-19T12:28:30.999Z</time></trkpt><trkpt lat="44.893562272743196" lon="7.35521428514033"><ele>348.0</ele><time>2026-04-19T12:28:31.999Z</time></trkpt><trkpt lat="44.89358984307414" lon="7.355070477210798"><ele>348.0</ele><time>2026-04-19T12:28:33.999Z</time></trkpt><trkpt lat="44.893541981345145" lon="7.35492443929758"><ele>348.0</ele><time>2026-04-19T12:28:35.999Z</time></trkpt><trkpt lat="44.893499153344926" lon="7.354837670681885"><ele>348.0</ele><time>2026-04-19T12:28:36.999Z</time></trkpt><trkpt lat="44.89344827954871" lon="7.354738877398862"><ele>348.0</ele><time>2026-04-19T12:28:37.999Z</time></trkpt><trkpt lat="44.89339656477025" lon="7.354611938358523"><ele>348.0</ele><time>2026-04-19T12:28:38.999Z</time></trkpt><trkpt lat="44.89338178113303" lon="7.354427430782579"><ele>348.0</ele><time>2026-04-19T12:28:39.999Z</time></trkpt><trkpt lat="44.893322824138124" lon="7.354253848425066"><ele>348.0</ele><time>2026-04-19T12:28:40.999Z</time></trkpt><trkpt lat="44.89325565447272" lon="7.354067596564326"><ele>348.0</ele><time>2026-04-19T12:28:41.999Z</time></trkpt><trkpt lat="44.89318344304418" lon="7.353866292581742"><ele>348.0</ele><time>2026-04-19T12:28:42.999Z</time></trkpt><trkpt lat="44.893108893803344" lon="7.353657438268857"><ele>348.0</ele><time>2026-04-19T12:28:43.999Z</time></trkpt><trkpt lat="44.89303413985809" lon="7.353448010593169"><ele>348.0</ele><time>2026-04-19T12:28:44.999Z</time></trkpt><trkpt lat="44.89295884323223" lon="7.35323543368552"><ele>348.0</ele><time>2026-04-19T12:28:45.999Z</time></trkpt><trkpt lat="44.89286850451467" lon="7.353042955092675"><ele>349.3333333333333</ele><time>2026-04-19T12:28:46.999Z</time></trkpt><trkpt lat="44.89279368623358" lon="7.352825834995045"><ele>350.66666666666663</ele><time>2026-04-19T12:28:47.999Z</time></trkpt><trkpt lat="44.892718093940836" lon="7.3526091575063575"><ele>352.0</ele><time>2026-04-19T12:28:49Z</time></trkpt><trkpt lat="44.89263927274511" lon="7.352390302602746"><ele>352.3333333333333</ele><time>2026-04-19T12:28:50Z</time></trkpt><trkpt lat="44.89256128941436" lon="7.352170881838514"><ele>352.6666666666667</ele><time>2026-04-19T12:28:51Z</time></trkpt><trkpt lat="44.89250057742327" lon="7.351976789105954"><ele>353.0</ele><time>2026-04-19T12:28:52Z</time></trkpt><trkpt lat="44.89246059849407" lon="7.35179463395804"><ele>353.0</ele><time>2026-04-19T12:28:53Z</time></trkpt><trkpt lat="44.89245272999547" lon="7.351624975603576"><ele>353.0</ele><time>2026-04-19T12:28:54Z</time></trkpt><trkpt lat="44.89247987588862" lon="7.351462415712101"><ele>353.0</ele><time>2026-04-19T12:28:55Z</time></trkpt><trkpt lat="44.892536838280904" lon="7.351302538171429"><ele>353.0</ele><time>2026-04-19T12:28:56Z</time></trkpt><trkpt lat="44.89260958858174" lon="7.351175126023872"><ele>353.25</ele><time>2026-04-19T12:28:57Z</time></trkpt><trkpt lat="44.89268798316478" lon="7.351027711800132"><ele>353.5</ele><time>2026-04-19T12:28:58Z</time></trkpt><trkpt lat="44.89281022981497" lon="7.350912709173485"><ele>353.75</ele><time>2026-04-19T12:28:59Z</time></trkpt><trkpt lat="44.89283103596595" lon="7.350744656156077"><ele>354.0</ele><time>2026-04-19T12:29:00Z</time></trkpt><trkpt lat="44.89276088830664" lon="7.350590954401561"><ele>354.0</ele><time>2026-04-19T12:29:01Z</time></trkpt><trkpt lat="44.89270083004759" lon="7.350479326805593"><ele>354.0</ele><time>2026-04-19T12:29:02Z</time></trkpt><trkpt lat="44.89265420457889" lon="7.350371857694025"><ele>354.0</ele><time>2026-04-19T12:29:03Z</time></trkpt><trkpt lat="44.892653027046585" lon="7.350276533729887"><ele>354.0</ele><time>2026-04-19T12:29:04Z</time></trkpt><trkpt lat="44.892717608755355" lon="7.35018259494937"><ele>354.0</ele><time>2026-04-19T12:29:06Z</time></trkpt><trkpt lat="44.89278561377706" lon="7.350246740040203"><ele>354.0</ele><time>2026-04-19T12:29:08Z</time></trkpt><trkpt lat="44.89288792756088" lon="7.350320328487146"><ele>354.0</ele><time>2026-04-19T12:29:10Z</time></trkpt><trkpt lat="44.89293670760993" lon="7.35046294490915"><ele>354.0</ele><time>2026-04-19T12:29:11Z</time></trkpt><trkpt lat="44.8929775176814" lon="7.350636449312187"><ele>354.0</ele><time>2026-04-19T12:29:12Z</time></trkpt><trkpt lat="44.89302546482997" lon="7.350826872748615"><ele>354.0</ele><time>2026-04-19T12:29:13Z</time></trkpt><trkpt lat="44.89307741876219" lon="7.351019396916822"><ele>354.0</ele><time>2026-04-19T12:29:14Z</time></trkpt><trkpt lat="44.89313458206096" lon="7.351233432063577"><ele>354.0</ele><time>2026-04-19T12:29:15Z</time></trkpt><trkpt lat="44.89319538247615" lon="7.35146092726939"><ele>354.0</ele><time>2026-04-19T12:29:16Z</time></trkpt><trkpt lat="44.8932578899008" lon="7.351703442787432"><ele>354.0</ele><time>2026-04-19T12:29:17Z</time></trkpt><trkpt lat="44.893321452661894" lon="7.351950316548149"><ele>354.0</ele><time>2026-04-19T12:29:18Z</time></trkpt><trkpt lat="44.893393014534475" lon="7.352214366709428"><ele>354.0</ele><time>2026-04-19T12:29:19Z</time></trkpt><trkpt lat="44.89346514900807" lon="7.352484856204527"><ele>353.6666666666667</ele><time>2026-04-19T12:29:20Z</time></trkpt><trkpt lat="44.893521523493646" lon="7.352753846053535"><ele>353.33333333333337</ele><time>2026-04-19T12:29:21Z</time></trkpt><trkpt lat="44.89354899681439" lon="7.35301407545004"><ele>353.0</ele><time>2026-04-19T12:29:22Z</time></trkpt><trkpt lat="44.893565241457814" lon="7.353263245203519"><ele>352.0</ele><time>2026-04-19T12:29:23Z</time></trkpt><trkpt lat="44.89357659015247" lon="7.353488257198369"><ele>351.0</ele><time>2026-04-19T12:29:24Z</time></trkpt><trkpt lat="44.893593864971635" lon="7.353703519562521"><ele>350.0</ele><time>2026-04-19T12:29:25Z</time></trkpt><trkpt lat="44.89362446576793" lon="7.3539352893619565"><ele>349.33333333333337</ele><time>2026-04-19T12:29:26Z</time></trkpt><trkpt lat="44.89368363480852" lon="7.354173738554442"><ele>348.6666666666667</ele><time>2026-04-19T12:29:27Z</time></trkpt><trkpt lat="44.89376644950898" lon="7.354422067684562"><ele>348.0</ele><time>2026-04-19T12:29:28Z</time></trkpt><trkpt lat="44.89386774806612" lon="7.354667063232974"><ele>347.3333333333333</ele><time>2026-04-19T12:29:29Z</time></trkpt><trkpt lat="44.893968182420465" lon="7.354893906947837"><ele>346.66666666666663</ele><time>2026-04-19T12:29:30Z</time></trkpt><trkpt lat="44.894053331967164" lon="7.3551003323941675"><ele>346.0</ele><time>2026-04-19T12:29:31Z</time></trkpt><trkpt lat="44.894136836741964" lon="7.355276461162716"><ele>346.0</ele><time>2026-04-19T12:29:32Z</time></trkpt><trkpt lat="44.89421562413009" lon="7.355416648843068"><ele>346.0</ele><time>2026-04-19T12:29:33Z</time></trkpt><trkpt lat="44.894308640796545" lon="7.355519721662641"><ele>346.0</ele><time>2026-04-19T12:29:34Z</time></trkpt><trkpt lat="44.89443556582682" lon="7.355593961481069"><ele>346.0</ele><time>2026-04-19T12:29:35Z</time></trkpt><trkpt lat="44.89458475010771" lon="7.355639116411245"><ele>346.3333333333333</ele><time>2026-04-19T12:29:36Z</time></trkpt><trkpt lat="44.89474364506485" lon="7.355697006828144"><ele>346.6666666666667</ele><time>2026-04-19T12:29:37Z</time></trkpt><trkpt lat="44.8949155174788" lon="7.355762299207565"><ele>347.0</ele><time>2026-04-19T12:29:38Z</time></trkpt><trkpt lat="44.89509483544628" lon="7.355829049523596"><ele>346.33333333333337</ele><time>2026-04-19T12:29:39Z</time></trkpt><trkpt lat="44.89527644654717" lon="7.355896888974141"><ele>345.6666666666667</ele><time>2026-04-19T12:29:40Z</time></trkpt><trkpt lat="44.895463259336736" lon="7.3559714140847605"><ele>345.0</ele><time>2026-04-19T12:29:41Z</time></trkpt><trkpt lat="44.895653920933704" lon="7.356049306598305"><ele>345.0</ele><time>2026-04-19T12:29:42Z</time></trkpt><trkpt lat="44.895846385799125" lon="7.3561194317032195"><ele>345.0</ele><time>2026-04-19T12:29:43Z</time></trkpt><trkpt lat="44.89603501417277" lon="7.356187573157035"><ele>345.0</ele><time>2026-04-19T12:29:44Z</time></trkpt><trkpt lat="44.89622249292646" lon="7.356261506302689"><ele>345.0</ele><time>2026-04-19T12:29:45Z</time></trkpt><trkpt lat="44.89640598482891" lon="7.356336375602205"><ele>345.0</ele><time>2026-04-19T12:29:46Z</time></trkpt><trkpt lat="44.89659082854962" lon="7.356410739147212"><ele>345.0</ele><time>2026-04-19T12:29:47Z</time></trkpt><trkpt lat="44.89677766823673" lon="7.356478618417218"><ele>346.0</ele><time>2026-04-19T12:29:48Z</time></trkpt><trkpt lat="44.89696557485236" lon="7.356553954140307"><ele>347.0</ele><time>2026-04-19T12:29:49Z</time></trkpt><trkpt lat="44.89715034751276" lon="7.356626703898316"><ele>348.0</ele><time>2026-04-19T12:29:50Z</time></trkpt><trkpt lat="44.897338552689945" lon="7.356697658942384"><ele>348.0</ele><time>2026-04-19T12:29:51Z</time></trkpt><trkpt lat="44.89752261237256" lon="7.3567677506884985"><ele>348.0</ele><time>2026-04-19T12:29:52Z</time></trkpt><trkpt lat="44.89770846354566" lon="7.35684069664911"><ele>348.0</ele><time>2026-04-19T12:29:53Z</time></trkpt><trkpt lat="44.89789469588972" lon="7.356914258885278"><ele>349.0</ele><time>2026-04-19T12:29:54Z</time></trkpt><trkpt lat="44.89807667949129" lon="7.3569858928485035"><ele>350.0</ele><time>2026-04-19T12:29:55Z</time></trkpt><trkpt lat="44.89826354089539" lon="7.357058348168822"><ele>351.0</ele><time>2026-04-19T12:29:56Z</time></trkpt><trkpt lat="44.89845198336295" lon="7.357129656289128"><ele>351.0</ele><time>2026-04-19T12:29:57Z</time></trkpt><trkpt lat="44.8986406780369" lon="7.357199253597442"><ele>351.0</ele><time>2026-04-19T12:29:58Z</time></trkpt><trkpt lat="44.898826192903734" lon="7.35726777540504"><ele>351.0</ele><time>2026-04-19T12:29:59Z</time></trkpt><trkpt lat="44.89900941227207" lon="7.3573452144492295"><ele>350.3333333333333</ele><time>2026-04-19T12:30:00Z</time></trkpt><trkpt lat="44.89920107330106" lon="7.357419527867411"><ele>349.66666666666663</ele><time>2026-04-19T12:30:01Z</time></trkpt><trkpt lat="44.89938627830428" lon="7.3574898345169695"><ele>349.0</ele><time>2026-04-19T12:30:02Z</time></trkpt><trkpt lat="44.899571556694156" lon="7.357557146001531"><ele>347.0</ele><time>2026-04-19T12:30:03Z</time></trkpt><trkpt lat="44.89975486336142" lon="7.35762773507479"><ele>345.0</ele><time>2026-04-19T12:30:04Z</time></trkpt><trkpt lat="44.899932052149325" lon="7.357713602316757"><ele>343.0</ele><time>2026-04-19T12:30:05Z</time></trkpt><trkpt lat="44.90010845931626" lon="7.3577723576891545"><ele>342.3333333333333</ele><time>2026-04-19T12:30:06Z</time></trkpt><trkpt lat="44.900293924073516" lon="7.35784517668216"><ele>341.6666666666667</ele><time>2026-04-19T12:30:07Z</time></trkpt><trkpt lat="44.90047518502775" lon="7.3579147396978914"><ele>341.0</ele><time>2026-04-19T12:30:08.001Z</time></trkpt><trkpt lat="44.90065166592449" lon="7.357984919137433"><ele>341.0</ele><time>2026-04-19T12:30:09.001Z</time></trkpt><trkpt lat="44.900827352943615" lon="7.35805857301954"><ele>341.0</ele><time>2026-04-19T12:30:10.001Z</time></trkpt><trkpt lat="44.90099563399087" lon="7.358145291804536"><ele>341.0</ele><time>2026-04-19T12:30:11.001Z</time></trkpt><trkpt lat="44.901135403877106" lon="7.358216863027692"><ele>340.0</ele><time>2026-04-19T12:30:12.001Z</time></trkpt><trkpt lat="44.901253207584084" lon="7.358306177919779"><ele>339.0</ele><time>2026-04-19T12:30:13.001Z</time></trkpt><trkpt lat="44.90135964436805" lon="7.3584159194388885"><ele>338.0</ele><time>2026-04-19T12:30:13.999Z</time></trkpt><trkpt lat="44.901440314175595" lon="7.358547060860465"><ele>337.0</ele><time>2026-04-19T12:30:14.999Z</time></trkpt><trkpt lat="44.901493363206065" lon="7.3586918523591445"><ele>337.0</ele><time>2026-04-19T12:30:15.999Z</time></trkpt><trkpt lat="44.90150503905954" lon="7.358840855955751"><ele>337.0</ele><time>2026-04-19T12:30:16.999Z</time></trkpt><trkpt lat="44.90148747431855" lon="7.358991256386804"><ele>337.0</ele><time>2026-04-19T12:30:17.999Z</time></trkpt><trkpt lat="44.901456519543174" lon="7.359141464585461"><ele>337.0</ele><time>2026-04-19T12:30:18.999Z</time></trkpt><trkpt lat="44.90145440034509" lon="7.359308387563365"><ele>337.0</ele><time>2026-04-19T12:30:19.999Z</time></trkpt><trkpt lat="44.901494115981905" lon="7.359449516232391"><ele>337.0</ele><time>2026-04-19T12:30:20.999Z</time></trkpt><trkpt lat="44.90157265919377" lon="7.359568816939471"><ele>337.0</ele><time>2026-04-19T12:30:21.999Z</time></trkpt><trkpt lat="44.90167395219299" lon="7.359664228481369"><ele>337.0</ele><time>2026-04-19T12:30:22.999Z</time></trkpt><trkpt lat="44.901789779531526" lon="7.3597026774839955"><ele>337.0</ele><time>2026-04-19T12:30:23.999Z</time></trkpt><trkpt lat="44.90190960305746" lon="7.359690567440608"><ele>337.25</ele><time>2026-04-19T12:30:24.999Z</time></trkpt><trkpt lat="44.90202708870441" lon="7.359619744578269"><ele>337.5</ele><time>2026-04-19T12:30:25.999Z</time></trkpt><trkpt lat="44.90212729950736" lon="7.359506664433885"><ele>337.75</ele><time>2026-04-19T12:30:26.999Z</time></trkpt><trkpt lat="44.90219266335279" lon="7.359359246565262"><ele>338.0</ele><time>2026-04-19T12:30:27.999Z</time></trkpt><trkpt lat="44.902222911297876" lon="7.359214161960215"><ele>338.0</ele><time>2026-04-19T12:30:29Z</time></trkpt><trkpt lat="44.902246753046896" lon="7.359100493517644"><ele>338.0</ele><time>2026-04-19T12:30:30Z</time></trkpt><trkpt lat="44.90229240591814" lon="7.3590162261131935"><ele>338.0</ele><time>2026-04-19T12:30:31Z</time></trkpt><trkpt lat="44.902358288892245" lon="7.358950270657083"><ele>338.0</ele><time>2026-04-19T12:30:32Z</time></trkpt><trkpt lat="44.90243631392953" lon="7.358893081691041"><ele>338.0</ele><time>2026-04-19T12:30:33Z</time></trkpt><trkpt lat="44.90252709969627" lon="7.358849970117488"><ele>338.0</ele><time>2026-04-19T12:30:34Z</time></trkpt><trkpt lat="44.90263338795958" lon="7.358824701600351"><ele>337.5</ele><time>2026-04-19T12:30:35Z</time></trkpt><trkpt lat="44.902752599235214" lon="7.35882436790906"><ele>337.0</ele><time>2026-04-19T12:30:36Z</time></trkpt><trkpt lat="44.90287193060863" lon="7.358863372636371"><ele>336.5</ele><time>2026-04-19T12:30:37Z</time></trkpt><trkpt lat="44.90299279433122" lon="7.358923773430113"><ele>336.0</ele><time>2026-04-19T12:30:38Z</time></trkpt><trkpt lat="44.903120981841255" lon="7.358977125402045"><ele>336.0</ele><time>2026-04-19T12:30:39Z</time></trkpt><trkpt lat="44.903256018986326" lon="7.3590294932134706"><ele>336.0</ele><time>2026-04-19T12:30:40Z</time></trkpt><trkpt lat="44.90339348300848" lon="7.359085913922724"><ele>336.0</ele><time>2026-04-19T12:30:41Z</time></trkpt><trkpt lat="44.90352941372486" lon="7.359144740944054"><ele>336.0</ele><time>2026-04-19T12:30:42Z</time></trkpt><trkpt lat="44.90365404569858" lon="7.359189549123537"><ele>336.25</ele><time>2026-04-19T12:30:43Z</time></trkpt><trkpt lat="44.90376970779588" lon="7.359234492673856"><ele>336.5</ele><time>2026-04-19T12:30:44Z</time></trkpt><trkpt lat="44.903890418657944" lon="7.359283239510079"><ele>336.75</ele><time>2026-04-19T12:30:45Z</time></trkpt><trkpt lat="44.90401393895868" lon="7.359328242909345"><ele>337.0</ele><time>2026-04-19T12:30:46Z</time></trkpt><trkpt lat="44.90413887455886" lon="7.35938025647886"><ele>337.75</ele><time>2026-04-19T12:30:47Z</time></trkpt><trkpt lat="44.90426710873906" lon="7.35943061392922"><ele>338.5</ele><time>2026-04-19T12:30:48Z</time></trkpt><trkpt lat="44.90440027975306" lon="7.359481675614492"><ele>339.25</ele><time>2026-04-19T12:30:49Z</time></trkpt><trkpt lat="44.90452977972704" lon="7.3595326106050765"><ele>340.0</ele><time>2026-04-19T12:30:50Z</time></trkpt><trkpt lat="44.904653753038176" lon="7.359583734921671"><ele>340.0</ele><time>2026-04-19T12:30:51Z</time></trkpt><trkpt lat="44.90477718590577" lon="7.359628861969508"><ele>340.0</ele><time>2026-04-19T12:30:52Z</time></trkpt><trkpt lat="44.90489958719905" lon="7.359674445595513"><ele>340.0</ele><time>2026-04-19T12:30:53Z</time></trkpt><trkpt lat="44.90501984695544" lon="7.359723934883383"><ele>340.0</ele><time>2026-04-19T12:30:54Z</time></trkpt><trkpt lat="44.905138309918655" lon="7.359774785786092"><ele>338.5</ele><time>2026-04-19T12:30:55Z</time></trkpt><trkpt lat="44.90525914221015" lon="7.359822399699294"><ele>337.0</ele><time>2026-04-19T12:30:56Z</time></trkpt><trkpt lat="44.90538063554536" lon="7.359869171803829"><ele>335.5</ele><time>2026-04-19T12:30:57Z</time></trkpt><trkpt lat="44.90550323054199" lon="7.359914841656147"><ele>334.0</ele><time>2026-04-19T12:30:58Z</time></trkpt><trkpt lat="44.90562577453101" lon="7.359963157735262"><ele>334.0</ele><time>2026-04-19T12:30:59Z</time></trkpt><trkpt lat="44.905747875577674" lon="7.3600125662624905"><ele>334.0</ele><time>2026-04-19T12:31:00Z</time></trkpt><trkpt lat="44.90587225160661" lon="7.360061685783677"><ele>334.0</ele><time>2026-04-19T12:31:01Z</time></trkpt><trkpt lat="44.90598631821491" lon="7.360105907200478"><ele>334.0</ele><time>2026-04-19T12:31:02Z</time></trkpt><trkpt lat="44.906090748103225" lon="7.360151033666376"><ele>333.6</ele><time>2026-04-19T12:31:03Z</time></trkpt><trkpt lat="44.90618982995392" lon="7.360192940403335"><ele>333.2</ele><time>2026-04-19T12:31:04Z</time></trkpt><trkpt lat="44.906275617456" lon="7.360224382831836"><ele>332.8</ele><time>2026-04-19T12:31:05Z</time></trkpt><trkpt lat="44.906346721458505" lon="7.360251743946174"><ele>332.40000000000003</ele><time>2026-04-19T12:31:06Z</time></trkpt><trkpt lat="44.906403690688514" lon="7.3602896837124785"><ele>332.0</ele><time>2026-04-19T12:31:07Z</time></trkpt><trkpt lat="44.90651476267681" lon="7.360369033370891"><ele>332.0</ele><time>2026-04-19T12:31:09Z</time></trkpt><trkpt lat="44.906574653545306" lon="7.3604422880836635"><ele>332.0</ele><time>2026-04-19T12:31:10Z</time></trkpt><trkpt lat="44.906636025403245" lon="7.360539053888444"><ele>332.0</ele><time>2026-04-19T12:31:11Z</time></trkpt><trkpt lat="44.9066847406353" lon="7.360665221625636"><ele>332.0</ele><time>2026-04-19T12:31:12Z</time></trkpt><trkpt lat="44.90672213356867" lon="7.360811271572885"><ele>332.0</ele><time>2026-04-19T12:31:13Z</time></trkpt><trkpt lat="44.906739911626325" lon="7.361001168472504"><ele>331.6666666666667</ele><time>2026-04-19T12:31:14Z</time></trkpt><trkpt lat="44.906752927580875" lon="7.361223453765103"><ele>331.3333333333333</ele><time>2026-04-19T12:31:15Z</time></trkpt><trkpt lat="44.90677446733229" lon="7.3614517580651215"><ele>331.0</ele><time>2026-04-19T12:31:16Z</time></trkpt><trkpt lat="44.90680007263656" lon="7.361672662226952"><ele>331.0</ele><time>2026-04-19T12:31:17Z</time></trkpt><trkpt lat="44.90681988811012" lon="7.361863963675753"><ele>331.0</ele><time>2026-04-19T12:31:18Z</time></trkpt><trkpt lat="44.90683665232279" lon="7.362032345279568"><ele>331.0</ele><time>2026-04-19T12:31:19Z</time></trkpt><trkpt lat="44.90685396863083" lon="7.362186394984305"><ele>331.0</ele><time>2026-04-19T12:31:20Z</time></trkpt><trkpt lat="44.906871555563875" lon="7.3623478033618985"><ele>331.0</ele><time>2026-04-19T12:31:21Z</time></trkpt><trkpt lat="44.9068995210596" lon="7.362523937125317"><ele>331.0</ele><time>2026-04-19T12:31:22Z</time></trkpt><trkpt lat="44.906926230514074" lon="7.362718559576702"><ele>331.0</ele><time>2026-04-19T12:31:23Z</time></trkpt><trkpt lat="44.90695455594709" lon="7.362923873417706"><ele>331.0</ele><time>2026-04-19T12:31:24.001Z</time></trkpt><trkpt lat="44.906993175325674" lon="7.3631383905436465"><ele>330.66666666666663</ele><time>2026-04-19T12:31:25.001Z</time></trkpt><trkpt lat="44.90703426191879" lon="7.363351251792821"><ele>330.3333333333333</ele><time>2026-04-19T12:31:26.001Z</time></trkpt><trkpt lat="44.90708367034984" lon="7.363556217084836"><ele>330.0</ele><time>2026-04-19T12:31:27.001Z</time></trkpt><trkpt lat="44.907143840294275" lon="7.363759238093236"><ele>329.6666666666667</ele><time>2026-04-19T12:31:28.001Z</time></trkpt><trkpt lat="44.90720600304721" lon="7.36396676596891"><ele>329.33333333333337</ele><time>2026-04-19T12:31:29.001Z</time></trkpt><trkpt lat="44.90726789211378" lon="7.3641734872441615"><ele>329.0</ele><time>2026-04-19T12:31:30.001Z</time></trkpt><trkpt lat="44.907327293630715" lon="7.364385986845997"><ele>329.0</ele><time>2026-04-19T12:31:31.001Z</time></trkpt><trkpt lat="44.90738488190194" lon="7.364595653020125"><ele>329.0</ele><time>2026-04-19T12:31:32.001Z</time></trkpt><trkpt lat="44.90744357868512" lon="7.364806025856147"><ele>329.0</ele><time>2026-04-19T12:31:33.001Z</time></trkpt><trkpt lat="44.9075082256534" lon="7.365012201385548"><ele>329.6666666666667</ele><time>2026-04-19T12:31:34.001Z</time></trkpt><trkpt lat="44.90759364788648" lon="7.36522372421743"><ele>330.3333333333333</ele><time>2026-04-19T12:31:35.001Z</time></trkpt><trkpt lat="44.907696232390514" lon="7.365426510201996"><ele>331.0</ele><time>2026-04-19T12:31:36.001Z</time></trkpt><trkpt lat="44.907797695881015" lon="7.3656302650709895"><ele>331.0</ele><time>2026-04-19T12:31:37.001Z</time></trkpt><trkpt lat="44.90790500543423" lon="7.365827739148769"><ele>331.0</ele><time>2026-04-19T12:31:38.001Z</time></trkpt><trkpt lat="44.908017871615186" lon="7.366035490889875"><ele>331.0</ele><time>2026-04-19T12:31:39.001Z</time></trkpt><trkpt lat="44.90813728707996" lon="7.366251745485995"><ele>330.66666666666663</ele><time>2026-04-19T12:31:40.001Z</time></trkpt><trkpt lat="44.90824793881762" lon="7.3664581703750995"><ele>330.3333333333333</ele><time>2026-04-19T12:31:41.001Z</time></trkpt><trkpt lat="44.908352091751055" lon="7.366662249875907"><ele>330.0</ele><time>2026-04-19T12:31:42.001Z</time></trkpt><trkpt lat="44.90845985424805" lon="7.366869597490679"><ele>330.0</ele><time>2026-04-19T12:31:43.001Z</time></trkpt><trkpt lat="44.90855647200869" lon="7.367050771121282"><ele>330.0</ele><time>2026-04-19T12:31:44.001Z</time></trkpt><trkpt lat="44.90864978920747" lon="7.367224819423642"><ele>330.0</ele><time>2026-04-19T12:31:45.001Z</time></trkpt><trkpt lat="44.90874478370066" lon="7.367421685933542"><ele>329.3333333333333</ele><time>2026-04-19T12:31:46.001Z</time></trkpt><trkpt lat="44.90884654187364" lon="7.367623616024779"><ele>328.66666666666663</ele><time>2026-04-19T12:31:47.001Z</time></trkpt><trkpt lat="44.90895215881568" lon="7.367836779624561"><ele>328.0</ele><time>2026-04-19T12:31:48.001Z</time></trkpt><trkpt lat="44.90904950119812" lon="7.368026225298803"><ele>328.25</ele><time>2026-04-19T12:31:49.001Z</time></trkpt><trkpt lat="44.909133144409985" lon="7.368182023336173"><ele>328.5</ele><time>2026-04-19T12:31:50.001Z</time></trkpt><trkpt lat="44.909213125219644" lon="7.368323150626334"><ele>328.75</ele><time>2026-04-19T12:31:51.001Z</time></trkpt><trkpt lat="44.90930971930503" lon="7.36845833626137"><ele>329.0</ele><time>2026-04-19T12:31:52.001Z</time></trkpt><trkpt lat="44.90942838573387" lon="7.368593880430366"><ele>328.0</ele><time>2026-04-19T12:31:53.001Z</time></trkpt><trkpt lat="44.90956469052284" lon="7.368728598934759"><ele>327.0</ele><time>2026-04-19T12:31:54.001Z</time></trkpt><trkpt lat="44.90969276823777" lon="7.368870198671356"><ele>326.0</ele><time>2026-04-19T12:31:55.001Z</time></trkpt><trkpt lat="44.90981186274151" lon="7.369009307380583"><ele>326.0</ele><time>2026-04-19T12:31:56.001Z</time></trkpt><trkpt lat="44.90991431124045" lon="7.369137761862392"><ele>326.0</ele><time>2026-04-19T12:31:57.001Z</time></trkpt><trkpt lat="44.9099953433692" lon="7.369235222894973"><ele>326.0</ele><time>2026-04-19T12:31:58.001Z</time></trkpt><trkpt lat="44.91006409607961" lon="7.369308468012652"><ele>326.0</ele><time>2026-04-19T12:31:59.001Z</time></trkpt><trkpt lat="44.91011781704163" lon="7.369380248070772"><ele>326.0</ele><time>2026-04-19T12:32:00.001Z</time></trkpt><trkpt lat="44.91013375621625" lon="7.369595996465101"><ele>325.75</ele><time>2026-04-19T12:32:02.001Z</time></trkpt><trkpt lat="44.91014098672481" lon="7.369762812180218"><ele>325.5</ele><time>2026-04-19T12:32:03.001Z</time></trkpt><trkpt lat="44.91012142909111" lon="7.369955091540904"><ele>325.25</ele><time>2026-04-19T12:32:04.001Z</time></trkpt><trkpt lat="44.910115088580646" lon="7.37016712844416"><ele>325.0</ele><time>2026-04-19T12:32:05.001Z</time></trkpt><trkpt lat="44.910121283382935" lon="7.370396012427463"><ele>324.66666666666663</ele><time>2026-04-19T12:32:06.001Z</time></trkpt><trkpt lat="44.91012431592664" lon="7.370636234140626"><ele>324.3333333333333</ele><time>2026-04-19T12:32:07.001Z</time></trkpt><trkpt lat="44.910126908262484" lon="7.370881853845268"><ele>324.0</ele><time>2026-04-19T12:32:08.001Z</time></trkpt><trkpt lat="44.91012338683908" lon="7.371133648576708"><ele>324.0</ele><time>2026-04-19T12:32:09.001Z</time></trkpt><trkpt lat="44.91012384475269" lon="7.371390118920101"><ele>324.0</ele><time>2026-04-19T12:32:10.001Z</time></trkpt><trkpt lat="44.910124426057365" lon="7.371661428365063"><ele>324.0</ele><time>2026-04-19T12:32:11.001Z</time></trkpt><trkpt lat="44.910124559433925" lon="7.371928284114121"><ele>324.3333333333333</ele><time>2026-04-19T12:32:12.001Z</time></trkpt><trkpt lat="44.91012315640454" lon="7.372193157207938"><ele>324.66666666666663</ele><time>2026-04-19T12:32:13.001Z</time></trkpt><trkpt lat="44.910124701097885" lon="7.372425358618596"><ele>325.0</ele><time>2026-04-19T12:32:14.001Z</time></trkpt><trkpt lat="44.91012401285779" lon="7.372618835598105"><ele>325.0</ele><time>2026-04-19T12:32:15.001Z</time></trkpt><trkpt lat="44.91011886669509" lon="7.372775571475409"><ele>325.0</ele><time>2026-04-19T12:32:16.001Z</time></trkpt><trkpt lat="44.91011839195329" lon="7.372905162252926"><ele>325.0</ele><time>2026-04-19T12:32:17.001Z</time></trkpt><trkpt lat="44.910127690575365" lon="7.3730169697286225"><ele>325.0</ele><time>2026-04-19T12:32:18.001Z</time></trkpt><trkpt lat="44.910094078143786" lon="7.373121947798721"><ele>325.0</ele><time>2026-04-19T12:32:19.001Z</time></trkpt><trkpt lat="44.91006168614832" lon="7.373228652934318"><ele>325.0</ele><time>2026-04-19T12:32:20Z</time></trkpt><trkpt lat="44.91003161233713" lon="7.373382818954508"><ele>324.5</ele><time>2026-04-19T12:32:21Z</time></trkpt><trkpt lat="44.9102802575058" lon="7.373689802438149"><ele>324.0</ele><time>2026-04-19T12:32:22Z</time></trkpt><trkpt lat="44.910315504307135" lon="7.373886628667719"><ele>323.5</ele><time>2026-04-19T12:32:23Z</time></trkpt><trkpt lat="44.910344501682815" lon="7.374081278101158"><ele>323.0</ele><time>2026-04-19T12:32:24Z</time></trkpt><trkpt lat="44.91036832375916" lon="7.374281283252153"><ele>322.5</ele><time>2026-04-19T12:32:25Z</time></trkpt><trkpt lat="44.91040891005443" lon="7.374480757511102"><ele>322.0</ele><time>2026-04-19T12:32:26Z</time></trkpt><trkpt lat="44.91045023642855" lon="7.374694697801087"><ele>321.66666666666663</ele><time>2026-04-19T12:32:27Z</time></trkpt><trkpt lat="44.91049045520067" lon="7.374911765216925"><ele>321.3333333333333</ele><time>2026-04-19T12:32:28Z</time></trkpt><trkpt lat="44.910517120771175" lon="7.375120367327966"><ele>321.0</ele><time>2026-04-19T12:32:29Z</time></trkpt><trkpt lat="44.91055274058585" lon="7.375334858919931"><ele>321.0</ele><time>2026-04-19T12:32:30Z</time></trkpt><trkpt lat="44.910603770890965" lon="7.37554786396222"><ele>321.0</ele><time>2026-04-19T12:32:31Z</time></trkpt><trkpt lat="44.91065703661688" lon="7.375767852125888"><ele>321.0</ele><time>2026-04-19T12:32:32Z</time></trkpt><trkpt lat="44.910705287974125" lon="7.375978933357866"><ele>321.0</ele><time>2026-04-19T12:32:33Z</time></trkpt><trkpt lat="44.91077823445175" lon="7.376211507470732"><ele>321.0</ele><time>2026-04-19T12:32:34Z</time></trkpt><trkpt lat="44.91084003453041" lon="7.376388671505734"><ele>321.0</ele><time>2026-04-19T12:32:35Z</time></trkpt><trkpt lat="44.910876841036114" lon="7.376574396727773"><ele>320.75</ele><time>2026-04-19T12:32:36Z</time></trkpt><trkpt lat="44.91093197062297" lon="7.376782413707311"><ele>320.5</ele><time>2026-04-19T12:32:37Z</time></trkpt><trkpt lat="44.91098131332439" lon="7.3769767011514915"><ele>320.25</ele><time>2026-04-19T12:32:38Z</time></trkpt><trkpt lat="44.91102367793533" lon="7.377169497317566"><ele>320.0</ele><time>2026-04-19T12:32:39Z</time></trkpt><trkpt lat="44.911065430791204" lon="7.377339089315095"><ele>320.0</ele><time>2026-04-19T12:32:40Z</time></trkpt><trkpt lat="44.91112674005195" lon="7.37751864781645"><ele>320.0</ele><time>2026-04-19T12:32:41Z</time></trkpt><trkpt lat="44.911206692193545" lon="7.377711766632242"><ele>320.0</ele><time>2026-04-19T12:32:42Z</time></trkpt><trkpt lat="44.911296067154005" lon="7.377896158681168"><ele>319.75</ele><time>2026-04-19T12:32:43Z</time></trkpt><trkpt lat="44.91137527856511" lon="7.378054432651924"><ele>319.5</ele><time>2026-04-19T12:32:44Z</time></trkpt><trkpt lat="44.91144493696094" lon="7.378211337548441"><ele>319.25</ele><time>2026-04-19T12:32:45Z</time></trkpt><trkpt lat="44.911506493991915" lon="7.378360589887627"><ele>319.0</ele><time>2026-04-19T12:32:46Z</time></trkpt><trkpt lat="44.911582338525065" lon="7.378512270472368"><ele>319.0</ele><time>2026-04-19T12:32:47Z</time></trkpt><trkpt lat="44.91164913535917" lon="7.3786759629316"><ele>319.0</ele><time>2026-04-19T12:32:48Z</time></trkpt><trkpt lat="44.91170913461562" lon="7.378837945086631"><ele>319.0</ele><time>2026-04-19T12:32:49Z</time></trkpt><trkpt lat="44.911773155068104" lon="7.3789863386147365"><ele>319.0</ele><time>2026-04-19T12:32:50Z</time></trkpt><trkpt lat="44.91184646783758" lon="7.379155366714015"><ele>318.75</ele><time>2026-04-19T12:32:51Z</time></trkpt><trkpt lat="44.9119246988942" lon="7.379334131938421"><ele>318.5</ele><time>2026-04-19T12:32:52Z</time></trkpt><trkpt lat="44.91200309757332" lon="7.379511493327526"><ele>318.25</ele><time>2026-04-19T12:32:53Z</time></trkpt><trkpt lat="44.91206777342747" lon="7.379666855533075"><ele>318.0</ele><time>2026-04-19T12:32:54Z</time></trkpt><trkpt lat="44.912131580584905" lon="7.379819585209803"><ele>317.75</ele><time>2026-04-19T12:32:55Z</time></trkpt><trkpt lat="44.91218537043509" lon="7.379983259239029"><ele>317.5</ele><time>2026-04-19T12:32:56Z</time></trkpt><trkpt lat="44.91225887775159" lon="7.3801536211245775"><ele>317.25</ele><time>2026-04-19T12:32:57Z</time></trkpt><trkpt lat="44.91233846954462" lon="7.380331957434723"><ele>317.0</ele><time>2026-04-19T12:32:58Z</time></trkpt><trkpt lat="44.91242255830543" lon="7.3805075580327095"><ele>316.75</ele><time>2026-04-19T12:32:59Z</time></trkpt><trkpt lat="44.912498524663874" lon="7.380681837408221"><ele>316.5</ele><time>2026-04-19T12:33:00Z</time></trkpt><trkpt lat="44.912571974307426" lon="7.38086076279543"><ele>316.25</ele><time>2026-04-19T12:33:01Z</time></trkpt><trkpt lat="44.91264039543715" lon="7.381022860462591"><ele>316.0</ele><time>2026-04-19T12:33:02.001Z</time></trkpt><trkpt lat="44.91270003398017" lon="7.381181908291597"><ele>316.0</ele><time>2026-04-19T12:33:03.001Z</time></trkpt><trkpt lat="44.91276330556117" lon="7.381362805360504"><ele>316.0</ele><time>2026-04-19T12:33:04.001Z</time></trkpt><trkpt lat="44.91282900735603" lon="7.381537550770682"><ele>316.0</ele><time>2026-04-19T12:33:05.001Z</time></trkpt><trkpt lat="44.91290217869423" lon="7.381716266657442"><ele>316.0</ele><time>2026-04-19T12:33:06.001Z</time></trkpt><trkpt lat="44.912972035041534" lon="7.381893040789337"><ele>316.0</ele><time>2026-04-19T12:33:07.001Z</time></trkpt><trkpt lat="44.91303987705741" lon="7.382052162016058"><ele>316.0</ele><time>2026-04-19T12:33:08.001Z</time></trkpt><trkpt lat="44.91310940600628" lon="7.382224915509465"><ele>316.0</ele><time>2026-04-19T12:33:09.001Z</time></trkpt><trkpt lat="44.91317876776263" lon="7.382392616919976"><ele>316.0</ele><time>2026-04-19T12:33:10.001Z</time></trkpt><trkpt lat="44.91323883685885" lon="7.382557412732322"><ele>316.0</ele><time>2026-04-19T12:33:11.001Z</time></trkpt><trkpt lat="44.913301542289624" lon="7.382732275942626"><ele>316.0</ele><time>2026-04-19T12:33:12.001Z</time></trkpt><trkpt lat="44.913357236190976" lon="7.38289434710916"><ele>316.0</ele><time>2026-04-19T12:33:13.001Z</time></trkpt><trkpt lat="44.913425194280244" lon="7.3830601929540265"><ele>316.0</ele><time>2026-04-19T12:33:14.001Z</time></trkpt><trkpt lat="44.91348904813961" lon="7.383223917835534"><ele>315.6</ele><time>2026-04-19T12:33:15.001Z</time></trkpt><trkpt lat="44.913545652371646" lon="7.383361889670455"><ele>315.20000000000005</ele><time>2026-04-19T12:33:16.001Z</time></trkpt><trkpt lat="44.91360614788334" lon="7.383492360357912"><ele>314.79999999999995</ele><time>2026-04-19T12:33:17.001Z</time></trkpt><trkpt lat="44.913639112926674" lon="7.383593459846038"><ele>314.4</ele><time>2026-04-19T12:33:18.001Z</time></trkpt><trkpt lat="44.91368997619718" lon="7.383649796918503"><ele>314.0</ele><time>2026-04-19T12:33:20.001Z</time></trkpt><trkpt lat="44.91378110022663" lon="7.383587530398377"><ele>314.0</ele><time>2026-04-19T12:33:22.001Z</time></trkpt><trkpt lat="44.91385592279694" lon="7.383501235421956"><ele>314.0</ele><time>2026-04-19T12:33:23.001Z</time></trkpt><trkpt lat="44.91392082010673" lon="7.383405749862233"><ele>314.0</ele><time>2026-04-19T12:33:24.001Z</time></trkpt><trkpt lat="44.913996439393614" lon="7.383500374470143"><ele>314.0</ele><time>2026-04-19T12:33:27.001Z</time></trkpt><trkpt lat="44.914036330025475" lon="7.383600523540282"><ele>314.0</ele><time>2026-04-19T12:33:28.001Z</time></trkpt><trkpt lat="44.914100175814596" lon="7.383743519081415"><ele>314.0</ele><time>2026-04-19T12:33:29.001Z</time></trkpt><trkpt lat="44.91418564175307" lon="7.383917621376237"><ele>314.0</ele><time>2026-04-19T12:33:30.001Z</time></trkpt><trkpt lat="44.91426612239719" lon="7.384092263113637"><ele>314.0</ele><time>2026-04-19T12:33:31.001Z</time></trkpt><trkpt lat="44.91432974681996" lon="7.384236464882085"><ele>314.0</ele><time>2026-04-19T12:33:32.001Z</time></trkpt><trkpt lat="44.91439329557712" lon="7.384375070212281"><ele>313.75</ele><time>2026-04-19T12:33:33.001Z</time></trkpt><trkpt lat="44.914451979471266" lon="7.3845152521624176"><ele>313.5</ele><time>2026-04-19T12:33:34.001Z</time></trkpt><trkpt lat="44.91451341779402" lon="7.384667409598378"><ele>313.25</ele><time>2026-04-19T12:33:35.001Z</time></trkpt><trkpt lat="44.91458676933309" lon="7.384810276595726"><ele>313.0</ele><time>2026-04-19T12:33:36.001Z</time></trkpt><trkpt lat="44.91466951503028" lon="7.384948556609094"><ele>313.4</ele><time>2026-04-19T12:33:37.001Z</time></trkpt><trkpt lat="44.91475116881956" lon="7.385078422485465"><ele>313.8</ele><time>2026-04-19T12:33:38.001Z</time></trkpt><trkpt lat="44.91482273285078" lon="7.385184723168722"><ele>314.2</ele><time>2026-04-19T12:33:39.001Z</time></trkpt><trkpt lat="44.91488696653699" lon="7.3852494641196955"><ele>314.6</ele><time>2026-04-19T12:33:40.001Z</time></trkpt><trkpt lat="44.914948277446" lon="7.385304032836109"><ele>315.0</ele><time>2026-04-19T12:33:41.001Z</time></trkpt><trkpt lat="44.91505603486269" lon="7.385305013563187"><ele>314.25</ele><time>2026-04-19T12:33:43.001Z</time></trkpt><trkpt lat="44.91513232647647" lon="7.3852472898229555"><ele>313.5</ele><time>2026-04-19T12:33:44.001Z</time></trkpt><trkpt lat="44.91523289461797" lon="7.385165367663228"><ele>312.75</ele><time>2026-04-19T12:33:45.001Z</time></trkpt><trkpt lat="44.91535373755705" lon="7.3850652466196145"><ele>312.0</ele><time>2026-04-19T12:33:46.001Z</time></trkpt><trkpt lat="44.915481581779126" lon="7.384966058512635"><ele>312.0</ele><time>2026-04-19T12:33:47.001Z</time></trkpt><trkpt lat="44.915590456936684" lon="7.3848828666527435"><ele>312.0</ele><time>2026-04-19T12:33:48.001Z</time></trkpt><trkpt lat="44.915675019399806" lon="7.384814558523135"><ele>312.0</ele><time>2026-04-19T12:33:49.001Z</time></trkpt><trkpt lat="44.915772096420135" lon="7.384764594895896"><ele>312.0</ele><time>2026-04-19T12:33:51.001Z</time></trkpt><trkpt lat="44.915831665603456" lon="7.384893626224782"><ele>312.0</ele><time>2026-04-19T12:33:53.001Z</time></trkpt><trkpt lat="44.915861345758074" lon="7.385031427807126"><ele>312.0</ele><time>2026-04-19T12:33:54.001Z</time></trkpt><trkpt lat="44.915898632467325" lon="7.385206234186727"><ele>312.0</ele><time>2026-04-19T12:33:55.001Z</time></trkpt><trkpt lat="44.915952994475724" lon="7.385393322872047"><ele>312.0</ele><time>2026-04-19T12:33:56.001Z</time></trkpt><trkpt lat="44.916009507142206" lon="7.385582140280634"><ele>312.0</ele><time>2026-04-19T12:33:57.001Z</time></trkpt><trkpt lat="44.91607043112429" lon="7.385775915100539"><ele>311.6666666666667</ele><time>2026-04-19T12:33:58.001Z</time></trkpt><trkpt lat="44.91613612308473" lon="7.3859758930348205"><ele>311.33333333333337</ele><time>2026-04-19T12:33:59.001Z</time></trkpt><trkpt lat="44.91620637880661" lon="7.38616611881033"><ele>311.0</ele><time>2026-04-19T12:34:00.001Z</time></trkpt><trkpt lat="44.91627847133019" lon="7.386351052327286"><ele>311.0</ele><time>2026-04-19T12:34:01.001Z</time></trkpt><trkpt lat="44.91635561797325" lon="7.38653453650333"><ele>311.0</ele><time>2026-04-19T12:34:02.001Z</time></trkpt><trkpt lat="44.916431773891254" lon="7.386717762433922"><ele>311.0</ele><time>2026-04-19T12:34:03.001Z</time></trkpt><trkpt lat="44.91650112372657" lon="7.386901063723389"><ele>311.0</ele><time>2026-04-19T12:34:04.001Z</time></trkpt><trkpt lat="44.91657378404791" lon="7.387096900806778"><ele>310.6666666666667</ele><time>2026-04-19T12:34:05.001Z</time></trkpt><trkpt lat="44.91664900226978" lon="7.387287034267748"><ele>310.3333333333333</ele><time>2026-04-19T12:34:06.001Z</time></trkpt><trkpt lat="44.91672546729116" lon="7.387480425698112"><ele>310.0</ele><time>2026-04-19T12:34:07.001Z</time></trkpt><trkpt lat="44.91680416003271" lon="7.3876777370493"><ele>310.0</ele><time>2026-04-19T12:34:08.001Z</time></trkpt><trkpt lat="44.916877746604655" lon="7.387864734723026"><ele>310.0</ele><time>2026-04-19T12:34:09.001Z</time></trkpt><trkpt lat="44.916955925079385" lon="7.388060475650902"><ele>310.0</ele><time>2026-04-19T12:34:10.001Z</time></trkpt><trkpt lat="44.91703398065516" lon="7.388251012416272"><ele>309.5</ele><time>2026-04-19T12:34:11.001Z</time></trkpt><trkpt lat="44.917111697193285" lon="7.388445501495279"><ele>309.0</ele><time>2026-04-19T12:34:12.001Z</time></trkpt><trkpt lat="44.91718663082744" lon="7.388631329821805"><ele>308.5</ele><time>2026-04-19T12:34:13.001Z</time></trkpt><trkpt lat="44.917252985831134" lon="7.38879855900523"><ele>308.0</ele><time>2026-04-19T12:34:14.001Z</time></trkpt><trkpt lat="44.91731652430816" lon="7.388960904893258"><ele>308.0</ele><time>2026-04-19T12:34:15.001Z</time></trkpt><trkpt lat="44.91737721621626" lon="7.389115411016503"><ele>308.0</ele><time>2026-04-19T12:34:16.001Z</time></trkpt><trkpt lat="44.91742633808155" lon="7.389241758434483"><ele>308.0</ele><time>2026-04-19T12:34:17.001Z</time></trkpt><trkpt lat="44.9174652961129" lon="7.389343642726314"><ele>308.0</ele><time>2026-04-19T12:34:18.001Z</time></trkpt><trkpt lat="44.91754605353428" lon="7.389417935209169"><ele>308.0</ele><time>2026-04-19T12:34:20.001Z</time></trkpt><trkpt lat="44.917656304324744" lon="7.389371936346649"><ele>308.0</ele><time>2026-04-19T12:34:22.002Z</time></trkpt><trkpt lat="44.91773810946361" lon="7.389294814671722"><ele>308.0</ele><time>2026-04-19T12:34:23.002Z</time></trkpt><trkpt lat="44.91786051687904" lon="7.389190150237961"><ele>308.0</ele><time>2026-04-19T12:34:24.002Z</time></trkpt><trkpt lat="44.917999222767826" lon="7.389086323946511"><ele>308.0</ele><time>2026-04-19T12:34:25.002Z</time></trkpt><trkpt lat="44.91813916252127" lon="7.388970614654817"><ele>308.0</ele><time>2026-04-19T12:34:26.001Z</time></trkpt><trkpt lat="44.918276000316254" lon="7.388843227409213"><ele>308.0</ele><time>2026-04-19T12:34:27.001Z</time></trkpt><trkpt lat="44.91842084628145" lon="7.388718865548356"><ele>308.0</ele><time>2026-04-19T12:34:28.001Z</time></trkpt><trkpt lat="44.918555202638174" lon="7.388602233595319"><ele>307.6666666666667</ele><time>2026-04-19T12:34:29.001Z</time></trkpt><trkpt lat="44.918693067585025" lon="7.388482369245723"><ele>307.3333333333333</ele><time>2026-04-19T12:34:30.001Z</time></trkpt><trkpt lat="44.918825673434135" lon="7.3883666213377355"><ele>307.0</ele><time>2026-04-19T12:34:31.001Z</time></trkpt><trkpt lat="44.91894614973369" lon="7.388261325151181"><ele>307.0</ele><time>2026-04-19T12:34:32.001Z</time></trkpt><trkpt lat="44.919044222142006" lon="7.388175269876563"><ele>307.0</ele><time>2026-04-19T12:34:33.001Z</time></trkpt><trkpt lat="44.91912145457559" lon="7.388106490627163"><ele>307.0</ele><time>2026-04-19T12:34:34.001Z</time></trkpt><trkpt lat="44.91917773090623" lon="7.388056945760027"><ele>307.0</ele><time>2026-04-19T12:34:35.001Z</time></trkpt><trkpt lat="44.91924073072064" lon="7.388073260664135"><ele>307.0</ele><time>2026-04-19T12:34:37.001Z</time></trkpt><trkpt lat="44.919345502171886" lon="7.388402032896871"><ele>307.0</ele><time>2026-04-19T12:34:40.001Z</time></trkpt><trkpt lat="44.91939965228912" lon="7.388579720615588"><ele>307.0</ele><time>2026-04-19T12:34:41.001Z</time></trkpt><trkpt lat="44.9194690342945" lon="7.388765171617827"><ele>307.0</ele><time>2026-04-19T12:34:42.001Z</time></trkpt><trkpt lat="44.91953837118453" lon="7.388955169533486"><ele>307.0</ele><time>2026-04-19T12:34:43.001Z</time></trkpt><trkpt lat="44.91960837385224" lon="7.3891427721441865"><ele>306.66666666666663</ele><time>2026-04-19T12:34:44.001Z</time></trkpt><trkpt lat="44.91967713198546" lon="7.389333949787136"><ele>306.3333333333333</ele><time>2026-04-19T12:34:45.001Z</time></trkpt><trkpt lat="44.91974726086705" lon="7.38952716514687"><ele>306.0</ele><time>2026-04-19T12:34:46.001Z</time></trkpt><trkpt lat="44.91980552886685" lon="7.3897374034129495"><ele>306.0</ele><time>2026-04-19T12:34:47.001Z</time></trkpt><trkpt lat="44.919840993906874" lon="7.389971858547205"><ele>306.0</ele><time>2026-04-19T12:34:48.001Z</time></trkpt><trkpt lat="44.91988193717415" lon="7.390187875987997"><ele>306.0</ele><time>2026-04-19T12:34:49.001Z</time></trkpt><trkpt lat="44.91991763426197" lon="7.3904246461976015"><ele>305.6666666666667</ele><time>2026-04-19T12:34:50.001Z</time></trkpt><trkpt lat="44.919961834965456" lon="7.390657104360725"><ele>305.33333333333337</ele><time>2026-04-19T12:34:51.001Z</time></trkpt><trkpt lat="44.920003886302645" lon="7.390888916348041"><ele>305.0</ele><time>2026-04-19T12:34:52.001Z</time></trkpt><trkpt lat="44.920046655691166" lon="7.39113525671561"><ele>304.6666666666667</ele><time>2026-04-19T12:34:53.001Z</time></trkpt><trkpt lat="44.920090612513405" lon="7.391387775051073"><ele>304.3333333333333</ele><time>2026-04-19T12:34:54.001Z</time></trkpt><trkpt lat="44.920139898979166" lon="7.3916445943940206"><ele>304.0</ele><time>2026-04-19T12:34:55.001Z</time></trkpt><trkpt lat="44.92019203744355" lon="7.391910690550182"><ele>304.0</ele><time>2026-04-19T12:34:56.001Z</time></trkpt><trkpt lat="44.92023858509762" lon="7.39216937333209"><ele>304.0</ele><time>2026-04-19T12:34:57.001Z</time></trkpt><trkpt lat="44.920281536637575" lon="7.392392133527288"><ele>304.0</ele><time>2026-04-19T12:34:58.001Z</time></trkpt><trkpt lat="44.920319940214405" lon="7.3925637835634515"><ele>304.0</ele><time>2026-04-19T12:34:59.001Z</time></trkpt><trkpt lat="44.92035123007355" lon="7.392699497268262"><ele>304.0</ele><time>2026-04-19T12:35:00.001Z</time></trkpt><trkpt lat="44.92037178270415" lon="7.392797487382056"><ele>304.0</ele><time>2026-04-19T12:35:01.001Z</time></trkpt><trkpt lat="44.92033057347057" lon="7.3929137799313756"><ele>304.0</ele><time>2026-04-19T12:35:03.001Z</time></trkpt><trkpt lat="44.92022714021869" lon="7.392907198300281"><ele>304.0</ele><time>2026-04-19T12:35:04.001Z</time></trkpt><trkpt lat="44.92011865139683" lon="7.392970187416981"><ele>304.0</ele><time>2026-04-19T12:35:05.001Z</time></trkpt><trkpt lat="44.92003655441553" lon="7.393086905828581"><ele>304.0</ele><time>2026-04-19T12:35:06.001Z</time></trkpt><trkpt lat="44.91998403550514" lon="7.39323121046"><ele>304.0</ele><time>2026-04-19T12:35:07.001Z</time></trkpt><trkpt lat="44.919966212892895" lon="7.393401991451005"><ele>304.0</ele><time>2026-04-19T12:35:08.001Z</time></trkpt><trkpt lat="44.92000511737594" lon="7.393569177163056"><ele>304.0</ele><time>2026-04-19T12:35:09.001Z</time></trkpt><trkpt lat="44.92005988181104" lon="7.3937270852665815"><ele>304.0</ele><time>2026-04-19T12:35:10.001Z</time></trkpt><trkpt lat="44.9201458415285" lon="7.393879218285435"><ele>304.0</ele><time>2026-04-19T12:35:11.001Z</time></trkpt><trkpt lat="44.92023262866609" lon="7.39405577475454"><ele>304.0</ele><time>2026-04-19T12:35:12.001Z</time></trkpt><trkpt lat="44.92034075705494" lon="7.394213712209808"><ele>304.0</ele><time>2026-04-19T12:35:13.001Z</time></trkpt><trkpt lat="44.920432442849666" lon="7.39441090055047"><ele>304.0</ele><time>2026-04-19T12:35:14.001Z</time></trkpt><trkpt lat="44.92051398220972" lon="7.394624121173174"><ele>304.0</ele><time>2026-04-19T12:35:15.001Z</time></trkpt><trkpt lat="44.92058338139359" lon="7.394848099563398"><ele>303.66666666666663</ele><time>2026-04-19T12:35:16.001Z</time></trkpt><trkpt lat="44.92064999430986" lon="7.39506029270309"><ele>303.3333333333333</ele><time>2026-04-19T12:35:17.001Z</time></trkpt><trkpt lat="44.92071284268739" lon="7.395277860990346"><ele>303.0</ele><time>2026-04-19T12:35:18.001Z</time></trkpt><trkpt lat="44.92079903026645" lon="7.3954515572005874"><ele>303.3333333333333</ele><time>2026-04-19T12:35:19.001Z</time></trkpt><trkpt lat="44.92090034875192" lon="7.395624696065909"><ele>303.66666666666663</ele><time>2026-04-19T12:35:20.001Z</time></trkpt><trkpt lat="44.92099868363242" lon="7.395791984831483"><ele>304.0</ele><time>2026-04-19T12:35:21.001Z</time></trkpt><trkpt lat="44.92108696819746" lon="7.395947267359191"><ele>304.0</ele><time>2026-04-19T12:35:22.001Z</time></trkpt><trkpt lat="44.92117083210967" lon="7.396094774471316"><ele>304.0</ele><time>2026-04-19T12:35:23.001Z</time></trkpt><trkpt lat="44.92126173005211" lon="7.396224540137329"><ele>304.0</ele><time>2026-04-19T12:35:24.001Z</time></trkpt><trkpt lat="44.9213321479706" lon="7.396377852706363"><ele>304.0</ele><time>2026-04-19T12:35:25.001Z</time></trkpt><trkpt lat="44.92138999054526" lon="7.396540195058597"><ele>304.0</ele><time>2026-04-19T12:35:26.001Z</time></trkpt><trkpt lat="44.92144033964275" lon="7.396719641827913"><ele>304.0</ele><time>2026-04-19T12:35:27.001Z</time></trkpt><trkpt lat="44.921479159304674" lon="7.396924555051618"><ele>304.0</ele><time>2026-04-19T12:35:28.001Z</time></trkpt><trkpt lat="44.92151369626317" lon="7.397138129861632"><ele>304.0</ele><time>2026-04-19T12:35:29.001Z</time></trkpt><trkpt lat="44.92155124417179" lon="7.397352307039538"><ele>303.0</ele><time>2026-04-19T12:35:30.001Z</time></trkpt><trkpt lat="44.921593069177604" lon="7.397563744424062"><ele>302.0</ele><time>2026-04-19T12:35:31.001Z</time></trkpt><trkpt lat="44.92163168608345" lon="7.397780178343261"><ele>301.0</ele><time>2026-04-19T12:35:32.001Z</time></trkpt><trkpt lat="44.92170515337449" lon="7.397984155962036"><ele>300.3333333333333</ele><time>2026-04-19T12:35:33.001Z</time></trkpt><trkpt lat="44.92179038946401" lon="7.398186932904525"><ele>299.6666666666667</ele><time>2026-04-19T12:35:34.001Z</time></trkpt><trkpt lat="44.921879789657226" lon="7.398382523426141"><ele>299.0</ele><time>2026-04-19T12:35:35.001Z</time></trkpt><trkpt lat="44.921963764485064" lon="7.398551378889752"><ele>299.0</ele><time>2026-04-19T12:35:36.001Z</time></trkpt><trkpt lat="44.92203875940387" lon="7.398694564546705"><ele>299.0</ele><time>2026-04-19T12:35:37.001Z</time></trkpt><trkpt lat="44.92211468066837" lon="7.398800481215535"><ele>299.0</ele><time>2026-04-19T12:35:38.001Z</time></trkpt><trkpt lat="44.92214753236419" lon="7.398910550076356"><ele>299.0</ele><time>2026-04-19T12:35:39.001Z</time></trkpt><trkpt lat="44.922173496947764" lon="7.3990150561458785"><ele>299.0</ele><time>2026-04-19T12:35:41.001Z</time></trkpt><trkpt lat="44.922386880433336" lon="7.398954479706651"><ele>299.0</ele><time>2026-04-19T12:35:49.001Z</time></trkpt><trkpt lat="44.92247418058814" lon="7.398889429269536"><ele>299.0</ele><time>2026-04-19T12:35:50.001Z</time></trkpt><trkpt lat="44.9225791497089" lon="7.398816624339223"><ele>299.0</ele><time>2026-04-19T12:35:51.001Z</time></trkpt><trkpt lat="44.922698450799686" lon="7.398738982287596"><ele>299.0</ele><time>2026-04-19T12:35:52.001Z</time></trkpt><trkpt lat="44.922831053297514" lon="7.398654049137725"><ele>298.33333333333337</ele><time>2026-04-19T12:35:53.001Z</time></trkpt><trkpt lat="44.922969923029804" lon="7.398572465628482"><ele>297.6666666666667</ele><time>2026-04-19T12:35:54.001Z</time></trkpt><trkpt lat="44.92312330740645" lon="7.398489443261816"><ele>297.0</ele><time>2026-04-19T12:35:55.001Z</time></trkpt><trkpt lat="44.923282188955305" lon="7.398407749159724"><ele>297.3333333333333</ele><time>2026-04-19T12:35:56.001Z</time></trkpt><trkpt lat="44.92343811104608" lon="7.398317731028797"><ele>297.66666666666663</ele><time>2026-04-19T12:35:57.001Z</time></trkpt><trkpt lat="44.92359749274037" lon="7.398225740188358"><ele>298.0</ele><time>2026-04-19T12:35:58.001Z</time></trkpt><trkpt lat="44.92375481522555" lon="7.398138305635568"><ele>298.0</ele><time>2026-04-19T12:35:59.001Z</time></trkpt><trkpt lat="44.92391619259621" lon="7.398059043365433"><ele>298.0</ele><time>2026-04-19T12:36:00.001Z</time></trkpt><trkpt lat="44.92406738729744" lon="7.39798486647303"><ele>298.0</ele><time>2026-04-19T12:36:01.001Z</time></trkpt><trkpt lat="44.924217500775235" lon="7.397912277031618"><ele>297.66666666666663</ele><time>2026-04-19T12:36:02.001Z</time></trkpt><trkpt lat="44.9243785930936" lon="7.3978776102531745"><ele>297.3333333333333</ele><time>2026-04-19T12:36:03.001Z</time></trkpt><trkpt lat="44.924546918813945" lon="7.397815758616138"><ele>297.0</ele><time>2026-04-19T12:36:04.001Z</time></trkpt><trkpt lat="44.92471395241427" lon="7.397796569752299"><ele>297.0</ele><time>2026-04-19T12:36:05.001Z</time></trkpt><trkpt lat="44.92486484023095" lon="7.397807015298557"><ele>297.0</ele><time>2026-04-19T12:36:06.001Z</time></trkpt><trkpt lat="44.92498641191819" lon="7.397807749860042"><ele>297.0</ele><time>2026-04-19T12:36:07.001Z</time></trkpt><trkpt lat="44.925083022702665" lon="7.397815946426153"><ele>297.0</ele><time>2026-04-19T12:36:08.001Z</time></trkpt><trkpt lat="44.92516045404786" lon="7.397809751305722"><ele>297.0</ele><time>2026-04-19T12:36:09.001Z</time></trkpt><trkpt lat="44.92523099729516" lon="7.397862165035074"><ele>296.5</ele><time>2026-04-19T12:36:10.001Z</time></trkpt><trkpt lat="44.92530482794216" lon="7.397951458653419"><ele>296.0</ele><time>2026-04-19T12:36:11.001Z</time></trkpt><trkpt lat="44.925354784139195" lon="7.398130695488881"><ele>295.5</ele><time>2026-04-19T12:36:12.001Z</time></trkpt><trkpt lat="44.92546141326418" lon="7.398268578121131"><ele>295.0</ele><time>2026-04-19T12:36:13.001Z</time></trkpt><trkpt lat="44.92555893487263" lon="7.398442510418044"><ele>294.8333333333333</ele><time>2026-04-19T12:36:14.001Z</time></trkpt><trkpt lat="44.92564008077456" lon="7.398551063646149"><ele>294.66666666666663</ele><time>2026-04-19T12:36:15.001Z</time></trkpt><trkpt lat="44.92570110275416" lon="7.39858964227394"><ele>294.5</ele><time>2026-04-19T12:36:21.001Z</time></trkpt><trkpt lat="44.925767713800354" lon="7.398595283635686"><ele>294.3333333333333</ele><time>2026-04-19T12:36:25.001Z</time></trkpt><trkpt lat="44.92584187557224" lon="7.39860838804424"><ele>294.1666666666667</ele><time>2026-04-19T12:36:28.001Z</time></trkpt><trkpt lat="44.92593277042724" lon="7.39862533049304"><ele>294.0</ele><time>2026-04-19T12:36:31.001Z</time></trkpt><trkpt lat="44.926038138579486" lon="7.398621619333502"><ele>293.6666666666667</ele><time>2026-04-19T12:36:33Z</time></trkpt><trkpt lat="44.92611475673819" lon="7.398616023806899"><ele>293.3333333333333</ele><time>2026-04-19T12:36:40Z</time></trkpt><trkpt lat="44.92619593140418" lon="7.398611001952382"><ele>293.0</ele><time>2026-04-19T12:36:41Z</time></trkpt><trkpt lat="44.92627213924963" lon="7.3985900837190925"><ele>292.66666666666663</ele><time>2026-04-19T12:36:42Z</time></trkpt><trkpt lat="44.92637181991629" lon="7.398594656650708"><ele>292.3333333333333</ele><time>2026-04-19T12:36:43Z</time></trkpt><trkpt lat="44.92645701483717" lon="7.398589459273943"><ele>292.0</ele><time>2026-04-19T12:36:44Z</time></trkpt><trkpt lat="44.92652330815671" lon="7.398585409107235"><ele>292.0</ele><time>2026-04-19T12:36:45Z</time></trkpt><trkpt lat="44.92657612000787" lon="7.3986384719252305"><ele>292.0</ele><time>2026-04-19T12:36:47Z</time></trkpt><trkpt lat="44.926571550174764" lon="7.39876329194868"><ele>292.0</ele><time>2026-04-19T12:36:49Z</time></trkpt><trkpt lat="44.92656779186457" lon="7.398878769807804"><ele>292.0</ele><time>2026-04-19T12:36:51Z</time></trkpt><trkpt lat="44.92655897416261" lon="7.399042647304491"><ele>292.0</ele><time>2026-04-19T12:36:53Z</time></trkpt><trkpt lat="44.9265548316783" lon="7.399147409625428"><ele>292.0</ele><time>2026-04-19T12:36:54Z</time></trkpt><trkpt lat="44.92655273827042" lon="7.3993129755271525"><ele>292.66666666666663</ele><time>2026-04-19T12:36:55Z</time></trkpt><trkpt lat="44.92656135558352" lon="7.399528822223535"><ele>293.3333333333333</ele><time>2026-04-19T12:36:56Z</time></trkpt><trkpt lat="44.92658409552596" lon="7.399756236312045"><ele>294.0</ele><time>2026-04-19T12:36:57Z</time></trkpt><trkpt lat="44.92662806534562" lon="7.399950913858246"><ele>294.0</ele><time>2026-04-19T12:36:58Z</time></trkpt><trkpt lat="44.926691157931536" lon="7.400131666920488"><ele>294.0</ele><time>2026-04-19T12:36:59Z</time></trkpt><trkpt lat="44.926765082920454" lon="7.400306382374347"><ele>294.0</ele><time>2026-04-19T12:37:00Z</time></trkpt><trkpt lat="44.92681680809601" lon="7.400426535134043"><ele>294.0</ele><time>2026-04-19T12:37:01Z</time></trkpt><trkpt lat="44.92685172111123" lon="7.40050376152977"><ele>294.25</ele><time>2026-04-19T12:37:03Z</time></trkpt><trkpt lat="44.92700233242669" lon="7.400464795392526"><ele>294.5</ele><time>2026-04-19T12:37:06Z</time></trkpt><trkpt lat="44.92710379749356" lon="7.400430164927856"><ele>294.75</ele><time>2026-04-19T12:37:07Z</time></trkpt><trkpt lat="44.927177613287355" lon="7.400409143207785"><ele>295.0</ele><time>2026-04-19T12:37:08Z</time></trkpt><trkpt lat="44.927334543032494" lon="7.400366849477558"><ele>295.0</ele><time>2026-04-19T12:37:10Z</time></trkpt><trkpt lat="44.92747567748075" lon="7.400331375007685"><ele>295.0</ele><time>2026-04-19T12:37:11Z</time></trkpt><trkpt lat="44.927637096445906" lon="7.400287548582152"><ele>295.0</ele><time>2026-04-19T12:37:12Z</time></trkpt><trkpt lat="44.92779846022018" lon="7.400241205712367"><ele>294.75</ele><time>2026-04-19T12:37:13Z</time></trkpt><trkpt lat="44.92793069728142" lon="7.400205052455443"><ele>294.5</ele><time>2026-04-19T12:37:14Z</time></trkpt><trkpt lat="44.92805065599876" lon="7.400173170193857"><ele>294.25</ele><time>2026-04-19T12:37:15Z</time></trkpt><trkpt lat="44.928152800341095" lon="7.4001221900241045"><ele>294.0</ele><time>2026-04-19T12:37:16Z</time></trkpt><trkpt lat="44.928243509239316" lon="7.400112639861227"><ele>294.0</ele><time>2026-04-19T12:37:17Z</time></trkpt><trkpt lat="44.9283088034544" lon="7.400053952999305"><ele>294.0</ele><time>2026-04-19T12:37:18Z</time></trkpt><trkpt lat="44.92834555747736" lon="7.399972202449497"><ele>294.0</ele><time>2026-04-19T12:37:19Z</time></trkpt><trkpt lat="44.928345276592886" lon="7.399832995143395"><ele>294.0</ele><time>2026-04-19T12:37:20Z</time></trkpt><trkpt lat="44.928298524652504" lon="7.39967648640986"><ele>294.0</ele><time>2026-04-19T12:37:21Z</time></trkpt><trkpt lat="44.928318379980006" lon="7.399562021852316"><ele>294.0</ele><time>2026-04-19T12:37:22Z</time></trkpt><trkpt lat="44.928388506037976" lon="7.399425103861576"><ele>294.25</ele><time>2026-04-19T12:37:24Z</time></trkpt><trkpt lat="44.92850091155763" lon="7.399417299826444"><ele>294.5</ele><time>2026-04-19T12:37:25Z</time></trkpt><trkpt lat="44.92862360866849" lon="7.399367435278334"><ele>294.75</ele><time>2026-04-19T12:37:26Z</time></trkpt><trkpt lat="44.92878141995028" lon="7.399283663950968"><ele>295.0</ele><time>2026-04-19T12:37:27Z</time></trkpt><trkpt lat="44.928957510923816" lon="7.399210433084295"><ele>295.0</ele><time>2026-04-19T12:37:28Z</time></trkpt><trkpt lat="44.92913506582846" lon="7.399126628921403"><ele>295.0</ele><time>2026-04-19T12:37:29Z</time></trkpt><trkpt lat="44.92925474158299" lon="7.399076758251"><ele>295.0</ele><time>2026-04-19T12:37:30Z</time></trkpt><trkpt lat="44.92932534148788" lon="7.399084992308376"><ele>295.0</ele><time>2026-04-19T12:37:31Z</time></trkpt><trkpt lat="44.929401452599755" lon="7.399123648413442"><ele>295.16666666666663</ele><time>2026-04-19T12:37:33Z</time></trkpt><trkpt lat="44.92942609148588" lon="7.3992363412295825"><ele>295.3333333333333</ele><time>2026-04-19T12:37:34.001Z</time></trkpt><trkpt lat="44.929437720995324" lon="7.399383672796335"><ele>295.5</ele><time>2026-04-19T12:37:35.001Z</time></trkpt><trkpt lat="44.92947703597968" lon="7.399485363243585"><ele>295.6666666666667</ele><time>2026-04-19T12:37:36.001Z</time></trkpt><trkpt lat="44.929535013916954" lon="7.399539428214371"><ele>295.83333333333337</ele><time>2026-04-19T12:37:37.001Z</time></trkpt><trkpt lat="44.92960564880732" lon="7.399567392061865"><ele>296.0</ele><time>2026-04-19T12:37:38.001Z</time></trkpt><trkpt lat="44.92970394848696" lon="7.399500435066862"><ele>296.0</ele><time>2026-04-19T12:37:39.001Z</time></trkpt><trkpt lat="44.92980088911617" lon="7.399455674889895"><ele>296.0</ele><time>2026-04-19T12:37:40.001Z</time></trkpt><trkpt lat="44.92989267516068" lon="7.39942921780104"><ele>296.0</ele><time>2026-04-19T12:37:41.001Z</time></trkpt><trkpt lat="44.92998272518988" lon="7.399383198774728"><ele>296.0</ele><time>2026-04-19T12:37:42.001Z</time></trkpt><trkpt lat="44.930069114544054" lon="7.399339050487281"><ele>296.0</ele><time>2026-04-19T12:37:43.001Z</time></trkpt><trkpt lat="44.930131637947895" lon="7.399296507253246"><ele>296.0</ele><time>2026-04-19T12:37:44.001Z</time></trkpt><trkpt lat="44.9299571267246" lon="7.399381655559676"><ele>296.0</ele><time>2026-04-19T12:38:00.001Z</time></trkpt><trkpt lat="44.9298816649253" lon="7.399424182545427"><ele>296.0</ele><time>2026-04-19T12:38:01.001Z</time></trkpt><trkpt lat="44.92975882419839" lon="7.399473823315949"><ele>296.0</ele><time>2026-04-19T12:38:02.001Z</time></trkpt><trkpt lat="44.92966084538541" lon="7.3995038039188366"><ele>296.0</ele><time>2026-04-19T12:38:03.001Z</time></trkpt><trkpt lat="44.929582371678805" lon="7.399523450930833"><ele>296.0</ele><time>2026-04-19T12:38:04.001Z</time></trkpt><trkpt lat="44.92951450809541" lon="7.399590349988215"><ele>296.0</ele><time>2026-04-19T12:38:06.001Z</time></trkpt><trkpt lat="44.92956075498503" lon="7.399779319382367"><ele>296.0</ele><time>2026-04-19T12:38:08.001Z</time></trkpt><trkpt lat="44.92961194176471" lon="7.399953117791335"><ele>296.0</ele><time>2026-04-19T12:38:09.001Z</time></trkpt><trkpt lat="44.92966421324724" lon="7.400165564694798"><ele>296.0</ele><time>2026-04-19T12:38:10.001Z</time></trkpt><trkpt lat="44.92973133108167" lon="7.40039077613338"><ele>296.0</ele><time>2026-04-19T12:38:11.001Z</time></trkpt><trkpt lat="44.929796503396354" lon="7.400616683372265"><ele>296.0</ele><time>2026-04-19T12:38:12.001Z</time></trkpt><trkpt lat="44.92985831259928" lon="7.400847560220404"><ele>295.6666666666667</ele><time>2026-04-19T12:38:13.001Z</time></trkpt><trkpt lat="44.929917834866885" lon="7.401077372605731"><ele>295.3333333333333</ele><time>2026-04-19T12:38:14.001Z</time></trkpt><trkpt lat="44.92998361649356" lon="7.401303932809291"><ele>295.0</ele><time>2026-04-19T12:38:15.001Z</time></trkpt><trkpt lat="44.93004437932595" lon="7.401517139756271"><ele>295.0</ele><time>2026-04-19T12:38:16.001Z</time></trkpt><trkpt lat="44.93008846837199" lon="7.401745609513043"><ele>295.0</ele><time>2026-04-19T12:38:17.001Z</time></trkpt><trkpt lat="44.93014922490577" lon="7.401970005670066"><ele>295.0</ele><time>2026-04-19T12:38:18.001Z</time></trkpt><trkpt lat="44.93021330782653" lon="7.402200932986134"><ele>294.3333333333333</ele><time>2026-04-19T12:38:19.001Z</time></trkpt><trkpt lat="44.93028191495532" lon="7.402441682001398"><ele>293.6666666666667</ele><time>2026-04-19T12:38:20.001Z</time></trkpt><trkpt lat="44.930353927397135" lon="7.402694380442531"><ele>293.0</ele><time>2026-04-19T12:38:21.001Z</time></trkpt><trkpt lat="44.93042687106296" lon="7.4029503467181925"><ele>293.0</ele><time>2026-04-19T12:38:22.001Z</time></trkpt><trkpt lat="44.930498326412994" lon="7.403201090233781"><ele>293.0</ele><time>2026-04-19T12:38:23.001Z</time></trkpt><trkpt lat="44.93056405426361" lon="7.4034317362392335"><ele>293.0</ele><time>2026-04-19T12:38:24.001Z</time></trkpt><trkpt lat="44.930627442194925" lon="7.403654170505783"><ele>293.0</ele><time>2026-04-19T12:38:25.001Z</time></trkpt><trkpt lat="44.93068506903017" lon="7.403826383654904"><ele>293.0</ele><time>2026-04-19T12:38:26.001Z</time></trkpt><trkpt lat="44.93071585111935" lon="7.40394379768888"><ele>293.0</ele><time>2026-04-19T12:38:27.001Z</time></trkpt><trkpt lat="44.93073656851432" lon="7.404031888344527"><ele>293.0</ele><time>2026-04-19T12:38:28.001Z</time></trkpt><trkpt lat="44.93070597667093" lon="7.404115609686551"><ele>293.0</ele><time>2026-04-19T12:38:30.001Z</time></trkpt><trkpt lat="44.930524455969106" lon="7.404128364307993"><ele>292.8</ele><time>2026-04-19T12:38:31.001Z</time></trkpt><trkpt lat="44.93048924228898" lon="7.404243422408007"><ele>292.6</ele><time>2026-04-19T12:38:32.001Z</time></trkpt><trkpt lat="44.930445060267" lon="7.404327132322914"><ele>292.4</ele><time>2026-04-19T12:38:33.001Z</time></trkpt><trkpt lat="44.93043140249201" lon="7.4044324098445005"><ele>292.2</ele><time>2026-04-19T12:38:34.001Z</time></trkpt><trkpt lat="44.93048733311215" lon="7.404593872363048"><ele>292.0</ele><time>2026-04-19T12:38:35.001Z</time></trkpt><trkpt lat="44.93051624564189" lon="7.404783951268531"><ele>292.0</ele><time>2026-04-19T12:38:36.001Z</time></trkpt><trkpt lat="44.93055334309948" lon="7.405022410140249"><ele>292.0</ele><time>2026-04-19T12:38:37.001Z</time></trkpt><trkpt lat="44.93058652699006" lon="7.405282825724342"><ele>292.0</ele><time>2026-04-19T12:38:38Z</time></trkpt><trkpt lat="44.93062283938888" lon="7.405567792680671"><ele>291.0</ele><time>2026-04-19T12:38:38.999Z</time></trkpt><trkpt lat="44.93066150220775" lon="7.4058712049614694"><ele>290.0</ele><time>2026-04-19T12:38:40Z</time></trkpt><trkpt lat="44.93070084850628" lon="7.4061769281080805"><ele>289.0</ele><time>2026-04-19T12:38:41Z</time></trkpt><trkpt lat="44.93073464719558" lon="7.406420213644686"><ele>288.66666666666663</ele><time>2026-04-19T12:38:42Z</time></trkpt><trkpt lat="44.93076556816633" lon="7.40660341520294"><ele>288.3333333333333</ele><time>2026-04-19T12:38:43Z</time></trkpt><trkpt lat="44.93083019168783" lon="7.406780525053667"><ele>288.0</ele><time>2026-04-19T12:38:44Z</time></trkpt><trkpt lat="44.93090994628748" lon="7.4070053819085695"><ele>288.3333333333333</ele><time>2026-04-19T12:38:45Z</time></trkpt><trkpt lat="44.93099373667136" lon="7.40721286368648"><ele>288.66666666666663</ele><time>2026-04-19T12:38:46Z</time></trkpt><trkpt lat="44.93107272467571" lon="7.40745122044669"><ele>289.0</ele><time>2026-04-19T12:38:47Z</time></trkpt><trkpt lat="44.93113552357692" lon="7.40760405886925"><ele>289.0</ele><time>2026-04-19T12:38:48Z</time></trkpt><trkpt lat="44.931177949946246" lon="7.407713283431919"><ele>289.0</ele><time>2026-04-19T12:38:49Z</time></trkpt><trkpt lat="44.931221938040075" lon="7.407848577684345"><ele>289.0</ele><time>2026-04-19T12:38:50Z</time></trkpt><trkpt lat="44.93127323593035" lon="7.408023809120786"><ele>289.0</ele><time>2026-04-19T12:38:51Z</time></trkpt><trkpt lat="44.93132448206658" lon="7.408214675131665"><ele>289.0</ele><time>2026-04-19T12:38:52Z</time></trkpt><trkpt lat="44.931378279122455" lon="7.408414743557186"><ele>289.0</ele><time>2026-04-19T12:38:53Z</time></trkpt><trkpt lat="44.931434121230375" lon="7.408629513246566"><ele>289.0</ele><time>2026-04-19T12:38:54Z</time></trkpt><trkpt lat="44.93149036164944" lon="7.408846041199936"><ele>288.3333333333333</ele><time>2026-04-19T12:38:55Z</time></trkpt><trkpt lat="44.93155311877567" lon="7.409041655153815"><ele>287.6666666666667</ele><time>2026-04-19T12:38:56Z</time></trkpt><trkpt lat="44.93159714828548" lon="7.409250323168893"><ele>287.0</ele><time>2026-04-19T12:38:57Z</time></trkpt><trkpt lat="44.93165182778153" lon="7.409458050152857"><ele>287.0</ele><time>2026-04-19T12:38:58Z</time></trkpt><trkpt lat="44.93170070841391" lon="7.409646937558335"><ele>287.0</ele><time>2026-04-19T12:38:59Z</time></trkpt><trkpt lat="44.93170056352872" lon="7.409839403539645"><ele>287.0</ele><time>2026-04-19T12:39:00Z</time></trkpt><trkpt lat="44.93171976782442" lon="7.410049364837564"><ele>287.0</ele><time>2026-04-19T12:39:01Z</time></trkpt><trkpt lat="44.931753496011154" lon="7.410285562360106"><ele>287.0</ele><time>2026-04-19T12:39:02Z</time></trkpt><trkpt lat="44.9317985827104" lon="7.410541159818693"><ele>287.0</ele><time>2026-04-19T12:39:03Z</time></trkpt><trkpt lat="44.93184170757346" lon="7.410791276547321"><ele>287.0</ele><time>2026-04-19T12:39:04Z</time></trkpt><trkpt lat="44.93188388283884" lon="7.411054231907927"><ele>287.0</ele><time>2026-04-19T12:39:05Z</time></trkpt><trkpt lat="44.93192613346259" lon="7.411294515841002"><ele>287.0</ele><time>2026-04-19T12:39:06Z</time></trkpt><trkpt lat="44.931974729450225" lon="7.411542232977457"><ele>287.0</ele><time>2026-04-19T12:39:07Z</time></trkpt><trkpt lat="44.93202813491067" lon="7.411796692888688"><ele>287.0</ele><time>2026-04-19T12:39:08Z</time></trkpt><trkpt lat="44.93207572939852" lon="7.412002864719401"><ele>287.0</ele><time>2026-04-19T12:39:09Z</time></trkpt><trkpt lat="44.93211273812387" lon="7.41217752954188"><ele>287.0</ele><time>2026-04-19T12:39:10Z</time></trkpt><trkpt lat="44.93212493219812" lon="7.412310802225727"><ele>287.0</ele><time>2026-04-19T12:39:11Z</time></trkpt><trkpt lat="44.93210617767298" lon="7.412404058787429"><ele>287.0</ele><time>2026-04-19T12:39:12Z</time></trkpt><trkpt lat="44.93206096615201" lon="7.412500040267536"><ele>287.0</ele><time>2026-04-19T12:39:13Z</time></trkpt><trkpt lat="44.93197855158362" lon="7.412651993624467"><ele>287.0</ele><time>2026-04-19T12:39:14Z</time></trkpt><trkpt lat="44.93187311384519" lon="7.412848223349928"><ele>287.0</ele><time>2026-04-19T12:39:15Z</time></trkpt><trkpt lat="44.93178798999368" lon="7.41304717446424"><ele>287.0</ele><time>2026-04-19T12:39:16Z</time></trkpt><trkpt lat="44.93173882978793" lon="7.413224912589973"><ele>287.0</ele><time>2026-04-19T12:39:17Z</time></trkpt><trkpt lat="44.93171929068551" lon="7.413455308290091"><ele>287.0</ele><time>2026-04-19T12:39:18Z</time></trkpt><trkpt lat="44.93169654659046" lon="7.413715093167428"><ele>287.0</ele><time>2026-04-19T12:39:19Z</time></trkpt><trkpt lat="44.93169481009851" lon="7.413963675787511"><ele>287.0</ele><time>2026-04-19T12:39:20Z</time></trkpt><trkpt lat="44.93168404360957" lon="7.414168857308591"><ele>287.0</ele><time>2026-04-19T12:39:21Z</time></trkpt><trkpt lat="44.931686329246325" lon="7.414316937380687"><ele>287.0</ele><time>2026-04-19T12:39:22Z</time></trkpt><trkpt lat="44.93168932093364" lon="7.414409115204106"><ele>287.0</ele><time>2026-04-19T12:39:23Z</time></trkpt><trkpt lat="44.93169378219905" lon="7.414514784144297"><ele>287.0</ele><time>2026-04-19T12:39:24Z</time></trkpt><trkpt lat="44.931688860645735" lon="7.414661557086539"><ele>287.0</ele><time>2026-04-19T12:39:26Z</time></trkpt><trkpt lat="44.93160893857002" lon="7.414673496834018"><ele>287.0</ele><time>2026-04-19T12:39:27Z</time></trkpt><trkpt lat="44.93152397768273" lon="7.414721000115991"><ele>287.0</ele><time>2026-04-19T12:39:28Z</time></trkpt><trkpt lat="44.93139732064009" lon="7.414783268897316"><ele>287.33333333333337</ele><time>2026-04-19T12:39:29Z</time></trkpt><trkpt lat="44.93123957017255" lon="7.4148560144852"><ele>287.6666666666667</ele><time>2026-04-19T12:39:30Z</time></trkpt><trkpt lat="44.93106866918384" lon="7.4149333217588005"><ele>288.0</ele><time>2026-04-19T12:39:31Z</time></trkpt><trkpt lat="44.9309004708162" lon="7.415018524486877"><ele>287.3333333333333</ele><time>2026-04-19T12:39:32Z</time></trkpt><trkpt lat="44.930699853699004" lon="7.415091644871385"><ele>286.66666666666663</ele><time>2026-04-19T12:39:33Z</time></trkpt><trkpt lat="44.93048645684763" lon="7.4151309381896375"><ele>286.0</ele><time>2026-04-19T12:39:34Z</time></trkpt><trkpt lat="44.930268860329775" lon="7.415189828884228"><ele>286.0</ele><time>2026-04-19T12:39:35Z</time></trkpt><trkpt lat="44.93008184458868" lon="7.4152599759832185"><ele>286.0</ele><time>2026-04-19T12:39:36Z</time></trkpt><trkpt lat="44.929900168361684" lon="7.415301561307888"><ele>286.0</ele><time>2026-04-19T12:39:37Z</time></trkpt><trkpt lat="44.929742479658344" lon="7.4153402019638825"><ele>286.0</ele><time>2026-04-19T12:39:38Z</time></trkpt><trkpt lat="44.92957391327811" lon="7.415389030498605"><ele>286.0</ele><time>2026-04-19T12:39:39Z</time></trkpt><trkpt lat="44.92943027829262" lon="7.415450366745831"><ele>286.0</ele><time>2026-04-19T12:39:40Z</time></trkpt><trkpt lat="44.92929907619811" lon="7.415537749255867"><ele>285.66666666666663</ele><time>2026-04-19T12:39:41Z</time></trkpt><trkpt lat="44.929161852675975" lon="7.4156717147395215"><ele>285.3333333333333</ele><time>2026-04-19T12:39:42Z</time></trkpt><trkpt lat="44.92899251604487" lon="7.4157783702248645"><ele>285.0</ele><time>2026-04-19T12:39:43Z</time></trkpt><trkpt lat="44.92881724633185" lon="7.415889300596274"><ele>285.0</ele><time>2026-04-19T12:39:44Z</time></trkpt><trkpt lat="44.928645562377355" lon="7.415994003972936"><ele>285.0</ele><time>2026-04-19T12:39:45Z</time></trkpt><trkpt lat="44.928478648937435" lon="7.416083561367572"><ele>285.0</ele><time>2026-04-19T12:39:46Z</time></trkpt><trkpt lat="44.92832749666945" lon="7.416163621976031"><ele>285.0</ele><time>2026-04-19T12:39:47Z</time></trkpt><trkpt lat="44.92819460283943" lon="7.4162462381754795"><ele>285.0</ele><time>2026-04-19T12:39:48Z</time></trkpt><trkpt lat="44.928111914306214" lon="7.416361937143231"><ele>285.0</ele><time>2026-04-19T12:39:49Z</time></trkpt><trkpt lat="44.928047721259084" lon="7.416481209547043"><ele>285.0</ele><time>2026-04-19T12:39:50Z</time></trkpt><trkpt lat="44.92799436185098" lon="7.416643034005265"><ele>285.0</ele><time>2026-04-19T12:39:51Z</time></trkpt><trkpt lat="44.92794237982378" lon="7.416861514437923"><ele>285.0</ele><time>2026-04-19T12:39:52.001Z</time></trkpt><trkpt lat="44.92787092615194" lon="7.417098151884529"><ele>285.0</ele><time>2026-04-19T12:39:53.001Z</time></trkpt><trkpt lat="44.92780865449254" lon="7.417347875089557"><ele>285.0</ele><time>2026-04-19T12:39:54.001Z</time></trkpt><trkpt lat="44.927746920483486" lon="7.417580373002094"><ele>285.0</ele><time>2026-04-19T12:39:55.001Z</time></trkpt><trkpt lat="44.92768541515981" lon="7.4177516266338035"><ele>285.0</ele><time>2026-04-19T12:39:56.001Z</time></trkpt><trkpt lat="44.92760137269347" lon="7.41787269278328"><ele>285.0</ele><time>2026-04-19T12:39:57.001Z</time></trkpt><trkpt lat="44.927497992909046" lon="7.417998153834518"><ele>285.0</ele><time>2026-04-19T12:39:58.001Z</time></trkpt><trkpt lat="44.927415192418295" lon="7.4181538350959295"><ele>285.0</ele><time>2026-04-19T12:39:59.001Z</time></trkpt><trkpt lat="44.92737485687664" lon="7.418349689838066"><ele>285.0</ele><time>2026-04-19T12:40:00.001Z</time></trkpt><trkpt lat="44.92733797586104" lon="7.418562271167623"><ele>285.0</ele><time>2026-04-19T12:40:01.001Z</time></trkpt><trkpt lat="44.92728477129457" lon="7.418812173913713"><ele>284.6666666666667</ele><time>2026-04-19T12:40:02.001Z</time></trkpt><trkpt lat="44.927243397037756" lon="7.419074705643586"><ele>284.33333333333337</ele><time>2026-04-19T12:40:03.001Z</time></trkpt><trkpt lat="44.927201317215705" lon="7.419343820728647"><ele>284.0</ele><time>2026-04-19T12:40:04.001Z</time></trkpt><trkpt lat="44.92716628749112" lon="7.419575912400182"><ele>283.6666666666667</ele><time>2026-04-19T12:40:05.001Z</time></trkpt><trkpt lat="44.92712973119889" lon="7.419818118765573"><ele>283.3333333333333</ele><time>2026-04-19T12:40:06.001Z</time></trkpt><trkpt lat="44.92709477707644" lon="7.420049709561367"><ele>283.0</ele><time>2026-04-19T12:40:07.001Z</time></trkpt><trkpt lat="44.927063443322815" lon="7.420271188181754"><ele>283.25</ele><time>2026-04-19T12:40:08.001Z</time></trkpt><trkpt lat="44.92704915973021" lon="7.4204866696859035"><ele>283.5</ele><time>2026-04-19T12:40:09.001Z</time></trkpt><trkpt lat="44.92707412040932" lon="7.420688158335121"><ele>283.75</ele><time>2026-04-19T12:40:10.001Z</time></trkpt><trkpt lat="44.92708647672932" lon="7.420872506160391"><ele>284.0</ele><time>2026-04-19T12:40:11.001Z</time></trkpt><trkpt lat="44.92709761922071" lon="7.421025819951999"><ele>284.0</ele><time>2026-04-19T12:40:12.001Z</time></trkpt><trkpt lat="44.92708128193654" lon="7.421129767370965"><ele>284.0</ele><time>2026-04-19T12:40:13.001Z</time></trkpt><trkpt lat="44.927073674940544" lon="7.421243651774627"><ele>284.0</ele><time>2026-04-19T12:40:15.001Z</time></trkpt><trkpt lat="44.9271985310528" lon="7.421332482128536"><ele>284.0</ele><time>2026-04-19T12:40:17.001Z</time></trkpt><trkpt lat="44.9272965130066" lon="7.421343049106135"><ele>284.0</ele><time>2026-04-19T12:40:18.001Z</time></trkpt><trkpt lat="44.92741425514188" lon="7.421349681461542"><ele>283.75</ele><time>2026-04-19T12:40:19.001Z</time></trkpt><trkpt lat="44.92754169194716" lon="7.421358405408296"><ele>283.5</ele><time>2026-04-19T12:40:20.001Z</time></trkpt><trkpt lat="44.92767396407913" lon="7.421381444181423"><ele>283.25</ele><time>2026-04-19T12:40:21.001Z</time></trkpt><trkpt lat="44.927820064402226" lon="7.421416400043975"><ele>283.0</ele><time>2026-04-19T12:40:22.001Z</time></trkpt><trkpt lat="44.92797511181182" lon="7.421450121914748"><ele>283.0</ele><time>2026-04-19T12:40:23.001Z</time></trkpt><trkpt lat="44.9281400813956" lon="7.42147939616896"><ele>283.0</ele><time>2026-04-19T12:40:24.001Z</time></trkpt><trkpt lat="44.92830577578786" lon="7.421513087790449"><ele>283.0</ele><time>2026-04-19T12:40:25.001Z</time></trkpt><trkpt lat="44.92848481091516" lon="7.4215499300042955"><ele>283.0</ele><time>2026-04-19T12:40:26.001Z</time></trkpt><trkpt lat="44.92866511567558" lon="7.421582637897729"><ele>283.0</ele><time>2026-04-19T12:40:27.001Z</time></trkpt><trkpt lat="44.92885398609649" lon="7.421612674553445"><ele>283.0</ele><time>2026-04-19T12:40:28.001Z</time></trkpt><trkpt lat="44.92905051899587" lon="7.421653261305912"><ele>282.66666666666663</ele><time>2026-04-19T12:40:29.001Z</time></trkpt><trkpt lat="44.92923586731314" lon="7.421683345617233"><ele>282.3333333333333</ele><time>2026-04-19T12:40:30.001Z</time></trkpt><trkpt lat="44.92941705620646" lon="7.421738387178039"><ele>282.0</ele><time>2026-04-19T12:40:31.001Z</time></trkpt><trkpt lat="44.92959223294932" lon="7.421774029016206"><ele>282.0</ele><time>2026-04-19T12:40:32.001Z</time></trkpt><trkpt lat="44.92976685487788" lon="7.42180934665605"><ele>282.0</ele><time>2026-04-19T12:40:33.001Z</time></trkpt><trkpt lat="44.92993339549861" lon="7.421841693379135"><ele>282.0</ele><time>2026-04-19T12:40:34.001Z</time></trkpt><trkpt lat="44.93010392778166" lon="7.421874815394143"><ele>282.6666666666667</ele><time>2026-04-19T12:40:35.001Z</time></trkpt><trkpt lat="44.93026600114932" lon="7.421906294459204"><ele>283.33333333333337</ele><time>2026-04-19T12:40:36.001Z</time></trkpt><trkpt lat="44.93042366153996" lon="7.421936916404588"><ele>284.0</ele><time>2026-04-19T12:40:37.001Z</time></trkpt><trkpt lat="44.93058465170297" lon="7.421944531457718"><ele>284.0</ele><time>2026-04-19T12:40:38.001Z</time></trkpt><trkpt lat="44.9307289322358" lon="7.4219838753838365"><ele>284.0</ele><time>2026-04-19T12:40:39.001Z</time></trkpt><trkpt lat="44.930867538726574" lon="7.422017686586941"><ele>284.0</ele><time>2026-04-19T12:40:40.001Z</time></trkpt><trkpt lat="44.93099207241495" lon="7.422040004098989"><ele>284.0</ele><time>2026-04-19T12:40:41.001Z</time></trkpt><trkpt lat="44.93108886749105" lon="7.422049900807049"><ele>284.0</ele><time>2026-04-19T12:40:42.001Z</time></trkpt><trkpt lat="44.93116080222031" lon="7.4220451244040655"><ele>284.0</ele><time>2026-04-19T12:40:43.001Z</time></trkpt><trkpt lat="44.93124228176689" lon="7.422069869528311"><ele>284.0</ele><time>2026-04-19T12:40:45Z</time></trkpt><trkpt lat="44.931217217244395" lon="7.42230359314544"><ele>284.0</ele><time>2026-04-19T12:40:48Z</time></trkpt><trkpt lat="44.931235852524686" lon="7.422458802958182"><ele>284.0</ele><time>2026-04-19T12:40:49Z</time></trkpt><trkpt lat="44.931245371617855" lon="7.422658431414871"><ele>283.33333333333337</ele><time>2026-04-19T12:40:50Z</time></trkpt><trkpt lat="44.93126467290011" lon="7.422872724721682"><ele>282.6666666666667</ele><time>2026-04-19T12:40:51Z</time></trkpt><trkpt lat="44.93128668449572" lon="7.423122151985387"><ele>282.0</ele><time>2026-04-19T12:40:52Z</time></trkpt><trkpt lat="44.931309207789944" lon="7.4233816781631425"><ele>282.0</ele><time>2026-04-19T12:40:53Z</time></trkpt><trkpt lat="44.93131770655386" lon="7.423673111531664"><ele>282.0</ele><time>2026-04-19T12:40:54Z</time></trkpt><trkpt lat="44.9313548661131" lon="7.423963216868644"><ele>282.0</ele><time>2026-04-19T12:40:55Z</time></trkpt><trkpt lat="44.931375241093896" lon="7.424261564111198"><ele>282.3333333333333</ele><time>2026-04-19T12:40:56Z</time></trkpt><trkpt lat="44.931397257806665" lon="7.424572319668583"><ele>282.66666666666663</ele><time>2026-04-19T12:40:57Z</time></trkpt><trkpt lat="44.93142030034857" lon="7.4248496646832205"><ele>283.0</ele><time>2026-04-19T12:40:58Z</time></trkpt><trkpt lat="44.93144429068496" lon="7.425113395315075"><ele>283.0</ele><time>2026-04-19T12:40:59Z</time></trkpt><trkpt lat="44.93146595039582" lon="7.425377388960226"><ele>283.0</ele><time>2026-04-19T12:41:00Z</time></trkpt><trkpt lat="44.931486073784306" lon="7.425625082413076"><ele>283.0</ele><time>2026-04-19T12:41:01Z</time></trkpt><trkpt lat="44.93151378901812" lon="7.425846051267373"><ele>282.66666666666663</ele><time>2026-04-19T12:41:02Z</time></trkpt><trkpt lat="44.93155176132909" lon="7.426070772902226"><ele>282.3333333333333</ele><time>2026-04-19T12:41:03Z</time></trkpt><trkpt lat="44.93159766167156" lon="7.4262972861359655"><ele>282.0</ele><time>2026-04-19T12:41:04Z</time></trkpt><trkpt lat="44.931640353270645" lon="7.426517955410381"><ele>281.75</ele><time>2026-04-19T12:41:05Z</time></trkpt><trkpt lat="44.931684522322634" lon="7.426716014024001"><ele>281.5</ele><time>2026-04-19T12:41:06Z</time></trkpt><trkpt lat="44.9317348954057" lon="7.426899563305898"><ele>281.25</ele><time>2026-04-19T12:41:07Z</time></trkpt><trkpt lat="44.93179039661421" lon="7.427073743910662"><ele>281.0</ele><time>2026-04-19T12:41:08Z</time></trkpt><trkpt lat="44.931861608550264" lon="7.427232569433764"><ele>280.40000000000003</ele><time>2026-04-19T12:41:09Z</time></trkpt><trkpt lat="44.93192430888953" lon="7.427378760776887"><ele>279.8</ele><time>2026-04-19T12:41:10Z</time></trkpt><trkpt lat="44.931974060685" lon="7.4274880919876365"><ele>279.20000000000005</ele><time>2026-04-19T12:41:11Z</time></trkpt><trkpt lat="44.932020271675405" lon="7.427596448894503"><ele>278.6</ele><time>2026-04-19T12:41:12Z</time></trkpt><trkpt lat="44.93206390241698" lon="7.427693351126847"><ele>278.0</ele><time>2026-04-19T12:41:13Z</time></trkpt><trkpt lat="44.932095274958215" lon="7.4278059591844"><ele>278.0</ele><time>2026-04-19T12:41:14Z</time></trkpt><trkpt lat="44.93216487099268" lon="7.427885886476519"><ele>278.0</ele><time>2026-04-19T12:41:15Z</time></trkpt><trkpt lat="44.93227045782331" lon="7.427855266721468"><ele>278.0</ele><time>2026-04-19T12:41:16Z</time></trkpt><trkpt lat="44.932355731443295" lon="7.427825682839335"><ele>278.0</ele><time>2026-04-19T12:41:17Z</time></trkpt><trkpt lat="44.93232624056187" lon="7.4276320622364445"><ele>278.0</ele><time>2026-04-19T12:41:18Z</time></trkpt><trkpt lat="44.932409757350165" lon="7.427502929684263"><ele>278.0</ele><time>2026-04-19T12:41:19Z</time></trkpt><trkpt lat="44.93249570436658" lon="7.427384270568995"><ele>278.0</ele><time>2026-04-19T12:41:20Z</time></trkpt><trkpt lat="44.9325669739227" lon="7.427285875609199"><ele>278.0</ele><time>2026-04-19T12:41:21Z</time></trkpt><trkpt lat="44.932645590435335" lon="7.427215078390069"><ele>278.0</ele><time>2026-04-19T12:41:23Z</time></trkpt><trkpt lat="44.93300477702761" lon="7.4276749990410655"><ele>278.0</ele><time>2026-04-19T12:41:24Z</time></trkpt><trkpt lat="44.93307190667945" lon="7.42777583471228"><ele>278.0</ele><time>2026-04-19T12:41:25Z</time></trkpt><trkpt lat="44.933143876011265" lon="7.427922826435849"><ele>278.0</ele><time>2026-04-19T12:41:26Z</time></trkpt><trkpt lat="44.93322447588618" lon="7.428073856089542"><ele>278.0</ele><time>2026-04-19T12:41:27Z</time></trkpt><trkpt lat="44.93332002796817" lon="7.428236033690396"><ele>278.0</ele><time>2026-04-19T12:41:28Z</time></trkpt><trkpt lat="44.933412121752916" lon="7.4284129506127625"><ele>278.0</ele><time>2026-04-19T12:41:29Z</time></trkpt><trkpt lat="44.93350709428332" lon="7.428567841769291"><ele>278.0</ele><time>2026-04-19T12:41:30Z</time></trkpt><trkpt lat="44.93359105255006" lon="7.428690765307415"><ele>278.0</ele><time>2026-04-19T12:41:31Z</time></trkpt><trkpt lat="44.93365674991834" lon="7.4287860248743485"><ele>278.0</ele><time>2026-04-19T12:41:32Z</time></trkpt><trkpt lat="44.93370893366799" lon="7.428836659164311"><ele>278.0</ele><time>2026-04-19T12:41:33Z</time></trkpt><trkpt lat="44.93381093595553" lon="7.428811052781364"><ele>278.0</ele><time>2026-04-19T12:41:35Z</time></trkpt><trkpt lat="44.933887109357876" lon="7.42873760224677"><ele>278.0</ele><time>2026-04-19T12:41:36Z</time></trkpt><trkpt lat="44.93399317990162" lon="7.428632149500842"><ele>278.0</ele><time>2026-04-19T12:41:37Z</time></trkpt><trkpt lat="44.93411075925048" lon="7.428527829600395"><ele>278.0</ele><time>2026-04-19T12:41:38Z</time></trkpt><trkpt lat="44.93424878362611" lon="7.428430485369245"><ele>278.0</ele><time>2026-04-19T12:41:39Z</time></trkpt><trkpt lat="44.93439373608339" lon="7.428335027683329"><ele>278.0</ele><time>2026-04-19T12:41:40Z</time></trkpt><trkpt lat="44.93452101411334" lon="7.428245060591836"><ele>278.0</ele><time>2026-04-19T12:41:41Z</time></trkpt><trkpt lat="44.93466097200392" lon="7.428150939097682"><ele>278.0</ele><time>2026-04-19T12:41:42Z</time></trkpt><trkpt lat="44.93479690366647" lon="7.428060129761481"><ele>278.0</ele><time>2026-04-19T12:41:43Z</time></trkpt><trkpt lat="44.934923573835505" lon="7.427978785752562"><ele>278.0</ele><time>2026-04-19T12:41:44Z</time></trkpt><trkpt lat="44.93503773726426" lon="7.427904024570319"><ele>278.0</ele><time>2026-04-19T12:41:45Z</time></trkpt><trkpt lat="44.935141633066266" lon="7.427834596433082"><ele>278.0</ele><time>2026-04-19T12:41:46Z</time></trkpt><trkpt lat="44.935228755892176" lon="7.427773377676558"><ele>278.0</ele><time>2026-04-19T12:41:47Z</time></trkpt><trkpt lat="44.93531273982127" lon="7.427733478342252"><ele>278.0</ele><time>2026-04-19T12:41:48Z</time></trkpt><trkpt lat="44.93540640463284" lon="7.427809388483553"><ele>278.0</ele><time>2026-04-19T12:41:50Z</time></trkpt><trkpt lat="44.93547304675945" lon="7.427859401067747"><ele>278.0</ele><time>2026-04-19T12:41:51Z</time></trkpt><trkpt lat="44.93555768338878" lon="7.427851271786492"><ele>278.0</ele><time>2026-04-19T12:41:52Z</time></trkpt><trkpt lat="44.93567121863348" lon="7.427790792444654"><ele>278.0</ele><time>2026-04-19T12:41:53.001Z</time></trkpt><trkpt lat="44.9358061575812" lon="7.4277322169619735"><ele>278.0</ele><time>2026-04-19T12:41:54.001Z</time></trkpt><trkpt lat="44.935944804154694" lon="7.427690107611749"><ele>278.25</ele><time>2026-04-19T12:41:55.001Z</time></trkpt><trkpt lat="44.936090242665216" lon="7.427648830663983"><ele>278.5</ele><time>2026-04-19T12:41:56.001Z</time></trkpt><trkpt lat="44.936234047293944" lon="7.427606288967091"><ele>278.75</ele><time>2026-04-19T12:41:57.001Z</time></trkpt><trkpt lat="44.93637887116719" lon="7.42755626356831"><ele>279.0</ele><time>2026-04-19T12:41:58.001Z</time></trkpt><trkpt lat="44.936526704047964" lon="7.427509778255461"><ele>279.0</ele><time>2026-04-19T12:41:59.001Z</time></trkpt><trkpt lat="44.93666206415664" lon="7.427476734898718"><ele>279.0</ele><time>2026-04-19T12:42:00.001Z</time></trkpt><trkpt lat="44.93680681188253" lon="7.42746462025993"><ele>279.0</ele><time>2026-04-19T12:42:01.001Z</time></trkpt><trkpt lat="44.93694467212863" lon="7.4274098370733475"><ele>279.0</ele><time>2026-04-19T12:42:02.001Z</time></trkpt><trkpt lat="44.93708849772556" lon="7.427366061711228"><ele>279.0</ele><time>2026-04-19T12:42:03.001Z</time></trkpt><trkpt lat="44.937244333339734" lon="7.427328529322291"><ele>279.0</ele><time>2026-04-19T12:42:04.001Z</time></trkpt><trkpt lat="44.937392105599564" lon="7.42727197888731"><ele>279.0</ele><time>2026-04-19T12:42:05.001Z</time></trkpt><trkpt lat="44.93754736953003" lon="7.42728166618669"><ele>278.75</ele><time>2026-04-19T12:42:06.001Z</time></trkpt><trkpt lat="44.93768987621028" lon="7.427256699380758"><ele>278.5</ele><time>2026-04-19T12:42:07.001Z</time></trkpt><trkpt lat="44.93781396039739" lon="7.427223229484023"><ele>278.25</ele><time>2026-04-19T12:42:08.001Z</time></trkpt><trkpt lat="44.93791022258268" lon="7.42714395598229"><ele>278.0</ele><time>2026-04-19T12:42:09.001Z</time></trkpt><trkpt lat="44.93798856421093" lon="7.4270856380023575"><ele>278.0</ele><time>2026-04-19T12:42:10.001Z</time></trkpt><trkpt lat="44.93805660436995" lon="7.4270551780015355"><ele>278.0</ele><time>2026-04-19T12:42:11.001Z</time></trkpt><trkpt lat="44.93812118168412" lon="7.427061255641158"><ele>278.0</ele><time>2026-04-19T12:42:12.001Z</time></trkpt><trkpt lat="44.938188592687666" lon="7.427159691279407"><ele>278.0</ele><time>2026-04-19T12:42:13.001Z</time></trkpt><trkpt lat="44.9382914225496" lon="7.427222098755935"><ele>278.0</ele><time>2026-04-19T12:42:14.001Z</time></trkpt><trkpt lat="44.93841710677248" lon="7.427220535772123"><ele>277.75</ele><time>2026-04-19T12:42:15.001Z</time></trkpt><trkpt lat="44.938548131973704" lon="7.427200616587585"><ele>277.5</ele><time>2026-04-19T12:42:16.001Z</time></trkpt><trkpt lat="44.93868505611163" lon="7.427162682194079"><ele>277.25</ele><time>2026-04-19T12:42:17.001Z</time></trkpt><trkpt lat="44.938826446602185" lon="7.427140804496612"><ele>277.0</ele><time>2026-04-19T12:42:18.001Z</time></trkpt><trkpt lat="44.9389453536511" lon="7.427142512042799"><ele>277.0</ele><time>2026-04-19T12:42:19.001Z</time></trkpt><trkpt lat="44.93903574981846" lon="7.427124840144288"><ele>277.0</ele><time>2026-04-19T12:42:20.001Z</time></trkpt><trkpt lat="44.93910561288619" lon="7.427158408755704"><ele>277.0</ele><time>2026-04-19T12:42:21.001Z</time></trkpt><trkpt lat="44.93915377981494" lon="7.4272368103041435"><ele>277.0</ele><time>2026-04-19T12:42:22.001Z</time></trkpt><trkpt lat="44.93919857821707" lon="7.427342759961019"><ele>277.0</ele><time>2026-04-19T12:42:23.001Z</time></trkpt><trkpt lat="44.939205870559675" lon="7.427533130633176"><ele>277.0</ele><time>2026-04-19T12:42:24.001Z</time></trkpt><trkpt lat="44.93925578292728" lon="7.427703004442935"><ele>277.0</ele><time>2026-04-19T12:42:25.001Z</time></trkpt><trkpt lat="44.939315189048635" lon="7.42788791658122"><ele>277.0</ele><time>2026-04-19T12:42:26.001Z</time></trkpt><trkpt lat="44.939394228985904" lon="7.428060586217574"><ele>277.0</ele><time>2026-04-19T12:42:27.001Z</time></trkpt><trkpt lat="44.939476889456685" lon="7.428246504106531"><ele>277.0</ele><time>2026-04-19T12:42:28.001Z</time></trkpt><trkpt lat="44.939558785626346" lon="7.428439366043331"><ele>277.0</ele><time>2026-04-19T12:42:29.001Z</time></trkpt><trkpt lat="44.93963360114386" lon="7.428612476394563"><ele>277.0</ele><time>2026-04-19T12:42:30.001Z</time></trkpt><trkpt lat="44.93969715352407" lon="7.428752099717414"><ele>277.0</ele><time>2026-04-19T12:42:31.001Z</time></trkpt><trkpt lat="44.93974934693432" lon="7.428866608371551"><ele>276.6</ele><time>2026-04-19T12:42:32.001Z</time></trkpt><trkpt lat="44.939786688159465" lon="7.428967856134249"><ele>276.2</ele><time>2026-04-19T12:42:33.001Z</time></trkpt><trkpt lat="44.939816513944585" lon="7.429063290728161"><ele>275.8</ele><time>2026-04-19T12:42:34.001Z</time></trkpt><trkpt lat="44.939850121892334" lon="7.429141399237674"><ele>275.4</ele><time>2026-04-19T12:42:35.001Z</time></trkpt><trkpt lat="44.939883613114496" lon="7.429255979807202"><ele>275.0</ele><time>2026-04-19T12:42:37.001Z</time></trkpt><trkpt lat="44.94005097258151" lon="7.429148935498498"><ele>275.0</ele><time>2026-04-19T12:42:38.001Z</time></trkpt><trkpt lat="44.940156227699426" lon="7.429088638778112"><ele>275.0</ele><time>2026-04-19T12:42:39.001Z</time></trkpt><trkpt lat="44.94028322176498" lon="7.429063941280394"><ele>275.0</ele><time>2026-04-19T12:42:40.001Z</time></trkpt><trkpt lat="44.9404121369849" lon="7.429004545043002"><ele>275.0</ele><time>2026-04-19T12:42:41.001Z</time></trkpt><trkpt lat="44.94054887428769" lon="7.4289519239274835"><ele>275.0</ele><time>2026-04-19T12:42:42.001Z</time></trkpt><trkpt lat="44.94068676806953" lon="7.428911192963174"><ele>275.0</ele><time>2026-04-19T12:42:43.001Z</time></trkpt><trkpt lat="44.940835040834784" lon="7.428904663620295"><ele>275.0</ele><time>2026-04-19T12:42:44.001Z</time></trkpt><trkpt lat="44.94099350059265" lon="7.428869407244783"><ele>275.33333333333337</ele><time>2026-04-19T12:42:45.001Z</time></trkpt><trkpt lat="44.94115136628679" lon="7.428872634088515"><ele>275.6666666666667</ele><time>2026-04-19T12:42:46.001Z</time></trkpt><trkpt lat="44.941311772920365" lon="7.42888410975736"><ele>276.0</ele><time>2026-04-19T12:42:47.001Z</time></trkpt><trkpt lat="44.941466413854194" lon="7.428891665401337"><ele>276.0</ele><time>2026-04-19T12:42:48.001Z</time></trkpt><trkpt lat="44.941601040443885" lon="7.428876069110551"><ele>276.0</ele><time>2026-04-19T12:42:49.001Z</time></trkpt><trkpt lat="44.94170700356691" lon="7.428819138639358"><ele>276.0</ele><time>2026-04-19T12:42:49.999Z</time></trkpt><trkpt lat="44.941809788760324" lon="7.4287138785879465"><ele>276.0</ele><time>2026-04-19T12:42:50.999Z</time></trkpt><trkpt lat="44.94193541990867" lon="7.428609208235583"><ele>276.25</ele><time>2026-04-19T12:42:52Z</time></trkpt><trkpt lat="44.94204210444255" lon="7.4284990513046845"><ele>276.5</ele><time>2026-04-19T12:42:52.999Z</time></trkpt><trkpt lat="44.94213524989086" lon="7.428397573709084"><ele>276.75</ele><time>2026-04-19T12:42:53.999Z</time></trkpt><trkpt lat="44.9422337569029" lon="7.428343733022494"><ele>277.0</ele><time>2026-04-19T12:42:55Z</time></trkpt><trkpt lat="44.942341814146474" lon="7.42839978954372"><ele>277.0</ele><time>2026-04-19T12:42:56Z</time></trkpt><trkpt lat="44.94246329051" lon="7.42843436987085"><ele>277.0</ele><time>2026-04-19T12:42:57Z</time></trkpt><trkpt lat="44.94261491819914" lon="7.428464145120025"><ele>277.0</ele><time>2026-04-19T12:42:58Z</time></trkpt><trkpt lat="44.94278444739293" lon="7.428483625585852"><ele>277.0</ele><time>2026-04-19T12:42:59Z</time></trkpt><trkpt lat="44.942959091340896" lon="7.428520064729635"><ele>277.0</ele><time>2026-04-19T12:43:00Z</time></trkpt><trkpt lat="44.943141654691395" lon="7.428551353828776"><ele>277.0</ele><time>2026-04-19T12:43:01Z</time></trkpt><trkpt lat="44.94333152223925" lon="7.428584742952198"><ele>277.0</ele><time>2026-04-19T12:43:02Z</time></trkpt><trkpt lat="44.94352704179111" lon="7.4286188927868695"><ele>276.66666666666663</ele><time>2026-04-19T12:43:03Z</time></trkpt><trkpt lat="44.94371659545831" lon="7.428651899163531"><ele>276.3333333333333</ele><time>2026-04-19T12:43:04Z</time></trkpt><trkpt lat="44.94388910181999" lon="7.428677775129952"><ele>276.0</ele><time>2026-04-19T12:43:05Z</time></trkpt><trkpt lat="44.94405117265935" lon="7.428725906259761"><ele>276.0</ele><time>2026-04-19T12:43:06Z</time></trkpt><trkpt lat="44.94419286726916" lon="7.428749772898924"><ele>276.0</ele><time>2026-04-19T12:43:07Z</time></trkpt><trkpt lat="44.9443127252233" lon="7.428774264114076"><ele>276.0</ele><time>2026-04-19T12:43:08Z</time></trkpt><trkpt lat="44.9444035460836" lon="7.428793220910375"><ele>276.0</ele><time>2026-04-19T12:43:09Z</time></trkpt><trkpt lat="44.94446254014709" lon="7.428877061981302"><ele>276.0</ele><time>2026-04-19T12:43:10Z</time></trkpt><trkpt lat="44.94448144471724" lon="7.428995929608309"><ele>276.25</ele><time>2026-04-19T12:43:11Z</time></trkpt><trkpt lat="44.94444640426037" lon="7.4291359336126375"><ele>276.5</ele><time>2026-04-19T12:43:12Z</time></trkpt><trkpt lat="44.9444501725423" lon="7.429304531079049"><ele>276.75</ele><time>2026-04-19T12:43:13Z</time></trkpt><trkpt lat="44.94442809882162" lon="7.429499592527875"><ele>277.0</ele><time>2026-04-19T12:43:14Z</time></trkpt><trkpt lat="44.94441327262017" lon="7.429721421064172"><ele>277.0</ele><time>2026-04-19T12:43:15Z</time></trkpt><trkpt lat="44.944411575892964" lon="7.429956831234159"><ele>277.0</ele><time>2026-04-19T12:43:16Z</time></trkpt><trkpt lat="44.94439959454242" lon="7.430211944092209"><ele>277.0</ele><time>2026-04-19T12:43:17Z</time></trkpt><trkpt lat="44.94438910653012" lon="7.430456024827373"><ele>276.66666666666663</ele><time>2026-04-19T12:43:18Z</time></trkpt><trkpt lat="44.944377221114195" lon="7.430712381990687"><ele>276.3333333333333</ele><time>2026-04-19T12:43:19Z</time></trkpt><trkpt lat="44.94437397332543" lon="7.430947821522957"><ele>276.0</ele><time>2026-04-19T12:43:20Z</time></trkpt><trkpt lat="44.94436893926643" lon="7.431173907638219"><ele>276.0</ele><time>2026-04-19T12:43:21Z</time></trkpt><trkpt lat="44.944365812821154" lon="7.431381725980804"><ele>276.0</ele><time>2026-04-19T12:43:22Z</time></trkpt><trkpt lat="44.94436179543714" lon="7.431575107353647"><ele>276.0</ele><time>2026-04-19T12:43:23Z</time></trkpt><trkpt lat="44.94436299895383" lon="7.43175097732584"><ele>276.0</ele><time>2026-04-19T12:43:24Z</time></trkpt><trkpt lat="44.94438351073303" lon="7.431913779016318"><ele>276.0</ele><time>2026-04-19T12:43:25Z</time></trkpt><trkpt lat="44.9444370117897" lon="7.432050057383476"><ele>276.0</ele><time>2026-04-19T12:43:26Z</time></trkpt><trkpt lat="44.944514010085264" lon="7.432158873849328"><ele>276.0</ele><time>2026-04-19T12:43:27Z</time></trkpt><trkpt lat="44.94460442996432" lon="7.432260435357968"><ele>276.0</ele><time>2026-04-19T12:43:28Z</time></trkpt><trkpt lat="44.94468104090871" lon="7.432384041333545"><ele>276.0</ele><time>2026-04-19T12:43:29Z</time></trkpt><trkpt lat="44.9446891967201" lon="7.432556082847534"><ele>276.0</ele><time>2026-04-19T12:43:30Z</time></trkpt><trkpt lat="44.94470912340966" lon="7.432749358948075"><ele>276.0</ele><time>2026-04-19T12:43:31Z</time></trkpt><trkpt lat="44.94474595593644" lon="7.432974725936273"><ele>276.0</ele><time>2026-04-19T12:43:32Z</time></trkpt><trkpt lat="44.94478832029421" lon="7.433205404538045"><ele>275.6666666666667</ele><time>2026-04-19T12:43:33Z</time></trkpt><trkpt lat="44.94482958750856" lon="7.433458335435306"><ele>275.33333333333337</ele><time>2026-04-19T12:43:34Z</time></trkpt><trkpt lat="44.94486770332132" lon="7.43371727782434"><ele>275.0</ele><time>2026-04-19T12:43:35Z</time></trkpt><trkpt lat="44.94490966919293" lon="7.43397735158165"><ele>274.6666666666667</ele><time>2026-04-19T12:43:36Z</time></trkpt><trkpt lat="44.94495114306768" lon="7.434227264966475"><ele>274.3333333333333</ele><time>2026-04-19T12:43:37Z</time></trkpt><trkpt lat="44.9449918044663" lon="7.434472152386813"><ele>274.0</ele><time>2026-04-19T12:43:38Z</time></trkpt><trkpt lat="44.945033886507716" lon="7.434725663951021"><ele>273.66666666666663</ele><time>2026-04-19T12:43:39Z</time></trkpt><trkpt lat="44.94507876913025" lon="7.434966502209294"><ele>273.3333333333333</ele><time>2026-04-19T12:43:40Z</time></trkpt><trkpt lat="44.94511383157413" lon="7.4351991441401415"><ele>273.0</ele><time>2026-04-19T12:43:41Z</time></trkpt><trkpt lat="44.945150443066574" lon="7.435416699813292"><ele>273.0</ele><time>2026-04-19T12:43:42Z</time></trkpt><trkpt lat="44.94518935549891" lon="7.435629658853989"><ele>273.0</ele><time>2026-04-19T12:43:43Z</time></trkpt><trkpt lat="44.945228744248226" lon="7.435843311959686"><ele>273.0</ele><time>2026-04-19T12:43:44Z</time></trkpt><trkpt lat="44.9452625239399" lon="7.436037686113894"><ele>273.0</ele><time>2026-04-19T12:43:45Z</time></trkpt><trkpt lat="44.9452828965192" lon="7.436207798565112"><ele>273.0</ele><time>2026-04-19T12:43:46Z</time></trkpt><trkpt lat="44.94531063447085" lon="7.436343760584942"><ele>273.0</ele><time>2026-04-19T12:43:47Z</time></trkpt><trkpt lat="44.945334403095984" lon="7.436458824247712"><ele>273.0</ele><time>2026-04-19T12:43:48Z</time></trkpt><trkpt lat="44.9453673951238" lon="7.436595537490252"><ele>273.0</ele><time>2026-04-19T12:43:50Z</time></trkpt><trkpt lat="44.94554771854682" lon="7.436496027384336"><ele>273.0</ele><time>2026-04-19T12:43:53Z</time></trkpt><trkpt lat="44.94565300060719" lon="7.436434311548086"><ele>273.0</ele><time>2026-04-19T12:43:54Z</time></trkpt><trkpt lat="44.945761951711795" lon="7.4363419394103385"><ele>273.0</ele><time>2026-04-19T12:43:55Z</time></trkpt><trkpt lat="44.94588741726861" lon="7.436235563885742"><ele>273.0</ele><time>2026-04-19T12:43:56Z</time></trkpt><trkpt lat="44.946022002193644" lon="7.436123179637896"><ele>273.0</ele><time>2026-04-19T12:43:57Z</time></trkpt><trkpt lat="44.946163462407185" lon="7.436005125493687"><ele>273.0</ele><time>2026-04-19T12:43:58.001Z</time></trkpt><trkpt lat="44.94629483866883" lon="7.435895487363898"><ele>273.0</ele><time>2026-04-19T12:43:59.001Z</time></trkpt><trkpt lat="44.94640288723136" lon="7.435806393762759"><ele>273.0</ele><time>2026-04-19T12:44:00.001Z</time></trkpt><trkpt lat="44.94648662687127" lon="7.435745214482812"><ele>273.0</ele><time>2026-04-19T12:44:01.001Z</time></trkpt><trkpt lat="44.946552390803646" lon="7.435681572343724"><ele>273.0</ele><time>2026-04-19T12:44:02.001Z</time></trkpt><trkpt lat="44.94663106425856" lon="7.435658178524031"><ele>273.0</ele><time>2026-04-19T12:44:03.001Z</time></trkpt><trkpt lat="44.946674952579144" lon="7.435578848212151"><ele>273.0</ele><time>2026-04-19T12:44:04.001Z</time></trkpt><trkpt lat="44.94666372415214" lon="7.435391959299119"><ele>273.0</ele><time>2026-04-19T12:44:05.001Z</time></trkpt><trkpt lat="44.94667778115964" lon="7.435198873395602"><ele>272.6666666666667</ele><time>2026-04-19T12:44:06.001Z</time></trkpt><trkpt lat="44.946733049471696" lon="7.435001814873016"><ele>272.33333333333337</ele><time>2026-04-19T12:44:07.001Z</time></trkpt><trkpt lat="44.94680774229285" lon="7.4347976274837135"><ele>272.0</ele><time>2026-04-19T12:44:08.001Z</time></trkpt><trkpt lat="44.9469003584743" lon="7.434589904955618"><ele>271.6666666666667</ele><time>2026-04-19T12:44:09.001Z</time></trkpt><trkpt lat="44.94700575826338" lon="7.434367284063198"><ele>271.3333333333333</ele><time>2026-04-19T12:44:10.001Z</time></trkpt><trkpt lat="44.94711555920591" lon="7.434138417775316"><ele>271.0</ele><time>2026-04-19T12:44:11.001Z</time></trkpt><trkpt lat="44.94722864365019" lon="7.433902707244927"><ele>271.66666666666663</ele><time>2026-04-19T12:44:12.001Z</time></trkpt><trkpt lat="44.947341326915904" lon="7.433667832979582"><ele>272.3333333333333</ele><time>2026-04-19T12:44:13.001Z</time></trkpt><trkpt lat="44.947450023258526" lon="7.43344126887913"><ele>273.0</ele><time>2026-04-19T12:44:14.001Z</time></trkpt><trkpt lat="44.947562022758326" lon="7.433207819732232"><ele>273.3333333333333</ele><time>2026-04-19T12:44:15.001Z</time></trkpt><trkpt lat="44.94767593386471" lon="7.432970386272449"><ele>273.66666666666663</ele><time>2026-04-19T12:44:16.001Z</time></trkpt><trkpt lat="44.94778927299663" lon="7.432734144701311"><ele>274.0</ele><time>2026-04-19T12:44:17.001Z</time></trkpt><trkpt lat="44.947900605839344" lon="7.432501341159763"><ele>274.0</ele><time>2026-04-19T12:44:18.001Z</time></trkpt><trkpt lat="44.948010930532014" lon="7.432270549865596"><ele>274.0</ele><time>2026-04-19T12:44:19.001Z</time></trkpt><trkpt lat="44.9481093880717" lon="7.432064583574957"><ele>274.0</ele><time>2026-04-19T12:44:20.001Z</time></trkpt><trkpt lat="44.94819561947756" lon="7.431890714500307"><ele>274.0</ele><time>2026-04-19T12:44:21.001Z</time></trkpt><trkpt lat="44.948285989475984" lon="7.43174670584151"><ele>274.0</ele><time>2026-04-19T12:44:22.001Z</time></trkpt><trkpt lat="44.94838498138995" lon="7.431658119609741"><ele>274.0</ele><time>2026-04-19T12:44:23.001Z</time></trkpt><trkpt lat="44.948499365779604" lon="7.431634634517263"><ele>274.0</ele><time>2026-04-19T12:44:24.001Z</time></trkpt><trkpt lat="44.94863071256475" lon="7.431606016530185"><ele>274.0</ele><time>2026-04-19T12:44:25.001Z</time></trkpt><trkpt lat="44.94877145142245" lon="7.43158037215775"><ele>274.0</ele><time>2026-04-19T12:44:26.001Z</time></trkpt><trkpt lat="44.94891147549982" lon="7.431552235302616"><ele>274.0</ele><time>2026-04-19T12:44:27.001Z</time></trkpt><trkpt lat="44.94906019148" lon="7.431503404017893"><ele>274.0</ele><time>2026-04-19T12:44:28.001Z</time></trkpt><trkpt lat="44.94922870786945" lon="7.431436291294883"><ele>274.0</ele><time>2026-04-19T12:44:29.001Z</time></trkpt><trkpt lat="44.949420336565986" lon="7.431410735141328"><ele>274.0</ele><time>2026-04-19T12:44:30.001Z</time></trkpt><trkpt lat="44.94964407335278" lon="7.431355750460984"><ele>274.0</ele><time>2026-04-19T12:44:31.001Z</time></trkpt><trkpt lat="44.949830492534716" lon="7.43130920688739"><ele>274.0</ele><time>2026-04-19T12:44:32.001Z</time></trkpt><trkpt lat="44.95002094249408" lon="7.431262891710549"><ele>274.0</ele><time>2026-04-19T12:44:33.001Z</time></trkpt><trkpt lat="44.950190286621584" lon="7.431222527870819"><ele>274.0</ele><time>2026-04-19T12:44:34.001Z</time></trkpt><trkpt lat="44.95039074580263" lon="7.431174749528259"><ele>274.0</ele><time>2026-04-19T12:44:35.001Z</time></trkpt><trkpt lat="44.95053842601827" lon="7.431139807867668"><ele>274.0</ele><time>2026-04-19T12:44:36.001Z</time></trkpt><trkpt lat="44.95068883252554" lon="7.431106156053974"><ele>274.0</ele><time>2026-04-19T12:44:37.001Z</time></trkpt><trkpt lat="44.95083148302037" lon="7.431077047157211"><ele>274.0</ele><time>2026-04-19T12:44:38.001Z</time></trkpt><trkpt lat="44.950964981757075" lon="7.431050405335363"><ele>273.75</ele><time>2026-04-19T12:44:39.001Z</time></trkpt><trkpt lat="44.95110051833492" lon="7.431025598419667"><ele>273.5</ele><time>2026-04-19T12:44:40.001Z</time></trkpt><trkpt lat="44.951222889381825" lon="7.431003200953884"><ele>273.25</ele><time>2026-04-19T12:44:41.001Z</time></trkpt><trkpt lat="44.951328281319135" lon="7.43097179380395"><ele>273.0</ele><time>2026-04-19T12:44:42.001Z</time></trkpt><trkpt lat="44.95141776403051" lon="7.430942081563317"><ele>273.0</ele><time>2026-04-19T12:44:43.001Z</time></trkpt><trkpt lat="44.951489955639495" lon="7.4308744757081095"><ele>273.0</ele><time>2026-04-19T12:44:44.001Z</time></trkpt><trkpt lat="44.95153368146087" lon="7.430731334321038"><ele>273.0</ele><time>2026-04-19T12:44:45.001Z</time></trkpt><trkpt lat="44.95158781203734" lon="7.430575918635962"><ele>273.0</ele><time>2026-04-19T12:44:46.001Z</time></trkpt><trkpt lat="44.951650591668326" lon="7.430448119028044"><ele>273.0</ele><time>2026-04-19T12:44:47.001Z</time></trkpt><trkpt lat="44.951736140195486" lon="7.430347989168869"><ele>272.75</ele><time>2026-04-19T12:44:48.001Z</time></trkpt><trkpt lat="44.9518285597031" lon="7.430279567316011"><ele>272.5</ele><time>2026-04-19T12:44:49.001Z</time></trkpt><trkpt lat="44.951939242156634" lon="7.430237383369134"><ele>272.25</ele><time>2026-04-19T12:44:50.001Z</time></trkpt><trkpt lat="44.95205760003412" lon="7.430214544182928"><ele>272.0</ele><time>2026-04-19T12:44:51.001Z</time></trkpt><trkpt lat="44.95218516792755" lon="7.430210926493983"><ele>272.0</ele><time>2026-04-19T12:44:52.001Z</time></trkpt><trkpt lat="44.95232217989017" lon="7.430206128557987"><ele>272.0</ele><time>2026-04-19T12:44:53.001Z</time></trkpt><trkpt lat="44.95245084325332" lon="7.430191581706561"><ele>272.0</ele><time>2026-04-19T12:44:54.001Z</time></trkpt><trkpt lat="44.95255554108186" lon="7.430157857534798"><ele>272.0</ele><time>2026-04-19T12:44:55.001Z</time></trkpt><trkpt lat="44.95263899047955" lon="7.430125346207806"><ele>272.1666666666667</ele><time>2026-04-19T12:44:55.999Z</time></trkpt><trkpt lat="44.95271194311706" lon="7.430056533714115"><ele>272.33333333333337</ele><time>2026-04-19T12:44:56.999Z</time></trkpt><trkpt lat="44.95278662446034" lon="7.430008732090607"><ele>272.5</ele><time>2026-04-19T12:44:57.999Z</time></trkpt><trkpt lat="44.95286099176985" lon="7.4300037424279575"><ele>272.6666666666667</ele><time>2026-04-19T12:44:58.999Z</time></trkpt><trkpt lat="44.95294692958379" lon="7.430004520605349"><ele>272.8333333333333</ele><time>2026-04-19T12:44:59.999Z</time></trkpt><trkpt lat="44.95304930453922" lon="7.430006067974303"><ele>273.0</ele><time>2026-04-19T12:45:00.999Z</time></trkpt><trkpt lat="44.95315059665116" lon="7.4300079596111255"><ele>273.0</ele><time>2026-04-19T12:45:01.999Z</time></trkpt><trkpt lat="44.953278560595436" lon="7.429991161667813"><ele>273.0</ele><time>2026-04-19T12:45:02.999Z</time></trkpt><trkpt lat="44.95339873781225" lon="7.430008462003244"><ele>273.0</ele><time>2026-04-19T12:45:03.999Z</time></trkpt><trkpt lat="44.953535277281055" lon="7.430028266292224"><ele>273.0</ele><time>2026-04-19T12:45:04.999Z</time></trkpt><trkpt lat="44.953676850835045" lon="7.430029362708105"><ele>273.6666666666667</ele><time>2026-04-19T12:45:05.999Z</time></trkpt><trkpt lat="44.95382035207736" lon="7.430025011149179"><ele>274.33333333333337</ele><time>2026-04-19T12:45:07Z</time></trkpt><trkpt lat="44.95397045383975" lon="7.43001632007347"><ele>275.0</ele><time>2026-04-19T12:45:08Z</time></trkpt><trkpt lat="44.954143166494084" lon="7.430031705037206"><ele>275.25</ele><time>2026-04-19T12:45:09Z</time></trkpt><trkpt lat="44.95430913107224" lon="7.430038478683475"><ele>275.5</ele><time>2026-04-19T12:45:10Z</time></trkpt><trkpt lat="44.954448403967504" lon="7.430047646400257"><ele>275.75</ele><time>2026-04-19T12:45:11Z</time></trkpt><trkpt lat="44.9545851621583" lon="7.430042404064279"><ele>276.0</ele><time>2026-04-19T12:45:12Z</time></trkpt><trkpt lat="44.954728053494925" lon="7.430073553197702"><ele>276.0</ele><time>2026-04-19T12:45:13Z</time></trkpt><trkpt lat="44.95487607957288" lon="7.430102949930267"><ele>276.0</ele><time>2026-04-19T12:45:14Z</time></trkpt><trkpt lat="44.955045800394416" lon="7.430119891145358"><ele>276.0</ele><time>2026-04-19T12:45:15Z</time></trkpt><trkpt lat="44.95524272093556" lon="7.430113721695195"><ele>276.3333333333333</ele><time>2026-04-19T12:45:16Z</time></trkpt><trkpt lat="44.955434175579946" lon="7.430097717176134"><ele>276.66666666666663</ele><time>2026-04-19T12:45:17Z</time></trkpt><trkpt lat="44.955627233143915" lon="7.430111012843874"><ele>277.0</ele><time>2026-04-19T12:45:18Z</time></trkpt><trkpt lat="44.95582763453419" lon="7.43010686660334"><ele>277.0</ele><time>2026-04-19T12:45:19Z</time></trkpt><trkpt lat="44.956020603517736" lon="7.430104202764018"><ele>277.0</ele><time>2026-04-19T12:45:20Z</time></trkpt><trkpt lat="44.9562018851298" lon="7.430104714975784"><ele>277.0</ele><time>2026-04-19T12:45:21Z</time></trkpt><trkpt lat="44.95638136397413" lon="7.430106522562991"><ele>277.0</ele><time>2026-04-19T12:45:22Z</time></trkpt><trkpt lat="44.95654796783143" lon="7.430110624603382"><ele>277.0</ele><time>2026-04-19T12:45:23Z</time></trkpt><trkpt lat="44.95671705132809" lon="7.430114787689655"><ele>277.0</ele><time>2026-04-19T12:45:24Z</time></trkpt><trkpt lat="44.95689254428683" lon="7.430119108592986"><ele>276.66666666666663</ele><time>2026-04-19T12:45:25Z</time></trkpt><trkpt lat="44.95706740892417" lon="7.430123459479066"><ele>276.3333333333333</ele><time>2026-04-19T12:45:26Z</time></trkpt><trkpt lat="44.95723663978187" lon="7.430127802648168"><ele>276.0</ele><time>2026-04-19T12:45:27Z</time></trkpt><trkpt lat="44.95741839726495" lon="7.430132467282429"><ele>276.0</ele><time>2026-04-19T12:45:28Z</time></trkpt><trkpt lat="44.957588101364934" lon="7.430136822591442"><ele>276.0</ele><time>2026-04-19T12:45:29Z</time></trkpt><trkpt lat="44.95776422456617" lon="7.430141342638117"><ele>276.0</ele><time>2026-04-19T12:45:30Z</time></trkpt><trkpt lat="44.957933446408965" lon="7.430145587106771"><ele>276.0</ele><time>2026-04-19T12:45:31Z</time></trkpt><trkpt lat="44.95811511577546" lon="7.4301494066426645"><ele>276.0</ele><time>2026-04-19T12:45:32Z</time></trkpt><trkpt lat="44.958287795284186" lon="7.430153037170416"><ele>276.0</ele><time>2026-04-19T12:45:33Z</time></trkpt><trkpt lat="44.95846182202173" lon="7.430156696021122"><ele>276.0</ele><time>2026-04-19T12:45:34Z</time></trkpt><trkpt lat="44.95864024680053" lon="7.430160447340175"><ele>276.0</ele><time>2026-04-19T12:45:35Z</time></trkpt><trkpt lat="44.95879899334306" lon="7.430164458537702"><ele>276.0</ele><time>2026-04-19T12:45:36Z</time></trkpt><trkpt lat="44.958955925562115" lon="7.430169543364118"><ele>276.0</ele><time>2026-04-19T12:45:37Z</time></trkpt><trkpt lat="44.9591146217374" lon="7.43017468534646"><ele>276.0</ele><time>2026-04-19T12:45:38Z</time></trkpt><trkpt lat="44.959270177097814" lon="7.430161789116137"><ele>276.0</ele><time>2026-04-19T12:45:39Z</time></trkpt><trkpt lat="44.959421842241866" lon="7.430169445212786"><ele>276.0</ele><time>2026-04-19T12:45:40Z</time></trkpt><trkpt lat="44.95959262185738" lon="7.4301902976678305"><ele>276.0</ele><time>2026-04-19T12:45:41Z</time></trkpt><trkpt lat="44.959772534066836" lon="7.4301961986494"><ele>276.0</ele><time>2026-04-19T12:45:42Z</time></trkpt><trkpt lat="44.959948358352314" lon="7.430203499307349"><ele>276.3333333333333</ele><time>2026-04-19T12:45:43Z</time></trkpt><trkpt lat="44.96011329461824" lon="7.430210740736687"><ele>276.66666666666663</ele><time>2026-04-19T12:45:44Z</time></trkpt><trkpt lat="44.96027790527562" lon="7.430217969913253"><ele>277.0</ele><time>2026-04-19T12:45:45Z</time></trkpt><trkpt lat="44.96044243142851" lon="7.430222622850125"><ele>277.0</ele><time>2026-04-19T12:45:46Z</time></trkpt><trkpt lat="44.96061794231283" lon="7.430226489667279"><ele>277.0</ele><time>2026-04-19T12:45:47Z</time></trkpt><trkpt lat="44.960777199308" lon="7.430222910884001"><ele>277.0</ele><time>2026-04-19T12:45:48Z</time></trkpt><trkpt lat="44.96094867219497" lon="7.430213896737381"><ele>277.3333333333333</ele><time>2026-04-19T12:45:49Z</time></trkpt><trkpt lat="44.961120330167" lon="7.430202553509883"><ele>277.6666666666667</ele><time>2026-04-19T12:45:50Z</time></trkpt><trkpt lat="44.961289624362" lon="7.430190173296561"><ele>278.0</ele><time>2026-04-19T12:45:51Z</time></trkpt><trkpt lat="44.96146478159886" lon="7.4301769923283105"><ele>278.0</ele><time>2026-04-19T12:45:52Z</time></trkpt><trkpt lat="44.96163558878733" lon="7.430163324362001"><ele>278.0</ele><time>2026-04-19T12:45:53Z</time></trkpt><trkpt lat="44.9618016900435" lon="7.43015003296447"><ele>278.0</ele><time>2026-04-19T12:45:54Z</time></trkpt><trkpt lat="44.96197772500368" lon="7.430136797617443"><ele>278.6666666666667</ele><time>2026-04-19T12:45:55Z</time></trkpt><trkpt lat="44.96214998039008" lon="7.430118870791534"><ele>279.3333333333333</ele><time>2026-04-19T12:45:56.001Z</time></trkpt><trkpt lat="44.96231422098003" lon="7.430092298037261"><ele>280.0</ele><time>2026-04-19T12:45:57.001Z</time></trkpt><trkpt lat="44.962469219866534" lon="7.430064467304111"><ele>279.5</ele><time>2026-04-19T12:45:58.001Z</time></trkpt><trkpt lat="44.96261531054136" lon="7.430038236101579"><ele>279.0</ele><time>2026-04-19T12:45:59.001Z</time></trkpt><trkpt lat="44.96275134855793" lon="7.430016108234141"><ele>278.5</ele><time>2026-04-19T12:46:00.001Z</time></trkpt><trkpt lat="44.96288576408017" lon="7.429994976380456"><ele>278.0</ele><time>2026-04-19T12:46:01.001Z</time></trkpt><trkpt lat="44.96302991034673" lon="7.429958854657746"><ele>278.0</ele><time>2026-04-19T12:46:02.001Z</time></trkpt><trkpt lat="44.96317455388608" lon="7.429925863189578"><ele>278.0</ele><time>2026-04-19T12:46:03.001Z</time></trkpt><trkpt lat="44.96333324764173" lon="7.429897800054407"><ele>278.0</ele><time>2026-04-19T12:46:04.001Z</time></trkpt><trkpt lat="44.96349086477979" lon="7.429888112213055"><ele>277.6666666666667</ele><time>2026-04-19T12:46:05.001Z</time></trkpt><trkpt lat="44.96365467851526" lon="7.429849144160838"><ele>277.3333333333333</ele><time>2026-04-19T12:46:06.001Z</time></trkpt><trkpt lat="44.96380547330159" lon="7.429808188397036"><ele>277.0</ele><time>2026-04-19T12:46:07.001Z</time></trkpt><trkpt lat="44.96396187452975" lon="7.429763502375078"><ele>277.0</ele><time>2026-04-19T12:46:08.001Z</time></trkpt><trkpt lat="44.96412621605759" lon="7.429693534778777"><ele>277.0</ele><time>2026-04-19T12:46:09.001Z</time></trkpt><trkpt lat="44.96428696107713" lon="7.429670620561566"><ele>277.0</ele><time>2026-04-19T12:46:10.001Z</time></trkpt><trkpt lat="44.96442522651711" lon="7.429607594267763"><ele>277.0</ele><time>2026-04-19T12:46:11.001Z</time></trkpt><trkpt lat="44.96458066564116" lon="7.429587441355314"><ele>277.0</ele><time>2026-04-19T12:46:12.001Z</time></trkpt><trkpt lat="44.96473817144931" lon="7.429523689290025"><ele>277.0</ele><time>2026-04-19T12:46:13.001Z</time></trkpt><trkpt lat="44.964891972093284" lon="7.429480890425618"><ele>276.66666666666663</ele><time>2026-04-19T12:46:14.001Z</time></trkpt><trkpt lat="44.96504568390385" lon="7.429440523164882"><ele>276.3333333333333</ele><time>2026-04-19T12:46:15.001Z</time></trkpt><trkpt lat="44.9651993357145" lon="7.429407357562875"><ele>276.0</ele><time>2026-04-19T12:46:16.001Z</time></trkpt><trkpt lat="44.96535300717717" lon="7.4293752376489"><ele>276.0</ele><time>2026-04-19T12:46:17.001Z</time></trkpt><trkpt lat="44.96550790154694" lon="7.429333378695164"><ele>276.0</ele><time>2026-04-19T12:46:18.001Z</time></trkpt><trkpt lat="44.965646324595674" lon="7.429300349929693"><ele>276.0</ele><time>2026-04-19T12:46:19.001Z</time></trkpt><trkpt lat="44.965766958132136" lon="7.429281362613086"><ele>276.0</ele><time>2026-04-19T12:46:20.001Z</time></trkpt><trkpt lat="44.96589664979183" lon="7.429253664503826"><ele>276.25</ele><time>2026-04-19T12:46:21.001Z</time></trkpt><trkpt lat="44.96604719198722" lon="7.429221513333914"><ele>276.5</ele><time>2026-04-19T12:46:22.001Z</time></trkpt><trkpt lat="44.96618845698734" lon="7.429190180054984"><ele>276.75</ele><time>2026-04-19T12:46:23.001Z</time></trkpt><trkpt lat="44.9663358001198" lon="7.429155236149252"><ele>277.0</ele><time>2026-04-19T12:46:24.001Z</time></trkpt><trkpt lat="44.96648309294522" lon="7.429117633555671"><ele>277.0</ele><time>2026-04-19T12:46:25.001Z</time></trkpt><trkpt lat="44.966617819442625" lon="7.4290819147312614"><ele>277.0</ele><time>2026-04-19T12:46:26.001Z</time></trkpt><trkpt lat="44.96673939228002" lon="7.429029342954749"><ele>277.0</ele><time>2026-04-19T12:46:27.001Z</time></trkpt><trkpt lat="44.966849327044756" lon="7.428996357079475"><ele>277.0</ele><time>2026-04-19T12:46:28.001Z</time></trkpt><trkpt lat="44.96695642920145" lon="7.428981090663106"><ele>277.0</ele><time>2026-04-19T12:46:29.001Z</time></trkpt><trkpt lat="44.96705784382857" lon="7.428959481370983"><ele>277.0</ele><time>2026-04-19T12:46:30.001Z</time></trkpt><trkpt lat="44.967127022551495" lon="7.428948540226634"><ele>277.0</ele><time>2026-04-19T12:46:31.001Z</time></trkpt><trkpt lat="44.967243851069846" lon="7.42902147904385"><ele>277.0</ele><time>2026-04-19T12:46:33.001Z</time></trkpt><trkpt lat="44.967302662306075" lon="7.429130603201879"><ele>277.0</ele><time>2026-04-19T12:46:34.001Z</time></trkpt><trkpt lat="44.96735507258611" lon="7.429285487153557"><ele>277.0</ele><time>2026-04-19T12:46:35.001Z</time></trkpt><trkpt lat="44.96741922227445" lon="7.429463956173592"><ele>277.0</ele><time>2026-04-19T12:46:36.001Z</time></trkpt><trkpt lat="44.96751199124285" lon="7.429640481559932"><ele>277.0</ele><time>2026-04-19T12:46:37.001Z</time></trkpt><trkpt lat="44.96761258307953" lon="7.4298263659399195"><ele>276.66666666666663</ele><time>2026-04-19T12:46:38.001Z</time></trkpt><trkpt lat="44.96771262907582" lon="7.430029639352143"><ele>276.3333333333333</ele><time>2026-04-19T12:46:39.001Z</time></trkpt><trkpt lat="44.967816417075525" lon="7.430240584388505"><ele>276.0</ele><time>2026-04-19T12:46:40.001Z</time></trkpt><trkpt lat="44.967910441563696" lon="7.430437808686194"><ele>276.3333333333333</ele><time>2026-04-19T12:46:41.001Z</time></trkpt><trkpt lat="44.9680036726509" lon="7.430636647485441"><ele>276.66666666666663</ele><time>2026-04-19T12:46:42.001Z</time></trkpt><trkpt lat="44.968106885262856" lon="7.430842134339747"><ele>277.0</ele><time>2026-04-19T12:46:43.001Z</time></trkpt><trkpt lat="44.968205658155064" lon="7.4310442882202405"><ele>277.0</ele><time>2026-04-19T12:46:44.001Z</time></trkpt><trkpt lat="44.96830851901626" lon="7.431258109589022"><ele>277.0</ele><time>2026-04-19T12:46:45.001Z</time></trkpt><trkpt lat="44.96841075373763" lon="7.4314712051777985"><ele>277.0</ele><time>2026-04-19T12:46:46.001Z</time></trkpt><trkpt lat="44.9685162299912" lon="7.431694252236641"><ele>277.3333333333333</ele><time>2026-04-19T12:46:47.001Z</time></trkpt><trkpt lat="44.968618882475106" lon="7.431911788759899"><ele>277.6666666666667</ele><time>2026-04-19T12:46:48.001Z</time></trkpt><trkpt lat="44.96872738203364" lon="7.432130011074574"><ele>278.0</ele><time>2026-04-19T12:46:49.001Z</time></trkpt><trkpt lat="44.96883437960366" lon="7.432353136350331"><ele>277.33333333333337</ele><time>2026-04-19T12:46:50.001Z</time></trkpt><trkpt lat="44.968936135402444" lon="7.432565882407819"><ele>276.6666666666667</ele><time>2026-04-19T12:46:51.001Z</time></trkpt><trkpt lat="44.96903624338884" lon="7.432781648023534"><ele>276.0</ele><time>2026-04-19T12:46:52.001Z</time></trkpt><trkpt lat="44.96915084038623" lon="7.433021431027601"><ele>275.6666666666667</ele><time>2026-04-19T12:46:53.001Z</time></trkpt><trkpt lat="44.96926856348531" lon="7.433264723765429"><ele>275.33333333333337</ele><time>2026-04-19T12:46:54.001Z</time></trkpt><trkpt lat="44.96938267623303" lon="7.433504951560996"><ele>275.0</ele><time>2026-04-19T12:46:55.001Z</time></trkpt><trkpt lat="44.96950082512311" lon="7.43374555524"><ele>274.6666666666667</ele><time>2026-04-19T12:46:56.001Z</time></trkpt><trkpt lat="44.96962049767116" lon="7.433987635578684"><ele>274.3333333333333</ele><time>2026-04-19T12:46:57.001Z</time></trkpt><trkpt lat="44.96973776512176" lon="7.434232987888197"><ele>274.0</ele><time>2026-04-19T12:46:58.001Z</time></trkpt><trkpt lat="44.969857192226634" lon="7.434479039700954"><ele>274.3333333333333</ele><time>2026-04-19T12:46:59.001Z</time></trkpt><trkpt lat="44.9699781072093" lon="7.434722316628362"><ele>274.6666666666667</ele><time>2026-04-19T12:47:00.001Z</time></trkpt><trkpt lat="44.970088534259375" lon="7.434962614125101"><ele>275.0</ele><time>2026-04-19T12:47:01.002Z</time></trkpt><trkpt lat="44.97020413015863" lon="7.4351983428308035"><ele>275.0</ele><time>2026-04-19T12:47:02Z</time></trkpt><trkpt lat="44.97031659277642" lon="7.435430758751104"><ele>275.0</ele><time>2026-04-19T12:47:03Z</time></trkpt><trkpt lat="44.970429346703895" lon="7.435667752780125"><ele>275.0</ele><time>2026-04-19T12:47:04Z</time></trkpt><trkpt lat="44.97054218337655" lon="7.435910987065575"><ele>275.33333333333337</ele><time>2026-04-19T12:47:05Z</time></trkpt><trkpt lat="44.97065748549887" lon="7.436149795957008"><ele>275.6666666666667</ele><time>2026-04-19T12:47:06Z</time></trkpt><trkpt lat="44.97077889903476" lon="7.436386146802644"><ele>276.0</ele><time>2026-04-19T12:47:07Z</time></trkpt><trkpt lat="44.97089395619607" lon="7.436627096841736"><ele>275.6666666666667</ele><time>2026-04-19T12:47:08Z</time></trkpt><trkpt lat="44.97100646081141" lon="7.436870938636082"><ele>275.33333333333337</ele><time>2026-04-19T12:47:09Z</time></trkpt><trkpt lat="44.97112004238634" lon="7.437114168281668"><ele>275.0</ele><time>2026-04-19T12:47:10Z</time></trkpt><trkpt lat="44.971234491619946" lon="7.4373494475335775"><ele>275.0</ele><time>2026-04-19T12:47:11Z</time></trkpt><trkpt lat="44.971349961611075" lon="7.437586196435728"><ele>275.0</ele><time>2026-04-19T12:47:12Z</time></trkpt><trkpt lat="44.97146221247846" lon="7.437826509524152"><ele>275.0</ele><time>2026-04-19T12:47:13Z</time></trkpt><trkpt lat="44.971579241649216" lon="7.438067652190252"><ele>274.33333333333337</ele><time>2026-04-19T12:47:14Z</time></trkpt><trkpt lat="44.971697319568996" lon="7.438307370772442"><ele>273.6666666666667</ele><time>2026-04-19T12:47:15Z</time></trkpt><trkpt lat="44.97181405800536" lon="7.438542553957907"><ele>273.0</ele><time>2026-04-19T12:47:16Z</time></trkpt><trkpt lat="44.9719299730551" lon="7.438778507344626"><ele>273.0</ele><time>2026-04-19T12:47:17Z</time></trkpt><trkpt lat="44.97204249258682" lon="7.439013835636924"><ele>273.0</ele><time>2026-04-19T12:47:18Z</time></trkpt><trkpt lat="44.97215254913952" lon="7.439245936731178"><ele>273.0</ele><time>2026-04-19T12:47:19Z</time></trkpt><trkpt lat="44.9722653041302" lon="7.439478926138978"><ele>273.3333333333333</ele><time>2026-04-19T12:47:20Z</time></trkpt><trkpt lat="44.972376061064" lon="7.4397117097852705"><ele>273.66666666666663</ele><time>2026-04-19T12:47:21Z</time></trkpt><trkpt lat="44.97248684072528" lon="7.439944900485858"><ele>274.0</ele><time>2026-04-19T12:47:22Z</time></trkpt><trkpt lat="44.97259542930332" lon="7.440172061861182"><ele>274.66666666666663</ele><time>2026-04-19T12:47:23Z</time></trkpt><trkpt lat="44.97270496928258" lon="7.440394324586656"><ele>275.3333333333333</ele><time>2026-04-19T12:47:24Z</time></trkpt><trkpt lat="44.97281344745662" lon="7.44061268162805"><ele>276.0</ele><time>2026-04-19T12:47:25Z</time></trkpt><trkpt lat="44.9729200473558" lon="7.440834753918506"><ele>276.0</ele><time>2026-04-19T12:47:26Z</time></trkpt><trkpt lat="44.97302844393916" lon="7.441060834164796"><ele>276.0</ele><time>2026-04-19T12:47:27Z</time></trkpt><trkpt lat="44.973118088678596" lon="7.441258301652031"><ele>276.0</ele><time>2026-04-19T12:47:28Z</time></trkpt><trkpt lat="44.973208752117976" lon="7.4414471827376225"><ele>276.0</ele><time>2026-04-19T12:47:29Z</time></trkpt><trkpt lat="44.973288309487245" lon="7.441623759985811"><ele>276.0</ele><time>2026-04-19T12:47:30Z</time></trkpt><trkpt lat="44.973354596123116" lon="7.441777730463526"><ele>276.0</ele><time>2026-04-19T12:47:31Z</time></trkpt><trkpt lat="44.97340376980673" lon="7.441910870749001"><ele>276.0</ele><time>2026-04-19T12:47:32Z</time></trkpt><trkpt lat="44.97343248002327" lon="7.442016557415965"><ele>276.0</ele><time>2026-04-19T12:47:33Z</time></trkpt><trkpt lat="44.973446558456025" lon="7.442105204607245"><ele>276.0</ele><time>2026-04-19T12:47:34Z</time></trkpt><trkpt lat="44.97345943506638" lon="7.442192521090419"><ele>276.0</ele><time>2026-04-19T12:47:35Z</time></trkpt><trkpt lat="44.97349484118461" lon="7.442292780046164"><ele>276.0</ele><time>2026-04-19T12:47:36Z</time></trkpt><trkpt lat="44.97356469662577" lon="7.442389987411853"><ele>276.0</ele><time>2026-04-19T12:47:37Z</time></trkpt><trkpt lat="44.973662612804304" lon="7.442516575945778"><ele>276.0</ele><time>2026-04-19T12:47:38Z</time></trkpt><trkpt lat="44.97375724550313" lon="7.442697483240379"><ele>276.0</ele><time>2026-04-19T12:47:39Z</time></trkpt><trkpt lat="44.97385363497105" lon="7.442909623303897"><ele>276.0</ele><time>2026-04-19T12:47:40Z</time></trkpt><trkpt lat="44.97395626126961" lon="7.4431444252680246"><ele>276.0</ele><time>2026-04-19T12:47:41Z</time></trkpt><trkpt lat="44.97405613152929" lon="7.443406449836827"><ele>276.0</ele><time>2026-04-19T12:47:42Z</time></trkpt><trkpt lat="44.97415588130217" lon="7.44369323836744"><ele>276.0</ele><time>2026-04-19T12:47:43Z</time></trkpt><trkpt lat="44.97425582679363" lon="7.443956482874582"><ele>276.0</ele><time>2026-04-19T12:47:44Z</time></trkpt><trkpt lat="44.97436053757566" lon="7.444207249312332"><ele>277.0</ele><time>2026-04-19T12:47:45Z</time></trkpt><trkpt lat="44.97445997218453" lon="7.4444303053358105"><ele>278.0</ele><time>2026-04-19T12:47:46Z</time></trkpt><trkpt lat="44.974550065098754" lon="7.444639368405913"><ele>279.0</ele><time>2026-04-19T12:47:47Z</time></trkpt><trkpt lat="44.974638258228005" lon="7.444840917225699"><ele>279.0</ele><time>2026-04-19T12:47:48Z</time></trkpt><trkpt lat="44.97471769993852" lon="7.445054071338934"><ele>279.0</ele><time>2026-04-19T12:47:49Z</time></trkpt><trkpt lat="44.974799363493005" lon="7.445272695727767"><ele>279.0</ele><time>2026-04-19T12:47:50Z</time></trkpt><trkpt lat="44.97487861020743" lon="7.445483872708832"><ele>279.0</ele><time>2026-04-19T12:47:51Z</time></trkpt><trkpt lat="44.974949463681426" lon="7.445680463629212"><ele>279.0</ele><time>2026-04-19T12:47:52.001Z</time></trkpt><trkpt lat="44.97501925048363" lon="7.44588162462291"><ele>279.0</ele><time>2026-04-19T12:47:53.001Z</time></trkpt><trkpt lat="44.97507710095991" lon="7.44607446554411"><ele>279.0</ele><time>2026-04-19T12:47:54.001Z</time></trkpt><trkpt lat="44.97512128077393" lon="7.446278982980285"><ele>279.0</ele><time>2026-04-19T12:47:55.001Z</time></trkpt><trkpt lat="44.975144615082" lon="7.446467951381435"><ele>279.0</ele><time>2026-04-19T12:47:56.001Z</time></trkpt><trkpt lat="44.97516240091927" lon="7.446623138179303"><ele>279.0</ele><time>2026-04-19T12:47:57.001Z</time></trkpt><trkpt lat="44.975208085299464" lon="7.446741106834605"><ele>279.0</ele><time>2026-04-19T12:47:58.001Z</time></trkpt><trkpt lat="44.97527866529627" lon="7.446814786889188"><ele>279.0</ele><time>2026-04-19T12:47:59.001Z</time></trkpt><trkpt lat="44.975362537784264" lon="7.446830478927547"><ele>279.0</ele><time>2026-04-19T12:48:00.001Z</time></trkpt><trkpt lat="44.975441563796444" lon="7.446793854385435"><ele>279.0</ele><time>2026-04-19T12:48:01.001Z</time></trkpt><trkpt lat="44.975505487070954" lon="7.4467136970015995"><ele>279.0</ele><time>2026-04-19T12:48:02.001Z</time></trkpt><trkpt lat="44.97554360960639" lon="7.446592670954374"><ele>279.0</ele><time>2026-04-19T12:48:03.001Z</time></trkpt><trkpt lat="44.975543774474765" lon="7.446456427185019"><ele>279.0</ele><time>2026-04-19T12:48:04.001Z</time></trkpt><trkpt lat="44.97550470746171" lon="7.446330163138262"><ele>279.0</ele><time>2026-04-19T12:48:05.001Z</time></trkpt><trkpt lat="44.97543065147505" lon="7.44623144548935"><ele>279.0</ele><time>2026-04-19T12:48:06.001Z</time></trkpt><trkpt lat="44.9753333623406" lon="7.44618820744596"><ele>279.0</ele><time>2026-04-19T12:48:07.001Z</time></trkpt><trkpt lat="44.975233488331895" lon="7.4462060063420985"><ele>279.0</ele><time>2026-04-19T12:48:08.001Z</time></trkpt><trkpt lat="44.975147356346355" lon="7.446278231922694"><ele>279.0</ele><time>2026-04-19T12:48:09.001Z</time></trkpt><trkpt lat="44.97509773162273" lon="7.446391799128478"><ele>279.0</ele><time>2026-04-19T12:48:10.001Z</time></trkpt><trkpt lat="44.975088315940475" lon="7.446528878815478"><ele>279.0</ele><time>2026-04-19T12:48:11.001Z</time></trkpt><trkpt lat="44.975111620816605" lon="7.446669175118378"><ele>279.0</ele><time>2026-04-19T12:48:12.001Z</time></trkpt><trkpt lat="44.97515694793753" lon="7.44681444321144"><ele>279.0</ele><time>2026-04-19T12:48:13.001Z</time></trkpt><trkpt lat="44.97522246692229" lon="7.446961196387341"><ele>278.75</ele><time>2026-04-19T12:48:14.001Z</time></trkpt><trkpt lat="44.97526597234862" lon="7.447132850061805"><ele>278.5</ele><time>2026-04-19T12:48:15.001Z</time></trkpt><trkpt lat="44.9753085753892" lon="7.44731493965079"><ele>278.25</ele><time>2026-04-19T12:48:16.001Z</time></trkpt><trkpt lat="44.975349668322735" lon="7.4475031523297694"><ele>278.0</ele><time>2026-04-19T12:48:17.001Z</time></trkpt><trkpt lat="44.97539709098764" lon="7.4476931413622935"><ele>278.0</ele><time>2026-04-19T12:48:18.001Z</time></trkpt><trkpt lat="44.975417535087416" lon="7.447902483730778"><ele>278.0</ele><time>2026-04-19T12:48:19.001Z</time></trkpt><trkpt lat="44.975459800832134" lon="7.448103091530566"><ele>278.0</ele><time>2026-04-19T12:48:20.001Z</time></trkpt><trkpt lat="44.97550352407714" lon="7.4483085007279115"><ele>278.0</ele><time>2026-04-19T12:48:21.001Z</time></trkpt><trkpt lat="44.97554225956871" lon="7.448515792794926"><ele>278.0</ele><time>2026-04-19T12:48:22.001Z</time></trkpt><trkpt lat="44.975583643241" lon="7.448722472564806"><ele>278.0</ele><time>2026-04-19T12:48:23.001Z</time></trkpt><trkpt lat="44.97562688266767" lon="7.448929175893363"><ele>278.0</ele><time>2026-04-19T12:48:24.001Z</time></trkpt><trkpt lat="44.97566067851578" lon="7.449124690011341"><ele>278.0</ele><time>2026-04-19T12:48:25.001Z</time></trkpt><trkpt lat="44.97567904192649" lon="7.4492600216908835"><ele>278.0</ele><time>2026-04-19T12:48:26.001Z</time></trkpt><trkpt lat="44.97569235612528" lon="7.449417721292635"><ele>278.0</ele><time>2026-04-19T12:48:28.001Z</time></trkpt><trkpt lat="44.97572018434671" lon="7.4495269952187275"><ele>278.0</ele><time>2026-04-19T12:48:29.001Z</time></trkpt><trkpt lat="44.97574043645698" lon="7.449648955058801"><ele>278.0</ele><time>2026-04-19T12:48:30.001Z</time></trkpt><trkpt lat="44.97576111871599" lon="7.449774082112687"><ele>278.0</ele><time>2026-04-19T12:48:31.001Z</time></trkpt><trkpt lat="44.97578352481654" lon="7.44988917329834"><ele>278.0</ele><time>2026-04-19T12:48:32.001Z</time></trkpt><trkpt lat="44.975799922333685" lon="7.449995366191165"><ele>278.0</ele><time>2026-04-19T12:48:33.001Z</time></trkpt><trkpt lat="44.9758006176849" lon="7.45009246349296"><ele>278.0</ele><time>2026-04-19T12:48:34.001Z</time></trkpt><trkpt lat="44.975792889524804" lon="7.450193684432842"><ele>278.0</ele><time>2026-04-19T12:48:35.001Z</time></trkpt><trkpt lat="44.975794603995205" lon="7.450328893770766"><ele>278.0</ele><time>2026-04-19T12:48:36.001Z</time></trkpt><trkpt lat="44.975824024716424" lon="7.450469343626386"><ele>278.0</ele><time>2026-04-19T12:48:37.001Z</time></trkpt><trkpt lat="44.97584767760689" lon="7.450631082222308"><ele>278.33333333333337</ele><time>2026-04-19T12:48:38.001Z</time></trkpt><trkpt lat="44.97588279811105" lon="7.4508275151891095"><ele>278.6666666666667</ele><time>2026-04-19T12:48:39.001Z</time></trkpt><trkpt lat="44.975915639787" lon="7.451051538301574"><ele>279.0</ele><time>2026-04-19T12:48:40.001Z</time></trkpt><trkpt lat="44.975943901665" lon="7.451282920412806"><ele>278.6666666666667</ele><time>2026-04-19T12:48:41.001Z</time></trkpt><trkpt lat="44.97596816914664" lon="7.451503174024259"><ele>278.33333333333337</ele><time>2026-04-19T12:48:42.001Z</time></trkpt><trkpt lat="44.97599172597388" lon="7.451710203953219"><ele>278.0</ele><time>2026-04-19T12:48:43.001Z</time></trkpt><trkpt lat="44.976017334941076" lon="7.451910185865318"><ele>278.0</ele><time>2026-04-19T12:48:44.001Z</time></trkpt><trkpt lat="44.976045628134045" lon="7.452109181094882"><ele>278.0</ele><time>2026-04-19T12:48:45.001Z</time></trkpt><trkpt lat="44.97607469081309" lon="7.4523140415982025"><ele>278.0</ele><time>2026-04-19T12:48:46.001Z</time></trkpt><trkpt lat="44.976097531852155" lon="7.45250419719458"><ele>278.0</ele><time>2026-04-19T12:48:47.001Z</time></trkpt><trkpt lat="44.97612501645569" lon="7.4526972282862225"><ele>278.25</ele><time>2026-04-19T12:48:48.001Z</time></trkpt><trkpt lat="44.97615093945089" lon="7.4528912188675145"><ele>278.5</ele><time>2026-04-19T12:48:49.001Z</time></trkpt><trkpt lat="44.97618022100273" lon="7.453102303398278"><ele>278.75</ele><time>2026-04-19T12:48:50.001Z</time></trkpt><trkpt lat="44.97620482174232" lon="7.4533115195511686"><ele>279.0</ele><time>2026-04-19T12:48:51.001Z</time></trkpt><trkpt lat="44.97623423263827" lon="7.453521974058274"><ele>279.0</ele><time>2026-04-19T12:48:52.001Z</time></trkpt><trkpt lat="44.9762656051951" lon="7.453729878939256"><ele>279.0</ele><time>2026-04-19T12:48:53.001Z</time></trkpt><trkpt lat="44.97629803378708" lon="7.453940291337713"><ele>279.0</ele><time>2026-04-19T12:48:54.002Z</time></trkpt><trkpt lat="44.97633086951532" lon="7.454164450837905"><ele>279.0</ele><time>2026-04-19T12:48:55.002Z</time></trkpt><trkpt lat="44.97636325396318" lon="7.454374671305213"><ele>279.0</ele><time>2026-04-19T12:48:56.002Z</time></trkpt><trkpt lat="44.976390019453284" lon="7.454607413076793"><ele>279.0</ele><time>2026-04-19T12:48:57.002Z</time></trkpt><trkpt lat="44.97641358646946" lon="7.454809988451816"><ele>279.0</ele><time>2026-04-19T12:48:58.002Z</time></trkpt><trkpt lat="44.976432238380376" lon="7.454990635346381"><ele>279.0</ele><time>2026-04-19T12:48:59.002Z</time></trkpt><trkpt lat="44.976451274891645" lon="7.455142171358273"><ele>279.0</ele><time>2026-04-19T12:49:00.002Z</time></trkpt><trkpt lat="44.97645634704806" lon="7.4552683106066056"><ele>279.0</ele><time>2026-04-19T12:49:01.002Z</time></trkpt><trkpt lat="44.9764420590216" lon="7.455355196149009"><ele>279.0</ele><time>2026-04-19T12:49:02.002Z</time></trkpt><trkpt lat="44.976410139921875" lon="7.455442184773986"><ele>279.0</ele><time>2026-04-19T12:49:03.002Z</time></trkpt><trkpt lat="44.97649905257291" lon="7.455482125845541"><ele>279.0</ele><time>2026-04-19T12:49:07.002Z</time></trkpt><trkpt lat="44.97660181973908" lon="7.455445620521599"><ele>279.0</ele><time>2026-04-19T12:49:09Z</time></trkpt><trkpt lat="44.976703370886355" lon="7.455421428687229"><ele>279.0</ele><time>2026-04-19T12:49:11Z</time></trkpt><trkpt lat="44.97685815008996" lon="7.455392890522093"><ele>279.0</ele><time>2026-04-19T12:49:13Z</time></trkpt><trkpt lat="44.97694580132394" lon="7.45538449039342"><ele>279.0</ele><time>2026-04-19T12:49:14Z</time></trkpt><trkpt lat="44.97704059156912" lon="7.455388200730062"><ele>279.0</ele><time>2026-04-19T12:49:15Z</time></trkpt><trkpt lat="44.97714036568446" lon="7.455384303886752"><ele>279.0</ele><time>2026-04-19T12:49:16Z</time></trkpt><trkpt lat="44.97723362905296" lon="7.455363469185398"><ele>279.0</ele><time>2026-04-19T12:49:17Z</time></trkpt><trkpt lat="44.977335969729864" lon="7.4553687013199506"><ele>279.0</ele><time>2026-04-19T12:49:18Z</time></trkpt><trkpt lat="44.97745131674765" lon="7.455358099759482"><ele>279.0</ele><time>2026-04-19T12:49:19Z</time></trkpt><trkpt lat="44.977569359588436" lon="7.455332068323521"><ele>279.0</ele><time>2026-04-19T12:49:20Z</time></trkpt><trkpt lat="44.97769012170084" lon="7.455299799111994"><ele>279.0</ele><time>2026-04-19T12:49:21Z</time></trkpt><trkpt lat="44.977809035476916" lon="7.45525664611338"><ele>279.75</ele><time>2026-04-19T12:49:22Z</time></trkpt><trkpt lat="44.97792526371944" lon="7.455222680639639"><ele>280.5</ele><time>2026-04-19T12:49:23Z</time></trkpt><trkpt lat="44.97804280505225" lon="7.4551919897876555"><ele>281.25</ele><time>2026-04-19T12:49:24Z</time></trkpt><trkpt lat="44.978156150258584" lon="7.455157222772685"><ele>282.0</ele><time>2026-04-19T12:49:25Z</time></trkpt><trkpt lat="44.97827055057641" lon="7.455124275377339"><ele>282.2</ele><time>2026-04-19T12:49:26Z</time></trkpt><trkpt lat="44.97838255419563" lon="7.455097881036943"><ele>282.4</ele><time>2026-04-19T12:49:27Z</time></trkpt><trkpt lat="44.978487739947745" lon="7.455096517721652"><ele>282.6</ele><time>2026-04-19T12:49:28Z</time></trkpt><trkpt lat="44.97858883891673" lon="7.4551520240305935"><ele>282.8</ele><time>2026-04-19T12:49:29Z</time></trkpt><trkpt lat="44.978688788953185" lon="7.4551861430985475"><ele>283.0</ele><time>2026-04-19T12:49:30Z</time></trkpt><trkpt lat="44.97876749083729" lon="7.455186876337204"><ele>283.0</ele><time>2026-04-19T12:49:31Z</time></trkpt><trkpt lat="44.97883778421265" lon="7.455194739105012"><ele>283.0</ele><time>2026-04-19T12:49:32Z</time></trkpt><trkpt lat="44.97892666461482" lon="7.455203967301674"><ele>283.0</ele><time>2026-04-19T12:49:33Z</time></trkpt><trkpt lat="44.97902638636891" lon="7.455245930091834"><ele>283.0</ele><time>2026-04-19T12:49:34Z</time></trkpt><trkpt lat="44.97913163272731" lon="7.455304226403379"><ele>283.0</ele><time>2026-04-19T12:49:35Z</time></trkpt><trkpt lat="44.97920991047009" lon="7.45541048716782"><ele>283.4</ele><time>2026-04-19T12:49:36Z</time></trkpt><trkpt lat="44.979275898599205" lon="7.455513282909655"><ele>283.8</ele><time>2026-04-19T12:49:37Z</time></trkpt><trkpt lat="44.9793173684622" lon="7.455669525144236"><ele>284.2</ele><time>2026-04-19T12:49:38Z</time></trkpt><trkpt lat="44.97937515149439" lon="7.455820099934487"><ele>284.6</ele><time>2026-04-19T12:49:39Z</time></trkpt><trkpt lat="44.97943538360825" lon="7.455946855706446"><ele>285.0</ele><time>2026-04-19T12:49:40Z</time></trkpt><trkpt lat="44.979513312687665" lon="7.456051938813216"><ele>285.0</ele><time>2026-04-19T12:49:41Z</time></trkpt><trkpt lat="44.97961015852305" lon="7.4561134107971725"><ele>285.0</ele><time>2026-04-19T12:49:42Z</time></trkpt><trkpt lat="44.97973226584004" lon="7.45615985397905"><ele>285.0</ele><time>2026-04-19T12:49:43.001Z</time></trkpt><trkpt lat="44.97984499368487" lon="7.4562288794725875"><ele>285.0</ele><time>2026-04-19T12:49:44.001Z</time></trkpt><trkpt lat="44.97997813525099" lon="7.456275385460088"><ele>285.75</ele><time>2026-04-19T12:49:45.001Z</time></trkpt><trkpt lat="44.98011337759667" lon="7.456310321327239"><ele>286.5</ele><time>2026-04-19T12:49:46.001Z</time></trkpt><trkpt lat="44.98025544388848" lon="7.456334855376259"><ele>287.25</ele><time>2026-04-19T12:49:47.001Z</time></trkpt><trkpt lat="44.98040053676749" lon="7.4563175788072495"><ele>288.0</ele><time>2026-04-19T12:49:48.001Z</time></trkpt><trkpt lat="44.98054061113067" lon="7.456354178608172"><ele>288.0</ele><time>2026-04-19T12:49:49.001Z</time></trkpt><trkpt lat="44.98066804787172" lon="7.456441491257356"><ele>288.0</ele><time>2026-04-19T12:49:50.001Z</time></trkpt><trkpt lat="44.98080108703539" lon="7.456509991929209"><ele>288.0</ele><time>2026-04-19T12:49:51.001Z</time></trkpt><trkpt lat="44.980937530852685" lon="7.456570017891628"><ele>288.0</ele><time>2026-04-19T12:49:52.001Z</time></trkpt><trkpt lat="44.981081213214" lon="7.456645075454397"><ele>287.5</ele><time>2026-04-19T12:49:53.001Z</time></trkpt><trkpt lat="44.98121698420652" lon="7.456726294025218"><ele>287.0</ele><time>2026-04-19T12:49:54.001Z</time></trkpt><trkpt lat="44.98135123569683" lon="7.456796323515999"><ele>286.5</ele><time>2026-04-19T12:49:55.001Z</time></trkpt><trkpt lat="44.98148438885915" lon="7.456876855255449"><ele>286.0</ele><time>2026-04-19T12:49:56.001Z</time></trkpt><trkpt lat="44.98164210156119" lon="7.4569316273206505"><ele>287.3333333333333</ele><time>2026-04-19T12:49:57.001Z</time></trkpt><trkpt lat="44.98180161472516" lon="7.45703096009742"><ele>288.6666666666667</ele><time>2026-04-19T12:49:58.001Z</time></trkpt><trkpt lat="44.9819584214314" lon="7.457135872981764"><ele>290.0</ele><time>2026-04-19T12:49:59.001Z</time></trkpt><trkpt lat="44.982128946227185" lon="7.457231284884528"><ele>290.0</ele><time>2026-04-19T12:50:00.001Z</time></trkpt><trkpt lat="44.98229687641379" lon="7.457314489286532"><ele>290.0</ele><time>2026-04-19T12:50:01.001Z</time></trkpt><trkpt lat="44.9824599864939" lon="7.45741157525546"><ele>290.0</ele><time>2026-04-19T12:50:02.001Z</time></trkpt><trkpt lat="44.982623967496814" lon="7.457504537428296"><ele>290.33333333333337</ele><time>2026-04-19T12:50:03.001Z</time></trkpt><trkpt lat="44.98277310827844" lon="7.457582771569091"><ele>290.6666666666667</ele><time>2026-04-19T12:50:04.001Z</time></trkpt><trkpt lat="44.98293121721988" lon="7.457636796681288"><ele>291.0</ele><time>2026-04-19T12:50:05.001Z</time></trkpt><trkpt lat="44.98308324088149" lon="7.457662727647712"><ele>291.0</ele><time>2026-04-19T12:50:06.001Z</time></trkpt><trkpt lat="44.983218840571915" lon="7.45765053223304"><ele>291.0</ele><time>2026-04-19T12:50:07.001Z</time></trkpt><trkpt lat="44.98331786073127" lon="7.457636591004974"><ele>291.0</ele><time>2026-04-19T12:50:08.001Z</time></trkpt><trkpt lat="44.98339151466672" lon="7.457633572561225"><ele>291.0</ele><time>2026-04-19T12:50:09.001Z</time></trkpt><trkpt lat="44.98346207119546" lon="7.457648829058345"><ele>291.0</ele><time>2026-04-19T12:50:10.001Z</time></trkpt><trkpt lat="44.98356147672384" lon="7.457708959012379"><ele>291.2</ele><time>2026-04-19T12:50:12.001Z</time></trkpt><trkpt lat="44.983622896983896" lon="7.457812688035832"><ele>291.40000000000003</ele><time>2026-04-19T12:50:45.001Z</time></trkpt><trkpt lat="44.98369058214947" lon="7.457899923226804"><ele>291.6</ele><time>2026-04-19T12:50:46.001Z</time></trkpt><trkpt lat="44.98376864283563" lon="7.457995020272502"><ele>291.8</ele><time>2026-04-19T12:50:47.001Z</time></trkpt><trkpt lat="44.983866460408855" lon="7.458100370532946"><ele>292.0</ele><time>2026-04-19T12:50:48.001Z</time></trkpt><trkpt lat="44.98397031079857" lon="7.4582115184966185"><ele>292.0</ele><time>2026-04-19T12:50:49.001Z</time></trkpt><trkpt lat="44.984070735797104" lon="7.458333365965676"><ele>292.0</ele><time>2026-04-19T12:50:50.001Z</time></trkpt><trkpt lat="44.98414728633512" lon="7.458448476473072"><ele>292.0</ele><time>2026-04-19T12:50:51.001Z</time></trkpt><trkpt lat="44.98420079748085" lon="7.4585492422316895"><ele>292.0</ele><time>2026-04-19T12:50:52.001Z</time></trkpt><trkpt lat="44.98423484051161" lon="7.45863890136114"><ele>292.0</ele><time>2026-04-19T12:50:53.001Z</time></trkpt><trkpt lat="44.98429552137769" lon="7.458734684739877"><ele>292.25</ele><time>2026-04-19T12:50:54.002Z</time></trkpt><trkpt lat="44.98438724969929" lon="7.4587960993586035"><ele>292.5</ele><time>2026-04-19T12:50:55.002Z</time></trkpt><trkpt lat="44.98449795663219" lon="7.458849622225909"><ele>292.75</ele><time>2026-04-19T12:50:56.002Z</time></trkpt><trkpt lat="44.984606814752304" lon="7.458941463836531"><ele>293.0</ele><time>2026-04-19T12:50:57.002Z</time></trkpt><trkpt lat="44.98470818695683" lon="7.45907167832721"><ele>293.0</ele><time>2026-04-19T12:50:58.002Z</time></trkpt><trkpt lat="44.98481766521773" lon="7.459204094312137"><ele>293.0</ele><time>2026-04-19T12:50:59.002Z</time></trkpt><trkpt lat="44.98492989286684" lon="7.459333524294241"><ele>293.0</ele><time>2026-04-19T12:51:00.002Z</time></trkpt><trkpt lat="44.9850470320949" lon="7.459462898576026"><ele>293.0</ele><time>2026-04-19T12:51:01.002Z</time></trkpt><trkpt lat="44.98515915212302" lon="7.459596812118556"><ele>293.33333333333337</ele><time>2026-04-19T12:51:02.002Z</time></trkpt><trkpt lat="44.98527562653115" lon="7.459737471438997"><ele>293.6666666666667</ele><time>2026-04-19T12:51:03.002Z</time></trkpt><trkpt lat="44.985390549300774" lon="7.459878486559149"><ele>294.0</ele><time>2026-04-19T12:51:04.002Z</time></trkpt><trkpt lat="44.985510126686485" lon="7.460014306075042"><ele>294.0</ele><time>2026-04-19T12:51:05.002Z</time></trkpt><trkpt lat="44.98563174569777" lon="7.460152433049173"><ele>294.0</ele><time>2026-04-19T12:51:06.002Z</time></trkpt><trkpt lat="44.985752113795876" lon="7.460290149977749"><ele>294.0</ele><time>2026-04-19T12:51:07.002Z</time></trkpt><trkpt lat="44.985879739216124" lon="7.460446193382144"><ele>294.6666666666667</ele><time>2026-04-19T12:51:08.002Z</time></trkpt><trkpt lat="44.98600845628914" lon="7.460595402343632"><ele>295.33333333333337</ele><time>2026-04-19T12:51:09.002Z</time></trkpt><trkpt lat="44.98613731791724" lon="7.460744827360117"><ele>296.0</ele><time>2026-04-19T12:51:10.002Z</time></trkpt><trkpt lat="44.986258906810846" lon="7.460880660968406"><ele>296.0</ele><time>2026-04-19T12:51:11.002Z</time></trkpt><trkpt lat="44.98636915171169" lon="7.461013222768373"><ele>296.0</ele><time>2026-04-19T12:51:12.002Z</time></trkpt><trkpt lat="44.98647630783084" lon="7.4611267464618125"><ele>296.0</ele><time>2026-04-19T12:51:13.002Z</time></trkpt><trkpt lat="44.9865662056522" lon="7.461239150854653"><ele>296.0</ele><time>2026-04-19T12:51:14Z</time></trkpt><trkpt lat="44.98665193275185" lon="7.461353751256709"><ele>296.25</ele><time>2026-04-19T12:51:15Z</time></trkpt><trkpt lat="44.98674631675869" lon="7.461471924333342"><ele>296.5</ele><time>2026-04-19T12:51:16Z</time></trkpt><trkpt lat="44.98685565168519" lon="7.461597096381849"><ele>296.75</ele><time>2026-04-19T12:51:17Z</time></trkpt><trkpt lat="44.98698356974727" lon="7.461738627141754"><ele>297.0</ele><time>2026-04-19T12:51:18Z</time></trkpt><trkpt lat="44.987103704462" lon="7.461880420247413"><ele>297.0</ele><time>2026-04-19T12:51:19Z</time></trkpt><trkpt lat="44.987221707402306" lon="7.4620146138174"><ele>297.0</ele><time>2026-04-19T12:51:20Z</time></trkpt><trkpt lat="44.9873279329826" lon="7.462133770893799"><ele>297.0</ele><time>2026-04-19T12:51:21Z</time></trkpt><trkpt lat="44.98742795117916" lon="7.46224335095469"><ele>297.0</ele><time>2026-04-19T12:51:22Z</time></trkpt><trkpt lat="44.98752330172231" lon="7.462358814227208"><ele>297.4</ele><time>2026-04-19T12:51:23Z</time></trkpt><trkpt lat="44.98762254298722" lon="7.462468609034395"><ele>297.79999999999995</ele><time>2026-04-19T12:51:24Z</time></trkpt><trkpt lat="44.987712649799064" lon="7.462560659847455"><ele>298.2</ele><time>2026-04-19T12:51:25Z</time></trkpt><trkpt lat="44.987785211186896" lon="7.462641722085804"><ele>298.59999999999997</ele><time>2026-04-19T12:51:26Z</time></trkpt><trkpt lat="44.98784136097985" lon="7.462714090714429"><ele>299.0</ele><time>2026-04-19T12:51:27Z</time></trkpt><trkpt lat="44.987883313864856" lon="7.4627837967760975"><ele>299.0</ele><time>2026-04-19T12:51:28Z</time></trkpt><trkpt lat="44.987960783225034" lon="7.462875140500781"><ele>299.0</ele><time>2026-04-19T12:51:30Z</time></trkpt><trkpt lat="44.988024067868004" lon="7.46291341694113"><ele>299.0</ele><time>2026-04-19T12:51:35Z</time></trkpt><trkpt lat="44.988077906393436" lon="7.462976878713453"><ele>299.0</ele><time>2026-04-19T12:51:36Z</time></trkpt><trkpt lat="44.98816402997746" lon="7.463068144033924"><ele>299.0</ele><time>2026-04-19T12:51:37Z</time></trkpt><trkpt lat="44.98826398925836" lon="7.463176948393648"><ele>298.6666666666667</ele><time>2026-04-19T12:51:38Z</time></trkpt><trkpt lat="44.98838276771943" lon="7.46330393054562"><ele>298.3333333333333</ele><time>2026-04-19T12:51:39Z</time></trkpt><trkpt lat="44.98850903516822" lon="7.46344394486748"><ele>298.0</ele><time>2026-04-19T12:51:40Z</time></trkpt><trkpt lat="44.98863650130527" lon="7.463606276256873"><ele>298.0</ele><time>2026-04-19T12:51:41Z</time></trkpt><trkpt lat="44.98876332384127" lon="7.463761057678278"><ele>298.0</ele><time>2026-04-19T12:51:42Z</time></trkpt><trkpt lat="44.98888970346736" lon="7.4639145788638555"><ele>298.0</ele><time>2026-04-19T12:51:43Z</time></trkpt><trkpt lat="44.988992187925646" lon="7.464061980424306"><ele>297.75</ele><time>2026-04-19T12:51:44Z</time></trkpt><trkpt lat="44.98906876115719" lon="7.4642191618173195"><ele>297.5</ele><time>2026-04-19T12:51:45Z</time></trkpt><trkpt lat="44.989128874565345" lon="7.464373617515774"><ele>297.25</ele><time>2026-04-19T12:51:46Z</time></trkpt><trkpt lat="44.989163843008775" lon="7.464530757136785"><ele>297.0</ele><time>2026-04-19T12:51:47Z</time></trkpt><trkpt lat="44.989186304627225" lon="7.4646770547661205"><ele>296.8333333333333</ele><time>2026-04-19T12:51:48Z</time></trkpt><trkpt lat="44.98920971109899" lon="7.464807082762973"><ele>296.6666666666667</ele><time>2026-04-19T12:51:49.001Z</time></trkpt><trkpt lat="44.98923196952414" lon="7.464929560789555"><ele>296.5</ele><time>2026-04-19T12:51:50.001Z</time></trkpt><trkpt lat="44.98925385536702" lon="7.465039675985614"><ele>296.33333333333337</ele><time>2026-04-19T12:51:51.001Z</time></trkpt><trkpt lat="44.98926970767574" lon="7.465144768379037"><ele>296.1666666666667</ele><time>2026-04-19T12:51:52.001Z</time></trkpt><trkpt lat="44.989289116685455" lon="7.465232744315427"><ele>296.0</ele><time>2026-04-19T12:51:53.001Z</time></trkpt><trkpt lat="44.98932297243654" lon="7.4653369209127565"><ele>296.25</ele><time>2026-04-19T12:51:55.001Z</time></trkpt><trkpt lat="44.98938259613445" lon="7.46555556035076"><ele>296.5</ele><time>2026-04-19T12:51:57.001Z</time></trkpt><trkpt lat="44.98942374269336" lon="7.465711615147484"><ele>296.75</ele><time>2026-04-19T12:51:58.001Z</time></trkpt><trkpt lat="44.9894735243245" lon="7.465901867346153"><ele>297.0</ele><time>2026-04-19T12:51:59.001Z</time></trkpt><trkpt lat="44.98951610363607" lon="7.466094672184605"><ele>297.3333333333333</ele><time>2026-04-19T12:52:00.001Z</time></trkpt><trkpt lat="44.989565989486586" lon="7.466301971069314"><ele>297.66666666666663</ele><time>2026-04-19T12:52:01.001Z</time></trkpt><trkpt lat="44.98961736307408" lon="7.466526987379621"><ele>298.0</ele><time>2026-04-19T12:52:02.001Z</time></trkpt><trkpt lat="44.989671985789805" lon="7.466756412704938"><ele>298.0</ele><time>2026-04-19T12:52:03.001Z</time></trkpt><trkpt lat="44.98972507356126" lon="7.466985606238827"><ele>298.0</ele><time>2026-04-19T12:52:04.001Z</time></trkpt><trkpt lat="44.989771214008286" lon="7.4672007924534824"><ele>298.0</ele><time>2026-04-19T12:52:05.001Z</time></trkpt><trkpt lat="44.98980943690353" lon="7.467390717718904"><ele>298.2</ele><time>2026-04-19T12:52:06.001Z</time></trkpt><trkpt lat="44.98984416031633" lon="7.467561994646204"><ele>298.4</ele><time>2026-04-19T12:52:07.001Z</time></trkpt><trkpt lat="44.98987389844882" lon="7.467716316008838"><ele>298.59999999999997</ele><time>2026-04-19T12:52:08.001Z</time></trkpt><trkpt lat="44.98988924889229" lon="7.467860473146348"><ele>298.8</ele><time>2026-04-19T12:52:09.001Z</time></trkpt><trkpt lat="44.98988912121048" lon="7.4680048054769825"><ele>299.0</ele><time>2026-04-19T12:52:10.001Z</time></trkpt><trkpt lat="44.98987831636592" lon="7.4681345146016875"><ele>298.8</ele><time>2026-04-19T12:52:11.001Z</time></trkpt><trkpt lat="44.98986999902517" lon="7.468229115731314"><ele>298.59999999999997</ele><time>2026-04-19T12:52:12.001Z</time></trkpt><trkpt lat="44.98991764501866" lon="7.468326091536553"><ele>298.4</ele><time>2026-04-19T12:52:14.001Z</time></trkpt><trkpt lat="44.99005187019818" lon="7.468298615084989"><ele>298.2</ele><time>2026-04-19T12:52:16.001Z</time></trkpt><trkpt lat="44.990139647797456" lon="7.4682350344071855"><ele>298.0</ele><time>2026-04-19T12:52:17.001Z</time></trkpt><trkpt lat="44.990247752408514" lon="7.468188112648293"><ele>298.0</ele><time>2026-04-19T12:52:18.001Z</time></trkpt><trkpt lat="44.99037392668528" lon="7.468171467335024"><ele>298.0</ele><time>2026-04-19T12:52:19.001Z</time></trkpt><trkpt lat="44.990531872494486" lon="7.468166875684511"><ele>298.0</ele><time>2026-04-19T12:52:20.001Z</time></trkpt><trkpt lat="44.99070074801223" lon="7.468152222834345"><ele>298.0</ele><time>2026-04-19T12:52:21.001Z</time></trkpt><trkpt lat="44.9908756916082" lon="7.46812546163722"><ele>298.0</ele><time>2026-04-19T12:52:22.001Z</time></trkpt><trkpt lat="44.991039002846996" lon="7.46811066240438"><ele>298.0</ele><time>2026-04-19T12:52:23.001Z</time></trkpt><trkpt lat="44.99118630147916" lon="7.468105407797487"><ele>298.0</ele><time>2026-04-19T12:52:24.001Z</time></trkpt><trkpt lat="44.99130302981421" lon="7.468094896576487"><ele>298.0</ele><time>2026-04-19T12:52:25.001Z</time></trkpt><trkpt lat="44.991402816451874" lon="7.468083486900508"><ele>298.0</ele><time>2026-04-19T12:52:26.001Z</time></trkpt><trkpt lat="44.99148793113497" lon="7.468067953214612"><ele>298.0</ele><time>2026-04-19T12:52:27.001Z</time></trkpt><trkpt lat="44.991578094863804" lon="7.468062356976679"><ele>298.0</ele><time>2026-04-19T12:52:28.001Z</time></trkpt><trkpt lat="44.99166121296303" lon="7.4680554488828585"><ele>298.16666666666663</ele><time>2026-04-19T12:52:29.001Z</time></trkpt><trkpt lat="44.99174105213765" lon="7.46804121208202"><ele>298.3333333333333</ele><time>2026-04-19T12:52:30.001Z</time></trkpt><trkpt lat="44.99181077048223" lon="7.468032655439623"><ele>298.5</ele><time>2026-04-19T12:52:31.001Z</time></trkpt><trkpt lat="44.99189964385255" lon="7.46802465924558"><ele>298.6666666666667</ele><time>2026-04-19T12:52:33.001Z</time></trkpt><trkpt lat="44.99197902561206" lon="7.468013707941279"><ele>298.83333333333337</ele><time>2026-04-19T12:52:37.001Z</time></trkpt><trkpt lat="44.992095179374054" lon="7.468001212223781"><ele>299.0</ele><time>2026-04-19T12:52:40.001Z</time></trkpt><trkpt lat="44.99216465934119" lon="7.46799152477312"><ele>299.0</ele><time>2026-04-19T12:52:41.001Z</time></trkpt><trkpt lat="44.99224773970775" lon="7.467978848761319"><ele>299.0</ele><time>2026-04-19T12:52:42.001Z</time></trkpt><trkpt lat="44.99233228412406" lon="7.467974182988442"><ele>299.0</ele><time>2026-04-19T12:52:43.001Z</time></trkpt><trkpt lat="44.99240286434327" lon="7.468014717443101"><ele>299.0</ele><time>2026-04-19T12:52:44.001Z</time></trkpt><trkpt lat="44.99241933880833" lon="7.468129435473545"><ele>299.0</ele><time>2026-04-19T12:52:45.001Z</time></trkpt><trkpt lat="44.99247649618782" lon="7.468219817604182"><ele>299.0</ele><time>2026-04-19T12:52:46.001Z</time></trkpt><trkpt lat="44.99251008189906" lon="7.468332948459773"><ele>299.0</ele><time>2026-04-19T12:52:47.001Z</time></trkpt><trkpt lat="44.992554082259346" lon="7.468441327306292"><ele>299.0</ele><time>2026-04-19T12:52:48.001Z</time></trkpt><trkpt lat="44.99260688119292" lon="7.468557583445012"><ele>299.0</ele><time>2026-04-19T12:52:49.001Z</time></trkpt><trkpt lat="44.9926616702553" lon="7.468699819234318"><ele>299.0</ele><time>2026-04-19T12:52:50.001Z</time></trkpt><trkpt lat="44.9927228632099" lon="7.468854345753593"><ele>299.0</ele><time>2026-04-19T12:52:51.001Z</time></trkpt><trkpt lat="44.99279083361616" lon="7.4690090371898075"><ele>299.0</ele><time>2026-04-19T12:52:52.001Z</time></trkpt><trkpt lat="44.99285899311219" lon="7.469163875848794"><ele>299.0</ele><time>2026-04-19T12:52:53.001Z</time></trkpt><trkpt lat="44.992931381084155" lon="7.469326352953999"><ele>299.0</ele><time>2026-04-19T12:52:54.001Z</time></trkpt><trkpt lat="44.9930009880085" lon="7.4694899475960295"><ele>299.0</ele><time>2026-04-19T12:52:55.001Z</time></trkpt><trkpt lat="44.99306287033514" lon="7.469653056104035"><ele>298.75</ele><time>2026-04-19T12:52:56.001Z</time></trkpt><trkpt lat="44.99313298309594" lon="7.4698118295474405"><ele>298.5</ele><time>2026-04-19T12:52:57.001Z</time></trkpt><trkpt lat="44.993200430323725" lon="7.469977792523412"><ele>298.25</ele><time>2026-04-19T12:52:58.001Z</time></trkpt><trkpt lat="44.99326412152813" lon="7.470135774673484"><ele>298.0</ele><time>2026-04-19T12:52:59.001Z</time></trkpt><trkpt lat="44.99333099634601" lon="7.470291622678404"><ele>297.75</ele><time>2026-04-19T12:53:00.001Z</time></trkpt><trkpt lat="44.99339077592766" lon="7.470444564275326"><ele>297.5</ele><time>2026-04-19T12:53:01.001Z</time></trkpt><trkpt lat="44.99345618453355" lon="7.470588493653957"><ele>297.25</ele><time>2026-04-19T12:53:02.001Z</time></trkpt><trkpt lat="44.99351875661704" lon="7.470742070109733"><ele>297.0</ele><time>2026-04-19T12:53:03.001Z</time></trkpt><trkpt lat="44.99359070051465" lon="7.470894047094316"><ele>297.0</ele><time>2026-04-19T12:53:04.001Z</time></trkpt><trkpt lat="44.99366802361642" lon="7.471048057679315"><ele>297.0</ele><time>2026-04-19T12:53:05.002Z</time></trkpt><trkpt lat="44.99375751514985" lon="7.471202253274948"><ele>297.0</ele><time>2026-04-19T12:53:06.002Z</time></trkpt><trkpt lat="44.993836292384835" lon="7.471359449493275"><ele>297.0</ele><time>2026-04-19T12:53:07.002Z</time></trkpt><trkpt lat="44.99392672998449" lon="7.471522921132914"><ele>297.0</ele><time>2026-04-19T12:53:08.002Z</time></trkpt><trkpt lat="44.99402706527484" lon="7.471689178474503"><ele>297.0</ele><time>2026-04-19T12:53:09.002Z</time></trkpt><trkpt lat="44.99413411185634" lon="7.4718476729504255"><ele>297.0</ele><time>2026-04-19T12:53:10.002Z</time></trkpt><trkpt lat="44.99422971110864" lon="7.472022105356669"><ele>296.75</ele><time>2026-04-19T12:53:11.002Z</time></trkpt><trkpt lat="44.99431992811539" lon="7.472191362208776"><ele>296.5</ele><time>2026-04-19T12:53:12.002Z</time></trkpt><trkpt lat="44.994407543729835" lon="7.472341360222334"><ele>296.25</ele><time>2026-04-19T12:53:13.002Z</time></trkpt><trkpt lat="44.99449388532906" lon="7.472475255346393"><ele>296.0</ele><time>2026-04-19T12:53:14.002Z</time></trkpt><trkpt lat="44.994577056878754" lon="7.472597852300302"><ele>296.0</ele><time>2026-04-19T12:53:15.002Z</time></trkpt><trkpt lat="44.994656169707376" lon="7.47275845166661"><ele>296.0</ele><time>2026-04-19T12:53:16.002Z</time></trkpt><trkpt lat="44.99474962383162" lon="7.47290729509512"><ele>296.0</ele><time>2026-04-19T12:53:17.002Z</time></trkpt><trkpt lat="44.994863135031" lon="7.473089432883938"><ele>295.6666666666667</ele><time>2026-04-19T12:53:18.002Z</time></trkpt><trkpt lat="44.994978471542716" lon="7.473277096256146"><ele>295.3333333333333</ele><time>2026-04-19T12:53:19.002Z</time></trkpt><trkpt lat="44.99509484072347" lon="7.473466439809971"><ele>295.0</ele><time>2026-04-19T12:53:20Z</time></trkpt><trkpt lat="44.99521898189402" lon="7.473641816289198"><ele>295.0</ele><time>2026-04-19T12:53:21Z</time></trkpt><trkpt lat="44.99533753311184" lon="7.47383934634498"><ele>295.0</ele><time>2026-04-19T12:53:22Z</time></trkpt><trkpt lat="44.99545264060376" lon="7.4740188521764095"><ele>295.0</ele><time>2026-04-19T12:53:23Z</time></trkpt><trkpt lat="44.99558507940103" lon="7.47419693281306"><ele>295.0</ele><time>2026-04-19T12:53:24Z</time></trkpt><trkpt lat="44.99574141977508" lon="7.474372215559955"><ele>295.0</ele><time>2026-04-19T12:53:25Z</time></trkpt><trkpt lat="44.99589338631109" lon="7.474569323894999"><ele>295.0</ele><time>2026-04-19T12:53:26Z</time></trkpt><trkpt lat="44.99605602116909" lon="7.474742083769897"><ele>295.0</ele><time>2026-04-19T12:53:27Z</time></trkpt><trkpt lat="44.99621729106121" lon="7.474911538629334"><ele>295.0</ele><time>2026-04-19T12:53:28Z</time></trkpt><trkpt lat="44.996373855312726" lon="7.475071820501745"><ele>295.0</ele><time>2026-04-19T12:53:29Z</time></trkpt><trkpt lat="44.99652931920898" lon="7.475206786409159"><ele>295.0</ele><time>2026-04-19T12:53:30Z</time></trkpt><trkpt lat="44.99666780369423" lon="7.475358069640403"><ele>295.0</ele><time>2026-04-19T12:53:31Z</time></trkpt><trkpt lat="44.996804813121955" lon="7.475528250757055"><ele>295.0</ele><time>2026-04-19T12:53:32Z</time></trkpt><trkpt lat="44.99693269037927" lon="7.4757035374725955"><ele>295.3333333333333</ele><time>2026-04-19T12:53:33Z</time></trkpt><trkpt lat="44.997054896012415" lon="7.475883389897626"><ele>295.6666666666667</ele><time>2026-04-19T12:53:34Z</time></trkpt><trkpt lat="44.99717545420786" lon="7.476046704041795"><ele>296.0</ele><time>2026-04-19T12:53:35Z</time></trkpt><trkpt lat="44.9973293630486" lon="7.476187789725948"><ele>296.33333333333337</ele><time>2026-04-19T12:53:36Z</time></trkpt><trkpt lat="44.9974937651799" lon="7.476323760162521"><ele>296.6666666666667</ele><time>2026-04-19T12:53:37Z</time></trkpt><trkpt lat="44.9976502946723" lon="7.476477571322484"><ele>297.0</ele><time>2026-04-19T12:53:38Z</time></trkpt><trkpt lat="44.99779836718917" lon="7.476647953910622"><ele>297.0</ele><time>2026-04-19T12:53:39Z</time></trkpt><trkpt lat="44.99794021039454" lon="7.476825784187015"><ele>297.0</ele><time>2026-04-19T12:53:40Z</time></trkpt><trkpt lat="44.99807525851238" lon="7.477011871763628"><ele>297.0</ele><time>2026-04-19T12:53:41Z</time></trkpt><trkpt lat="44.998206629628235" lon="7.477210978977915"><ele>296.6666666666667</ele><time>2026-04-19T12:53:42Z</time></trkpt><trkpt lat="44.998335157820534" lon="7.477412922354595"><ele>296.33333333333337</ele><time>2026-04-19T12:53:43Z</time></trkpt><trkpt lat="44.99845672255305" lon="7.477616146322178"><ele>296.0</ele><time>2026-04-19T12:53:44Z</time></trkpt><trkpt lat="44.99857669403583" lon="7.477825603295175"><ele>296.33333333333337</ele><time>2026-04-19T12:53:45Z</time></trkpt><trkpt lat="44.998695620705355" lon="7.478025674692208"><ele>296.6666666666667</ele><time>2026-04-19T12:53:46Z</time></trkpt><trkpt lat="44.998803576507875" lon="7.478240783261275"><ele>297.0</ele><time>2026-04-19T12:53:47Z</time></trkpt><trkpt lat="44.99892832069694" lon="7.478447437826704"><ele>297.0</ele><time>2026-04-19T12:53:48Z</time></trkpt><trkpt lat="44.99905854903745" lon="7.478650123845578"><ele>297.0</ele><time>2026-04-19T12:53:49Z</time></trkpt><trkpt lat="44.99920177291246" lon="7.478829530549012"><ele>297.0</ele><time>2026-04-19T12:53:50Z</time></trkpt><trkpt lat="44.99932873665285" lon="7.479023010508809"><ele>296.3333333333333</ele><time>2026-04-19T12:53:51Z</time></trkpt><trkpt lat="44.99946686627696" lon="7.47921091090611"><ele>295.66666666666663</ele><time>2026-04-19T12:53:52Z</time></trkpt><trkpt lat="44.99959749962715" lon="7.479394146172937"><ele>295.0</ele><time>2026-04-19T12:53:53Z</time></trkpt><trkpt lat="44.99972702917849" lon="7.4795906225872955"><ele>295.0</ele><time>2026-04-19T12:53:54Z</time></trkpt><trkpt lat="44.9998693420488" lon="7.479791822853791"><ele>295.0</ele><time>2026-04-19T12:53:55Z</time></trkpt><trkpt lat="45.00000902983426" lon="7.480017126291638"><ele>295.0</ele><time>2026-04-19T12:53:56Z</time></trkpt><trkpt lat="45.00016798063733" lon="7.480233842481691"><ele>294.66666666666663</ele><time>2026-04-19T12:53:57Z</time></trkpt><trkpt lat="45.000328309555464" lon="7.480444034969549"><ele>294.3333333333333</ele><time>2026-04-19T12:53:58Z</time></trkpt><trkpt lat="45.00048091412213" lon="7.4806427401600235"><ele>294.0</ele><time>2026-04-19T12:53:59Z</time></trkpt><trkpt lat="45.000612365650554" lon="7.4808164550194585"><ele>294.0</ele><time>2026-04-19T12:54:00Z</time></trkpt><trkpt lat="45.00075159851615" lon="7.481000989106445"><ele>294.0</ele><time>2026-04-19T12:54:01Z</time></trkpt><trkpt lat="45.00084282268819" lon="7.481240670639303"><ele>294.0</ele><time>2026-04-19T12:54:02Z</time></trkpt><trkpt lat="45.0009306322047" lon="7.481484691790783"><ele>292.6666666666667</ele><time>2026-04-19T12:54:03Z</time></trkpt><trkpt lat="45.00100700730882" lon="7.481738425956979"><ele>291.33333333333337</ele><time>2026-04-19T12:54:04Z</time></trkpt><trkpt lat="45.00109158557934" lon="7.48198224705306"><ele>290.0</ele><time>2026-04-19T12:54:05Z</time></trkpt><trkpt lat="45.001148715188755" lon="7.48224388837763"><ele>290.33333333333337</ele><time>2026-04-19T12:54:06Z</time></trkpt><trkpt lat="45.001230316049785" lon="7.482479001603121"><ele>290.6666666666667</ele><time>2026-04-19T12:54:07Z</time></trkpt><trkpt lat="45.001286172953606" lon="7.482742388845515"><ele>291.0</ele><time>2026-04-19T12:54:08Z</time></trkpt><trkpt lat="45.00137940128743" lon="7.4829707147855835"><ele>291.0</ele><time>2026-04-19T12:54:09Z</time></trkpt><trkpt lat="45.0014720791439" lon="7.4831972427301485"><ele>291.0</ele><time>2026-04-19T12:54:10Z</time></trkpt><trkpt lat="45.00157873664086" lon="7.483400452517121"><ele>291.0</ele><time>2026-04-19T12:54:11Z</time></trkpt><trkpt lat="45.001670874228886" lon="7.483596060777585"><ele>291.0</ele><time>2026-04-19T12:54:12Z</time></trkpt><trkpt lat="45.00177006696625" lon="7.48377363975299"><ele>291.0</ele><time>2026-04-19T12:54:13Z</time></trkpt><trkpt lat="45.00186341192339" lon="7.483937870599137"><ele>291.0</ele><time>2026-04-19T12:54:14Z</time></trkpt><trkpt lat="45.001948582811394" lon="7.484085065825125"><ele>291.0</ele><time>2026-04-19T12:54:15.001Z</time></trkpt><trkpt lat="45.00201669940702" lon="7.484202300769483"><ele>291.0</ele><time>2026-04-19T12:54:16.001Z</time></trkpt><trkpt lat="45.0020870791481" lon="7.484287810360795"><ele>291.0</ele><time>2026-04-19T12:54:17.001Z</time></trkpt><trkpt lat="45.00213211166293" lon="7.484389681563272"><ele>291.0</ele><time>2026-04-19T12:54:18.001Z</time></trkpt><trkpt lat="45.00215309431927" lon="7.484481491347903"><ele>291.0</ele><time>2026-04-19T12:54:19.001Z</time></trkpt><trkpt lat="45.0021001121067" lon="7.484608873662732"><ele>291.0</ele><time>2026-04-19T12:54:21.001Z</time></trkpt><trkpt lat="45.00202540029161" lon="7.484668946804826"><ele>291.0</ele><time>2026-04-19T12:54:22.001Z</time></trkpt><trkpt lat="45.001923572855205" lon="7.484763366173651"><ele>292.0</ele><time>2026-04-19T12:54:23.001Z</time></trkpt><trkpt lat="45.00182184792113" lon="7.484902584583965"><ele>293.0</ele><time>2026-04-19T12:54:24.001Z</time></trkpt><trkpt lat="45.00170480826633" lon="7.4850786382306715"><ele>294.0</ele><time>2026-04-19T12:54:25.001Z</time></trkpt><trkpt lat="45.00157097514951" lon="7.4852731708538025"><ele>294.0</ele><time>2026-04-19T12:54:26.001Z</time></trkpt><trkpt lat="45.001424352661346" lon="7.485476773683205"><ele>294.0</ele><time>2026-04-19T12:54:27.001Z</time></trkpt><trkpt lat="45.00127808110667" lon="7.485693323326363"><ele>294.0</ele><time>2026-04-19T12:54:28.001Z</time></trkpt><trkpt lat="45.00113043688717" lon="7.485910567889377"><ele>294.0</ele><time>2026-04-19T12:54:29.001Z</time></trkpt><trkpt lat="45.000986301511865" lon="7.486115852731945"><ele>294.0</ele><time>2026-04-19T12:54:30.001Z</time></trkpt><trkpt lat="45.00085622990029" lon="7.4863080612534825"><ele>294.0</ele><time>2026-04-19T12:54:31.001Z</time></trkpt><trkpt lat="45.00073625831807" lon="7.486494290079157"><ele>292.3333333333333</ele><time>2026-04-19T12:54:32.001Z</time></trkpt><trkpt lat="45.00062000461424" lon="7.4866719331484655"><ele>290.66666666666663</ele><time>2026-04-19T12:54:33.001Z</time></trkpt><trkpt lat="45.00050754100308" lon="7.486835174498001"><ele>289.0</ele><time>2026-04-19T12:54:34.001Z</time></trkpt><trkpt lat="45.00039905863116" lon="7.4869913540157"><ele>289.25</ele><time>2026-04-19T12:54:35.001Z</time></trkpt><trkpt lat="45.00030215600477" lon="7.4871446190115"><ele>289.5</ele><time>2026-04-19T12:54:36.001Z</time></trkpt><trkpt lat="45.00022121416458" lon="7.487308385001346"><ele>289.75</ele><time>2026-04-19T12:54:37.001Z</time></trkpt><trkpt lat="45.00015656839769" lon="7.487497434953234"><ele>290.0</ele><time>2026-04-19T12:54:38.001Z</time></trkpt><trkpt lat="45.00009920712925" lon="7.487705532532909"><ele>290.0</ele><time>2026-04-19T12:54:39.001Z</time></trkpt><trkpt lat="45.000030055367716" lon="7.487901513592709"><ele>290.0</ele><time>2026-04-19T12:54:40.001Z</time></trkpt><trkpt lat="44.99994775005674" lon="7.488087643258658"><ele>290.0</ele><time>2026-04-19T12:54:41.001Z</time></trkpt><trkpt lat="44.999857929146835" lon="7.488291291059756"><ele>290.33333333333337</ele><time>2026-04-19T12:54:42.001Z</time></trkpt><trkpt lat="44.99977622556138" lon="7.488486257550658"><ele>290.6666666666667</ele><time>2026-04-19T12:54:43.001Z</time></trkpt><trkpt lat="44.999700192853986" lon="7.48867956203278"><ele>291.0</ele><time>2026-04-19T12:54:44.001Z</time></trkpt><trkpt lat="44.99962089966117" lon="7.488872806852282"><ele>291.3333333333333</ele><time>2026-04-19T12:54:45.001Z</time></trkpt><trkpt lat="44.99953016089953" lon="7.489050367045954"><ele>291.66666666666663</ele><time>2026-04-19T12:54:46.001Z</time></trkpt><trkpt lat="44.99943044033487" lon="7.489229012991122"><ele>292.0</ele><time>2026-04-19T12:54:47.001Z</time></trkpt><trkpt lat="44.999334270732575" lon="7.48941030499577"><ele>291.66666666666663</ele><time>2026-04-19T12:54:48.001Z</time></trkpt><trkpt lat="44.999247161719275" lon="7.489595071401889"><ele>291.3333333333333</ele><time>2026-04-19T12:54:49.001Z</time></trkpt><trkpt lat="44.999168623195146" lon="7.489795021216236"><ele>291.0</ele><time>2026-04-19T12:54:50.001Z</time></trkpt><trkpt lat="44.99910273923548" lon="7.490005966324143"><ele>291.0</ele><time>2026-04-19T12:54:51.001Z</time></trkpt><trkpt lat="44.99905132469829" lon="7.490221301959069"><ele>291.0</ele><time>2026-04-19T12:54:52.001Z</time></trkpt><trkpt lat="44.99900142546316" lon="7.490436267181847"><ele>291.0</ele><time>2026-04-19T12:54:53.001Z</time></trkpt><trkpt lat="44.99893543677501" lon="7.490622130833113"><ele>291.0</ele><time>2026-04-19T12:54:54.001Z</time></trkpt><trkpt lat="44.99885307923051" lon="7.490790310939377"><ele>291.0</ele><time>2026-04-19T12:54:55.001Z</time></trkpt><trkpt lat="44.998777118830986" lon="7.490961164678459"><ele>291.0</ele><time>2026-04-19T12:54:56.001Z</time></trkpt><trkpt lat="44.99870816812682" lon="7.49114569495171"><ele>291.0</ele><time>2026-04-19T12:54:57.001Z</time></trkpt><trkpt lat="44.998643076688204" lon="7.4913228962256255"><ele>291.0</ele><time>2026-04-19T12:54:58.001Z</time></trkpt><trkpt lat="44.99857143176335" lon="7.4914982923299345"><ele>291.0</ele><time>2026-04-19T12:54:59.001Z</time></trkpt><trkpt lat="44.99849993588576" lon="7.491684523306811"><ele>291.0</ele><time>2026-04-19T12:55:00.001Z</time></trkpt><trkpt lat="44.99842551611019" lon="7.4918820235928525"><ele>291.0</ele><time>2026-04-19T12:55:01.001Z</time></trkpt><trkpt lat="44.99834241869878" lon="7.492087680372057"><ele>291.0</ele><time>2026-04-19T12:55:02.001Z</time></trkpt><trkpt lat="44.99825689565463" lon="7.492307665148459"><ele>291.0</ele><time>2026-04-19T12:55:03.001Z</time></trkpt><trkpt lat="44.998179327011755" lon="7.492530664797074"><ele>290.0</ele><time>2026-04-19T12:55:04.001Z</time></trkpt><trkpt lat="44.99810512184769" lon="7.49275965388881"><ele>289.0</ele><time>2026-04-19T12:55:05.001Z</time></trkpt><trkpt lat="44.998023818829296" lon="7.492985986028032"><ele>288.0</ele><time>2026-04-19T12:55:06.001Z</time></trkpt><trkpt lat="44.99793484947422" lon="7.493194732851258"><ele>287.0</ele><time>2026-04-19T12:55:07.001Z</time></trkpt><trkpt lat="44.997831092636766" lon="7.4934101338320565"><ele>286.0</ele><time>2026-04-19T12:55:08.001Z</time></trkpt><trkpt lat="44.99771894410457" lon="7.493615350952777"><ele>285.0</ele><time>2026-04-19T12:55:09.001Z</time></trkpt><trkpt lat="44.99761425300424" lon="7.493814796446265"><ele>285.0</ele><time>2026-04-19T12:55:10.001Z</time></trkpt><trkpt lat="44.997511276262735" lon="7.4940156399592865"><ele>285.0</ele><time>2026-04-19T12:55:11.001Z</time></trkpt><trkpt lat="44.99741617336677" lon="7.4942051243185475"><ele>285.0</ele><time>2026-04-19T12:55:12.001Z</time></trkpt><trkpt lat="44.99731639966419" lon="7.494366176531353"><ele>285.0</ele><time>2026-04-19T12:55:13.001Z</time></trkpt><trkpt lat="44.99719490610958" lon="7.494513601148726"><ele>285.0</ele><time>2026-04-19T12:55:14.001Z</time></trkpt><trkpt lat="44.997060356171346" lon="7.494654090070148"><ele>285.0</ele><time>2026-04-19T12:55:15.001Z</time></trkpt><trkpt lat="44.99692557077751" lon="7.494775650741554"><ele>285.0</ele><time>2026-04-19T12:55:16.001Z</time></trkpt><trkpt lat="44.996801392486155" lon="7.4948747766148855"><ele>285.0</ele><time>2026-04-19T12:55:17.001Z</time></trkpt><trkpt lat="44.9966893178452" lon="7.4949210259983206"><ele>285.0</ele><time>2026-04-19T12:55:18.001Z</time></trkpt><trkpt lat="44.99656502575202" lon="7.494930476121478"><ele>285.0</ele><time>2026-04-19T12:55:19.001Z</time></trkpt><trkpt lat="44.9964132649693" lon="7.494926408194999"><ele>285.3333333333333</ele><time>2026-04-19T12:55:20.001Z</time></trkpt><trkpt lat="44.99625460264066" lon="7.494934362664365"><ele>285.66666666666663</ele><time>2026-04-19T12:55:21.001Z</time></trkpt><trkpt lat="44.99610020187402" lon="7.494967786812164"><ele>286.0</ele><time>2026-04-19T12:55:22.001Z</time></trkpt><trkpt lat="44.99593375964459" lon="7.4950140132024625"><ele>285.3333333333333</ele><time>2026-04-19T12:55:23.002Z</time></trkpt><trkpt lat="44.99577430275182" lon="7.495053401246546"><ele>284.6666666666667</ele><time>2026-04-19T12:55:24.002Z</time></trkpt><trkpt lat="44.995610484290204" lon="7.495100330270017"><ele>284.0</ele><time>2026-04-19T12:55:25.002Z</time></trkpt><trkpt lat="44.995441827494375" lon="7.495150256360733"><ele>284.0</ele><time>2026-04-19T12:55:26Z</time></trkpt><trkpt lat="44.99528115237977" lon="7.495189133147854"><ele>284.0</ele><time>2026-04-19T12:55:27Z</time></trkpt><trkpt lat="44.99513076944507" lon="7.4951993320368455"><ele>284.0</ele><time>2026-04-19T12:55:28Z</time></trkpt><trkpt lat="44.99498768754632" lon="7.4952172375480455"><ele>284.0</ele><time>2026-04-19T12:55:29Z</time></trkpt><trkpt lat="44.99484364660524" lon="7.495234725356223"><ele>284.0</ele><time>2026-04-19T12:55:30Z</time></trkpt><trkpt lat="44.99471754163149" lon="7.495257186473895"><ele>284.0</ele><time>2026-04-19T12:55:31Z</time></trkpt><trkpt lat="44.99459698213927" lon="7.495320577280162"><ele>284.0</ele><time>2026-04-19T12:55:32Z</time></trkpt><trkpt lat="44.99446500565691" lon="7.495435286009892"><ele>284.25</ele><time>2026-04-19T12:55:33Z</time></trkpt><trkpt lat="44.99435768385767" lon="7.495536156706062"><ele>284.5</ele><time>2026-04-19T12:55:34Z</time></trkpt><trkpt lat="44.994251765745055" lon="7.495625571111409"><ele>284.75</ele><time>2026-04-19T12:55:35Z</time></trkpt><trkpt lat="44.99415170603167" lon="7.49570040219863"><ele>285.0</ele><time>2026-04-19T12:55:36Z</time></trkpt><trkpt lat="44.99405310105683" lon="7.495793575744998"><ele>284.6</ele><time>2026-04-19T12:55:37Z</time></trkpt><trkpt lat="44.99396477892529" lon="7.495851603599282"><ele>284.2</ele><time>2026-04-19T12:55:38Z</time></trkpt><trkpt lat="44.993888704925006" lon="7.495907744155459"><ele>283.8</ele><time>2026-04-19T12:55:39Z</time></trkpt><trkpt lat="44.99380260395401" lon="7.495968179769752"><ele>283.4</ele><time>2026-04-19T12:55:41Z</time></trkpt><trkpt lat="44.99377381365077" lon="7.495793087477739"><ele>283.0</ele><time>2026-04-19T12:55:42Z</time></trkpt><trkpt lat="44.993741569358946" lon="7.495676469466617"><ele>283.0</ele><time>2026-04-19T12:55:43Z</time></trkpt><trkpt lat="44.99370322040591" lon="7.495537772434116"><ele>283.0</ele><time>2026-04-19T12:55:44Z</time></trkpt><trkpt lat="44.993649289013156" lon="7.495398725385075"><ele>283.0</ele><time>2026-04-19T12:55:45Z</time></trkpt><trkpt lat="44.99361852223608" lon="7.495236302486136"><ele>283.0</ele><time>2026-04-19T12:55:46Z</time></trkpt><trkpt lat="44.99357132824741" lon="7.495086326474983"><ele>282.5</ele><time>2026-04-19T12:55:47Z</time></trkpt><trkpt lat="44.993538643800655" lon="7.494975250521853"><ele>282.0</ele><time>2026-04-19T12:55:48Z</time></trkpt><trkpt lat="44.99352175445601" lon="7.494881784911769"><ele>281.5</ele><time>2026-04-19T12:55:49Z</time></trkpt><trkpt lat="44.99357530864134" lon="7.49482018813928"><ele>281.0</ele><time>2026-04-19T12:55:51Z</time></trkpt><trkpt lat="44.99364448035058" lon="7.494968415823895"><ele>280.5</ele><time>2026-04-19T12:55:56Z</time></trkpt><trkpt lat="44.99367772732123" lon="7.495090512740435"><ele>280.0</ele><time>2026-04-19T12:56:47.001Z</time></trkpt><trkpt lat="44.99370941269853" lon="7.495221705687336"><ele>280.0</ele><time>2026-04-19T12:56:49.001Z</time></trkpt><trkpt lat="44.99375427821935" lon="7.495316555451105"><ele>280.0</ele><time>2026-04-19T12:56:53.001Z</time></trkpt><trkpt lat="44.99378382424555" lon="7.4954046962009295"><ele>280.0</ele><time>2026-04-19T12:56:54.001Z</time></trkpt><trkpt lat="44.993812200413814" lon="7.495489347056389"><ele>280.0</ele><time>2026-04-19T12:56:55.001Z</time></trkpt><trkpt lat="44.993732540888566" lon="7.495608350203542"><ele>280.0</ele><time>2026-04-19T12:56:56.001Z</time></trkpt><trkpt lat="44.993717923307706" lon="7.495734655948134"><ele>280.0</ele><time>2026-04-19T12:56:58.001Z</time></trkpt><trkpt lat="44.99374197031541" lon="7.495867164188208"><ele>280.75</ele><time>2026-04-19T12:56:59.001Z</time></trkpt><trkpt lat="44.993783777388515" lon="7.496035100065972"><ele>281.5</ele><time>2026-04-19T12:57:00.001Z</time></trkpt><trkpt lat="44.99383681795788" lon="7.496222338982709"><ele>282.25</ele><time>2026-04-19T12:57:01.001Z</time></trkpt><trkpt lat="44.993894352924464" lon="7.496414827428025"><ele>283.0</ele><time>2026-04-19T12:57:02.001Z</time></trkpt><trkpt lat="44.9939570404826" lon="7.496616210575521"><ele>283.0</ele><time>2026-04-19T12:57:03.001Z</time></trkpt><trkpt lat="44.99401587832915" lon="7.496826772986684"><ele>283.0</ele><time>2026-04-19T12:57:04.001Z</time></trkpt><trkpt lat="44.99407541099462" lon="7.497043734798045"><ele>283.0</ele><time>2026-04-19T12:57:05.001Z</time></trkpt><trkpt lat="44.99413729668953" lon="7.497260522121706"><ele>283.0</ele><time>2026-04-19T12:57:06.001Z</time></trkpt><trkpt lat="44.994195713245304" lon="7.497480572013049"><ele>283.0</ele><time>2026-04-19T12:57:07.001Z</time></trkpt><trkpt lat="44.994232454368024" lon="7.497685987199877"><ele>283.0</ele><time>2026-04-19T12:57:08.001Z</time></trkpt><trkpt lat="44.994257423386074" lon="7.497874244268873"><ele>283.25</ele><time>2026-04-19T12:57:09.001Z</time></trkpt><trkpt lat="44.99428950473324" lon="7.498044874939402"><ele>283.5</ele><time>2026-04-19T12:57:10.001Z</time></trkpt><trkpt lat="44.99435548439514" lon="7.498211270269378"><ele>283.75</ele><time>2026-04-19T12:57:11.001Z</time></trkpt><trkpt lat="44.99444399892333" lon="7.498385111472816"><ele>284.0</ele><time>2026-04-19T12:57:12.001Z</time></trkpt><trkpt lat="44.994516763788944" lon="7.498579174172605"><ele>283.33333333333337</ele><time>2026-04-19T12:57:13.001Z</time></trkpt><trkpt lat="44.99458010838438" lon="7.498798659671202"><ele>282.6666666666667</ele><time>2026-04-19T12:57:14.001Z</time></trkpt><trkpt lat="44.99464190423327" lon="7.499033891691503"><ele>282.0</ele><time>2026-04-19T12:57:15.001Z</time></trkpt><trkpt lat="44.9947063137222" lon="7.49926330378285"><ele>282.0</ele><time>2026-04-19T12:57:16.002Z</time></trkpt><trkpt lat="44.99477690428905" lon="7.499514335595717"><ele>282.0</ele><time>2026-04-19T12:57:17.002Z</time></trkpt><trkpt lat="44.994845371011216" lon="7.499766599244764"><ele>282.0</ele><time>2026-04-19T12:57:18.002Z</time></trkpt><trkpt lat="44.99491855920047" lon="7.500034981950971"><ele>282.0</ele><time>2026-04-19T12:57:19.002Z</time></trkpt><trkpt lat="44.994996680831306" lon="7.500296564899404"><ele>282.0</ele><time>2026-04-19T12:57:20.002Z</time></trkpt><trkpt lat="44.995068947091376" lon="7.500564643992013"><ele>282.0</ele><time>2026-04-19T12:57:21.002Z</time></trkpt><trkpt lat="44.995144331891034" lon="7.500831142484032"><ele>282.6666666666667</ele><time>2026-04-19T12:57:22.002Z</time></trkpt><trkpt lat="44.99522071142023" lon="7.501099820626685"><ele>283.33333333333337</ele><time>2026-04-19T12:57:23.002Z</time></trkpt><trkpt lat="44.99529977549249" lon="7.5013728188180195"><ele>284.0</ele><time>2026-04-19T12:57:24.002Z</time></trkpt><trkpt lat="44.99537530994607" lon="7.5016409654194"><ele>284.0</ele><time>2026-04-19T12:57:25.002Z</time></trkpt><trkpt lat="44.99545143752831" lon="7.50191025485254"><ele>284.0</ele><time>2026-04-19T12:57:26.002Z</time></trkpt><trkpt lat="44.99552748578278" lon="7.502178871862188"><ele>284.0</ele><time>2026-04-19T12:57:27.002Z</time></trkpt><trkpt lat="44.99560133950227" lon="7.502442976206124"><ele>283.33333333333337</ele><time>2026-04-19T12:57:28.002Z</time></trkpt><trkpt lat="44.99567089043482" lon="7.502707831183552"><ele>282.6666666666667</ele><time>2026-04-19T12:57:29.002Z</time></trkpt><trkpt lat="44.995747359814" lon="7.502969304587668"><ele>282.0</ele><time>2026-04-19T12:57:30.002Z</time></trkpt><trkpt lat="44.995821333806795" lon="7.503226709030653"><ele>283.3333333333333</ele><time>2026-04-19T12:57:31.002Z</time></trkpt><trkpt lat="44.99589942095107" lon="7.503480088950824"><ele>284.66666666666663</ele><time>2026-04-19T12:57:32.001Z</time></trkpt><trkpt lat="44.99596812037624" lon="7.503738164458184"><ele>286.0</ele><time>2026-04-19T12:57:33.001Z</time></trkpt><trkpt lat="44.9960356707072" lon="7.503992467694404"><ele>286.0</ele><time>2026-04-19T12:57:34.001Z</time></trkpt><trkpt lat="44.99610656039006" lon="7.504245146715421"><ele>286.0</ele><time>2026-04-19T12:57:35.001Z</time></trkpt><trkpt lat="44.99617981207083" lon="7.504497701257695"><ele>286.0</ele><time>2026-04-19T12:57:36.001Z</time></trkpt><trkpt lat="44.99624799548023" lon="7.504738867089595"><ele>285.0</ele><time>2026-04-19T12:57:37.001Z</time></trkpt><trkpt lat="44.9963125359268" lon="7.504967821622768"><ele>284.0</ele><time>2026-04-19T12:57:38.001Z</time></trkpt><trkpt lat="44.996377485433776" lon="7.505176300796402"><ele>283.0</ele><time>2026-04-19T12:57:39.001Z</time></trkpt><trkpt lat="44.99642668379468" lon="7.505382059192922"><ele>282.8</ele><time>2026-04-19T12:57:40.001Z</time></trkpt><trkpt lat="44.996471990540336" lon="7.5055460072955595"><ele>282.6</ele><time>2026-04-19T12:57:41.001Z</time></trkpt><trkpt lat="44.99650250740845" lon="7.505689680050963"><ele>282.4</ele><time>2026-04-19T12:57:42.001Z</time></trkpt><trkpt lat="44.99651399288481" lon="7.505820761516889"><ele>282.2</ele><time>2026-04-19T12:57:43.001Z</time></trkpt><trkpt lat="44.99652741990309" lon="7.505948372060365"><ele>282.0</ele><time>2026-04-19T12:57:44.001Z</time></trkpt><trkpt lat="44.99656936185042" lon="7.506060543229872"><ele>282.0</ele><time>2026-04-19T12:57:45.001Z</time></trkpt><trkpt lat="44.99665614846632" lon="7.5061549718066045"><ele>282.0</ele><time>2026-04-19T12:57:46.001Z</time></trkpt><trkpt lat="44.996734945717876" lon="7.506284295466299"><ele>282.0</ele><time>2026-04-19T12:57:47.001Z</time></trkpt><trkpt lat="44.9967543832275" lon="7.506485287616176"><ele>282.0</ele><time>2026-04-19T12:57:48.001Z</time></trkpt><trkpt lat="44.99681307993877" lon="7.506668396194934"><ele>282.0</ele><time>2026-04-19T12:57:49.001Z</time></trkpt><trkpt lat="44.99688162906651" lon="7.506867772501402"><ele>282.0</ele><time>2026-04-19T12:57:50.001Z</time></trkpt><trkpt lat="44.99694866366042" lon="7.507080238426045"><ele>282.0</ele><time>2026-04-19T12:57:51.001Z</time></trkpt><trkpt lat="44.997021018264995" lon="7.507325771448543"><ele>282.0</ele><time>2026-04-19T12:57:52.001Z</time></trkpt><trkpt lat="44.997091437220384" lon="7.507590763042472"><ele>282.0</ele><time>2026-04-19T12:57:53.001Z</time></trkpt><trkpt lat="44.99715763980514" lon="7.50785650696901"><ele>282.0</ele><time>2026-04-19T12:57:54.001Z</time></trkpt><trkpt lat="44.99722472886894" lon="7.508112236181778"><ele>282.3333333333333</ele><time>2026-04-19T12:57:55.001Z</time></trkpt><trkpt lat="44.997296122854024" lon="7.508354502006035"><ele>282.66666666666663</ele><time>2026-04-19T12:57:56.001Z</time></trkpt><trkpt lat="44.997373795923956" lon="7.5085916282928755"><ele>283.0</ele><time>2026-04-19T12:57:57.001Z</time></trkpt><trkpt lat="44.99745346875122" lon="7.508831378169152"><ele>283.0</ele><time>2026-04-19T12:57:58.001Z</time></trkpt><trkpt lat="44.99752746361966" lon="7.509083422178943"><ele>283.0</ele><time>2026-04-19T12:57:59.001Z</time></trkpt><trkpt lat="44.99759647004411" lon="7.509343883521863"><ele>283.0</ele><time>2026-04-19T12:58:00.001Z</time></trkpt><trkpt lat="44.997665097169545" lon="7.509596210750451"><ele>283.0</ele><time>2026-04-19T12:58:01.001Z</time></trkpt><trkpt lat="44.99773610083493" lon="7.509850858056191"><ele>283.0</ele><time>2026-04-19T12:58:02.001Z</time></trkpt><trkpt lat="44.99781064942571" lon="7.510111294630944"><ele>283.0</ele><time>2026-04-19T12:58:03.001Z</time></trkpt><trkpt lat="44.99788261883521" lon="7.510368160347878"><ele>283.3333333333333</ele><time>2026-04-19T12:58:04.001Z</time></trkpt><trkpt lat="44.9979548094484" lon="7.510624796781665"><ele>283.6666666666667</ele><time>2026-04-19T12:58:05.001Z</time></trkpt><trkpt lat="44.99802086775455" lon="7.510869490205563"><ele>284.0</ele><time>2026-04-19T12:58:06.001Z</time></trkpt><trkpt lat="44.99808523847688" lon="7.511109838345389"><ele>284.0</ele><time>2026-04-19T12:58:07.001Z</time></trkpt><trkpt lat="44.9981464161686" lon="7.511338632818692"><ele>284.0</ele><time>2026-04-19T12:58:08.001Z</time></trkpt><trkpt lat="44.99820160827626" lon="7.511542204470612"><ele>284.0</ele><time>2026-04-19T12:58:09.001Z</time></trkpt><trkpt lat="44.99825593445624" lon="7.511735937307078"><ele>284.0</ele><time>2026-04-19T12:58:10.001Z</time></trkpt><trkpt lat="44.998301750725815" lon="7.511923412748455"><ele>284.0</ele><time>2026-04-19T12:58:11.001Z</time></trkpt><trkpt lat="44.99833095136548" lon="7.51209182991817"><ele>284.0</ele><time>2026-04-19T12:58:12.001Z</time></trkpt><trkpt lat="44.99833747631025" lon="7.512247917434975"><ele>284.0</ele><time>2026-04-19T12:58:13.001Z</time></trkpt><trkpt lat="44.99832502767336" lon="7.51238431229443"><ele>284.0</ele><time>2026-04-19T12:58:14.001Z</time></trkpt><trkpt lat="44.99833956548992" lon="7.512494820051746"><ele>284.0</ele><time>2026-04-19T12:58:15.001Z</time></trkpt><trkpt lat="44.99839968177485" lon="7.512571650365843"><ele>284.0</ele><time>2026-04-19T12:58:16.001Z</time></trkpt><trkpt lat="44.99849679187565" lon="7.512626702872572"><ele>284.0</ele><time>2026-04-19T12:58:17.001Z</time></trkpt><trkpt lat="44.998555600096296" lon="7.512754925420584"><ele>284.0</ele><time>2026-04-19T12:58:18.001Z</time></trkpt><trkpt lat="44.99861105929761" lon="7.5129236563486295"><ele>284.0</ele><time>2026-04-19T12:58:19.001Z</time></trkpt><trkpt lat="44.99865582920203" lon="7.51311013422499"><ele>284.0</ele><time>2026-04-19T12:58:20.001Z</time></trkpt><trkpt lat="44.99870057813575" lon="7.513285527918831"><ele>284.0</ele><time>2026-04-19T12:58:21.001Z</time></trkpt><trkpt lat="44.99875762818533" lon="7.513476857441904"><ele>284.0</ele><time>2026-04-19T12:58:22.001Z</time></trkpt><trkpt lat="44.998829662370845" lon="7.513719597614127"><ele>284.6666666666667</ele><time>2026-04-19T12:58:23.001Z</time></trkpt><trkpt lat="44.99890439149583" lon="7.513966180139174"><ele>285.3333333333333</ele><time>2026-04-19T12:58:24.001Z</time></trkpt><trkpt lat="44.998970356685064" lon="7.514190274575933"><ele>286.0</ele><time>2026-04-19T12:58:25.001Z</time></trkpt><trkpt lat="44.99902558837968" lon="7.514388481964957"><ele>286.0</ele><time>2026-04-19T12:58:26.001Z</time></trkpt><trkpt lat="44.99907417986939" lon="7.514572588126696"><ele>286.0</ele><time>2026-04-19T12:58:27.001Z</time></trkpt><trkpt lat="44.999113257635706" lon="7.514749318565277"><ele>286.0</ele><time>2026-04-19T12:58:28.001Z</time></trkpt><trkpt lat="44.99916241525001" lon="7.514911078480336"><ele>286.0</ele><time>2026-04-19T12:58:29.001Z</time></trkpt><trkpt lat="44.9992096285666" lon="7.515058176053099"><ele>286.0</ele><time>2026-04-19T12:58:30.001Z</time></trkpt><trkpt lat="44.99924878439072" lon="7.515193105948664"><ele>286.0</ele><time>2026-04-19T12:58:31.001Z</time></trkpt><trkpt lat="44.99928655430098" lon="7.51532248415121"><ele>286.0</ele><time>2026-04-19T12:58:32.001Z</time></trkpt><trkpt lat="44.999326871748664" lon="7.515451210969214"><ele>286.0</ele><time>2026-04-19T12:58:33.001Z</time></trkpt><trkpt lat="44.99936765132437" lon="7.515601599355856"><ele>286.0</ele><time>2026-04-19T12:58:34.001Z</time></trkpt><trkpt lat="44.999414753025235" lon="7.515761800978541"><ele>285.3333333333333</ele><time>2026-04-19T12:58:35.001Z</time></trkpt><trkpt lat="44.99947141496558" lon="7.515939717255167"><ele>284.6666666666667</ele><time>2026-04-19T12:58:36.001Z</time></trkpt><trkpt lat="44.999523549183635" lon="7.5161545242742935"><ele>284.0</ele><time>2026-04-19T12:58:37.001Z</time></trkpt><trkpt lat="44.999589019802585" lon="7.516381218552308"><ele>283.0</ele><time>2026-04-19T12:58:38.001Z</time></trkpt><trkpt lat="44.99964597773795" lon="7.516606346882881"><ele>282.0</ele><time>2026-04-19T12:58:39.001Z</time></trkpt><trkpt lat="44.99970592651458" lon="7.516830770735898"><ele>281.0</ele><time>2026-04-19T12:58:40.001Z</time></trkpt><trkpt lat="44.99975420831853" lon="7.517031235053878"><ele>280.75</ele><time>2026-04-19T12:58:41.001Z</time></trkpt><trkpt lat="44.99980432832522" lon="7.517212314883391"><ele>280.5</ele><time>2026-04-19T12:58:42.001Z</time></trkpt><trkpt lat="44.99985330536999" lon="7.517384084526629"><ele>280.25</ele><time>2026-04-19T12:58:43.001Z</time></trkpt><trkpt lat="44.99989619611762" lon="7.517542790958394"><ele>280.0</ele><time>2026-04-19T12:58:44.001Z</time></trkpt><trkpt lat="44.999940959437545" lon="7.517687474982593"><ele>280.0</ele><time>2026-04-19T12:58:45.001Z</time></trkpt><trkpt lat="44.99997771928112" lon="7.517823573221397"><ele>280.0</ele><time>2026-04-19T12:58:46.001Z</time></trkpt><trkpt lat="45.000009496901804" lon="7.517943292632887"><ele>280.0</ele><time>2026-04-19T12:58:47.001Z</time></trkpt><trkpt lat="45.00003368146303" lon="7.518047641235233"><ele>280.0</ele><time>2026-04-19T12:58:48.001Z</time></trkpt><trkpt lat="45.000083245987476" lon="7.518187170103431"><ele>280.0</ele><time>2026-04-19T12:58:50.001Z</time></trkpt><trkpt lat="45.000137361236305" lon="7.518347555973723"><ele>280.0</ele><time>2026-04-19T12:58:51.001Z</time></trkpt><trkpt lat="45.000183067579904" lon="7.518530971713451"><ele>280.0</ele><time>2026-04-19T12:58:52.001Z</time></trkpt><trkpt lat="45.00022480934026" lon="7.518727072384711"><ele>280.0</ele><time>2026-04-19T12:58:53.001Z</time></trkpt><trkpt lat="45.000264262617804" lon="7.518904180665665"><ele>280.0</ele><time>2026-04-19T12:58:54.001Z</time></trkpt><trkpt lat="45.00030413512497" lon="7.5190570788115245"><ele>279.5</ele><time>2026-04-19T12:58:55.001Z</time></trkpt><trkpt lat="45.00033484002678" lon="7.519195112402381"><ele>279.0</ele><time>2026-04-19T12:58:56.001Z</time></trkpt><trkpt lat="45.00034465350363" lon="7.519326528255415"><ele>278.5</ele><time>2026-04-19T12:58:57.001Z</time></trkpt><trkpt lat="45.00033800888264" lon="7.5194475513099635"><ele>278.0</ele><time>2026-04-19T12:58:58.001Z</time></trkpt><trkpt lat="45.00031261953593" lon="7.519549534186158"><ele>277.5</ele><time>2026-04-19T12:58:59.001Z</time></trkpt><trkpt lat="45.00024992244746" lon="7.519641155266619"><ele>277.0</ele><time>2026-04-19T12:59:00.001Z</time></trkpt><trkpt lat="45.000140839511616" lon="7.5197413987315"><ele>276.66666666666663</ele><time>2026-04-19T12:59:01.001Z</time></trkpt><trkpt lat="44.9999950265603" lon="7.519820323539305"><ele>276.3333333333333</ele><time>2026-04-19T12:59:02.001Z</time></trkpt><trkpt lat="44.99980596487973" lon="7.519897138989601"><ele>276.0</ele><time>2026-04-19T12:59:03.001Z</time></trkpt><trkpt lat="44.999594281235694" lon="7.519955209324482"><ele>276.0</ele><time>2026-04-19T12:59:04.001Z</time></trkpt><trkpt lat="44.999363832495476" lon="7.520010407075502"><ele>276.0</ele><time>2026-04-19T12:59:05.001Z</time></trkpt><trkpt lat="44.99912141732725" lon="7.5200781212675"><ele>276.0</ele><time>2026-04-19T12:59:06.001Z</time></trkpt><trkpt lat="44.99887745611282" lon="7.5201530920115935"><ele>276.0</ele><time>2026-04-19T12:59:07.001Z</time></trkpt></trkseg></trk></gpx>